<?xml version="1.0" encoding="UTF-8" standalone="no" ?>
<gpx xmlns="http://www.topografix.com/GPX/1/1" xmlns:xsi="http://www.w3.org/2001/XMLSchema-instance" xsi:schemaLocation="http://www.topografix.com/GPX/1/1 http://www.topografix.com/GPX/1/1/gpx.xsd" version="1.1" creator="VisuGPX - https://www.visugpx.com">
  <metadata>
    <name>2017-05-22 Bike ride-Georges de Reneins O</name>
    <desc><![CDATA[2017-05-22 Bike ride-Georges de Reneins O]]></desc>
  </metadata>
  <wpt lat="45.92553" lon="4.73649">
    <ele>173</ele>
    <name><![CDATA[2017-05-22 10:27 (Start)]]></name>
  </wpt>
  <wpt lat="45.92463" lon="4.73705">
    <ele>174</ele>
    <name><![CDATA[2017-05-22 10:27 (End)]]></name>
    <desc><![CDATA[Created by Google My Tracks on Android  Name: 2017-05-22 10:27 Activity type: biking Description: - Total distance: 46.26 km (28.7 mi) Total time: 2:35:56 Moving time: 2:19:49 Average speed: 17.80 km/h (11.1 mi/h) Average moving speed: 19.85 km/h (12.3 mi/h) Max speed: 44.58 km/h (27.7 mi/h) Average pace: 3:22 min/km (5:26 min/mi) Average moving pace: 3:01 min/km (4:52 min/mi) Fastest pace: 1:21 min/km (2:10 min/mi) Max elevation: 233 m (765 ft) Min elevation: 161 m (529 ft) Elevation gain: 699 m (2294 ft) Max grade: 11 % Min grade: -19 % Recorded: 22/05/2017 10:27]]></desc>
  </wpt>
  <trk>
    <name><![CDATA[2017-05-22 10:27]]></name>
    <trkseg>
      <trkpt lat="45.92553" lon="4.73649">
        <ele>173</ele>
        <time>2017-05-22T08:27:34.209Z</time>
      </trkpt>
      <trkpt lat="45.92565" lon="4.73647">
        <ele>172</ele>
        <time>2017-05-22T08:30:04Z</time>
      </trkpt>
      <trkpt lat="45.9257" lon="4.73645">
        <ele>172</ele>
        <time>2017-05-22T08:30:05Z</time>
      </trkpt>
      <trkpt lat="45.92574" lon="4.73643">
        <ele>172</ele>
        <time>2017-05-22T08:30:06Z</time>
      </trkpt>
      <trkpt lat="45.92578" lon="4.73637">
        <ele>172</ele>
        <time>2017-05-22T08:30:07Z</time>
      </trkpt>
      <trkpt lat="45.92581" lon="4.73633">
        <ele>172</ele>
        <time>2017-05-22T08:30:08Z</time>
      </trkpt>
      <trkpt lat="45.92587" lon="4.73626">
        <ele>172</ele>
        <time>2017-05-22T08:30:10Z</time>
      </trkpt>
      <trkpt lat="45.92589" lon="4.73623">
        <ele>173</ele>
        <time>2017-05-22T08:30:11Z</time>
      </trkpt>
      <trkpt lat="45.92594" lon="4.73619">
        <ele>173</ele>
        <time>2017-05-22T08:30:13Z</time>
      </trkpt>
      <trkpt lat="45.92599" lon="4.73619">
        <ele>173</ele>
        <time>2017-05-22T08:30:14Z</time>
      </trkpt>
      <trkpt lat="45.92614" lon="4.7363">
        <ele>173</ele>
        <time>2017-05-22T08:30:15Z</time>
      </trkpt>
      <trkpt lat="45.92619" lon="4.73643">
        <ele>173</ele>
        <time>2017-05-22T08:30:16Z</time>
      </trkpt>
      <trkpt lat="45.92623" lon="4.73651">
        <ele>173</ele>
        <time>2017-05-22T08:30:17Z</time>
      </trkpt>
      <trkpt lat="45.92627" lon="4.73657">
        <ele>173</ele>
        <time>2017-05-22T08:30:18Z</time>
      </trkpt>
      <trkpt lat="45.92631" lon="4.73664">
        <ele>173</ele>
        <time>2017-05-22T08:30:19Z</time>
      </trkpt>
      <trkpt lat="45.92635" lon="4.7367">
        <ele>173</ele>
        <time>2017-05-22T08:30:20Z</time>
      </trkpt>
      <trkpt lat="45.92638" lon="4.73676">
        <ele>173</ele>
        <time>2017-05-22T08:30:21Z</time>
      </trkpt>
      <trkpt lat="45.92641" lon="4.73682">
        <ele>173</ele>
        <time>2017-05-22T08:30:22Z</time>
      </trkpt>
      <trkpt lat="45.92645" lon="4.73687">
        <ele>173</ele>
        <time>2017-05-22T08:30:23Z</time>
      </trkpt>
      <trkpt lat="45.92649" lon="4.73692">
        <ele>173</ele>
        <time>2017-05-22T08:30:24Z</time>
      </trkpt>
      <trkpt lat="45.92653" lon="4.73697">
        <ele>173</ele>
        <time>2017-05-22T08:30:25Z</time>
      </trkpt>
      <trkpt lat="45.92657" lon="4.73701">
        <ele>173</ele>
        <time>2017-05-22T08:30:26Z</time>
      </trkpt>
      <trkpt lat="45.92662" lon="4.73704">
        <ele>173</ele>
        <time>2017-05-22T08:30:27Z</time>
      </trkpt>
      <trkpt lat="45.92667" lon="4.73708">
        <ele>174</ele>
        <time>2017-05-22T08:30:28Z</time>
      </trkpt>
      <trkpt lat="45.92672" lon="4.7371">
        <ele>174</ele>
        <time>2017-05-22T08:30:29Z</time>
      </trkpt>
      <trkpt lat="45.92677" lon="4.73712">
        <ele>173</ele>
        <time>2017-05-22T08:30:30Z</time>
      </trkpt>
      <trkpt lat="45.92682" lon="4.73713">
        <ele>173</ele>
        <time>2017-05-22T08:30:31Z</time>
      </trkpt>
      <trkpt lat="45.92688" lon="4.73714">
        <ele>173</ele>
        <time>2017-05-22T08:30:32Z</time>
      </trkpt>
      <trkpt lat="45.92693" lon="4.73715">
        <ele>173</ele>
        <time>2017-05-22T08:30:33Z</time>
      </trkpt>
      <trkpt lat="45.92699" lon="4.73716">
        <ele>173</ele>
        <time>2017-05-22T08:30:34Z</time>
      </trkpt>
      <trkpt lat="45.92705" lon="4.73718">
        <ele>173</ele>
        <time>2017-05-22T08:30:35Z</time>
      </trkpt>
      <trkpt lat="45.92711" lon="4.7372">
        <ele>173</ele>
        <time>2017-05-22T08:30:36Z</time>
      </trkpt>
      <trkpt lat="45.92717" lon="4.73721">
        <ele>173</ele>
        <time>2017-05-22T08:30:37Z</time>
      </trkpt>
      <trkpt lat="45.92722" lon="4.73723">
        <ele>173</ele>
        <time>2017-05-22T08:30:38Z</time>
      </trkpt>
      <trkpt lat="45.92727" lon="4.73723">
        <ele>173</ele>
        <time>2017-05-22T08:30:39Z</time>
      </trkpt>
      <trkpt lat="45.92731" lon="4.73723">
        <ele>173</ele>
        <time>2017-05-22T08:30:40Z</time>
      </trkpt>
      <trkpt lat="45.92739" lon="4.73723">
        <ele>173</ele>
        <time>2017-05-22T08:30:42Z</time>
      </trkpt>
      <trkpt lat="45.92743" lon="4.73724">
        <ele>173</ele>
        <time>2017-05-22T08:30:43Z</time>
      </trkpt>
      <trkpt lat="45.92751" lon="4.73726">
        <ele>172</ele>
        <time>2017-05-22T08:30:45Z</time>
      </trkpt>
      <trkpt lat="45.92754" lon="4.73728">
        <ele>172</ele>
        <time>2017-05-22T08:30:46Z</time>
      </trkpt>
      <trkpt lat="45.9276" lon="4.7373">
        <ele>172</ele>
        <time>2017-05-22T08:30:48Z</time>
      </trkpt>
      <trkpt lat="45.92764" lon="4.73731">
        <ele>172</ele>
        <time>2017-05-22T08:30:49Z</time>
      </trkpt>
      <trkpt lat="45.92771" lon="4.73734">
        <ele>172</ele>
        <time>2017-05-22T08:30:51Z</time>
      </trkpt>
      <trkpt lat="45.92775" lon="4.73734">
        <ele>172</ele>
        <time>2017-05-22T08:30:52Z</time>
      </trkpt>
      <trkpt lat="45.92779" lon="4.73729">
        <ele>172</ele>
        <time>2017-05-22T08:30:54Z</time>
      </trkpt>
      <trkpt lat="45.92781" lon="4.73724">
        <ele>172</ele>
        <time>2017-05-22T08:30:55Z</time>
      </trkpt>
      <trkpt lat="45.92784" lon="4.73713">
        <ele>172</ele>
        <time>2017-05-22T08:30:57Z</time>
      </trkpt>
      <trkpt lat="45.92786" lon="4.73708">
        <ele>172</ele>
        <time>2017-05-22T08:30:58Z</time>
      </trkpt>
      <trkpt lat="45.9279" lon="4.73697">
        <ele>172</ele>
        <time>2017-05-22T08:31:00Z</time>
      </trkpt>
      <trkpt lat="45.9279" lon="4.73691">
        <ele>172</ele>
        <time>2017-05-22T08:31:01Z</time>
      </trkpt>
      <trkpt lat="45.92793" lon="4.7368">
        <ele>172</ele>
        <time>2017-05-22T08:31:03Z</time>
      </trkpt>
      <trkpt lat="45.92795" lon="4.73674">
        <ele>172</ele>
        <time>2017-05-22T08:31:04Z</time>
      </trkpt>
      <trkpt lat="45.92797" lon="4.73662">
        <ele>172</ele>
        <time>2017-05-22T08:31:06Z</time>
      </trkpt>
      <trkpt lat="45.92798" lon="4.73657">
        <ele>172</ele>
        <time>2017-05-22T08:31:07Z</time>
      </trkpt>
      <trkpt lat="45.92802" lon="4.73646">
        <ele>172</ele>
        <time>2017-05-22T08:31:09Z</time>
      </trkpt>
      <trkpt lat="45.92804" lon="4.73642">
        <ele>172</ele>
        <time>2017-05-22T08:31:10Z</time>
      </trkpt>
      <trkpt lat="45.9281" lon="4.73637">
        <ele>172</ele>
        <time>2017-05-22T08:31:12Z</time>
      </trkpt>
      <trkpt lat="45.92811" lon="4.73634">
        <ele>172</ele>
        <time>2017-05-22T08:31:13Z</time>
      </trkpt>
      <trkpt lat="45.92815" lon="4.73622">
        <ele>172</ele>
        <time>2017-05-22T08:31:16Z</time>
      </trkpt>
      <trkpt lat="45.92816" lon="4.73617">
        <ele>172</ele>
        <time>2017-05-22T08:31:17Z</time>
      </trkpt>
      <trkpt lat="45.92817" lon="4.73604">
        <ele>172</ele>
        <time>2017-05-22T08:31:19Z</time>
      </trkpt>
      <trkpt lat="45.92817" lon="4.73597">
        <ele>171</ele>
        <time>2017-05-22T08:31:20Z</time>
      </trkpt>
      <trkpt lat="45.92818" lon="4.73591">
        <ele>171</ele>
        <time>2017-05-22T08:31:21Z</time>
      </trkpt>
      <trkpt lat="45.92819" lon="4.73583">
        <ele>171</ele>
        <time>2017-05-22T08:31:22Z</time>
      </trkpt>
      <trkpt lat="45.9282" lon="4.73576">
        <ele>171</ele>
        <time>2017-05-22T08:31:23Z</time>
      </trkpt>
      <trkpt lat="45.9282" lon="4.73569">
        <ele>171</ele>
        <time>2017-05-22T08:31:24Z</time>
      </trkpt>
      <trkpt lat="45.92822" lon="4.73562">
        <ele>171</ele>
        <time>2017-05-22T08:31:25Z</time>
      </trkpt>
      <trkpt lat="45.92823" lon="4.73555">
        <ele>171</ele>
        <time>2017-05-22T08:31:26Z</time>
      </trkpt>
      <trkpt lat="45.92825" lon="4.73547">
        <ele>171</ele>
        <time>2017-05-22T08:31:27Z</time>
      </trkpt>
      <trkpt lat="45.92825" lon="4.73539">
        <ele>172</ele>
        <time>2017-05-22T08:31:28Z</time>
      </trkpt>
      <trkpt lat="45.92825" lon="4.73531">
        <ele>172</ele>
        <time>2017-05-22T08:31:29Z</time>
      </trkpt>
      <trkpt lat="45.92826" lon="4.73522">
        <ele>172</ele>
        <time>2017-05-22T08:31:30Z</time>
      </trkpt>
      <trkpt lat="45.92824" lon="4.73512">
        <ele>172</ele>
        <time>2017-05-22T08:31:31Z</time>
      </trkpt>
      <trkpt lat="45.92824" lon="4.73503">
        <ele>172</ele>
        <time>2017-05-22T08:31:32Z</time>
      </trkpt>
      <trkpt lat="45.92824" lon="4.73495">
        <ele>172</ele>
        <time>2017-05-22T08:31:33Z</time>
      </trkpt>
      <trkpt lat="45.92824" lon="4.73487">
        <ele>172</ele>
        <time>2017-05-22T08:31:34Z</time>
      </trkpt>
      <trkpt lat="45.92825" lon="4.73479">
        <ele>172</ele>
        <time>2017-05-22T08:31:35Z</time>
      </trkpt>
      <trkpt lat="45.92826" lon="4.73471">
        <ele>172</ele>
        <time>2017-05-22T08:31:36Z</time>
      </trkpt>
      <trkpt lat="45.92827" lon="4.73464">
        <ele>172</ele>
        <time>2017-05-22T08:31:37Z</time>
      </trkpt>
      <trkpt lat="45.92827" lon="4.73455">
        <ele>172</ele>
        <time>2017-05-22T08:31:38Z</time>
      </trkpt>
      <trkpt lat="45.92829" lon="4.73447">
        <ele>172</ele>
        <time>2017-05-22T08:31:39Z</time>
      </trkpt>
      <trkpt lat="45.92829" lon="4.73437">
        <ele>172</ele>
        <time>2017-05-22T08:31:40Z</time>
      </trkpt>
      <trkpt lat="45.9283" lon="4.73428">
        <ele>172</ele>
        <time>2017-05-22T08:31:41Z</time>
      </trkpt>
      <trkpt lat="45.9283" lon="4.73419">
        <ele>172</ele>
        <time>2017-05-22T08:31:42Z</time>
      </trkpt>
      <trkpt lat="45.92831" lon="4.7341">
        <ele>172</ele>
        <time>2017-05-22T08:31:43Z</time>
      </trkpt>
      <trkpt lat="45.92832" lon="4.73401">
        <ele>172</ele>
        <time>2017-05-22T08:31:44Z</time>
      </trkpt>
      <trkpt lat="45.92833" lon="4.73393">
        <ele>172</ele>
        <time>2017-05-22T08:31:45Z</time>
      </trkpt>
      <trkpt lat="45.92834" lon="4.73385">
        <ele>172</ele>
        <time>2017-05-22T08:31:46Z</time>
      </trkpt>
      <trkpt lat="45.92835" lon="4.73377">
        <ele>172</ele>
        <time>2017-05-22T08:31:47Z</time>
      </trkpt>
      <trkpt lat="45.92836" lon="4.73368">
        <ele>171</ele>
        <time>2017-05-22T08:31:48Z</time>
      </trkpt>
      <trkpt lat="45.92837" lon="4.7336">
        <ele>171</ele>
        <time>2017-05-22T08:31:49Z</time>
      </trkpt>
      <trkpt lat="45.92838" lon="4.73352">
        <ele>171</ele>
        <time>2017-05-22T08:31:50Z</time>
      </trkpt>
      <trkpt lat="45.92839" lon="4.73344">
        <ele>171</ele>
        <time>2017-05-22T08:31:51Z</time>
      </trkpt>
      <trkpt lat="45.9284" lon="4.73335">
        <ele>171</ele>
        <time>2017-05-22T08:31:52Z</time>
      </trkpt>
      <trkpt lat="45.92841" lon="4.73327">
        <ele>171</ele>
        <time>2017-05-22T08:31:53Z</time>
      </trkpt>
      <trkpt lat="45.92842" lon="4.73319">
        <ele>171</ele>
        <time>2017-05-22T08:31:54Z</time>
      </trkpt>
      <trkpt lat="45.92843" lon="4.7331">
        <ele>171</ele>
        <time>2017-05-22T08:31:55Z</time>
      </trkpt>
      <trkpt lat="45.92844" lon="4.73302">
        <ele>171</ele>
        <time>2017-05-22T08:31:56Z</time>
      </trkpt>
      <trkpt lat="45.92845" lon="4.73294">
        <ele>171</ele>
        <time>2017-05-22T08:31:57Z</time>
      </trkpt>
      <trkpt lat="45.92845" lon="4.73286">
        <ele>171</ele>
        <time>2017-05-22T08:31:58Z</time>
      </trkpt>
      <trkpt lat="45.92846" lon="4.73278">
        <ele>171</ele>
        <time>2017-05-22T08:31:59Z</time>
      </trkpt>
      <trkpt lat="45.92847" lon="4.73271">
        <ele>171</ele>
        <time>2017-05-22T08:32:00Z</time>
      </trkpt>
      <trkpt lat="45.92849" lon="4.73264">
        <ele>171</ele>
        <time>2017-05-22T08:32:01Z</time>
      </trkpt>
      <trkpt lat="45.92849" lon="4.73257">
        <ele>171</ele>
        <time>2017-05-22T08:32:02Z</time>
      </trkpt>
      <trkpt lat="45.9285" lon="4.7325">
        <ele>171</ele>
        <time>2017-05-22T08:32:03Z</time>
      </trkpt>
      <trkpt lat="45.92851" lon="4.73242">
        <ele>171</ele>
        <time>2017-05-22T08:32:04Z</time>
      </trkpt>
      <trkpt lat="45.92852" lon="4.73234">
        <ele>171</ele>
        <time>2017-05-22T08:32:05Z</time>
      </trkpt>
      <trkpt lat="45.92852" lon="4.73226">
        <ele>171</ele>
        <time>2017-05-22T08:32:06Z</time>
      </trkpt>
      <trkpt lat="45.92853" lon="4.73218">
        <ele>171</ele>
        <time>2017-05-22T08:32:07Z</time>
      </trkpt>
      <trkpt lat="45.92854" lon="4.73209">
        <ele>171</ele>
        <time>2017-05-22T08:32:08Z</time>
      </trkpt>
      <trkpt lat="45.92856" lon="4.73201">
        <ele>171</ele>
        <time>2017-05-22T08:32:09Z</time>
      </trkpt>
      <trkpt lat="45.92856" lon="4.73193">
        <ele>171</ele>
        <time>2017-05-22T08:32:10Z</time>
      </trkpt>
      <trkpt lat="45.92858" lon="4.73184">
        <ele>171</ele>
        <time>2017-05-22T08:32:11Z</time>
      </trkpt>
      <trkpt lat="45.92859" lon="4.73177">
        <ele>171</ele>
        <time>2017-05-22T08:32:12Z</time>
      </trkpt>
      <trkpt lat="45.9286" lon="4.73169">
        <ele>171</ele>
        <time>2017-05-22T08:32:13Z</time>
      </trkpt>
      <trkpt lat="45.92861" lon="4.7316">
        <ele>171</ele>
        <time>2017-05-22T08:32:14Z</time>
      </trkpt>
      <trkpt lat="45.92862" lon="4.73152">
        <ele>171</ele>
        <time>2017-05-22T08:32:15Z</time>
      </trkpt>
      <trkpt lat="45.92864" lon="4.73143">
        <ele>171</ele>
        <time>2017-05-22T08:32:16Z</time>
      </trkpt>
      <trkpt lat="45.92866" lon="4.73134">
        <ele>171</ele>
        <time>2017-05-22T08:32:17Z</time>
      </trkpt>
      <trkpt lat="45.92867" lon="4.73126">
        <ele>171</ele>
        <time>2017-05-22T08:32:18Z</time>
      </trkpt>
      <trkpt lat="45.92869" lon="4.73117">
        <ele>171</ele>
        <time>2017-05-22T08:32:19Z</time>
      </trkpt>
      <trkpt lat="45.92872" lon="4.7311">
        <ele>172</ele>
        <time>2017-05-22T08:32:20Z</time>
      </trkpt>
      <trkpt lat="45.92874" lon="4.73103">
        <ele>172</ele>
        <time>2017-05-22T08:32:21Z</time>
      </trkpt>
      <trkpt lat="45.92876" lon="4.73096">
        <ele>172</ele>
        <time>2017-05-22T08:32:22Z</time>
      </trkpt>
      <trkpt lat="45.92879" lon="4.73089">
        <ele>172</ele>
        <time>2017-05-22T08:32:23Z</time>
      </trkpt>
      <trkpt lat="45.92882" lon="4.73083">
        <ele>172</ele>
        <time>2017-05-22T08:32:24Z</time>
      </trkpt>
      <trkpt lat="45.92885" lon="4.73076">
        <ele>172</ele>
        <time>2017-05-22T08:32:25Z</time>
      </trkpt>
      <trkpt lat="45.92888" lon="4.7307">
        <ele>172</ele>
        <time>2017-05-22T08:32:26Z</time>
      </trkpt>
      <trkpt lat="45.92892" lon="4.73063">
        <ele>172</ele>
        <time>2017-05-22T08:32:27Z</time>
      </trkpt>
      <trkpt lat="45.92895" lon="4.73056">
        <ele>172</ele>
        <time>2017-05-22T08:32:28Z</time>
      </trkpt>
      <trkpt lat="45.92899" lon="4.7305">
        <ele>172</ele>
        <time>2017-05-22T08:32:29Z</time>
      </trkpt>
      <trkpt lat="45.92903" lon="4.73043">
        <ele>172</ele>
        <time>2017-05-22T08:32:30Z</time>
      </trkpt>
      <trkpt lat="45.92907" lon="4.73037">
        <ele>172</ele>
        <time>2017-05-22T08:32:31Z</time>
      </trkpt>
      <trkpt lat="45.92912" lon="4.73031">
        <ele>172</ele>
        <time>2017-05-22T08:32:32Z</time>
      </trkpt>
      <trkpt lat="45.92918" lon="4.73025">
        <ele>172</ele>
        <time>2017-05-22T08:32:33Z</time>
      </trkpt>
      <trkpt lat="45.92923" lon="4.7302">
        <ele>172</ele>
        <time>2017-05-22T08:32:34Z</time>
      </trkpt>
      <trkpt lat="45.92927" lon="4.73014">
        <ele>172</ele>
        <time>2017-05-22T08:32:35Z</time>
      </trkpt>
      <trkpt lat="45.92932" lon="4.73009">
        <ele>171</ele>
        <time>2017-05-22T08:32:36Z</time>
      </trkpt>
      <trkpt lat="45.92936" lon="4.73004">
        <ele>171</ele>
        <time>2017-05-22T08:32:37Z</time>
      </trkpt>
      <trkpt lat="45.9294" lon="4.72999">
        <ele>171</ele>
        <time>2017-05-22T08:32:38Z</time>
      </trkpt>
      <trkpt lat="45.92945" lon="4.72994">
        <ele>171</ele>
        <time>2017-05-22T08:32:39Z</time>
      </trkpt>
      <trkpt lat="45.92949" lon="4.72988">
        <ele>171</ele>
        <time>2017-05-22T08:32:40Z</time>
      </trkpt>
      <trkpt lat="45.92954" lon="4.72983">
        <ele>171</ele>
        <time>2017-05-22T08:32:41Z</time>
      </trkpt>
      <trkpt lat="45.92958" lon="4.72977">
        <ele>171</ele>
        <time>2017-05-22T08:32:42Z</time>
      </trkpt>
      <trkpt lat="45.92963" lon="4.72972">
        <ele>171</ele>
        <time>2017-05-22T08:32:43Z</time>
      </trkpt>
      <trkpt lat="45.92968" lon="4.72967">
        <ele>171</ele>
        <time>2017-05-22T08:32:44Z</time>
      </trkpt>
      <trkpt lat="45.92972" lon="4.72962">
        <ele>171</ele>
        <time>2017-05-22T08:32:45Z</time>
      </trkpt>
      <trkpt lat="45.92976" lon="4.72957">
        <ele>171</ele>
        <time>2017-05-22T08:32:46Z</time>
      </trkpt>
      <trkpt lat="45.92981" lon="4.72951">
        <ele>171</ele>
        <time>2017-05-22T08:32:47Z</time>
      </trkpt>
      <trkpt lat="45.92985" lon="4.72946">
        <ele>171</ele>
        <time>2017-05-22T08:32:48Z</time>
      </trkpt>
      <trkpt lat="45.9299" lon="4.7294">
        <ele>171</ele>
        <time>2017-05-22T08:32:49Z</time>
      </trkpt>
      <trkpt lat="45.92995" lon="4.72935">
        <ele>171</ele>
        <time>2017-05-22T08:32:50Z</time>
      </trkpt>
      <trkpt lat="45.93" lon="4.7293">
        <ele>171</ele>
        <time>2017-05-22T08:32:51Z</time>
      </trkpt>
      <trkpt lat="45.93004" lon="4.72924">
        <ele>170</ele>
        <time>2017-05-22T08:32:52Z</time>
      </trkpt>
      <trkpt lat="45.93009" lon="4.72919">
        <ele>170</ele>
        <time>2017-05-22T08:32:53Z</time>
      </trkpt>
      <trkpt lat="45.93014" lon="4.72913">
        <ele>171</ele>
        <time>2017-05-22T08:32:54Z</time>
      </trkpt>
      <trkpt lat="45.93019" lon="4.72907">
        <ele>172</ele>
        <time>2017-05-22T08:32:55Z</time>
      </trkpt>
      <trkpt lat="45.93023" lon="4.72902">
        <ele>172</ele>
        <time>2017-05-22T08:32:56Z</time>
      </trkpt>
      <trkpt lat="45.93028" lon="4.72896">
        <ele>172</ele>
        <time>2017-05-22T08:32:57Z</time>
      </trkpt>
      <trkpt lat="45.93033" lon="4.7289">
        <ele>172</ele>
        <time>2017-05-22T08:32:58Z</time>
      </trkpt>
      <trkpt lat="45.93038" lon="4.72885">
        <ele>172</ele>
        <time>2017-05-22T08:32:59Z</time>
      </trkpt>
      <trkpt lat="45.93042" lon="4.72879">
        <ele>172</ele>
        <time>2017-05-22T08:33:00Z</time>
      </trkpt>
      <trkpt lat="45.93047" lon="4.72874">
        <ele>172</ele>
        <time>2017-05-22T08:33:01Z</time>
      </trkpt>
      <trkpt lat="45.93052" lon="4.7287">
        <ele>172</ele>
        <time>2017-05-22T08:33:02Z</time>
      </trkpt>
      <trkpt lat="45.93056" lon="4.72865">
        <ele>172</ele>
        <time>2017-05-22T08:33:03Z</time>
      </trkpt>
      <trkpt lat="45.9306" lon="4.72861">
        <ele>172</ele>
        <time>2017-05-22T08:33:04Z</time>
      </trkpt>
      <trkpt lat="45.93064" lon="4.72856">
        <ele>172</ele>
        <time>2017-05-22T08:33:05Z</time>
      </trkpt>
      <trkpt lat="45.93068" lon="4.72851">
        <ele>172</ele>
        <time>2017-05-22T08:33:06Z</time>
      </trkpt>
      <trkpt lat="45.93072" lon="4.72845">
        <ele>173</ele>
        <time>2017-05-22T08:33:07Z</time>
      </trkpt>
      <trkpt lat="45.93077" lon="4.72839">
        <ele>173</ele>
        <time>2017-05-22T08:33:08Z</time>
      </trkpt>
      <trkpt lat="45.93081" lon="4.72833">
        <ele>173</ele>
        <time>2017-05-22T08:33:09Z</time>
      </trkpt>
      <trkpt lat="45.93084" lon="4.72827">
        <ele>173</ele>
        <time>2017-05-22T08:33:10Z</time>
      </trkpt>
      <trkpt lat="45.93088" lon="4.72822">
        <ele>172</ele>
        <time>2017-05-22T08:33:11Z</time>
      </trkpt>
      <trkpt lat="45.93092" lon="4.72816">
        <ele>172</ele>
        <time>2017-05-22T08:33:12Z</time>
      </trkpt>
      <trkpt lat="45.93097" lon="4.72815">
        <ele>172</ele>
        <time>2017-05-22T08:33:13Z</time>
      </trkpt>
      <trkpt lat="45.93103" lon="4.72808">
        <ele>171</ele>
        <time>2017-05-22T08:33:14Z</time>
      </trkpt>
      <trkpt lat="45.93108" lon="4.72803">
        <ele>171</ele>
        <time>2017-05-22T08:33:15Z</time>
      </trkpt>
      <trkpt lat="45.93113" lon="4.72797">
        <ele>171</ele>
        <time>2017-05-22T08:33:16Z</time>
      </trkpt>
      <trkpt lat="45.93117" lon="4.72793">
        <ele>171</ele>
        <time>2017-05-22T08:33:17Z</time>
      </trkpt>
      <trkpt lat="45.93122" lon="4.72787">
        <ele>171</ele>
        <time>2017-05-22T08:33:18Z</time>
      </trkpt>
      <trkpt lat="45.93127" lon="4.72781">
        <ele>171</ele>
        <time>2017-05-22T08:33:19Z</time>
      </trkpt>
      <trkpt lat="45.93131" lon="4.72775">
        <ele>171</ele>
        <time>2017-05-22T08:33:20Z</time>
      </trkpt>
      <trkpt lat="45.93137" lon="4.7277">
        <ele>171</ele>
        <time>2017-05-22T08:33:21Z</time>
      </trkpt>
      <trkpt lat="45.93142" lon="4.72765">
        <ele>171</ele>
        <time>2017-05-22T08:33:22Z</time>
      </trkpt>
      <trkpt lat="45.93147" lon="4.7276">
        <ele>171</ele>
        <time>2017-05-22T08:33:23Z</time>
      </trkpt>
      <trkpt lat="45.93152" lon="4.72754">
        <ele>170</ele>
        <time>2017-05-22T08:33:24Z</time>
      </trkpt>
      <trkpt lat="45.93157" lon="4.72749">
        <ele>170</ele>
        <time>2017-05-22T08:33:25Z</time>
      </trkpt>
      <trkpt lat="45.93161" lon="4.72744">
        <ele>170</ele>
        <time>2017-05-22T08:33:26Z</time>
      </trkpt>
      <trkpt lat="45.93166" lon="4.72738">
        <ele>170</ele>
        <time>2017-05-22T08:33:27Z</time>
      </trkpt>
      <trkpt lat="45.9317" lon="4.72732">
        <ele>170</ele>
        <time>2017-05-22T08:33:28Z</time>
      </trkpt>
      <trkpt lat="45.93175" lon="4.72726">
        <ele>170</ele>
        <time>2017-05-22T08:33:29Z</time>
      </trkpt>
      <trkpt lat="45.9318" lon="4.72721">
        <ele>169</ele>
        <time>2017-05-22T08:33:30Z</time>
      </trkpt>
      <trkpt lat="45.93185" lon="4.72716">
        <ele>169</ele>
        <time>2017-05-22T08:33:31Z</time>
      </trkpt>
      <trkpt lat="45.93189" lon="4.7271">
        <ele>169</ele>
        <time>2017-05-22T08:33:32Z</time>
      </trkpt>
      <trkpt lat="45.93194" lon="4.72705">
        <ele>169</ele>
        <time>2017-05-22T08:33:33Z</time>
      </trkpt>
      <trkpt lat="45.93199" lon="4.72699">
        <ele>169</ele>
        <time>2017-05-22T08:33:34Z</time>
      </trkpt>
      <trkpt lat="45.93204" lon="4.72692">
        <ele>169</ele>
        <time>2017-05-22T08:33:35Z</time>
      </trkpt>
      <trkpt lat="45.9321" lon="4.72686">
        <ele>169</ele>
        <time>2017-05-22T08:33:36Z</time>
      </trkpt>
      <trkpt lat="45.93215" lon="4.7268">
        <ele>169</ele>
        <time>2017-05-22T08:33:37Z</time>
      </trkpt>
      <trkpt lat="45.9322" lon="4.72674">
        <ele>169</ele>
        <time>2017-05-22T08:33:38Z</time>
      </trkpt>
      <trkpt lat="45.93225" lon="4.72668">
        <ele>169</ele>
        <time>2017-05-22T08:33:39Z</time>
      </trkpt>
      <trkpt lat="45.93229" lon="4.72662">
        <ele>169</ele>
        <time>2017-05-22T08:33:40Z</time>
      </trkpt>
      <trkpt lat="45.93234" lon="4.72657">
        <ele>169</ele>
        <time>2017-05-22T08:33:41Z</time>
      </trkpt>
      <trkpt lat="45.93238" lon="4.72652">
        <ele>169</ele>
        <time>2017-05-22T08:33:42Z</time>
      </trkpt>
      <trkpt lat="45.93243" lon="4.72646">
        <ele>170</ele>
        <time>2017-05-22T08:33:43Z</time>
      </trkpt>
      <trkpt lat="45.93247" lon="4.72641">
        <ele>170</ele>
        <time>2017-05-22T08:33:44Z</time>
      </trkpt>
      <trkpt lat="45.93251" lon="4.72635">
        <ele>170</ele>
        <time>2017-05-22T08:33:45Z</time>
      </trkpt>
      <trkpt lat="45.93256" lon="4.7263">
        <ele>170</ele>
        <time>2017-05-22T08:33:46Z</time>
      </trkpt>
      <trkpt lat="45.93261" lon="4.72625">
        <ele>170</ele>
        <time>2017-05-22T08:33:47Z</time>
      </trkpt>
      <trkpt lat="45.93267" lon="4.7262">
        <ele>170</ele>
        <time>2017-05-22T08:33:48Z</time>
      </trkpt>
      <trkpt lat="45.93273" lon="4.72614">
        <ele>170</ele>
        <time>2017-05-22T08:33:49Z</time>
      </trkpt>
      <trkpt lat="45.93277" lon="4.72607">
        <ele>170</ele>
        <time>2017-05-22T08:33:50Z</time>
      </trkpt>
      <trkpt lat="45.93283" lon="4.72601">
        <ele>170</ele>
        <time>2017-05-22T08:33:51Z</time>
      </trkpt>
      <trkpt lat="45.93288" lon="4.72595">
        <ele>170</ele>
        <time>2017-05-22T08:33:52Z</time>
      </trkpt>
      <trkpt lat="45.93294" lon="4.72589">
        <ele>170</ele>
        <time>2017-05-22T08:33:53Z</time>
      </trkpt>
      <trkpt lat="45.93299" lon="4.72584">
        <ele>170</ele>
        <time>2017-05-22T08:33:54Z</time>
      </trkpt>
      <trkpt lat="45.93304" lon="4.72578">
        <ele>171</ele>
        <time>2017-05-22T08:33:55Z</time>
      </trkpt>
      <trkpt lat="45.93309" lon="4.72572">
        <ele>171</ele>
        <time>2017-05-22T08:33:56Z</time>
      </trkpt>
      <trkpt lat="45.93313" lon="4.72566">
        <ele>171</ele>
        <time>2017-05-22T08:33:57Z</time>
      </trkpt>
      <trkpt lat="45.93318" lon="4.7256">
        <ele>171</ele>
        <time>2017-05-22T08:33:58Z</time>
      </trkpt>
      <trkpt lat="45.93322" lon="4.72554">
        <ele>172</ele>
        <time>2017-05-22T08:33:59Z</time>
      </trkpt>
      <trkpt lat="45.93327" lon="4.72549">
        <ele>172</ele>
        <time>2017-05-22T08:34:00Z</time>
      </trkpt>
      <trkpt lat="45.93332" lon="4.72544">
        <ele>172</ele>
        <time>2017-05-22T08:34:01Z</time>
      </trkpt>
      <trkpt lat="45.93337" lon="4.72539">
        <ele>171</ele>
        <time>2017-05-22T08:34:02Z</time>
      </trkpt>
      <trkpt lat="45.93341" lon="4.72534">
        <ele>172</ele>
        <time>2017-05-22T08:34:03Z</time>
      </trkpt>
      <trkpt lat="45.93345" lon="4.72529">
        <ele>172</ele>
        <time>2017-05-22T08:34:04Z</time>
      </trkpt>
      <trkpt lat="45.9335" lon="4.72523">
        <ele>172</ele>
        <time>2017-05-22T08:34:05Z</time>
      </trkpt>
      <trkpt lat="45.93355" lon="4.72517">
        <ele>172</ele>
        <time>2017-05-22T08:34:06Z</time>
      </trkpt>
      <trkpt lat="45.9336" lon="4.72512">
        <ele>172</ele>
        <time>2017-05-22T08:34:07Z</time>
      </trkpt>
      <trkpt lat="45.93365" lon="4.72507">
        <ele>172</ele>
        <time>2017-05-22T08:34:08Z</time>
      </trkpt>
      <trkpt lat="45.9337" lon="4.72502">
        <ele>172</ele>
        <time>2017-05-22T08:34:09Z</time>
      </trkpt>
      <trkpt lat="45.93376" lon="4.72498">
        <ele>173</ele>
        <time>2017-05-22T08:34:10Z</time>
      </trkpt>
      <trkpt lat="45.9338" lon="4.72492">
        <ele>173</ele>
        <time>2017-05-22T08:34:11Z</time>
      </trkpt>
      <trkpt lat="45.93384" lon="4.72486">
        <ele>173</ele>
        <time>2017-05-22T08:34:12Z</time>
      </trkpt>
      <trkpt lat="45.93388" lon="4.7248">
        <ele>173</ele>
        <time>2017-05-22T08:34:13Z</time>
      </trkpt>
      <trkpt lat="45.93392" lon="4.72475">
        <ele>173</ele>
        <time>2017-05-22T08:34:14Z</time>
      </trkpt>
      <trkpt lat="45.93395" lon="4.72469">
        <ele>173</ele>
        <time>2017-05-22T08:34:15Z</time>
      </trkpt>
      <trkpt lat="45.93398" lon="4.72463">
        <ele>173</ele>
        <time>2017-05-22T08:34:16Z</time>
      </trkpt>
      <trkpt lat="45.934" lon="4.72454">
        <ele>173</ele>
        <time>2017-05-22T08:34:18Z</time>
      </trkpt>
      <trkpt lat="45.93401" lon="4.72451">
        <ele>173</ele>
        <time>2017-05-22T08:34:19Z</time>
      </trkpt>
      <trkpt lat="45.93405" lon="4.72439">
        <ele>173</ele>
        <time>2017-05-22T08:34:22Z</time>
      </trkpt>
      <trkpt lat="45.93407" lon="4.72435">
        <ele>173</ele>
        <time>2017-05-22T08:34:23Z</time>
      </trkpt>
      <trkpt lat="45.93412" lon="4.72425">
        <ele>174</ele>
        <time>2017-05-22T08:34:25Z</time>
      </trkpt>
      <trkpt lat="45.93416" lon="4.72421">
        <ele>174</ele>
        <time>2017-05-22T08:34:26Z</time>
      </trkpt>
      <trkpt lat="45.9342" lon="4.72419">
        <ele>174</ele>
        <time>2017-05-22T08:34:27Z</time>
      </trkpt>
      <trkpt lat="45.93425" lon="4.72417">
        <ele>174</ele>
        <time>2017-05-22T08:34:28Z</time>
      </trkpt>
      <trkpt lat="45.9343" lon="4.72414">
        <ele>174</ele>
        <time>2017-05-22T08:34:29Z</time>
      </trkpt>
      <trkpt lat="45.93435" lon="4.72411">
        <ele>174</ele>
        <time>2017-05-22T08:34:30Z</time>
      </trkpt>
      <trkpt lat="45.93439" lon="4.72408">
        <ele>174</ele>
        <time>2017-05-22T08:34:31Z</time>
      </trkpt>
      <trkpt lat="45.93444" lon="4.72405">
        <ele>173</ele>
        <time>2017-05-22T08:34:32Z</time>
      </trkpt>
      <trkpt lat="45.93449" lon="4.72402">
        <ele>173</ele>
        <time>2017-05-22T08:34:33Z</time>
      </trkpt>
      <trkpt lat="45.93454" lon="4.72397">
        <ele>173</ele>
        <time>2017-05-22T08:34:34Z</time>
      </trkpt>
      <trkpt lat="45.93459" lon="4.72392">
        <ele>173</ele>
        <time>2017-05-22T08:34:35Z</time>
      </trkpt>
      <trkpt lat="45.93464" lon="4.72387">
        <ele>173</ele>
        <time>2017-05-22T08:34:36Z</time>
      </trkpt>
      <trkpt lat="45.93468" lon="4.7238">
        <ele>173</ele>
        <time>2017-05-22T08:34:37Z</time>
      </trkpt>
      <trkpt lat="45.93472" lon="4.72373">
        <ele>173</ele>
        <time>2017-05-22T08:34:38Z</time>
      </trkpt>
      <trkpt lat="45.93477" lon="4.72367">
        <ele>173</ele>
        <time>2017-05-22T08:34:39Z</time>
      </trkpt>
      <trkpt lat="45.93481" lon="4.72361">
        <ele>173</ele>
        <time>2017-05-22T08:34:40Z</time>
      </trkpt>
      <trkpt lat="45.93485" lon="4.72355">
        <ele>173</ele>
        <time>2017-05-22T08:34:41Z</time>
      </trkpt>
      <trkpt lat="45.9349" lon="4.72348">
        <ele>173</ele>
        <time>2017-05-22T08:34:42Z</time>
      </trkpt>
      <trkpt lat="45.93495" lon="4.72343">
        <ele>173</ele>
        <time>2017-05-22T08:34:43Z</time>
      </trkpt>
      <trkpt lat="45.935" lon="4.72337">
        <ele>173</ele>
        <time>2017-05-22T08:34:44Z</time>
      </trkpt>
      <trkpt lat="45.93504" lon="4.72331">
        <ele>173</ele>
        <time>2017-05-22T08:34:45Z</time>
      </trkpt>
      <trkpt lat="45.93508" lon="4.72326">
        <ele>173</ele>
        <time>2017-05-22T08:34:46Z</time>
      </trkpt>
      <trkpt lat="45.93511" lon="4.7232">
        <ele>173</ele>
        <time>2017-05-22T08:34:47Z</time>
      </trkpt>
      <trkpt lat="45.93514" lon="4.72314">
        <ele>173</ele>
        <time>2017-05-22T08:34:48Z</time>
      </trkpt>
      <trkpt lat="45.93518" lon="4.72308">
        <ele>173</ele>
        <time>2017-05-22T08:34:49Z</time>
      </trkpt>
      <trkpt lat="45.93521" lon="4.72301">
        <ele>172</ele>
        <time>2017-05-22T08:34:50Z</time>
      </trkpt>
      <trkpt lat="45.93524" lon="4.72294">
        <ele>172</ele>
        <time>2017-05-22T08:34:51Z</time>
      </trkpt>
      <trkpt lat="45.93527" lon="4.72287">
        <ele>172</ele>
        <time>2017-05-22T08:34:52Z</time>
      </trkpt>
      <trkpt lat="45.93529" lon="4.7228">
        <ele>172</ele>
        <time>2017-05-22T08:34:53Z</time>
      </trkpt>
      <trkpt lat="45.93532" lon="4.72273">
        <ele>172</ele>
        <time>2017-05-22T08:34:54Z</time>
      </trkpt>
      <trkpt lat="45.93535" lon="4.72267">
        <ele>172</ele>
        <time>2017-05-22T08:34:55Z</time>
      </trkpt>
      <trkpt lat="45.93538" lon="4.7226">
        <ele>172</ele>
        <time>2017-05-22T08:34:56Z</time>
      </trkpt>
      <trkpt lat="45.9354" lon="4.72253">
        <ele>172</ele>
        <time>2017-05-22T08:34:57Z</time>
      </trkpt>
      <trkpt lat="45.93544" lon="4.72246">
        <ele>172</ele>
        <time>2017-05-22T08:34:58Z</time>
      </trkpt>
      <trkpt lat="45.93547" lon="4.72239">
        <ele>172</ele>
        <time>2017-05-22T08:34:59Z</time>
      </trkpt>
      <trkpt lat="45.93551" lon="4.72232">
        <ele>172</ele>
        <time>2017-05-22T08:35:00Z</time>
      </trkpt>
      <trkpt lat="45.93555" lon="4.72225">
        <ele>173</ele>
        <time>2017-05-22T08:35:01Z</time>
      </trkpt>
      <trkpt lat="45.9356" lon="4.72219">
        <ele>173</ele>
        <time>2017-05-22T08:35:02Z</time>
      </trkpt>
      <trkpt lat="45.93565" lon="4.72214">
        <ele>173</ele>
        <time>2017-05-22T08:35:03Z</time>
      </trkpt>
      <trkpt lat="45.9357" lon="4.72209">
        <ele>173</ele>
        <time>2017-05-22T08:35:04Z</time>
      </trkpt>
      <trkpt lat="45.93575" lon="4.72203">
        <ele>173</ele>
        <time>2017-05-22T08:35:05Z</time>
      </trkpt>
      <trkpt lat="45.9358" lon="4.72198">
        <ele>173</ele>
        <time>2017-05-22T08:35:06Z</time>
      </trkpt>
      <trkpt lat="45.93585" lon="4.72193">
        <ele>173</ele>
        <time>2017-05-22T08:35:07Z</time>
      </trkpt>
      <trkpt lat="45.93589" lon="4.72189">
        <ele>173</ele>
        <time>2017-05-22T08:35:08Z</time>
      </trkpt>
      <trkpt lat="45.93595" lon="4.72185">
        <ele>173</ele>
        <time>2017-05-22T08:35:09Z</time>
      </trkpt>
      <trkpt lat="45.93599" lon="4.7218">
        <ele>173</ele>
        <time>2017-05-22T08:35:10Z</time>
      </trkpt>
      <trkpt lat="45.93604" lon="4.72176">
        <ele>173</ele>
        <time>2017-05-22T08:35:11Z</time>
      </trkpt>
      <trkpt lat="45.9361" lon="4.72172">
        <ele>173</ele>
        <time>2017-05-22T08:35:12Z</time>
      </trkpt>
      <trkpt lat="45.93614" lon="4.72168">
        <ele>173</ele>
        <time>2017-05-22T08:35:13Z</time>
      </trkpt>
      <trkpt lat="45.93619" lon="4.72162">
        <ele>173</ele>
        <time>2017-05-22T08:35:14Z</time>
      </trkpt>
      <trkpt lat="45.93625" lon="4.72156">
        <ele>173</ele>
        <time>2017-05-22T08:35:15Z</time>
      </trkpt>
      <trkpt lat="45.93629" lon="4.7215">
        <ele>173</ele>
        <time>2017-05-22T08:35:16Z</time>
      </trkpt>
      <trkpt lat="45.93634" lon="4.72144">
        <ele>173</ele>
        <time>2017-05-22T08:35:17Z</time>
      </trkpt>
      <trkpt lat="45.93638" lon="4.72137">
        <ele>173</ele>
        <time>2017-05-22T08:35:18Z</time>
      </trkpt>
      <trkpt lat="45.93641" lon="4.72131">
        <ele>173</ele>
        <time>2017-05-22T08:35:19Z</time>
      </trkpt>
      <trkpt lat="45.93644" lon="4.72125">
        <ele>173</ele>
        <time>2017-05-22T08:35:20Z</time>
      </trkpt>
      <trkpt lat="45.93648" lon="4.72118">
        <ele>173</ele>
        <time>2017-05-22T08:35:21Z</time>
      </trkpt>
      <trkpt lat="45.93652" lon="4.72111">
        <ele>173</ele>
        <time>2017-05-22T08:35:22Z</time>
      </trkpt>
      <trkpt lat="45.93656" lon="4.72105">
        <ele>173</ele>
        <time>2017-05-22T08:35:23Z</time>
      </trkpt>
      <trkpt lat="45.9366" lon="4.72097">
        <ele>173</ele>
        <time>2017-05-22T08:35:24Z</time>
      </trkpt>
      <trkpt lat="45.93664" lon="4.72091">
        <ele>172</ele>
        <time>2017-05-22T08:35:25Z</time>
      </trkpt>
      <trkpt lat="45.93668" lon="4.72084">
        <ele>172</ele>
        <time>2017-05-22T08:35:26Z</time>
      </trkpt>
      <trkpt lat="45.93673" lon="4.72076">
        <ele>172</ele>
        <time>2017-05-22T08:35:27Z</time>
      </trkpt>
      <trkpt lat="45.93677" lon="4.7207">
        <ele>172</ele>
        <time>2017-05-22T08:35:28Z</time>
      </trkpt>
      <trkpt lat="45.93682" lon="4.72062">
        <ele>172</ele>
        <time>2017-05-22T08:35:29Z</time>
      </trkpt>
      <trkpt lat="45.93686" lon="4.72056">
        <ele>172</ele>
        <time>2017-05-22T08:35:30Z</time>
      </trkpt>
      <trkpt lat="45.9369" lon="4.72049">
        <ele>172</ele>
        <time>2017-05-22T08:35:31Z</time>
      </trkpt>
      <trkpt lat="45.93694" lon="4.72042">
        <ele>172</ele>
        <time>2017-05-22T08:35:32Z</time>
      </trkpt>
      <trkpt lat="45.93698" lon="4.72035">
        <ele>172</ele>
        <time>2017-05-22T08:35:33Z</time>
      </trkpt>
      <trkpt lat="45.93701" lon="4.72029">
        <ele>172</ele>
        <time>2017-05-22T08:35:34Z</time>
      </trkpt>
      <trkpt lat="45.93704" lon="4.72022">
        <ele>172</ele>
        <time>2017-05-22T08:35:35Z</time>
      </trkpt>
      <trkpt lat="45.93708" lon="4.72016">
        <ele>172</ele>
        <time>2017-05-22T08:35:36Z</time>
      </trkpt>
      <trkpt lat="45.93712" lon="4.72009">
        <ele>172</ele>
        <time>2017-05-22T08:35:37Z</time>
      </trkpt>
      <trkpt lat="45.93717" lon="4.72003">
        <ele>172</ele>
        <time>2017-05-22T08:35:38Z</time>
      </trkpt>
      <trkpt lat="45.93722" lon="4.71996">
        <ele>172</ele>
        <time>2017-05-22T08:35:39Z</time>
      </trkpt>
      <trkpt lat="45.93727" lon="4.71989">
        <ele>172</ele>
        <time>2017-05-22T08:35:40Z</time>
      </trkpt>
      <trkpt lat="45.93733" lon="4.71982">
        <ele>172</ele>
        <time>2017-05-22T08:35:41Z</time>
      </trkpt>
      <trkpt lat="45.93737" lon="4.71976">
        <ele>172</ele>
        <time>2017-05-22T08:35:42Z</time>
      </trkpt>
      <trkpt lat="45.93741" lon="4.71969">
        <ele>172</ele>
        <time>2017-05-22T08:35:43Z</time>
      </trkpt>
      <trkpt lat="45.93746" lon="4.71965">
        <ele>172</ele>
        <time>2017-05-22T08:35:44Z</time>
      </trkpt>
      <trkpt lat="45.93751" lon="4.71961">
        <ele>171</ele>
        <time>2017-05-22T08:35:45Z</time>
      </trkpt>
      <trkpt lat="45.93756" lon="4.71956">
        <ele>171</ele>
        <time>2017-05-22T08:35:46Z</time>
      </trkpt>
      <trkpt lat="45.9376" lon="4.7195">
        <ele>171</ele>
        <time>2017-05-22T08:35:47Z</time>
      </trkpt>
      <trkpt lat="45.93764" lon="4.71944">
        <ele>171</ele>
        <time>2017-05-22T08:35:48Z</time>
      </trkpt>
      <trkpt lat="45.93767" lon="4.71937">
        <ele>171</ele>
        <time>2017-05-22T08:35:49Z</time>
      </trkpt>
      <trkpt lat="45.93771" lon="4.7193">
        <ele>171</ele>
        <time>2017-05-22T08:35:50Z</time>
      </trkpt>
      <trkpt lat="45.93775" lon="4.71923">
        <ele>171</ele>
        <time>2017-05-22T08:35:51Z</time>
      </trkpt>
      <trkpt lat="45.93778" lon="4.71916">
        <ele>172</ele>
        <time>2017-05-22T08:35:52Z</time>
      </trkpt>
      <trkpt lat="45.9378" lon="4.71908">
        <ele>172</ele>
        <time>2017-05-22T08:35:53Z</time>
      </trkpt>
      <trkpt lat="45.93782" lon="4.719">
        <ele>172</ele>
        <time>2017-05-22T08:35:54Z</time>
      </trkpt>
      <trkpt lat="45.93783" lon="4.71892">
        <ele>172</ele>
        <time>2017-05-22T08:35:55Z</time>
      </trkpt>
      <trkpt lat="45.93786" lon="4.71884">
        <ele>172</ele>
        <time>2017-05-22T08:35:56Z</time>
      </trkpt>
      <trkpt lat="45.9379" lon="4.71877">
        <ele>172</ele>
        <time>2017-05-22T08:35:57Z</time>
      </trkpt>
      <trkpt lat="45.93793" lon="4.7187">
        <ele>172</ele>
        <time>2017-05-22T08:35:58Z</time>
      </trkpt>
      <trkpt lat="45.93797" lon="4.71862">
        <ele>172</ele>
        <time>2017-05-22T08:35:59Z</time>
      </trkpt>
      <trkpt lat="45.93801" lon="4.71855">
        <ele>172</ele>
        <time>2017-05-22T08:36:00Z</time>
      </trkpt>
      <trkpt lat="45.93805" lon="4.71847">
        <ele>172</ele>
        <time>2017-05-22T08:36:01Z</time>
      </trkpt>
      <trkpt lat="45.93809" lon="4.7184">
        <ele>172</ele>
        <time>2017-05-22T08:36:02Z</time>
      </trkpt>
      <trkpt lat="45.93814" lon="4.71833">
        <ele>173</ele>
        <time>2017-05-22T08:36:03Z</time>
      </trkpt>
      <trkpt lat="45.93818" lon="4.71826">
        <ele>173</ele>
        <time>2017-05-22T08:36:04Z</time>
      </trkpt>
      <trkpt lat="45.93822" lon="4.7182">
        <ele>173</ele>
        <time>2017-05-22T08:36:05Z</time>
      </trkpt>
      <trkpt lat="45.93827" lon="4.71813">
        <ele>173</ele>
        <time>2017-05-22T08:36:06Z</time>
      </trkpt>
      <trkpt lat="45.93831" lon="4.71807">
        <ele>173</ele>
        <time>2017-05-22T08:36:07Z</time>
      </trkpt>
      <trkpt lat="45.93835" lon="4.71801">
        <ele>173</ele>
        <time>2017-05-22T08:36:08Z</time>
      </trkpt>
      <trkpt lat="45.93838" lon="4.71794">
        <ele>173</ele>
        <time>2017-05-22T08:36:09Z</time>
      </trkpt>
      <trkpt lat="45.93838" lon="4.71786">
        <ele>173</ele>
        <time>2017-05-22T08:36:10Z</time>
      </trkpt>
      <trkpt lat="45.93839" lon="4.71778">
        <ele>173</ele>
        <time>2017-05-22T08:36:11Z</time>
      </trkpt>
      <trkpt lat="45.93843" lon="4.71771">
        <ele>173</ele>
        <time>2017-05-22T08:36:12Z</time>
      </trkpt>
      <trkpt lat="45.93847" lon="4.71766">
        <ele>173</ele>
        <time>2017-05-22T08:36:13Z</time>
      </trkpt>
      <trkpt lat="45.93853" lon="4.7176">
        <ele>173</ele>
        <time>2017-05-22T08:36:14Z</time>
      </trkpt>
      <trkpt lat="45.93858" lon="4.71755">
        <ele>173</ele>
        <time>2017-05-22T08:36:15Z</time>
      </trkpt>
      <trkpt lat="45.93863" lon="4.7175">
        <ele>174</ele>
        <time>2017-05-22T08:36:16Z</time>
      </trkpt>
      <trkpt lat="45.93867" lon="4.71745">
        <ele>174</ele>
        <time>2017-05-22T08:36:17Z</time>
      </trkpt>
      <trkpt lat="45.93873" lon="4.7174">
        <ele>174</ele>
        <time>2017-05-22T08:36:18Z</time>
      </trkpt>
      <trkpt lat="45.93878" lon="4.71736">
        <ele>174</ele>
        <time>2017-05-22T08:36:19Z</time>
      </trkpt>
      <trkpt lat="45.93882" lon="4.71732">
        <ele>174</ele>
        <time>2017-05-22T08:36:20Z</time>
      </trkpt>
      <trkpt lat="45.93888" lon="4.71727">
        <ele>174</ele>
        <time>2017-05-22T08:36:21Z</time>
      </trkpt>
      <trkpt lat="45.93892" lon="4.71722">
        <ele>174</ele>
        <time>2017-05-22T08:36:22Z</time>
      </trkpt>
      <trkpt lat="45.93897" lon="4.71717">
        <ele>174</ele>
        <time>2017-05-22T08:36:23Z</time>
      </trkpt>
      <trkpt lat="45.93901" lon="4.71712">
        <ele>174</ele>
        <time>2017-05-22T08:36:24Z</time>
      </trkpt>
      <trkpt lat="45.93905" lon="4.71708">
        <ele>174</ele>
        <time>2017-05-22T08:36:25Z</time>
      </trkpt>
      <trkpt lat="45.9391" lon="4.71705">
        <ele>174</ele>
        <time>2017-05-22T08:36:26Z</time>
      </trkpt>
      <trkpt lat="45.93915" lon="4.71703">
        <ele>174</ele>
        <time>2017-05-22T08:36:27Z</time>
      </trkpt>
      <trkpt lat="45.93921" lon="4.71701">
        <ele>174</ele>
        <time>2017-05-22T08:36:28Z</time>
      </trkpt>
      <trkpt lat="45.93926" lon="4.71699">
        <ele>174</ele>
        <time>2017-05-22T08:36:29Z</time>
      </trkpt>
      <trkpt lat="45.93931" lon="4.71697">
        <ele>174</ele>
        <time>2017-05-22T08:36:30Z</time>
      </trkpt>
      <trkpt lat="45.93936" lon="4.71694">
        <ele>175</ele>
        <time>2017-05-22T08:36:31Z</time>
      </trkpt>
      <trkpt lat="45.93941" lon="4.71692">
        <ele>175</ele>
        <time>2017-05-22T08:36:32Z</time>
      </trkpt>
      <trkpt lat="45.93946" lon="4.71689">
        <ele>175</ele>
        <time>2017-05-22T08:36:33Z</time>
      </trkpt>
      <trkpt lat="45.93951" lon="4.71687">
        <ele>175</ele>
        <time>2017-05-22T08:36:34Z</time>
      </trkpt>
      <trkpt lat="45.93957" lon="4.71685">
        <ele>175</ele>
        <time>2017-05-22T08:36:35Z</time>
      </trkpt>
      <trkpt lat="45.93962" lon="4.71683">
        <ele>175</ele>
        <time>2017-05-22T08:36:36Z</time>
      </trkpt>
      <trkpt lat="45.93967" lon="4.71681">
        <ele>175</ele>
        <time>2017-05-22T08:36:37Z</time>
      </trkpt>
      <trkpt lat="45.93973" lon="4.71679">
        <ele>175</ele>
        <time>2017-05-22T08:36:38Z</time>
      </trkpt>
      <trkpt lat="45.93978" lon="4.71677">
        <ele>175</ele>
        <time>2017-05-22T08:36:39Z</time>
      </trkpt>
      <trkpt lat="45.93984" lon="4.71676">
        <ele>176</ele>
        <time>2017-05-22T08:36:40Z</time>
      </trkpt>
      <trkpt lat="45.93991" lon="4.71677">
        <ele>176</ele>
        <time>2017-05-22T08:36:41Z</time>
      </trkpt>
      <trkpt lat="45.93996" lon="4.71681">
        <ele>176</ele>
        <time>2017-05-22T08:36:42Z</time>
      </trkpt>
      <trkpt lat="45.94001" lon="4.71686">
        <ele>176</ele>
        <time>2017-05-22T08:36:43Z</time>
      </trkpt>
      <trkpt lat="45.94007" lon="4.71687">
        <ele>175</ele>
        <time>2017-05-22T08:36:44Z</time>
      </trkpt>
      <trkpt lat="45.94012" lon="4.71685">
        <ele>175</ele>
        <time>2017-05-22T08:36:45Z</time>
      </trkpt>
      <trkpt lat="45.94017" lon="4.71678">
        <ele>175</ele>
        <time>2017-05-22T08:36:46Z</time>
      </trkpt>
      <trkpt lat="45.9402" lon="4.71672">
        <ele>175</ele>
        <time>2017-05-22T08:36:47Z</time>
      </trkpt>
      <trkpt lat="45.94023" lon="4.71664">
        <ele>176</ele>
        <time>2017-05-22T08:36:48Z</time>
      </trkpt>
      <trkpt lat="45.94025" lon="4.71659">
        <ele>175</ele>
        <time>2017-05-22T08:36:49Z</time>
      </trkpt>
      <trkpt lat="45.94029" lon="4.71655">
        <ele>175</ele>
        <time>2017-05-22T08:36:50Z</time>
      </trkpt>
      <trkpt lat="45.94034" lon="4.71652">
        <ele>175</ele>
        <time>2017-05-22T08:36:51Z</time>
      </trkpt>
      <trkpt lat="45.94039" lon="4.7165">
        <ele>175</ele>
        <time>2017-05-22T08:36:52Z</time>
      </trkpt>
      <trkpt lat="45.94044" lon="4.71648">
        <ele>175</ele>
        <time>2017-05-22T08:36:53Z</time>
      </trkpt>
      <trkpt lat="45.9405" lon="4.71645">
        <ele>175</ele>
        <time>2017-05-22T08:36:54Z</time>
      </trkpt>
      <trkpt lat="45.94055" lon="4.71643">
        <ele>174</ele>
        <time>2017-05-22T08:36:55Z</time>
      </trkpt>
      <trkpt lat="45.94061" lon="4.7164">
        <ele>174</ele>
        <time>2017-05-22T08:36:56Z</time>
      </trkpt>
      <trkpt lat="45.94067" lon="4.71638">
        <ele>174</ele>
        <time>2017-05-22T08:36:57Z</time>
      </trkpt>
      <trkpt lat="45.94072" lon="4.71636">
        <ele>174</ele>
        <time>2017-05-22T08:36:58Z</time>
      </trkpt>
      <trkpt lat="45.94078" lon="4.71634">
        <ele>174</ele>
        <time>2017-05-22T08:36:59Z</time>
      </trkpt>
      <trkpt lat="45.94084" lon="4.71631">
        <ele>173</ele>
        <time>2017-05-22T08:37:00Z</time>
      </trkpt>
      <trkpt lat="45.94089" lon="4.71629">
        <ele>173</ele>
        <time>2017-05-22T08:37:01Z</time>
      </trkpt>
      <trkpt lat="45.94095" lon="4.71628">
        <ele>173</ele>
        <time>2017-05-22T08:37:02Z</time>
      </trkpt>
      <trkpt lat="45.94101" lon="4.71625">
        <ele>173</ele>
        <time>2017-05-22T08:37:03Z</time>
      </trkpt>
      <trkpt lat="45.94107" lon="4.71623">
        <ele>173</ele>
        <time>2017-05-22T08:37:04Z</time>
      </trkpt>
      <trkpt lat="45.94112" lon="4.71622">
        <ele>173</ele>
        <time>2017-05-22T08:37:05Z</time>
      </trkpt>
      <trkpt lat="45.94117" lon="4.71621">
        <ele>173</ele>
        <time>2017-05-22T08:37:06Z</time>
      </trkpt>
      <trkpt lat="45.94123" lon="4.71619">
        <ele>173</ele>
        <time>2017-05-22T08:37:07Z</time>
      </trkpt>
      <trkpt lat="45.94128" lon="4.71617">
        <ele>173</ele>
        <time>2017-05-22T08:37:08Z</time>
      </trkpt>
      <trkpt lat="45.94132" lon="4.71615">
        <ele>173</ele>
        <time>2017-05-22T08:37:09Z</time>
      </trkpt>
      <trkpt lat="45.94138" lon="4.71613">
        <ele>173</ele>
        <time>2017-05-22T08:37:10Z</time>
      </trkpt>
      <trkpt lat="45.94143" lon="4.71611">
        <ele>173</ele>
        <time>2017-05-22T08:37:11Z</time>
      </trkpt>
      <trkpt lat="45.94147" lon="4.71609">
        <ele>173</ele>
        <time>2017-05-22T08:37:12Z</time>
      </trkpt>
      <trkpt lat="45.94152" lon="4.71607">
        <ele>173</ele>
        <time>2017-05-22T08:37:13Z</time>
      </trkpt>
      <trkpt lat="45.94158" lon="4.71605">
        <ele>173</ele>
        <time>2017-05-22T08:37:14Z</time>
      </trkpt>
      <trkpt lat="45.94163" lon="4.71603">
        <ele>173</ele>
        <time>2017-05-22T08:37:15Z</time>
      </trkpt>
      <trkpt lat="45.94167" lon="4.716">
        <ele>173</ele>
        <time>2017-05-22T08:37:16Z</time>
      </trkpt>
      <trkpt lat="45.94173" lon="4.71598">
        <ele>173</ele>
        <time>2017-05-22T08:37:17Z</time>
      </trkpt>
      <trkpt lat="45.9418" lon="4.71595">
        <ele>173</ele>
        <time>2017-05-22T08:37:18Z</time>
      </trkpt>
      <trkpt lat="45.94186" lon="4.71593">
        <ele>173</ele>
        <time>2017-05-22T08:37:19Z</time>
      </trkpt>
      <trkpt lat="45.94193" lon="4.7159">
        <ele>173</ele>
        <time>2017-05-22T08:37:20Z</time>
      </trkpt>
      <trkpt lat="45.94199" lon="4.71588">
        <ele>173</ele>
        <time>2017-05-22T08:37:21Z</time>
      </trkpt>
      <trkpt lat="45.94204" lon="4.71586">
        <ele>173</ele>
        <time>2017-05-22T08:37:22Z</time>
      </trkpt>
      <trkpt lat="45.9421" lon="4.71584">
        <ele>173</ele>
        <time>2017-05-22T08:37:23Z</time>
      </trkpt>
      <trkpt lat="45.94216" lon="4.71583">
        <ele>174</ele>
        <time>2017-05-22T08:37:24Z</time>
      </trkpt>
      <trkpt lat="45.94221" lon="4.71581">
        <ele>174</ele>
        <time>2017-05-22T08:37:25Z</time>
      </trkpt>
      <trkpt lat="45.94226" lon="4.71579">
        <ele>174</ele>
        <time>2017-05-22T08:37:26Z</time>
      </trkpt>
      <trkpt lat="45.94231" lon="4.71578">
        <ele>174</ele>
        <time>2017-05-22T08:37:27Z</time>
      </trkpt>
      <trkpt lat="45.94236" lon="4.71576">
        <ele>174</ele>
        <time>2017-05-22T08:37:28Z</time>
      </trkpt>
      <trkpt lat="45.94242" lon="4.71574">
        <ele>174</ele>
        <time>2017-05-22T08:37:29Z</time>
      </trkpt>
      <trkpt lat="45.94247" lon="4.71572">
        <ele>174</ele>
        <time>2017-05-22T08:37:30Z</time>
      </trkpt>
      <trkpt lat="45.94252" lon="4.7157">
        <ele>175</ele>
        <time>2017-05-22T08:37:31Z</time>
      </trkpt>
      <trkpt lat="45.94257" lon="4.71567">
        <ele>175</ele>
        <time>2017-05-22T08:37:32Z</time>
      </trkpt>
      <trkpt lat="45.94262" lon="4.71565">
        <ele>175</ele>
        <time>2017-05-22T08:37:33Z</time>
      </trkpt>
      <trkpt lat="45.94267" lon="4.71562">
        <ele>175</ele>
        <time>2017-05-22T08:37:34Z</time>
      </trkpt>
      <trkpt lat="45.94273" lon="4.7156">
        <ele>175</ele>
        <time>2017-05-22T08:37:35Z</time>
      </trkpt>
      <trkpt lat="45.94279" lon="4.71558">
        <ele>175</ele>
        <time>2017-05-22T08:37:36Z</time>
      </trkpt>
      <trkpt lat="45.94285" lon="4.71556">
        <ele>175</ele>
        <time>2017-05-22T08:37:37Z</time>
      </trkpt>
      <trkpt lat="45.9429" lon="4.71553">
        <ele>175</ele>
        <time>2017-05-22T08:37:38Z</time>
      </trkpt>
      <trkpt lat="45.94296" lon="4.71551">
        <ele>175</ele>
        <time>2017-05-22T08:37:39Z</time>
      </trkpt>
      <trkpt lat="45.94301" lon="4.71549">
        <ele>175</ele>
        <time>2017-05-22T08:37:40Z</time>
      </trkpt>
      <trkpt lat="45.94306" lon="4.71548">
        <ele>175</ele>
        <time>2017-05-22T08:37:41Z</time>
      </trkpt>
      <trkpt lat="45.9431" lon="4.71546">
        <ele>175</ele>
        <time>2017-05-22T08:37:42Z</time>
      </trkpt>
      <trkpt lat="45.94317" lon="4.71543">
        <ele>175</ele>
        <time>2017-05-22T08:37:44Z</time>
      </trkpt>
      <trkpt lat="45.94321" lon="4.71541">
        <ele>175</ele>
        <time>2017-05-22T08:37:45Z</time>
      </trkpt>
      <trkpt lat="45.94329" lon="4.71539">
        <ele>176</ele>
        <time>2017-05-22T08:37:47Z</time>
      </trkpt>
      <trkpt lat="45.94333" lon="4.71536">
        <ele>176</ele>
        <time>2017-05-22T08:37:48Z</time>
      </trkpt>
      <trkpt lat="45.94338" lon="4.71535">
        <ele>176</ele>
        <time>2017-05-22T08:37:49Z</time>
      </trkpt>
      <trkpt lat="45.94344" lon="4.71533">
        <ele>176</ele>
        <time>2017-05-22T08:37:50Z</time>
      </trkpt>
      <trkpt lat="45.94351" lon="4.71532">
        <ele>176</ele>
        <time>2017-05-22T08:37:51Z</time>
      </trkpt>
      <trkpt lat="45.94357" lon="4.7153">
        <ele>176</ele>
        <time>2017-05-22T08:37:52Z</time>
      </trkpt>
      <trkpt lat="45.94363" lon="4.71528">
        <ele>176</ele>
        <time>2017-05-22T08:37:53Z</time>
      </trkpt>
      <trkpt lat="45.94368" lon="4.71525">
        <ele>176</ele>
        <time>2017-05-22T08:37:54Z</time>
      </trkpt>
      <trkpt lat="45.94374" lon="4.71523">
        <ele>176</ele>
        <time>2017-05-22T08:37:55Z</time>
      </trkpt>
      <trkpt lat="45.94379" lon="4.71521">
        <ele>176</ele>
        <time>2017-05-22T08:37:56Z</time>
      </trkpt>
      <trkpt lat="45.94385" lon="4.71519">
        <ele>177</ele>
        <time>2017-05-22T08:37:57Z</time>
      </trkpt>
      <trkpt lat="45.94391" lon="4.71517">
        <ele>177</ele>
        <time>2017-05-22T08:37:58Z</time>
      </trkpt>
      <trkpt lat="45.94397" lon="4.71515">
        <ele>177</ele>
        <time>2017-05-22T08:37:59Z</time>
      </trkpt>
      <trkpt lat="45.94402" lon="4.71513">
        <ele>177</ele>
        <time>2017-05-22T08:38:00Z</time>
      </trkpt>
      <trkpt lat="45.94407" lon="4.71512">
        <ele>177</ele>
        <time>2017-05-22T08:38:01Z</time>
      </trkpt>
      <trkpt lat="45.94413" lon="4.71509">
        <ele>177</ele>
        <time>2017-05-22T08:38:02Z</time>
      </trkpt>
      <trkpt lat="45.94417" lon="4.71507">
        <ele>178</ele>
        <time>2017-05-22T08:38:03Z</time>
      </trkpt>
      <trkpt lat="45.94422" lon="4.71505">
        <ele>177</ele>
        <time>2017-05-22T08:38:04Z</time>
      </trkpt>
      <trkpt lat="45.94428" lon="4.71503">
        <ele>177</ele>
        <time>2017-05-22T08:38:05Z</time>
      </trkpt>
      <trkpt lat="45.94433" lon="4.71501">
        <ele>177</ele>
        <time>2017-05-22T08:38:06Z</time>
      </trkpt>
      <trkpt lat="45.94438" lon="4.71499">
        <ele>178</ele>
        <time>2017-05-22T08:38:07Z</time>
      </trkpt>
      <trkpt lat="45.94444" lon="4.71496">
        <ele>178</ele>
        <time>2017-05-22T08:38:08Z</time>
      </trkpt>
      <trkpt lat="45.94449" lon="4.71494">
        <ele>178</ele>
        <time>2017-05-22T08:38:09Z</time>
      </trkpt>
      <trkpt lat="45.94453" lon="4.71492">
        <ele>179</ele>
        <time>2017-05-22T08:38:10Z</time>
      </trkpt>
      <trkpt lat="45.94458" lon="4.7149">
        <ele>179</ele>
        <time>2017-05-22T08:38:11Z</time>
      </trkpt>
      <trkpt lat="45.94464" lon="4.71488">
        <ele>179</ele>
        <time>2017-05-22T08:38:12Z</time>
      </trkpt>
      <trkpt lat="45.94469" lon="4.71487">
        <ele>178</ele>
        <time>2017-05-22T08:38:13Z</time>
      </trkpt>
      <trkpt lat="45.94474" lon="4.71484">
        <ele>178</ele>
        <time>2017-05-22T08:38:14Z</time>
      </trkpt>
      <trkpt lat="45.94481" lon="4.71482">
        <ele>178</ele>
        <time>2017-05-22T08:38:15Z</time>
      </trkpt>
      <trkpt lat="45.94487" lon="4.71479">
        <ele>178</ele>
        <time>2017-05-22T08:38:16Z</time>
      </trkpt>
      <trkpt lat="45.94492" lon="4.71477">
        <ele>178</ele>
        <time>2017-05-22T08:38:17Z</time>
      </trkpt>
      <trkpt lat="45.94497" lon="4.71475">
        <ele>178</ele>
        <time>2017-05-22T08:38:18Z</time>
      </trkpt>
      <trkpt lat="45.94501" lon="4.71473">
        <ele>179</ele>
        <time>2017-05-22T08:38:19Z</time>
      </trkpt>
      <trkpt lat="45.94506" lon="4.71471">
        <ele>179</ele>
        <time>2017-05-22T08:38:20Z</time>
      </trkpt>
      <trkpt lat="45.94512" lon="4.71468">
        <ele>179</ele>
        <time>2017-05-22T08:38:21Z</time>
      </trkpt>
      <trkpt lat="45.94517" lon="4.71467">
        <ele>179</ele>
        <time>2017-05-22T08:38:22Z</time>
      </trkpt>
      <trkpt lat="45.94523" lon="4.71464">
        <ele>180</ele>
        <time>2017-05-22T08:38:23Z</time>
      </trkpt>
      <trkpt lat="45.94528" lon="4.71462">
        <ele>180</ele>
        <time>2017-05-22T08:38:24Z</time>
      </trkpt>
      <trkpt lat="45.94533" lon="4.7146">
        <ele>180</ele>
        <time>2017-05-22T08:38:25Z</time>
      </trkpt>
      <trkpt lat="45.94538" lon="4.71458">
        <ele>180</ele>
        <time>2017-05-22T08:38:26Z</time>
      </trkpt>
      <trkpt lat="45.94544" lon="4.71456">
        <ele>180</ele>
        <time>2017-05-22T08:38:27Z</time>
      </trkpt>
      <trkpt lat="45.94549" lon="4.71455">
        <ele>180</ele>
        <time>2017-05-22T08:38:28Z</time>
      </trkpt>
      <trkpt lat="45.94554" lon="4.71454">
        <ele>180</ele>
        <time>2017-05-22T08:38:29Z</time>
      </trkpt>
      <trkpt lat="45.94559" lon="4.71453">
        <ele>180</ele>
        <time>2017-05-22T08:38:30Z</time>
      </trkpt>
      <trkpt lat="45.94564" lon="4.71452">
        <ele>181</ele>
        <time>2017-05-22T08:38:31Z</time>
      </trkpt>
      <trkpt lat="45.9457" lon="4.71452">
        <ele>181</ele>
        <time>2017-05-22T08:38:32Z</time>
      </trkpt>
      <trkpt lat="45.94576" lon="4.71452">
        <ele>181</ele>
        <time>2017-05-22T08:38:33Z</time>
      </trkpt>
      <trkpt lat="45.94581" lon="4.71452">
        <ele>181</ele>
        <time>2017-05-22T08:38:34Z</time>
      </trkpt>
      <trkpt lat="45.94587" lon="4.71452">
        <ele>181</ele>
        <time>2017-05-22T08:38:35Z</time>
      </trkpt>
      <trkpt lat="45.94593" lon="4.71453">
        <ele>181</ele>
        <time>2017-05-22T08:38:36Z</time>
      </trkpt>
      <trkpt lat="45.94598" lon="4.71453">
        <ele>181</ele>
        <time>2017-05-22T08:38:37Z</time>
      </trkpt>
      <trkpt lat="45.94603" lon="4.71453">
        <ele>181</ele>
        <time>2017-05-22T08:38:38Z</time>
      </trkpt>
      <trkpt lat="45.94608" lon="4.71453">
        <ele>181</ele>
        <time>2017-05-22T08:38:39Z</time>
      </trkpt>
      <trkpt lat="45.94613" lon="4.71454">
        <ele>181</ele>
        <time>2017-05-22T08:38:40Z</time>
      </trkpt>
      <trkpt lat="45.94619" lon="4.71453">
        <ele>181</ele>
        <time>2017-05-22T08:38:41Z</time>
      </trkpt>
      <trkpt lat="45.94624" lon="4.71454">
        <ele>181</ele>
        <time>2017-05-22T08:38:42Z</time>
      </trkpt>
      <trkpt lat="45.94629" lon="4.71454">
        <ele>181</ele>
        <time>2017-05-22T08:38:43Z</time>
      </trkpt>
      <trkpt lat="45.94634" lon="4.71454">
        <ele>181</ele>
        <time>2017-05-22T08:38:44Z</time>
      </trkpt>
      <trkpt lat="45.9464" lon="4.71454">
        <ele>181</ele>
        <time>2017-05-22T08:38:45Z</time>
      </trkpt>
      <trkpt lat="45.94645" lon="4.71454">
        <ele>181</ele>
        <time>2017-05-22T08:38:46Z</time>
      </trkpt>
      <trkpt lat="45.9465" lon="4.71454">
        <ele>181</ele>
        <time>2017-05-22T08:38:47Z</time>
      </trkpt>
      <trkpt lat="45.94656" lon="4.71454">
        <ele>181</ele>
        <time>2017-05-22T08:38:48Z</time>
      </trkpt>
      <trkpt lat="45.94661" lon="4.71454">
        <ele>181</ele>
        <time>2017-05-22T08:38:49Z</time>
      </trkpt>
      <trkpt lat="45.94667" lon="4.71455">
        <ele>181</ele>
        <time>2017-05-22T08:38:50Z</time>
      </trkpt>
      <trkpt lat="45.94672" lon="4.71455">
        <ele>181</ele>
        <time>2017-05-22T08:38:51Z</time>
      </trkpt>
      <trkpt lat="45.94677" lon="4.71456">
        <ele>181</ele>
        <time>2017-05-22T08:38:52Z</time>
      </trkpt>
      <trkpt lat="45.94681" lon="4.71456">
        <ele>181</ele>
        <time>2017-05-22T08:38:53Z</time>
      </trkpt>
      <trkpt lat="45.94686" lon="4.71457">
        <ele>181</ele>
        <time>2017-05-22T08:38:54Z</time>
      </trkpt>
      <trkpt lat="45.9469" lon="4.71457">
        <ele>181</ele>
        <time>2017-05-22T08:38:55Z</time>
      </trkpt>
      <trkpt lat="45.94695" lon="4.71458">
        <ele>181</ele>
        <time>2017-05-22T08:38:56Z</time>
      </trkpt>
      <trkpt lat="45.947" lon="4.71458">
        <ele>181</ele>
        <time>2017-05-22T08:38:57Z</time>
      </trkpt>
      <trkpt lat="45.94705" lon="4.71458">
        <ele>181</ele>
        <time>2017-05-22T08:38:58Z</time>
      </trkpt>
      <trkpt lat="45.94709" lon="4.71459">
        <ele>181</ele>
        <time>2017-05-22T08:38:59Z</time>
      </trkpt>
      <trkpt lat="45.94714" lon="4.71459">
        <ele>182</ele>
        <time>2017-05-22T08:39:00Z</time>
      </trkpt>
      <trkpt lat="45.94719" lon="4.7146">
        <ele>182</ele>
        <time>2017-05-22T08:39:01Z</time>
      </trkpt>
      <trkpt lat="45.94723" lon="4.7146">
        <ele>182</ele>
        <time>2017-05-22T08:39:02Z</time>
      </trkpt>
      <trkpt lat="45.94728" lon="4.7146">
        <ele>182</ele>
        <time>2017-05-22T08:39:03Z</time>
      </trkpt>
      <trkpt lat="45.94733" lon="4.7146">
        <ele>182</ele>
        <time>2017-05-22T08:39:04Z</time>
      </trkpt>
      <trkpt lat="45.94738" lon="4.71461">
        <ele>182</ele>
        <time>2017-05-22T08:39:05Z</time>
      </trkpt>
      <trkpt lat="45.94743" lon="4.71462">
        <ele>182</ele>
        <time>2017-05-22T08:39:06Z</time>
      </trkpt>
      <trkpt lat="45.94747" lon="4.71463">
        <ele>182</ele>
        <time>2017-05-22T08:39:07Z</time>
      </trkpt>
      <trkpt lat="45.94752" lon="4.71463">
        <ele>183</ele>
        <time>2017-05-22T08:39:08Z</time>
      </trkpt>
      <trkpt lat="45.94757" lon="4.71463">
        <ele>183</ele>
        <time>2017-05-22T08:39:09Z</time>
      </trkpt>
      <trkpt lat="45.94762" lon="4.71463">
        <ele>183</ele>
        <time>2017-05-22T08:39:10Z</time>
      </trkpt>
      <trkpt lat="45.94767" lon="4.71464">
        <ele>183</ele>
        <time>2017-05-22T08:39:11Z</time>
      </trkpt>
      <trkpt lat="45.94773" lon="4.71464">
        <ele>183</ele>
        <time>2017-05-22T08:39:12Z</time>
      </trkpt>
      <trkpt lat="45.94779" lon="4.71463">
        <ele>183</ele>
        <time>2017-05-22T08:39:13Z</time>
      </trkpt>
      <trkpt lat="45.94784" lon="4.71464">
        <ele>183</ele>
        <time>2017-05-22T08:39:14Z</time>
      </trkpt>
      <trkpt lat="45.9479" lon="4.71465">
        <ele>183</ele>
        <time>2017-05-22T08:39:15Z</time>
      </trkpt>
      <trkpt lat="45.94795" lon="4.71466">
        <ele>183</ele>
        <time>2017-05-22T08:39:16Z</time>
      </trkpt>
      <trkpt lat="45.94801" lon="4.71466">
        <ele>183</ele>
        <time>2017-05-22T08:39:17Z</time>
      </trkpt>
      <trkpt lat="45.94807" lon="4.71467">
        <ele>183</ele>
        <time>2017-05-22T08:39:18Z</time>
      </trkpt>
      <trkpt lat="45.94813" lon="4.71467">
        <ele>183</ele>
        <time>2017-05-22T08:39:19Z</time>
      </trkpt>
      <trkpt lat="45.94819" lon="4.71468">
        <ele>183</ele>
        <time>2017-05-22T08:39:20Z</time>
      </trkpt>
      <trkpt lat="45.94825" lon="4.71468">
        <ele>183</ele>
        <time>2017-05-22T08:39:21Z</time>
      </trkpt>
      <trkpt lat="45.94831" lon="4.71469">
        <ele>183</ele>
        <time>2017-05-22T08:39:22Z</time>
      </trkpt>
      <trkpt lat="45.94837" lon="4.7147">
        <ele>183</ele>
        <time>2017-05-22T08:39:23Z</time>
      </trkpt>
      <trkpt lat="45.94842" lon="4.7147">
        <ele>183</ele>
        <time>2017-05-22T08:39:24Z</time>
      </trkpt>
      <trkpt lat="45.94848" lon="4.71471">
        <ele>183</ele>
        <time>2017-05-22T08:39:25Z</time>
      </trkpt>
      <trkpt lat="45.94854" lon="4.71472">
        <ele>183</ele>
        <time>2017-05-22T08:39:26Z</time>
      </trkpt>
      <trkpt lat="45.94859" lon="4.71473">
        <ele>183</ele>
        <time>2017-05-22T08:39:27Z</time>
      </trkpt>
      <trkpt lat="45.94864" lon="4.71474">
        <ele>183</ele>
        <time>2017-05-22T08:39:28Z</time>
      </trkpt>
      <trkpt lat="45.9487" lon="4.71475">
        <ele>183</ele>
        <time>2017-05-22T08:39:29Z</time>
      </trkpt>
      <trkpt lat="45.94876" lon="4.71475">
        <ele>183</ele>
        <time>2017-05-22T08:39:30Z</time>
      </trkpt>
      <trkpt lat="45.94883" lon="4.71476">
        <ele>183</ele>
        <time>2017-05-22T08:39:31Z</time>
      </trkpt>
      <trkpt lat="45.94888" lon="4.71477">
        <ele>183</ele>
        <time>2017-05-22T08:39:32Z</time>
      </trkpt>
      <trkpt lat="45.94894" lon="4.71477">
        <ele>183</ele>
        <time>2017-05-22T08:39:33Z</time>
      </trkpt>
      <trkpt lat="45.949" lon="4.71478">
        <ele>182</ele>
        <time>2017-05-22T08:39:34Z</time>
      </trkpt>
      <trkpt lat="45.94905" lon="4.71478">
        <ele>182</ele>
        <time>2017-05-22T08:39:35Z</time>
      </trkpt>
      <trkpt lat="45.9491" lon="4.71479">
        <ele>182</ele>
        <time>2017-05-22T08:39:36Z</time>
      </trkpt>
      <trkpt lat="45.94915" lon="4.71479">
        <ele>182</ele>
        <time>2017-05-22T08:39:37Z</time>
      </trkpt>
      <trkpt lat="45.9492" lon="4.71479">
        <ele>182</ele>
        <time>2017-05-22T08:39:38Z</time>
      </trkpt>
      <trkpt lat="45.94925" lon="4.71479">
        <ele>182</ele>
        <time>2017-05-22T08:39:39Z</time>
      </trkpt>
      <trkpt lat="45.94929" lon="4.71479">
        <ele>182</ele>
        <time>2017-05-22T08:39:40Z</time>
      </trkpt>
      <trkpt lat="45.94934" lon="4.71479">
        <ele>182</ele>
        <time>2017-05-22T08:39:41Z</time>
      </trkpt>
      <trkpt lat="45.94939" lon="4.7148">
        <ele>182</ele>
        <time>2017-05-22T08:39:42Z</time>
      </trkpt>
      <trkpt lat="45.94943" lon="4.71483">
        <ele>182</ele>
        <time>2017-05-22T08:39:43Z</time>
      </trkpt>
      <trkpt lat="45.94948" lon="4.71487">
        <ele>182</ele>
        <time>2017-05-22T08:39:44Z</time>
      </trkpt>
      <trkpt lat="45.94952" lon="4.71491">
        <ele>182</ele>
        <time>2017-05-22T08:39:45Z</time>
      </trkpt>
      <trkpt lat="45.94957" lon="4.71494">
        <ele>182</ele>
        <time>2017-05-22T08:39:46Z</time>
      </trkpt>
      <trkpt lat="45.94963" lon="4.71495">
        <ele>182</ele>
        <time>2017-05-22T08:39:47Z</time>
      </trkpt>
      <trkpt lat="45.94969" lon="4.71495">
        <ele>182</ele>
        <time>2017-05-22T08:39:48Z</time>
      </trkpt>
      <trkpt lat="45.94974" lon="4.71493">
        <ele>182</ele>
        <time>2017-05-22T08:39:49Z</time>
      </trkpt>
      <trkpt lat="45.94979" lon="4.7149">
        <ele>182</ele>
        <time>2017-05-22T08:39:50Z</time>
      </trkpt>
      <trkpt lat="45.94983" lon="4.71487">
        <ele>182</ele>
        <time>2017-05-22T08:39:51Z</time>
      </trkpt>
      <trkpt lat="45.94988" lon="4.71484">
        <ele>182</ele>
        <time>2017-05-22T08:39:52Z</time>
      </trkpt>
      <trkpt lat="45.94994" lon="4.71483">
        <ele>182</ele>
        <time>2017-05-22T08:39:53Z</time>
      </trkpt>
      <trkpt lat="45.94999" lon="4.71483">
        <ele>182</ele>
        <time>2017-05-22T08:39:54Z</time>
      </trkpt>
      <trkpt lat="45.95005" lon="4.71483">
        <ele>181</ele>
        <time>2017-05-22T08:39:55Z</time>
      </trkpt>
      <trkpt lat="45.95011" lon="4.71483">
        <ele>181</ele>
        <time>2017-05-22T08:39:56Z</time>
      </trkpt>
      <trkpt lat="45.95017" lon="4.71483">
        <ele>181</ele>
        <time>2017-05-22T08:39:57Z</time>
      </trkpt>
      <trkpt lat="45.95023" lon="4.71484">
        <ele>181</ele>
        <time>2017-05-22T08:39:58Z</time>
      </trkpt>
      <trkpt lat="45.95029" lon="4.71484">
        <ele>181</ele>
        <time>2017-05-22T08:39:59Z</time>
      </trkpt>
      <trkpt lat="45.95036" lon="4.71485">
        <ele>181</ele>
        <time>2017-05-22T08:40:00Z</time>
      </trkpt>
      <trkpt lat="45.95043" lon="4.71486">
        <ele>181</ele>
        <time>2017-05-22T08:40:01Z</time>
      </trkpt>
      <trkpt lat="45.9505" lon="4.71486">
        <ele>181</ele>
        <time>2017-05-22T08:40:02Z</time>
      </trkpt>
      <trkpt lat="45.95058" lon="4.71487">
        <ele>181</ele>
        <time>2017-05-22T08:40:03Z</time>
      </trkpt>
      <trkpt lat="45.95066" lon="4.71487">
        <ele>180</ele>
        <time>2017-05-22T08:40:04Z</time>
      </trkpt>
      <trkpt lat="45.95074" lon="4.71487">
        <ele>180</ele>
        <time>2017-05-22T08:40:05Z</time>
      </trkpt>
      <trkpt lat="45.95082" lon="4.71487">
        <ele>180</ele>
        <time>2017-05-22T08:40:06Z</time>
      </trkpt>
      <trkpt lat="45.95091" lon="4.71487">
        <ele>179</ele>
        <time>2017-05-22T08:40:07Z</time>
      </trkpt>
      <trkpt lat="45.95099" lon="4.71486">
        <ele>179</ele>
        <time>2017-05-22T08:40:08Z</time>
      </trkpt>
      <trkpt lat="45.95108" lon="4.71486">
        <ele>179</ele>
        <time>2017-05-22T08:40:09Z</time>
      </trkpt>
      <trkpt lat="45.95117" lon="4.71486">
        <ele>178</ele>
        <time>2017-05-22T08:40:10Z</time>
      </trkpt>
      <trkpt lat="45.95126" lon="4.71486">
        <ele>178</ele>
        <time>2017-05-22T08:40:11Z</time>
      </trkpt>
      <trkpt lat="45.95135" lon="4.71487">
        <ele>178</ele>
        <time>2017-05-22T08:40:12Z</time>
      </trkpt>
      <trkpt lat="45.95143" lon="4.71487">
        <ele>178</ele>
        <time>2017-05-22T08:40:13Z</time>
      </trkpt>
      <trkpt lat="45.95152" lon="4.71488">
        <ele>178</ele>
        <time>2017-05-22T08:40:14Z</time>
      </trkpt>
      <trkpt lat="45.9516" lon="4.71488">
        <ele>178</ele>
        <time>2017-05-22T08:40:15Z</time>
      </trkpt>
      <trkpt lat="45.95169" lon="4.71489">
        <ele>177</ele>
        <time>2017-05-22T08:40:16Z</time>
      </trkpt>
      <trkpt lat="45.95178" lon="4.7149">
        <ele>177</ele>
        <time>2017-05-22T08:40:17Z</time>
      </trkpt>
      <trkpt lat="45.95186" lon="4.71491">
        <ele>177</ele>
        <time>2017-05-22T08:40:18Z</time>
      </trkpt>
      <trkpt lat="45.95194" lon="4.71491">
        <ele>177</ele>
        <time>2017-05-22T08:40:19Z</time>
      </trkpt>
      <trkpt lat="45.95203" lon="4.71492">
        <ele>177</ele>
        <time>2017-05-22T08:40:20Z</time>
      </trkpt>
      <trkpt lat="45.95211" lon="4.71493">
        <ele>177</ele>
        <time>2017-05-22T08:40:21Z</time>
      </trkpt>
      <trkpt lat="45.95219" lon="4.71494">
        <ele>177</ele>
        <time>2017-05-22T08:40:22Z</time>
      </trkpt>
      <trkpt lat="45.95227" lon="4.71495">
        <ele>177</ele>
        <time>2017-05-22T08:40:23Z</time>
      </trkpt>
      <trkpt lat="45.95235" lon="4.71496">
        <ele>177</ele>
        <time>2017-05-22T08:40:24Z</time>
      </trkpt>
      <trkpt lat="45.95243" lon="4.71497">
        <ele>177</ele>
        <time>2017-05-22T08:40:25Z</time>
      </trkpt>
      <trkpt lat="45.95251" lon="4.71497">
        <ele>177</ele>
        <time>2017-05-22T08:40:26Z</time>
      </trkpt>
      <trkpt lat="45.95258" lon="4.71498">
        <ele>177</ele>
        <time>2017-05-22T08:40:27Z</time>
      </trkpt>
      <trkpt lat="45.95266" lon="4.71498">
        <ele>176</ele>
        <time>2017-05-22T08:40:28Z</time>
      </trkpt>
      <trkpt lat="45.95273" lon="4.71499">
        <ele>176</ele>
        <time>2017-05-22T08:40:29Z</time>
      </trkpt>
      <trkpt lat="45.95281" lon="4.715">
        <ele>176</ele>
        <time>2017-05-22T08:40:30Z</time>
      </trkpt>
      <trkpt lat="45.95289" lon="4.71501">
        <ele>175</ele>
        <time>2017-05-22T08:40:31Z</time>
      </trkpt>
      <trkpt lat="45.95297" lon="4.71502">
        <ele>175</ele>
        <time>2017-05-22T08:40:32Z</time>
      </trkpt>
      <trkpt lat="45.95304" lon="4.71502">
        <ele>174</ele>
        <time>2017-05-22T08:40:33Z</time>
      </trkpt>
      <trkpt lat="45.95312" lon="4.71502">
        <ele>174</ele>
        <time>2017-05-22T08:40:34Z</time>
      </trkpt>
      <trkpt lat="45.95319" lon="4.71502">
        <ele>174</ele>
        <time>2017-05-22T08:40:35Z</time>
      </trkpt>
      <trkpt lat="45.95326" lon="4.71502">
        <ele>174</ele>
        <time>2017-05-22T08:40:36Z</time>
      </trkpt>
      <trkpt lat="45.95333" lon="4.71501">
        <ele>174</ele>
        <time>2017-05-22T08:40:37Z</time>
      </trkpt>
      <trkpt lat="45.95339" lon="4.71501">
        <ele>174</ele>
        <time>2017-05-22T08:40:38Z</time>
      </trkpt>
      <trkpt lat="45.95345" lon="4.71501">
        <ele>174</ele>
        <time>2017-05-22T08:40:39Z</time>
      </trkpt>
      <trkpt lat="45.95351" lon="4.71501">
        <ele>174</ele>
        <time>2017-05-22T08:40:40Z</time>
      </trkpt>
      <trkpt lat="45.95356" lon="4.71502">
        <ele>174</ele>
        <time>2017-05-22T08:40:41Z</time>
      </trkpt>
      <trkpt lat="45.95362" lon="4.71503">
        <ele>174</ele>
        <time>2017-05-22T08:40:42Z</time>
      </trkpt>
      <trkpt lat="45.95369" lon="4.71504">
        <ele>174</ele>
        <time>2017-05-22T08:40:43Z</time>
      </trkpt>
      <trkpt lat="45.95376" lon="4.71504">
        <ele>174</ele>
        <time>2017-05-22T08:40:44Z</time>
      </trkpt>
      <trkpt lat="45.95382" lon="4.71504">
        <ele>174</ele>
        <time>2017-05-22T08:40:45Z</time>
      </trkpt>
      <trkpt lat="45.95389" lon="4.71505">
        <ele>174</ele>
        <time>2017-05-22T08:40:46Z</time>
      </trkpt>
      <trkpt lat="45.95396" lon="4.71505">
        <ele>174</ele>
        <time>2017-05-22T08:40:47Z</time>
      </trkpt>
      <trkpt lat="45.95402" lon="4.71506">
        <ele>174</ele>
        <time>2017-05-22T08:40:48Z</time>
      </trkpt>
      <trkpt lat="45.95408" lon="4.71506">
        <ele>174</ele>
        <time>2017-05-22T08:40:49Z</time>
      </trkpt>
      <trkpt lat="45.95414" lon="4.71506">
        <ele>174</ele>
        <time>2017-05-22T08:40:50Z</time>
      </trkpt>
      <trkpt lat="45.95419" lon="4.71507">
        <ele>174</ele>
        <time>2017-05-22T08:40:51Z</time>
      </trkpt>
      <trkpt lat="45.95425" lon="4.71507">
        <ele>174</ele>
        <time>2017-05-22T08:40:52Z</time>
      </trkpt>
      <trkpt lat="45.9543" lon="4.71508">
        <ele>175</ele>
        <time>2017-05-22T08:40:53Z</time>
      </trkpt>
      <trkpt lat="45.95435" lon="4.71508">
        <ele>175</ele>
        <time>2017-05-22T08:40:54Z</time>
      </trkpt>
      <trkpt lat="45.95441" lon="4.71509">
        <ele>175</ele>
        <time>2017-05-22T08:40:55Z</time>
      </trkpt>
      <trkpt lat="45.95446" lon="4.7151">
        <ele>175</ele>
        <time>2017-05-22T08:40:56Z</time>
      </trkpt>
      <trkpt lat="45.95451" lon="4.71511">
        <ele>175</ele>
        <time>2017-05-22T08:40:57Z</time>
      </trkpt>
      <trkpt lat="45.95457" lon="4.71512">
        <ele>175</ele>
        <time>2017-05-22T08:40:58Z</time>
      </trkpt>
      <trkpt lat="45.95463" lon="4.71512">
        <ele>175</ele>
        <time>2017-05-22T08:40:59Z</time>
      </trkpt>
      <trkpt lat="45.95468" lon="4.71513">
        <ele>175</ele>
        <time>2017-05-22T08:41:00Z</time>
      </trkpt>
      <trkpt lat="45.95474" lon="4.71513">
        <ele>176</ele>
        <time>2017-05-22T08:41:01Z</time>
      </trkpt>
      <trkpt lat="45.9548" lon="4.71512">
        <ele>176</ele>
        <time>2017-05-22T08:41:02Z</time>
      </trkpt>
      <trkpt lat="45.95486" lon="4.71512">
        <ele>176</ele>
        <time>2017-05-22T08:41:03Z</time>
      </trkpt>
      <trkpt lat="45.95492" lon="4.71513">
        <ele>176</ele>
        <time>2017-05-22T08:41:04Z</time>
      </trkpt>
      <trkpt lat="45.95498" lon="4.71513">
        <ele>176</ele>
        <time>2017-05-22T08:41:05Z</time>
      </trkpt>
      <trkpt lat="45.95504" lon="4.71513">
        <ele>177</ele>
        <time>2017-05-22T08:41:06Z</time>
      </trkpt>
      <trkpt lat="45.9551" lon="4.71513">
        <ele>177</ele>
        <time>2017-05-22T08:41:07Z</time>
      </trkpt>
      <trkpt lat="45.95516" lon="4.71513">
        <ele>177</ele>
        <time>2017-05-22T08:41:08Z</time>
      </trkpt>
      <trkpt lat="45.95521" lon="4.71513">
        <ele>177</ele>
        <time>2017-05-22T08:41:09Z</time>
      </trkpt>
      <trkpt lat="45.95526" lon="4.71514">
        <ele>177</ele>
        <time>2017-05-22T08:41:10Z</time>
      </trkpt>
      <trkpt lat="45.95531" lon="4.71514">
        <ele>177</ele>
        <time>2017-05-22T08:41:11Z</time>
      </trkpt>
      <trkpt lat="45.95537" lon="4.71514">
        <ele>177</ele>
        <time>2017-05-22T08:41:12Z</time>
      </trkpt>
      <trkpt lat="45.95542" lon="4.71515">
        <ele>177</ele>
        <time>2017-05-22T08:41:13Z</time>
      </trkpt>
      <trkpt lat="45.95547" lon="4.71515">
        <ele>178</ele>
        <time>2017-05-22T08:41:14Z</time>
      </trkpt>
      <trkpt lat="45.95553" lon="4.71516">
        <ele>178</ele>
        <time>2017-05-22T08:41:15Z</time>
      </trkpt>
      <trkpt lat="45.95558" lon="4.71516">
        <ele>178</ele>
        <time>2017-05-22T08:41:16Z</time>
      </trkpt>
      <trkpt lat="45.95563" lon="4.71517">
        <ele>178</ele>
        <time>2017-05-22T08:41:17Z</time>
      </trkpt>
      <trkpt lat="45.95568" lon="4.71517">
        <ele>178</ele>
        <time>2017-05-22T08:41:18Z</time>
      </trkpt>
      <trkpt lat="45.95573" lon="4.71517">
        <ele>178</ele>
        <time>2017-05-22T08:41:19Z</time>
      </trkpt>
      <trkpt lat="45.95579" lon="4.71518">
        <ele>178</ele>
        <time>2017-05-22T08:41:20Z</time>
      </trkpt>
      <trkpt lat="45.95585" lon="4.71519">
        <ele>179</ele>
        <time>2017-05-22T08:41:21Z</time>
      </trkpt>
      <trkpt lat="45.95591" lon="4.71519">
        <ele>179</ele>
        <time>2017-05-22T08:41:22Z</time>
      </trkpt>
      <trkpt lat="45.95597" lon="4.71519">
        <ele>179</ele>
        <time>2017-05-22T08:41:23Z</time>
      </trkpt>
      <trkpt lat="45.95603" lon="4.7152">
        <ele>179</ele>
        <time>2017-05-22T08:41:24Z</time>
      </trkpt>
      <trkpt lat="45.95609" lon="4.7152">
        <ele>179</ele>
        <time>2017-05-22T08:41:25Z</time>
      </trkpt>
      <trkpt lat="45.95616" lon="4.71521">
        <ele>179</ele>
        <time>2017-05-22T08:41:26Z</time>
      </trkpt>
      <trkpt lat="45.95621" lon="4.71521">
        <ele>179</ele>
        <time>2017-05-22T08:41:27Z</time>
      </trkpt>
      <trkpt lat="45.95627" lon="4.71521">
        <ele>179</ele>
        <time>2017-05-22T08:41:28Z</time>
      </trkpt>
      <trkpt lat="45.95632" lon="4.71522">
        <ele>179</ele>
        <time>2017-05-22T08:41:29Z</time>
      </trkpt>
      <trkpt lat="45.95638" lon="4.71522">
        <ele>179</ele>
        <time>2017-05-22T08:41:30Z</time>
      </trkpt>
      <trkpt lat="45.95643" lon="4.71523">
        <ele>180</ele>
        <time>2017-05-22T08:41:31Z</time>
      </trkpt>
      <trkpt lat="45.95648" lon="4.71523">
        <ele>180</ele>
        <time>2017-05-22T08:41:32Z</time>
      </trkpt>
      <trkpt lat="45.95653" lon="4.71523">
        <ele>180</ele>
        <time>2017-05-22T08:41:33Z</time>
      </trkpt>
      <trkpt lat="45.95658" lon="4.71523">
        <ele>180</ele>
        <time>2017-05-22T08:41:34Z</time>
      </trkpt>
      <trkpt lat="45.95662" lon="4.71523">
        <ele>180</ele>
        <time>2017-05-22T08:41:35Z</time>
      </trkpt>
      <trkpt lat="45.95667" lon="4.71523">
        <ele>180</ele>
        <time>2017-05-22T08:41:36Z</time>
      </trkpt>
      <trkpt lat="45.95672" lon="4.71523">
        <ele>180</ele>
        <time>2017-05-22T08:41:37Z</time>
      </trkpt>
      <trkpt lat="45.95677" lon="4.71524">
        <ele>180</ele>
        <time>2017-05-22T08:41:38Z</time>
      </trkpt>
      <trkpt lat="45.95682" lon="4.71524">
        <ele>180</ele>
        <time>2017-05-22T08:41:39Z</time>
      </trkpt>
      <trkpt lat="45.95687" lon="4.71525">
        <ele>180</ele>
        <time>2017-05-22T08:41:40Z</time>
      </trkpt>
      <trkpt lat="45.95692" lon="4.71525">
        <ele>180</ele>
        <time>2017-05-22T08:41:41Z</time>
      </trkpt>
      <trkpt lat="45.957" lon="4.71526">
        <ele>180</ele>
        <time>2017-05-22T08:41:43Z</time>
      </trkpt>
      <trkpt lat="45.95705" lon="4.71526">
        <ele>180</ele>
        <time>2017-05-22T08:41:44Z</time>
      </trkpt>
      <trkpt lat="45.95709" lon="4.71526">
        <ele>180</ele>
        <time>2017-05-22T08:41:45Z</time>
      </trkpt>
      <trkpt lat="45.95714" lon="4.71527">
        <ele>180</ele>
        <time>2017-05-22T08:41:46Z</time>
      </trkpt>
      <trkpt lat="45.95719" lon="4.71527">
        <ele>180</ele>
        <time>2017-05-22T08:41:47Z</time>
      </trkpt>
      <trkpt lat="45.95724" lon="4.71527">
        <ele>180</ele>
        <time>2017-05-22T08:41:48Z</time>
      </trkpt>
      <trkpt lat="45.9573" lon="4.71527">
        <ele>180</ele>
        <time>2017-05-22T08:41:49Z</time>
      </trkpt>
      <trkpt lat="45.95736" lon="4.71528">
        <ele>180</ele>
        <time>2017-05-22T08:41:50Z</time>
      </trkpt>
      <trkpt lat="45.95741" lon="4.71528">
        <ele>180</ele>
        <time>2017-05-22T08:41:51Z</time>
      </trkpt>
      <trkpt lat="45.95747" lon="4.71529">
        <ele>180</ele>
        <time>2017-05-22T08:41:52Z</time>
      </trkpt>
      <trkpt lat="45.95753" lon="4.71531">
        <ele>180</ele>
        <time>2017-05-22T08:41:53Z</time>
      </trkpt>
      <trkpt lat="45.95758" lon="4.71532">
        <ele>180</ele>
        <time>2017-05-22T08:41:54Z</time>
      </trkpt>
      <trkpt lat="45.95764" lon="4.71533">
        <ele>180</ele>
        <time>2017-05-22T08:41:55Z</time>
      </trkpt>
      <trkpt lat="45.95769" lon="4.71533">
        <ele>180</ele>
        <time>2017-05-22T08:41:56Z</time>
      </trkpt>
      <trkpt lat="45.95774" lon="4.71533">
        <ele>180</ele>
        <time>2017-05-22T08:41:57Z</time>
      </trkpt>
      <trkpt lat="45.95779" lon="4.71534">
        <ele>180</ele>
        <time>2017-05-22T08:41:58Z</time>
      </trkpt>
      <trkpt lat="45.95785" lon="4.71534">
        <ele>180</ele>
        <time>2017-05-22T08:41:59Z</time>
      </trkpt>
      <trkpt lat="45.9579" lon="4.71534">
        <ele>180</ele>
        <time>2017-05-22T08:42:00Z</time>
      </trkpt>
      <trkpt lat="45.95795" lon="4.71534">
        <ele>181</ele>
        <time>2017-05-22T08:42:01Z</time>
      </trkpt>
      <trkpt lat="45.958" lon="4.71534">
        <ele>181</ele>
        <time>2017-05-22T08:42:02Z</time>
      </trkpt>
      <trkpt lat="45.95806" lon="4.71534">
        <ele>181</ele>
        <time>2017-05-22T08:42:03Z</time>
      </trkpt>
      <trkpt lat="45.95811" lon="4.71534">
        <ele>181</ele>
        <time>2017-05-22T08:42:04Z</time>
      </trkpt>
      <trkpt lat="45.95816" lon="4.71535">
        <ele>181</ele>
        <time>2017-05-22T08:42:05Z</time>
      </trkpt>
      <trkpt lat="45.9582" lon="4.71535">
        <ele>181</ele>
        <time>2017-05-22T08:42:06Z</time>
      </trkpt>
      <trkpt lat="45.95825" lon="4.71535">
        <ele>181</ele>
        <time>2017-05-22T08:42:07Z</time>
      </trkpt>
      <trkpt lat="45.9583" lon="4.71536">
        <ele>181</ele>
        <time>2017-05-22T08:42:08Z</time>
      </trkpt>
      <trkpt lat="45.95838" lon="4.71538">
        <ele>181</ele>
        <time>2017-05-22T08:42:10Z</time>
      </trkpt>
      <trkpt lat="45.95843" lon="4.71539">
        <ele>181</ele>
        <time>2017-05-22T08:42:11Z</time>
      </trkpt>
      <trkpt lat="45.95848" lon="4.7154">
        <ele>181</ele>
        <time>2017-05-22T08:42:12Z</time>
      </trkpt>
      <trkpt lat="45.95854" lon="4.7154">
        <ele>181</ele>
        <time>2017-05-22T08:42:13Z</time>
      </trkpt>
      <trkpt lat="45.95859" lon="4.71541">
        <ele>181</ele>
        <time>2017-05-22T08:42:14Z</time>
      </trkpt>
      <trkpt lat="45.95865" lon="4.71541">
        <ele>181</ele>
        <time>2017-05-22T08:42:15Z</time>
      </trkpt>
      <trkpt lat="45.9587" lon="4.71541">
        <ele>181</ele>
        <time>2017-05-22T08:42:16Z</time>
      </trkpt>
      <trkpt lat="45.95876" lon="4.71541">
        <ele>181</ele>
        <time>2017-05-22T08:42:17Z</time>
      </trkpt>
      <trkpt lat="45.95881" lon="4.71542">
        <ele>181</ele>
        <time>2017-05-22T08:42:18Z</time>
      </trkpt>
      <trkpt lat="45.95885" lon="4.71542">
        <ele>181</ele>
        <time>2017-05-22T08:42:19Z</time>
      </trkpt>
      <trkpt lat="45.9589" lon="4.71542">
        <ele>181</ele>
        <time>2017-05-22T08:42:20Z</time>
      </trkpt>
      <trkpt lat="45.95895" lon="4.71543">
        <ele>181</ele>
        <time>2017-05-22T08:42:21Z</time>
      </trkpt>
      <trkpt lat="45.95899" lon="4.71543">
        <ele>181</ele>
        <time>2017-05-22T08:42:22Z</time>
      </trkpt>
      <trkpt lat="45.95904" lon="4.71543">
        <ele>181</ele>
        <time>2017-05-22T08:42:23Z</time>
      </trkpt>
      <trkpt lat="45.95909" lon="4.71544">
        <ele>181</ele>
        <time>2017-05-22T08:42:24Z</time>
      </trkpt>
      <trkpt lat="45.95913" lon="4.71544">
        <ele>181</ele>
        <time>2017-05-22T08:42:25Z</time>
      </trkpt>
      <trkpt lat="45.95918" lon="4.71544">
        <ele>182</ele>
        <time>2017-05-22T08:42:26Z</time>
      </trkpt>
      <trkpt lat="45.95923" lon="4.71543">
        <ele>183</ele>
        <time>2017-05-22T08:42:27Z</time>
      </trkpt>
      <trkpt lat="45.95927" lon="4.71543">
        <ele>183</ele>
        <time>2017-05-22T08:42:28Z</time>
      </trkpt>
      <trkpt lat="45.95932" lon="4.71543">
        <ele>183</ele>
        <time>2017-05-22T08:42:29Z</time>
      </trkpt>
      <trkpt lat="45.95937" lon="4.71544">
        <ele>183</ele>
        <time>2017-05-22T08:42:30Z</time>
      </trkpt>
      <trkpt lat="45.95942" lon="4.71544">
        <ele>183</ele>
        <time>2017-05-22T08:42:31Z</time>
      </trkpt>
      <trkpt lat="45.95947" lon="4.71545">
        <ele>183</ele>
        <time>2017-05-22T08:42:32Z</time>
      </trkpt>
      <trkpt lat="45.95952" lon="4.71546">
        <ele>183</ele>
        <time>2017-05-22T08:42:33Z</time>
      </trkpt>
      <trkpt lat="45.95958" lon="4.71547">
        <ele>183</ele>
        <time>2017-05-22T08:42:34Z</time>
      </trkpt>
      <trkpt lat="45.95963" lon="4.71549">
        <ele>183</ele>
        <time>2017-05-22T08:42:35Z</time>
      </trkpt>
      <trkpt lat="45.95968" lon="4.71553">
        <ele>183</ele>
        <time>2017-05-22T08:42:36Z</time>
      </trkpt>
      <trkpt lat="45.95973" lon="4.71556">
        <ele>183</ele>
        <time>2017-05-22T08:42:37Z</time>
      </trkpt>
      <trkpt lat="45.95978" lon="4.71558">
        <ele>183</ele>
        <time>2017-05-22T08:42:38Z</time>
      </trkpt>
      <trkpt lat="45.95983" lon="4.71558">
        <ele>183</ele>
        <time>2017-05-22T08:42:39Z</time>
      </trkpt>
      <trkpt lat="45.95988" lon="4.71556">
        <ele>183</ele>
        <time>2017-05-22T08:42:40Z</time>
      </trkpt>
      <trkpt lat="45.95992" lon="4.71554">
        <ele>183</ele>
        <time>2017-05-22T08:42:41Z</time>
      </trkpt>
      <trkpt lat="45.95997" lon="4.71551">
        <ele>183</ele>
        <time>2017-05-22T08:42:42Z</time>
      </trkpt>
      <trkpt lat="45.96001" lon="4.7155">
        <ele>185</ele>
        <time>2017-05-22T08:42:43Z</time>
      </trkpt>
      <trkpt lat="45.96007" lon="4.71549">
        <ele>185</ele>
        <time>2017-05-22T08:42:44Z</time>
      </trkpt>
      <trkpt lat="45.96012" lon="4.71549">
        <ele>185</ele>
        <time>2017-05-22T08:42:45Z</time>
      </trkpt>
      <trkpt lat="45.96017" lon="4.7155">
        <ele>185</ele>
        <time>2017-05-22T08:42:46Z</time>
      </trkpt>
      <trkpt lat="45.96022" lon="4.7155">
        <ele>185</ele>
        <time>2017-05-22T08:42:47Z</time>
      </trkpt>
      <trkpt lat="45.96027" lon="4.71551">
        <ele>185</ele>
        <time>2017-05-22T08:42:48Z</time>
      </trkpt>
      <trkpt lat="45.96031" lon="4.71552">
        <ele>185</ele>
        <time>2017-05-22T08:42:49Z</time>
      </trkpt>
      <trkpt lat="45.96036" lon="4.71553">
        <ele>185</ele>
        <time>2017-05-22T08:42:50Z</time>
      </trkpt>
      <trkpt lat="45.9604" lon="4.71554">
        <ele>185</ele>
        <time>2017-05-22T08:42:51Z</time>
      </trkpt>
      <trkpt lat="45.96045" lon="4.71554">
        <ele>185</ele>
        <time>2017-05-22T08:42:52Z</time>
      </trkpt>
      <trkpt lat="45.96049" lon="4.71556">
        <ele>185</ele>
        <time>2017-05-22T08:42:53Z</time>
      </trkpt>
      <trkpt lat="45.96055" lon="4.71557">
        <ele>185</ele>
        <time>2017-05-22T08:42:54Z</time>
      </trkpt>
      <trkpt lat="45.9606" lon="4.71557">
        <ele>185</ele>
        <time>2017-05-22T08:42:55Z</time>
      </trkpt>
      <trkpt lat="45.96066" lon="4.71558">
        <ele>185</ele>
        <time>2017-05-22T08:42:56Z</time>
      </trkpt>
      <trkpt lat="45.96072" lon="4.71559">
        <ele>185</ele>
        <time>2017-05-22T08:42:57Z</time>
      </trkpt>
      <trkpt lat="45.96078" lon="4.7156">
        <ele>185</ele>
        <time>2017-05-22T08:42:58Z</time>
      </trkpt>
      <trkpt lat="45.96084" lon="4.7156">
        <ele>184</ele>
        <time>2017-05-22T08:42:59Z</time>
      </trkpt>
      <trkpt lat="45.9609" lon="4.71561">
        <ele>184</ele>
        <time>2017-05-22T08:43:00Z</time>
      </trkpt>
      <trkpt lat="45.96096" lon="4.71562">
        <ele>184</ele>
        <time>2017-05-22T08:43:01Z</time>
      </trkpt>
      <trkpt lat="45.96101" lon="4.71562">
        <ele>184</ele>
        <time>2017-05-22T08:43:02Z</time>
      </trkpt>
      <trkpt lat="45.96107" lon="4.71563">
        <ele>184</ele>
        <time>2017-05-22T08:43:03Z</time>
      </trkpt>
      <trkpt lat="45.96113" lon="4.71563">
        <ele>184</ele>
        <time>2017-05-22T08:43:04Z</time>
      </trkpt>
      <trkpt lat="45.96119" lon="4.71563">
        <ele>184</ele>
        <time>2017-05-22T08:43:05Z</time>
      </trkpt>
      <trkpt lat="45.96124" lon="4.71564">
        <ele>184</ele>
        <time>2017-05-22T08:43:06Z</time>
      </trkpt>
      <trkpt lat="45.9613" lon="4.71565">
        <ele>184</ele>
        <time>2017-05-22T08:43:07Z</time>
      </trkpt>
      <trkpt lat="45.96136" lon="4.71566">
        <ele>184</ele>
        <time>2017-05-22T08:43:08Z</time>
      </trkpt>
      <trkpt lat="45.96142" lon="4.71566">
        <ele>183</ele>
        <time>2017-05-22T08:43:09Z</time>
      </trkpt>
      <trkpt lat="45.96148" lon="4.71567">
        <ele>183</ele>
        <time>2017-05-22T08:43:10Z</time>
      </trkpt>
      <trkpt lat="45.96154" lon="4.71568">
        <ele>183</ele>
        <time>2017-05-22T08:43:11Z</time>
      </trkpt>
      <trkpt lat="45.9616" lon="4.71569">
        <ele>182</ele>
        <time>2017-05-22T08:43:12Z</time>
      </trkpt>
      <trkpt lat="45.96166" lon="4.71569">
        <ele>182</ele>
        <time>2017-05-22T08:43:13Z</time>
      </trkpt>
      <trkpt lat="45.96172" lon="4.7157">
        <ele>182</ele>
        <time>2017-05-22T08:43:14Z</time>
      </trkpt>
      <trkpt lat="45.96178" lon="4.7157">
        <ele>182</ele>
        <time>2017-05-22T08:43:15Z</time>
      </trkpt>
      <trkpt lat="45.96184" lon="4.71571">
        <ele>182</ele>
        <time>2017-05-22T08:43:16Z</time>
      </trkpt>
      <trkpt lat="45.9619" lon="4.71572">
        <ele>183</ele>
        <time>2017-05-22T08:43:17Z</time>
      </trkpt>
      <trkpt lat="45.96196" lon="4.71573">
        <ele>183</ele>
        <time>2017-05-22T08:43:18Z</time>
      </trkpt>
      <trkpt lat="45.96202" lon="4.71574">
        <ele>183</ele>
        <time>2017-05-22T08:43:19Z</time>
      </trkpt>
      <trkpt lat="45.96209" lon="4.71575">
        <ele>183</ele>
        <time>2017-05-22T08:43:20Z</time>
      </trkpt>
      <trkpt lat="45.96215" lon="4.71576">
        <ele>183</ele>
        <time>2017-05-22T08:43:21Z</time>
      </trkpt>
      <trkpt lat="45.96221" lon="4.71577">
        <ele>183</ele>
        <time>2017-05-22T08:43:22Z</time>
      </trkpt>
      <trkpt lat="45.96228" lon="4.71578">
        <ele>183</ele>
        <time>2017-05-22T08:43:23Z</time>
      </trkpt>
      <trkpt lat="45.96234" lon="4.71579">
        <ele>182</ele>
        <time>2017-05-22T08:43:24Z</time>
      </trkpt>
      <trkpt lat="45.9624" lon="4.7158">
        <ele>182</ele>
        <time>2017-05-22T08:43:25Z</time>
      </trkpt>
      <trkpt lat="45.96246" lon="4.71581">
        <ele>182</ele>
        <time>2017-05-22T08:43:26Z</time>
      </trkpt>
      <trkpt lat="45.96252" lon="4.71582">
        <ele>181</ele>
        <time>2017-05-22T08:43:27Z</time>
      </trkpt>
      <trkpt lat="45.96258" lon="4.71583">
        <ele>182</ele>
        <time>2017-05-22T08:43:28Z</time>
      </trkpt>
      <trkpt lat="45.96264" lon="4.71585">
        <ele>181</ele>
        <time>2017-05-22T08:43:29Z</time>
      </trkpt>
      <trkpt lat="45.9627" lon="4.71585">
        <ele>180</ele>
        <time>2017-05-22T08:43:30Z</time>
      </trkpt>
      <trkpt lat="45.96276" lon="4.71586">
        <ele>180</ele>
        <time>2017-05-22T08:43:31Z</time>
      </trkpt>
      <trkpt lat="45.96281" lon="4.71587">
        <ele>180</ele>
        <time>2017-05-22T08:43:32Z</time>
      </trkpt>
      <trkpt lat="45.96287" lon="4.71588">
        <ele>180</ele>
        <time>2017-05-22T08:43:33Z</time>
      </trkpt>
      <trkpt lat="45.96293" lon="4.7159">
        <ele>181</ele>
        <time>2017-05-22T08:43:34Z</time>
      </trkpt>
      <trkpt lat="45.96299" lon="4.71591">
        <ele>181</ele>
        <time>2017-05-22T08:43:35Z</time>
      </trkpt>
      <trkpt lat="45.96306" lon="4.71592">
        <ele>181</ele>
        <time>2017-05-22T08:43:36Z</time>
      </trkpt>
      <trkpt lat="45.96312" lon="4.71593">
        <ele>181</ele>
        <time>2017-05-22T08:43:37Z</time>
      </trkpt>
      <trkpt lat="45.96317" lon="4.71594">
        <ele>181</ele>
        <time>2017-05-22T08:43:38Z</time>
      </trkpt>
      <trkpt lat="45.96323" lon="4.71595">
        <ele>181</ele>
        <time>2017-05-22T08:43:39Z</time>
      </trkpt>
      <trkpt lat="45.96329" lon="4.71595">
        <ele>182</ele>
        <time>2017-05-22T08:43:40Z</time>
      </trkpt>
      <trkpt lat="45.96335" lon="4.71596">
        <ele>182</ele>
        <time>2017-05-22T08:43:41Z</time>
      </trkpt>
      <trkpt lat="45.9634" lon="4.71597">
        <ele>182</ele>
        <time>2017-05-22T08:43:42Z</time>
      </trkpt>
      <trkpt lat="45.96346" lon="4.71597">
        <ele>182</ele>
        <time>2017-05-22T08:43:43Z</time>
      </trkpt>
      <trkpt lat="45.96351" lon="4.71598">
        <ele>182</ele>
        <time>2017-05-22T08:43:44Z</time>
      </trkpt>
      <trkpt lat="45.96357" lon="4.716">
        <ele>182</ele>
        <time>2017-05-22T08:43:45Z</time>
      </trkpt>
      <trkpt lat="45.96363" lon="4.71601">
        <ele>182</ele>
        <time>2017-05-22T08:43:46Z</time>
      </trkpt>
      <trkpt lat="45.96368" lon="4.71602">
        <ele>182</ele>
        <time>2017-05-22T08:43:47Z</time>
      </trkpt>
      <trkpt lat="45.96374" lon="4.71603">
        <ele>182</ele>
        <time>2017-05-22T08:43:48Z</time>
      </trkpt>
      <trkpt lat="45.96379" lon="4.71604">
        <ele>182</ele>
        <time>2017-05-22T08:43:49Z</time>
      </trkpt>
      <trkpt lat="45.96385" lon="4.71605">
        <ele>182</ele>
        <time>2017-05-22T08:43:50Z</time>
      </trkpt>
      <trkpt lat="45.9639" lon="4.71606">
        <ele>182</ele>
        <time>2017-05-22T08:43:51Z</time>
      </trkpt>
      <trkpt lat="45.96395" lon="4.71606">
        <ele>182</ele>
        <time>2017-05-22T08:43:52Z</time>
      </trkpt>
      <trkpt lat="45.96401" lon="4.71607">
        <ele>183</ele>
        <time>2017-05-22T08:43:53Z</time>
      </trkpt>
      <trkpt lat="45.96406" lon="4.71608">
        <ele>183</ele>
        <time>2017-05-22T08:43:54Z</time>
      </trkpt>
      <trkpt lat="45.96412" lon="4.71609">
        <ele>183</ele>
        <time>2017-05-22T08:43:55Z</time>
      </trkpt>
      <trkpt lat="45.96418" lon="4.7161">
        <ele>183</ele>
        <time>2017-05-22T08:43:56Z</time>
      </trkpt>
      <trkpt lat="45.96423" lon="4.7161">
        <ele>183</ele>
        <time>2017-05-22T08:43:57Z</time>
      </trkpt>
      <trkpt lat="45.96429" lon="4.71611">
        <ele>183</ele>
        <time>2017-05-22T08:43:58Z</time>
      </trkpt>
      <trkpt lat="45.96435" lon="4.71612">
        <ele>183</ele>
        <time>2017-05-22T08:43:59Z</time>
      </trkpt>
      <trkpt lat="45.96441" lon="4.71613">
        <ele>183</ele>
        <time>2017-05-22T08:44:00Z</time>
      </trkpt>
      <trkpt lat="45.96447" lon="4.71614">
        <ele>183</ele>
        <time>2017-05-22T08:44:01Z</time>
      </trkpt>
      <trkpt lat="45.96453" lon="4.71616">
        <ele>183</ele>
        <time>2017-05-22T08:44:02Z</time>
      </trkpt>
      <trkpt lat="45.9646" lon="4.71617">
        <ele>183</ele>
        <time>2017-05-22T08:44:03Z</time>
      </trkpt>
      <trkpt lat="45.96466" lon="4.71618">
        <ele>183</ele>
        <time>2017-05-22T08:44:04Z</time>
      </trkpt>
      <trkpt lat="45.96471" lon="4.71619">
        <ele>183</ele>
        <time>2017-05-22T08:44:05Z</time>
      </trkpt>
      <trkpt lat="45.96476" lon="4.7162">
        <ele>183</ele>
        <time>2017-05-22T08:44:06Z</time>
      </trkpt>
      <trkpt lat="45.96482" lon="4.71621">
        <ele>183</ele>
        <time>2017-05-22T08:44:07Z</time>
      </trkpt>
      <trkpt lat="45.96487" lon="4.71622">
        <ele>183</ele>
        <time>2017-05-22T08:44:08Z</time>
      </trkpt>
      <trkpt lat="45.96492" lon="4.71622">
        <ele>183</ele>
        <time>2017-05-22T08:44:09Z</time>
      </trkpt>
      <trkpt lat="45.96497" lon="4.71623">
        <ele>183</ele>
        <time>2017-05-22T08:44:10Z</time>
      </trkpt>
      <trkpt lat="45.96502" lon="4.71624">
        <ele>184</ele>
        <time>2017-05-22T08:44:11Z</time>
      </trkpt>
      <trkpt lat="45.96507" lon="4.71626">
        <ele>184</ele>
        <time>2017-05-22T08:44:12Z</time>
      </trkpt>
      <trkpt lat="45.96511" lon="4.71631">
        <ele>183</ele>
        <time>2017-05-22T08:44:13Z</time>
      </trkpt>
      <trkpt lat="45.96515" lon="4.71636">
        <ele>183</ele>
        <time>2017-05-22T08:44:14Z</time>
      </trkpt>
      <trkpt lat="45.96519" lon="4.71641">
        <ele>183</ele>
        <time>2017-05-22T08:44:15Z</time>
      </trkpt>
      <trkpt lat="45.96523" lon="4.71645">
        <ele>183</ele>
        <time>2017-05-22T08:44:16Z</time>
      </trkpt>
      <trkpt lat="45.96529" lon="4.71647">
        <ele>183</ele>
        <time>2017-05-22T08:44:17Z</time>
      </trkpt>
      <trkpt lat="45.96534" lon="4.71646">
        <ele>183</ele>
        <time>2017-05-22T08:44:18Z</time>
      </trkpt>
      <trkpt lat="45.96538" lon="4.71643">
        <ele>184</ele>
        <time>2017-05-22T08:44:19Z</time>
      </trkpt>
      <trkpt lat="45.96542" lon="4.71639">
        <ele>184</ele>
        <time>2017-05-22T08:44:20Z</time>
      </trkpt>
      <trkpt lat="45.96546" lon="4.71635">
        <ele>184</ele>
        <time>2017-05-22T08:44:21Z</time>
      </trkpt>
      <trkpt lat="45.96554" lon="4.71631">
        <ele>184</ele>
        <time>2017-05-22T08:44:23Z</time>
      </trkpt>
      <trkpt lat="45.9656" lon="4.71632">
        <ele>184</ele>
        <time>2017-05-22T08:44:24Z</time>
      </trkpt>
      <trkpt lat="45.96566" lon="4.71632">
        <ele>184</ele>
        <time>2017-05-22T08:44:25Z</time>
      </trkpt>
      <trkpt lat="45.96571" lon="4.71633">
        <ele>184</ele>
        <time>2017-05-22T08:44:26Z</time>
      </trkpt>
      <trkpt lat="45.96577" lon="4.71635">
        <ele>184</ele>
        <time>2017-05-22T08:44:27Z</time>
      </trkpt>
      <trkpt lat="45.96583" lon="4.71636">
        <ele>184</ele>
        <time>2017-05-22T08:44:28Z</time>
      </trkpt>
      <trkpt lat="45.96589" lon="4.71637">
        <ele>186</ele>
        <time>2017-05-22T08:44:29Z</time>
      </trkpt>
      <trkpt lat="45.96594" lon="4.71638">
        <ele>187</ele>
        <time>2017-05-22T08:44:30Z</time>
      </trkpt>
      <trkpt lat="45.96601" lon="4.71639">
        <ele>187</ele>
        <time>2017-05-22T08:44:31Z</time>
      </trkpt>
      <trkpt lat="45.96606" lon="4.7164">
        <ele>187</ele>
        <time>2017-05-22T08:44:32Z</time>
      </trkpt>
      <trkpt lat="45.96611" lon="4.71641">
        <ele>187</ele>
        <time>2017-05-22T08:44:33Z</time>
      </trkpt>
      <trkpt lat="45.96618" lon="4.71643">
        <ele>187</ele>
        <time>2017-05-22T08:44:34Z</time>
      </trkpt>
      <trkpt lat="45.96624" lon="4.71643">
        <ele>187</ele>
        <time>2017-05-22T08:44:35Z</time>
      </trkpt>
      <trkpt lat="45.9663" lon="4.71644">
        <ele>187</ele>
        <time>2017-05-22T08:44:36Z</time>
      </trkpt>
      <trkpt lat="45.96635" lon="4.71644">
        <ele>187</ele>
        <time>2017-05-22T08:44:37Z</time>
      </trkpt>
      <trkpt lat="45.96641" lon="4.71644">
        <ele>187</ele>
        <time>2017-05-22T08:44:38Z</time>
      </trkpt>
      <trkpt lat="45.96646" lon="4.71645">
        <ele>188</ele>
        <time>2017-05-22T08:44:39Z</time>
      </trkpt>
      <trkpt lat="45.96651" lon="4.71646">
        <ele>188</ele>
        <time>2017-05-22T08:44:40Z</time>
      </trkpt>
      <trkpt lat="45.96656" lon="4.71646">
        <ele>188</ele>
        <time>2017-05-22T08:44:41Z</time>
      </trkpt>
      <trkpt lat="45.9666" lon="4.71647">
        <ele>188</ele>
        <time>2017-05-22T08:44:42Z</time>
      </trkpt>
      <trkpt lat="45.96664" lon="4.71648">
        <ele>188</ele>
        <time>2017-05-22T08:44:43Z</time>
      </trkpt>
      <trkpt lat="45.96669" lon="4.71649">
        <ele>189</ele>
        <time>2017-05-22T08:44:44Z</time>
      </trkpt>
      <trkpt lat="45.96674" lon="4.7165">
        <ele>189</ele>
        <time>2017-05-22T08:44:45Z</time>
      </trkpt>
      <trkpt lat="45.96679" lon="4.71651">
        <ele>189</ele>
        <time>2017-05-22T08:44:46Z</time>
      </trkpt>
      <trkpt lat="45.96685" lon="4.71652">
        <ele>189</ele>
        <time>2017-05-22T08:44:47Z</time>
      </trkpt>
      <trkpt lat="45.9669" lon="4.71653">
        <ele>189</ele>
        <time>2017-05-22T08:44:48Z</time>
      </trkpt>
      <trkpt lat="45.96696" lon="4.71654">
        <ele>189</ele>
        <time>2017-05-22T08:44:49Z</time>
      </trkpt>
      <trkpt lat="45.96702" lon="4.71655">
        <ele>190</ele>
        <time>2017-05-22T08:44:50Z</time>
      </trkpt>
      <trkpt lat="45.96708" lon="4.71656">
        <ele>190</ele>
        <time>2017-05-22T08:44:51Z</time>
      </trkpt>
      <trkpt lat="45.96714" lon="4.71656">
        <ele>190</ele>
        <time>2017-05-22T08:44:52Z</time>
      </trkpt>
      <trkpt lat="45.9672" lon="4.71657">
        <ele>190</ele>
        <time>2017-05-22T08:44:53Z</time>
      </trkpt>
      <trkpt lat="45.96726" lon="4.71657">
        <ele>190</ele>
        <time>2017-05-22T08:44:54Z</time>
      </trkpt>
      <trkpt lat="45.96732" lon="4.71658">
        <ele>190</ele>
        <time>2017-05-22T08:44:55Z</time>
      </trkpt>
      <trkpt lat="45.96738" lon="4.71659">
        <ele>190</ele>
        <time>2017-05-22T08:44:56Z</time>
      </trkpt>
      <trkpt lat="45.96744" lon="4.7166">
        <ele>189</ele>
        <time>2017-05-22T08:44:57Z</time>
      </trkpt>
      <trkpt lat="45.9675" lon="4.7166">
        <ele>190</ele>
        <time>2017-05-22T08:44:58Z</time>
      </trkpt>
      <trkpt lat="45.96756" lon="4.71661">
        <ele>190</ele>
        <time>2017-05-22T08:44:59Z</time>
      </trkpt>
      <trkpt lat="45.96761" lon="4.71662">
        <ele>191</ele>
        <time>2017-05-22T08:45:00Z</time>
      </trkpt>
      <trkpt lat="45.96766" lon="4.71663">
        <ele>191</ele>
        <time>2017-05-22T08:45:01Z</time>
      </trkpt>
      <trkpt lat="45.96771" lon="4.71664">
        <ele>191</ele>
        <time>2017-05-22T08:45:02Z</time>
      </trkpt>
      <trkpt lat="45.96777" lon="4.71666">
        <ele>192</ele>
        <time>2017-05-22T08:45:03Z</time>
      </trkpt>
      <trkpt lat="45.96782" lon="4.71667">
        <ele>188</ele>
        <time>2017-05-22T08:45:04Z</time>
      </trkpt>
      <trkpt lat="45.9679" lon="4.71668">
        <ele>188</ele>
        <time>2017-05-22T08:45:06Z</time>
      </trkpt>
      <trkpt lat="45.96795" lon="4.7167">
        <ele>188</ele>
        <time>2017-05-22T08:45:07Z</time>
      </trkpt>
      <trkpt lat="45.968" lon="4.71671">
        <ele>188</ele>
        <time>2017-05-22T08:45:08Z</time>
      </trkpt>
      <trkpt lat="45.96804" lon="4.71671">
        <ele>189</ele>
        <time>2017-05-22T08:45:09Z</time>
      </trkpt>
      <trkpt lat="45.96809" lon="4.71672">
        <ele>189</ele>
        <time>2017-05-22T08:45:10Z</time>
      </trkpt>
      <trkpt lat="45.96813" lon="4.71673">
        <ele>189</ele>
        <time>2017-05-22T08:45:11Z</time>
      </trkpt>
      <trkpt lat="45.96822" lon="4.71675">
        <ele>190</ele>
        <time>2017-05-22T08:45:13Z</time>
      </trkpt>
      <trkpt lat="45.96826" lon="4.71676">
        <ele>190</ele>
        <time>2017-05-22T08:45:14Z</time>
      </trkpt>
      <trkpt lat="45.96834" lon="4.71677">
        <ele>191</ele>
        <time>2017-05-22T08:45:16Z</time>
      </trkpt>
      <trkpt lat="45.96839" lon="4.71678">
        <ele>191</ele>
        <time>2017-05-22T08:45:17Z</time>
      </trkpt>
      <trkpt lat="45.96844" lon="4.71678">
        <ele>191</ele>
        <time>2017-05-22T08:45:18Z</time>
      </trkpt>
      <trkpt lat="45.96849" lon="4.71678">
        <ele>190</ele>
        <time>2017-05-22T08:45:19Z</time>
      </trkpt>
      <trkpt lat="45.96854" lon="4.71679">
        <ele>190</ele>
        <time>2017-05-22T08:45:20Z</time>
      </trkpt>
      <trkpt lat="45.96859" lon="4.71679">
        <ele>190</ele>
        <time>2017-05-22T08:45:21Z</time>
      </trkpt>
      <trkpt lat="45.96864" lon="4.7168">
        <ele>190</ele>
        <time>2017-05-22T08:45:22Z</time>
      </trkpt>
      <trkpt lat="45.96869" lon="4.7168">
        <ele>190</ele>
        <time>2017-05-22T08:45:23Z</time>
      </trkpt>
      <trkpt lat="45.96878" lon="4.71682">
        <ele>190</ele>
        <time>2017-05-22T08:45:25Z</time>
      </trkpt>
      <trkpt lat="45.96881" lon="4.71682">
        <ele>190</ele>
        <time>2017-05-22T08:45:26Z</time>
      </trkpt>
      <trkpt lat="45.9689" lon="4.71683">
        <ele>191</ele>
        <time>2017-05-22T08:45:28Z</time>
      </trkpt>
      <trkpt lat="45.96895" lon="4.71684">
        <ele>191</ele>
        <time>2017-05-22T08:45:29Z</time>
      </trkpt>
      <trkpt lat="45.96903" lon="4.71685">
        <ele>191</ele>
        <time>2017-05-22T08:45:31Z</time>
      </trkpt>
      <trkpt lat="45.96908" lon="4.71685">
        <ele>191</ele>
        <time>2017-05-22T08:45:32Z</time>
      </trkpt>
      <trkpt lat="45.96913" lon="4.71685">
        <ele>192</ele>
        <time>2017-05-22T08:45:33Z</time>
      </trkpt>
      <trkpt lat="45.96918" lon="4.71685">
        <ele>192</ele>
        <time>2017-05-22T08:45:34Z</time>
      </trkpt>
      <trkpt lat="45.96923" lon="4.71686">
        <ele>192</ele>
        <time>2017-05-22T08:45:35Z</time>
      </trkpt>
      <trkpt lat="45.96928" lon="4.71686">
        <ele>192</ele>
        <time>2017-05-22T08:45:36Z</time>
      </trkpt>
      <trkpt lat="45.96933" lon="4.71687">
        <ele>192</ele>
        <time>2017-05-22T08:45:37Z</time>
      </trkpt>
      <trkpt lat="45.96937" lon="4.71687">
        <ele>192</ele>
        <time>2017-05-22T08:45:38Z</time>
      </trkpt>
      <trkpt lat="45.96945" lon="4.71689">
        <ele>191</ele>
        <time>2017-05-22T08:45:40Z</time>
      </trkpt>
      <trkpt lat="45.9695" lon="4.71689">
        <ele>191</ele>
        <time>2017-05-22T08:45:41Z</time>
      </trkpt>
      <trkpt lat="45.96954" lon="4.71689">
        <ele>191</ele>
        <time>2017-05-22T08:45:42Z</time>
      </trkpt>
      <trkpt lat="45.96959" lon="4.71689">
        <ele>191</ele>
        <time>2017-05-22T08:45:43Z</time>
      </trkpt>
      <trkpt lat="45.96963" lon="4.71689">
        <ele>191</ele>
        <time>2017-05-22T08:45:44Z</time>
      </trkpt>
      <trkpt lat="45.96968" lon="4.71689">
        <ele>191</ele>
        <time>2017-05-22T08:45:45Z</time>
      </trkpt>
      <trkpt lat="45.96977" lon="4.7169">
        <ele>192</ele>
        <time>2017-05-22T08:45:47Z</time>
      </trkpt>
      <trkpt lat="45.96981" lon="4.7169">
        <ele>192</ele>
        <time>2017-05-22T08:45:48Z</time>
      </trkpt>
      <trkpt lat="45.96986" lon="4.7169">
        <ele>192</ele>
        <time>2017-05-22T08:45:49Z</time>
      </trkpt>
      <trkpt lat="45.9699" lon="4.71692">
        <ele>192</ele>
        <time>2017-05-22T08:45:50Z</time>
      </trkpt>
      <trkpt lat="45.96995" lon="4.71693">
        <ele>192</ele>
        <time>2017-05-22T08:45:51Z</time>
      </trkpt>
      <trkpt lat="45.97" lon="4.71694">
        <ele>192</ele>
        <time>2017-05-22T08:45:52Z</time>
      </trkpt>
      <trkpt lat="45.97005" lon="4.71697">
        <ele>192</ele>
        <time>2017-05-22T08:45:53Z</time>
      </trkpt>
      <trkpt lat="45.97012" lon="4.71699">
        <ele>192</ele>
        <time>2017-05-22T08:45:54Z</time>
      </trkpt>
      <trkpt lat="45.97018" lon="4.71699">
        <ele>192</ele>
        <time>2017-05-22T08:45:55Z</time>
      </trkpt>
      <trkpt lat="45.97024" lon="4.71699">
        <ele>192</ele>
        <time>2017-05-22T08:45:56Z</time>
      </trkpt>
      <trkpt lat="45.9703" lon="4.71699">
        <ele>192</ele>
        <time>2017-05-22T08:45:57Z</time>
      </trkpt>
      <trkpt lat="45.97036" lon="4.717">
        <ele>192</ele>
        <time>2017-05-22T08:45:58Z</time>
      </trkpt>
      <trkpt lat="45.97042" lon="4.717">
        <ele>192</ele>
        <time>2017-05-22T08:45:59Z</time>
      </trkpt>
      <trkpt lat="45.97047" lon="4.717">
        <ele>192</ele>
        <time>2017-05-22T08:46:00Z</time>
      </trkpt>
      <trkpt lat="45.97052" lon="4.71701">
        <ele>192</ele>
        <time>2017-05-22T08:46:01Z</time>
      </trkpt>
      <trkpt lat="45.97057" lon="4.71702">
        <ele>192</ele>
        <time>2017-05-22T08:46:02Z</time>
      </trkpt>
      <trkpt lat="45.97062" lon="4.71702">
        <ele>192</ele>
        <time>2017-05-22T08:46:03Z</time>
      </trkpt>
      <trkpt lat="45.97066" lon="4.71702">
        <ele>192</ele>
        <time>2017-05-22T08:46:04Z</time>
      </trkpt>
      <trkpt lat="45.97075" lon="4.71702">
        <ele>192</ele>
        <time>2017-05-22T08:46:06Z</time>
      </trkpt>
      <trkpt lat="45.97078" lon="4.71702">
        <ele>192</ele>
        <time>2017-05-22T08:46:07Z</time>
      </trkpt>
      <trkpt lat="45.97087" lon="4.71705">
        <ele>194</ele>
        <time>2017-05-22T08:46:09Z</time>
      </trkpt>
      <trkpt lat="45.97092" lon="4.71705">
        <ele>194</ele>
        <time>2017-05-22T08:46:10Z</time>
      </trkpt>
      <trkpt lat="45.97097" lon="4.71706">
        <ele>194</ele>
        <time>2017-05-22T08:46:11Z</time>
      </trkpt>
      <trkpt lat="45.97102" lon="4.71705">
        <ele>194</ele>
        <time>2017-05-22T08:46:12Z</time>
      </trkpt>
      <trkpt lat="45.97107" lon="4.71705">
        <ele>194</ele>
        <time>2017-05-22T08:46:13Z</time>
      </trkpt>
      <trkpt lat="45.97112" lon="4.71705">
        <ele>194</ele>
        <time>2017-05-22T08:46:14Z</time>
      </trkpt>
      <trkpt lat="45.97118" lon="4.71705">
        <ele>194</ele>
        <time>2017-05-22T08:46:15Z</time>
      </trkpt>
      <trkpt lat="45.97123" lon="4.71705">
        <ele>194</ele>
        <time>2017-05-22T08:46:16Z</time>
      </trkpt>
      <trkpt lat="45.97128" lon="4.71706">
        <ele>194</ele>
        <time>2017-05-22T08:46:17Z</time>
      </trkpt>
      <trkpt lat="45.97133" lon="4.71706">
        <ele>194</ele>
        <time>2017-05-22T08:46:18Z</time>
      </trkpt>
      <trkpt lat="45.97138" lon="4.71707">
        <ele>194</ele>
        <time>2017-05-22T08:46:19Z</time>
      </trkpt>
      <trkpt lat="45.97142" lon="4.71707">
        <ele>194</ele>
        <time>2017-05-22T08:46:20Z</time>
      </trkpt>
      <trkpt lat="45.97148" lon="4.71708">
        <ele>194</ele>
        <time>2017-05-22T08:46:21Z</time>
      </trkpt>
      <trkpt lat="45.97152" lon="4.71708">
        <ele>194</ele>
        <time>2017-05-22T08:46:22Z</time>
      </trkpt>
      <trkpt lat="45.97157" lon="4.71708">
        <ele>195</ele>
        <time>2017-05-22T08:46:23Z</time>
      </trkpt>
      <trkpt lat="45.97161" lon="4.71708">
        <ele>195</ele>
        <time>2017-05-22T08:46:24Z</time>
      </trkpt>
      <trkpt lat="45.97166" lon="4.71708">
        <ele>195</ele>
        <time>2017-05-22T08:46:25Z</time>
      </trkpt>
      <trkpt lat="45.9717" lon="4.71708">
        <ele>196</ele>
        <time>2017-05-22T08:46:26Z</time>
      </trkpt>
      <trkpt lat="45.97175" lon="4.71709">
        <ele>196</ele>
        <time>2017-05-22T08:46:27Z</time>
      </trkpt>
      <trkpt lat="45.9718" lon="4.71709">
        <ele>196</ele>
        <time>2017-05-22T08:46:28Z</time>
      </trkpt>
      <trkpt lat="45.97184" lon="4.71709">
        <ele>196</ele>
        <time>2017-05-22T08:46:29Z</time>
      </trkpt>
      <trkpt lat="45.97189" lon="4.71709">
        <ele>196</ele>
        <time>2017-05-22T08:46:30Z</time>
      </trkpt>
      <trkpt lat="45.97194" lon="4.71709">
        <ele>196</ele>
        <time>2017-05-22T08:46:31Z</time>
      </trkpt>
      <trkpt lat="45.97199" lon="4.7171">
        <ele>196</ele>
        <time>2017-05-22T08:46:32Z</time>
      </trkpt>
      <trkpt lat="45.97204" lon="4.7171">
        <ele>196</ele>
        <time>2017-05-22T08:46:33Z</time>
      </trkpt>
      <trkpt lat="45.97209" lon="4.7171">
        <ele>196</ele>
        <time>2017-05-22T08:46:34Z</time>
      </trkpt>
      <trkpt lat="45.97215" lon="4.7171">
        <ele>196</ele>
        <time>2017-05-22T08:46:35Z</time>
      </trkpt>
      <trkpt lat="45.9722" lon="4.71711">
        <ele>196</ele>
        <time>2017-05-22T08:46:36Z</time>
      </trkpt>
      <trkpt lat="45.97225" lon="4.71711">
        <ele>196</ele>
        <time>2017-05-22T08:46:37Z</time>
      </trkpt>
      <trkpt lat="45.9723" lon="4.71712">
        <ele>196</ele>
        <time>2017-05-22T08:46:38Z</time>
      </trkpt>
      <trkpt lat="45.97235" lon="4.71713">
        <ele>196</ele>
        <time>2017-05-22T08:46:39Z</time>
      </trkpt>
      <trkpt lat="45.97239" lon="4.71713">
        <ele>196</ele>
        <time>2017-05-22T08:46:40Z</time>
      </trkpt>
      <trkpt lat="45.97244" lon="4.71714">
        <ele>196</ele>
        <time>2017-05-22T08:46:41Z</time>
      </trkpt>
      <trkpt lat="45.97249" lon="4.71715">
        <ele>196</ele>
        <time>2017-05-22T08:46:42Z</time>
      </trkpt>
      <trkpt lat="45.97254" lon="4.71716">
        <ele>196</ele>
        <time>2017-05-22T08:46:43Z</time>
      </trkpt>
      <trkpt lat="45.97259" lon="4.71716">
        <ele>196</ele>
        <time>2017-05-22T08:46:44Z</time>
      </trkpt>
      <trkpt lat="45.97267" lon="4.71718">
        <ele>196</ele>
        <time>2017-05-22T08:46:46Z</time>
      </trkpt>
      <trkpt lat="45.97271" lon="4.71719">
        <ele>196</ele>
        <time>2017-05-22T08:46:47Z</time>
      </trkpt>
      <trkpt lat="45.97279" lon="4.71721">
        <ele>196</ele>
        <time>2017-05-22T08:46:49Z</time>
      </trkpt>
      <trkpt lat="45.97282" lon="4.71724">
        <ele>196</ele>
        <time>2017-05-22T08:46:50Z</time>
      </trkpt>
      <trkpt lat="45.97287" lon="4.71732">
        <ele>196</ele>
        <time>2017-05-22T08:46:52Z</time>
      </trkpt>
      <trkpt lat="45.9729" lon="4.71736">
        <ele>196</ele>
        <time>2017-05-22T08:46:53Z</time>
      </trkpt>
      <trkpt lat="45.97294" lon="4.71739">
        <ele>196</ele>
        <time>2017-05-22T08:46:54Z</time>
      </trkpt>
      <trkpt lat="45.97298" lon="4.71742">
        <ele>196</ele>
        <time>2017-05-22T08:46:55Z</time>
      </trkpt>
      <trkpt lat="45.97303" lon="4.71743">
        <ele>195</ele>
        <time>2017-05-22T08:46:56Z</time>
      </trkpt>
      <trkpt lat="45.97308" lon="4.71743">
        <ele>195</ele>
        <time>2017-05-22T08:46:57Z</time>
      </trkpt>
      <trkpt lat="45.97312" lon="4.7174">
        <ele>195</ele>
        <time>2017-05-22T08:46:58Z</time>
      </trkpt>
      <trkpt lat="45.97317" lon="4.71736">
        <ele>195</ele>
        <time>2017-05-22T08:46:59Z</time>
      </trkpt>
      <trkpt lat="45.97323" lon="4.71729">
        <ele>195</ele>
        <time>2017-05-22T08:47:01Z</time>
      </trkpt>
      <trkpt lat="45.97327" lon="4.71727">
        <ele>195</ele>
        <time>2017-05-22T08:47:02Z</time>
      </trkpt>
      <trkpt lat="45.97335" lon="4.71726">
        <ele>195</ele>
        <time>2017-05-22T08:47:04Z</time>
      </trkpt>
      <trkpt lat="45.97339" lon="4.71727">
        <ele>195</ele>
        <time>2017-05-22T08:47:05Z</time>
      </trkpt>
      <trkpt lat="45.97344" lon="4.71727">
        <ele>195</ele>
        <time>2017-05-22T08:47:06Z</time>
      </trkpt>
      <trkpt lat="45.97348" lon="4.71727">
        <ele>195</ele>
        <time>2017-05-22T08:47:07Z</time>
      </trkpt>
      <trkpt lat="45.97353" lon="4.71727">
        <ele>195</ele>
        <time>2017-05-22T08:47:08Z</time>
      </trkpt>
      <trkpt lat="45.97357" lon="4.71727">
        <ele>195</ele>
        <time>2017-05-22T08:47:09Z</time>
      </trkpt>
      <trkpt lat="45.97362" lon="4.71728">
        <ele>195</ele>
        <time>2017-05-22T08:47:10Z</time>
      </trkpt>
      <trkpt lat="45.97367" lon="4.71728">
        <ele>195</ele>
        <time>2017-05-22T08:47:11Z</time>
      </trkpt>
      <trkpt lat="45.97372" lon="4.71728">
        <ele>195</ele>
        <time>2017-05-22T08:47:12Z</time>
      </trkpt>
      <trkpt lat="45.97376" lon="4.71728">
        <ele>195</ele>
        <time>2017-05-22T08:47:13Z</time>
      </trkpt>
      <trkpt lat="45.97381" lon="4.71729">
        <ele>195</ele>
        <time>2017-05-22T08:47:14Z</time>
      </trkpt>
      <trkpt lat="45.97386" lon="4.71729">
        <ele>195</ele>
        <time>2017-05-22T08:47:15Z</time>
      </trkpt>
      <trkpt lat="45.97391" lon="4.71729">
        <ele>195</ele>
        <time>2017-05-22T08:47:16Z</time>
      </trkpt>
      <trkpt lat="45.97397" lon="4.7173">
        <ele>195</ele>
        <time>2017-05-22T08:47:17Z</time>
      </trkpt>
      <trkpt lat="45.97402" lon="4.7173">
        <ele>194</ele>
        <time>2017-05-22T08:47:18Z</time>
      </trkpt>
      <trkpt lat="45.97408" lon="4.7173">
        <ele>194</ele>
        <time>2017-05-22T08:47:19Z</time>
      </trkpt>
      <trkpt lat="45.97414" lon="4.71731">
        <ele>194</ele>
        <time>2017-05-22T08:47:20Z</time>
      </trkpt>
      <trkpt lat="45.97419" lon="4.71731">
        <ele>195</ele>
        <time>2017-05-22T08:47:21Z</time>
      </trkpt>
      <trkpt lat="45.97424" lon="4.71731">
        <ele>195</ele>
        <time>2017-05-22T08:47:22Z</time>
      </trkpt>
      <trkpt lat="45.97429" lon="4.71731">
        <ele>195</ele>
        <time>2017-05-22T08:47:23Z</time>
      </trkpt>
      <trkpt lat="45.97433" lon="4.71732">
        <ele>196</ele>
        <time>2017-05-22T08:47:24Z</time>
      </trkpt>
      <trkpt lat="45.97438" lon="4.71732">
        <ele>196</ele>
        <time>2017-05-22T08:47:25Z</time>
      </trkpt>
      <trkpt lat="45.97443" lon="4.71733">
        <ele>196</ele>
        <time>2017-05-22T08:47:26Z</time>
      </trkpt>
      <trkpt lat="45.97449" lon="4.71733">
        <ele>196</ele>
        <time>2017-05-22T08:47:27Z</time>
      </trkpt>
      <trkpt lat="45.97454" lon="4.71733">
        <ele>196</ele>
        <time>2017-05-22T08:47:28Z</time>
      </trkpt>
      <trkpt lat="45.97459" lon="4.71734">
        <ele>197</ele>
        <time>2017-05-22T08:47:29Z</time>
      </trkpt>
      <trkpt lat="45.97464" lon="4.71734">
        <ele>197</ele>
        <time>2017-05-22T08:47:30Z</time>
      </trkpt>
      <trkpt lat="45.9747" lon="4.71735">
        <ele>197</ele>
        <time>2017-05-22T08:47:31Z</time>
      </trkpt>
      <trkpt lat="45.97474" lon="4.71735">
        <ele>197</ele>
        <time>2017-05-22T08:47:32Z</time>
      </trkpt>
      <trkpt lat="45.97479" lon="4.71735">
        <ele>197</ele>
        <time>2017-05-22T08:47:33Z</time>
      </trkpt>
      <trkpt lat="45.97484" lon="4.71736">
        <ele>197</ele>
        <time>2017-05-22T08:47:34Z</time>
      </trkpt>
      <trkpt lat="45.97488" lon="4.71737">
        <ele>197</ele>
        <time>2017-05-22T08:47:35Z</time>
      </trkpt>
      <trkpt lat="45.97493" lon="4.71737">
        <ele>197</ele>
        <time>2017-05-22T08:47:36Z</time>
      </trkpt>
      <trkpt lat="45.97498" lon="4.71737">
        <ele>197</ele>
        <time>2017-05-22T08:47:37Z</time>
      </trkpt>
      <trkpt lat="45.97503" lon="4.71737">
        <ele>197</ele>
        <time>2017-05-22T08:47:38Z</time>
      </trkpt>
      <trkpt lat="45.97507" lon="4.71737">
        <ele>197</ele>
        <time>2017-05-22T08:47:39Z</time>
      </trkpt>
      <trkpt lat="45.97513" lon="4.71738">
        <ele>197</ele>
        <time>2017-05-22T08:47:40Z</time>
      </trkpt>
      <trkpt lat="45.97518" lon="4.71738">
        <ele>197</ele>
        <time>2017-05-22T08:47:41Z</time>
      </trkpt>
      <trkpt lat="45.97525" lon="4.71738">
        <ele>198</ele>
        <time>2017-05-22T08:47:42Z</time>
      </trkpt>
      <trkpt lat="45.9753" lon="4.71738">
        <ele>198</ele>
        <time>2017-05-22T08:47:43Z</time>
      </trkpt>
      <trkpt lat="45.97536" lon="4.71738">
        <ele>198</ele>
        <time>2017-05-22T08:47:44Z</time>
      </trkpt>
      <trkpt lat="45.97541" lon="4.71738">
        <ele>198</ele>
        <time>2017-05-22T08:47:45Z</time>
      </trkpt>
      <trkpt lat="45.97547" lon="4.71739">
        <ele>197</ele>
        <time>2017-05-22T08:47:46Z</time>
      </trkpt>
      <trkpt lat="45.97553" lon="4.71739">
        <ele>197</ele>
        <time>2017-05-22T08:47:47Z</time>
      </trkpt>
      <trkpt lat="45.97558" lon="4.71739">
        <ele>197</ele>
        <time>2017-05-22T08:47:48Z</time>
      </trkpt>
      <trkpt lat="45.97564" lon="4.71739">
        <ele>197</ele>
        <time>2017-05-22T08:47:49Z</time>
      </trkpt>
      <trkpt lat="45.97569" lon="4.7174">
        <ele>197</ele>
        <time>2017-05-22T08:47:50Z</time>
      </trkpt>
      <trkpt lat="45.97575" lon="4.7174">
        <ele>196</ele>
        <time>2017-05-22T08:47:51Z</time>
      </trkpt>
      <trkpt lat="45.97581" lon="4.7174">
        <ele>196</ele>
        <time>2017-05-22T08:47:52Z</time>
      </trkpt>
      <trkpt lat="45.97586" lon="4.7174">
        <ele>196</ele>
        <time>2017-05-22T08:47:53Z</time>
      </trkpt>
      <trkpt lat="45.97592" lon="4.71742">
        <ele>196</ele>
        <time>2017-05-22T08:47:54Z</time>
      </trkpt>
      <trkpt lat="45.97597" lon="4.71746">
        <ele>196</ele>
        <time>2017-05-22T08:47:55Z</time>
      </trkpt>
      <trkpt lat="45.976" lon="4.71752">
        <ele>194</ele>
        <time>2017-05-22T08:47:56Z</time>
      </trkpt>
      <trkpt lat="45.97604" lon="4.71758">
        <ele>194</ele>
        <time>2017-05-22T08:47:57Z</time>
      </trkpt>
      <trkpt lat="45.97608" lon="4.71763">
        <ele>194</ele>
        <time>2017-05-22T08:47:58Z</time>
      </trkpt>
      <trkpt lat="45.97614" lon="4.71764">
        <ele>194</ele>
        <time>2017-05-22T08:47:59Z</time>
      </trkpt>
      <trkpt lat="45.97619" lon="4.71764">
        <ele>194</ele>
        <time>2017-05-22T08:48:00Z</time>
      </trkpt>
      <trkpt lat="45.97624" lon="4.71762">
        <ele>194</ele>
        <time>2017-05-22T08:48:01Z</time>
      </trkpt>
      <trkpt lat="45.97629" lon="4.71758">
        <ele>194</ele>
        <time>2017-05-22T08:48:02Z</time>
      </trkpt>
      <trkpt lat="45.97633" lon="4.71755">
        <ele>194</ele>
        <time>2017-05-22T08:48:03Z</time>
      </trkpt>
      <trkpt lat="45.97638" lon="4.71754">
        <ele>194</ele>
        <time>2017-05-22T08:48:04Z</time>
      </trkpt>
      <trkpt lat="45.97643" lon="4.71754">
        <ele>194</ele>
        <time>2017-05-22T08:48:05Z</time>
      </trkpt>
      <trkpt lat="45.97648" lon="4.71755">
        <ele>194</ele>
        <time>2017-05-22T08:48:06Z</time>
      </trkpt>
      <trkpt lat="45.97654" lon="4.71756">
        <ele>194</ele>
        <time>2017-05-22T08:48:07Z</time>
      </trkpt>
      <trkpt lat="45.97659" lon="4.71757">
        <ele>194</ele>
        <time>2017-05-22T08:48:08Z</time>
      </trkpt>
      <trkpt lat="45.97666" lon="4.71758">
        <ele>194</ele>
        <time>2017-05-22T08:48:09Z</time>
      </trkpt>
      <trkpt lat="45.97671" lon="4.71759">
        <ele>194</ele>
        <time>2017-05-22T08:48:10Z</time>
      </trkpt>
      <trkpt lat="45.97677" lon="4.71759">
        <ele>194</ele>
        <time>2017-05-22T08:48:11Z</time>
      </trkpt>
      <trkpt lat="45.97683" lon="4.71759">
        <ele>194</ele>
        <time>2017-05-22T08:48:12Z</time>
      </trkpt>
      <trkpt lat="45.97689" lon="4.7176">
        <ele>195</ele>
        <time>2017-05-22T08:48:13Z</time>
      </trkpt>
      <trkpt lat="45.97695" lon="4.7176">
        <ele>195</ele>
        <time>2017-05-22T08:48:14Z</time>
      </trkpt>
      <trkpt lat="45.97701" lon="4.71761">
        <ele>195</ele>
        <time>2017-05-22T08:48:15Z</time>
      </trkpt>
      <trkpt lat="45.97707" lon="4.71761">
        <ele>195</ele>
        <time>2017-05-22T08:48:16Z</time>
      </trkpt>
      <trkpt lat="45.97713" lon="4.71762">
        <ele>195</ele>
        <time>2017-05-22T08:48:17Z</time>
      </trkpt>
      <trkpt lat="45.97719" lon="4.71762">
        <ele>195</ele>
        <time>2017-05-22T08:48:18Z</time>
      </trkpt>
      <trkpt lat="45.97724" lon="4.71762">
        <ele>195</ele>
        <time>2017-05-22T08:48:19Z</time>
      </trkpt>
      <trkpt lat="45.9773" lon="4.71762">
        <ele>195</ele>
        <time>2017-05-22T08:48:20Z</time>
      </trkpt>
      <trkpt lat="45.97736" lon="4.71763">
        <ele>195</ele>
        <time>2017-05-22T08:48:21Z</time>
      </trkpt>
      <trkpt lat="45.97741" lon="4.71763">
        <ele>195</ele>
        <time>2017-05-22T08:48:22Z</time>
      </trkpt>
      <trkpt lat="45.97747" lon="4.71764">
        <ele>195</ele>
        <time>2017-05-22T08:48:23Z</time>
      </trkpt>
      <trkpt lat="45.97753" lon="4.71764">
        <ele>196</ele>
        <time>2017-05-22T08:48:24Z</time>
      </trkpt>
      <trkpt lat="45.97759" lon="4.71764">
        <ele>196</ele>
        <time>2017-05-22T08:48:25Z</time>
      </trkpt>
      <trkpt lat="45.97765" lon="4.71765">
        <ele>195</ele>
        <time>2017-05-22T08:48:26Z</time>
      </trkpt>
      <trkpt lat="45.97771" lon="4.71764">
        <ele>195</ele>
        <time>2017-05-22T08:48:27Z</time>
      </trkpt>
      <trkpt lat="45.97777" lon="4.71765">
        <ele>195</ele>
        <time>2017-05-22T08:48:28Z</time>
      </trkpt>
      <trkpt lat="45.97783" lon="4.71766">
        <ele>195</ele>
        <time>2017-05-22T08:48:29Z</time>
      </trkpt>
      <trkpt lat="45.97789" lon="4.71766">
        <ele>195</ele>
        <time>2017-05-22T08:48:30Z</time>
      </trkpt>
      <trkpt lat="45.97795" lon="4.71766">
        <ele>195</ele>
        <time>2017-05-22T08:48:31Z</time>
      </trkpt>
      <trkpt lat="45.978" lon="4.71766">
        <ele>195</ele>
        <time>2017-05-22T08:48:32Z</time>
      </trkpt>
      <trkpt lat="45.97806" lon="4.71766">
        <ele>195</ele>
        <time>2017-05-22T08:48:33Z</time>
      </trkpt>
      <trkpt lat="45.97812" lon="4.71767">
        <ele>195</ele>
        <time>2017-05-22T08:48:34Z</time>
      </trkpt>
      <trkpt lat="45.97817" lon="4.71767">
        <ele>195</ele>
        <time>2017-05-22T08:48:35Z</time>
      </trkpt>
      <trkpt lat="45.97823" lon="4.71768">
        <ele>195</ele>
        <time>2017-05-22T08:48:36Z</time>
      </trkpt>
      <trkpt lat="45.97828" lon="4.71768">
        <ele>195</ele>
        <time>2017-05-22T08:48:37Z</time>
      </trkpt>
      <trkpt lat="45.97834" lon="4.71768">
        <ele>195</ele>
        <time>2017-05-22T08:48:38Z</time>
      </trkpt>
      <trkpt lat="45.9784" lon="4.71769">
        <ele>195</ele>
        <time>2017-05-22T08:48:39Z</time>
      </trkpt>
      <trkpt lat="45.97845" lon="4.71771">
        <ele>195</ele>
        <time>2017-05-22T08:48:40Z</time>
      </trkpt>
      <trkpt lat="45.9785" lon="4.71774">
        <ele>194</ele>
        <time>2017-05-22T08:48:41Z</time>
      </trkpt>
      <trkpt lat="45.97854" lon="4.71779">
        <ele>194</ele>
        <time>2017-05-22T08:48:42Z</time>
      </trkpt>
      <trkpt lat="45.97858" lon="4.71784">
        <ele>194</ele>
        <time>2017-05-22T08:48:43Z</time>
      </trkpt>
      <trkpt lat="45.97863" lon="4.71789">
        <ele>194</ele>
        <time>2017-05-22T08:48:44Z</time>
      </trkpt>
      <trkpt lat="45.97868" lon="4.71791">
        <ele>194</ele>
        <time>2017-05-22T08:48:45Z</time>
      </trkpt>
      <trkpt lat="45.97874" lon="4.71792">
        <ele>194</ele>
        <time>2017-05-22T08:48:46Z</time>
      </trkpt>
      <trkpt lat="45.9788" lon="4.7179">
        <ele>194</ele>
        <time>2017-05-22T08:48:47Z</time>
      </trkpt>
      <trkpt lat="45.97885" lon="4.71787">
        <ele>194</ele>
        <time>2017-05-22T08:48:48Z</time>
      </trkpt>
      <trkpt lat="45.97889" lon="4.71782">
        <ele>194</ele>
        <time>2017-05-22T08:48:49Z</time>
      </trkpt>
      <trkpt lat="45.97894" lon="4.71775">
        <ele>194</ele>
        <time>2017-05-22T08:48:50Z</time>
      </trkpt>
      <trkpt lat="45.97897" lon="4.71768">
        <ele>194</ele>
        <time>2017-05-22T08:48:51Z</time>
      </trkpt>
      <trkpt lat="45.97899" lon="4.71761">
        <ele>195</ele>
        <time>2017-05-22T08:48:52Z</time>
      </trkpt>
      <trkpt lat="45.97901" lon="4.71754">
        <ele>195</ele>
        <time>2017-05-22T08:48:53Z</time>
      </trkpt>
      <trkpt lat="45.97901" lon="4.71746">
        <ele>195</ele>
        <time>2017-05-22T08:48:54Z</time>
      </trkpt>
      <trkpt lat="45.97901" lon="4.71737">
        <ele>196</ele>
        <time>2017-05-22T08:48:55Z</time>
      </trkpt>
      <trkpt lat="45.97901" lon="4.71729">
        <ele>196</ele>
        <time>2017-05-22T08:48:56Z</time>
      </trkpt>
      <trkpt lat="45.97902" lon="4.71721">
        <ele>196</ele>
        <time>2017-05-22T08:48:57Z</time>
      </trkpt>
      <trkpt lat="45.97903" lon="4.71713">
        <ele>196</ele>
        <time>2017-05-22T08:48:58Z</time>
      </trkpt>
      <trkpt lat="45.97905" lon="4.71705">
        <ele>196</ele>
        <time>2017-05-22T08:48:59Z</time>
      </trkpt>
      <trkpt lat="45.97909" lon="4.71698">
        <ele>196</ele>
        <time>2017-05-22T08:49:00Z</time>
      </trkpt>
      <trkpt lat="45.97913" lon="4.71694">
        <ele>196</ele>
        <time>2017-05-22T08:49:01Z</time>
      </trkpt>
      <trkpt lat="45.97918" lon="4.7169">
        <ele>196</ele>
        <time>2017-05-22T08:49:02Z</time>
      </trkpt>
      <trkpt lat="45.97923" lon="4.71687">
        <ele>196</ele>
        <time>2017-05-22T08:49:03Z</time>
      </trkpt>
      <trkpt lat="45.97927" lon="4.71683">
        <ele>196</ele>
        <time>2017-05-22T08:49:04Z</time>
      </trkpt>
      <trkpt lat="45.97931" lon="4.71679">
        <ele>197</ele>
        <time>2017-05-22T08:49:05Z</time>
      </trkpt>
      <trkpt lat="45.97935" lon="4.71676">
        <ele>197</ele>
        <time>2017-05-22T08:49:06Z</time>
      </trkpt>
      <trkpt lat="45.97939" lon="4.71674">
        <ele>197</ele>
        <time>2017-05-22T08:49:07Z</time>
      </trkpt>
      <trkpt lat="45.97943" lon="4.7167">
        <ele>197</ele>
        <time>2017-05-22T08:49:08Z</time>
      </trkpt>
      <trkpt lat="45.97948" lon="4.71667">
        <ele>197</ele>
        <time>2017-05-22T08:49:09Z</time>
      </trkpt>
      <trkpt lat="45.97952" lon="4.71664">
        <ele>197</ele>
        <time>2017-05-22T08:49:10Z</time>
      </trkpt>
      <trkpt lat="45.97957" lon="4.7166">
        <ele>197</ele>
        <time>2017-05-22T08:49:11Z</time>
      </trkpt>
      <trkpt lat="45.97961" lon="4.71657">
        <ele>197</ele>
        <time>2017-05-22T08:49:12Z</time>
      </trkpt>
      <trkpt lat="45.97965" lon="4.71653">
        <ele>197</ele>
        <time>2017-05-22T08:49:13Z</time>
      </trkpt>
      <trkpt lat="45.97969" lon="4.7165">
        <ele>197</ele>
        <time>2017-05-22T08:49:14Z</time>
      </trkpt>
      <trkpt lat="45.97974" lon="4.71647">
        <ele>197</ele>
        <time>2017-05-22T08:49:15Z</time>
      </trkpt>
      <trkpt lat="45.97979" lon="4.71643">
        <ele>197</ele>
        <time>2017-05-22T08:49:16Z</time>
      </trkpt>
      <trkpt lat="45.97983" lon="4.71639">
        <ele>197</ele>
        <time>2017-05-22T08:49:17Z</time>
      </trkpt>
      <trkpt lat="45.97987" lon="4.71636">
        <ele>198</ele>
        <time>2017-05-22T08:49:18Z</time>
      </trkpt>
      <trkpt lat="45.97991" lon="4.71633">
        <ele>198</ele>
        <time>2017-05-22T08:49:19Z</time>
      </trkpt>
      <trkpt lat="45.97996" lon="4.7163">
        <ele>198</ele>
        <time>2017-05-22T08:49:20Z</time>
      </trkpt>
      <trkpt lat="45.98001" lon="4.71626">
        <ele>198</ele>
        <time>2017-05-22T08:49:21Z</time>
      </trkpt>
      <trkpt lat="45.98006" lon="4.71622">
        <ele>198</ele>
        <time>2017-05-22T08:49:22Z</time>
      </trkpt>
      <trkpt lat="45.9801" lon="4.71618">
        <ele>198</ele>
        <time>2017-05-22T08:49:23Z</time>
      </trkpt>
      <trkpt lat="45.98015" lon="4.71615">
        <ele>198</ele>
        <time>2017-05-22T08:49:24Z</time>
      </trkpt>
      <trkpt lat="45.98019" lon="4.71612">
        <ele>198</ele>
        <time>2017-05-22T08:49:25Z</time>
      </trkpt>
      <trkpt lat="45.98023" lon="4.71608">
        <ele>198</ele>
        <time>2017-05-22T08:49:26Z</time>
      </trkpt>
      <trkpt lat="45.98027" lon="4.71605">
        <ele>198</ele>
        <time>2017-05-22T08:49:27Z</time>
      </trkpt>
      <trkpt lat="45.98035" lon="4.71599">
        <ele>198</ele>
        <time>2017-05-22T08:49:29Z</time>
      </trkpt>
      <trkpt lat="45.98039" lon="4.71597">
        <ele>198</ele>
        <time>2017-05-22T08:49:30Z</time>
      </trkpt>
      <trkpt lat="45.98043" lon="4.71594">
        <ele>198</ele>
        <time>2017-05-22T08:49:31Z</time>
      </trkpt>
      <trkpt lat="45.98047" lon="4.71591">
        <ele>198</ele>
        <time>2017-05-22T08:49:32Z</time>
      </trkpt>
      <trkpt lat="45.98051" lon="4.71588">
        <ele>198</ele>
        <time>2017-05-22T08:49:33Z</time>
      </trkpt>
      <trkpt lat="45.98056" lon="4.71585">
        <ele>198</ele>
        <time>2017-05-22T08:49:34Z</time>
      </trkpt>
      <trkpt lat="45.9806" lon="4.71582">
        <ele>198</ele>
        <time>2017-05-22T08:49:35Z</time>
      </trkpt>
      <trkpt lat="45.98064" lon="4.7158">
        <ele>198</ele>
        <time>2017-05-22T08:49:36Z</time>
      </trkpt>
      <trkpt lat="45.98072" lon="4.71575">
        <ele>198</ele>
        <time>2017-05-22T08:49:38Z</time>
      </trkpt>
      <trkpt lat="45.98076" lon="4.71571">
        <ele>198</ele>
        <time>2017-05-22T08:49:39Z</time>
      </trkpt>
      <trkpt lat="45.98082" lon="4.71567">
        <ele>198</ele>
        <time>2017-05-22T08:49:40Z</time>
      </trkpt>
      <trkpt lat="45.98087" lon="4.71561">
        <ele>198</ele>
        <time>2017-05-22T08:49:41Z</time>
      </trkpt>
      <trkpt lat="45.98092" lon="4.71557">
        <ele>198</ele>
        <time>2017-05-22T08:49:42Z</time>
      </trkpt>
      <trkpt lat="45.98097" lon="4.71554">
        <ele>197</ele>
        <time>2017-05-22T08:49:43Z</time>
      </trkpt>
      <trkpt lat="45.98101" lon="4.71551">
        <ele>197</ele>
        <time>2017-05-22T08:49:44Z</time>
      </trkpt>
      <trkpt lat="45.98106" lon="4.71549">
        <ele>197</ele>
        <time>2017-05-22T08:49:45Z</time>
      </trkpt>
      <trkpt lat="45.98112" lon="4.71545">
        <ele>197</ele>
        <time>2017-05-22T08:49:46Z</time>
      </trkpt>
      <trkpt lat="45.98116" lon="4.71542">
        <ele>197</ele>
        <time>2017-05-22T08:49:47Z</time>
      </trkpt>
      <trkpt lat="45.98121" lon="4.71539">
        <ele>197</ele>
        <time>2017-05-22T08:49:48Z</time>
      </trkpt>
      <trkpt lat="45.98125" lon="4.71536">
        <ele>197</ele>
        <time>2017-05-22T08:49:49Z</time>
      </trkpt>
      <trkpt lat="45.98131" lon="4.71531">
        <ele>197</ele>
        <time>2017-05-22T08:49:51Z</time>
      </trkpt>
      <trkpt lat="45.98135" lon="4.71529">
        <ele>197</ele>
        <time>2017-05-22T08:49:52Z</time>
      </trkpt>
      <trkpt lat="45.9814" lon="4.71525">
        <ele>197</ele>
        <time>2017-05-22T08:49:54Z</time>
      </trkpt>
      <trkpt lat="45.98143" lon="4.71524">
        <ele>197</ele>
        <time>2017-05-22T08:49:55Z</time>
      </trkpt>
      <trkpt lat="45.98151" lon="4.71523">
        <ele>197</ele>
        <time>2017-05-22T08:49:57Z</time>
      </trkpt>
      <trkpt lat="45.98155" lon="4.71522">
        <ele>197</ele>
        <time>2017-05-22T08:49:58Z</time>
      </trkpt>
      <trkpt lat="45.9816" lon="4.7152">
        <ele>197</ele>
        <time>2017-05-22T08:49:59Z</time>
      </trkpt>
      <trkpt lat="45.98167" lon="4.71519">
        <ele>197</ele>
        <time>2017-05-22T08:50:00Z</time>
      </trkpt>
      <trkpt lat="45.98173" lon="4.71517">
        <ele>197</ele>
        <time>2017-05-22T08:50:01Z</time>
      </trkpt>
      <trkpt lat="45.98179" lon="4.71516">
        <ele>197</ele>
        <time>2017-05-22T08:50:02Z</time>
      </trkpt>
      <trkpt lat="45.98184" lon="4.71516">
        <ele>197</ele>
        <time>2017-05-22T08:50:03Z</time>
      </trkpt>
      <trkpt lat="45.9819" lon="4.71516">
        <ele>197</ele>
        <time>2017-05-22T08:50:04Z</time>
      </trkpt>
      <trkpt lat="45.98196" lon="4.71516">
        <ele>197</ele>
        <time>2017-05-22T08:50:05Z</time>
      </trkpt>
      <trkpt lat="45.98201" lon="4.71517">
        <ele>197</ele>
        <time>2017-05-22T08:50:06Z</time>
      </trkpt>
      <trkpt lat="45.98206" lon="4.71518">
        <ele>197</ele>
        <time>2017-05-22T08:50:07Z</time>
      </trkpt>
      <trkpt lat="45.98211" lon="4.7152">
        <ele>196</ele>
        <time>2017-05-22T08:50:08Z</time>
      </trkpt>
      <trkpt lat="45.98216" lon="4.71523">
        <ele>196</ele>
        <time>2017-05-22T08:50:09Z</time>
      </trkpt>
      <trkpt lat="45.98221" lon="4.71526">
        <ele>196</ele>
        <time>2017-05-22T08:50:10Z</time>
      </trkpt>
      <trkpt lat="45.98225" lon="4.71529">
        <ele>196</ele>
        <time>2017-05-22T08:50:11Z</time>
      </trkpt>
      <trkpt lat="45.9823" lon="4.71531">
        <ele>196</ele>
        <time>2017-05-22T08:50:12Z</time>
      </trkpt>
      <trkpt lat="45.98234" lon="4.71534">
        <ele>196</ele>
        <time>2017-05-22T08:50:13Z</time>
      </trkpt>
      <trkpt lat="45.9824" lon="4.71537">
        <ele>196</ele>
        <time>2017-05-22T08:50:14Z</time>
      </trkpt>
      <trkpt lat="45.98245" lon="4.7154">
        <ele>196</ele>
        <time>2017-05-22T08:50:15Z</time>
      </trkpt>
      <trkpt lat="45.98251" lon="4.71546">
        <ele>197</ele>
        <time>2017-05-22T08:50:16Z</time>
      </trkpt>
      <trkpt lat="45.98257" lon="4.71548">
        <ele>197</ele>
        <time>2017-05-22T08:50:17Z</time>
      </trkpt>
      <trkpt lat="45.98263" lon="4.71551">
        <ele>197</ele>
        <time>2017-05-22T08:50:18Z</time>
      </trkpt>
      <trkpt lat="45.98268" lon="4.71553">
        <ele>197</ele>
        <time>2017-05-22T08:50:19Z</time>
      </trkpt>
      <trkpt lat="45.98273" lon="4.71557">
        <ele>198</ele>
        <time>2017-05-22T08:50:20Z</time>
      </trkpt>
      <trkpt lat="45.98278" lon="4.7156">
        <ele>198</ele>
        <time>2017-05-22T08:50:21Z</time>
      </trkpt>
      <trkpt lat="45.98283" lon="4.71563">
        <ele>198</ele>
        <time>2017-05-22T08:50:22Z</time>
      </trkpt>
      <trkpt lat="45.98288" lon="4.71566">
        <ele>198</ele>
        <time>2017-05-22T08:50:23Z</time>
      </trkpt>
      <trkpt lat="45.98294" lon="4.71568">
        <ele>198</ele>
        <time>2017-05-22T08:50:24Z</time>
      </trkpt>
      <trkpt lat="45.983" lon="4.71572">
        <ele>198</ele>
        <time>2017-05-22T08:50:25Z</time>
      </trkpt>
      <trkpt lat="45.98306" lon="4.71575">
        <ele>198</ele>
        <time>2017-05-22T08:50:26Z</time>
      </trkpt>
      <trkpt lat="45.98311" lon="4.71579">
        <ele>198</ele>
        <time>2017-05-22T08:50:27Z</time>
      </trkpt>
      <trkpt lat="45.98316" lon="4.71581">
        <ele>198</ele>
        <time>2017-05-22T08:50:28Z</time>
      </trkpt>
      <trkpt lat="45.98321" lon="4.71585">
        <ele>198</ele>
        <time>2017-05-22T08:50:29Z</time>
      </trkpt>
      <trkpt lat="45.98326" lon="4.71588">
        <ele>199</ele>
        <time>2017-05-22T08:50:30Z</time>
      </trkpt>
      <trkpt lat="45.98331" lon="4.71592">
        <ele>199</ele>
        <time>2017-05-22T08:50:31Z</time>
      </trkpt>
      <trkpt lat="45.98336" lon="4.71595">
        <ele>199</ele>
        <time>2017-05-22T08:50:32Z</time>
      </trkpt>
      <trkpt lat="45.98341" lon="4.71599">
        <ele>198</ele>
        <time>2017-05-22T08:50:33Z</time>
      </trkpt>
      <trkpt lat="45.98346" lon="4.71602">
        <ele>198</ele>
        <time>2017-05-22T08:50:34Z</time>
      </trkpt>
      <trkpt lat="45.98351" lon="4.71606">
        <ele>198</ele>
        <time>2017-05-22T08:50:35Z</time>
      </trkpt>
      <trkpt lat="45.98357" lon="4.71608">
        <ele>198</ele>
        <time>2017-05-22T08:50:36Z</time>
      </trkpt>
      <trkpt lat="45.98362" lon="4.71611">
        <ele>198</ele>
        <time>2017-05-22T08:50:37Z</time>
      </trkpt>
      <trkpt lat="45.98368" lon="4.71612">
        <ele>198</ele>
        <time>2017-05-22T08:50:38Z</time>
      </trkpt>
      <trkpt lat="45.98372" lon="4.71611">
        <ele>198</ele>
        <time>2017-05-22T08:50:39Z</time>
      </trkpt>
      <trkpt lat="45.98377" lon="4.71609">
        <ele>198</ele>
        <time>2017-05-22T08:50:40Z</time>
      </trkpt>
      <trkpt lat="45.98382" lon="4.71607">
        <ele>198</ele>
        <time>2017-05-22T08:50:41Z</time>
      </trkpt>
      <trkpt lat="45.98387" lon="4.71603">
        <ele>198</ele>
        <time>2017-05-22T08:50:42Z</time>
      </trkpt>
      <trkpt lat="45.98393" lon="4.71599">
        <ele>198</ele>
        <time>2017-05-22T08:50:43Z</time>
      </trkpt>
      <trkpt lat="45.98399" lon="4.71594">
        <ele>197</ele>
        <time>2017-05-22T08:50:44Z</time>
      </trkpt>
      <trkpt lat="45.98404" lon="4.71589">
        <ele>197</ele>
        <time>2017-05-22T08:50:45Z</time>
      </trkpt>
      <trkpt lat="45.98408" lon="4.71584">
        <ele>197</ele>
        <time>2017-05-22T08:50:46Z</time>
      </trkpt>
      <trkpt lat="45.98413" lon="4.71578">
        <ele>197</ele>
        <time>2017-05-22T08:50:47Z</time>
      </trkpt>
      <trkpt lat="45.98418" lon="4.71572">
        <ele>197</ele>
        <time>2017-05-22T08:50:48Z</time>
      </trkpt>
      <trkpt lat="45.98423" lon="4.71566">
        <ele>197</ele>
        <time>2017-05-22T08:50:49Z</time>
      </trkpt>
      <trkpt lat="45.98428" lon="4.7156">
        <ele>197</ele>
        <time>2017-05-22T08:50:50Z</time>
      </trkpt>
      <trkpt lat="45.98432" lon="4.71555">
        <ele>197</ele>
        <time>2017-05-22T08:50:51Z</time>
      </trkpt>
      <trkpt lat="45.98437" lon="4.71551">
        <ele>197</ele>
        <time>2017-05-22T08:50:52Z</time>
      </trkpt>
      <trkpt lat="45.98443" lon="4.71549">
        <ele>197</ele>
        <time>2017-05-22T08:50:53Z</time>
      </trkpt>
      <trkpt lat="45.98449" lon="4.71546">
        <ele>197</ele>
        <time>2017-05-22T08:50:54Z</time>
      </trkpt>
      <trkpt lat="45.98454" lon="4.71544">
        <ele>197</ele>
        <time>2017-05-22T08:50:55Z</time>
      </trkpt>
      <trkpt lat="45.98459" lon="4.71543">
        <ele>197</ele>
        <time>2017-05-22T08:50:56Z</time>
      </trkpt>
      <trkpt lat="45.98464" lon="4.71542">
        <ele>197</ele>
        <time>2017-05-22T08:50:57Z</time>
      </trkpt>
      <trkpt lat="45.9847" lon="4.71539">
        <ele>197</ele>
        <time>2017-05-22T08:50:58Z</time>
      </trkpt>
      <trkpt lat="45.98475" lon="4.71538">
        <ele>196</ele>
        <time>2017-05-22T08:50:59Z</time>
      </trkpt>
      <trkpt lat="45.98481" lon="4.71537">
        <ele>196</ele>
        <time>2017-05-22T08:51:00Z</time>
      </trkpt>
      <trkpt lat="45.98486" lon="4.71536">
        <ele>196</ele>
        <time>2017-05-22T08:51:01Z</time>
      </trkpt>
      <trkpt lat="45.9849" lon="4.71534">
        <ele>196</ele>
        <time>2017-05-22T08:51:02Z</time>
      </trkpt>
      <trkpt lat="45.98498" lon="4.71532">
        <ele>196</ele>
        <time>2017-05-22T08:51:03Z</time>
      </trkpt>
      <trkpt lat="45.98504" lon="4.7153">
        <ele>195</ele>
        <time>2017-05-22T08:51:04Z</time>
      </trkpt>
      <trkpt lat="45.98511" lon="4.71528">
        <ele>195</ele>
        <time>2017-05-22T08:51:05Z</time>
      </trkpt>
      <trkpt lat="45.98518" lon="4.71526">
        <ele>194</ele>
        <time>2017-05-22T08:51:06Z</time>
      </trkpt>
      <trkpt lat="45.98524" lon="4.71524">
        <ele>194</ele>
        <time>2017-05-22T08:51:07Z</time>
      </trkpt>
      <trkpt lat="45.98531" lon="4.71522">
        <ele>194</ele>
        <time>2017-05-22T08:51:08Z</time>
      </trkpt>
      <trkpt lat="45.98538" lon="4.71521">
        <ele>194</ele>
        <time>2017-05-22T08:51:09Z</time>
      </trkpt>
      <trkpt lat="45.98545" lon="4.71519">
        <ele>194</ele>
        <time>2017-05-22T08:51:10Z</time>
      </trkpt>
      <trkpt lat="45.98552" lon="4.71518">
        <ele>194</ele>
        <time>2017-05-22T08:51:11Z</time>
      </trkpt>
      <trkpt lat="45.98558" lon="4.71517">
        <ele>194</ele>
        <time>2017-05-22T08:51:12Z</time>
      </trkpt>
      <trkpt lat="45.98565" lon="4.71516">
        <ele>193</ele>
        <time>2017-05-22T08:51:13Z</time>
      </trkpt>
      <trkpt lat="45.98574" lon="4.71511">
        <ele>193</ele>
        <time>2017-05-22T08:51:14Z</time>
      </trkpt>
      <trkpt lat="45.9858" lon="4.71511">
        <ele>193</ele>
        <time>2017-05-22T08:51:15Z</time>
      </trkpt>
      <trkpt lat="45.98588" lon="4.71512">
        <ele>192</ele>
        <time>2017-05-22T08:51:16Z</time>
      </trkpt>
      <trkpt lat="45.98595" lon="4.71511">
        <ele>192</ele>
        <time>2017-05-22T08:51:17Z</time>
      </trkpt>
      <trkpt lat="45.98602" lon="4.7151">
        <ele>192</ele>
        <time>2017-05-22T08:51:18Z</time>
      </trkpt>
      <trkpt lat="45.98609" lon="4.71509">
        <ele>191</ele>
        <time>2017-05-22T08:51:19Z</time>
      </trkpt>
      <trkpt lat="45.98616" lon="4.71509">
        <ele>191</ele>
        <time>2017-05-22T08:51:20Z</time>
      </trkpt>
      <trkpt lat="45.98623" lon="4.71508">
        <ele>191</ele>
        <time>2017-05-22T08:51:21Z</time>
      </trkpt>
      <trkpt lat="45.98631" lon="4.71508">
        <ele>191</ele>
        <time>2017-05-22T08:51:22Z</time>
      </trkpt>
      <trkpt lat="45.98635" lon="4.71502">
        <ele>191</ele>
        <time>2017-05-22T08:51:23Z</time>
      </trkpt>
      <trkpt lat="45.98643" lon="4.715">
        <ele>190</ele>
        <time>2017-05-22T08:51:24Z</time>
      </trkpt>
      <trkpt lat="45.98649" lon="4.71498">
        <ele>190</ele>
        <time>2017-05-22T08:51:25Z</time>
      </trkpt>
      <trkpt lat="45.98655" lon="4.71498">
        <ele>190</ele>
        <time>2017-05-22T08:51:26Z</time>
      </trkpt>
      <trkpt lat="45.9866" lon="4.71497">
        <ele>189</ele>
        <time>2017-05-22T08:51:27Z</time>
      </trkpt>
      <trkpt lat="45.98666" lon="4.715">
        <ele>189</ele>
        <time>2017-05-22T08:51:28Z</time>
      </trkpt>
      <trkpt lat="45.98672" lon="4.715">
        <ele>189</ele>
        <time>2017-05-22T08:51:29Z</time>
      </trkpt>
      <trkpt lat="45.98677" lon="4.715">
        <ele>188</ele>
        <time>2017-05-22T08:51:30Z</time>
      </trkpt>
      <trkpt lat="45.98686" lon="4.71501">
        <ele>188</ele>
        <time>2017-05-22T08:51:31Z</time>
      </trkpt>
      <trkpt lat="45.98695" lon="4.71502">
        <ele>188</ele>
        <time>2017-05-22T08:51:32Z</time>
      </trkpt>
      <trkpt lat="45.98702" lon="4.71503">
        <ele>187</ele>
        <time>2017-05-22T08:51:33Z</time>
      </trkpt>
      <trkpt lat="45.98709" lon="4.71504">
        <ele>187</ele>
        <time>2017-05-22T08:51:34Z</time>
      </trkpt>
      <trkpt lat="45.98716" lon="4.71504">
        <ele>187</ele>
        <time>2017-05-22T08:51:35Z</time>
      </trkpt>
      <trkpt lat="45.98723" lon="4.71504">
        <ele>186</ele>
        <time>2017-05-22T08:51:36Z</time>
      </trkpt>
      <trkpt lat="45.98731" lon="4.71505">
        <ele>186</ele>
        <time>2017-05-22T08:51:37Z</time>
      </trkpt>
      <trkpt lat="45.98737" lon="4.71505">
        <ele>185</ele>
        <time>2017-05-22T08:51:38Z</time>
      </trkpt>
      <trkpt lat="45.98743" lon="4.71506">
        <ele>185</ele>
        <time>2017-05-22T08:51:39Z</time>
      </trkpt>
      <trkpt lat="45.98748" lon="4.71507">
        <ele>185</ele>
        <time>2017-05-22T08:51:40Z</time>
      </trkpt>
      <trkpt lat="45.98756" lon="4.71508">
        <ele>184</ele>
        <time>2017-05-22T08:51:43Z</time>
      </trkpt>
      <trkpt lat="45.98759" lon="4.71509">
        <ele>184</ele>
        <time>2017-05-22T08:51:44Z</time>
      </trkpt>
      <trkpt lat="45.98765" lon="4.71509">
        <ele>184</ele>
        <time>2017-05-22T08:51:46Z</time>
      </trkpt>
      <trkpt lat="45.98768" lon="4.71509">
        <ele>184</ele>
        <time>2017-05-22T08:51:47Z</time>
      </trkpt>
      <trkpt lat="45.98774" lon="4.71511">
        <ele>184</ele>
        <time>2017-05-22T08:51:48Z</time>
      </trkpt>
      <trkpt lat="45.98779" lon="4.71512">
        <ele>184</ele>
        <time>2017-05-22T08:51:49Z</time>
      </trkpt>
      <trkpt lat="45.98784" lon="4.71512">
        <ele>185</ele>
        <time>2017-05-22T08:51:50Z</time>
      </trkpt>
      <trkpt lat="45.98788" lon="4.71512">
        <ele>185</ele>
        <time>2017-05-22T08:51:51Z</time>
      </trkpt>
      <trkpt lat="45.98797" lon="4.71513">
        <ele>185</ele>
        <time>2017-05-22T08:51:53Z</time>
      </trkpt>
      <trkpt lat="45.988" lon="4.71514">
        <ele>185</ele>
        <time>2017-05-22T08:51:54Z</time>
      </trkpt>
      <trkpt lat="45.98806" lon="4.71515">
        <ele>184</ele>
        <time>2017-05-22T08:51:56Z</time>
      </trkpt>
      <trkpt lat="45.9881" lon="4.71516">
        <ele>184</ele>
        <time>2017-05-22T08:51:57Z</time>
      </trkpt>
      <trkpt lat="45.98819" lon="4.71518">
        <ele>184</ele>
        <time>2017-05-22T08:51:59Z</time>
      </trkpt>
      <trkpt lat="45.98822" lon="4.71518">
        <ele>184</ele>
        <time>2017-05-22T08:52:00Z</time>
      </trkpt>
      <trkpt lat="45.98828" lon="4.71518">
        <ele>184</ele>
        <time>2017-05-22T08:52:01Z</time>
      </trkpt>
      <trkpt lat="45.98832" lon="4.71519">
        <ele>184</ele>
        <time>2017-05-22T08:52:02Z</time>
      </trkpt>
      <trkpt lat="45.98839" lon="4.7152">
        <ele>185</ele>
        <time>2017-05-22T08:52:04Z</time>
      </trkpt>
      <trkpt lat="45.98843" lon="4.7152">
        <ele>185</ele>
        <time>2017-05-22T08:52:05Z</time>
      </trkpt>
      <trkpt lat="45.98851" lon="4.71519">
        <ele>185</ele>
        <time>2017-05-22T08:52:07Z</time>
      </trkpt>
      <trkpt lat="45.98854" lon="4.71517">
        <ele>185</ele>
        <time>2017-05-22T08:52:08Z</time>
      </trkpt>
      <trkpt lat="45.9886" lon="4.71515">
        <ele>185</ele>
        <time>2017-05-22T08:52:10Z</time>
      </trkpt>
      <trkpt lat="45.98864" lon="4.71515">
        <ele>185</ele>
        <time>2017-05-22T08:52:11Z</time>
      </trkpt>
      <trkpt lat="45.98872" lon="4.71513">
        <ele>185</ele>
        <time>2017-05-22T08:52:13Z</time>
      </trkpt>
      <trkpt lat="45.98875" lon="4.71515">
        <ele>185</ele>
        <time>2017-05-22T08:52:14Z</time>
      </trkpt>
      <trkpt lat="45.98881" lon="4.7152">
        <ele>185</ele>
        <time>2017-05-22T08:52:16Z</time>
      </trkpt>
      <trkpt lat="45.98888" lon="4.71523">
        <ele>185</ele>
        <time>2017-05-22T08:52:17Z</time>
      </trkpt>
      <trkpt lat="45.98893" lon="4.71524">
        <ele>185</ele>
        <time>2017-05-22T08:52:18Z</time>
      </trkpt>
      <trkpt lat="45.98898" lon="4.71527">
        <ele>185</ele>
        <time>2017-05-22T08:52:19Z</time>
      </trkpt>
      <trkpt lat="45.98906" lon="4.71528">
        <ele>185</ele>
        <time>2017-05-22T08:52:21Z</time>
      </trkpt>
      <trkpt lat="45.98913" lon="4.71527">
        <ele>185</ele>
        <time>2017-05-22T08:52:22Z</time>
      </trkpt>
      <trkpt lat="45.98921" lon="4.71527">
        <ele>186</ele>
        <time>2017-05-22T08:52:24Z</time>
      </trkpt>
      <trkpt lat="45.98923" lon="4.71527">
        <ele>186</ele>
        <time>2017-05-22T08:52:25Z</time>
      </trkpt>
      <trkpt lat="45.98926" lon="4.71523">
        <ele>186</ele>
        <time>2017-05-22T08:52:33Z</time>
      </trkpt>
      <trkpt lat="45.98927" lon="4.71523">
        <ele>186</ele>
        <time>2017-05-22T08:52:34Z</time>
      </trkpt>
      <trkpt lat="45.98928" lon="4.71523">
        <ele>186</ele>
        <time>2017-05-22T08:52:35Z</time>
      </trkpt>
      <trkpt lat="45.98931" lon="4.71524">
        <ele>186</ele>
        <time>2017-05-22T08:52:36Z</time>
      </trkpt>
      <trkpt lat="45.98937" lon="4.71524">
        <ele>186</ele>
        <time>2017-05-22T08:52:38Z</time>
      </trkpt>
      <trkpt lat="45.9894" lon="4.71524">
        <ele>186</ele>
        <time>2017-05-22T08:52:39Z</time>
      </trkpt>
      <trkpt lat="45.98948" lon="4.71523">
        <ele>186</ele>
        <time>2017-05-22T08:52:41Z</time>
      </trkpt>
      <trkpt lat="45.98951" lon="4.71523">
        <ele>186</ele>
        <time>2017-05-22T08:52:42Z</time>
      </trkpt>
      <trkpt lat="45.98959" lon="4.71523">
        <ele>186</ele>
        <time>2017-05-22T08:52:44Z</time>
      </trkpt>
      <trkpt lat="45.98964" lon="4.71524">
        <ele>186</ele>
        <time>2017-05-22T08:52:45Z</time>
      </trkpt>
      <trkpt lat="45.98968" lon="4.71525">
        <ele>186</ele>
        <time>2017-05-22T08:52:46Z</time>
      </trkpt>
      <trkpt lat="45.98973" lon="4.71525">
        <ele>186</ele>
        <time>2017-05-22T08:52:47Z</time>
      </trkpt>
      <trkpt lat="45.98976" lon="4.71525">
        <ele>186</ele>
        <time>2017-05-22T08:52:48Z</time>
      </trkpt>
      <trkpt lat="45.98982" lon="4.71525">
        <ele>186</ele>
        <time>2017-05-22T08:52:49Z</time>
      </trkpt>
      <trkpt lat="45.98987" lon="4.71523">
        <ele>186</ele>
        <time>2017-05-22T08:52:50Z</time>
      </trkpt>
      <trkpt lat="45.98992" lon="4.71522">
        <ele>186</ele>
        <time>2017-05-22T08:52:51Z</time>
      </trkpt>
      <trkpt lat="45.99" lon="4.7152">
        <ele>188</ele>
        <time>2017-05-22T08:52:53Z</time>
      </trkpt>
      <trkpt lat="45.99004" lon="4.71518">
        <ele>188</ele>
        <time>2017-05-22T08:52:54Z</time>
      </trkpt>
      <trkpt lat="45.99012" lon="4.71515">
        <ele>188</ele>
        <time>2017-05-22T08:52:56Z</time>
      </trkpt>
      <trkpt lat="45.99015" lon="4.71515">
        <ele>188</ele>
        <time>2017-05-22T08:52:57Z</time>
      </trkpt>
      <trkpt lat="45.99023" lon="4.71515">
        <ele>188</ele>
        <time>2017-05-22T08:53:00Z</time>
      </trkpt>
      <trkpt lat="45.99025" lon="4.71514">
        <ele>188</ele>
        <time>2017-05-22T08:53:01Z</time>
      </trkpt>
      <trkpt lat="45.99032" lon="4.71515">
        <ele>188</ele>
        <time>2017-05-22T08:53:03Z</time>
      </trkpt>
      <trkpt lat="45.99036" lon="4.71514">
        <ele>188</ele>
        <time>2017-05-22T08:53:04Z</time>
      </trkpt>
      <trkpt lat="45.99043" lon="4.71514">
        <ele>189</ele>
        <time>2017-05-22T08:53:06Z</time>
      </trkpt>
      <trkpt lat="45.99047" lon="4.71514">
        <ele>189</ele>
        <time>2017-05-22T08:53:07Z</time>
      </trkpt>
      <trkpt lat="45.99054" lon="4.71515">
        <ele>189</ele>
        <time>2017-05-22T08:53:09Z</time>
      </trkpt>
      <trkpt lat="45.99057" lon="4.71516">
        <ele>189</ele>
        <time>2017-05-22T08:53:10Z</time>
      </trkpt>
      <trkpt lat="45.99063" lon="4.71515">
        <ele>189</ele>
        <time>2017-05-22T08:53:12Z</time>
      </trkpt>
      <trkpt lat="45.99066" lon="4.71515">
        <ele>189</ele>
        <time>2017-05-22T08:53:13Z</time>
      </trkpt>
      <trkpt lat="45.99074" lon="4.71515">
        <ele>189</ele>
        <time>2017-05-22T08:53:15Z</time>
      </trkpt>
      <trkpt lat="45.99078" lon="4.71514">
        <ele>189</ele>
        <time>2017-05-22T08:53:16Z</time>
      </trkpt>
      <trkpt lat="45.99087" lon="4.71515">
        <ele>191</ele>
        <time>2017-05-22T08:53:18Z</time>
      </trkpt>
      <trkpt lat="45.99091" lon="4.71514">
        <ele>191</ele>
        <time>2017-05-22T08:53:19Z</time>
      </trkpt>
      <trkpt lat="45.99098" lon="4.71513">
        <ele>191</ele>
        <time>2017-05-22T08:53:22Z</time>
      </trkpt>
      <trkpt lat="45.99101" lon="4.71512">
        <ele>191</ele>
        <time>2017-05-22T08:53:23Z</time>
      </trkpt>
      <trkpt lat="45.99108" lon="4.71509">
        <ele>191</ele>
        <time>2017-05-22T08:53:25Z</time>
      </trkpt>
      <trkpt lat="45.99112" lon="4.71506">
        <ele>191</ele>
        <time>2017-05-22T08:53:26Z</time>
      </trkpt>
      <trkpt lat="45.99119" lon="4.715">
        <ele>191</ele>
        <time>2017-05-22T08:53:28Z</time>
      </trkpt>
      <trkpt lat="45.99123" lon="4.71496">
        <ele>191</ele>
        <time>2017-05-22T08:53:29Z</time>
      </trkpt>
      <trkpt lat="45.9913" lon="4.71496">
        <ele>191</ele>
        <time>2017-05-22T08:53:31Z</time>
      </trkpt>
      <trkpt lat="45.99134" lon="4.71496">
        <ele>191</ele>
        <time>2017-05-22T08:53:32Z</time>
      </trkpt>
      <trkpt lat="45.99141" lon="4.71497">
        <ele>192</ele>
        <time>2017-05-22T08:53:34Z</time>
      </trkpt>
      <trkpt lat="45.99144" lon="4.71497">
        <ele>192</ele>
        <time>2017-05-22T08:53:35Z</time>
      </trkpt>
      <trkpt lat="45.99149" lon="4.71502">
        <ele>192</ele>
        <time>2017-05-22T08:53:36Z</time>
      </trkpt>
      <trkpt lat="45.99155" lon="4.71517">
        <ele>192</ele>
        <time>2017-05-22T08:53:37Z</time>
      </trkpt>
      <trkpt lat="45.99161" lon="4.71519">
        <ele>192</ele>
        <time>2017-05-22T08:53:39Z</time>
      </trkpt>
      <trkpt lat="45.99165" lon="4.71519">
        <ele>192</ele>
        <time>2017-05-22T08:53:40Z</time>
      </trkpt>
      <trkpt lat="45.99173" lon="4.71518">
        <ele>194</ele>
        <time>2017-05-22T08:53:43Z</time>
      </trkpt>
      <trkpt lat="45.99174" lon="4.71516">
        <ele>194</ele>
        <time>2017-05-22T08:53:44Z</time>
      </trkpt>
      <trkpt lat="45.99177" lon="4.71515">
        <ele>194</ele>
        <time>2017-05-22T08:53:45Z</time>
      </trkpt>
      <trkpt lat="45.99183" lon="4.7151">
        <ele>194</ele>
        <time>2017-05-22T08:53:46Z</time>
      </trkpt>
      <trkpt lat="45.9919" lon="4.71508">
        <ele>194</ele>
        <time>2017-05-22T08:53:48Z</time>
      </trkpt>
      <trkpt lat="45.99194" lon="4.71508">
        <ele>195</ele>
        <time>2017-05-22T08:53:49Z</time>
      </trkpt>
      <trkpt lat="45.99201" lon="4.7151">
        <ele>195</ele>
        <time>2017-05-22T08:53:51Z</time>
      </trkpt>
      <trkpt lat="45.99206" lon="4.7151">
        <ele>195</ele>
        <time>2017-05-22T08:53:52Z</time>
      </trkpt>
      <trkpt lat="45.99214" lon="4.71511">
        <ele>195</ele>
        <time>2017-05-22T08:53:55Z</time>
      </trkpt>
      <trkpt lat="45.99218" lon="4.71511">
        <ele>195</ele>
        <time>2017-05-22T08:53:56Z</time>
      </trkpt>
      <trkpt lat="45.99227" lon="4.71513">
        <ele>195</ele>
        <time>2017-05-22T08:53:58Z</time>
      </trkpt>
      <trkpt lat="45.99229" lon="4.71512">
        <ele>196</ele>
        <time>2017-05-22T08:53:59Z</time>
      </trkpt>
      <trkpt lat="45.99235" lon="4.71512">
        <ele>196</ele>
        <time>2017-05-22T08:54:01Z</time>
      </trkpt>
      <trkpt lat="45.99238" lon="4.71512">
        <ele>196</ele>
        <time>2017-05-22T08:54:02Z</time>
      </trkpt>
      <trkpt lat="45.99245" lon="4.71514">
        <ele>196</ele>
        <time>2017-05-22T08:54:04Z</time>
      </trkpt>
      <trkpt lat="45.99248" lon="4.71514">
        <ele>196</ele>
        <time>2017-05-22T08:54:05Z</time>
      </trkpt>
      <trkpt lat="45.99253" lon="4.7152">
        <ele>198</ele>
        <time>2017-05-22T08:54:06Z</time>
      </trkpt>
      <trkpt lat="45.99256" lon="4.71523">
        <ele>198</ele>
        <time>2017-05-22T08:54:07Z</time>
      </trkpt>
      <trkpt lat="45.99264" lon="4.71525">
        <ele>198</ele>
        <time>2017-05-22T08:54:09Z</time>
      </trkpt>
      <trkpt lat="45.99269" lon="4.71525">
        <ele>198</ele>
        <time>2017-05-22T08:54:10Z</time>
      </trkpt>
      <trkpt lat="45.99276" lon="4.71523">
        <ele>199</ele>
        <time>2017-05-22T08:54:11Z</time>
      </trkpt>
      <trkpt lat="45.99283" lon="4.71521">
        <ele>199</ele>
        <time>2017-05-22T08:54:12Z</time>
      </trkpt>
      <trkpt lat="45.99288" lon="4.71521">
        <ele>199</ele>
        <time>2017-05-22T08:54:13Z</time>
      </trkpt>
      <trkpt lat="45.99293" lon="4.7152">
        <ele>199</ele>
        <time>2017-05-22T08:54:14Z</time>
      </trkpt>
      <trkpt lat="45.99298" lon="4.7152">
        <ele>199</ele>
        <time>2017-05-22T08:54:15Z</time>
      </trkpt>
      <trkpt lat="45.99303" lon="4.71519">
        <ele>199</ele>
        <time>2017-05-22T08:54:16Z</time>
      </trkpt>
      <trkpt lat="45.99312" lon="4.7152">
        <ele>199</ele>
        <time>2017-05-22T08:54:18Z</time>
      </trkpt>
      <trkpt lat="45.99316" lon="4.7152">
        <ele>200</ele>
        <time>2017-05-22T08:54:19Z</time>
      </trkpt>
      <trkpt lat="45.99323" lon="4.7152">
        <ele>200</ele>
        <time>2017-05-22T08:54:21Z</time>
      </trkpt>
      <trkpt lat="45.99327" lon="4.7152">
        <ele>200</ele>
        <time>2017-05-22T08:54:22Z</time>
      </trkpt>
      <trkpt lat="45.99334" lon="4.7152">
        <ele>200</ele>
        <time>2017-05-22T08:54:24Z</time>
      </trkpt>
      <trkpt lat="45.99337" lon="4.71521">
        <ele>200</ele>
        <time>2017-05-22T08:54:25Z</time>
      </trkpt>
      <trkpt lat="45.99344" lon="4.71521">
        <ele>200</ele>
        <time>2017-05-22T08:54:27Z</time>
      </trkpt>
      <trkpt lat="45.99347" lon="4.71521">
        <ele>200</ele>
        <time>2017-05-22T08:54:28Z</time>
      </trkpt>
      <trkpt lat="45.99351" lon="4.71522">
        <ele>200</ele>
        <time>2017-05-22T08:54:29Z</time>
      </trkpt>
      <trkpt lat="45.99356" lon="4.71521">
        <ele>200</ele>
        <time>2017-05-22T08:54:30Z</time>
      </trkpt>
      <trkpt lat="45.99361" lon="4.7152">
        <ele>200</ele>
        <time>2017-05-22T08:54:31Z</time>
      </trkpt>
      <trkpt lat="45.99366" lon="4.71519">
        <ele>200</ele>
        <time>2017-05-22T08:54:32Z</time>
      </trkpt>
      <trkpt lat="45.99371" lon="4.71518">
        <ele>200</ele>
        <time>2017-05-22T08:54:33Z</time>
      </trkpt>
      <trkpt lat="45.99375" lon="4.71518">
        <ele>200</ele>
        <time>2017-05-22T08:54:34Z</time>
      </trkpt>
      <trkpt lat="45.99382" lon="4.71517">
        <ele>200</ele>
        <time>2017-05-22T08:54:36Z</time>
      </trkpt>
      <trkpt lat="45.99386" lon="4.71516">
        <ele>200</ele>
        <time>2017-05-22T08:54:37Z</time>
      </trkpt>
      <trkpt lat="45.99392" lon="4.71516">
        <ele>200</ele>
        <time>2017-05-22T08:54:39Z</time>
      </trkpt>
      <trkpt lat="45.99395" lon="4.71517">
        <ele>200</ele>
        <time>2017-05-22T08:54:40Z</time>
      </trkpt>
      <trkpt lat="45.99403" lon="4.71517">
        <ele>200</ele>
        <time>2017-05-22T08:54:42Z</time>
      </trkpt>
      <trkpt lat="45.99408" lon="4.71517">
        <ele>200</ele>
        <time>2017-05-22T08:54:43Z</time>
      </trkpt>
      <trkpt lat="45.99415" lon="4.71517">
        <ele>200</ele>
        <time>2017-05-22T08:54:45Z</time>
      </trkpt>
      <trkpt lat="45.99418" lon="4.71517">
        <ele>199</ele>
        <time>2017-05-22T08:54:46Z</time>
      </trkpt>
      <trkpt lat="45.99427" lon="4.71518">
        <ele>199</ele>
        <time>2017-05-22T08:54:48Z</time>
      </trkpt>
      <trkpt lat="45.99432" lon="4.71518">
        <ele>199</ele>
        <time>2017-05-22T08:54:49Z</time>
      </trkpt>
      <trkpt lat="45.99438" lon="4.71518">
        <ele>199</ele>
        <time>2017-05-22T08:54:50Z</time>
      </trkpt>
      <trkpt lat="45.99443" lon="4.71518">
        <ele>199</ele>
        <time>2017-05-22T08:54:51Z</time>
      </trkpt>
      <trkpt lat="45.99449" lon="4.71517">
        <ele>199</ele>
        <time>2017-05-22T08:54:52Z</time>
      </trkpt>
      <trkpt lat="45.99454" lon="4.71517">
        <ele>199</ele>
        <time>2017-05-22T08:54:53Z</time>
      </trkpt>
      <trkpt lat="45.99462" lon="4.71517">
        <ele>199</ele>
        <time>2017-05-22T08:54:55Z</time>
      </trkpt>
      <trkpt lat="45.99467" lon="4.71517">
        <ele>199</ele>
        <time>2017-05-22T08:54:56Z</time>
      </trkpt>
      <trkpt lat="45.99471" lon="4.71517">
        <ele>199</ele>
        <time>2017-05-22T08:54:57Z</time>
      </trkpt>
      <trkpt lat="45.99477" lon="4.71515">
        <ele>199</ele>
        <time>2017-05-22T08:54:58Z</time>
      </trkpt>
      <trkpt lat="45.99485" lon="4.71514">
        <ele>199</ele>
        <time>2017-05-22T08:55:00Z</time>
      </trkpt>
      <trkpt lat="45.99489" lon="4.71514">
        <ele>199</ele>
        <time>2017-05-22T08:55:01Z</time>
      </trkpt>
      <trkpt lat="45.99494" lon="4.71513">
        <ele>199</ele>
        <time>2017-05-22T08:55:02Z</time>
      </trkpt>
      <trkpt lat="45.99499" lon="4.71514">
        <ele>199</ele>
        <time>2017-05-22T08:55:03Z</time>
      </trkpt>
      <trkpt lat="45.99505" lon="4.71515">
        <ele>199</ele>
        <time>2017-05-22T08:55:04Z</time>
      </trkpt>
      <trkpt lat="45.9951" lon="4.71515">
        <ele>199</ele>
        <time>2017-05-22T08:55:05Z</time>
      </trkpt>
      <trkpt lat="45.99515" lon="4.71515">
        <ele>199</ele>
        <time>2017-05-22T08:55:06Z</time>
      </trkpt>
      <trkpt lat="45.99519" lon="4.71515">
        <ele>198</ele>
        <time>2017-05-22T08:55:07Z</time>
      </trkpt>
      <trkpt lat="45.99527" lon="4.71515">
        <ele>198</ele>
        <time>2017-05-22T08:55:09Z</time>
      </trkpt>
      <trkpt lat="45.99533" lon="4.71515">
        <ele>198</ele>
        <time>2017-05-22T08:55:10Z</time>
      </trkpt>
      <trkpt lat="45.99538" lon="4.71515">
        <ele>198</ele>
        <time>2017-05-22T08:55:11Z</time>
      </trkpt>
      <trkpt lat="45.99544" lon="4.71514">
        <ele>198</ele>
        <time>2017-05-22T08:55:12Z</time>
      </trkpt>
      <trkpt lat="45.99549" lon="4.71513">
        <ele>198</ele>
        <time>2017-05-22T08:55:13Z</time>
      </trkpt>
      <trkpt lat="45.99555" lon="4.71513">
        <ele>198</ele>
        <time>2017-05-22T08:55:14Z</time>
      </trkpt>
      <trkpt lat="45.9956" lon="4.71513">
        <ele>198</ele>
        <time>2017-05-22T08:55:15Z</time>
      </trkpt>
      <trkpt lat="45.99566" lon="4.71513">
        <ele>197</ele>
        <time>2017-05-22T08:55:16Z</time>
      </trkpt>
      <trkpt lat="45.99571" lon="4.71513">
        <ele>197</ele>
        <time>2017-05-22T08:55:17Z</time>
      </trkpt>
      <trkpt lat="45.99575" lon="4.71516">
        <ele>197</ele>
        <time>2017-05-22T08:55:18Z</time>
      </trkpt>
      <trkpt lat="45.99579" lon="4.7152">
        <ele>197</ele>
        <time>2017-05-22T08:55:19Z</time>
      </trkpt>
      <trkpt lat="45.99583" lon="4.71525">
        <ele>197</ele>
        <time>2017-05-22T08:55:20Z</time>
      </trkpt>
      <trkpt lat="45.99585" lon="4.71531">
        <ele>197</ele>
        <time>2017-05-22T08:55:21Z</time>
      </trkpt>
      <trkpt lat="45.99587" lon="4.71536">
        <ele>198</ele>
        <time>2017-05-22T08:55:22Z</time>
      </trkpt>
      <trkpt lat="45.99595" lon="4.71542">
        <ele>198</ele>
        <time>2017-05-22T08:55:24Z</time>
      </trkpt>
      <trkpt lat="45.99598" lon="4.71542">
        <ele>198</ele>
        <time>2017-05-22T08:55:25Z</time>
      </trkpt>
      <trkpt lat="45.99605" lon="4.71536">
        <ele>198</ele>
        <time>2017-05-22T08:55:27Z</time>
      </trkpt>
      <trkpt lat="45.99608" lon="4.7153">
        <ele>197</ele>
        <time>2017-05-22T08:55:28Z</time>
      </trkpt>
      <trkpt lat="45.9961" lon="4.71523">
        <ele>197</ele>
        <time>2017-05-22T08:55:29Z</time>
      </trkpt>
      <trkpt lat="45.99611" lon="4.71516">
        <ele>197</ele>
        <time>2017-05-22T08:55:30Z</time>
      </trkpt>
      <trkpt lat="45.99611" lon="4.71508">
        <ele>197</ele>
        <time>2017-05-22T08:55:31Z</time>
      </trkpt>
      <trkpt lat="45.99611" lon="4.71502">
        <ele>197</ele>
        <time>2017-05-22T08:55:32Z</time>
      </trkpt>
      <trkpt lat="45.9961" lon="4.71495">
        <ele>197</ele>
        <time>2017-05-22T08:55:33Z</time>
      </trkpt>
      <trkpt lat="45.99611" lon="4.71488">
        <ele>197</ele>
        <time>2017-05-22T08:55:34Z</time>
      </trkpt>
      <trkpt lat="45.99614" lon="4.71477">
        <ele>197</ele>
        <time>2017-05-22T08:55:36Z</time>
      </trkpt>
      <trkpt lat="45.99616" lon="4.71473">
        <ele>197</ele>
        <time>2017-05-22T08:55:37Z</time>
      </trkpt>
      <trkpt lat="45.99621" lon="4.71462">
        <ele>197</ele>
        <time>2017-05-22T08:55:39Z</time>
      </trkpt>
      <trkpt lat="45.99623" lon="4.71458">
        <ele>197</ele>
        <time>2017-05-22T08:55:40Z</time>
      </trkpt>
      <trkpt lat="45.99626" lon="4.71452">
        <ele>197</ele>
        <time>2017-05-22T08:55:41Z</time>
      </trkpt>
      <trkpt lat="45.99629" lon="4.71446">
        <ele>197</ele>
        <time>2017-05-22T08:55:42Z</time>
      </trkpt>
      <trkpt lat="45.99633" lon="4.71441">
        <ele>197</ele>
        <time>2017-05-22T08:55:43Z</time>
      </trkpt>
      <trkpt lat="45.99636" lon="4.71436">
        <ele>197</ele>
        <time>2017-05-22T08:55:44Z</time>
      </trkpt>
      <trkpt lat="45.99641" lon="4.71426">
        <ele>197</ele>
        <time>2017-05-22T08:55:46Z</time>
      </trkpt>
      <trkpt lat="45.99642" lon="4.71421">
        <ele>197</ele>
        <time>2017-05-22T08:55:47Z</time>
      </trkpt>
      <trkpt lat="45.99647" lon="4.7141">
        <ele>198</ele>
        <time>2017-05-22T08:55:49Z</time>
      </trkpt>
      <trkpt lat="45.9965" lon="4.71405">
        <ele>198</ele>
        <time>2017-05-22T08:55:50Z</time>
      </trkpt>
      <trkpt lat="45.99653" lon="4.71398">
        <ele>198</ele>
        <time>2017-05-22T08:55:51Z</time>
      </trkpt>
      <trkpt lat="45.99656" lon="4.71393">
        <ele>198</ele>
        <time>2017-05-22T08:55:52Z</time>
      </trkpt>
      <trkpt lat="45.99659" lon="4.71388">
        <ele>198</ele>
        <time>2017-05-22T08:55:53Z</time>
      </trkpt>
      <trkpt lat="45.99662" lon="4.71382">
        <ele>198</ele>
        <time>2017-05-22T08:55:54Z</time>
      </trkpt>
      <trkpt lat="45.99665" lon="4.71377">
        <ele>198</ele>
        <time>2017-05-22T08:55:55Z</time>
      </trkpt>
      <trkpt lat="45.99668" lon="4.71372">
        <ele>197</ele>
        <time>2017-05-22T08:55:56Z</time>
      </trkpt>
      <trkpt lat="45.9967" lon="4.71366">
        <ele>197</ele>
        <time>2017-05-22T08:55:57Z</time>
      </trkpt>
      <trkpt lat="45.99674" lon="4.7136">
        <ele>197</ele>
        <time>2017-05-22T08:55:58Z</time>
      </trkpt>
      <trkpt lat="45.99677" lon="4.71354">
        <ele>197</ele>
        <time>2017-05-22T08:55:59Z</time>
      </trkpt>
      <trkpt lat="45.99682" lon="4.71346">
        <ele>197</ele>
        <time>2017-05-22T08:56:00Z</time>
      </trkpt>
      <trkpt lat="45.99686" lon="4.71339">
        <ele>197</ele>
        <time>2017-05-22T08:56:01Z</time>
      </trkpt>
      <trkpt lat="45.9969" lon="4.71334">
        <ele>197</ele>
        <time>2017-05-22T08:56:02Z</time>
      </trkpt>
      <trkpt lat="45.99693" lon="4.71328">
        <ele>197</ele>
        <time>2017-05-22T08:56:03Z</time>
      </trkpt>
      <trkpt lat="45.99696" lon="4.71322">
        <ele>198</ele>
        <time>2017-05-22T08:56:04Z</time>
      </trkpt>
      <trkpt lat="45.997" lon="4.71316">
        <ele>198</ele>
        <time>2017-05-22T08:56:05Z</time>
      </trkpt>
      <trkpt lat="45.99703" lon="4.7131">
        <ele>198</ele>
        <time>2017-05-22T08:56:06Z</time>
      </trkpt>
      <trkpt lat="45.99706" lon="4.71304">
        <ele>198</ele>
        <time>2017-05-22T08:56:07Z</time>
      </trkpt>
      <trkpt lat="45.99709" lon="4.71296">
        <ele>198</ele>
        <time>2017-05-22T08:56:08Z</time>
      </trkpt>
      <trkpt lat="45.99713" lon="4.71289">
        <ele>198</ele>
        <time>2017-05-22T08:56:09Z</time>
      </trkpt>
      <trkpt lat="45.99716" lon="4.71281">
        <ele>198</ele>
        <time>2017-05-22T08:56:10Z</time>
      </trkpt>
      <trkpt lat="45.9972" lon="4.71274">
        <ele>198</ele>
        <time>2017-05-22T08:56:11Z</time>
      </trkpt>
      <trkpt lat="45.99723" lon="4.71267">
        <ele>198</ele>
        <time>2017-05-22T08:56:12Z</time>
      </trkpt>
      <trkpt lat="45.99727" lon="4.7126">
        <ele>198</ele>
        <time>2017-05-22T08:56:13Z</time>
      </trkpt>
      <trkpt lat="45.99731" lon="4.71254">
        <ele>198</ele>
        <time>2017-05-22T08:56:14Z</time>
      </trkpt>
      <trkpt lat="45.99734" lon="4.71247">
        <ele>198</ele>
        <time>2017-05-22T08:56:15Z</time>
      </trkpt>
      <trkpt lat="45.99738" lon="4.71241">
        <ele>198</ele>
        <time>2017-05-22T08:56:16Z</time>
      </trkpt>
      <trkpt lat="45.99741" lon="4.71234">
        <ele>198</ele>
        <time>2017-05-22T08:56:17Z</time>
      </trkpt>
      <trkpt lat="45.99744" lon="4.71227">
        <ele>198</ele>
        <time>2017-05-22T08:56:18Z</time>
      </trkpt>
      <trkpt lat="45.99748" lon="4.71221">
        <ele>198</ele>
        <time>2017-05-22T08:56:19Z</time>
      </trkpt>
      <trkpt lat="45.9975" lon="4.71215">
        <ele>199</ele>
        <time>2017-05-22T08:56:20Z</time>
      </trkpt>
      <trkpt lat="45.99753" lon="4.71209">
        <ele>199</ele>
        <time>2017-05-22T08:56:21Z</time>
      </trkpt>
      <trkpt lat="45.99756" lon="4.71203">
        <ele>198</ele>
        <time>2017-05-22T08:56:22Z</time>
      </trkpt>
      <trkpt lat="45.99758" lon="4.71198">
        <ele>198</ele>
        <time>2017-05-22T08:56:23Z</time>
      </trkpt>
      <trkpt lat="45.99762" lon="4.71192">
        <ele>198</ele>
        <time>2017-05-22T08:56:24Z</time>
      </trkpt>
      <trkpt lat="45.99765" lon="4.71186">
        <ele>198</ele>
        <time>2017-05-22T08:56:25Z</time>
      </trkpt>
      <trkpt lat="45.99769" lon="4.71178">
        <ele>198</ele>
        <time>2017-05-22T08:56:26Z</time>
      </trkpt>
      <trkpt lat="45.99773" lon="4.71171">
        <ele>198</ele>
        <time>2017-05-22T08:56:27Z</time>
      </trkpt>
      <trkpt lat="45.99777" lon="4.71163">
        <ele>198</ele>
        <time>2017-05-22T08:56:28Z</time>
      </trkpt>
      <trkpt lat="45.99782" lon="4.71155">
        <ele>198</ele>
        <time>2017-05-22T08:56:29Z</time>
      </trkpt>
      <trkpt lat="45.99786" lon="4.71147">
        <ele>198</ele>
        <time>2017-05-22T08:56:30Z</time>
      </trkpt>
      <trkpt lat="45.99791" lon="4.71139">
        <ele>198</ele>
        <time>2017-05-22T08:56:31Z</time>
      </trkpt>
      <trkpt lat="45.99794" lon="4.71131">
        <ele>198</ele>
        <time>2017-05-22T08:56:32Z</time>
      </trkpt>
      <trkpt lat="45.99796" lon="4.71123">
        <ele>198</ele>
        <time>2017-05-22T08:56:33Z</time>
      </trkpt>
      <trkpt lat="45.99799" lon="4.71115">
        <ele>198</ele>
        <time>2017-05-22T08:56:34Z</time>
      </trkpt>
      <trkpt lat="45.99802" lon="4.71107">
        <ele>198</ele>
        <time>2017-05-22T08:56:35Z</time>
      </trkpt>
      <trkpt lat="45.99805" lon="4.711">
        <ele>198</ele>
        <time>2017-05-22T08:56:36Z</time>
      </trkpt>
      <trkpt lat="45.99807" lon="4.71093">
        <ele>198</ele>
        <time>2017-05-22T08:56:37Z</time>
      </trkpt>
      <trkpt lat="45.99808" lon="4.71087">
        <ele>198</ele>
        <time>2017-05-22T08:56:38Z</time>
      </trkpt>
      <trkpt lat="45.9981" lon="4.7108">
        <ele>199</ele>
        <time>2017-05-22T08:56:39Z</time>
      </trkpt>
      <trkpt lat="45.99811" lon="4.71073">
        <ele>199</ele>
        <time>2017-05-22T08:56:40Z</time>
      </trkpt>
      <trkpt lat="45.99812" lon="4.71066">
        <ele>199</ele>
        <time>2017-05-22T08:56:41Z</time>
      </trkpt>
      <trkpt lat="45.99814" lon="4.7106">
        <ele>199</ele>
        <time>2017-05-22T08:56:42Z</time>
      </trkpt>
      <trkpt lat="45.99815" lon="4.71053">
        <ele>199</ele>
        <time>2017-05-22T08:56:43Z</time>
      </trkpt>
      <trkpt lat="45.99817" lon="4.71046">
        <ele>199</ele>
        <time>2017-05-22T08:56:44Z</time>
      </trkpt>
      <trkpt lat="45.99819" lon="4.71039">
        <ele>199</ele>
        <time>2017-05-22T08:56:45Z</time>
      </trkpt>
      <trkpt lat="45.9982" lon="4.71034">
        <ele>199</ele>
        <time>2017-05-22T08:56:46Z</time>
      </trkpt>
      <trkpt lat="45.99822" lon="4.71028">
        <ele>199</ele>
        <time>2017-05-22T08:56:47Z</time>
      </trkpt>
      <trkpt lat="45.99824" lon="4.71021">
        <ele>199</ele>
        <time>2017-05-22T08:56:48Z</time>
      </trkpt>
      <trkpt lat="45.99825" lon="4.71015">
        <ele>200</ele>
        <time>2017-05-22T08:56:49Z</time>
      </trkpt>
      <trkpt lat="45.99827" lon="4.71008">
        <ele>200</ele>
        <time>2017-05-22T08:56:50Z</time>
      </trkpt>
      <trkpt lat="45.99827" lon="4.71">
        <ele>200</ele>
        <time>2017-05-22T08:56:51Z</time>
      </trkpt>
      <trkpt lat="45.99829" lon="4.70991">
        <ele>200</ele>
        <time>2017-05-22T08:56:52Z</time>
      </trkpt>
      <trkpt lat="45.99828" lon="4.70979">
        <ele>200</ele>
        <time>2017-05-22T08:56:53Z</time>
      </trkpt>
      <trkpt lat="45.99829" lon="4.7097">
        <ele>200</ele>
        <time>2017-05-22T08:56:54Z</time>
      </trkpt>
      <trkpt lat="45.99831" lon="4.70961">
        <ele>200</ele>
        <time>2017-05-22T08:56:55Z</time>
      </trkpt>
      <trkpt lat="45.99833" lon="4.70952">
        <ele>199</ele>
        <time>2017-05-22T08:56:56Z</time>
      </trkpt>
      <trkpt lat="45.99836" lon="4.70942">
        <ele>199</ele>
        <time>2017-05-22T08:56:57Z</time>
      </trkpt>
      <trkpt lat="45.99838" lon="4.70932">
        <ele>199</ele>
        <time>2017-05-22T08:56:58Z</time>
      </trkpt>
      <trkpt lat="45.9984" lon="4.70923">
        <ele>199</ele>
        <time>2017-05-22T08:56:59Z</time>
      </trkpt>
      <trkpt lat="45.99842" lon="4.70915">
        <ele>199</ele>
        <time>2017-05-22T08:57:00Z</time>
      </trkpt>
      <trkpt lat="45.99844" lon="4.70907">
        <ele>199</ele>
        <time>2017-05-22T08:57:01Z</time>
      </trkpt>
      <trkpt lat="45.99847" lon="4.70898">
        <ele>199</ele>
        <time>2017-05-22T08:57:02Z</time>
      </trkpt>
      <trkpt lat="45.99847" lon="4.70888">
        <ele>199</ele>
        <time>2017-05-22T08:57:03Z</time>
      </trkpt>
      <trkpt lat="45.99847" lon="4.70879">
        <ele>200</ele>
        <time>2017-05-22T08:57:04Z</time>
      </trkpt>
      <trkpt lat="45.99849" lon="4.70867">
        <ele>200</ele>
        <time>2017-05-22T08:57:06Z</time>
      </trkpt>
      <trkpt lat="45.9985" lon="4.70861">
        <ele>200</ele>
        <time>2017-05-22T08:57:07Z</time>
      </trkpt>
      <trkpt lat="45.9985" lon="4.70853">
        <ele>200</ele>
        <time>2017-05-22T08:57:08Z</time>
      </trkpt>
      <trkpt lat="45.99851" lon="4.70846">
        <ele>200</ele>
        <time>2017-05-22T08:57:09Z</time>
      </trkpt>
      <trkpt lat="45.99852" lon="4.70838">
        <ele>201</ele>
        <time>2017-05-22T08:57:10Z</time>
      </trkpt>
      <trkpt lat="45.99854" lon="4.7083">
        <ele>201</ele>
        <time>2017-05-22T08:57:11Z</time>
      </trkpt>
      <trkpt lat="45.99856" lon="4.70823">
        <ele>201</ele>
        <time>2017-05-22T08:57:12Z</time>
      </trkpt>
      <trkpt lat="45.99857" lon="4.70816">
        <ele>201</ele>
        <time>2017-05-22T08:57:13Z</time>
      </trkpt>
      <trkpt lat="45.99859" lon="4.70808">
        <ele>201</ele>
        <time>2017-05-22T08:57:14Z</time>
      </trkpt>
      <trkpt lat="45.99861" lon="4.70801">
        <ele>201</ele>
        <time>2017-05-22T08:57:15Z</time>
      </trkpt>
      <trkpt lat="45.99862" lon="4.70793">
        <ele>200</ele>
        <time>2017-05-22T08:57:16Z</time>
      </trkpt>
      <trkpt lat="45.99865" lon="4.70786">
        <ele>200</ele>
        <time>2017-05-22T08:57:17Z</time>
      </trkpt>
      <trkpt lat="45.99866" lon="4.70779">
        <ele>200</ele>
        <time>2017-05-22T08:57:18Z</time>
      </trkpt>
      <trkpt lat="45.99868" lon="4.70772">
        <ele>200</ele>
        <time>2017-05-22T08:57:19Z</time>
      </trkpt>
      <trkpt lat="45.99869" lon="4.70764">
        <ele>200</ele>
        <time>2017-05-22T08:57:20Z</time>
      </trkpt>
      <trkpt lat="45.99871" lon="4.70756">
        <ele>200</ele>
        <time>2017-05-22T08:57:21Z</time>
      </trkpt>
      <trkpt lat="45.99872" lon="4.70748">
        <ele>200</ele>
        <time>2017-05-22T08:57:22Z</time>
      </trkpt>
      <trkpt lat="45.99874" lon="4.7074">
        <ele>200</ele>
        <time>2017-05-22T08:57:23Z</time>
      </trkpt>
      <trkpt lat="45.99875" lon="4.70733">
        <ele>200</ele>
        <time>2017-05-22T08:57:24Z</time>
      </trkpt>
      <trkpt lat="45.99876" lon="4.70726">
        <ele>200</ele>
        <time>2017-05-22T08:57:25Z</time>
      </trkpt>
      <trkpt lat="45.99877" lon="4.70719">
        <ele>200</ele>
        <time>2017-05-22T08:57:26Z</time>
      </trkpt>
      <trkpt lat="45.99879" lon="4.70712">
        <ele>200</ele>
        <time>2017-05-22T08:57:27Z</time>
      </trkpt>
      <trkpt lat="45.99881" lon="4.707">
        <ele>200</ele>
        <time>2017-05-22T08:57:29Z</time>
      </trkpt>
      <trkpt lat="45.99883" lon="4.70694">
        <ele>200</ele>
        <time>2017-05-22T08:57:30Z</time>
      </trkpt>
      <trkpt lat="45.99887" lon="4.70684">
        <ele>200</ele>
        <time>2017-05-22T08:57:32Z</time>
      </trkpt>
      <trkpt lat="45.99886" lon="4.70675">
        <ele>200</ele>
        <time>2017-05-22T08:57:33Z</time>
      </trkpt>
      <trkpt lat="45.99888" lon="4.70669">
        <ele>200</ele>
        <time>2017-05-22T08:57:34Z</time>
      </trkpt>
      <trkpt lat="45.9989" lon="4.70663">
        <ele>200</ele>
        <time>2017-05-22T08:57:35Z</time>
      </trkpt>
      <trkpt lat="45.99897" lon="4.70657">
        <ele>200</ele>
        <time>2017-05-22T08:57:37Z</time>
      </trkpt>
      <trkpt lat="45.999" lon="4.70655">
        <ele>200</ele>
        <time>2017-05-22T08:57:38Z</time>
      </trkpt>
      <trkpt lat="45.99906" lon="4.70653">
        <ele>200</ele>
        <time>2017-05-22T08:57:39Z</time>
      </trkpt>
      <trkpt lat="45.99911" lon="4.70652">
        <ele>200</ele>
        <time>2017-05-22T08:57:40Z</time>
      </trkpt>
      <trkpt lat="45.99916" lon="4.70651">
        <ele>200</ele>
        <time>2017-05-22T08:57:41Z</time>
      </trkpt>
      <trkpt lat="45.99921" lon="4.7065">
        <ele>199</ele>
        <time>2017-05-22T08:57:42Z</time>
      </trkpt>
      <trkpt lat="45.99925" lon="4.70648">
        <ele>199</ele>
        <time>2017-05-22T08:57:43Z</time>
      </trkpt>
      <trkpt lat="45.99929" lon="4.70647">
        <ele>199</ele>
        <time>2017-05-22T08:57:44Z</time>
      </trkpt>
      <trkpt lat="45.99934" lon="4.70646">
        <ele>199</ele>
        <time>2017-05-22T08:57:45Z</time>
      </trkpt>
      <trkpt lat="45.99939" lon="4.70646">
        <ele>199</ele>
        <time>2017-05-22T08:57:46Z</time>
      </trkpt>
      <trkpt lat="45.99943" lon="4.70645">
        <ele>199</ele>
        <time>2017-05-22T08:57:47Z</time>
      </trkpt>
      <trkpt lat="45.99948" lon="4.70644">
        <ele>199</ele>
        <time>2017-05-22T08:57:48Z</time>
      </trkpt>
      <trkpt lat="45.99952" lon="4.70643">
        <ele>199</ele>
        <time>2017-05-22T08:57:49Z</time>
      </trkpt>
      <trkpt lat="45.99957" lon="4.70642">
        <ele>199</ele>
        <time>2017-05-22T08:57:50Z</time>
      </trkpt>
      <trkpt lat="45.99962" lon="4.70642">
        <ele>199</ele>
        <time>2017-05-22T08:57:51Z</time>
      </trkpt>
      <trkpt lat="45.99966" lon="4.70641">
        <ele>199</ele>
        <time>2017-05-22T08:57:52Z</time>
      </trkpt>
      <trkpt lat="45.99974" lon="4.70638">
        <ele>199</ele>
        <time>2017-05-22T08:57:54Z</time>
      </trkpt>
      <trkpt lat="45.99979" lon="4.70637">
        <ele>199</ele>
        <time>2017-05-22T08:57:55Z</time>
      </trkpt>
      <trkpt lat="45.99986" lon="4.70634">
        <ele>199</ele>
        <time>2017-05-22T08:57:57Z</time>
      </trkpt>
      <trkpt lat="45.99991" lon="4.70632">
        <ele>199</ele>
        <time>2017-05-22T08:57:58Z</time>
      </trkpt>
      <trkpt lat="45.99999" lon="4.70629">
        <ele>199</ele>
        <time>2017-05-22T08:58:00Z</time>
      </trkpt>
      <trkpt lat="46.00003" lon="4.70628">
        <ele>198</ele>
        <time>2017-05-22T08:58:01Z</time>
      </trkpt>
      <trkpt lat="46.00012" lon="4.70626">
        <ele>198</ele>
        <time>2017-05-22T08:58:03Z</time>
      </trkpt>
      <trkpt lat="46.0002" lon="4.70627">
        <ele>198</ele>
        <time>2017-05-22T08:58:04Z</time>
      </trkpt>
      <trkpt lat="46.00027" lon="4.70626">
        <ele>198</ele>
        <time>2017-05-22T08:58:05Z</time>
      </trkpt>
      <trkpt lat="46.00033" lon="4.70624">
        <ele>199</ele>
        <time>2017-05-22T08:58:06Z</time>
      </trkpt>
      <trkpt lat="46.00039" lon="4.70622">
        <ele>199</ele>
        <time>2017-05-22T08:58:07Z</time>
      </trkpt>
      <trkpt lat="46.00045" lon="4.7062">
        <ele>198</ele>
        <time>2017-05-22T08:58:08Z</time>
      </trkpt>
      <trkpt lat="46.00051" lon="4.70619">
        <ele>198</ele>
        <time>2017-05-22T08:58:09Z</time>
      </trkpt>
      <trkpt lat="46.00057" lon="4.70617">
        <ele>198</ele>
        <time>2017-05-22T08:58:10Z</time>
      </trkpt>
      <trkpt lat="46.00063" lon="4.70616">
        <ele>198</ele>
        <time>2017-05-22T08:58:11Z</time>
      </trkpt>
      <trkpt lat="46.00068" lon="4.70615">
        <ele>198</ele>
        <time>2017-05-22T08:58:12Z</time>
      </trkpt>
      <trkpt lat="46.00074" lon="4.70613">
        <ele>198</ele>
        <time>2017-05-22T08:58:13Z</time>
      </trkpt>
      <trkpt lat="46.00079" lon="4.70611">
        <ele>198</ele>
        <time>2017-05-22T08:58:14Z</time>
      </trkpt>
      <trkpt lat="46.00085" lon="4.70608">
        <ele>198</ele>
        <time>2017-05-22T08:58:15Z</time>
      </trkpt>
      <trkpt lat="46.0009" lon="4.70605">
        <ele>198</ele>
        <time>2017-05-22T08:58:16Z</time>
      </trkpt>
      <trkpt lat="46.00095" lon="4.70602">
        <ele>198</ele>
        <time>2017-05-22T08:58:17Z</time>
      </trkpt>
      <trkpt lat="46.001" lon="4.70598">
        <ele>198</ele>
        <time>2017-05-22T08:58:18Z</time>
      </trkpt>
      <trkpt lat="46.00105" lon="4.70595">
        <ele>198</ele>
        <time>2017-05-22T08:58:19Z</time>
      </trkpt>
      <trkpt lat="46.0011" lon="4.70591">
        <ele>198</ele>
        <time>2017-05-22T08:58:20Z</time>
      </trkpt>
      <trkpt lat="46.00115" lon="4.70588">
        <ele>198</ele>
        <time>2017-05-22T08:58:21Z</time>
      </trkpt>
      <trkpt lat="46.0012" lon="4.70584">
        <ele>198</ele>
        <time>2017-05-22T08:58:22Z</time>
      </trkpt>
      <trkpt lat="46.00125" lon="4.70579">
        <ele>198</ele>
        <time>2017-05-22T08:58:23Z</time>
      </trkpt>
      <trkpt lat="46.00129" lon="4.70575">
        <ele>198</ele>
        <time>2017-05-22T08:58:24Z</time>
      </trkpt>
      <trkpt lat="46.00134" lon="4.70572">
        <ele>198</ele>
        <time>2017-05-22T08:58:25Z</time>
      </trkpt>
      <trkpt lat="46.00139" lon="4.70571">
        <ele>198</ele>
        <time>2017-05-22T08:58:26Z</time>
      </trkpt>
      <trkpt lat="46.00143" lon="4.7057">
        <ele>198</ele>
        <time>2017-05-22T08:58:27Z</time>
      </trkpt>
      <trkpt lat="46.00148" lon="4.70569">
        <ele>198</ele>
        <time>2017-05-22T08:58:28Z</time>
      </trkpt>
      <trkpt lat="46.00153" lon="4.70566">
        <ele>198</ele>
        <time>2017-05-22T08:58:29Z</time>
      </trkpt>
      <trkpt lat="46.00157" lon="4.70562">
        <ele>198</ele>
        <time>2017-05-22T08:58:30Z</time>
      </trkpt>
      <trkpt lat="46.00161" lon="4.70557">
        <ele>198</ele>
        <time>2017-05-22T08:58:31Z</time>
      </trkpt>
      <trkpt lat="46.00166" lon="4.70553">
        <ele>198</ele>
        <time>2017-05-22T08:58:32Z</time>
      </trkpt>
      <trkpt lat="46.0017" lon="4.7055">
        <ele>198</ele>
        <time>2017-05-22T08:58:33Z</time>
      </trkpt>
      <trkpt lat="46.00176" lon="4.70548">
        <ele>198</ele>
        <time>2017-05-22T08:58:34Z</time>
      </trkpt>
      <trkpt lat="46.00182" lon="4.70546">
        <ele>198</ele>
        <time>2017-05-22T08:58:35Z</time>
      </trkpt>
      <trkpt lat="46.00188" lon="4.70544">
        <ele>198</ele>
        <time>2017-05-22T08:58:36Z</time>
      </trkpt>
      <trkpt lat="46.00194" lon="4.70542">
        <ele>198</ele>
        <time>2017-05-22T08:58:37Z</time>
      </trkpt>
      <trkpt lat="46.002" lon="4.70542">
        <ele>198</ele>
        <time>2017-05-22T08:58:38Z</time>
      </trkpt>
      <trkpt lat="46.00205" lon="4.7054">
        <ele>198</ele>
        <time>2017-05-22T08:58:39Z</time>
      </trkpt>
      <trkpt lat="46.00211" lon="4.70539">
        <ele>198</ele>
        <time>2017-05-22T08:58:40Z</time>
      </trkpt>
      <trkpt lat="46.00217" lon="4.70538">
        <ele>198</ele>
        <time>2017-05-22T08:58:41Z</time>
      </trkpt>
      <trkpt lat="46.00222" lon="4.70535">
        <ele>198</ele>
        <time>2017-05-22T08:58:42Z</time>
      </trkpt>
      <trkpt lat="46.00227" lon="4.70533">
        <ele>198</ele>
        <time>2017-05-22T08:58:43Z</time>
      </trkpt>
      <trkpt lat="46.00232" lon="4.7053">
        <ele>198</ele>
        <time>2017-05-22T08:58:44Z</time>
      </trkpt>
      <trkpt lat="46.00237" lon="4.70528">
        <ele>198</ele>
        <time>2017-05-22T08:58:45Z</time>
      </trkpt>
      <trkpt lat="46.00242" lon="4.70526">
        <ele>198</ele>
        <time>2017-05-22T08:58:46Z</time>
      </trkpt>
      <trkpt lat="46.00247" lon="4.70525">
        <ele>198</ele>
        <time>2017-05-22T08:58:47Z</time>
      </trkpt>
      <trkpt lat="46.00251" lon="4.70523">
        <ele>197</ele>
        <time>2017-05-22T08:58:48Z</time>
      </trkpt>
      <trkpt lat="46.00256" lon="4.70522">
        <ele>197</ele>
        <time>2017-05-22T08:58:49Z</time>
      </trkpt>
      <trkpt lat="46.00262" lon="4.7052">
        <ele>197</ele>
        <time>2017-05-22T08:58:50Z</time>
      </trkpt>
      <trkpt lat="46.00268" lon="4.70519">
        <ele>197</ele>
        <time>2017-05-22T08:58:51Z</time>
      </trkpt>
      <trkpt lat="46.00274" lon="4.70517">
        <ele>197</ele>
        <time>2017-05-22T08:58:52Z</time>
      </trkpt>
      <trkpt lat="46.00281" lon="4.70515">
        <ele>197</ele>
        <time>2017-05-22T08:58:53Z</time>
      </trkpt>
      <trkpt lat="46.00288" lon="4.70514">
        <ele>197</ele>
        <time>2017-05-22T08:58:54Z</time>
      </trkpt>
      <trkpt lat="46.00295" lon="4.70513">
        <ele>197</ele>
        <time>2017-05-22T08:58:55Z</time>
      </trkpt>
      <trkpt lat="46.00301" lon="4.70512">
        <ele>197</ele>
        <time>2017-05-22T08:58:56Z</time>
      </trkpt>
      <trkpt lat="46.00307" lon="4.70511">
        <ele>197</ele>
        <time>2017-05-22T08:58:57Z</time>
      </trkpt>
      <trkpt lat="46.00313" lon="4.7051">
        <ele>197</ele>
        <time>2017-05-22T08:58:58Z</time>
      </trkpt>
      <trkpt lat="46.00319" lon="4.70509">
        <ele>198</ele>
        <time>2017-05-22T08:58:59Z</time>
      </trkpt>
      <trkpt lat="46.00324" lon="4.70508">
        <ele>198</ele>
        <time>2017-05-22T08:59:00Z</time>
      </trkpt>
      <trkpt lat="46.00329" lon="4.70507">
        <ele>198</ele>
        <time>2017-05-22T08:59:01Z</time>
      </trkpt>
      <trkpt lat="46.00334" lon="4.70506">
        <ele>198</ele>
        <time>2017-05-22T08:59:02Z</time>
      </trkpt>
      <trkpt lat="46.00339" lon="4.70505">
        <ele>198</ele>
        <time>2017-05-22T08:59:03Z</time>
      </trkpt>
      <trkpt lat="46.00344" lon="4.70504">
        <ele>198</ele>
        <time>2017-05-22T08:59:04Z</time>
      </trkpt>
      <trkpt lat="46.00349" lon="4.70503">
        <ele>198</ele>
        <time>2017-05-22T08:59:05Z</time>
      </trkpt>
      <trkpt lat="46.00354" lon="4.70501">
        <ele>198</ele>
        <time>2017-05-22T08:59:06Z</time>
      </trkpt>
      <trkpt lat="46.00359" lon="4.705">
        <ele>200</ele>
        <time>2017-05-22T08:59:07Z</time>
      </trkpt>
      <trkpt lat="46.00365" lon="4.70499">
        <ele>200</ele>
        <time>2017-05-22T08:59:08Z</time>
      </trkpt>
      <trkpt lat="46.0037" lon="4.70498">
        <ele>200</ele>
        <time>2017-05-22T08:59:09Z</time>
      </trkpt>
      <trkpt lat="46.00376" lon="4.70498">
        <ele>200</ele>
        <time>2017-05-22T08:59:10Z</time>
      </trkpt>
      <trkpt lat="46.00382" lon="4.70498">
        <ele>200</ele>
        <time>2017-05-22T08:59:11Z</time>
      </trkpt>
      <trkpt lat="46.00387" lon="4.70497">
        <ele>200</ele>
        <time>2017-05-22T08:59:12Z</time>
      </trkpt>
      <trkpt lat="46.00392" lon="4.70497">
        <ele>200</ele>
        <time>2017-05-22T08:59:13Z</time>
      </trkpt>
      <trkpt lat="46.00398" lon="4.70497">
        <ele>200</ele>
        <time>2017-05-22T08:59:14Z</time>
      </trkpt>
      <trkpt lat="46.00403" lon="4.70497">
        <ele>200</ele>
        <time>2017-05-22T08:59:15Z</time>
      </trkpt>
      <trkpt lat="46.00408" lon="4.70498">
        <ele>200</ele>
        <time>2017-05-22T08:59:16Z</time>
      </trkpt>
      <trkpt lat="46.00414" lon="4.70499">
        <ele>200</ele>
        <time>2017-05-22T08:59:17Z</time>
      </trkpt>
      <trkpt lat="46.0042" lon="4.705">
        <ele>200</ele>
        <time>2017-05-22T08:59:18Z</time>
      </trkpt>
      <trkpt lat="46.00426" lon="4.70501">
        <ele>200</ele>
        <time>2017-05-22T08:59:19Z</time>
      </trkpt>
      <trkpt lat="46.00433" lon="4.70502">
        <ele>200</ele>
        <time>2017-05-22T08:59:20Z</time>
      </trkpt>
      <trkpt lat="46.0044" lon="4.70503">
        <ele>200</ele>
        <time>2017-05-22T08:59:21Z</time>
      </trkpt>
      <trkpt lat="46.00446" lon="4.70505">
        <ele>201</ele>
        <time>2017-05-22T08:59:22Z</time>
      </trkpt>
      <trkpt lat="46.00452" lon="4.70506">
        <ele>201</ele>
        <time>2017-05-22T08:59:23Z</time>
      </trkpt>
      <trkpt lat="46.00457" lon="4.7051">
        <ele>201</ele>
        <time>2017-05-22T08:59:24Z</time>
      </trkpt>
      <trkpt lat="46.00461" lon="4.70514">
        <ele>201</ele>
        <time>2017-05-22T08:59:25Z</time>
      </trkpt>
      <trkpt lat="46.00465" lon="4.70519">
        <ele>201</ele>
        <time>2017-05-22T08:59:26Z</time>
      </trkpt>
      <trkpt lat="46.00469" lon="4.70524">
        <ele>201</ele>
        <time>2017-05-22T08:59:27Z</time>
      </trkpt>
      <trkpt lat="46.00471" lon="4.70531">
        <ele>201</ele>
        <time>2017-05-22T08:59:28Z</time>
      </trkpt>
      <trkpt lat="46.00473" lon="4.70538">
        <ele>201</ele>
        <time>2017-05-22T08:59:29Z</time>
      </trkpt>
      <trkpt lat="46.00476" lon="4.70544">
        <ele>201</ele>
        <time>2017-05-22T08:59:30Z</time>
      </trkpt>
      <trkpt lat="46.0048" lon="4.70548">
        <ele>201</ele>
        <time>2017-05-22T08:59:31Z</time>
      </trkpt>
      <trkpt lat="46.00484" lon="4.7055">
        <ele>201</ele>
        <time>2017-05-22T08:59:32Z</time>
      </trkpt>
      <trkpt lat="46.00489" lon="4.7055">
        <ele>201</ele>
        <time>2017-05-22T08:59:33Z</time>
      </trkpt>
      <trkpt lat="46.00494" lon="4.70547">
        <ele>201</ele>
        <time>2017-05-22T08:59:34Z</time>
      </trkpt>
      <trkpt lat="46.00498" lon="4.70543">
        <ele>201</ele>
        <time>2017-05-22T08:59:35Z</time>
      </trkpt>
      <trkpt lat="46.00501" lon="4.70538">
        <ele>203</ele>
        <time>2017-05-22T08:59:36Z</time>
      </trkpt>
      <trkpt lat="46.00503" lon="4.70533">
        <ele>203</ele>
        <time>2017-05-22T08:59:37Z</time>
      </trkpt>
      <trkpt lat="46.00506" lon="4.70527">
        <ele>203</ele>
        <time>2017-05-22T08:59:38Z</time>
      </trkpt>
      <trkpt lat="46.0051" lon="4.70521">
        <ele>203</ele>
        <time>2017-05-22T08:59:39Z</time>
      </trkpt>
      <trkpt lat="46.00513" lon="4.70518">
        <ele>204</ele>
        <time>2017-05-22T08:59:40Z</time>
      </trkpt>
      <trkpt lat="46.00519" lon="4.70518">
        <ele>204</ele>
        <time>2017-05-22T08:59:41Z</time>
      </trkpt>
      <trkpt lat="46.00524" lon="4.70518">
        <ele>204</ele>
        <time>2017-05-22T08:59:42Z</time>
      </trkpt>
      <trkpt lat="46.0053" lon="4.70518">
        <ele>204</ele>
        <time>2017-05-22T08:59:43Z</time>
      </trkpt>
      <trkpt lat="46.00536" lon="4.70518">
        <ele>204</ele>
        <time>2017-05-22T08:59:44Z</time>
      </trkpt>
      <trkpt lat="46.00541" lon="4.70517">
        <ele>204</ele>
        <time>2017-05-22T08:59:45Z</time>
      </trkpt>
      <trkpt lat="46.00547" lon="4.70517">
        <ele>204</ele>
        <time>2017-05-22T08:59:46Z</time>
      </trkpt>
      <trkpt lat="46.00552" lon="4.70518">
        <ele>204</ele>
        <time>2017-05-22T08:59:47Z</time>
      </trkpt>
      <trkpt lat="46.00557" lon="4.70517">
        <ele>204</ele>
        <time>2017-05-22T08:59:48Z</time>
      </trkpt>
      <trkpt lat="46.00562" lon="4.70516">
        <ele>205</ele>
        <time>2017-05-22T08:59:49Z</time>
      </trkpt>
      <trkpt lat="46.00568" lon="4.70516">
        <ele>205</ele>
        <time>2017-05-22T08:59:50Z</time>
      </trkpt>
      <trkpt lat="46.00574" lon="4.70515">
        <ele>205</ele>
        <time>2017-05-22T08:59:51Z</time>
      </trkpt>
      <trkpt lat="46.00579" lon="4.70514">
        <ele>205</ele>
        <time>2017-05-22T08:59:52Z</time>
      </trkpt>
      <trkpt lat="46.00584" lon="4.70512">
        <ele>207</ele>
        <time>2017-05-22T08:59:53Z</time>
      </trkpt>
      <trkpt lat="46.00588" lon="4.70511">
        <ele>207</ele>
        <time>2017-05-22T08:59:54Z</time>
      </trkpt>
      <trkpt lat="46.00593" lon="4.7051">
        <ele>207</ele>
        <time>2017-05-22T08:59:55Z</time>
      </trkpt>
      <trkpt lat="46.00598" lon="4.7051">
        <ele>207</ele>
        <time>2017-05-22T08:59:56Z</time>
      </trkpt>
      <trkpt lat="46.00606" lon="4.70508">
        <ele>207</ele>
        <time>2017-05-22T08:59:58Z</time>
      </trkpt>
      <trkpt lat="46.0061" lon="4.70508">
        <ele>207</ele>
        <time>2017-05-22T08:59:59Z</time>
      </trkpt>
      <trkpt lat="46.00614" lon="4.70507">
        <ele>207</ele>
        <time>2017-05-22T09:00:00Z</time>
      </trkpt>
      <trkpt lat="46.00619" lon="4.70509">
        <ele>207</ele>
        <time>2017-05-22T09:00:01Z</time>
      </trkpt>
      <trkpt lat="46.00624" lon="4.7051">
        <ele>207</ele>
        <time>2017-05-22T09:00:02Z</time>
      </trkpt>
      <trkpt lat="46.0063" lon="4.7051">
        <ele>207</ele>
        <time>2017-05-22T09:00:03Z</time>
      </trkpt>
      <trkpt lat="46.00636" lon="4.70509">
        <ele>208</ele>
        <time>2017-05-22T09:00:04Z</time>
      </trkpt>
      <trkpt lat="46.00642" lon="4.70512">
        <ele>208</ele>
        <time>2017-05-22T09:00:05Z</time>
      </trkpt>
      <trkpt lat="46.0065" lon="4.70512">
        <ele>209</ele>
        <time>2017-05-22T09:00:06Z</time>
      </trkpt>
      <trkpt lat="46.00658" lon="4.7051">
        <ele>209</ele>
        <time>2017-05-22T09:00:07Z</time>
      </trkpt>
      <trkpt lat="46.00665" lon="4.7051">
        <ele>210</ele>
        <time>2017-05-22T09:00:08Z</time>
      </trkpt>
      <trkpt lat="46.00672" lon="4.70509">
        <ele>210</ele>
        <time>2017-05-22T09:00:09Z</time>
      </trkpt>
      <trkpt lat="46.00678" lon="4.7051">
        <ele>209</ele>
        <time>2017-05-22T09:00:10Z</time>
      </trkpt>
      <trkpt lat="46.00687" lon="4.7051">
        <ele>208</ele>
        <time>2017-05-22T09:00:11Z</time>
      </trkpt>
      <trkpt lat="46.00693" lon="4.7051">
        <ele>208</ele>
        <time>2017-05-22T09:00:12Z</time>
      </trkpt>
      <trkpt lat="46.00699" lon="4.7051">
        <ele>208</ele>
        <time>2017-05-22T09:00:13Z</time>
      </trkpt>
      <trkpt lat="46.00705" lon="4.70511">
        <ele>207</ele>
        <time>2017-05-22T09:00:14Z</time>
      </trkpt>
      <trkpt lat="46.0071" lon="4.70513">
        <ele>207</ele>
        <time>2017-05-22T09:00:15Z</time>
      </trkpt>
      <trkpt lat="46.00716" lon="4.70513">
        <ele>207</ele>
        <time>2017-05-22T09:00:16Z</time>
      </trkpt>
      <trkpt lat="46.00722" lon="4.70514">
        <ele>207</ele>
        <time>2017-05-22T09:00:17Z</time>
      </trkpt>
      <trkpt lat="46.00728" lon="4.70514">
        <ele>207</ele>
        <time>2017-05-22T09:00:18Z</time>
      </trkpt>
      <trkpt lat="46.00734" lon="4.70515">
        <ele>207</ele>
        <time>2017-05-22T09:00:19Z</time>
      </trkpt>
      <trkpt lat="46.0074" lon="4.70516">
        <ele>207</ele>
        <time>2017-05-22T09:00:20Z</time>
      </trkpt>
      <trkpt lat="46.00747" lon="4.70518">
        <ele>207</ele>
        <time>2017-05-22T09:00:21Z</time>
      </trkpt>
      <trkpt lat="46.00753" lon="4.70519">
        <ele>206</ele>
        <time>2017-05-22T09:00:22Z</time>
      </trkpt>
      <trkpt lat="46.0076" lon="4.70521">
        <ele>205</ele>
        <time>2017-05-22T09:00:23Z</time>
      </trkpt>
      <trkpt lat="46.00766" lon="4.70524">
        <ele>205</ele>
        <time>2017-05-22T09:00:24Z</time>
      </trkpt>
      <trkpt lat="46.00773" lon="4.70526">
        <ele>204</ele>
        <time>2017-05-22T09:00:25Z</time>
      </trkpt>
      <trkpt lat="46.0078" lon="4.70529">
        <ele>204</ele>
        <time>2017-05-22T09:00:26Z</time>
      </trkpt>
      <trkpt lat="46.00786" lon="4.70532">
        <ele>204</ele>
        <time>2017-05-22T09:00:27Z</time>
      </trkpt>
      <trkpt lat="46.00792" lon="4.70535">
        <ele>204</ele>
        <time>2017-05-22T09:00:28Z</time>
      </trkpt>
      <trkpt lat="46.00799" lon="4.70538">
        <ele>204</ele>
        <time>2017-05-22T09:00:29Z</time>
      </trkpt>
      <trkpt lat="46.00806" lon="4.70541">
        <ele>203</ele>
        <time>2017-05-22T09:00:30Z</time>
      </trkpt>
      <trkpt lat="46.00813" lon="4.70544">
        <ele>203</ele>
        <time>2017-05-22T09:00:31Z</time>
      </trkpt>
      <trkpt lat="46.0082" lon="4.70547">
        <ele>203</ele>
        <time>2017-05-22T09:00:32Z</time>
      </trkpt>
      <trkpt lat="46.00827" lon="4.7055">
        <ele>203</ele>
        <time>2017-05-22T09:00:33Z</time>
      </trkpt>
      <trkpt lat="46.00835" lon="4.70553">
        <ele>201</ele>
        <time>2017-05-22T09:00:34Z</time>
      </trkpt>
      <trkpt lat="46.00842" lon="4.70557">
        <ele>201</ele>
        <time>2017-05-22T09:00:35Z</time>
      </trkpt>
      <trkpt lat="46.00849" lon="4.7056">
        <ele>201</ele>
        <time>2017-05-22T09:00:36Z</time>
      </trkpt>
      <trkpt lat="46.00856" lon="4.70563">
        <ele>201</ele>
        <time>2017-05-22T09:00:37Z</time>
      </trkpt>
      <trkpt lat="46.00864" lon="4.70566">
        <ele>201</ele>
        <time>2017-05-22T09:00:38Z</time>
      </trkpt>
      <trkpt lat="46.00872" lon="4.7057">
        <ele>200</ele>
        <time>2017-05-22T09:00:39Z</time>
      </trkpt>
      <trkpt lat="46.00879" lon="4.70573">
        <ele>200</ele>
        <time>2017-05-22T09:00:40Z</time>
      </trkpt>
      <trkpt lat="46.00886" lon="4.70576">
        <ele>200</ele>
        <time>2017-05-22T09:00:41Z</time>
      </trkpt>
      <trkpt lat="46.00895" lon="4.7058">
        <ele>200</ele>
        <time>2017-05-22T09:00:42Z</time>
      </trkpt>
      <trkpt lat="46.00902" lon="4.70583">
        <ele>199</ele>
        <time>2017-05-22T09:00:43Z</time>
      </trkpt>
      <trkpt lat="46.00909" lon="4.70586">
        <ele>198</ele>
        <time>2017-05-22T09:00:44Z</time>
      </trkpt>
      <trkpt lat="46.00916" lon="4.70589">
        <ele>198</ele>
        <time>2017-05-22T09:00:45Z</time>
      </trkpt>
      <trkpt lat="46.00922" lon="4.70592">
        <ele>198</ele>
        <time>2017-05-22T09:00:46Z</time>
      </trkpt>
      <trkpt lat="46.00929" lon="4.70595">
        <ele>198</ele>
        <time>2017-05-22T09:00:47Z</time>
      </trkpt>
      <trkpt lat="46.00936" lon="4.70599">
        <ele>198</ele>
        <time>2017-05-22T09:00:48Z</time>
      </trkpt>
      <trkpt lat="46.00942" lon="4.70603">
        <ele>197</ele>
        <time>2017-05-22T09:00:49Z</time>
      </trkpt>
      <trkpt lat="46.00949" lon="4.70606">
        <ele>197</ele>
        <time>2017-05-22T09:00:50Z</time>
      </trkpt>
      <trkpt lat="46.00956" lon="4.70609">
        <ele>197</ele>
        <time>2017-05-22T09:00:51Z</time>
      </trkpt>
      <trkpt lat="46.00964" lon="4.70612">
        <ele>197</ele>
        <time>2017-05-22T09:00:52Z</time>
      </trkpt>
      <trkpt lat="46.00971" lon="4.70616">
        <ele>197</ele>
        <time>2017-05-22T09:00:53Z</time>
      </trkpt>
      <trkpt lat="46.00978" lon="4.70619">
        <ele>197</ele>
        <time>2017-05-22T09:00:54Z</time>
      </trkpt>
      <trkpt lat="46.00986" lon="4.70622">
        <ele>197</ele>
        <time>2017-05-22T09:00:55Z</time>
      </trkpt>
      <trkpt lat="46.00993" lon="4.70626">
        <ele>197</ele>
        <time>2017-05-22T09:00:56Z</time>
      </trkpt>
      <trkpt lat="46.01001" lon="4.70629">
        <ele>196</ele>
        <time>2017-05-22T09:00:57Z</time>
      </trkpt>
      <trkpt lat="46.01008" lon="4.70632">
        <ele>196</ele>
        <time>2017-05-22T09:00:58Z</time>
      </trkpt>
      <trkpt lat="46.01015" lon="4.70635">
        <ele>196</ele>
        <time>2017-05-22T09:00:59Z</time>
      </trkpt>
      <trkpt lat="46.01021" lon="4.70638">
        <ele>196</ele>
        <time>2017-05-22T09:01:00Z</time>
      </trkpt>
      <trkpt lat="46.01028" lon="4.70641">
        <ele>196</ele>
        <time>2017-05-22T09:01:01Z</time>
      </trkpt>
      <trkpt lat="46.01034" lon="4.70644">
        <ele>196</ele>
        <time>2017-05-22T09:01:02Z</time>
      </trkpt>
      <trkpt lat="46.01041" lon="4.70647">
        <ele>196</ele>
        <time>2017-05-22T09:01:03Z</time>
      </trkpt>
      <trkpt lat="46.01048" lon="4.7065">
        <ele>195</ele>
        <time>2017-05-22T09:01:04Z</time>
      </trkpt>
      <trkpt lat="46.01055" lon="4.70654">
        <ele>195</ele>
        <time>2017-05-22T09:01:05Z</time>
      </trkpt>
      <trkpt lat="46.01062" lon="4.70657">
        <ele>195</ele>
        <time>2017-05-22T09:01:06Z</time>
      </trkpt>
      <trkpt lat="46.01069" lon="4.7066">
        <ele>195</ele>
        <time>2017-05-22T09:01:07Z</time>
      </trkpt>
      <trkpt lat="46.01076" lon="4.70663">
        <ele>195</ele>
        <time>2017-05-22T09:01:08Z</time>
      </trkpt>
      <trkpt lat="46.01083" lon="4.70667">
        <ele>195</ele>
        <time>2017-05-22T09:01:09Z</time>
      </trkpt>
      <trkpt lat="46.01091" lon="4.7067">
        <ele>195</ele>
        <time>2017-05-22T09:01:10Z</time>
      </trkpt>
      <trkpt lat="46.01098" lon="4.70673">
        <ele>195</ele>
        <time>2017-05-22T09:01:11Z</time>
      </trkpt>
      <trkpt lat="46.01105" lon="4.70676">
        <ele>195</ele>
        <time>2017-05-22T09:01:12Z</time>
      </trkpt>
      <trkpt lat="46.01111" lon="4.70678">
        <ele>195</ele>
        <time>2017-05-22T09:01:13Z</time>
      </trkpt>
      <trkpt lat="46.01117" lon="4.7068">
        <ele>195</ele>
        <time>2017-05-22T09:01:14Z</time>
      </trkpt>
      <trkpt lat="46.01123" lon="4.70684">
        <ele>195</ele>
        <time>2017-05-22T09:01:15Z</time>
      </trkpt>
      <trkpt lat="46.0113" lon="4.70687">
        <ele>194</ele>
        <time>2017-05-22T09:01:16Z</time>
      </trkpt>
      <trkpt lat="46.01136" lon="4.7069">
        <ele>194</ele>
        <time>2017-05-22T09:01:17Z</time>
      </trkpt>
      <trkpt lat="46.01143" lon="4.70693">
        <ele>194</ele>
        <time>2017-05-22T09:01:18Z</time>
      </trkpt>
      <trkpt lat="46.0115" lon="4.70696">
        <ele>194</ele>
        <time>2017-05-22T09:01:19Z</time>
      </trkpt>
      <trkpt lat="46.01156" lon="4.70699">
        <ele>194</ele>
        <time>2017-05-22T09:01:20Z</time>
      </trkpt>
      <trkpt lat="46.01161" lon="4.70701">
        <ele>194</ele>
        <time>2017-05-22T09:01:21Z</time>
      </trkpt>
      <trkpt lat="46.01167" lon="4.70704">
        <ele>194</ele>
        <time>2017-05-22T09:01:22Z</time>
      </trkpt>
      <trkpt lat="46.01173" lon="4.70706">
        <ele>194</ele>
        <time>2017-05-22T09:01:23Z</time>
      </trkpt>
      <trkpt lat="46.0118" lon="4.70709">
        <ele>194</ele>
        <time>2017-05-22T09:01:24Z</time>
      </trkpt>
      <trkpt lat="46.01186" lon="4.70711">
        <ele>194</ele>
        <time>2017-05-22T09:01:25Z</time>
      </trkpt>
      <trkpt lat="46.01192" lon="4.70715">
        <ele>194</ele>
        <time>2017-05-22T09:01:26Z</time>
      </trkpt>
      <trkpt lat="46.01198" lon="4.70718">
        <ele>194</ele>
        <time>2017-05-22T09:01:27Z</time>
      </trkpt>
      <trkpt lat="46.01204" lon="4.7072">
        <ele>194</ele>
        <time>2017-05-22T09:01:28Z</time>
      </trkpt>
      <trkpt lat="46.0121" lon="4.70723">
        <ele>194</ele>
        <time>2017-05-22T09:01:29Z</time>
      </trkpt>
      <trkpt lat="46.01217" lon="4.70725">
        <ele>194</ele>
        <time>2017-05-22T09:01:30Z</time>
      </trkpt>
      <trkpt lat="46.01223" lon="4.70727">
        <ele>194</ele>
        <time>2017-05-22T09:01:31Z</time>
      </trkpt>
      <trkpt lat="46.0123" lon="4.7073">
        <ele>194</ele>
        <time>2017-05-22T09:01:32Z</time>
      </trkpt>
      <trkpt lat="46.01236" lon="4.70732">
        <ele>193</ele>
        <time>2017-05-22T09:01:33Z</time>
      </trkpt>
      <trkpt lat="46.01243" lon="4.70735">
        <ele>193</ele>
        <time>2017-05-22T09:01:34Z</time>
      </trkpt>
      <trkpt lat="46.0125" lon="4.70737">
        <ele>193</ele>
        <time>2017-05-22T09:01:35Z</time>
      </trkpt>
      <trkpt lat="46.01257" lon="4.7074">
        <ele>192</ele>
        <time>2017-05-22T09:01:36Z</time>
      </trkpt>
      <trkpt lat="46.01264" lon="4.70742">
        <ele>192</ele>
        <time>2017-05-22T09:01:37Z</time>
      </trkpt>
      <trkpt lat="46.01272" lon="4.70744">
        <ele>192</ele>
        <time>2017-05-22T09:01:38Z</time>
      </trkpt>
      <trkpt lat="46.01279" lon="4.70746">
        <ele>192</ele>
        <time>2017-05-22T09:01:39Z</time>
      </trkpt>
      <trkpt lat="46.01286" lon="4.70747">
        <ele>191</ele>
        <time>2017-05-22T09:01:40Z</time>
      </trkpt>
      <trkpt lat="46.01293" lon="4.70748">
        <ele>191</ele>
        <time>2017-05-22T09:01:41Z</time>
      </trkpt>
      <trkpt lat="46.013" lon="4.7075">
        <ele>191</ele>
        <time>2017-05-22T09:01:42Z</time>
      </trkpt>
      <trkpt lat="46.01307" lon="4.70751">
        <ele>191</ele>
        <time>2017-05-22T09:01:43Z</time>
      </trkpt>
      <trkpt lat="46.01314" lon="4.70753">
        <ele>190</ele>
        <time>2017-05-22T09:01:44Z</time>
      </trkpt>
      <trkpt lat="46.01321" lon="4.70754">
        <ele>190</ele>
        <time>2017-05-22T09:01:45Z</time>
      </trkpt>
      <trkpt lat="46.01328" lon="4.70754">
        <ele>190</ele>
        <time>2017-05-22T09:01:46Z</time>
      </trkpt>
      <trkpt lat="46.01334" lon="4.70755">
        <ele>189</ele>
        <time>2017-05-22T09:01:47Z</time>
      </trkpt>
      <trkpt lat="46.0134" lon="4.70755">
        <ele>189</ele>
        <time>2017-05-22T09:01:48Z</time>
      </trkpt>
      <trkpt lat="46.01347" lon="4.70756">
        <ele>189</ele>
        <time>2017-05-22T09:01:49Z</time>
      </trkpt>
      <trkpt lat="46.01354" lon="4.70756">
        <ele>189</ele>
        <time>2017-05-22T09:01:50Z</time>
      </trkpt>
      <trkpt lat="46.01361" lon="4.70756">
        <ele>189</ele>
        <time>2017-05-22T09:01:51Z</time>
      </trkpt>
      <trkpt lat="46.01367" lon="4.70756">
        <ele>189</ele>
        <time>2017-05-22T09:01:52Z</time>
      </trkpt>
      <trkpt lat="46.01375" lon="4.70756">
        <ele>189</ele>
        <time>2017-05-22T09:01:53Z</time>
      </trkpt>
      <trkpt lat="46.01382" lon="4.70755">
        <ele>189</ele>
        <time>2017-05-22T09:01:54Z</time>
      </trkpt>
      <trkpt lat="46.0139" lon="4.70755">
        <ele>189</ele>
        <time>2017-05-22T09:01:55Z</time>
      </trkpt>
      <trkpt lat="46.01398" lon="4.70754">
        <ele>189</ele>
        <time>2017-05-22T09:01:56Z</time>
      </trkpt>
      <trkpt lat="46.01406" lon="4.70753">
        <ele>189</ele>
        <time>2017-05-22T09:01:57Z</time>
      </trkpt>
      <trkpt lat="46.01415" lon="4.70752">
        <ele>189</ele>
        <time>2017-05-22T09:01:58Z</time>
      </trkpt>
      <trkpt lat="46.01424" lon="4.70751">
        <ele>189</ele>
        <time>2017-05-22T09:01:59Z</time>
      </trkpt>
      <trkpt lat="46.01432" lon="4.7075">
        <ele>189</ele>
        <time>2017-05-22T09:02:00Z</time>
      </trkpt>
      <trkpt lat="46.0144" lon="4.70748">
        <ele>189</ele>
        <time>2017-05-22T09:02:01Z</time>
      </trkpt>
      <trkpt lat="46.01448" lon="4.70747">
        <ele>189</ele>
        <time>2017-05-22T09:02:02Z</time>
      </trkpt>
      <trkpt lat="46.01456" lon="4.70747">
        <ele>189</ele>
        <time>2017-05-22T09:02:03Z</time>
      </trkpt>
      <trkpt lat="46.01464" lon="4.70747">
        <ele>190</ele>
        <time>2017-05-22T09:02:04Z</time>
      </trkpt>
      <trkpt lat="46.01471" lon="4.70746">
        <ele>190</ele>
        <time>2017-05-22T09:02:05Z</time>
      </trkpt>
      <trkpt lat="46.01479" lon="4.70744">
        <ele>190</ele>
        <time>2017-05-22T09:02:06Z</time>
      </trkpt>
      <trkpt lat="46.01487" lon="4.70743">
        <ele>190</ele>
        <time>2017-05-22T09:02:07Z</time>
      </trkpt>
      <trkpt lat="46.01495" lon="4.70742">
        <ele>190</ele>
        <time>2017-05-22T09:02:08Z</time>
      </trkpt>
      <trkpt lat="46.01502" lon="4.70742">
        <ele>191</ele>
        <time>2017-05-22T09:02:09Z</time>
      </trkpt>
      <trkpt lat="46.0151" lon="4.7074">
        <ele>190</ele>
        <time>2017-05-22T09:02:10Z</time>
      </trkpt>
      <trkpt lat="46.01517" lon="4.70739">
        <ele>190</ele>
        <time>2017-05-22T09:02:11Z</time>
      </trkpt>
      <trkpt lat="46.01525" lon="4.70739">
        <ele>190</ele>
        <time>2017-05-22T09:02:12Z</time>
      </trkpt>
      <trkpt lat="46.01532" lon="4.70738">
        <ele>190</ele>
        <time>2017-05-22T09:02:13Z</time>
      </trkpt>
      <trkpt lat="46.01539" lon="4.70737">
        <ele>190</ele>
        <time>2017-05-22T09:02:14Z</time>
      </trkpt>
      <trkpt lat="46.01546" lon="4.70736">
        <ele>190</ele>
        <time>2017-05-22T09:02:15Z</time>
      </trkpt>
      <trkpt lat="46.01554" lon="4.70735">
        <ele>190</ele>
        <time>2017-05-22T09:02:16Z</time>
      </trkpt>
      <trkpt lat="46.01561" lon="4.70734">
        <ele>190</ele>
        <time>2017-05-22T09:02:17Z</time>
      </trkpt>
      <trkpt lat="46.01568" lon="4.70733">
        <ele>190</ele>
        <time>2017-05-22T09:02:18Z</time>
      </trkpt>
      <trkpt lat="46.01575" lon="4.70732">
        <ele>190</ele>
        <time>2017-05-22T09:02:19Z</time>
      </trkpt>
      <trkpt lat="46.01582" lon="4.70731">
        <ele>190</ele>
        <time>2017-05-22T09:02:20Z</time>
      </trkpt>
      <trkpt lat="46.01589" lon="4.7073">
        <ele>190</ele>
        <time>2017-05-22T09:02:21Z</time>
      </trkpt>
      <trkpt lat="46.01596" lon="4.70729">
        <ele>190</ele>
        <time>2017-05-22T09:02:22Z</time>
      </trkpt>
      <trkpt lat="46.01603" lon="4.70727">
        <ele>190</ele>
        <time>2017-05-22T09:02:23Z</time>
      </trkpt>
      <trkpt lat="46.0161" lon="4.70726">
        <ele>190</ele>
        <time>2017-05-22T09:02:24Z</time>
      </trkpt>
      <trkpt lat="46.01617" lon="4.70725">
        <ele>190</ele>
        <time>2017-05-22T09:02:25Z</time>
      </trkpt>
      <trkpt lat="46.01624" lon="4.70724">
        <ele>190</ele>
        <time>2017-05-22T09:02:26Z</time>
      </trkpt>
      <trkpt lat="46.01631" lon="4.70723">
        <ele>190</ele>
        <time>2017-05-22T09:02:27Z</time>
      </trkpt>
      <trkpt lat="46.01639" lon="4.70723">
        <ele>190</ele>
        <time>2017-05-22T09:02:28Z</time>
      </trkpt>
      <trkpt lat="46.01645" lon="4.70722">
        <ele>190</ele>
        <time>2017-05-22T09:02:29Z</time>
      </trkpt>
      <trkpt lat="46.01652" lon="4.70721">
        <ele>190</ele>
        <time>2017-05-22T09:02:30Z</time>
      </trkpt>
      <trkpt lat="46.01659" lon="4.7072">
        <ele>190</ele>
        <time>2017-05-22T09:02:31Z</time>
      </trkpt>
      <trkpt lat="46.01665" lon="4.7072">
        <ele>190</ele>
        <time>2017-05-22T09:02:32Z</time>
      </trkpt>
      <trkpt lat="46.01672" lon="4.70721">
        <ele>189</ele>
        <time>2017-05-22T09:02:33Z</time>
      </trkpt>
      <trkpt lat="46.01678" lon="4.70721">
        <ele>189</ele>
        <time>2017-05-22T09:02:34Z</time>
      </trkpt>
      <trkpt lat="46.01684" lon="4.70721">
        <ele>189</ele>
        <time>2017-05-22T09:02:35Z</time>
      </trkpt>
      <trkpt lat="46.01691" lon="4.70721">
        <ele>189</ele>
        <time>2017-05-22T09:02:36Z</time>
      </trkpt>
      <trkpt lat="46.01698" lon="4.7072">
        <ele>189</ele>
        <time>2017-05-22T09:02:37Z</time>
      </trkpt>
      <trkpt lat="46.01705" lon="4.7072">
        <ele>189</ele>
        <time>2017-05-22T09:02:38Z</time>
      </trkpt>
      <trkpt lat="46.01714" lon="4.70719">
        <ele>188</ele>
        <time>2017-05-22T09:02:39Z</time>
      </trkpt>
      <trkpt lat="46.01721" lon="4.70718">
        <ele>188</ele>
        <time>2017-05-22T09:02:40Z</time>
      </trkpt>
      <trkpt lat="46.01728" lon="4.70717">
        <ele>188</ele>
        <time>2017-05-22T09:02:41Z</time>
      </trkpt>
      <trkpt lat="46.01735" lon="4.70717">
        <ele>188</ele>
        <time>2017-05-22T09:02:42Z</time>
      </trkpt>
      <trkpt lat="46.01742" lon="4.70716">
        <ele>188</ele>
        <time>2017-05-22T09:02:43Z</time>
      </trkpt>
      <trkpt lat="46.01749" lon="4.70715">
        <ele>188</ele>
        <time>2017-05-22T09:02:44Z</time>
      </trkpt>
      <trkpt lat="46.01756" lon="4.70715">
        <ele>187</ele>
        <time>2017-05-22T09:02:45Z</time>
      </trkpt>
      <trkpt lat="46.01763" lon="4.70713">
        <ele>187</ele>
        <time>2017-05-22T09:02:46Z</time>
      </trkpt>
      <trkpt lat="46.01772" lon="4.70713">
        <ele>187</ele>
        <time>2017-05-22T09:02:47Z</time>
      </trkpt>
      <trkpt lat="46.01779" lon="4.70712">
        <ele>187</ele>
        <time>2017-05-22T09:02:48Z</time>
      </trkpt>
      <trkpt lat="46.01787" lon="4.70712">
        <ele>187</ele>
        <time>2017-05-22T09:02:49Z</time>
      </trkpt>
      <trkpt lat="46.01795" lon="4.70711">
        <ele>187</ele>
        <time>2017-05-22T09:02:50Z</time>
      </trkpt>
      <trkpt lat="46.01804" lon="4.7071">
        <ele>187</ele>
        <time>2017-05-22T09:02:51Z</time>
      </trkpt>
      <trkpt lat="46.01813" lon="4.70709">
        <ele>187</ele>
        <time>2017-05-22T09:02:52Z</time>
      </trkpt>
      <trkpt lat="46.01821" lon="4.70708">
        <ele>187</ele>
        <time>2017-05-22T09:02:53Z</time>
      </trkpt>
      <trkpt lat="46.0183" lon="4.70707">
        <ele>187</ele>
        <time>2017-05-22T09:02:54Z</time>
      </trkpt>
      <trkpt lat="46.01839" lon="4.70705">
        <ele>185</ele>
        <time>2017-05-22T09:02:55Z</time>
      </trkpt>
      <trkpt lat="46.01848" lon="4.70705">
        <ele>185</ele>
        <time>2017-05-22T09:02:56Z</time>
      </trkpt>
      <trkpt lat="46.01856" lon="4.70704">
        <ele>185</ele>
        <time>2017-05-22T09:02:57Z</time>
      </trkpt>
      <trkpt lat="46.01865" lon="4.70702">
        <ele>185</ele>
        <time>2017-05-22T09:02:58Z</time>
      </trkpt>
      <trkpt lat="46.01874" lon="4.70701">
        <ele>185</ele>
        <time>2017-05-22T09:02:59Z</time>
      </trkpt>
      <trkpt lat="46.01882" lon="4.70701">
        <ele>184</ele>
        <time>2017-05-22T09:03:00Z</time>
      </trkpt>
      <trkpt lat="46.01889" lon="4.70701">
        <ele>184</ele>
        <time>2017-05-22T09:03:01Z</time>
      </trkpt>
      <trkpt lat="46.01897" lon="4.70701">
        <ele>184</ele>
        <time>2017-05-22T09:03:02Z</time>
      </trkpt>
      <trkpt lat="46.01905" lon="4.70701">
        <ele>184</ele>
        <time>2017-05-22T09:03:03Z</time>
      </trkpt>
      <trkpt lat="46.01913" lon="4.70702">
        <ele>184</ele>
        <time>2017-05-22T09:03:04Z</time>
      </trkpt>
      <trkpt lat="46.01922" lon="4.70702">
        <ele>182</ele>
        <time>2017-05-22T09:03:05Z</time>
      </trkpt>
      <trkpt lat="46.0193" lon="4.70703">
        <ele>182</ele>
        <time>2017-05-22T09:03:06Z</time>
      </trkpt>
      <trkpt lat="46.01937" lon="4.70704">
        <ele>182</ele>
        <time>2017-05-22T09:03:07Z</time>
      </trkpt>
      <trkpt lat="46.01945" lon="4.70706">
        <ele>182</ele>
        <time>2017-05-22T09:03:08Z</time>
      </trkpt>
      <trkpt lat="46.01952" lon="4.70707">
        <ele>181</ele>
        <time>2017-05-22T09:03:09Z</time>
      </trkpt>
      <trkpt lat="46.0196" lon="4.70708">
        <ele>181</ele>
        <time>2017-05-22T09:03:10Z</time>
      </trkpt>
      <trkpt lat="46.01968" lon="4.70709">
        <ele>181</ele>
        <time>2017-05-22T09:03:11Z</time>
      </trkpt>
      <trkpt lat="46.01975" lon="4.7071">
        <ele>181</ele>
        <time>2017-05-22T09:03:12Z</time>
      </trkpt>
      <trkpt lat="46.01982" lon="4.70711">
        <ele>181</ele>
        <time>2017-05-22T09:03:13Z</time>
      </trkpt>
      <trkpt lat="46.0199" lon="4.70712">
        <ele>181</ele>
        <time>2017-05-22T09:03:14Z</time>
      </trkpt>
      <trkpt lat="46.01997" lon="4.70713">
        <ele>181</ele>
        <time>2017-05-22T09:03:15Z</time>
      </trkpt>
      <trkpt lat="46.02004" lon="4.70714">
        <ele>179</ele>
        <time>2017-05-22T09:03:16Z</time>
      </trkpt>
      <trkpt lat="46.02012" lon="4.70715">
        <ele>179</ele>
        <time>2017-05-22T09:03:17Z</time>
      </trkpt>
      <trkpt lat="46.0202" lon="4.70716">
        <ele>179</ele>
        <time>2017-05-22T09:03:18Z</time>
      </trkpt>
      <trkpt lat="46.02027" lon="4.70718">
        <ele>179</ele>
        <time>2017-05-22T09:03:19Z</time>
      </trkpt>
      <trkpt lat="46.02034" lon="4.70719">
        <ele>179</ele>
        <time>2017-05-22T09:03:20Z</time>
      </trkpt>
      <trkpt lat="46.02042" lon="4.70721">
        <ele>179</ele>
        <time>2017-05-22T09:03:21Z</time>
      </trkpt>
      <trkpt lat="46.02049" lon="4.70722">
        <ele>179</ele>
        <time>2017-05-22T09:03:22Z</time>
      </trkpt>
      <trkpt lat="46.02057" lon="4.70724">
        <ele>179</ele>
        <time>2017-05-22T09:03:23Z</time>
      </trkpt>
      <trkpt lat="46.02064" lon="4.70726">
        <ele>179</ele>
        <time>2017-05-22T09:03:24Z</time>
      </trkpt>
      <trkpt lat="46.02071" lon="4.70728">
        <ele>178</ele>
        <time>2017-05-22T09:03:25Z</time>
      </trkpt>
      <trkpt lat="46.02078" lon="4.7073">
        <ele>178</ele>
        <time>2017-05-22T09:03:26Z</time>
      </trkpt>
      <trkpt lat="46.02086" lon="4.70732">
        <ele>178</ele>
        <time>2017-05-22T09:03:27Z</time>
      </trkpt>
      <trkpt lat="46.02093" lon="4.70733">
        <ele>178</ele>
        <time>2017-05-22T09:03:28Z</time>
      </trkpt>
      <trkpt lat="46.021" lon="4.70734">
        <ele>178</ele>
        <time>2017-05-22T09:03:29Z</time>
      </trkpt>
      <trkpt lat="46.02107" lon="4.70736">
        <ele>178</ele>
        <time>2017-05-22T09:03:30Z</time>
      </trkpt>
      <trkpt lat="46.02114" lon="4.70738">
        <ele>179</ele>
        <time>2017-05-22T09:03:31Z</time>
      </trkpt>
      <trkpt lat="46.02121" lon="4.70739">
        <ele>179</ele>
        <time>2017-05-22T09:03:32Z</time>
      </trkpt>
      <trkpt lat="46.02128" lon="4.7074">
        <ele>179</ele>
        <time>2017-05-22T09:03:33Z</time>
      </trkpt>
      <trkpt lat="46.02135" lon="4.70741">
        <ele>179</ele>
        <time>2017-05-22T09:03:34Z</time>
      </trkpt>
      <trkpt lat="46.02142" lon="4.70743">
        <ele>179</ele>
        <time>2017-05-22T09:03:35Z</time>
      </trkpt>
      <trkpt lat="46.02149" lon="4.70744">
        <ele>179</ele>
        <time>2017-05-22T09:03:36Z</time>
      </trkpt>
      <trkpt lat="46.02156" lon="4.70746">
        <ele>179</ele>
        <time>2017-05-22T09:03:37Z</time>
      </trkpt>
      <trkpt lat="46.02162" lon="4.70747">
        <ele>179</ele>
        <time>2017-05-22T09:03:38Z</time>
      </trkpt>
      <trkpt lat="46.02168" lon="4.70748">
        <ele>179</ele>
        <time>2017-05-22T09:03:39Z</time>
      </trkpt>
      <trkpt lat="46.02174" lon="4.7075">
        <ele>179</ele>
        <time>2017-05-22T09:03:40Z</time>
      </trkpt>
      <trkpt lat="46.02181" lon="4.70751">
        <ele>179</ele>
        <time>2017-05-22T09:03:41Z</time>
      </trkpt>
      <trkpt lat="46.02187" lon="4.70752">
        <ele>179</ele>
        <time>2017-05-22T09:03:42Z</time>
      </trkpt>
      <trkpt lat="46.02193" lon="4.70753">
        <ele>179</ele>
        <time>2017-05-22T09:03:43Z</time>
      </trkpt>
      <trkpt lat="46.02199" lon="4.70754">
        <ele>179</ele>
        <time>2017-05-22T09:03:44Z</time>
      </trkpt>
      <trkpt lat="46.02205" lon="4.70755">
        <ele>179</ele>
        <time>2017-05-22T09:03:45Z</time>
      </trkpt>
      <trkpt lat="46.02211" lon="4.70756">
        <ele>180</ele>
        <time>2017-05-22T09:03:46Z</time>
      </trkpt>
      <trkpt lat="46.02216" lon="4.70757">
        <ele>180</ele>
        <time>2017-05-22T09:03:47Z</time>
      </trkpt>
      <trkpt lat="46.02221" lon="4.70757">
        <ele>180</ele>
        <time>2017-05-22T09:03:48Z</time>
      </trkpt>
      <trkpt lat="46.02228" lon="4.70758">
        <ele>180</ele>
        <time>2017-05-22T09:03:49Z</time>
      </trkpt>
      <trkpt lat="46.02234" lon="4.70759">
        <ele>180</ele>
        <time>2017-05-22T09:03:50Z</time>
      </trkpt>
      <trkpt lat="46.0224" lon="4.7076">
        <ele>180</ele>
        <time>2017-05-22T09:03:51Z</time>
      </trkpt>
      <trkpt lat="46.02246" lon="4.70761">
        <ele>180</ele>
        <time>2017-05-22T09:03:52Z</time>
      </trkpt>
      <trkpt lat="46.02252" lon="4.70761">
        <ele>181</ele>
        <time>2017-05-22T09:03:53Z</time>
      </trkpt>
      <trkpt lat="46.02258" lon="4.70762">
        <ele>181</ele>
        <time>2017-05-22T09:03:54Z</time>
      </trkpt>
      <trkpt lat="46.02264" lon="4.70763">
        <ele>181</ele>
        <time>2017-05-22T09:03:55Z</time>
      </trkpt>
      <trkpt lat="46.02269" lon="4.70764">
        <ele>181</ele>
        <time>2017-05-22T09:03:56Z</time>
      </trkpt>
      <trkpt lat="46.02275" lon="4.70765">
        <ele>181</ele>
        <time>2017-05-22T09:03:57Z</time>
      </trkpt>
      <trkpt lat="46.02281" lon="4.70766">
        <ele>181</ele>
        <time>2017-05-22T09:03:58Z</time>
      </trkpt>
      <trkpt lat="46.02287" lon="4.70767">
        <ele>181</ele>
        <time>2017-05-22T09:03:59Z</time>
      </trkpt>
      <trkpt lat="46.02292" lon="4.70768">
        <ele>180</ele>
        <time>2017-05-22T09:04:00Z</time>
      </trkpt>
      <trkpt lat="46.02298" lon="4.70769">
        <ele>180</ele>
        <time>2017-05-22T09:04:01Z</time>
      </trkpt>
      <trkpt lat="46.02303" lon="4.7077">
        <ele>180</ele>
        <time>2017-05-22T09:04:02Z</time>
      </trkpt>
      <trkpt lat="46.02309" lon="4.70772">
        <ele>180</ele>
        <time>2017-05-22T09:04:03Z</time>
      </trkpt>
      <trkpt lat="46.02314" lon="4.70774">
        <ele>180</ele>
        <time>2017-05-22T09:04:04Z</time>
      </trkpt>
      <trkpt lat="46.02319" lon="4.70776">
        <ele>180</ele>
        <time>2017-05-22T09:04:05Z</time>
      </trkpt>
      <trkpt lat="46.02325" lon="4.70777">
        <ele>180</ele>
        <time>2017-05-22T09:04:06Z</time>
      </trkpt>
      <trkpt lat="46.0233" lon="4.70779">
        <ele>180</ele>
        <time>2017-05-22T09:04:07Z</time>
      </trkpt>
      <trkpt lat="46.02336" lon="4.70781">
        <ele>182</ele>
        <time>2017-05-22T09:04:08Z</time>
      </trkpt>
      <trkpt lat="46.02342" lon="4.70782">
        <ele>183</ele>
        <time>2017-05-22T09:04:09Z</time>
      </trkpt>
      <trkpt lat="46.02348" lon="4.70783">
        <ele>183</ele>
        <time>2017-05-22T09:04:10Z</time>
      </trkpt>
      <trkpt lat="46.02354" lon="4.70785">
        <ele>183</ele>
        <time>2017-05-22T09:04:11Z</time>
      </trkpt>
      <trkpt lat="46.02361" lon="4.70786">
        <ele>183</ele>
        <time>2017-05-22T09:04:12Z</time>
      </trkpt>
      <trkpt lat="46.02367" lon="4.70787">
        <ele>183</ele>
        <time>2017-05-22T09:04:13Z</time>
      </trkpt>
      <trkpt lat="46.02373" lon="4.70788">
        <ele>184</ele>
        <time>2017-05-22T09:04:14Z</time>
      </trkpt>
      <trkpt lat="46.0238" lon="4.70789">
        <ele>184</ele>
        <time>2017-05-22T09:04:15Z</time>
      </trkpt>
      <trkpt lat="46.02386" lon="4.7079">
        <ele>184</ele>
        <time>2017-05-22T09:04:16Z</time>
      </trkpt>
      <trkpt lat="46.02392" lon="4.7079">
        <ele>184</ele>
        <time>2017-05-22T09:04:17Z</time>
      </trkpt>
      <trkpt lat="46.02399" lon="4.70789">
        <ele>185</ele>
        <time>2017-05-22T09:04:18Z</time>
      </trkpt>
      <trkpt lat="46.02406" lon="4.70789">
        <ele>185</ele>
        <time>2017-05-22T09:04:19Z</time>
      </trkpt>
      <trkpt lat="46.02412" lon="4.70788">
        <ele>185</ele>
        <time>2017-05-22T09:04:20Z</time>
      </trkpt>
      <trkpt lat="46.02418" lon="4.70788">
        <ele>189</ele>
        <time>2017-05-22T09:04:21Z</time>
      </trkpt>
      <trkpt lat="46.02424" lon="4.70786">
        <ele>189</ele>
        <time>2017-05-22T09:04:22Z</time>
      </trkpt>
      <trkpt lat="46.02429" lon="4.70784">
        <ele>189</ele>
        <time>2017-05-22T09:04:23Z</time>
      </trkpt>
      <trkpt lat="46.02432" lon="4.70778">
        <ele>189</ele>
        <time>2017-05-22T09:04:24Z</time>
      </trkpt>
      <trkpt lat="46.02435" lon="4.70769">
        <ele>189</ele>
        <time>2017-05-22T09:04:26Z</time>
      </trkpt>
      <trkpt lat="46.02438" lon="4.70762">
        <ele>189</ele>
        <time>2017-05-22T09:04:27Z</time>
      </trkpt>
      <trkpt lat="46.02442" lon="4.70756">
        <ele>189</ele>
        <time>2017-05-22T09:04:28Z</time>
      </trkpt>
      <trkpt lat="46.02445" lon="4.70749">
        <ele>190</ele>
        <time>2017-05-22T09:04:29Z</time>
      </trkpt>
      <trkpt lat="46.02447" lon="4.70742">
        <ele>190</ele>
        <time>2017-05-22T09:04:30Z</time>
      </trkpt>
      <trkpt lat="46.02449" lon="4.70735">
        <ele>190</ele>
        <time>2017-05-22T09:04:31Z</time>
      </trkpt>
      <trkpt lat="46.02451" lon="4.70729">
        <ele>190</ele>
        <time>2017-05-22T09:04:32Z</time>
      </trkpt>
      <trkpt lat="46.02453" lon="4.70722">
        <ele>190</ele>
        <time>2017-05-22T09:04:33Z</time>
      </trkpt>
      <trkpt lat="46.02456" lon="4.70715">
        <ele>190</ele>
        <time>2017-05-22T09:04:34Z</time>
      </trkpt>
      <trkpt lat="46.02457" lon="4.70708">
        <ele>190</ele>
        <time>2017-05-22T09:04:35Z</time>
      </trkpt>
      <trkpt lat="46.0246" lon="4.70702">
        <ele>190</ele>
        <time>2017-05-22T09:04:36Z</time>
      </trkpt>
      <trkpt lat="46.02461" lon="4.70695">
        <ele>190</ele>
        <time>2017-05-22T09:04:37Z</time>
      </trkpt>
      <trkpt lat="46.02463" lon="4.70689">
        <ele>190</ele>
        <time>2017-05-22T09:04:38Z</time>
      </trkpt>
      <trkpt lat="46.02464" lon="4.70683">
        <ele>190</ele>
        <time>2017-05-22T09:04:39Z</time>
      </trkpt>
      <trkpt lat="46.02465" lon="4.70676">
        <ele>190</ele>
        <time>2017-05-22T09:04:40Z</time>
      </trkpt>
      <trkpt lat="46.02466" lon="4.70669">
        <ele>190</ele>
        <time>2017-05-22T09:04:41Z</time>
      </trkpt>
      <trkpt lat="46.02468" lon="4.70662">
        <ele>189</ele>
        <time>2017-05-22T09:04:42Z</time>
      </trkpt>
      <trkpt lat="46.02469" lon="4.70656">
        <ele>189</ele>
        <time>2017-05-22T09:04:43Z</time>
      </trkpt>
      <trkpt lat="46.02471" lon="4.70649">
        <ele>189</ele>
        <time>2017-05-22T09:04:44Z</time>
      </trkpt>
      <trkpt lat="46.02472" lon="4.70643">
        <ele>188</ele>
        <time>2017-05-22T09:04:45Z</time>
      </trkpt>
      <trkpt lat="46.02476" lon="4.70632">
        <ele>188</ele>
        <time>2017-05-22T09:04:47Z</time>
      </trkpt>
      <trkpt lat="46.02481" lon="4.7063">
        <ele>188</ele>
        <time>2017-05-22T09:04:48Z</time>
      </trkpt>
      <trkpt lat="46.02487" lon="4.70628">
        <ele>188</ele>
        <time>2017-05-22T09:04:49Z</time>
      </trkpt>
      <trkpt lat="46.02494" lon="4.70628">
        <ele>188</ele>
        <time>2017-05-22T09:04:50Z</time>
      </trkpt>
      <trkpt lat="46.02502" lon="4.7063">
        <ele>189</ele>
        <time>2017-05-22T09:04:52Z</time>
      </trkpt>
      <trkpt lat="46.02505" lon="4.70631">
        <ele>189</ele>
        <time>2017-05-22T09:04:53Z</time>
      </trkpt>
      <trkpt lat="46.02513" lon="4.70635">
        <ele>189</ele>
        <time>2017-05-22T09:04:55Z</time>
      </trkpt>
      <trkpt lat="46.02516" lon="4.70636">
        <ele>189</ele>
        <time>2017-05-22T09:04:56Z</time>
      </trkpt>
      <trkpt lat="46.02524" lon="4.70639">
        <ele>189</ele>
        <time>2017-05-22T09:04:58Z</time>
      </trkpt>
      <trkpt lat="46.02529" lon="4.7064">
        <ele>189</ele>
        <time>2017-05-22T09:04:59Z</time>
      </trkpt>
      <trkpt lat="46.02534" lon="4.70641">
        <ele>189</ele>
        <time>2017-05-22T09:05:00Z</time>
      </trkpt>
      <trkpt lat="46.0254" lon="4.70643">
        <ele>189</ele>
        <time>2017-05-22T09:05:01Z</time>
      </trkpt>
      <trkpt lat="46.02545" lon="4.70644">
        <ele>189</ele>
        <time>2017-05-22T09:05:02Z</time>
      </trkpt>
      <trkpt lat="46.02552" lon="4.70645">
        <ele>189</ele>
        <time>2017-05-22T09:05:03Z</time>
      </trkpt>
      <trkpt lat="46.02558" lon="4.70648">
        <ele>189</ele>
        <time>2017-05-22T09:05:04Z</time>
      </trkpt>
      <trkpt lat="46.02564" lon="4.7065">
        <ele>190</ele>
        <time>2017-05-22T09:05:05Z</time>
      </trkpt>
      <trkpt lat="46.0257" lon="4.70652">
        <ele>190</ele>
        <time>2017-05-22T09:05:06Z</time>
      </trkpt>
      <trkpt lat="46.02576" lon="4.70653">
        <ele>190</ele>
        <time>2017-05-22T09:05:07Z</time>
      </trkpt>
      <trkpt lat="46.02582" lon="4.70654">
        <ele>190</ele>
        <time>2017-05-22T09:05:08Z</time>
      </trkpt>
      <trkpt lat="46.02589" lon="4.70655">
        <ele>190</ele>
        <time>2017-05-22T09:05:09Z</time>
      </trkpt>
      <trkpt lat="46.02597" lon="4.70655">
        <ele>190</ele>
        <time>2017-05-22T09:05:10Z</time>
      </trkpt>
      <trkpt lat="46.02604" lon="4.70656">
        <ele>190</ele>
        <time>2017-05-22T09:05:11Z</time>
      </trkpt>
      <trkpt lat="46.0261" lon="4.70658">
        <ele>190</ele>
        <time>2017-05-22T09:05:12Z</time>
      </trkpt>
      <trkpt lat="46.02617" lon="4.70659">
        <ele>190</ele>
        <time>2017-05-22T09:05:13Z</time>
      </trkpt>
      <trkpt lat="46.02623" lon="4.70661">
        <ele>190</ele>
        <time>2017-05-22T09:05:14Z</time>
      </trkpt>
      <trkpt lat="46.02629" lon="4.70661">
        <ele>190</ele>
        <time>2017-05-22T09:05:15Z</time>
      </trkpt>
      <trkpt lat="46.02635" lon="4.70662">
        <ele>190</ele>
        <time>2017-05-22T09:05:16Z</time>
      </trkpt>
      <trkpt lat="46.02641" lon="4.70663">
        <ele>190</ele>
        <time>2017-05-22T09:05:17Z</time>
      </trkpt>
      <trkpt lat="46.02646" lon="4.70664">
        <ele>190</ele>
        <time>2017-05-22T09:05:18Z</time>
      </trkpt>
      <trkpt lat="46.02652" lon="4.70664">
        <ele>190</ele>
        <time>2017-05-22T09:05:19Z</time>
      </trkpt>
      <trkpt lat="46.02658" lon="4.70664">
        <ele>190</ele>
        <time>2017-05-22T09:05:20Z</time>
      </trkpt>
      <trkpt lat="46.02664" lon="4.70664">
        <ele>190</ele>
        <time>2017-05-22T09:05:21Z</time>
      </trkpt>
      <trkpt lat="46.02669" lon="4.70665">
        <ele>190</ele>
        <time>2017-05-22T09:05:22Z</time>
      </trkpt>
      <trkpt lat="46.02673" lon="4.70665">
        <ele>190</ele>
        <time>2017-05-22T09:05:23Z</time>
      </trkpt>
      <trkpt lat="46.02678" lon="4.70666">
        <ele>190</ele>
        <time>2017-05-22T09:05:24Z</time>
      </trkpt>
      <trkpt lat="46.02683" lon="4.70667">
        <ele>190</ele>
        <time>2017-05-22T09:05:25Z</time>
      </trkpt>
      <trkpt lat="46.02691" lon="4.70669">
        <ele>190</ele>
        <time>2017-05-22T09:05:27Z</time>
      </trkpt>
      <trkpt lat="46.02696" lon="4.70669">
        <ele>190</ele>
        <time>2017-05-22T09:05:28Z</time>
      </trkpt>
      <trkpt lat="46.02701" lon="4.7067">
        <ele>190</ele>
        <time>2017-05-22T09:05:29Z</time>
      </trkpt>
      <trkpt lat="46.02706" lon="4.7067">
        <ele>190</ele>
        <time>2017-05-22T09:05:30Z</time>
      </trkpt>
      <trkpt lat="46.02711" lon="4.70671">
        <ele>189</ele>
        <time>2017-05-22T09:05:31Z</time>
      </trkpt>
      <trkpt lat="46.02717" lon="4.70672">
        <ele>189</ele>
        <time>2017-05-22T09:05:32Z</time>
      </trkpt>
      <trkpt lat="46.02723" lon="4.70672">
        <ele>189</ele>
        <time>2017-05-22T09:05:33Z</time>
      </trkpt>
      <trkpt lat="46.02729" lon="4.70673">
        <ele>189</ele>
        <time>2017-05-22T09:05:34Z</time>
      </trkpt>
      <trkpt lat="46.02735" lon="4.70674">
        <ele>189</ele>
        <time>2017-05-22T09:05:35Z</time>
      </trkpt>
      <trkpt lat="46.02741" lon="4.70674">
        <ele>189</ele>
        <time>2017-05-22T09:05:36Z</time>
      </trkpt>
      <trkpt lat="46.02747" lon="4.70675">
        <ele>189</ele>
        <time>2017-05-22T09:05:37Z</time>
      </trkpt>
      <trkpt lat="46.02754" lon="4.70675">
        <ele>189</ele>
        <time>2017-05-22T09:05:38Z</time>
      </trkpt>
      <trkpt lat="46.02759" lon="4.70676">
        <ele>189</ele>
        <time>2017-05-22T09:05:39Z</time>
      </trkpt>
      <trkpt lat="46.02765" lon="4.70676">
        <ele>189</ele>
        <time>2017-05-22T09:05:40Z</time>
      </trkpt>
      <trkpt lat="46.02771" lon="4.70676">
        <ele>189</ele>
        <time>2017-05-22T09:05:41Z</time>
      </trkpt>
      <trkpt lat="46.02776" lon="4.70677">
        <ele>189</ele>
        <time>2017-05-22T09:05:42Z</time>
      </trkpt>
      <trkpt lat="46.02781" lon="4.70678">
        <ele>189</ele>
        <time>2017-05-22T09:05:43Z</time>
      </trkpt>
      <trkpt lat="46.02786" lon="4.70679">
        <ele>189</ele>
        <time>2017-05-22T09:05:44Z</time>
      </trkpt>
      <trkpt lat="46.02791" lon="4.70679">
        <ele>189</ele>
        <time>2017-05-22T09:05:45Z</time>
      </trkpt>
      <trkpt lat="46.02796" lon="4.70678">
        <ele>189</ele>
        <time>2017-05-22T09:05:46Z</time>
      </trkpt>
      <trkpt lat="46.02801" lon="4.70678">
        <ele>189</ele>
        <time>2017-05-22T09:05:47Z</time>
      </trkpt>
      <trkpt lat="46.02806" lon="4.70678">
        <ele>189</ele>
        <time>2017-05-22T09:05:48Z</time>
      </trkpt>
      <trkpt lat="46.02811" lon="4.70677">
        <ele>189</ele>
        <time>2017-05-22T09:05:49Z</time>
      </trkpt>
      <trkpt lat="46.02817" lon="4.70677">
        <ele>189</ele>
        <time>2017-05-22T09:05:50Z</time>
      </trkpt>
      <trkpt lat="46.02822" lon="4.70676">
        <ele>189</ele>
        <time>2017-05-22T09:05:51Z</time>
      </trkpt>
      <trkpt lat="46.02829" lon="4.70674">
        <ele>189</ele>
        <time>2017-05-22T09:05:52Z</time>
      </trkpt>
      <trkpt lat="46.02835" lon="4.70673">
        <ele>189</ele>
        <time>2017-05-22T09:05:53Z</time>
      </trkpt>
      <trkpt lat="46.02841" lon="4.70672">
        <ele>189</ele>
        <time>2017-05-22T09:05:54Z</time>
      </trkpt>
      <trkpt lat="46.02846" lon="4.70671">
        <ele>189</ele>
        <time>2017-05-22T09:05:55Z</time>
      </trkpt>
      <trkpt lat="46.02851" lon="4.70671">
        <ele>189</ele>
        <time>2017-05-22T09:05:56Z</time>
      </trkpt>
      <trkpt lat="46.02856" lon="4.7067">
        <ele>190</ele>
        <time>2017-05-22T09:05:57Z</time>
      </trkpt>
      <trkpt lat="46.02861" lon="4.70669">
        <ele>190</ele>
        <time>2017-05-22T09:05:58Z</time>
      </trkpt>
      <trkpt lat="46.02866" lon="4.70669">
        <ele>190</ele>
        <time>2017-05-22T09:05:59Z</time>
      </trkpt>
      <trkpt lat="46.02872" lon="4.70668">
        <ele>190</ele>
        <time>2017-05-22T09:06:00Z</time>
      </trkpt>
      <trkpt lat="46.02878" lon="4.70668">
        <ele>190</ele>
        <time>2017-05-22T09:06:01Z</time>
      </trkpt>
      <trkpt lat="46.02883" lon="4.70668">
        <ele>190</ele>
        <time>2017-05-22T09:06:02Z</time>
      </trkpt>
      <trkpt lat="46.02889" lon="4.70668">
        <ele>190</ele>
        <time>2017-05-22T09:06:03Z</time>
      </trkpt>
      <trkpt lat="46.02896" lon="4.70669">
        <ele>190</ele>
        <time>2017-05-22T09:06:04Z</time>
      </trkpt>
      <trkpt lat="46.02902" lon="4.70668">
        <ele>190</ele>
        <time>2017-05-22T09:06:05Z</time>
      </trkpt>
      <trkpt lat="46.02909" lon="4.70667">
        <ele>191</ele>
        <time>2017-05-22T09:06:06Z</time>
      </trkpt>
      <trkpt lat="46.02915" lon="4.70664">
        <ele>191</ele>
        <time>2017-05-22T09:06:07Z</time>
      </trkpt>
      <trkpt lat="46.02921" lon="4.70658">
        <ele>191</ele>
        <time>2017-05-22T09:06:08Z</time>
      </trkpt>
      <trkpt lat="46.02925" lon="4.70652">
        <ele>191</ele>
        <time>2017-05-22T09:06:09Z</time>
      </trkpt>
      <trkpt lat="46.02928" lon="4.70645">
        <ele>192</ele>
        <time>2017-05-22T09:06:10Z</time>
      </trkpt>
      <trkpt lat="46.02931" lon="4.70637">
        <ele>192</ele>
        <time>2017-05-22T09:06:11Z</time>
      </trkpt>
      <trkpt lat="46.02932" lon="4.7063">
        <ele>192</ele>
        <time>2017-05-22T09:06:12Z</time>
      </trkpt>
      <trkpt lat="46.02934" lon="4.70623">
        <ele>192</ele>
        <time>2017-05-22T09:06:13Z</time>
      </trkpt>
      <trkpt lat="46.02935" lon="4.70617">
        <ele>192</ele>
        <time>2017-05-22T09:06:14Z</time>
      </trkpt>
      <trkpt lat="46.02937" lon="4.7061">
        <ele>192</ele>
        <time>2017-05-22T09:06:15Z</time>
      </trkpt>
      <trkpt lat="46.02939" lon="4.70604">
        <ele>192</ele>
        <time>2017-05-22T09:06:16Z</time>
      </trkpt>
      <trkpt lat="46.0294" lon="4.70597">
        <ele>192</ele>
        <time>2017-05-22T09:06:17Z</time>
      </trkpt>
      <trkpt lat="46.02942" lon="4.70591">
        <ele>192</ele>
        <time>2017-05-22T09:06:18Z</time>
      </trkpt>
      <trkpt lat="46.02945" lon="4.70583">
        <ele>191</ele>
        <time>2017-05-22T09:06:19Z</time>
      </trkpt>
      <trkpt lat="46.02949" lon="4.70577">
        <ele>191</ele>
        <time>2017-05-22T09:06:20Z</time>
      </trkpt>
      <trkpt lat="46.02953" lon="4.7057">
        <ele>191</ele>
        <time>2017-05-22T09:06:21Z</time>
      </trkpt>
      <trkpt lat="46.02958" lon="4.70563">
        <ele>191</ele>
        <time>2017-05-22T09:06:22Z</time>
      </trkpt>
      <trkpt lat="46.02962" lon="4.70555">
        <ele>191</ele>
        <time>2017-05-22T09:06:23Z</time>
      </trkpt>
      <trkpt lat="46.02967" lon="4.70549">
        <ele>191</ele>
        <time>2017-05-22T09:06:24Z</time>
      </trkpt>
      <trkpt lat="46.02972" lon="4.70545">
        <ele>191</ele>
        <time>2017-05-22T09:06:25Z</time>
      </trkpt>
      <trkpt lat="46.02977" lon="4.7054">
        <ele>191</ele>
        <time>2017-05-22T09:06:26Z</time>
      </trkpt>
      <trkpt lat="46.02981" lon="4.70534">
        <ele>191</ele>
        <time>2017-05-22T09:06:27Z</time>
      </trkpt>
      <trkpt lat="46.02986" lon="4.70529">
        <ele>191</ele>
        <time>2017-05-22T09:06:28Z</time>
      </trkpt>
      <trkpt lat="46.0299" lon="4.70525">
        <ele>191</ele>
        <time>2017-05-22T09:06:29Z</time>
      </trkpt>
      <trkpt lat="46.02995" lon="4.7052">
        <ele>191</ele>
        <time>2017-05-22T09:06:30Z</time>
      </trkpt>
      <trkpt lat="46.02999" lon="4.70516">
        <ele>191</ele>
        <time>2017-05-22T09:06:31Z</time>
      </trkpt>
      <trkpt lat="46.03004" lon="4.70512">
        <ele>191</ele>
        <time>2017-05-22T09:06:32Z</time>
      </trkpt>
      <trkpt lat="46.03008" lon="4.70508">
        <ele>191</ele>
        <time>2017-05-22T09:06:33Z</time>
      </trkpt>
      <trkpt lat="46.03012" lon="4.70504">
        <ele>191</ele>
        <time>2017-05-22T09:06:34Z</time>
      </trkpt>
      <trkpt lat="46.03016" lon="4.70501">
        <ele>191</ele>
        <time>2017-05-22T09:06:35Z</time>
      </trkpt>
      <trkpt lat="46.03019" lon="4.70497">
        <ele>191</ele>
        <time>2017-05-22T09:06:36Z</time>
      </trkpt>
      <trkpt lat="46.03024" lon="4.70492">
        <ele>191</ele>
        <time>2017-05-22T09:06:37Z</time>
      </trkpt>
      <trkpt lat="46.03028" lon="4.70488">
        <ele>191</ele>
        <time>2017-05-22T09:06:38Z</time>
      </trkpt>
      <trkpt lat="46.03033" lon="4.70483">
        <ele>191</ele>
        <time>2017-05-22T09:06:39Z</time>
      </trkpt>
      <trkpt lat="46.03038" lon="4.70479">
        <ele>191</ele>
        <time>2017-05-22T09:06:40Z</time>
      </trkpt>
      <trkpt lat="46.03044" lon="4.70474">
        <ele>191</ele>
        <time>2017-05-22T09:06:41Z</time>
      </trkpt>
      <trkpt lat="46.03049" lon="4.70468">
        <ele>191</ele>
        <time>2017-05-22T09:06:42Z</time>
      </trkpt>
      <trkpt lat="46.03055" lon="4.70463">
        <ele>191</ele>
        <time>2017-05-22T09:06:43Z</time>
      </trkpt>
      <trkpt lat="46.03062" lon="4.70459">
        <ele>191</ele>
        <time>2017-05-22T09:06:44Z</time>
      </trkpt>
      <trkpt lat="46.03068" lon="4.70455">
        <ele>191</ele>
        <time>2017-05-22T09:06:45Z</time>
      </trkpt>
      <trkpt lat="46.03074" lon="4.70451">
        <ele>191</ele>
        <time>2017-05-22T09:06:46Z</time>
      </trkpt>
      <trkpt lat="46.0308" lon="4.70448">
        <ele>191</ele>
        <time>2017-05-22T09:06:47Z</time>
      </trkpt>
      <trkpt lat="46.03086" lon="4.70445">
        <ele>192</ele>
        <time>2017-05-22T09:06:48Z</time>
      </trkpt>
      <trkpt lat="46.03091" lon="4.70443">
        <ele>192</ele>
        <time>2017-05-22T09:06:49Z</time>
      </trkpt>
      <trkpt lat="46.03097" lon="4.70441">
        <ele>192</ele>
        <time>2017-05-22T09:06:50Z</time>
      </trkpt>
      <trkpt lat="46.03102" lon="4.70438">
        <ele>192</ele>
        <time>2017-05-22T09:06:51Z</time>
      </trkpt>
      <trkpt lat="46.03107" lon="4.70436">
        <ele>192</ele>
        <time>2017-05-22T09:06:52Z</time>
      </trkpt>
      <trkpt lat="46.03112" lon="4.70434">
        <ele>192</ele>
        <time>2017-05-22T09:06:53Z</time>
      </trkpt>
      <trkpt lat="46.03117" lon="4.70432">
        <ele>192</ele>
        <time>2017-05-22T09:06:54Z</time>
      </trkpt>
      <trkpt lat="46.03123" lon="4.70429">
        <ele>192</ele>
        <time>2017-05-22T09:06:55Z</time>
      </trkpt>
      <trkpt lat="46.03128" lon="4.70425">
        <ele>192</ele>
        <time>2017-05-22T09:06:56Z</time>
      </trkpt>
      <trkpt lat="46.03133" lon="4.70423">
        <ele>192</ele>
        <time>2017-05-22T09:06:57Z</time>
      </trkpt>
      <trkpt lat="46.03138" lon="4.7042">
        <ele>192</ele>
        <time>2017-05-22T09:06:58Z</time>
      </trkpt>
      <trkpt lat="46.03143" lon="4.70418">
        <ele>192</ele>
        <time>2017-05-22T09:06:59Z</time>
      </trkpt>
      <trkpt lat="46.03148" lon="4.70415">
        <ele>192</ele>
        <time>2017-05-22T09:07:00Z</time>
      </trkpt>
      <trkpt lat="46.03153" lon="4.70413">
        <ele>192</ele>
        <time>2017-05-22T09:07:01Z</time>
      </trkpt>
      <trkpt lat="46.03157" lon="4.70411">
        <ele>192</ele>
        <time>2017-05-22T09:07:02Z</time>
      </trkpt>
      <trkpt lat="46.03163" lon="4.70409">
        <ele>192</ele>
        <time>2017-05-22T09:07:03Z</time>
      </trkpt>
      <trkpt lat="46.03167" lon="4.70406">
        <ele>192</ele>
        <time>2017-05-22T09:07:04Z</time>
      </trkpt>
      <trkpt lat="46.03172" lon="4.70404">
        <ele>192</ele>
        <time>2017-05-22T09:07:05Z</time>
      </trkpt>
      <trkpt lat="46.03177" lon="4.70401">
        <ele>192</ele>
        <time>2017-05-22T09:07:06Z</time>
      </trkpt>
      <trkpt lat="46.03182" lon="4.70397">
        <ele>192</ele>
        <time>2017-05-22T09:07:07Z</time>
      </trkpt>
      <trkpt lat="46.03188" lon="4.70394">
        <ele>192</ele>
        <time>2017-05-22T09:07:08Z</time>
      </trkpt>
      <trkpt lat="46.03194" lon="4.70391">
        <ele>192</ele>
        <time>2017-05-22T09:07:09Z</time>
      </trkpt>
      <trkpt lat="46.032" lon="4.70388">
        <ele>192</ele>
        <time>2017-05-22T09:07:10Z</time>
      </trkpt>
      <trkpt lat="46.03207" lon="4.70384">
        <ele>192</ele>
        <time>2017-05-22T09:07:11Z</time>
      </trkpt>
      <trkpt lat="46.03213" lon="4.70381">
        <ele>192</ele>
        <time>2017-05-22T09:07:12Z</time>
      </trkpt>
      <trkpt lat="46.03219" lon="4.70378">
        <ele>192</ele>
        <time>2017-05-22T09:07:13Z</time>
      </trkpt>
      <trkpt lat="46.03225" lon="4.70375">
        <ele>192</ele>
        <time>2017-05-22T09:07:14Z</time>
      </trkpt>
      <trkpt lat="46.0323" lon="4.70372">
        <ele>192</ele>
        <time>2017-05-22T09:07:15Z</time>
      </trkpt>
      <trkpt lat="46.03236" lon="4.70369">
        <ele>192</ele>
        <time>2017-05-22T09:07:16Z</time>
      </trkpt>
      <trkpt lat="46.03242" lon="4.70367">
        <ele>192</ele>
        <time>2017-05-22T09:07:17Z</time>
      </trkpt>
      <trkpt lat="46.03248" lon="4.70365">
        <ele>192</ele>
        <time>2017-05-22T09:07:18Z</time>
      </trkpt>
      <trkpt lat="46.03254" lon="4.70362">
        <ele>191</ele>
        <time>2017-05-22T09:07:19Z</time>
      </trkpt>
      <trkpt lat="46.03259" lon="4.7036">
        <ele>191</ele>
        <time>2017-05-22T09:07:20Z</time>
      </trkpt>
      <trkpt lat="46.03265" lon="4.70358">
        <ele>191</ele>
        <time>2017-05-22T09:07:21Z</time>
      </trkpt>
      <trkpt lat="46.03271" lon="4.70356">
        <ele>191</ele>
        <time>2017-05-22T09:07:22Z</time>
      </trkpt>
      <trkpt lat="46.03277" lon="4.70353">
        <ele>191</ele>
        <time>2017-05-22T09:07:23Z</time>
      </trkpt>
      <trkpt lat="46.03283" lon="4.70351">
        <ele>191</ele>
        <time>2017-05-22T09:07:24Z</time>
      </trkpt>
      <trkpt lat="46.03289" lon="4.70349">
        <ele>191</ele>
        <time>2017-05-22T09:07:25Z</time>
      </trkpt>
      <trkpt lat="46.03295" lon="4.70347">
        <ele>191</ele>
        <time>2017-05-22T09:07:26Z</time>
      </trkpt>
      <trkpt lat="46.03302" lon="4.70344">
        <ele>191</ele>
        <time>2017-05-22T09:07:27Z</time>
      </trkpt>
      <trkpt lat="46.03308" lon="4.70342">
        <ele>191</ele>
        <time>2017-05-22T09:07:28Z</time>
      </trkpt>
      <trkpt lat="46.03314" lon="4.7034">
        <ele>191</ele>
        <time>2017-05-22T09:07:29Z</time>
      </trkpt>
      <trkpt lat="46.03321" lon="4.70338">
        <ele>191</ele>
        <time>2017-05-22T09:07:30Z</time>
      </trkpt>
      <trkpt lat="46.03327" lon="4.70336">
        <ele>191</ele>
        <time>2017-05-22T09:07:31Z</time>
      </trkpt>
      <trkpt lat="46.03334" lon="4.70333">
        <ele>191</ele>
        <time>2017-05-22T09:07:32Z</time>
      </trkpt>
      <trkpt lat="46.0334" lon="4.7033">
        <ele>191</ele>
        <time>2017-05-22T09:07:33Z</time>
      </trkpt>
      <trkpt lat="46.03347" lon="4.70327">
        <ele>191</ele>
        <time>2017-05-22T09:07:34Z</time>
      </trkpt>
      <trkpt lat="46.03354" lon="4.70325">
        <ele>191</ele>
        <time>2017-05-22T09:07:35Z</time>
      </trkpt>
      <trkpt lat="46.03361" lon="4.70323">
        <ele>191</ele>
        <time>2017-05-22T09:07:36Z</time>
      </trkpt>
      <trkpt lat="46.03367" lon="4.70321">
        <ele>191</ele>
        <time>2017-05-22T09:07:37Z</time>
      </trkpt>
      <trkpt lat="46.03374" lon="4.70318">
        <ele>191</ele>
        <time>2017-05-22T09:07:38Z</time>
      </trkpt>
      <trkpt lat="46.03381" lon="4.70316">
        <ele>191</ele>
        <time>2017-05-22T09:07:39Z</time>
      </trkpt>
      <trkpt lat="46.03388" lon="4.70314">
        <ele>190</ele>
        <time>2017-05-22T09:07:40Z</time>
      </trkpt>
      <trkpt lat="46.03395" lon="4.70311">
        <ele>190</ele>
        <time>2017-05-22T09:07:41Z</time>
      </trkpt>
      <trkpt lat="46.03402" lon="4.70309">
        <ele>190</ele>
        <time>2017-05-22T09:07:42Z</time>
      </trkpt>
      <trkpt lat="46.03408" lon="4.70305">
        <ele>190</ele>
        <time>2017-05-22T09:07:43Z</time>
      </trkpt>
      <trkpt lat="46.03415" lon="4.70302">
        <ele>190</ele>
        <time>2017-05-22T09:07:44Z</time>
      </trkpt>
      <trkpt lat="46.03422" lon="4.70301">
        <ele>188</ele>
        <time>2017-05-22T09:07:45Z</time>
      </trkpt>
      <trkpt lat="46.03429" lon="4.70299">
        <ele>188</ele>
        <time>2017-05-22T09:07:46Z</time>
      </trkpt>
      <trkpt lat="46.03436" lon="4.70296">
        <ele>188</ele>
        <time>2017-05-22T09:07:47Z</time>
      </trkpt>
      <trkpt lat="46.03443" lon="4.70293">
        <ele>188</ele>
        <time>2017-05-22T09:07:48Z</time>
      </trkpt>
      <trkpt lat="46.0345" lon="4.70291">
        <ele>188</ele>
        <time>2017-05-22T09:07:49Z</time>
      </trkpt>
      <trkpt lat="46.03457" lon="4.70288">
        <ele>188</ele>
        <time>2017-05-22T09:07:50Z</time>
      </trkpt>
      <trkpt lat="46.03464" lon="4.70285">
        <ele>188</ele>
        <time>2017-05-22T09:07:51Z</time>
      </trkpt>
      <trkpt lat="46.03471" lon="4.70282">
        <ele>188</ele>
        <time>2017-05-22T09:07:52Z</time>
      </trkpt>
      <trkpt lat="46.03478" lon="4.7028">
        <ele>188</ele>
        <time>2017-05-22T09:07:53Z</time>
      </trkpt>
      <trkpt lat="46.03484" lon="4.70277">
        <ele>188</ele>
        <time>2017-05-22T09:07:54Z</time>
      </trkpt>
      <trkpt lat="46.03491" lon="4.70274">
        <ele>188</ele>
        <time>2017-05-22T09:07:55Z</time>
      </trkpt>
      <trkpt lat="46.03497" lon="4.70272">
        <ele>188</ele>
        <time>2017-05-22T09:07:56Z</time>
      </trkpt>
      <trkpt lat="46.03502" lon="4.7027">
        <ele>187</ele>
        <time>2017-05-22T09:07:57Z</time>
      </trkpt>
      <trkpt lat="46.03508" lon="4.70269">
        <ele>187</ele>
        <time>2017-05-22T09:07:58Z</time>
      </trkpt>
      <trkpt lat="46.03513" lon="4.70268">
        <ele>187</ele>
        <time>2017-05-22T09:07:59Z</time>
      </trkpt>
      <trkpt lat="46.03519" lon="4.70266">
        <ele>187</ele>
        <time>2017-05-22T09:08:00Z</time>
      </trkpt>
      <trkpt lat="46.03524" lon="4.70264">
        <ele>187</ele>
        <time>2017-05-22T09:08:01Z</time>
      </trkpt>
      <trkpt lat="46.0353" lon="4.70262">
        <ele>187</ele>
        <time>2017-05-22T09:08:02Z</time>
      </trkpt>
      <trkpt lat="46.03536" lon="4.70261">
        <ele>188</ele>
        <time>2017-05-22T09:08:03Z</time>
      </trkpt>
      <trkpt lat="46.03542" lon="4.70259">
        <ele>188</ele>
        <time>2017-05-22T09:08:04Z</time>
      </trkpt>
      <trkpt lat="46.03547" lon="4.70257">
        <ele>188</ele>
        <time>2017-05-22T09:08:05Z</time>
      </trkpt>
      <trkpt lat="46.03552" lon="4.70255">
        <ele>188</ele>
        <time>2017-05-22T09:08:06Z</time>
      </trkpt>
      <trkpt lat="46.03558" lon="4.70252">
        <ele>188</ele>
        <time>2017-05-22T09:08:07Z</time>
      </trkpt>
      <trkpt lat="46.03565" lon="4.70249">
        <ele>190</ele>
        <time>2017-05-22T09:08:08Z</time>
      </trkpt>
      <trkpt lat="46.03571" lon="4.70246">
        <ele>190</ele>
        <time>2017-05-22T09:08:09Z</time>
      </trkpt>
      <trkpt lat="46.03578" lon="4.70243">
        <ele>190</ele>
        <time>2017-05-22T09:08:10Z</time>
      </trkpt>
      <trkpt lat="46.03584" lon="4.7024">
        <ele>190</ele>
        <time>2017-05-22T09:08:11Z</time>
      </trkpt>
      <trkpt lat="46.03591" lon="4.70237">
        <ele>190</ele>
        <time>2017-05-22T09:08:12Z</time>
      </trkpt>
      <trkpt lat="46.03597" lon="4.70235">
        <ele>190</ele>
        <time>2017-05-22T09:08:13Z</time>
      </trkpt>
      <trkpt lat="46.03603" lon="4.70232">
        <ele>190</ele>
        <time>2017-05-22T09:08:14Z</time>
      </trkpt>
      <trkpt lat="46.03609" lon="4.7023">
        <ele>190</ele>
        <time>2017-05-22T09:08:15Z</time>
      </trkpt>
      <trkpt lat="46.03615" lon="4.70227">
        <ele>190</ele>
        <time>2017-05-22T09:08:16Z</time>
      </trkpt>
      <trkpt lat="46.0362" lon="4.70226">
        <ele>190</ele>
        <time>2017-05-22T09:08:17Z</time>
      </trkpt>
      <trkpt lat="46.03625" lon="4.70224">
        <ele>190</ele>
        <time>2017-05-22T09:08:18Z</time>
      </trkpt>
      <trkpt lat="46.03631" lon="4.70222">
        <ele>190</ele>
        <time>2017-05-22T09:08:19Z</time>
      </trkpt>
      <trkpt lat="46.03637" lon="4.7022">
        <ele>190</ele>
        <time>2017-05-22T09:08:20Z</time>
      </trkpt>
      <trkpt lat="46.03642" lon="4.70219">
        <ele>190</ele>
        <time>2017-05-22T09:08:21Z</time>
      </trkpt>
      <trkpt lat="46.03648" lon="4.70217">
        <ele>190</ele>
        <time>2017-05-22T09:08:22Z</time>
      </trkpt>
      <trkpt lat="46.03654" lon="4.70215">
        <ele>190</ele>
        <time>2017-05-22T09:08:23Z</time>
      </trkpt>
      <trkpt lat="46.0366" lon="4.70213">
        <ele>190</ele>
        <time>2017-05-22T09:08:24Z</time>
      </trkpt>
      <trkpt lat="46.03665" lon="4.7021">
        <ele>190</ele>
        <time>2017-05-22T09:08:25Z</time>
      </trkpt>
      <trkpt lat="46.03671" lon="4.70208">
        <ele>189</ele>
        <time>2017-05-22T09:08:26Z</time>
      </trkpt>
      <trkpt lat="46.03676" lon="4.70206">
        <ele>189</ele>
        <time>2017-05-22T09:08:27Z</time>
      </trkpt>
      <trkpt lat="46.03682" lon="4.70205">
        <ele>189</ele>
        <time>2017-05-22T09:08:28Z</time>
      </trkpt>
      <trkpt lat="46.03688" lon="4.70203">
        <ele>189</ele>
        <time>2017-05-22T09:08:29Z</time>
      </trkpt>
      <trkpt lat="46.03694" lon="4.702">
        <ele>189</ele>
        <time>2017-05-22T09:08:30Z</time>
      </trkpt>
      <trkpt lat="46.03701" lon="4.70197">
        <ele>188</ele>
        <time>2017-05-22T09:08:31Z</time>
      </trkpt>
      <trkpt lat="46.03707" lon="4.70194">
        <ele>188</ele>
        <time>2017-05-22T09:08:32Z</time>
      </trkpt>
      <trkpt lat="46.03713" lon="4.70192">
        <ele>188</ele>
        <time>2017-05-22T09:08:33Z</time>
      </trkpt>
      <trkpt lat="46.0372" lon="4.70189">
        <ele>188</ele>
        <time>2017-05-22T09:08:34Z</time>
      </trkpt>
      <trkpt lat="46.03726" lon="4.70187">
        <ele>188</ele>
        <time>2017-05-22T09:08:35Z</time>
      </trkpt>
      <trkpt lat="46.03733" lon="4.70185">
        <ele>188</ele>
        <time>2017-05-22T09:08:36Z</time>
      </trkpt>
      <trkpt lat="46.03738" lon="4.70182">
        <ele>188</ele>
        <time>2017-05-22T09:08:37Z</time>
      </trkpt>
      <trkpt lat="46.03745" lon="4.7018">
        <ele>187</ele>
        <time>2017-05-22T09:08:38Z</time>
      </trkpt>
      <trkpt lat="46.0375" lon="4.70179">
        <ele>187</ele>
        <time>2017-05-22T09:08:39Z</time>
      </trkpt>
      <trkpt lat="46.03755" lon="4.70176">
        <ele>188</ele>
        <time>2017-05-22T09:08:40Z</time>
      </trkpt>
      <trkpt lat="46.0376" lon="4.70174">
        <ele>188</ele>
        <time>2017-05-22T09:08:41Z</time>
      </trkpt>
      <trkpt lat="46.03764" lon="4.70173">
        <ele>188</ele>
        <time>2017-05-22T09:08:42Z</time>
      </trkpt>
      <trkpt lat="46.03768" lon="4.70172">
        <ele>188</ele>
        <time>2017-05-22T09:08:43Z</time>
      </trkpt>
      <trkpt lat="46.03773" lon="4.70171">
        <ele>189</ele>
        <time>2017-05-22T09:08:44Z</time>
      </trkpt>
      <trkpt lat="46.03778" lon="4.7017">
        <ele>189</ele>
        <time>2017-05-22T09:08:45Z</time>
      </trkpt>
      <trkpt lat="46.03783" lon="4.70169">
        <ele>189</ele>
        <time>2017-05-22T09:08:46Z</time>
      </trkpt>
      <trkpt lat="46.03788" lon="4.70168">
        <ele>189</ele>
        <time>2017-05-22T09:08:47Z</time>
      </trkpt>
      <trkpt lat="46.03793" lon="4.70167">
        <ele>190</ele>
        <time>2017-05-22T09:08:48Z</time>
      </trkpt>
      <trkpt lat="46.03798" lon="4.70166">
        <ele>189</ele>
        <time>2017-05-22T09:08:49Z</time>
      </trkpt>
      <trkpt lat="46.03802" lon="4.70166">
        <ele>190</ele>
        <time>2017-05-22T09:08:50Z</time>
      </trkpt>
      <trkpt lat="46.03806" lon="4.70165">
        <ele>190</ele>
        <time>2017-05-22T09:08:51Z</time>
      </trkpt>
      <trkpt lat="46.03811" lon="4.70163">
        <ele>190</ele>
        <time>2017-05-22T09:08:52Z</time>
      </trkpt>
      <trkpt lat="46.03816" lon="4.70162">
        <ele>190</ele>
        <time>2017-05-22T09:08:53Z</time>
      </trkpt>
      <trkpt lat="46.03823" lon="4.70159">
        <ele>191</ele>
        <time>2017-05-22T09:08:54Z</time>
      </trkpt>
      <trkpt lat="46.03829" lon="4.70157">
        <ele>191</ele>
        <time>2017-05-22T09:08:55Z</time>
      </trkpt>
      <trkpt lat="46.03837" lon="4.70153">
        <ele>192</ele>
        <time>2017-05-22T09:08:56Z</time>
      </trkpt>
      <trkpt lat="46.03843" lon="4.70151">
        <ele>192</ele>
        <time>2017-05-22T09:08:57Z</time>
      </trkpt>
      <trkpt lat="46.03848" lon="4.70149">
        <ele>193</ele>
        <time>2017-05-22T09:08:58Z</time>
      </trkpt>
      <trkpt lat="46.03853" lon="4.70147">
        <ele>193</ele>
        <time>2017-05-22T09:08:59Z</time>
      </trkpt>
      <trkpt lat="46.03858" lon="4.70145">
        <ele>193</ele>
        <time>2017-05-22T09:09:00Z</time>
      </trkpt>
      <trkpt lat="46.03864" lon="4.70143">
        <ele>193</ele>
        <time>2017-05-22T09:09:01Z</time>
      </trkpt>
      <trkpt lat="46.0387" lon="4.7014">
        <ele>193</ele>
        <time>2017-05-22T09:09:02Z</time>
      </trkpt>
      <trkpt lat="46.03875" lon="4.70137">
        <ele>193</ele>
        <time>2017-05-22T09:09:03Z</time>
      </trkpt>
      <trkpt lat="46.0388" lon="4.70135">
        <ele>193</ele>
        <time>2017-05-22T09:09:04Z</time>
      </trkpt>
      <trkpt lat="46.03886" lon="4.70134">
        <ele>193</ele>
        <time>2017-05-22T09:09:05Z</time>
      </trkpt>
      <trkpt lat="46.03892" lon="4.70133">
        <ele>194</ele>
        <time>2017-05-22T09:09:06Z</time>
      </trkpt>
      <trkpt lat="46.03899" lon="4.70131">
        <ele>194</ele>
        <time>2017-05-22T09:09:07Z</time>
      </trkpt>
      <trkpt lat="46.03904" lon="4.70128">
        <ele>194</ele>
        <time>2017-05-22T09:09:08Z</time>
      </trkpt>
      <trkpt lat="46.03911" lon="4.70125">
        <ele>194</ele>
        <time>2017-05-22T09:09:09Z</time>
      </trkpt>
      <trkpt lat="46.03917" lon="4.70124">
        <ele>196</ele>
        <time>2017-05-22T09:09:10Z</time>
      </trkpt>
      <trkpt lat="46.03923" lon="4.70121">
        <ele>196</ele>
        <time>2017-05-22T09:09:11Z</time>
      </trkpt>
      <trkpt lat="46.03929" lon="4.70118">
        <ele>196</ele>
        <time>2017-05-22T09:09:12Z</time>
      </trkpt>
      <trkpt lat="46.03935" lon="4.70116">
        <ele>196</ele>
        <time>2017-05-22T09:09:13Z</time>
      </trkpt>
      <trkpt lat="46.03942" lon="4.70114">
        <ele>196</ele>
        <time>2017-05-22T09:09:14Z</time>
      </trkpt>
      <trkpt lat="46.03949" lon="4.70112">
        <ele>196</ele>
        <time>2017-05-22T09:09:15Z</time>
      </trkpt>
      <trkpt lat="46.03958" lon="4.70109">
        <ele>196</ele>
        <time>2017-05-22T09:09:16Z</time>
      </trkpt>
      <trkpt lat="46.03965" lon="4.70107">
        <ele>196</ele>
        <time>2017-05-22T09:09:17Z</time>
      </trkpt>
      <trkpt lat="46.03971" lon="4.70106">
        <ele>196</ele>
        <time>2017-05-22T09:09:18Z</time>
      </trkpt>
      <trkpt lat="46.03979" lon="4.70104">
        <ele>196</ele>
        <time>2017-05-22T09:09:19Z</time>
      </trkpt>
      <trkpt lat="46.03987" lon="4.70102">
        <ele>196</ele>
        <time>2017-05-22T09:09:20Z</time>
      </trkpt>
      <trkpt lat="46.03993" lon="4.70102">
        <ele>196</ele>
        <time>2017-05-22T09:09:21Z</time>
      </trkpt>
      <trkpt lat="46.03999" lon="4.70104">
        <ele>196</ele>
        <time>2017-05-22T09:09:22Z</time>
      </trkpt>
      <trkpt lat="46.04005" lon="4.70104">
        <ele>195</ele>
        <time>2017-05-22T09:09:23Z</time>
      </trkpt>
      <trkpt lat="46.04011" lon="4.70103">
        <ele>195</ele>
        <time>2017-05-22T09:09:24Z</time>
      </trkpt>
      <trkpt lat="46.04018" lon="4.70102">
        <ele>195</ele>
        <time>2017-05-22T09:09:25Z</time>
      </trkpt>
      <trkpt lat="46.04024" lon="4.70102">
        <ele>195</ele>
        <time>2017-05-22T09:09:26Z</time>
      </trkpt>
      <trkpt lat="46.04031" lon="4.701">
        <ele>195</ele>
        <time>2017-05-22T09:09:27Z</time>
      </trkpt>
      <trkpt lat="46.04039" lon="4.70098">
        <ele>195</ele>
        <time>2017-05-22T09:09:28Z</time>
      </trkpt>
      <trkpt lat="46.04045" lon="4.70096">
        <ele>195</ele>
        <time>2017-05-22T09:09:29Z</time>
      </trkpt>
      <trkpt lat="46.0405" lon="4.70096">
        <ele>195</ele>
        <time>2017-05-22T09:09:30Z</time>
      </trkpt>
      <trkpt lat="46.04058" lon="4.70094">
        <ele>195</ele>
        <time>2017-05-22T09:09:31Z</time>
      </trkpt>
      <trkpt lat="46.04063" lon="4.70094">
        <ele>195</ele>
        <time>2017-05-22T09:09:32Z</time>
      </trkpt>
      <trkpt lat="46.04069" lon="4.70094">
        <ele>195</ele>
        <time>2017-05-22T09:09:33Z</time>
      </trkpt>
      <trkpt lat="46.04074" lon="4.70093">
        <ele>194</ele>
        <time>2017-05-22T09:09:34Z</time>
      </trkpt>
      <trkpt lat="46.04079" lon="4.70092">
        <ele>194</ele>
        <time>2017-05-22T09:09:35Z</time>
      </trkpt>
      <trkpt lat="46.04084" lon="4.70091">
        <ele>193</ele>
        <time>2017-05-22T09:09:36Z</time>
      </trkpt>
      <trkpt lat="46.04088" lon="4.7009">
        <ele>193</ele>
        <time>2017-05-22T09:09:37Z</time>
      </trkpt>
      <trkpt lat="46.04093" lon="4.70088">
        <ele>193</ele>
        <time>2017-05-22T09:09:38Z</time>
      </trkpt>
      <trkpt lat="46.04098" lon="4.70085">
        <ele>193</ele>
        <time>2017-05-22T09:09:39Z</time>
      </trkpt>
      <trkpt lat="46.04102" lon="4.70082">
        <ele>193</ele>
        <time>2017-05-22T09:09:40Z</time>
      </trkpt>
      <trkpt lat="46.04108" lon="4.70079">
        <ele>193</ele>
        <time>2017-05-22T09:09:41Z</time>
      </trkpt>
      <trkpt lat="46.04111" lon="4.70077">
        <ele>193</ele>
        <time>2017-05-22T09:09:42Z</time>
      </trkpt>
      <trkpt lat="46.04118" lon="4.70073">
        <ele>192</ele>
        <time>2017-05-22T09:09:44Z</time>
      </trkpt>
      <trkpt lat="46.04122" lon="4.70071">
        <ele>192</ele>
        <time>2017-05-22T09:09:45Z</time>
      </trkpt>
      <trkpt lat="46.04126" lon="4.7007">
        <ele>192</ele>
        <time>2017-05-22T09:09:46Z</time>
      </trkpt>
      <trkpt lat="46.0413" lon="4.70068">
        <ele>192</ele>
        <time>2017-05-22T09:09:47Z</time>
      </trkpt>
      <trkpt lat="46.04138" lon="4.70063">
        <ele>192</ele>
        <time>2017-05-22T09:09:49Z</time>
      </trkpt>
      <trkpt lat="46.04142" lon="4.70061">
        <ele>191</ele>
        <time>2017-05-22T09:09:50Z</time>
      </trkpt>
      <trkpt lat="46.04148" lon="4.70057">
        <ele>191</ele>
        <time>2017-05-22T09:09:51Z</time>
      </trkpt>
      <trkpt lat="46.04153" lon="4.70054">
        <ele>191</ele>
        <time>2017-05-22T09:09:52Z</time>
      </trkpt>
      <trkpt lat="46.0416" lon="4.70049">
        <ele>191</ele>
        <time>2017-05-22T09:09:53Z</time>
      </trkpt>
      <trkpt lat="46.04167" lon="4.70044">
        <ele>189</ele>
        <time>2017-05-22T09:09:54Z</time>
      </trkpt>
      <trkpt lat="46.04173" lon="4.7004">
        <ele>189</ele>
        <time>2017-05-22T09:09:55Z</time>
      </trkpt>
      <trkpt lat="46.0418" lon="4.70035">
        <ele>189</ele>
        <time>2017-05-22T09:09:56Z</time>
      </trkpt>
      <trkpt lat="46.04186" lon="4.70028">
        <ele>189</ele>
        <time>2017-05-22T09:09:57Z</time>
      </trkpt>
      <trkpt lat="46.04193" lon="4.70023">
        <ele>188</ele>
        <time>2017-05-22T09:09:58Z</time>
      </trkpt>
      <trkpt lat="46.04199" lon="4.70017">
        <ele>188</ele>
        <time>2017-05-22T09:09:59Z</time>
      </trkpt>
      <trkpt lat="46.04205" lon="4.70011">
        <ele>188</ele>
        <time>2017-05-22T09:10:00Z</time>
      </trkpt>
      <trkpt lat="46.04211" lon="4.70005">
        <ele>188</ele>
        <time>2017-05-22T09:10:01Z</time>
      </trkpt>
      <trkpt lat="46.0422" lon="4.69995">
        <ele>188</ele>
        <time>2017-05-22T09:10:02Z</time>
      </trkpt>
      <trkpt lat="46.04226" lon="4.69987">
        <ele>188</ele>
        <time>2017-05-22T09:10:03Z</time>
      </trkpt>
      <trkpt lat="46.04231" lon="4.69981">
        <ele>188</ele>
        <time>2017-05-22T09:10:04Z</time>
      </trkpt>
      <trkpt lat="46.04236" lon="4.69976">
        <ele>188</ele>
        <time>2017-05-22T09:10:05Z</time>
      </trkpt>
      <trkpt lat="46.04241" lon="4.69972">
        <ele>188</ele>
        <time>2017-05-22T09:10:06Z</time>
      </trkpt>
      <trkpt lat="46.04246" lon="4.69968">
        <ele>188</ele>
        <time>2017-05-22T09:10:07Z</time>
      </trkpt>
      <trkpt lat="46.0425" lon="4.69964">
        <ele>188</ele>
        <time>2017-05-22T09:10:08Z</time>
      </trkpt>
      <trkpt lat="46.04254" lon="4.6996">
        <ele>188</ele>
        <time>2017-05-22T09:10:09Z</time>
      </trkpt>
      <trkpt lat="46.04258" lon="4.69956">
        <ele>188</ele>
        <time>2017-05-22T09:10:10Z</time>
      </trkpt>
      <trkpt lat="46.04262" lon="4.69953">
        <ele>188</ele>
        <time>2017-05-22T09:10:11Z</time>
      </trkpt>
      <trkpt lat="46.04266" lon="4.69949">
        <ele>188</ele>
        <time>2017-05-22T09:10:12Z</time>
      </trkpt>
      <trkpt lat="46.0427" lon="4.69945">
        <ele>189</ele>
        <time>2017-05-22T09:10:13Z</time>
      </trkpt>
      <trkpt lat="46.04274" lon="4.6994">
        <ele>189</ele>
        <time>2017-05-22T09:10:14Z</time>
      </trkpt>
      <trkpt lat="46.04279" lon="4.69936">
        <ele>189</ele>
        <time>2017-05-22T09:10:15Z</time>
      </trkpt>
      <trkpt lat="46.04284" lon="4.69931">
        <ele>189</ele>
        <time>2017-05-22T09:10:16Z</time>
      </trkpt>
      <trkpt lat="46.04288" lon="4.69926">
        <ele>189</ele>
        <time>2017-05-22T09:10:17Z</time>
      </trkpt>
      <trkpt lat="46.04291" lon="4.69921">
        <ele>189</ele>
        <time>2017-05-22T09:10:18Z</time>
      </trkpt>
      <trkpt lat="46.04295" lon="4.69916">
        <ele>190</ele>
        <time>2017-05-22T09:10:19Z</time>
      </trkpt>
      <trkpt lat="46.04299" lon="4.69911">
        <ele>190</ele>
        <time>2017-05-22T09:10:20Z</time>
      </trkpt>
      <trkpt lat="46.04302" lon="4.69907">
        <ele>190</ele>
        <time>2017-05-22T09:10:21Z</time>
      </trkpt>
      <trkpt lat="46.04306" lon="4.69903">
        <ele>190</ele>
        <time>2017-05-22T09:10:22Z</time>
      </trkpt>
      <trkpt lat="46.04311" lon="4.69894">
        <ele>190</ele>
        <time>2017-05-22T09:10:24Z</time>
      </trkpt>
      <trkpt lat="46.04313" lon="4.6989">
        <ele>190</ele>
        <time>2017-05-22T09:10:25Z</time>
      </trkpt>
      <trkpt lat="46.04318" lon="4.69881">
        <ele>190</ele>
        <time>2017-05-22T09:10:27Z</time>
      </trkpt>
      <trkpt lat="46.04321" lon="4.69877">
        <ele>190</ele>
        <time>2017-05-22T09:10:28Z</time>
      </trkpt>
      <trkpt lat="46.04325" lon="4.69868">
        <ele>191</ele>
        <time>2017-05-22T09:10:30Z</time>
      </trkpt>
      <trkpt lat="46.04327" lon="4.69864">
        <ele>191</ele>
        <time>2017-05-22T09:10:31Z</time>
      </trkpt>
      <trkpt lat="46.04333" lon="4.69855">
        <ele>191</ele>
        <time>2017-05-22T09:10:33Z</time>
      </trkpt>
      <trkpt lat="46.04338" lon="4.6985">
        <ele>192</ele>
        <time>2017-05-22T09:10:34Z</time>
      </trkpt>
      <trkpt lat="46.04342" lon="4.69846">
        <ele>192</ele>
        <time>2017-05-22T09:10:35Z</time>
      </trkpt>
      <trkpt lat="46.04346" lon="4.69843">
        <ele>192</ele>
        <time>2017-05-22T09:10:36Z</time>
      </trkpt>
      <trkpt lat="46.0435" lon="4.69838">
        <ele>193</ele>
        <time>2017-05-22T09:10:37Z</time>
      </trkpt>
      <trkpt lat="46.04354" lon="4.69835">
        <ele>193</ele>
        <time>2017-05-22T09:10:38Z</time>
      </trkpt>
      <trkpt lat="46.04359" lon="4.69831">
        <ele>193</ele>
        <time>2017-05-22T09:10:39Z</time>
      </trkpt>
      <trkpt lat="46.04363" lon="4.69829">
        <ele>193</ele>
        <time>2017-05-22T09:10:40Z</time>
      </trkpt>
      <trkpt lat="46.0437" lon="4.69825">
        <ele>194</ele>
        <time>2017-05-22T09:10:42Z</time>
      </trkpt>
      <trkpt lat="46.04374" lon="4.69823">
        <ele>194</ele>
        <time>2017-05-22T09:10:43Z</time>
      </trkpt>
      <trkpt lat="46.0438" lon="4.69821">
        <ele>194</ele>
        <time>2017-05-22T09:10:45Z</time>
      </trkpt>
      <trkpt lat="46.04383" lon="4.6982">
        <ele>194</ele>
        <time>2017-05-22T09:10:46Z</time>
      </trkpt>
      <trkpt lat="46.04391" lon="4.69817">
        <ele>194</ele>
        <time>2017-05-22T09:10:49Z</time>
      </trkpt>
      <trkpt lat="46.04394" lon="4.69816">
        <ele>194</ele>
        <time>2017-05-22T09:10:50Z</time>
      </trkpt>
      <trkpt lat="46.04401" lon="4.69815">
        <ele>194</ele>
        <time>2017-05-22T09:10:52Z</time>
      </trkpt>
      <trkpt lat="46.04405" lon="4.69815">
        <ele>194</ele>
        <time>2017-05-22T09:10:53Z</time>
      </trkpt>
      <trkpt lat="46.04412" lon="4.69813">
        <ele>194</ele>
        <time>2017-05-22T09:10:55Z</time>
      </trkpt>
      <trkpt lat="46.04416" lon="4.69811">
        <ele>194</ele>
        <time>2017-05-22T09:10:56Z</time>
      </trkpt>
      <trkpt lat="46.04425" lon="4.69809">
        <ele>196</ele>
        <time>2017-05-22T09:10:58Z</time>
      </trkpt>
      <trkpt lat="46.04428" lon="4.69808">
        <ele>196</ele>
        <time>2017-05-22T09:10:59Z</time>
      </trkpt>
      <trkpt lat="46.04436" lon="4.69807">
        <ele>196</ele>
        <time>2017-05-22T09:11:01Z</time>
      </trkpt>
      <trkpt lat="46.0444" lon="4.69806">
        <ele>196</ele>
        <time>2017-05-22T09:11:02Z</time>
      </trkpt>
      <trkpt lat="46.04448" lon="4.69804">
        <ele>196</ele>
        <time>2017-05-22T09:11:04Z</time>
      </trkpt>
      <trkpt lat="46.04452" lon="4.69803">
        <ele>196</ele>
        <time>2017-05-22T09:11:05Z</time>
      </trkpt>
      <trkpt lat="46.0446" lon="4.69801">
        <ele>197</ele>
        <time>2017-05-22T09:11:07Z</time>
      </trkpt>
      <trkpt lat="46.04464" lon="4.698">
        <ele>197</ele>
        <time>2017-05-22T09:11:08Z</time>
      </trkpt>
      <trkpt lat="46.04471" lon="4.69799">
        <ele>197</ele>
        <time>2017-05-22T09:11:10Z</time>
      </trkpt>
      <trkpt lat="46.04475" lon="4.69797">
        <ele>197</ele>
        <time>2017-05-22T09:11:11Z</time>
      </trkpt>
      <trkpt lat="46.04482" lon="4.69795">
        <ele>197</ele>
        <time>2017-05-22T09:11:13Z</time>
      </trkpt>
      <trkpt lat="46.04486" lon="4.69793">
        <ele>197</ele>
        <time>2017-05-22T09:11:14Z</time>
      </trkpt>
      <trkpt lat="46.04491" lon="4.69793">
        <ele>197</ele>
        <time>2017-05-22T09:11:15Z</time>
      </trkpt>
      <trkpt lat="46.04496" lon="4.69792">
        <ele>197</ele>
        <time>2017-05-22T09:11:16Z</time>
      </trkpt>
      <trkpt lat="46.04501" lon="4.69791">
        <ele>199</ele>
        <time>2017-05-22T09:11:17Z</time>
      </trkpt>
      <trkpt lat="46.04506" lon="4.69791">
        <ele>199</ele>
        <time>2017-05-22T09:11:18Z</time>
      </trkpt>
      <trkpt lat="46.04511" lon="4.69791">
        <ele>199</ele>
        <time>2017-05-22T09:11:19Z</time>
      </trkpt>
      <trkpt lat="46.04516" lon="4.69793">
        <ele>199</ele>
        <time>2017-05-22T09:11:20Z</time>
      </trkpt>
      <trkpt lat="46.04524" lon="4.69794">
        <ele>199</ele>
        <time>2017-05-22T09:11:22Z</time>
      </trkpt>
      <trkpt lat="46.04528" lon="4.69794">
        <ele>199</ele>
        <time>2017-05-22T09:11:23Z</time>
      </trkpt>
      <trkpt lat="46.04536" lon="4.69795">
        <ele>199</ele>
        <time>2017-05-22T09:11:25Z</time>
      </trkpt>
      <trkpt lat="46.04539" lon="4.69796">
        <ele>199</ele>
        <time>2017-05-22T09:11:26Z</time>
      </trkpt>
      <trkpt lat="46.04545" lon="4.69797">
        <ele>199</ele>
        <time>2017-05-22T09:11:28Z</time>
      </trkpt>
      <trkpt lat="46.04548" lon="4.69798">
        <ele>199</ele>
        <time>2017-05-22T09:11:29Z</time>
      </trkpt>
      <trkpt lat="46.04555" lon="4.698">
        <ele>199</ele>
        <time>2017-05-22T09:11:31Z</time>
      </trkpt>
      <trkpt lat="46.04558" lon="4.698">
        <ele>199</ele>
        <time>2017-05-22T09:11:32Z</time>
      </trkpt>
      <trkpt lat="46.04566" lon="4.69801">
        <ele>200</ele>
        <time>2017-05-22T09:11:34Z</time>
      </trkpt>
      <trkpt lat="46.0457" lon="4.69802">
        <ele>200</ele>
        <time>2017-05-22T09:11:35Z</time>
      </trkpt>
      <trkpt lat="46.04577" lon="4.69806">
        <ele>200</ele>
        <time>2017-05-22T09:11:37Z</time>
      </trkpt>
      <trkpt lat="46.0458" lon="4.69807">
        <ele>200</ele>
        <time>2017-05-22T09:11:38Z</time>
      </trkpt>
      <trkpt lat="46.04587" lon="4.69809">
        <ele>201</ele>
        <time>2017-05-22T09:11:40Z</time>
      </trkpt>
      <trkpt lat="46.04591" lon="4.6981">
        <ele>201</ele>
        <time>2017-05-22T09:11:41Z</time>
      </trkpt>
      <trkpt lat="46.04598" lon="4.69811">
        <ele>201</ele>
        <time>2017-05-22T09:11:43Z</time>
      </trkpt>
      <trkpt lat="46.04601" lon="4.69813">
        <ele>201</ele>
        <time>2017-05-22T09:11:44Z</time>
      </trkpt>
      <trkpt lat="46.04608" lon="4.69815">
        <ele>201</ele>
        <time>2017-05-22T09:11:46Z</time>
      </trkpt>
      <trkpt lat="46.04612" lon="4.69816">
        <ele>201</ele>
        <time>2017-05-22T09:11:47Z</time>
      </trkpt>
      <trkpt lat="46.0462" lon="4.6982">
        <ele>202</ele>
        <time>2017-05-22T09:11:49Z</time>
      </trkpt>
      <trkpt lat="46.04624" lon="4.69822">
        <ele>202</ele>
        <time>2017-05-22T09:11:50Z</time>
      </trkpt>
      <trkpt lat="46.04632" lon="4.69824">
        <ele>202</ele>
        <time>2017-05-22T09:11:52Z</time>
      </trkpt>
      <trkpt lat="46.04636" lon="4.69825">
        <ele>202</ele>
        <time>2017-05-22T09:11:53Z</time>
      </trkpt>
      <trkpt lat="46.04645" lon="4.69828">
        <ele>202</ele>
        <time>2017-05-22T09:11:55Z</time>
      </trkpt>
      <trkpt lat="46.04649" lon="4.6983">
        <ele>202</ele>
        <time>2017-05-22T09:11:56Z</time>
      </trkpt>
      <trkpt lat="46.04657" lon="4.69833">
        <ele>203</ele>
        <time>2017-05-22T09:11:58Z</time>
      </trkpt>
      <trkpt lat="46.04662" lon="4.69834">
        <ele>202</ele>
        <time>2017-05-22T09:11:59Z</time>
      </trkpt>
      <trkpt lat="46.04668" lon="4.69838">
        <ele>203</ele>
        <time>2017-05-22T09:12:01Z</time>
      </trkpt>
      <trkpt lat="46.04672" lon="4.69839">
        <ele>203</ele>
        <time>2017-05-22T09:12:02Z</time>
      </trkpt>
      <trkpt lat="46.04679" lon="4.6984">
        <ele>202</ele>
        <time>2017-05-22T09:12:04Z</time>
      </trkpt>
      <trkpt lat="46.04683" lon="4.6984">
        <ele>202</ele>
        <time>2017-05-22T09:12:05Z</time>
      </trkpt>
      <trkpt lat="46.04692" lon="4.69841">
        <ele>202</ele>
        <time>2017-05-22T09:12:07Z</time>
      </trkpt>
      <trkpt lat="46.04696" lon="4.69843">
        <ele>202</ele>
        <time>2017-05-22T09:12:08Z</time>
      </trkpt>
      <trkpt lat="46.04704" lon="4.69846">
        <ele>202</ele>
        <time>2017-05-22T09:12:10Z</time>
      </trkpt>
      <trkpt lat="46.04707" lon="4.69847">
        <ele>202</ele>
        <time>2017-05-22T09:12:11Z</time>
      </trkpt>
      <trkpt lat="46.04715" lon="4.69847">
        <ele>203</ele>
        <time>2017-05-22T09:12:13Z</time>
      </trkpt>
      <trkpt lat="46.04718" lon="4.69847">
        <ele>203</ele>
        <time>2017-05-22T09:12:14Z</time>
      </trkpt>
      <trkpt lat="46.04725" lon="4.69847">
        <ele>203</ele>
        <time>2017-05-22T09:12:16Z</time>
      </trkpt>
      <trkpt lat="46.04728" lon="4.69847">
        <ele>203</ele>
        <time>2017-05-22T09:12:17Z</time>
      </trkpt>
      <trkpt lat="46.04735" lon="4.69847">
        <ele>203</ele>
        <time>2017-05-22T09:12:19Z</time>
      </trkpt>
      <trkpt lat="46.04738" lon="4.69846">
        <ele>203</ele>
        <time>2017-05-22T09:12:20Z</time>
      </trkpt>
      <trkpt lat="46.04744" lon="4.69845">
        <ele>204</ele>
        <time>2017-05-22T09:12:22Z</time>
      </trkpt>
      <trkpt lat="46.04748" lon="4.69845">
        <ele>204</ele>
        <time>2017-05-22T09:12:23Z</time>
      </trkpt>
      <trkpt lat="46.04755" lon="4.69844">
        <ele>205</ele>
        <time>2017-05-22T09:12:25Z</time>
      </trkpt>
      <trkpt lat="46.04759" lon="4.69845">
        <ele>205</ele>
        <time>2017-05-22T09:12:26Z</time>
      </trkpt>
      <trkpt lat="46.04767" lon="4.69844">
        <ele>204</ele>
        <time>2017-05-22T09:12:28Z</time>
      </trkpt>
      <trkpt lat="46.04771" lon="4.69844">
        <ele>204</ele>
        <time>2017-05-22T09:12:29Z</time>
      </trkpt>
      <trkpt lat="46.04777" lon="4.69845">
        <ele>204</ele>
        <time>2017-05-22T09:12:31Z</time>
      </trkpt>
      <trkpt lat="46.04783" lon="4.69846">
        <ele>205</ele>
        <time>2017-05-22T09:12:32Z</time>
      </trkpt>
      <trkpt lat="46.04787" lon="4.69838">
        <ele>205</ele>
        <time>2017-05-22T09:12:34Z</time>
      </trkpt>
      <trkpt lat="46.04789" lon="4.69833">
        <ele>206</ele>
        <time>2017-05-22T09:12:35Z</time>
      </trkpt>
      <trkpt lat="46.04792" lon="4.69822">
        <ele>206</ele>
        <time>2017-05-22T09:12:37Z</time>
      </trkpt>
      <trkpt lat="46.04794" lon="4.69818">
        <ele>206</ele>
        <time>2017-05-22T09:12:38Z</time>
      </trkpt>
      <trkpt lat="46.048" lon="4.69814">
        <ele>206</ele>
        <time>2017-05-22T09:12:40Z</time>
      </trkpt>
      <trkpt lat="46.04803" lon="4.69815">
        <ele>206</ele>
        <time>2017-05-22T09:12:41Z</time>
      </trkpt>
      <trkpt lat="46.04811" lon="4.69819">
        <ele>206</ele>
        <time>2017-05-22T09:12:43Z</time>
      </trkpt>
      <trkpt lat="46.04815" lon="4.69822">
        <ele>207</ele>
        <time>2017-05-22T09:12:44Z</time>
      </trkpt>
      <trkpt lat="46.04819" lon="4.69825">
        <ele>207</ele>
        <time>2017-05-22T09:12:45Z</time>
      </trkpt>
      <trkpt lat="46.04823" lon="4.69827">
        <ele>207</ele>
        <time>2017-05-22T09:12:46Z</time>
      </trkpt>
      <trkpt lat="46.0483" lon="4.69831">
        <ele>207</ele>
        <time>2017-05-22T09:12:48Z</time>
      </trkpt>
      <trkpt lat="46.04834" lon="4.69832">
        <ele>207</ele>
        <time>2017-05-22T09:12:49Z</time>
      </trkpt>
      <trkpt lat="46.04842" lon="4.69835">
        <ele>207</ele>
        <time>2017-05-22T09:12:51Z</time>
      </trkpt>
      <trkpt lat="46.04847" lon="4.69837">
        <ele>207</ele>
        <time>2017-05-22T09:12:52Z</time>
      </trkpt>
      <trkpt lat="46.04855" lon="4.69841">
        <ele>206</ele>
        <time>2017-05-22T09:12:54Z</time>
      </trkpt>
      <trkpt lat="46.04859" lon="4.69844">
        <ele>206</ele>
        <time>2017-05-22T09:12:55Z</time>
      </trkpt>
      <trkpt lat="46.04866" lon="4.69848">
        <ele>206</ele>
        <time>2017-05-22T09:12:57Z</time>
      </trkpt>
      <trkpt lat="46.0487" lon="4.6985">
        <ele>206</ele>
        <time>2017-05-22T09:12:58Z</time>
      </trkpt>
      <trkpt lat="46.04875" lon="4.69852">
        <ele>206</ele>
        <time>2017-05-22T09:12:59Z</time>
      </trkpt>
      <trkpt lat="46.04879" lon="4.69855">
        <ele>206</ele>
        <time>2017-05-22T09:13:00Z</time>
      </trkpt>
      <trkpt lat="46.04886" lon="4.69861">
        <ele>206</ele>
        <time>2017-05-22T09:13:02Z</time>
      </trkpt>
      <trkpt lat="46.0489" lon="4.69863">
        <ele>206</ele>
        <time>2017-05-22T09:13:03Z</time>
      </trkpt>
      <trkpt lat="46.04897" lon="4.69868">
        <ele>206</ele>
        <time>2017-05-22T09:13:05Z</time>
      </trkpt>
      <trkpt lat="46.04901" lon="4.69871">
        <ele>206</ele>
        <time>2017-05-22T09:13:06Z</time>
      </trkpt>
      <trkpt lat="46.04909" lon="4.69874">
        <ele>206</ele>
        <time>2017-05-22T09:13:08Z</time>
      </trkpt>
      <trkpt lat="46.04914" lon="4.69877">
        <ele>206</ele>
        <time>2017-05-22T09:13:09Z</time>
      </trkpt>
      <trkpt lat="46.04919" lon="4.69879">
        <ele>207</ele>
        <time>2017-05-22T09:13:10Z</time>
      </trkpt>
      <trkpt lat="46.04923" lon="4.69882">
        <ele>207</ele>
        <time>2017-05-22T09:13:11Z</time>
      </trkpt>
      <trkpt lat="46.0493" lon="4.69888">
        <ele>207</ele>
        <time>2017-05-22T09:13:13Z</time>
      </trkpt>
      <trkpt lat="46.04934" lon="4.69891">
        <ele>207</ele>
        <time>2017-05-22T09:13:14Z</time>
      </trkpt>
      <trkpt lat="46.04941" lon="4.69896">
        <ele>207</ele>
        <time>2017-05-22T09:13:16Z</time>
      </trkpt>
      <trkpt lat="46.04944" lon="4.699">
        <ele>207</ele>
        <time>2017-05-22T09:13:17Z</time>
      </trkpt>
      <trkpt lat="46.0495" lon="4.69908">
        <ele>207</ele>
        <time>2017-05-22T09:13:19Z</time>
      </trkpt>
      <trkpt lat="46.04953" lon="4.69912">
        <ele>207</ele>
        <time>2017-05-22T09:13:20Z</time>
      </trkpt>
      <trkpt lat="46.04959" lon="4.6992">
        <ele>206</ele>
        <time>2017-05-22T09:13:22Z</time>
      </trkpt>
      <trkpt lat="46.04962" lon="4.69923">
        <ele>206</ele>
        <time>2017-05-22T09:13:23Z</time>
      </trkpt>
      <trkpt lat="46.04968" lon="4.69932">
        <ele>206</ele>
        <time>2017-05-22T09:13:25Z</time>
      </trkpt>
      <trkpt lat="46.04971" lon="4.69937">
        <ele>206</ele>
        <time>2017-05-22T09:13:26Z</time>
      </trkpt>
      <trkpt lat="46.04975" lon="4.69942">
        <ele>206</ele>
        <time>2017-05-22T09:13:27Z</time>
      </trkpt>
      <trkpt lat="46.04978" lon="4.69948">
        <ele>206</ele>
        <time>2017-05-22T09:13:28Z</time>
      </trkpt>
      <trkpt lat="46.04981" lon="4.69953">
        <ele>206</ele>
        <time>2017-05-22T09:13:29Z</time>
      </trkpt>
      <trkpt lat="46.04984" lon="4.69957">
        <ele>206</ele>
        <time>2017-05-22T09:13:30Z</time>
      </trkpt>
      <trkpt lat="46.04988" lon="4.69963">
        <ele>205</ele>
        <time>2017-05-22T09:13:31Z</time>
      </trkpt>
      <trkpt lat="46.04991" lon="4.69969">
        <ele>205</ele>
        <time>2017-05-22T09:13:32Z</time>
      </trkpt>
      <trkpt lat="46.04995" lon="4.69974">
        <ele>205</ele>
        <time>2017-05-22T09:13:33Z</time>
      </trkpt>
      <trkpt lat="46.04999" lon="4.69979">
        <ele>205</ele>
        <time>2017-05-22T09:13:34Z</time>
      </trkpt>
      <trkpt lat="46.05003" lon="4.69984">
        <ele>205</ele>
        <time>2017-05-22T09:13:35Z</time>
      </trkpt>
      <trkpt lat="46.05007" lon="4.6999">
        <ele>205</ele>
        <time>2017-05-22T09:13:36Z</time>
      </trkpt>
      <trkpt lat="46.05011" lon="4.69995">
        <ele>205</ele>
        <time>2017-05-22T09:13:37Z</time>
      </trkpt>
      <trkpt lat="46.05015" lon="4.7">
        <ele>204</ele>
        <time>2017-05-22T09:13:38Z</time>
      </trkpt>
      <trkpt lat="46.05019" lon="4.70006">
        <ele>204</ele>
        <time>2017-05-22T09:13:39Z</time>
      </trkpt>
      <trkpt lat="46.05023" lon="4.70012">
        <ele>204</ele>
        <time>2017-05-22T09:13:40Z</time>
      </trkpt>
      <trkpt lat="46.05028" lon="4.70017">
        <ele>204</ele>
        <time>2017-05-22T09:13:41Z</time>
      </trkpt>
      <trkpt lat="46.05033" lon="4.70021">
        <ele>204</ele>
        <time>2017-05-22T09:13:42Z</time>
      </trkpt>
      <trkpt lat="46.05039" lon="4.70025">
        <ele>204</ele>
        <time>2017-05-22T09:13:43Z</time>
      </trkpt>
      <trkpt lat="46.05044" lon="4.70028">
        <ele>204</ele>
        <time>2017-05-22T09:13:44Z</time>
      </trkpt>
      <trkpt lat="46.05049" lon="4.70032">
        <ele>204</ele>
        <time>2017-05-22T09:13:45Z</time>
      </trkpt>
      <trkpt lat="46.05054" lon="4.70036">
        <ele>204</ele>
        <time>2017-05-22T09:13:46Z</time>
      </trkpt>
      <trkpt lat="46.05059" lon="4.70039">
        <ele>204</ele>
        <time>2017-05-22T09:13:47Z</time>
      </trkpt>
      <trkpt lat="46.05064" lon="4.70041">
        <ele>204</ele>
        <time>2017-05-22T09:13:48Z</time>
      </trkpt>
      <trkpt lat="46.05069" lon="4.70042">
        <ele>204</ele>
        <time>2017-05-22T09:13:49Z</time>
      </trkpt>
      <trkpt lat="46.05074" lon="4.70042">
        <ele>204</ele>
        <time>2017-05-22T09:13:50Z</time>
      </trkpt>
      <trkpt lat="46.05082" lon="4.70039">
        <ele>204</ele>
        <time>2017-05-22T09:13:52Z</time>
      </trkpt>
      <trkpt lat="46.05086" lon="4.70034">
        <ele>203</ele>
        <time>2017-05-22T09:13:53Z</time>
      </trkpt>
      <trkpt lat="46.05091" lon="4.70023">
        <ele>203</ele>
        <time>2017-05-22T09:13:55Z</time>
      </trkpt>
      <trkpt lat="46.05093" lon="4.70017">
        <ele>203</ele>
        <time>2017-05-22T09:13:56Z</time>
      </trkpt>
      <trkpt lat="46.05095" lon="4.70011">
        <ele>204</ele>
        <time>2017-05-22T09:13:57Z</time>
      </trkpt>
      <trkpt lat="46.05097" lon="4.70002">
        <ele>204</ele>
        <time>2017-05-22T09:13:58Z</time>
      </trkpt>
      <trkpt lat="46.05099" lon="4.69994">
        <ele>204</ele>
        <time>2017-05-22T09:13:59Z</time>
      </trkpt>
      <trkpt lat="46.051" lon="4.69986">
        <ele>204</ele>
        <time>2017-05-22T09:14:00Z</time>
      </trkpt>
      <trkpt lat="46.05101" lon="4.69979">
        <ele>203</ele>
        <time>2017-05-22T09:14:01Z</time>
      </trkpt>
      <trkpt lat="46.05102" lon="4.69972">
        <ele>203</ele>
        <time>2017-05-22T09:14:02Z</time>
      </trkpt>
      <trkpt lat="46.05103" lon="4.69966">
        <ele>203</ele>
        <time>2017-05-22T09:14:03Z</time>
      </trkpt>
      <trkpt lat="46.05104" lon="4.69959">
        <ele>203</ele>
        <time>2017-05-22T09:14:04Z</time>
      </trkpt>
      <trkpt lat="46.05105" lon="4.69953">
        <ele>203</ele>
        <time>2017-05-22T09:14:05Z</time>
      </trkpt>
      <trkpt lat="46.05106" lon="4.69946">
        <ele>203</ele>
        <time>2017-05-22T09:14:06Z</time>
      </trkpt>
      <trkpt lat="46.05107" lon="4.69939">
        <ele>203</ele>
        <time>2017-05-22T09:14:07Z</time>
      </trkpt>
      <trkpt lat="46.05108" lon="4.69932">
        <ele>203</ele>
        <time>2017-05-22T09:14:08Z</time>
      </trkpt>
      <trkpt lat="46.05109" lon="4.69924">
        <ele>203</ele>
        <time>2017-05-22T09:14:09Z</time>
      </trkpt>
      <trkpt lat="46.05111" lon="4.69917">
        <ele>204</ele>
        <time>2017-05-22T09:14:10Z</time>
      </trkpt>
      <trkpt lat="46.05112" lon="4.69909">
        <ele>204</ele>
        <time>2017-05-22T09:14:11Z</time>
      </trkpt>
      <trkpt lat="46.05112" lon="4.69902">
        <ele>204</ele>
        <time>2017-05-22T09:14:12Z</time>
      </trkpt>
      <trkpt lat="46.05113" lon="4.69894">
        <ele>204</ele>
        <time>2017-05-22T09:14:13Z</time>
      </trkpt>
      <trkpt lat="46.05114" lon="4.69887">
        <ele>204</ele>
        <time>2017-05-22T09:14:14Z</time>
      </trkpt>
      <trkpt lat="46.05115" lon="4.6988">
        <ele>204</ele>
        <time>2017-05-22T09:14:15Z</time>
      </trkpt>
      <trkpt lat="46.05116" lon="4.69873">
        <ele>204</ele>
        <time>2017-05-22T09:14:16Z</time>
      </trkpt>
      <trkpt lat="46.05118" lon="4.69861">
        <ele>204</ele>
        <time>2017-05-22T09:14:18Z</time>
      </trkpt>
      <trkpt lat="46.05119" lon="4.69855">
        <ele>204</ele>
        <time>2017-05-22T09:14:19Z</time>
      </trkpt>
      <trkpt lat="46.05122" lon="4.69844">
        <ele>204</ele>
        <time>2017-05-22T09:14:21Z</time>
      </trkpt>
      <trkpt lat="46.05125" lon="4.69839">
        <ele>204</ele>
        <time>2017-05-22T09:14:22Z</time>
      </trkpt>
      <trkpt lat="46.05132" lon="4.69832">
        <ele>204</ele>
        <time>2017-05-22T09:14:24Z</time>
      </trkpt>
      <trkpt lat="46.05136" lon="4.69831">
        <ele>204</ele>
        <time>2017-05-22T09:14:25Z</time>
      </trkpt>
      <trkpt lat="46.05141" lon="4.6983">
        <ele>204</ele>
        <time>2017-05-22T09:14:26Z</time>
      </trkpt>
      <trkpt lat="46.05147" lon="4.69831">
        <ele>204</ele>
        <time>2017-05-22T09:14:27Z</time>
      </trkpt>
      <trkpt lat="46.05152" lon="4.69834">
        <ele>203</ele>
        <time>2017-05-22T09:14:28Z</time>
      </trkpt>
      <trkpt lat="46.05157" lon="4.69835">
        <ele>203</ele>
        <time>2017-05-22T09:14:29Z</time>
      </trkpt>
      <trkpt lat="46.05162" lon="4.69837">
        <ele>203</ele>
        <time>2017-05-22T09:14:30Z</time>
      </trkpt>
      <trkpt lat="46.05167" lon="4.69839">
        <ele>203</ele>
        <time>2017-05-22T09:14:31Z</time>
      </trkpt>
      <trkpt lat="46.05173" lon="4.69841">
        <ele>202</ele>
        <time>2017-05-22T09:14:32Z</time>
      </trkpt>
      <trkpt lat="46.05179" lon="4.69844">
        <ele>202</ele>
        <time>2017-05-22T09:14:33Z</time>
      </trkpt>
      <trkpt lat="46.05185" lon="4.69846">
        <ele>202</ele>
        <time>2017-05-22T09:14:34Z</time>
      </trkpt>
      <trkpt lat="46.05191" lon="4.69848">
        <ele>202</ele>
        <time>2017-05-22T09:14:35Z</time>
      </trkpt>
      <trkpt lat="46.05198" lon="4.6985">
        <ele>201</ele>
        <time>2017-05-22T09:14:36Z</time>
      </trkpt>
      <trkpt lat="46.05205" lon="4.69852">
        <ele>201</ele>
        <time>2017-05-22T09:14:37Z</time>
      </trkpt>
      <trkpt lat="46.05212" lon="4.69854">
        <ele>201</ele>
        <time>2017-05-22T09:14:38Z</time>
      </trkpt>
      <trkpt lat="46.05218" lon="4.69857">
        <ele>201</ele>
        <time>2017-05-22T09:14:39Z</time>
      </trkpt>
      <trkpt lat="46.05225" lon="4.69859">
        <ele>201</ele>
        <time>2017-05-22T09:14:40Z</time>
      </trkpt>
      <trkpt lat="46.05232" lon="4.69861">
        <ele>201</ele>
        <time>2017-05-22T09:14:41Z</time>
      </trkpt>
      <trkpt lat="46.05239" lon="4.69863">
        <ele>201</ele>
        <time>2017-05-22T09:14:42Z</time>
      </trkpt>
      <trkpt lat="46.05245" lon="4.69865">
        <ele>201</ele>
        <time>2017-05-22T09:14:43Z</time>
      </trkpt>
      <trkpt lat="46.05252" lon="4.69866">
        <ele>199</ele>
        <time>2017-05-22T09:14:44Z</time>
      </trkpt>
      <trkpt lat="46.05259" lon="4.69867">
        <ele>199</ele>
        <time>2017-05-22T09:14:45Z</time>
      </trkpt>
      <trkpt lat="46.05266" lon="4.69869">
        <ele>199</ele>
        <time>2017-05-22T09:14:46Z</time>
      </trkpt>
      <trkpt lat="46.05272" lon="4.69871">
        <ele>199</ele>
        <time>2017-05-22T09:14:47Z</time>
      </trkpt>
      <trkpt lat="46.05279" lon="4.69873">
        <ele>199</ele>
        <time>2017-05-22T09:14:48Z</time>
      </trkpt>
      <trkpt lat="46.05286" lon="4.69876">
        <ele>199</ele>
        <time>2017-05-22T09:14:49Z</time>
      </trkpt>
      <trkpt lat="46.05292" lon="4.69878">
        <ele>199</ele>
        <time>2017-05-22T09:14:50Z</time>
      </trkpt>
      <trkpt lat="46.05299" lon="4.69879">
        <ele>199</ele>
        <time>2017-05-22T09:14:51Z</time>
      </trkpt>
      <trkpt lat="46.05305" lon="4.6988">
        <ele>199</ele>
        <time>2017-05-22T09:14:52Z</time>
      </trkpt>
      <trkpt lat="46.05312" lon="4.69881">
        <ele>199</ele>
        <time>2017-05-22T09:14:53Z</time>
      </trkpt>
      <trkpt lat="46.05319" lon="4.69881">
        <ele>199</ele>
        <time>2017-05-22T09:14:54Z</time>
      </trkpt>
      <trkpt lat="46.05325" lon="4.69882">
        <ele>199</ele>
        <time>2017-05-22T09:14:55Z</time>
      </trkpt>
      <trkpt lat="46.05332" lon="4.69885">
        <ele>199</ele>
        <time>2017-05-22T09:14:56Z</time>
      </trkpt>
      <trkpt lat="46.05338" lon="4.69887">
        <ele>199</ele>
        <time>2017-05-22T09:14:57Z</time>
      </trkpt>
      <trkpt lat="46.05345" lon="4.69889">
        <ele>199</ele>
        <time>2017-05-22T09:14:58Z</time>
      </trkpt>
      <trkpt lat="46.05352" lon="4.69892">
        <ele>199</ele>
        <time>2017-05-22T09:14:59Z</time>
      </trkpt>
      <trkpt lat="46.05358" lon="4.69893">
        <ele>199</ele>
        <time>2017-05-22T09:15:00Z</time>
      </trkpt>
      <trkpt lat="46.05365" lon="4.69896">
        <ele>199</ele>
        <time>2017-05-22T09:15:01Z</time>
      </trkpt>
      <trkpt lat="46.05371" lon="4.69898">
        <ele>199</ele>
        <time>2017-05-22T09:15:02Z</time>
      </trkpt>
      <trkpt lat="46.05378" lon="4.69901">
        <ele>199</ele>
        <time>2017-05-22T09:15:03Z</time>
      </trkpt>
      <trkpt lat="46.05385" lon="4.69903">
        <ele>199</ele>
        <time>2017-05-22T09:15:04Z</time>
      </trkpt>
      <trkpt lat="46.05391" lon="4.69906">
        <ele>199</ele>
        <time>2017-05-22T09:15:05Z</time>
      </trkpt>
      <trkpt lat="46.05396" lon="4.69908">
        <ele>199</ele>
        <time>2017-05-22T09:15:06Z</time>
      </trkpt>
      <trkpt lat="46.05402" lon="4.69909">
        <ele>199</ele>
        <time>2017-05-22T09:15:07Z</time>
      </trkpt>
      <trkpt lat="46.05408" lon="4.69909">
        <ele>199</ele>
        <time>2017-05-22T09:15:08Z</time>
      </trkpt>
      <trkpt lat="46.05414" lon="4.69908">
        <ele>199</ele>
        <time>2017-05-22T09:15:09Z</time>
      </trkpt>
      <trkpt lat="46.05419" lon="4.69907">
        <ele>199</ele>
        <time>2017-05-22T09:15:10Z</time>
      </trkpt>
      <trkpt lat="46.05424" lon="4.69905">
        <ele>199</ele>
        <time>2017-05-22T09:15:11Z</time>
      </trkpt>
      <trkpt lat="46.05429" lon="4.69903">
        <ele>199</ele>
        <time>2017-05-22T09:15:12Z</time>
      </trkpt>
      <trkpt lat="46.05435" lon="4.69902">
        <ele>199</ele>
        <time>2017-05-22T09:15:13Z</time>
      </trkpt>
      <trkpt lat="46.0544" lon="4.699">
        <ele>199</ele>
        <time>2017-05-22T09:15:14Z</time>
      </trkpt>
      <trkpt lat="46.05445" lon="4.69899">
        <ele>199</ele>
        <time>2017-05-22T09:15:15Z</time>
      </trkpt>
      <trkpt lat="46.05453" lon="4.69896">
        <ele>199</ele>
        <time>2017-05-22T09:15:17Z</time>
      </trkpt>
      <trkpt lat="46.05457" lon="4.69896">
        <ele>199</ele>
        <time>2017-05-22T09:15:18Z</time>
      </trkpt>
      <trkpt lat="46.05461" lon="4.69895">
        <ele>199</ele>
        <time>2017-05-22T09:15:19Z</time>
      </trkpt>
      <trkpt lat="46.05466" lon="4.69894">
        <ele>199</ele>
        <time>2017-05-22T09:15:20Z</time>
      </trkpt>
      <trkpt lat="46.05471" lon="4.69893">
        <ele>199</ele>
        <time>2017-05-22T09:15:21Z</time>
      </trkpt>
      <trkpt lat="46.05475" lon="4.69892">
        <ele>199</ele>
        <time>2017-05-22T09:15:22Z</time>
      </trkpt>
      <trkpt lat="46.05483" lon="4.6989">
        <ele>199</ele>
        <time>2017-05-22T09:15:24Z</time>
      </trkpt>
      <trkpt lat="46.05487" lon="4.69889">
        <ele>199</ele>
        <time>2017-05-22T09:15:25Z</time>
      </trkpt>
      <trkpt lat="46.05496" lon="4.69886">
        <ele>199</ele>
        <time>2017-05-22T09:15:27Z</time>
      </trkpt>
      <trkpt lat="46.055" lon="4.69885">
        <ele>199</ele>
        <time>2017-05-22T09:15:28Z</time>
      </trkpt>
      <trkpt lat="46.05505" lon="4.69884">
        <ele>199</ele>
        <time>2017-05-22T09:15:29Z</time>
      </trkpt>
      <trkpt lat="46.0551" lon="4.69882">
        <ele>199</ele>
        <time>2017-05-22T09:15:30Z</time>
      </trkpt>
      <trkpt lat="46.05515" lon="4.6988">
        <ele>199</ele>
        <time>2017-05-22T09:15:31Z</time>
      </trkpt>
      <trkpt lat="46.0552" lon="4.69879">
        <ele>199</ele>
        <time>2017-05-22T09:15:32Z</time>
      </trkpt>
      <trkpt lat="46.05526" lon="4.69877">
        <ele>200</ele>
        <time>2017-05-22T09:15:33Z</time>
      </trkpt>
      <trkpt lat="46.05531" lon="4.69874">
        <ele>200</ele>
        <time>2017-05-22T09:15:34Z</time>
      </trkpt>
      <trkpt lat="46.05536" lon="4.69872">
        <ele>200</ele>
        <time>2017-05-22T09:15:35Z</time>
      </trkpt>
      <trkpt lat="46.05541" lon="4.69871">
        <ele>200</ele>
        <time>2017-05-22T09:15:36Z</time>
      </trkpt>
      <trkpt lat="46.05546" lon="4.69869">
        <ele>200</ele>
        <time>2017-05-22T09:15:37Z</time>
      </trkpt>
      <trkpt lat="46.05551" lon="4.69866">
        <ele>200</ele>
        <time>2017-05-22T09:15:38Z</time>
      </trkpt>
      <trkpt lat="46.05555" lon="4.69865">
        <ele>200</ele>
        <time>2017-05-22T09:15:39Z</time>
      </trkpt>
      <trkpt lat="46.0556" lon="4.69865">
        <ele>200</ele>
        <time>2017-05-22T09:15:40Z</time>
      </trkpt>
      <trkpt lat="46.05567" lon="4.69872">
        <ele>200</ele>
        <time>2017-05-22T09:15:42Z</time>
      </trkpt>
      <trkpt lat="46.05573" lon="4.69877">
        <ele>200</ele>
        <time>2017-05-22T09:15:43Z</time>
      </trkpt>
      <trkpt lat="46.05576" lon="4.69883">
        <ele>200</ele>
        <time>2017-05-22T09:15:44Z</time>
      </trkpt>
      <trkpt lat="46.0558" lon="4.6989">
        <ele>200</ele>
        <time>2017-05-22T09:15:45Z</time>
      </trkpt>
      <trkpt lat="46.05584" lon="4.69897">
        <ele>201</ele>
        <time>2017-05-22T09:15:46Z</time>
      </trkpt>
      <trkpt lat="46.05588" lon="4.69904">
        <ele>201</ele>
        <time>2017-05-22T09:15:47Z</time>
      </trkpt>
      <trkpt lat="46.05593" lon="4.69912">
        <ele>201</ele>
        <time>2017-05-22T09:15:48Z</time>
      </trkpt>
      <trkpt lat="46.05597" lon="4.6992">
        <ele>201</ele>
        <time>2017-05-22T09:15:49Z</time>
      </trkpt>
      <trkpt lat="46.056" lon="4.69928">
        <ele>201</ele>
        <time>2017-05-22T09:15:50Z</time>
      </trkpt>
      <trkpt lat="46.05604" lon="4.69935">
        <ele>201</ele>
        <time>2017-05-22T09:15:51Z</time>
      </trkpt>
      <trkpt lat="46.05608" lon="4.69942">
        <ele>201</ele>
        <time>2017-05-22T09:15:52Z</time>
      </trkpt>
      <trkpt lat="46.05612" lon="4.69949">
        <ele>201</ele>
        <time>2017-05-22T09:15:53Z</time>
      </trkpt>
      <trkpt lat="46.05615" lon="4.69955">
        <ele>201</ele>
        <time>2017-05-22T09:15:54Z</time>
      </trkpt>
      <trkpt lat="46.05619" lon="4.69962">
        <ele>201</ele>
        <time>2017-05-22T09:15:55Z</time>
      </trkpt>
      <trkpt lat="46.05623" lon="4.69969">
        <ele>201</ele>
        <time>2017-05-22T09:15:56Z</time>
      </trkpt>
      <trkpt lat="46.05627" lon="4.69976">
        <ele>201</ele>
        <time>2017-05-22T09:15:57Z</time>
      </trkpt>
      <trkpt lat="46.05632" lon="4.69984">
        <ele>201</ele>
        <time>2017-05-22T09:15:58Z</time>
      </trkpt>
      <trkpt lat="46.05636" lon="4.69991">
        <ele>200</ele>
        <time>2017-05-22T09:15:59Z</time>
      </trkpt>
      <trkpt lat="46.0564" lon="4.69999">
        <ele>200</ele>
        <time>2017-05-22T09:16:00Z</time>
      </trkpt>
      <trkpt lat="46.05643" lon="4.70005">
        <ele>200</ele>
        <time>2017-05-22T09:16:01Z</time>
      </trkpt>
      <trkpt lat="46.05647" lon="4.70011">
        <ele>200</ele>
        <time>2017-05-22T09:16:02Z</time>
      </trkpt>
      <trkpt lat="46.05651" lon="4.70017">
        <ele>200</ele>
        <time>2017-05-22T09:16:03Z</time>
      </trkpt>
      <trkpt lat="46.05655" lon="4.70024">
        <ele>200</ele>
        <time>2017-05-22T09:16:04Z</time>
      </trkpt>
      <trkpt lat="46.05658" lon="4.70031">
        <ele>200</ele>
        <time>2017-05-22T09:16:05Z</time>
      </trkpt>
      <trkpt lat="46.05663" lon="4.70037">
        <ele>200</ele>
        <time>2017-05-22T09:16:06Z</time>
      </trkpt>
      <trkpt lat="46.05667" lon="4.70044">
        <ele>200</ele>
        <time>2017-05-22T09:16:07Z</time>
      </trkpt>
      <trkpt lat="46.0567" lon="4.7005">
        <ele>199</ele>
        <time>2017-05-22T09:16:08Z</time>
      </trkpt>
      <trkpt lat="46.05674" lon="4.70056">
        <ele>199</ele>
        <time>2017-05-22T09:16:09Z</time>
      </trkpt>
      <trkpt lat="46.05678" lon="4.70063">
        <ele>199</ele>
        <time>2017-05-22T09:16:10Z</time>
      </trkpt>
      <trkpt lat="46.05681" lon="4.7007">
        <ele>199</ele>
        <time>2017-05-22T09:16:11Z</time>
      </trkpt>
      <trkpt lat="46.05685" lon="4.70077">
        <ele>199</ele>
        <time>2017-05-22T09:16:12Z</time>
      </trkpt>
      <trkpt lat="46.05688" lon="4.70083">
        <ele>199</ele>
        <time>2017-05-22T09:16:13Z</time>
      </trkpt>
      <trkpt lat="46.05691" lon="4.70091">
        <ele>198</ele>
        <time>2017-05-22T09:16:14Z</time>
      </trkpt>
      <trkpt lat="46.05695" lon="4.70099">
        <ele>198</ele>
        <time>2017-05-22T09:16:15Z</time>
      </trkpt>
      <trkpt lat="46.05698" lon="4.70106">
        <ele>198</ele>
        <time>2017-05-22T09:16:16Z</time>
      </trkpt>
      <trkpt lat="46.05701" lon="4.70114">
        <ele>198</ele>
        <time>2017-05-22T09:16:17Z</time>
      </trkpt>
      <trkpt lat="46.05704" lon="4.70122">
        <ele>198</ele>
        <time>2017-05-22T09:16:18Z</time>
      </trkpt>
      <trkpt lat="46.05708" lon="4.70129">
        <ele>198</ele>
        <time>2017-05-22T09:16:19Z</time>
      </trkpt>
      <trkpt lat="46.05712" lon="4.70137">
        <ele>198</ele>
        <time>2017-05-22T09:16:20Z</time>
      </trkpt>
      <trkpt lat="46.05716" lon="4.70144">
        <ele>198</ele>
        <time>2017-05-22T09:16:21Z</time>
      </trkpt>
      <trkpt lat="46.0572" lon="4.70151">
        <ele>198</ele>
        <time>2017-05-22T09:16:22Z</time>
      </trkpt>
      <trkpt lat="46.05724" lon="4.70158">
        <ele>198</ele>
        <time>2017-05-22T09:16:23Z</time>
      </trkpt>
      <trkpt lat="46.05728" lon="4.70166">
        <ele>198</ele>
        <time>2017-05-22T09:16:24Z</time>
      </trkpt>
      <trkpt lat="46.05732" lon="4.70173">
        <ele>198</ele>
        <time>2017-05-22T09:16:25Z</time>
      </trkpt>
      <trkpt lat="46.05736" lon="4.7018">
        <ele>198</ele>
        <time>2017-05-22T09:16:26Z</time>
      </trkpt>
      <trkpt lat="46.0574" lon="4.70188">
        <ele>198</ele>
        <time>2017-05-22T09:16:27Z</time>
      </trkpt>
      <trkpt lat="46.05744" lon="4.70195">
        <ele>198</ele>
        <time>2017-05-22T09:16:28Z</time>
      </trkpt>
      <trkpt lat="46.05748" lon="4.70202">
        <ele>198</ele>
        <time>2017-05-22T09:16:29Z</time>
      </trkpt>
      <trkpt lat="46.05752" lon="4.70209">
        <ele>198</ele>
        <time>2017-05-22T09:16:30Z</time>
      </trkpt>
      <trkpt lat="46.05756" lon="4.70216">
        <ele>198</ele>
        <time>2017-05-22T09:16:31Z</time>
      </trkpt>
      <trkpt lat="46.0576" lon="4.70222">
        <ele>198</ele>
        <time>2017-05-22T09:16:32Z</time>
      </trkpt>
      <trkpt lat="46.05765" lon="4.70229">
        <ele>198</ele>
        <time>2017-05-22T09:16:33Z</time>
      </trkpt>
      <trkpt lat="46.05769" lon="4.70237">
        <ele>198</ele>
        <time>2017-05-22T09:16:34Z</time>
      </trkpt>
      <trkpt lat="46.05773" lon="4.70245">
        <ele>198</ele>
        <time>2017-05-22T09:16:35Z</time>
      </trkpt>
      <trkpt lat="46.05778" lon="4.70254">
        <ele>198</ele>
        <time>2017-05-22T09:16:36Z</time>
      </trkpt>
      <trkpt lat="46.05782" lon="4.70261">
        <ele>198</ele>
        <time>2017-05-22T09:16:37Z</time>
      </trkpt>
      <trkpt lat="46.05787" lon="4.70268">
        <ele>198</ele>
        <time>2017-05-22T09:16:38Z</time>
      </trkpt>
      <trkpt lat="46.05792" lon="4.70276">
        <ele>198</ele>
        <time>2017-05-22T09:16:39Z</time>
      </trkpt>
      <trkpt lat="46.05797" lon="4.70284">
        <ele>197</ele>
        <time>2017-05-22T09:16:40Z</time>
      </trkpt>
      <trkpt lat="46.05803" lon="4.70292">
        <ele>197</ele>
        <time>2017-05-22T09:16:41Z</time>
      </trkpt>
      <trkpt lat="46.05808" lon="4.703">
        <ele>197</ele>
        <time>2017-05-22T09:16:42Z</time>
      </trkpt>
      <trkpt lat="46.05814" lon="4.70308">
        <ele>197</ele>
        <time>2017-05-22T09:16:43Z</time>
      </trkpt>
      <trkpt lat="46.0582" lon="4.70317">
        <ele>197</ele>
        <time>2017-05-22T09:16:44Z</time>
      </trkpt>
      <trkpt lat="46.05825" lon="4.70325">
        <ele>197</ele>
        <time>2017-05-22T09:16:45Z</time>
      </trkpt>
      <trkpt lat="46.05831" lon="4.70334">
        <ele>197</ele>
        <time>2017-05-22T09:16:46Z</time>
      </trkpt>
      <trkpt lat="46.05837" lon="4.70342">
        <ele>197</ele>
        <time>2017-05-22T09:16:47Z</time>
      </trkpt>
      <trkpt lat="46.05843" lon="4.7035">
        <ele>196</ele>
        <time>2017-05-22T09:16:48Z</time>
      </trkpt>
      <trkpt lat="46.05848" lon="4.70358">
        <ele>196</ele>
        <time>2017-05-22T09:16:49Z</time>
      </trkpt>
      <trkpt lat="46.05853" lon="4.70366">
        <ele>196</ele>
        <time>2017-05-22T09:16:50Z</time>
      </trkpt>
      <trkpt lat="46.05859" lon="4.70373">
        <ele>196</ele>
        <time>2017-05-22T09:16:51Z</time>
      </trkpt>
      <trkpt lat="46.05864" lon="4.70381">
        <ele>196</ele>
        <time>2017-05-22T09:16:52Z</time>
      </trkpt>
      <trkpt lat="46.05869" lon="4.70389">
        <ele>196</ele>
        <time>2017-05-22T09:16:53Z</time>
      </trkpt>
      <trkpt lat="46.05874" lon="4.70397">
        <ele>196</ele>
        <time>2017-05-22T09:16:54Z</time>
      </trkpt>
      <trkpt lat="46.05879" lon="4.70405">
        <ele>196</ele>
        <time>2017-05-22T09:16:55Z</time>
      </trkpt>
      <trkpt lat="46.05883" lon="4.70412">
        <ele>196</ele>
        <time>2017-05-22T09:16:56Z</time>
      </trkpt>
      <trkpt lat="46.05888" lon="4.7042">
        <ele>195</ele>
        <time>2017-05-22T09:16:57Z</time>
      </trkpt>
      <trkpt lat="46.05892" lon="4.70427">
        <ele>195</ele>
        <time>2017-05-22T09:16:58Z</time>
      </trkpt>
      <trkpt lat="46.05897" lon="4.70435">
        <ele>195</ele>
        <time>2017-05-22T09:16:59Z</time>
      </trkpt>
      <trkpt lat="46.05902" lon="4.70443">
        <ele>195</ele>
        <time>2017-05-22T09:17:00Z</time>
      </trkpt>
      <trkpt lat="46.05906" lon="4.70451">
        <ele>195</ele>
        <time>2017-05-22T09:17:01Z</time>
      </trkpt>
      <trkpt lat="46.05911" lon="4.7046">
        <ele>195</ele>
        <time>2017-05-22T09:17:02Z</time>
      </trkpt>
      <trkpt lat="46.05915" lon="4.70469">
        <ele>195</ele>
        <time>2017-05-22T09:17:03Z</time>
      </trkpt>
      <trkpt lat="46.05918" lon="4.7048">
        <ele>195</ele>
        <time>2017-05-22T09:17:04Z</time>
      </trkpt>
      <trkpt lat="46.05922" lon="4.7049">
        <ele>196</ele>
        <time>2017-05-22T09:17:05Z</time>
      </trkpt>
      <trkpt lat="46.05924" lon="4.70501">
        <ele>196</ele>
        <time>2017-05-22T09:17:06Z</time>
      </trkpt>
      <trkpt lat="46.05925" lon="4.70513">
        <ele>195</ele>
        <time>2017-05-22T09:17:07Z</time>
      </trkpt>
      <trkpt lat="46.05925" lon="4.70524">
        <ele>195</ele>
        <time>2017-05-22T09:17:08Z</time>
      </trkpt>
      <trkpt lat="46.05922" lon="4.70534">
        <ele>195</ele>
        <time>2017-05-22T09:17:09Z</time>
      </trkpt>
      <trkpt lat="46.0592" lon="4.70543">
        <ele>195</ele>
        <time>2017-05-22T09:17:10Z</time>
      </trkpt>
      <trkpt lat="46.05917" lon="4.70552">
        <ele>195</ele>
        <time>2017-05-22T09:17:11Z</time>
      </trkpt>
      <trkpt lat="46.05913" lon="4.7056">
        <ele>195</ele>
        <time>2017-05-22T09:17:12Z</time>
      </trkpt>
      <trkpt lat="46.05911" lon="4.70569">
        <ele>195</ele>
        <time>2017-05-22T09:17:13Z</time>
      </trkpt>
      <trkpt lat="46.05908" lon="4.70578">
        <ele>195</ele>
        <time>2017-05-22T09:17:14Z</time>
      </trkpt>
      <trkpt lat="46.05907" lon="4.70587">
        <ele>195</ele>
        <time>2017-05-22T09:17:15Z</time>
      </trkpt>
      <trkpt lat="46.05905" lon="4.70595">
        <ele>194</ele>
        <time>2017-05-22T09:17:16Z</time>
      </trkpt>
      <trkpt lat="46.05904" lon="4.70603">
        <ele>194</ele>
        <time>2017-05-22T09:17:17Z</time>
      </trkpt>
      <trkpt lat="46.05903" lon="4.70611">
        <ele>194</ele>
        <time>2017-05-22T09:17:18Z</time>
      </trkpt>
      <trkpt lat="46.05902" lon="4.70619">
        <ele>194</ele>
        <time>2017-05-22T09:17:19Z</time>
      </trkpt>
      <trkpt lat="46.05901" lon="4.70628">
        <ele>194</ele>
        <time>2017-05-22T09:17:20Z</time>
      </trkpt>
      <trkpt lat="46.05901" lon="4.70638">
        <ele>194</ele>
        <time>2017-05-22T09:17:21Z</time>
      </trkpt>
      <trkpt lat="46.059" lon="4.70648">
        <ele>194</ele>
        <time>2017-05-22T09:17:22Z</time>
      </trkpt>
      <trkpt lat="46.059" lon="4.70658">
        <ele>194</ele>
        <time>2017-05-22T09:17:23Z</time>
      </trkpt>
      <trkpt lat="46.059" lon="4.7067">
        <ele>194</ele>
        <time>2017-05-22T09:17:24Z</time>
      </trkpt>
      <trkpt lat="46.059" lon="4.7068">
        <ele>194</ele>
        <time>2017-05-22T09:17:25Z</time>
      </trkpt>
      <trkpt lat="46.05901" lon="4.7069">
        <ele>194</ele>
        <time>2017-05-22T09:17:26Z</time>
      </trkpt>
      <trkpt lat="46.05903" lon="4.70701">
        <ele>194</ele>
        <time>2017-05-22T09:17:27Z</time>
      </trkpt>
      <trkpt lat="46.05905" lon="4.70711">
        <ele>194</ele>
        <time>2017-05-22T09:17:28Z</time>
      </trkpt>
      <trkpt lat="46.05908" lon="4.70722">
        <ele>194</ele>
        <time>2017-05-22T09:17:29Z</time>
      </trkpt>
      <trkpt lat="46.0591" lon="4.70733">
        <ele>194</ele>
        <time>2017-05-22T09:17:30Z</time>
      </trkpt>
      <trkpt lat="46.05912" lon="4.70744">
        <ele>194</ele>
        <time>2017-05-22T09:17:31Z</time>
      </trkpt>
      <trkpt lat="46.05914" lon="4.70756">
        <ele>194</ele>
        <time>2017-05-22T09:17:32Z</time>
      </trkpt>
      <trkpt lat="46.05916" lon="4.70767">
        <ele>194</ele>
        <time>2017-05-22T09:17:33Z</time>
      </trkpt>
      <trkpt lat="46.05917" lon="4.70778">
        <ele>194</ele>
        <time>2017-05-22T09:17:34Z</time>
      </trkpt>
      <trkpt lat="46.05918" lon="4.7079">
        <ele>194</ele>
        <time>2017-05-22T09:17:35Z</time>
      </trkpt>
      <trkpt lat="46.0592" lon="4.70801">
        <ele>194</ele>
        <time>2017-05-22T09:17:36Z</time>
      </trkpt>
      <trkpt lat="46.05921" lon="4.70811">
        <ele>194</ele>
        <time>2017-05-22T09:17:37Z</time>
      </trkpt>
      <trkpt lat="46.05922" lon="4.70821">
        <ele>195</ele>
        <time>2017-05-22T09:17:38Z</time>
      </trkpt>
      <trkpt lat="46.05923" lon="4.70831">
        <ele>195</ele>
        <time>2017-05-22T09:17:39Z</time>
      </trkpt>
      <trkpt lat="46.05924" lon="4.7084">
        <ele>195</ele>
        <time>2017-05-22T09:17:40Z</time>
      </trkpt>
      <trkpt lat="46.05924" lon="4.70849">
        <ele>194</ele>
        <time>2017-05-22T09:17:41Z</time>
      </trkpt>
      <trkpt lat="46.05925" lon="4.70859">
        <ele>194</ele>
        <time>2017-05-22T09:17:42Z</time>
      </trkpt>
      <trkpt lat="46.05925" lon="4.70868">
        <ele>194</ele>
        <time>2017-05-22T09:17:43Z</time>
      </trkpt>
      <trkpt lat="46.05926" lon="4.70878">
        <ele>194</ele>
        <time>2017-05-22T09:17:44Z</time>
      </trkpt>
      <trkpt lat="46.05927" lon="4.70888">
        <ele>194</ele>
        <time>2017-05-22T09:17:45Z</time>
      </trkpt>
      <trkpt lat="46.05928" lon="4.70898">
        <ele>194</ele>
        <time>2017-05-22T09:17:46Z</time>
      </trkpt>
      <trkpt lat="46.0593" lon="4.70908">
        <ele>194</ele>
        <time>2017-05-22T09:17:47Z</time>
      </trkpt>
      <trkpt lat="46.05932" lon="4.70918">
        <ele>194</ele>
        <time>2017-05-22T09:17:48Z</time>
      </trkpt>
      <trkpt lat="46.05934" lon="4.70929">
        <ele>194</ele>
        <time>2017-05-22T09:17:49Z</time>
      </trkpt>
      <trkpt lat="46.05936" lon="4.7094">
        <ele>194</ele>
        <time>2017-05-22T09:17:50Z</time>
      </trkpt>
      <trkpt lat="46.05938" lon="4.7095">
        <ele>193</ele>
        <time>2017-05-22T09:17:51Z</time>
      </trkpt>
      <trkpt lat="46.0594" lon="4.70961">
        <ele>193</ele>
        <time>2017-05-22T09:17:52Z</time>
      </trkpt>
      <trkpt lat="46.05943" lon="4.70971">
        <ele>193</ele>
        <time>2017-05-22T09:17:53Z</time>
      </trkpt>
      <trkpt lat="46.05947" lon="4.70981">
        <ele>193</ele>
        <time>2017-05-22T09:17:54Z</time>
      </trkpt>
      <trkpt lat="46.0595" lon="4.70991">
        <ele>193</ele>
        <time>2017-05-22T09:17:55Z</time>
      </trkpt>
      <trkpt lat="46.05953" lon="4.71">
        <ele>193</ele>
        <time>2017-05-22T09:17:56Z</time>
      </trkpt>
      <trkpt lat="46.05956" lon="4.71009">
        <ele>193</ele>
        <time>2017-05-22T09:17:57Z</time>
      </trkpt>
      <trkpt lat="46.05959" lon="4.71018">
        <ele>193</ele>
        <time>2017-05-22T09:17:58Z</time>
      </trkpt>
      <trkpt lat="46.05962" lon="4.71027">
        <ele>193</ele>
        <time>2017-05-22T09:17:59Z</time>
      </trkpt>
      <trkpt lat="46.05965" lon="4.71035">
        <ele>193</ele>
        <time>2017-05-22T09:18:00Z</time>
      </trkpt>
      <trkpt lat="46.05969" lon="4.71043">
        <ele>192</ele>
        <time>2017-05-22T09:18:01Z</time>
      </trkpt>
      <trkpt lat="46.05972" lon="4.71052">
        <ele>192</ele>
        <time>2017-05-22T09:18:02Z</time>
      </trkpt>
      <trkpt lat="46.05975" lon="4.71059">
        <ele>193</ele>
        <time>2017-05-22T09:18:03Z</time>
      </trkpt>
      <trkpt lat="46.05978" lon="4.71067">
        <ele>193</ele>
        <time>2017-05-22T09:18:04Z</time>
      </trkpt>
      <trkpt lat="46.05981" lon="4.71074">
        <ele>193</ele>
        <time>2017-05-22T09:18:05Z</time>
      </trkpt>
      <trkpt lat="46.05984" lon="4.7108">
        <ele>193</ele>
        <time>2017-05-22T09:18:06Z</time>
      </trkpt>
      <trkpt lat="46.05987" lon="4.71087">
        <ele>193</ele>
        <time>2017-05-22T09:18:07Z</time>
      </trkpt>
      <trkpt lat="46.0599" lon="4.71093">
        <ele>193</ele>
        <time>2017-05-22T09:18:08Z</time>
      </trkpt>
      <trkpt lat="46.05994" lon="4.71101">
        <ele>193</ele>
        <time>2017-05-22T09:18:09Z</time>
      </trkpt>
      <trkpt lat="46.05997" lon="4.71109">
        <ele>193</ele>
        <time>2017-05-22T09:18:10Z</time>
      </trkpt>
      <trkpt lat="46.06" lon="4.71118">
        <ele>193</ele>
        <time>2017-05-22T09:18:11Z</time>
      </trkpt>
      <trkpt lat="46.06003" lon="4.71127">
        <ele>193</ele>
        <time>2017-05-22T09:18:12Z</time>
      </trkpt>
      <trkpt lat="46.06007" lon="4.71136">
        <ele>193</ele>
        <time>2017-05-22T09:18:13Z</time>
      </trkpt>
      <trkpt lat="46.0601" lon="4.71146">
        <ele>194</ele>
        <time>2017-05-22T09:18:14Z</time>
      </trkpt>
      <trkpt lat="46.06014" lon="4.71156">
        <ele>194</ele>
        <time>2017-05-22T09:18:15Z</time>
      </trkpt>
      <trkpt lat="46.06017" lon="4.71165">
        <ele>194</ele>
        <time>2017-05-22T09:18:16Z</time>
      </trkpt>
      <trkpt lat="46.06021" lon="4.71175">
        <ele>194</ele>
        <time>2017-05-22T09:18:17Z</time>
      </trkpt>
      <trkpt lat="46.06025" lon="4.71185">
        <ele>193</ele>
        <time>2017-05-22T09:18:18Z</time>
      </trkpt>
      <trkpt lat="46.06029" lon="4.71195">
        <ele>193</ele>
        <time>2017-05-22T09:18:19Z</time>
      </trkpt>
      <trkpt lat="46.06033" lon="4.71205">
        <ele>193</ele>
        <time>2017-05-22T09:18:20Z</time>
      </trkpt>
      <trkpt lat="46.06037" lon="4.71215">
        <ele>193</ele>
        <time>2017-05-22T09:18:21Z</time>
      </trkpt>
      <trkpt lat="46.06041" lon="4.71224">
        <ele>193</ele>
        <time>2017-05-22T09:18:22Z</time>
      </trkpt>
      <trkpt lat="46.06044" lon="4.71233">
        <ele>193</ele>
        <time>2017-05-22T09:18:23Z</time>
      </trkpt>
      <trkpt lat="46.06047" lon="4.71242">
        <ele>193</ele>
        <time>2017-05-22T09:18:24Z</time>
      </trkpt>
      <trkpt lat="46.0605" lon="4.71252">
        <ele>193</ele>
        <time>2017-05-22T09:18:25Z</time>
      </trkpt>
      <trkpt lat="46.06053" lon="4.71261">
        <ele>193</ele>
        <time>2017-05-22T09:18:26Z</time>
      </trkpt>
      <trkpt lat="46.06056" lon="4.7127">
        <ele>193</ele>
        <time>2017-05-22T09:18:27Z</time>
      </trkpt>
      <trkpt lat="46.06058" lon="4.71279">
        <ele>193</ele>
        <time>2017-05-22T09:18:28Z</time>
      </trkpt>
      <trkpt lat="46.06061" lon="4.71287">
        <ele>193</ele>
        <time>2017-05-22T09:18:29Z</time>
      </trkpt>
      <trkpt lat="46.06064" lon="4.71294">
        <ele>193</ele>
        <time>2017-05-22T09:18:30Z</time>
      </trkpt>
      <trkpt lat="46.06067" lon="4.71302">
        <ele>193</ele>
        <time>2017-05-22T09:18:31Z</time>
      </trkpt>
      <trkpt lat="46.06069" lon="4.71309">
        <ele>193</ele>
        <time>2017-05-22T09:18:32Z</time>
      </trkpt>
      <trkpt lat="46.06072" lon="4.71316">
        <ele>193</ele>
        <time>2017-05-22T09:18:33Z</time>
      </trkpt>
      <trkpt lat="46.06074" lon="4.71323">
        <ele>193</ele>
        <time>2017-05-22T09:18:34Z</time>
      </trkpt>
      <trkpt lat="46.06077" lon="4.71331">
        <ele>193</ele>
        <time>2017-05-22T09:18:35Z</time>
      </trkpt>
      <trkpt lat="46.06079" lon="4.71338">
        <ele>193</ele>
        <time>2017-05-22T09:18:36Z</time>
      </trkpt>
      <trkpt lat="46.06082" lon="4.71345">
        <ele>193</ele>
        <time>2017-05-22T09:18:37Z</time>
      </trkpt>
      <trkpt lat="46.06084" lon="4.71352">
        <ele>193</ele>
        <time>2017-05-22T09:18:38Z</time>
      </trkpt>
      <trkpt lat="46.06086" lon="4.7136">
        <ele>193</ele>
        <time>2017-05-22T09:18:39Z</time>
      </trkpt>
      <trkpt lat="46.06088" lon="4.71367">
        <ele>193</ele>
        <time>2017-05-22T09:18:40Z</time>
      </trkpt>
      <trkpt lat="46.0609" lon="4.71374">
        <ele>193</ele>
        <time>2017-05-22T09:18:41Z</time>
      </trkpt>
      <trkpt lat="46.06093" lon="4.71382">
        <ele>193</ele>
        <time>2017-05-22T09:18:42Z</time>
      </trkpt>
      <trkpt lat="46.06095" lon="4.71389">
        <ele>193</ele>
        <time>2017-05-22T09:18:43Z</time>
      </trkpt>
      <trkpt lat="46.06097" lon="4.71397">
        <ele>193</ele>
        <time>2017-05-22T09:18:44Z</time>
      </trkpt>
      <trkpt lat="46.061" lon="4.71405">
        <ele>193</ele>
        <time>2017-05-22T09:18:45Z</time>
      </trkpt>
      <trkpt lat="46.06102" lon="4.71413">
        <ele>193</ele>
        <time>2017-05-22T09:18:46Z</time>
      </trkpt>
      <trkpt lat="46.06105" lon="4.71422">
        <ele>193</ele>
        <time>2017-05-22T09:18:47Z</time>
      </trkpt>
      <trkpt lat="46.06107" lon="4.7143">
        <ele>193</ele>
        <time>2017-05-22T09:18:48Z</time>
      </trkpt>
      <trkpt lat="46.06109" lon="4.71438">
        <ele>193</ele>
        <time>2017-05-22T09:18:49Z</time>
      </trkpt>
      <trkpt lat="46.0611" lon="4.71448">
        <ele>193</ele>
        <time>2017-05-22T09:18:50Z</time>
      </trkpt>
      <trkpt lat="46.06112" lon="4.71456">
        <ele>193</ele>
        <time>2017-05-22T09:18:51Z</time>
      </trkpt>
      <trkpt lat="46.06114" lon="4.71464">
        <ele>193</ele>
        <time>2017-05-22T09:18:52Z</time>
      </trkpt>
      <trkpt lat="46.06117" lon="4.71472">
        <ele>193</ele>
        <time>2017-05-22T09:18:53Z</time>
      </trkpt>
      <trkpt lat="46.06119" lon="4.7148">
        <ele>193</ele>
        <time>2017-05-22T09:18:54Z</time>
      </trkpt>
      <trkpt lat="46.06122" lon="4.71489">
        <ele>193</ele>
        <time>2017-05-22T09:18:55Z</time>
      </trkpt>
      <trkpt lat="46.06125" lon="4.71497">
        <ele>193</ele>
        <time>2017-05-22T09:18:56Z</time>
      </trkpt>
      <trkpt lat="46.06128" lon="4.71506">
        <ele>192</ele>
        <time>2017-05-22T09:18:57Z</time>
      </trkpt>
      <trkpt lat="46.06132" lon="4.71514">
        <ele>192</ele>
        <time>2017-05-22T09:18:58Z</time>
      </trkpt>
      <trkpt lat="46.06135" lon="4.71522">
        <ele>192</ele>
        <time>2017-05-22T09:18:59Z</time>
      </trkpt>
      <trkpt lat="46.06139" lon="4.7153">
        <ele>192</ele>
        <time>2017-05-22T09:19:00Z</time>
      </trkpt>
      <trkpt lat="46.06143" lon="4.71538">
        <ele>192</ele>
        <time>2017-05-22T09:19:01Z</time>
      </trkpt>
      <trkpt lat="46.06148" lon="4.71544">
        <ele>192</ele>
        <time>2017-05-22T09:19:02Z</time>
      </trkpt>
      <trkpt lat="46.06153" lon="4.7155">
        <ele>192</ele>
        <time>2017-05-22T09:19:03Z</time>
      </trkpt>
      <trkpt lat="46.06158" lon="4.71557">
        <ele>192</ele>
        <time>2017-05-22T09:19:04Z</time>
      </trkpt>
      <trkpt lat="46.06163" lon="4.71563">
        <ele>192</ele>
        <time>2017-05-22T09:19:05Z</time>
      </trkpt>
      <trkpt lat="46.06168" lon="4.71569">
        <ele>191</ele>
        <time>2017-05-22T09:19:06Z</time>
      </trkpt>
      <trkpt lat="46.06173" lon="4.71576">
        <ele>191</ele>
        <time>2017-05-22T09:19:07Z</time>
      </trkpt>
      <trkpt lat="46.06177" lon="4.71583">
        <ele>191</ele>
        <time>2017-05-22T09:19:08Z</time>
      </trkpt>
      <trkpt lat="46.06182" lon="4.71589">
        <ele>191</ele>
        <time>2017-05-22T09:19:09Z</time>
      </trkpt>
      <trkpt lat="46.06187" lon="4.71596">
        <ele>191</ele>
        <time>2017-05-22T09:19:10Z</time>
      </trkpt>
      <trkpt lat="46.06191" lon="4.71603">
        <ele>191</ele>
        <time>2017-05-22T09:19:11Z</time>
      </trkpt>
      <trkpt lat="46.06196" lon="4.7161">
        <ele>191</ele>
        <time>2017-05-22T09:19:12Z</time>
      </trkpt>
      <trkpt lat="46.062" lon="4.71617">
        <ele>191</ele>
        <time>2017-05-22T09:19:13Z</time>
      </trkpt>
      <trkpt lat="46.06205" lon="4.71625">
        <ele>191</ele>
        <time>2017-05-22T09:19:14Z</time>
      </trkpt>
      <trkpt lat="46.0621" lon="4.71631">
        <ele>191</ele>
        <time>2017-05-22T09:19:15Z</time>
      </trkpt>
      <trkpt lat="46.06214" lon="4.71638">
        <ele>191</ele>
        <time>2017-05-22T09:19:16Z</time>
      </trkpt>
      <trkpt lat="46.06219" lon="4.71645">
        <ele>191</ele>
        <time>2017-05-22T09:19:17Z</time>
      </trkpt>
      <trkpt lat="46.06223" lon="4.71652">
        <ele>191</ele>
        <time>2017-05-22T09:19:18Z</time>
      </trkpt>
      <trkpt lat="46.06227" lon="4.71661">
        <ele>191</ele>
        <time>2017-05-22T09:19:19Z</time>
      </trkpt>
      <trkpt lat="46.06231" lon="4.71669">
        <ele>191</ele>
        <time>2017-05-22T09:19:20Z</time>
      </trkpt>
      <trkpt lat="46.06234" lon="4.71676">
        <ele>191</ele>
        <time>2017-05-22T09:19:21Z</time>
      </trkpt>
      <trkpt lat="46.06237" lon="4.71683">
        <ele>191</ele>
        <time>2017-05-22T09:19:22Z</time>
      </trkpt>
      <trkpt lat="46.0624" lon="4.71691">
        <ele>191</ele>
        <time>2017-05-22T09:19:23Z</time>
      </trkpt>
      <trkpt lat="46.06243" lon="4.71699">
        <ele>191</ele>
        <time>2017-05-22T09:19:24Z</time>
      </trkpt>
      <trkpt lat="46.06246" lon="4.71708">
        <ele>191</ele>
        <time>2017-05-22T09:19:25Z</time>
      </trkpt>
      <trkpt lat="46.06249" lon="4.71716">
        <ele>191</ele>
        <time>2017-05-22T09:19:26Z</time>
      </trkpt>
      <trkpt lat="46.06252" lon="4.71724">
        <ele>190</ele>
        <time>2017-05-22T09:19:27Z</time>
      </trkpt>
      <trkpt lat="46.06255" lon="4.71733">
        <ele>190</ele>
        <time>2017-05-22T09:19:28Z</time>
      </trkpt>
      <trkpt lat="46.06259" lon="4.71741">
        <ele>190</ele>
        <time>2017-05-22T09:19:29Z</time>
      </trkpt>
      <trkpt lat="46.06262" lon="4.71748">
        <ele>190</ele>
        <time>2017-05-22T09:19:30Z</time>
      </trkpt>
      <trkpt lat="46.06265" lon="4.71755">
        <ele>190</ele>
        <time>2017-05-22T09:19:31Z</time>
      </trkpt>
      <trkpt lat="46.06268" lon="4.71762">
        <ele>190</ele>
        <time>2017-05-22T09:19:32Z</time>
      </trkpt>
      <trkpt lat="46.0627" lon="4.7177">
        <ele>190</ele>
        <time>2017-05-22T09:19:33Z</time>
      </trkpt>
      <trkpt lat="46.06272" lon="4.71778">
        <ele>190</ele>
        <time>2017-05-22T09:19:34Z</time>
      </trkpt>
      <trkpt lat="46.06273" lon="4.71785">
        <ele>190</ele>
        <time>2017-05-22T09:19:35Z</time>
      </trkpt>
      <trkpt lat="46.06275" lon="4.71793">
        <ele>190</ele>
        <time>2017-05-22T09:19:36Z</time>
      </trkpt>
      <trkpt lat="46.06278" lon="4.71802">
        <ele>190</ele>
        <time>2017-05-22T09:19:37Z</time>
      </trkpt>
      <trkpt lat="46.06279" lon="4.71811">
        <ele>190</ele>
        <time>2017-05-22T09:19:38Z</time>
      </trkpt>
      <trkpt lat="46.06281" lon="4.7182">
        <ele>190</ele>
        <time>2017-05-22T09:19:39Z</time>
      </trkpt>
      <trkpt lat="46.06284" lon="4.7183">
        <ele>189</ele>
        <time>2017-05-22T09:19:40Z</time>
      </trkpt>
      <trkpt lat="46.06286" lon="4.71841">
        <ele>189</ele>
        <time>2017-05-22T09:19:41Z</time>
      </trkpt>
      <trkpt lat="46.06288" lon="4.71852">
        <ele>189</ele>
        <time>2017-05-22T09:19:42Z</time>
      </trkpt>
      <trkpt lat="46.06291" lon="4.71862">
        <ele>189</ele>
        <time>2017-05-22T09:19:43Z</time>
      </trkpt>
      <trkpt lat="46.06293" lon="4.71873">
        <ele>189</ele>
        <time>2017-05-22T09:19:44Z</time>
      </trkpt>
      <trkpt lat="46.06296" lon="4.71883">
        <ele>189</ele>
        <time>2017-05-22T09:19:45Z</time>
      </trkpt>
      <trkpt lat="46.06299" lon="4.71892">
        <ele>190</ele>
        <time>2017-05-22T09:19:46Z</time>
      </trkpt>
      <trkpt lat="46.063" lon="4.71901">
        <ele>190</ele>
        <time>2017-05-22T09:19:47Z</time>
      </trkpt>
      <trkpt lat="46.06302" lon="4.7191">
        <ele>190</ele>
        <time>2017-05-22T09:19:48Z</time>
      </trkpt>
      <trkpt lat="46.06303" lon="4.71918">
        <ele>190</ele>
        <time>2017-05-22T09:19:49Z</time>
      </trkpt>
      <trkpt lat="46.06305" lon="4.71926">
        <ele>190</ele>
        <time>2017-05-22T09:19:50Z</time>
      </trkpt>
      <trkpt lat="46.06306" lon="4.71935">
        <ele>190</ele>
        <time>2017-05-22T09:19:51Z</time>
      </trkpt>
      <trkpt lat="46.06309" lon="4.71943">
        <ele>190</ele>
        <time>2017-05-22T09:19:52Z</time>
      </trkpt>
      <trkpt lat="46.06311" lon="4.71951">
        <ele>190</ele>
        <time>2017-05-22T09:19:53Z</time>
      </trkpt>
      <trkpt lat="46.06312" lon="4.71959">
        <ele>190</ele>
        <time>2017-05-22T09:19:54Z</time>
      </trkpt>
      <trkpt lat="46.06315" lon="4.71966">
        <ele>190</ele>
        <time>2017-05-22T09:19:55Z</time>
      </trkpt>
      <trkpt lat="46.06317" lon="4.71973">
        <ele>190</ele>
        <time>2017-05-22T09:19:56Z</time>
      </trkpt>
      <trkpt lat="46.0632" lon="4.7198">
        <ele>190</ele>
        <time>2017-05-22T09:19:57Z</time>
      </trkpt>
      <trkpt lat="46.06322" lon="4.71989">
        <ele>190</ele>
        <time>2017-05-22T09:19:58Z</time>
      </trkpt>
      <trkpt lat="46.06325" lon="4.71998">
        <ele>189</ele>
        <time>2017-05-22T09:19:59Z</time>
      </trkpt>
      <trkpt lat="46.06328" lon="4.72007">
        <ele>189</ele>
        <time>2017-05-22T09:20:00Z</time>
      </trkpt>
      <trkpt lat="46.06332" lon="4.72016">
        <ele>190</ele>
        <time>2017-05-22T09:20:01Z</time>
      </trkpt>
      <trkpt lat="46.06334" lon="4.72025">
        <ele>189</ele>
        <time>2017-05-22T09:20:02Z</time>
      </trkpt>
      <trkpt lat="46.06338" lon="4.72034">
        <ele>189</ele>
        <time>2017-05-22T09:20:03Z</time>
      </trkpt>
      <trkpt lat="46.06341" lon="4.72043">
        <ele>189</ele>
        <time>2017-05-22T09:20:04Z</time>
      </trkpt>
      <trkpt lat="46.06344" lon="4.72052">
        <ele>189</ele>
        <time>2017-05-22T09:20:05Z</time>
      </trkpt>
      <trkpt lat="46.06346" lon="4.7206">
        <ele>189</ele>
        <time>2017-05-22T09:20:06Z</time>
      </trkpt>
      <trkpt lat="46.06349" lon="4.72069">
        <ele>189</ele>
        <time>2017-05-22T09:20:07Z</time>
      </trkpt>
      <trkpt lat="46.06351" lon="4.72078">
        <ele>189</ele>
        <time>2017-05-22T09:20:08Z</time>
      </trkpt>
      <trkpt lat="46.06354" lon="4.72086">
        <ele>189</ele>
        <time>2017-05-22T09:20:09Z</time>
      </trkpt>
      <trkpt lat="46.06357" lon="4.72094">
        <ele>189</ele>
        <time>2017-05-22T09:20:10Z</time>
      </trkpt>
      <trkpt lat="46.0636" lon="4.72102">
        <ele>189</ele>
        <time>2017-05-22T09:20:11Z</time>
      </trkpt>
      <trkpt lat="46.06362" lon="4.72109">
        <ele>189</ele>
        <time>2017-05-22T09:20:12Z</time>
      </trkpt>
      <trkpt lat="46.06365" lon="4.72116">
        <ele>189</ele>
        <time>2017-05-22T09:20:13Z</time>
      </trkpt>
      <trkpt lat="46.06367" lon="4.72123">
        <ele>189</ele>
        <time>2017-05-22T09:20:14Z</time>
      </trkpt>
      <trkpt lat="46.06369" lon="4.7213">
        <ele>189</ele>
        <time>2017-05-22T09:20:15Z</time>
      </trkpt>
      <trkpt lat="46.06371" lon="4.72137">
        <ele>189</ele>
        <time>2017-05-22T09:20:16Z</time>
      </trkpt>
      <trkpt lat="46.06373" lon="4.72143">
        <ele>189</ele>
        <time>2017-05-22T09:20:17Z</time>
      </trkpt>
      <trkpt lat="46.06375" lon="4.7215">
        <ele>189</ele>
        <time>2017-05-22T09:20:18Z</time>
      </trkpt>
      <trkpt lat="46.06377" lon="4.72156">
        <ele>189</ele>
        <time>2017-05-22T09:20:19Z</time>
      </trkpt>
      <trkpt lat="46.0638" lon="4.72162">
        <ele>189</ele>
        <time>2017-05-22T09:20:20Z</time>
      </trkpt>
      <trkpt lat="46.06381" lon="4.72168">
        <ele>190</ele>
        <time>2017-05-22T09:20:21Z</time>
      </trkpt>
      <trkpt lat="46.06385" lon="4.72179">
        <ele>190</ele>
        <time>2017-05-22T09:20:23Z</time>
      </trkpt>
      <trkpt lat="46.06387" lon="4.72186">
        <ele>190</ele>
        <time>2017-05-22T09:20:24Z</time>
      </trkpt>
      <trkpt lat="46.06389" lon="4.72192">
        <ele>190</ele>
        <time>2017-05-22T09:20:25Z</time>
      </trkpt>
      <trkpt lat="46.06391" lon="4.72198">
        <ele>190</ele>
        <time>2017-05-22T09:20:26Z</time>
      </trkpt>
      <trkpt lat="46.06393" lon="4.72204">
        <ele>190</ele>
        <time>2017-05-22T09:20:27Z</time>
      </trkpt>
      <trkpt lat="46.06395" lon="4.7221">
        <ele>190</ele>
        <time>2017-05-22T09:20:28Z</time>
      </trkpt>
      <trkpt lat="46.06397" lon="4.72216">
        <ele>190</ele>
        <time>2017-05-22T09:20:29Z</time>
      </trkpt>
      <trkpt lat="46.06399" lon="4.72222">
        <ele>190</ele>
        <time>2017-05-22T09:20:30Z</time>
      </trkpt>
      <trkpt lat="46.06401" lon="4.72228">
        <ele>190</ele>
        <time>2017-05-22T09:20:31Z</time>
      </trkpt>
      <trkpt lat="46.06403" lon="4.72234">
        <ele>190</ele>
        <time>2017-05-22T09:20:32Z</time>
      </trkpt>
      <trkpt lat="46.06406" lon="4.7224">
        <ele>190</ele>
        <time>2017-05-22T09:20:33Z</time>
      </trkpt>
      <trkpt lat="46.06408" lon="4.72246">
        <ele>189</ele>
        <time>2017-05-22T09:20:34Z</time>
      </trkpt>
      <trkpt lat="46.0641" lon="4.72253">
        <ele>190</ele>
        <time>2017-05-22T09:20:35Z</time>
      </trkpt>
      <trkpt lat="46.0641" lon="4.7226">
        <ele>191</ele>
        <time>2017-05-22T09:20:36Z</time>
      </trkpt>
      <trkpt lat="46.06411" lon="4.72267">
        <ele>191</ele>
        <time>2017-05-22T09:20:37Z</time>
      </trkpt>
      <trkpt lat="46.06412" lon="4.72273">
        <ele>191</ele>
        <time>2017-05-22T09:20:38Z</time>
      </trkpt>
      <trkpt lat="46.06417" lon="4.72284">
        <ele>192</ele>
        <time>2017-05-22T09:20:40Z</time>
      </trkpt>
      <trkpt lat="46.0642" lon="4.72287">
        <ele>190</ele>
        <time>2017-05-22T09:20:41Z</time>
      </trkpt>
      <trkpt lat="46.06427" lon="4.72292">
        <ele>190</ele>
        <time>2017-05-22T09:20:43Z</time>
      </trkpt>
      <trkpt lat="46.06432" lon="4.72294">
        <ele>190</ele>
        <time>2017-05-22T09:20:44Z</time>
      </trkpt>
      <trkpt lat="46.06437" lon="4.72297">
        <ele>190</ele>
        <time>2017-05-22T09:20:45Z</time>
      </trkpt>
      <trkpt lat="46.06441" lon="4.723">
        <ele>191</ele>
        <time>2017-05-22T09:20:46Z</time>
      </trkpt>
      <trkpt lat="46.06444" lon="4.72305">
        <ele>191</ele>
        <time>2017-05-22T09:20:47Z</time>
      </trkpt>
      <trkpt lat="46.06445" lon="4.72312">
        <ele>191</ele>
        <time>2017-05-22T09:20:48Z</time>
      </trkpt>
      <trkpt lat="46.06445" lon="4.72325">
        <ele>191</ele>
        <time>2017-05-22T09:20:50Z</time>
      </trkpt>
      <trkpt lat="46.06444" lon="4.72331">
        <ele>191</ele>
        <time>2017-05-22T09:20:51Z</time>
      </trkpt>
      <trkpt lat="46.06443" lon="4.72337">
        <ele>194</ele>
        <time>2017-05-22T09:20:52Z</time>
      </trkpt>
      <trkpt lat="46.0644" lon="4.72343">
        <ele>194</ele>
        <time>2017-05-22T09:20:53Z</time>
      </trkpt>
      <trkpt lat="46.06438" lon="4.72349">
        <ele>194</ele>
        <time>2017-05-22T09:20:54Z</time>
      </trkpt>
      <trkpt lat="46.06436" lon="4.72355">
        <ele>194</ele>
        <time>2017-05-22T09:20:55Z</time>
      </trkpt>
      <trkpt lat="46.06433" lon="4.7236">
        <ele>194</ele>
        <time>2017-05-22T09:20:56Z</time>
      </trkpt>
      <trkpt lat="46.06427" lon="4.72365">
        <ele>194</ele>
        <time>2017-05-22T09:20:57Z</time>
      </trkpt>
      <trkpt lat="46.06423" lon="4.72376">
        <ele>195</ele>
        <time>2017-05-22T09:20:59Z</time>
      </trkpt>
      <trkpt lat="46.06422" lon="4.72382">
        <ele>195</ele>
        <time>2017-05-22T09:21:00Z</time>
      </trkpt>
      <trkpt lat="46.0642" lon="4.72388">
        <ele>195</ele>
        <time>2017-05-22T09:21:01Z</time>
      </trkpt>
      <trkpt lat="46.06417" lon="4.72393">
        <ele>195</ele>
        <time>2017-05-22T09:21:02Z</time>
      </trkpt>
      <trkpt lat="46.06414" lon="4.72399">
        <ele>196</ele>
        <time>2017-05-22T09:21:03Z</time>
      </trkpt>
      <trkpt lat="46.06411" lon="4.72405">
        <ele>196</ele>
        <time>2017-05-22T09:21:04Z</time>
      </trkpt>
      <trkpt lat="46.06409" lon="4.7241">
        <ele>196</ele>
        <time>2017-05-22T09:21:05Z</time>
      </trkpt>
      <trkpt lat="46.06406" lon="4.72416">
        <ele>196</ele>
        <time>2017-05-22T09:21:06Z</time>
      </trkpt>
      <trkpt lat="46.06402" lon="4.72421">
        <ele>197</ele>
        <time>2017-05-22T09:21:07Z</time>
      </trkpt>
      <trkpt lat="46.06398" lon="4.72426">
        <ele>197</ele>
        <time>2017-05-22T09:21:08Z</time>
      </trkpt>
      <trkpt lat="46.06395" lon="4.72437">
        <ele>197</ele>
        <time>2017-05-22T09:21:10Z</time>
      </trkpt>
      <trkpt lat="46.06395" lon="4.72441">
        <ele>197</ele>
        <time>2017-05-22T09:21:11Z</time>
      </trkpt>
      <trkpt lat="46.06389" lon="4.72447">
        <ele>197</ele>
        <time>2017-05-22T09:21:13Z</time>
      </trkpt>
      <trkpt lat="46.06386" lon="4.72451">
        <ele>197</ele>
        <time>2017-05-22T09:21:14Z</time>
      </trkpt>
      <trkpt lat="46.06384" lon="4.72461">
        <ele>197</ele>
        <time>2017-05-22T09:21:16Z</time>
      </trkpt>
      <trkpt lat="46.06384" lon="4.72469">
        <ele>197</ele>
        <time>2017-05-22T09:21:17Z</time>
      </trkpt>
      <trkpt lat="46.06384" lon="4.7248">
        <ele>197</ele>
        <time>2017-05-22T09:21:19Z</time>
      </trkpt>
      <trkpt lat="46.06387" lon="4.72487">
        <ele>198</ele>
        <time>2017-05-22T09:21:20Z</time>
      </trkpt>
      <trkpt lat="46.0639" lon="4.72494">
        <ele>198</ele>
        <time>2017-05-22T09:21:21Z</time>
      </trkpt>
      <trkpt lat="46.06393" lon="4.72501">
        <ele>198</ele>
        <time>2017-05-22T09:21:22Z</time>
      </trkpt>
      <trkpt lat="46.06395" lon="4.72508">
        <ele>198</ele>
        <time>2017-05-22T09:21:23Z</time>
      </trkpt>
      <trkpt lat="46.06397" lon="4.72515">
        <ele>197</ele>
        <time>2017-05-22T09:21:24Z</time>
      </trkpt>
      <trkpt lat="46.06399" lon="4.72523">
        <ele>197</ele>
        <time>2017-05-22T09:21:25Z</time>
      </trkpt>
      <trkpt lat="46.064" lon="4.7253">
        <ele>197</ele>
        <time>2017-05-22T09:21:26Z</time>
      </trkpt>
      <trkpt lat="46.06403" lon="4.72539">
        <ele>197</ele>
        <time>2017-05-22T09:21:27Z</time>
      </trkpt>
      <trkpt lat="46.06404" lon="4.72546">
        <ele>196</ele>
        <time>2017-05-22T09:21:28Z</time>
      </trkpt>
      <trkpt lat="46.06405" lon="4.72554">
        <ele>196</ele>
        <time>2017-05-22T09:21:29Z</time>
      </trkpt>
      <trkpt lat="46.06407" lon="4.72563">
        <ele>196</ele>
        <time>2017-05-22T09:21:30Z</time>
      </trkpt>
      <trkpt lat="46.06408" lon="4.72571">
        <ele>196</ele>
        <time>2017-05-22T09:21:31Z</time>
      </trkpt>
      <trkpt lat="46.06409" lon="4.72579">
        <ele>195</ele>
        <time>2017-05-22T09:21:32Z</time>
      </trkpt>
      <trkpt lat="46.0641" lon="4.72588">
        <ele>195</ele>
        <time>2017-05-22T09:21:33Z</time>
      </trkpt>
      <trkpt lat="46.06412" lon="4.72596">
        <ele>194</ele>
        <time>2017-05-22T09:21:34Z</time>
      </trkpt>
      <trkpt lat="46.06413" lon="4.72603">
        <ele>194</ele>
        <time>2017-05-22T09:21:35Z</time>
      </trkpt>
      <trkpt lat="46.06414" lon="4.72615">
        <ele>194</ele>
        <time>2017-05-22T09:21:36Z</time>
      </trkpt>
      <trkpt lat="46.06416" lon="4.72625">
        <ele>194</ele>
        <time>2017-05-22T09:21:37Z</time>
      </trkpt>
      <trkpt lat="46.06417" lon="4.72635">
        <ele>193</ele>
        <time>2017-05-22T09:21:38Z</time>
      </trkpt>
      <trkpt lat="46.0642" lon="4.72645">
        <ele>192</ele>
        <time>2017-05-22T09:21:39Z</time>
      </trkpt>
      <trkpt lat="46.06422" lon="4.72655">
        <ele>192</ele>
        <time>2017-05-22T09:21:40Z</time>
      </trkpt>
      <trkpt lat="46.06423" lon="4.72666">
        <ele>192</ele>
        <time>2017-05-22T09:21:41Z</time>
      </trkpt>
      <trkpt lat="46.06425" lon="4.72676">
        <ele>191</ele>
        <time>2017-05-22T09:21:42Z</time>
      </trkpt>
      <trkpt lat="46.06427" lon="4.72685">
        <ele>191</ele>
        <time>2017-05-22T09:21:43Z</time>
      </trkpt>
      <trkpt lat="46.0643" lon="4.72695">
        <ele>190</ele>
        <time>2017-05-22T09:21:44Z</time>
      </trkpt>
      <trkpt lat="46.06432" lon="4.72705">
        <ele>190</ele>
        <time>2017-05-22T09:21:45Z</time>
      </trkpt>
      <trkpt lat="46.06435" lon="4.72718">
        <ele>190</ele>
        <time>2017-05-22T09:21:46Z</time>
      </trkpt>
      <trkpt lat="46.06437" lon="4.72729">
        <ele>190</ele>
        <time>2017-05-22T09:21:47Z</time>
      </trkpt>
      <trkpt lat="46.06439" lon="4.7274">
        <ele>189</ele>
        <time>2017-05-22T09:21:48Z</time>
      </trkpt>
      <trkpt lat="46.06441" lon="4.72751">
        <ele>188</ele>
        <time>2017-05-22T09:21:49Z</time>
      </trkpt>
      <trkpt lat="46.06443" lon="4.72762">
        <ele>188</ele>
        <time>2017-05-22T09:21:50Z</time>
      </trkpt>
      <trkpt lat="46.06445" lon="4.72772">
        <ele>188</ele>
        <time>2017-05-22T09:21:51Z</time>
      </trkpt>
      <trkpt lat="46.06447" lon="4.72782">
        <ele>188</ele>
        <time>2017-05-22T09:21:52Z</time>
      </trkpt>
      <trkpt lat="46.06449" lon="4.72793">
        <ele>188</ele>
        <time>2017-05-22T09:21:53Z</time>
      </trkpt>
      <trkpt lat="46.06451" lon="4.72803">
        <ele>188</ele>
        <time>2017-05-22T09:21:54Z</time>
      </trkpt>
      <trkpt lat="46.06453" lon="4.72813">
        <ele>188</ele>
        <time>2017-05-22T09:21:55Z</time>
      </trkpt>
      <trkpt lat="46.06454" lon="4.72822">
        <ele>188</ele>
        <time>2017-05-22T09:21:56Z</time>
      </trkpt>
      <trkpt lat="46.06456" lon="4.72832">
        <ele>188</ele>
        <time>2017-05-22T09:21:57Z</time>
      </trkpt>
      <trkpt lat="46.06457" lon="4.7284">
        <ele>188</ele>
        <time>2017-05-22T09:21:58Z</time>
      </trkpt>
      <trkpt lat="46.06458" lon="4.72849">
        <ele>188</ele>
        <time>2017-05-22T09:21:59Z</time>
      </trkpt>
      <trkpt lat="46.06459" lon="4.72858">
        <ele>188</ele>
        <time>2017-05-22T09:22:00Z</time>
      </trkpt>
      <trkpt lat="46.06461" lon="4.72867">
        <ele>188</ele>
        <time>2017-05-22T09:22:01Z</time>
      </trkpt>
      <trkpt lat="46.06462" lon="4.72877">
        <ele>188</ele>
        <time>2017-05-22T09:22:02Z</time>
      </trkpt>
      <trkpt lat="46.06465" lon="4.72886">
        <ele>188</ele>
        <time>2017-05-22T09:22:03Z</time>
      </trkpt>
      <trkpt lat="46.06466" lon="4.72895">
        <ele>188</ele>
        <time>2017-05-22T09:22:04Z</time>
      </trkpt>
      <trkpt lat="46.06467" lon="4.72904">
        <ele>188</ele>
        <time>2017-05-22T09:22:05Z</time>
      </trkpt>
      <trkpt lat="46.06469" lon="4.72913">
        <ele>188</ele>
        <time>2017-05-22T09:22:06Z</time>
      </trkpt>
      <trkpt lat="46.06471" lon="4.72921">
        <ele>188</ele>
        <time>2017-05-22T09:22:07Z</time>
      </trkpt>
      <trkpt lat="46.06473" lon="4.7293">
        <ele>188</ele>
        <time>2017-05-22T09:22:08Z</time>
      </trkpt>
      <trkpt lat="46.06475" lon="4.72938">
        <ele>188</ele>
        <time>2017-05-22T09:22:09Z</time>
      </trkpt>
      <trkpt lat="46.06476" lon="4.72946">
        <ele>188</ele>
        <time>2017-05-22T09:22:10Z</time>
      </trkpt>
      <trkpt lat="46.06477" lon="4.72955">
        <ele>188</ele>
        <time>2017-05-22T09:22:11Z</time>
      </trkpt>
      <trkpt lat="46.06478" lon="4.72963">
        <ele>188</ele>
        <time>2017-05-22T09:22:12Z</time>
      </trkpt>
      <trkpt lat="46.06477" lon="4.72971">
        <ele>188</ele>
        <time>2017-05-22T09:22:13Z</time>
      </trkpt>
      <trkpt lat="46.06475" lon="4.72978">
        <ele>188</ele>
        <time>2017-05-22T09:22:14Z</time>
      </trkpt>
      <trkpt lat="46.06474" lon="4.72985">
        <ele>188</ele>
        <time>2017-05-22T09:22:15Z</time>
      </trkpt>
      <trkpt lat="46.06475" lon="4.72993">
        <ele>189</ele>
        <time>2017-05-22T09:22:16Z</time>
      </trkpt>
      <trkpt lat="46.06478" lon="4.72998">
        <ele>189</ele>
        <time>2017-05-22T09:22:17Z</time>
      </trkpt>
      <trkpt lat="46.06482" lon="4.73003">
        <ele>189</ele>
        <time>2017-05-22T09:22:18Z</time>
      </trkpt>
      <trkpt lat="46.06486" lon="4.73008">
        <ele>189</ele>
        <time>2017-05-22T09:22:19Z</time>
      </trkpt>
      <trkpt lat="46.06489" lon="4.73013">
        <ele>189</ele>
        <time>2017-05-22T09:22:20Z</time>
      </trkpt>
      <trkpt lat="46.06493" lon="4.7302">
        <ele>189</ele>
        <time>2017-05-22T09:22:21Z</time>
      </trkpt>
      <trkpt lat="46.06497" lon="4.73027">
        <ele>189</ele>
        <time>2017-05-22T09:22:22Z</time>
      </trkpt>
      <trkpt lat="46.06501" lon="4.73035">
        <ele>189</ele>
        <time>2017-05-22T09:22:23Z</time>
      </trkpt>
      <trkpt lat="46.06504" lon="4.73042">
        <ele>189</ele>
        <time>2017-05-22T09:22:24Z</time>
      </trkpt>
      <trkpt lat="46.06507" lon="4.7305">
        <ele>189</ele>
        <time>2017-05-22T09:22:25Z</time>
      </trkpt>
      <trkpt lat="46.06511" lon="4.73058">
        <ele>188</ele>
        <time>2017-05-22T09:22:26Z</time>
      </trkpt>
      <trkpt lat="46.06514" lon="4.73065">
        <ele>188</ele>
        <time>2017-05-22T09:22:27Z</time>
      </trkpt>
      <trkpt lat="46.06518" lon="4.73073">
        <ele>188</ele>
        <time>2017-05-22T09:22:28Z</time>
      </trkpt>
      <trkpt lat="46.06521" lon="4.73081">
        <ele>188</ele>
        <time>2017-05-22T09:22:29Z</time>
      </trkpt>
      <trkpt lat="46.06524" lon="4.73088">
        <ele>188</ele>
        <time>2017-05-22T09:22:30Z</time>
      </trkpt>
      <trkpt lat="46.06528" lon="4.73096">
        <ele>188</ele>
        <time>2017-05-22T09:22:31Z</time>
      </trkpt>
      <trkpt lat="46.0653" lon="4.73105">
        <ele>188</ele>
        <time>2017-05-22T09:22:32Z</time>
      </trkpt>
      <trkpt lat="46.06532" lon="4.73114">
        <ele>188</ele>
        <time>2017-05-22T09:22:33Z</time>
      </trkpt>
      <trkpt lat="46.06534" lon="4.73123">
        <ele>188</ele>
        <time>2017-05-22T09:22:34Z</time>
      </trkpt>
      <trkpt lat="46.06538" lon="4.7313">
        <ele>188</ele>
        <time>2017-05-22T09:22:35Z</time>
      </trkpt>
      <trkpt lat="46.0654" lon="4.73138">
        <ele>188</ele>
        <time>2017-05-22T09:22:36Z</time>
      </trkpt>
      <trkpt lat="46.06542" lon="4.73146">
        <ele>188</ele>
        <time>2017-05-22T09:22:37Z</time>
      </trkpt>
      <trkpt lat="46.06542" lon="4.73155">
        <ele>187</ele>
        <time>2017-05-22T09:22:38Z</time>
      </trkpt>
      <trkpt lat="46.06542" lon="4.73164">
        <ele>187</ele>
        <time>2017-05-22T09:22:39Z</time>
      </trkpt>
      <trkpt lat="46.06543" lon="4.73173">
        <ele>187</ele>
        <time>2017-05-22T09:22:40Z</time>
      </trkpt>
      <trkpt lat="46.06543" lon="4.73182">
        <ele>187</ele>
        <time>2017-05-22T09:22:41Z</time>
      </trkpt>
      <trkpt lat="46.06544" lon="4.7319">
        <ele>187</ele>
        <time>2017-05-22T09:22:42Z</time>
      </trkpt>
      <trkpt lat="46.06544" lon="4.73199">
        <ele>187</ele>
        <time>2017-05-22T09:22:43Z</time>
      </trkpt>
      <trkpt lat="46.06546" lon="4.73208">
        <ele>186</ele>
        <time>2017-05-22T09:22:44Z</time>
      </trkpt>
      <trkpt lat="46.06547" lon="4.73217">
        <ele>186</ele>
        <time>2017-05-22T09:22:45Z</time>
      </trkpt>
      <trkpt lat="46.06548" lon="4.73226">
        <ele>186</ele>
        <time>2017-05-22T09:22:46Z</time>
      </trkpt>
      <trkpt lat="46.0655" lon="4.73234">
        <ele>186</ele>
        <time>2017-05-22T09:22:47Z</time>
      </trkpt>
      <trkpt lat="46.06554" lon="4.73241">
        <ele>186</ele>
        <time>2017-05-22T09:22:48Z</time>
      </trkpt>
      <trkpt lat="46.06557" lon="4.73249">
        <ele>186</ele>
        <time>2017-05-22T09:22:49Z</time>
      </trkpt>
      <trkpt lat="46.0656" lon="4.73256">
        <ele>184</ele>
        <time>2017-05-22T09:22:50Z</time>
      </trkpt>
      <trkpt lat="46.06563" lon="4.73264">
        <ele>184</ele>
        <time>2017-05-22T09:22:51Z</time>
      </trkpt>
      <trkpt lat="46.06567" lon="4.73271">
        <ele>184</ele>
        <time>2017-05-22T09:22:52Z</time>
      </trkpt>
      <trkpt lat="46.06569" lon="4.73279">
        <ele>184</ele>
        <time>2017-05-22T09:22:53Z</time>
      </trkpt>
      <trkpt lat="46.06572" lon="4.73286">
        <ele>184</ele>
        <time>2017-05-22T09:22:54Z</time>
      </trkpt>
      <trkpt lat="46.06574" lon="4.73294">
        <ele>184</ele>
        <time>2017-05-22T09:22:55Z</time>
      </trkpt>
      <trkpt lat="46.06577" lon="4.73302">
        <ele>183</ele>
        <time>2017-05-22T09:22:56Z</time>
      </trkpt>
      <trkpt lat="46.06579" lon="4.73311">
        <ele>183</ele>
        <time>2017-05-22T09:22:57Z</time>
      </trkpt>
      <trkpt lat="46.06581" lon="4.73319">
        <ele>183</ele>
        <time>2017-05-22T09:22:58Z</time>
      </trkpt>
      <trkpt lat="46.06583" lon="4.73327">
        <ele>182</ele>
        <time>2017-05-22T09:22:59Z</time>
      </trkpt>
      <trkpt lat="46.06585" lon="4.73335">
        <ele>182</ele>
        <time>2017-05-22T09:23:00Z</time>
      </trkpt>
      <trkpt lat="46.06589" lon="4.73342">
        <ele>182</ele>
        <time>2017-05-22T09:23:01Z</time>
      </trkpt>
      <trkpt lat="46.06594" lon="4.73346">
        <ele>182</ele>
        <time>2017-05-22T09:23:02Z</time>
      </trkpt>
      <trkpt lat="46.066" lon="4.7335">
        <ele>182</ele>
        <time>2017-05-22T09:23:03Z</time>
      </trkpt>
      <trkpt lat="46.06606" lon="4.73353">
        <ele>182</ele>
        <time>2017-05-22T09:23:04Z</time>
      </trkpt>
      <trkpt lat="46.06612" lon="4.73357">
        <ele>182</ele>
        <time>2017-05-22T09:23:05Z</time>
      </trkpt>
      <trkpt lat="46.06618" lon="4.73361">
        <ele>182</ele>
        <time>2017-05-22T09:23:06Z</time>
      </trkpt>
      <trkpt lat="46.06625" lon="4.73365">
        <ele>182</ele>
        <time>2017-05-22T09:23:07Z</time>
      </trkpt>
      <trkpt lat="46.06631" lon="4.73369">
        <ele>182</ele>
        <time>2017-05-22T09:23:08Z</time>
      </trkpt>
      <trkpt lat="46.06638" lon="4.73374">
        <ele>182</ele>
        <time>2017-05-22T09:23:09Z</time>
      </trkpt>
      <trkpt lat="46.06644" lon="4.7338">
        <ele>182</ele>
        <time>2017-05-22T09:23:10Z</time>
      </trkpt>
      <trkpt lat="46.0665" lon="4.73388">
        <ele>182</ele>
        <time>2017-05-22T09:23:11Z</time>
      </trkpt>
      <trkpt lat="46.06655" lon="4.73395">
        <ele>182</ele>
        <time>2017-05-22T09:23:12Z</time>
      </trkpt>
      <trkpt lat="46.06661" lon="4.73403">
        <ele>182</ele>
        <time>2017-05-22T09:23:13Z</time>
      </trkpt>
      <trkpt lat="46.06666" lon="4.7341">
        <ele>182</ele>
        <time>2017-05-22T09:23:14Z</time>
      </trkpt>
      <trkpt lat="46.06671" lon="4.73418">
        <ele>182</ele>
        <time>2017-05-22T09:23:15Z</time>
      </trkpt>
      <trkpt lat="46.06677" lon="4.73426">
        <ele>181</ele>
        <time>2017-05-22T09:23:16Z</time>
      </trkpt>
      <trkpt lat="46.06681" lon="4.73433">
        <ele>181</ele>
        <time>2017-05-22T09:23:17Z</time>
      </trkpt>
      <trkpt lat="46.06686" lon="4.7344">
        <ele>181</ele>
        <time>2017-05-22T09:23:18Z</time>
      </trkpt>
      <trkpt lat="46.06691" lon="4.73448">
        <ele>181</ele>
        <time>2017-05-22T09:23:19Z</time>
      </trkpt>
      <trkpt lat="46.06695" lon="4.73456">
        <ele>180</ele>
        <time>2017-05-22T09:23:20Z</time>
      </trkpt>
      <trkpt lat="46.067" lon="4.73462">
        <ele>180</ele>
        <time>2017-05-22T09:23:21Z</time>
      </trkpt>
      <trkpt lat="46.06706" lon="4.73468">
        <ele>180</ele>
        <time>2017-05-22T09:23:22Z</time>
      </trkpt>
      <trkpt lat="46.06711" lon="4.73474">
        <ele>180</ele>
        <time>2017-05-22T09:23:23Z</time>
      </trkpt>
      <trkpt lat="46.06716" lon="4.73481">
        <ele>180</ele>
        <time>2017-05-22T09:23:24Z</time>
      </trkpt>
      <trkpt lat="46.0672" lon="4.73487">
        <ele>180</ele>
        <time>2017-05-22T09:23:25Z</time>
      </trkpt>
      <trkpt lat="46.06724" lon="4.73493">
        <ele>180</ele>
        <time>2017-05-22T09:23:26Z</time>
      </trkpt>
      <trkpt lat="46.06727" lon="4.73499">
        <ele>180</ele>
        <time>2017-05-22T09:23:27Z</time>
      </trkpt>
      <trkpt lat="46.06732" lon="4.73506">
        <ele>180</ele>
        <time>2017-05-22T09:23:28Z</time>
      </trkpt>
      <trkpt lat="46.06736" lon="4.73512">
        <ele>180</ele>
        <time>2017-05-22T09:23:29Z</time>
      </trkpt>
      <trkpt lat="46.0674" lon="4.73519">
        <ele>180</ele>
        <time>2017-05-22T09:23:30Z</time>
      </trkpt>
      <trkpt lat="46.06744" lon="4.73526">
        <ele>180</ele>
        <time>2017-05-22T09:23:31Z</time>
      </trkpt>
      <trkpt lat="46.06748" lon="4.73532">
        <ele>180</ele>
        <time>2017-05-22T09:23:32Z</time>
      </trkpt>
      <trkpt lat="46.06752" lon="4.73539">
        <ele>179</ele>
        <time>2017-05-22T09:23:33Z</time>
      </trkpt>
      <trkpt lat="46.06756" lon="4.73546">
        <ele>179</ele>
        <time>2017-05-22T09:23:34Z</time>
      </trkpt>
      <trkpt lat="46.06761" lon="4.73553">
        <ele>180</ele>
        <time>2017-05-22T09:23:35Z</time>
      </trkpt>
      <trkpt lat="46.06764" lon="4.73562">
        <ele>180</ele>
        <time>2017-05-22T09:23:36Z</time>
      </trkpt>
      <trkpt lat="46.06768" lon="4.7357">
        <ele>180</ele>
        <time>2017-05-22T09:23:37Z</time>
      </trkpt>
      <trkpt lat="46.06773" lon="4.73578">
        <ele>180</ele>
        <time>2017-05-22T09:23:38Z</time>
      </trkpt>
      <trkpt lat="46.06777" lon="4.73586">
        <ele>179</ele>
        <time>2017-05-22T09:23:39Z</time>
      </trkpt>
      <trkpt lat="46.06782" lon="4.73592">
        <ele>179</ele>
        <time>2017-05-22T09:23:40Z</time>
      </trkpt>
      <trkpt lat="46.06787" lon="4.73598">
        <ele>179</ele>
        <time>2017-05-22T09:23:41Z</time>
      </trkpt>
      <trkpt lat="46.06792" lon="4.73605">
        <ele>179</ele>
        <time>2017-05-22T09:23:42Z</time>
      </trkpt>
      <trkpt lat="46.06796" lon="4.73611">
        <ele>178</ele>
        <time>2017-05-22T09:23:43Z</time>
      </trkpt>
      <trkpt lat="46.068" lon="4.73617">
        <ele>178</ele>
        <time>2017-05-22T09:23:44Z</time>
      </trkpt>
      <trkpt lat="46.06805" lon="4.73623">
        <ele>178</ele>
        <time>2017-05-22T09:23:45Z</time>
      </trkpt>
      <trkpt lat="46.0681" lon="4.73629">
        <ele>178</ele>
        <time>2017-05-22T09:23:46Z</time>
      </trkpt>
      <trkpt lat="46.06816" lon="4.73635">
        <ele>178</ele>
        <time>2017-05-22T09:23:47Z</time>
      </trkpt>
      <trkpt lat="46.06821" lon="4.73642">
        <ele>177</ele>
        <time>2017-05-22T09:23:48Z</time>
      </trkpt>
      <trkpt lat="46.06826" lon="4.73649">
        <ele>177</ele>
        <time>2017-05-22T09:23:49Z</time>
      </trkpt>
      <trkpt lat="46.06831" lon="4.73655">
        <ele>177</ele>
        <time>2017-05-22T09:23:50Z</time>
      </trkpt>
      <trkpt lat="46.06837" lon="4.73661">
        <ele>176</ele>
        <time>2017-05-22T09:23:51Z</time>
      </trkpt>
      <trkpt lat="46.06843" lon="4.73666">
        <ele>176</ele>
        <time>2017-05-22T09:23:52Z</time>
      </trkpt>
      <trkpt lat="46.06849" lon="4.73671">
        <ele>176</ele>
        <time>2017-05-22T09:23:53Z</time>
      </trkpt>
      <trkpt lat="46.06855" lon="4.73676">
        <ele>176</ele>
        <time>2017-05-22T09:23:54Z</time>
      </trkpt>
      <trkpt lat="46.0686" lon="4.73681">
        <ele>176</ele>
        <time>2017-05-22T09:23:55Z</time>
      </trkpt>
      <trkpt lat="46.06865" lon="4.73687">
        <ele>176</ele>
        <time>2017-05-22T09:23:56Z</time>
      </trkpt>
      <trkpt lat="46.0687" lon="4.73692">
        <ele>176</ele>
        <time>2017-05-22T09:23:57Z</time>
      </trkpt>
      <trkpt lat="46.06875" lon="4.73697">
        <ele>176</ele>
        <time>2017-05-22T09:23:58Z</time>
      </trkpt>
      <trkpt lat="46.06879" lon="4.73703">
        <ele>176</ele>
        <time>2017-05-22T09:23:59Z</time>
      </trkpt>
      <trkpt lat="46.06883" lon="4.73708">
        <ele>176</ele>
        <time>2017-05-22T09:24:00Z</time>
      </trkpt>
      <trkpt lat="46.06887" lon="4.73714">
        <ele>176</ele>
        <time>2017-05-22T09:24:01Z</time>
      </trkpt>
      <trkpt lat="46.0689" lon="4.7372">
        <ele>176</ele>
        <time>2017-05-22T09:24:02Z</time>
      </trkpt>
      <trkpt lat="46.06894" lon="4.73725">
        <ele>176</ele>
        <time>2017-05-22T09:24:03Z</time>
      </trkpt>
      <trkpt lat="46.06897" lon="4.73731">
        <ele>176</ele>
        <time>2017-05-22T09:24:04Z</time>
      </trkpt>
      <trkpt lat="46.06901" lon="4.73736">
        <ele>177</ele>
        <time>2017-05-22T09:24:05Z</time>
      </trkpt>
      <trkpt lat="46.06905" lon="4.73742">
        <ele>177</ele>
        <time>2017-05-22T09:24:06Z</time>
      </trkpt>
      <trkpt lat="46.06909" lon="4.73749">
        <ele>177</ele>
        <time>2017-05-22T09:24:07Z</time>
      </trkpt>
      <trkpt lat="46.06913" lon="4.73756">
        <ele>177</ele>
        <time>2017-05-22T09:24:08Z</time>
      </trkpt>
      <trkpt lat="46.06918" lon="4.73762">
        <ele>177</ele>
        <time>2017-05-22T09:24:09Z</time>
      </trkpt>
      <trkpt lat="46.06923" lon="4.73768">
        <ele>176</ele>
        <time>2017-05-22T09:24:10Z</time>
      </trkpt>
      <trkpt lat="46.06929" lon="4.73774">
        <ele>176</ele>
        <time>2017-05-22T09:24:11Z</time>
      </trkpt>
      <trkpt lat="46.06935" lon="4.73778">
        <ele>176</ele>
        <time>2017-05-22T09:24:12Z</time>
      </trkpt>
      <trkpt lat="46.06941" lon="4.73781">
        <ele>176</ele>
        <time>2017-05-22T09:24:13Z</time>
      </trkpt>
      <trkpt lat="46.06949" lon="4.73784">
        <ele>176</ele>
        <time>2017-05-22T09:24:14Z</time>
      </trkpt>
      <trkpt lat="46.06956" lon="4.73786">
        <ele>176</ele>
        <time>2017-05-22T09:24:15Z</time>
      </trkpt>
      <trkpt lat="46.06963" lon="4.73789">
        <ele>176</ele>
        <time>2017-05-22T09:24:16Z</time>
      </trkpt>
      <trkpt lat="46.0697" lon="4.7379">
        <ele>176</ele>
        <time>2017-05-22T09:24:17Z</time>
      </trkpt>
      <trkpt lat="46.06976" lon="4.73792">
        <ele>176</ele>
        <time>2017-05-22T09:24:18Z</time>
      </trkpt>
      <trkpt lat="46.06983" lon="4.73793">
        <ele>176</ele>
        <time>2017-05-22T09:24:19Z</time>
      </trkpt>
      <trkpt lat="46.0699" lon="4.73794">
        <ele>176</ele>
        <time>2017-05-22T09:24:20Z</time>
      </trkpt>
      <trkpt lat="46.06996" lon="4.73795">
        <ele>176</ele>
        <time>2017-05-22T09:24:21Z</time>
      </trkpt>
      <trkpt lat="46.07003" lon="4.73795">
        <ele>177</ele>
        <time>2017-05-22T09:24:22Z</time>
      </trkpt>
      <trkpt lat="46.07009" lon="4.73796">
        <ele>177</ele>
        <time>2017-05-22T09:24:23Z</time>
      </trkpt>
      <trkpt lat="46.07015" lon="4.73797">
        <ele>177</ele>
        <time>2017-05-22T09:24:24Z</time>
      </trkpt>
      <trkpt lat="46.07021" lon="4.73798">
        <ele>177</ele>
        <time>2017-05-22T09:24:25Z</time>
      </trkpt>
      <trkpt lat="46.07027" lon="4.73799">
        <ele>177</ele>
        <time>2017-05-22T09:24:26Z</time>
      </trkpt>
      <trkpt lat="46.07033" lon="4.73799">
        <ele>177</ele>
        <time>2017-05-22T09:24:27Z</time>
      </trkpt>
      <trkpt lat="46.07039" lon="4.738">
        <ele>177</ele>
        <time>2017-05-22T09:24:28Z</time>
      </trkpt>
      <trkpt lat="46.07045" lon="4.73801">
        <ele>177</ele>
        <time>2017-05-22T09:24:29Z</time>
      </trkpt>
      <trkpt lat="46.07051" lon="4.73802">
        <ele>177</ele>
        <time>2017-05-22T09:24:30Z</time>
      </trkpt>
      <trkpt lat="46.07056" lon="4.73804">
        <ele>177</ele>
        <time>2017-05-22T09:24:31Z</time>
      </trkpt>
      <trkpt lat="46.07062" lon="4.73806">
        <ele>177</ele>
        <time>2017-05-22T09:24:32Z</time>
      </trkpt>
      <trkpt lat="46.07067" lon="4.73809">
        <ele>178</ele>
        <time>2017-05-22T09:24:33Z</time>
      </trkpt>
      <trkpt lat="46.07073" lon="4.73812">
        <ele>178</ele>
        <time>2017-05-22T09:24:34Z</time>
      </trkpt>
      <trkpt lat="46.07079" lon="4.73814">
        <ele>178</ele>
        <time>2017-05-22T09:24:35Z</time>
      </trkpt>
      <trkpt lat="46.07085" lon="4.73817">
        <ele>178</ele>
        <time>2017-05-22T09:24:36Z</time>
      </trkpt>
      <trkpt lat="46.07091" lon="4.73822">
        <ele>178</ele>
        <time>2017-05-22T09:24:37Z</time>
      </trkpt>
      <trkpt lat="46.07096" lon="4.73826">
        <ele>178</ele>
        <time>2017-05-22T09:24:38Z</time>
      </trkpt>
      <trkpt lat="46.07102" lon="4.73832">
        <ele>178</ele>
        <time>2017-05-22T09:24:39Z</time>
      </trkpt>
      <trkpt lat="46.07108" lon="4.73837">
        <ele>177</ele>
        <time>2017-05-22T09:24:40Z</time>
      </trkpt>
      <trkpt lat="46.07113" lon="4.73842">
        <ele>177</ele>
        <time>2017-05-22T09:24:41Z</time>
      </trkpt>
      <trkpt lat="46.07118" lon="4.73848">
        <ele>177</ele>
        <time>2017-05-22T09:24:42Z</time>
      </trkpt>
      <trkpt lat="46.07122" lon="4.73853">
        <ele>177</ele>
        <time>2017-05-22T09:24:43Z</time>
      </trkpt>
      <trkpt lat="46.07126" lon="4.73859">
        <ele>176</ele>
        <time>2017-05-22T09:24:44Z</time>
      </trkpt>
      <trkpt lat="46.0713" lon="4.73865">
        <ele>176</ele>
        <time>2017-05-22T09:24:45Z</time>
      </trkpt>
      <trkpt lat="46.07134" lon="4.73871">
        <ele>176</ele>
        <time>2017-05-22T09:24:46Z</time>
      </trkpt>
      <trkpt lat="46.07137" lon="4.73877">
        <ele>176</ele>
        <time>2017-05-22T09:24:47Z</time>
      </trkpt>
      <trkpt lat="46.0714" lon="4.73884">
        <ele>176</ele>
        <time>2017-05-22T09:24:48Z</time>
      </trkpt>
      <trkpt lat="46.07143" lon="4.7389">
        <ele>176</ele>
        <time>2017-05-22T09:24:49Z</time>
      </trkpt>
      <trkpt lat="46.07145" lon="4.73897">
        <ele>177</ele>
        <time>2017-05-22T09:24:50Z</time>
      </trkpt>
      <trkpt lat="46.07148" lon="4.73904">
        <ele>177</ele>
        <time>2017-05-22T09:24:51Z</time>
      </trkpt>
      <trkpt lat="46.0715" lon="4.73911">
        <ele>177</ele>
        <time>2017-05-22T09:24:52Z</time>
      </trkpt>
      <trkpt lat="46.07152" lon="4.73917">
        <ele>177</ele>
        <time>2017-05-22T09:24:53Z</time>
      </trkpt>
      <trkpt lat="46.07154" lon="4.73924">
        <ele>177</ele>
        <time>2017-05-22T09:24:54Z</time>
      </trkpt>
      <trkpt lat="46.07156" lon="4.7393">
        <ele>177</ele>
        <time>2017-05-22T09:24:55Z</time>
      </trkpt>
      <trkpt lat="46.07158" lon="4.73935">
        <ele>177</ele>
        <time>2017-05-22T09:24:56Z</time>
      </trkpt>
      <trkpt lat="46.07161" lon="4.73946">
        <ele>177</ele>
        <time>2017-05-22T09:24:58Z</time>
      </trkpt>
      <trkpt lat="46.07163" lon="4.73951">
        <ele>177</ele>
        <time>2017-05-22T09:24:59Z</time>
      </trkpt>
      <trkpt lat="46.07166" lon="4.73961">
        <ele>177</ele>
        <time>2017-05-22T09:25:02Z</time>
      </trkpt>
      <trkpt lat="46.07166" lon="4.73961">
        <ele>177</ele>
        <time>2017-05-22T09:25:03Z</time>
      </trkpt>
      <trkpt lat="46.07167" lon="4.73961">
        <ele>178</ele>
        <time>2017-05-22T09:25:40Z</time>
      </trkpt>
      <trkpt lat="46.07166" lon="4.7396">
        <ele>177</ele>
        <time>2017-05-22T09:25:41Z</time>
      </trkpt>
      <trkpt lat="46.07168" lon="4.73962">
        <ele>178</ele>
        <time>2017-05-22T09:25:49Z</time>
      </trkpt>
      <trkpt lat="46.07169" lon="4.73963">
        <ele>178</ele>
        <time>2017-05-22T09:25:50Z</time>
      </trkpt>
      <trkpt lat="46.07173" lon="4.73971">
        <ele>178</ele>
        <time>2017-05-22T09:25:53Z</time>
      </trkpt>
      <trkpt lat="46.07173" lon="4.73973">
        <ele>178</ele>
        <time>2017-05-22T09:25:54Z</time>
      </trkpt>
      <trkpt lat="46.07177" lon="4.73985">
        <ele>178</ele>
        <time>2017-05-22T09:25:58Z</time>
      </trkpt>
      <trkpt lat="46.07177" lon="4.73988">
        <ele>178</ele>
        <time>2017-05-22T09:25:59Z</time>
      </trkpt>
      <trkpt lat="46.07181" lon="4.73997">
        <ele>178</ele>
        <time>2017-05-22T09:26:02Z</time>
      </trkpt>
      <trkpt lat="46.07183" lon="4.74">
        <ele>178</ele>
        <time>2017-05-22T09:26:03Z</time>
      </trkpt>
      <trkpt lat="46.07187" lon="4.7401">
        <ele>178</ele>
        <time>2017-05-22T09:26:06Z</time>
      </trkpt>
      <trkpt lat="46.07188" lon="4.74014">
        <ele>178</ele>
        <time>2017-05-22T09:26:07Z</time>
      </trkpt>
      <trkpt lat="46.07191" lon="4.74024">
        <ele>178</ele>
        <time>2017-05-22T09:26:10Z</time>
      </trkpt>
      <trkpt lat="46.07192" lon="4.74027">
        <ele>178</ele>
        <time>2017-05-22T09:26:11Z</time>
      </trkpt>
      <trkpt lat="46.07195" lon="4.74037">
        <ele>178</ele>
        <time>2017-05-22T09:26:14Z</time>
      </trkpt>
      <trkpt lat="46.07196" lon="4.7404">
        <ele>178</ele>
        <time>2017-05-22T09:26:15Z</time>
      </trkpt>
      <trkpt lat="46.07199" lon="4.74049">
        <ele>178</ele>
        <time>2017-05-22T09:26:17Z</time>
      </trkpt>
      <trkpt lat="46.07201" lon="4.74054">
        <ele>178</ele>
        <time>2017-05-22T09:26:18Z</time>
      </trkpt>
      <trkpt lat="46.07204" lon="4.74065">
        <ele>178</ele>
        <time>2017-05-22T09:26:20Z</time>
      </trkpt>
      <trkpt lat="46.07206" lon="4.74071">
        <ele>178</ele>
        <time>2017-05-22T09:26:21Z</time>
      </trkpt>
      <trkpt lat="46.07207" lon="4.74078">
        <ele>178</ele>
        <time>2017-05-22T09:26:22Z</time>
      </trkpt>
      <trkpt lat="46.07209" lon="4.74084">
        <ele>177</ele>
        <time>2017-05-22T09:26:23Z</time>
      </trkpt>
      <trkpt lat="46.07211" lon="4.74091">
        <ele>177</ele>
        <time>2017-05-22T09:26:24Z</time>
      </trkpt>
      <trkpt lat="46.07214" lon="4.74098">
        <ele>177</ele>
        <time>2017-05-22T09:26:25Z</time>
      </trkpt>
      <trkpt lat="46.07216" lon="4.74106">
        <ele>177</ele>
        <time>2017-05-22T09:26:26Z</time>
      </trkpt>
      <trkpt lat="46.07219" lon="4.74113">
        <ele>177</ele>
        <time>2017-05-22T09:26:27Z</time>
      </trkpt>
      <trkpt lat="46.07222" lon="4.74121">
        <ele>177</ele>
        <time>2017-05-22T09:26:28Z</time>
      </trkpt>
      <trkpt lat="46.07224" lon="4.74128">
        <ele>177</ele>
        <time>2017-05-22T09:26:29Z</time>
      </trkpt>
      <trkpt lat="46.07227" lon="4.74136">
        <ele>177</ele>
        <time>2017-05-22T09:26:30Z</time>
      </trkpt>
      <trkpt lat="46.0723" lon="4.74144">
        <ele>177</ele>
        <time>2017-05-22T09:26:31Z</time>
      </trkpt>
      <trkpt lat="46.07232" lon="4.74151">
        <ele>177</ele>
        <time>2017-05-22T09:26:32Z</time>
      </trkpt>
      <trkpt lat="46.07235" lon="4.74159">
        <ele>177</ele>
        <time>2017-05-22T09:26:33Z</time>
      </trkpt>
      <trkpt lat="46.07238" lon="4.74166">
        <ele>177</ele>
        <time>2017-05-22T09:26:34Z</time>
      </trkpt>
      <trkpt lat="46.07241" lon="4.74174">
        <ele>176</ele>
        <time>2017-05-22T09:26:35Z</time>
      </trkpt>
      <trkpt lat="46.07244" lon="4.74183">
        <ele>176</ele>
        <time>2017-05-22T09:26:36Z</time>
      </trkpt>
      <trkpt lat="46.07246" lon="4.74192">
        <ele>176</ele>
        <time>2017-05-22T09:26:37Z</time>
      </trkpt>
      <trkpt lat="46.07249" lon="4.74201">
        <ele>176</ele>
        <time>2017-05-22T09:26:38Z</time>
      </trkpt>
      <trkpt lat="46.07252" lon="4.7421">
        <ele>176</ele>
        <time>2017-05-22T09:26:39Z</time>
      </trkpt>
      <trkpt lat="46.07256" lon="4.7422">
        <ele>176</ele>
        <time>2017-05-22T09:26:40Z</time>
      </trkpt>
      <trkpt lat="46.07259" lon="4.7423">
        <ele>175</ele>
        <time>2017-05-22T09:26:41Z</time>
      </trkpt>
      <trkpt lat="46.07262" lon="4.74241">
        <ele>175</ele>
        <time>2017-05-22T09:26:42Z</time>
      </trkpt>
      <trkpt lat="46.07266" lon="4.74252">
        <ele>175</ele>
        <time>2017-05-22T09:26:43Z</time>
      </trkpt>
      <trkpt lat="46.0727" lon="4.74262">
        <ele>175</ele>
        <time>2017-05-22T09:26:44Z</time>
      </trkpt>
      <trkpt lat="46.07274" lon="4.74273">
        <ele>175</ele>
        <time>2017-05-22T09:26:45Z</time>
      </trkpt>
      <trkpt lat="46.07278" lon="4.74284">
        <ele>174</ele>
        <time>2017-05-22T09:26:46Z</time>
      </trkpt>
      <trkpt lat="46.07281" lon="4.74296">
        <ele>174</ele>
        <time>2017-05-22T09:26:47Z</time>
      </trkpt>
      <trkpt lat="46.07283" lon="4.74308">
        <ele>174</ele>
        <time>2017-05-22T09:26:48Z</time>
      </trkpt>
      <trkpt lat="46.07286" lon="4.74321">
        <ele>174</ele>
        <time>2017-05-22T09:26:49Z</time>
      </trkpt>
      <trkpt lat="46.07288" lon="4.74334">
        <ele>174</ele>
        <time>2017-05-22T09:26:50Z</time>
      </trkpt>
      <trkpt lat="46.07289" lon="4.74346">
        <ele>174</ele>
        <time>2017-05-22T09:26:51Z</time>
      </trkpt>
      <trkpt lat="46.07291" lon="4.74358">
        <ele>174</ele>
        <time>2017-05-22T09:26:52Z</time>
      </trkpt>
      <trkpt lat="46.07292" lon="4.7437">
        <ele>174</ele>
        <time>2017-05-22T09:26:53Z</time>
      </trkpt>
      <trkpt lat="46.07294" lon="4.74382">
        <ele>174</ele>
        <time>2017-05-22T09:26:54Z</time>
      </trkpt>
      <trkpt lat="46.07294" lon="4.74394">
        <ele>174</ele>
        <time>2017-05-22T09:26:55Z</time>
      </trkpt>
      <trkpt lat="46.07295" lon="4.74405">
        <ele>174</ele>
        <time>2017-05-22T09:26:56Z</time>
      </trkpt>
      <trkpt lat="46.07297" lon="4.74416">
        <ele>174</ele>
        <time>2017-05-22T09:26:57Z</time>
      </trkpt>
      <trkpt lat="46.07298" lon="4.74426">
        <ele>175</ele>
        <time>2017-05-22T09:26:58Z</time>
      </trkpt>
      <trkpt lat="46.07299" lon="4.74436">
        <ele>175</ele>
        <time>2017-05-22T09:26:59Z</time>
      </trkpt>
      <trkpt lat="46.07301" lon="4.74446">
        <ele>175</ele>
        <time>2017-05-22T09:27:00Z</time>
      </trkpt>
      <trkpt lat="46.07303" lon="4.74456">
        <ele>175</ele>
        <time>2017-05-22T09:27:01Z</time>
      </trkpt>
      <trkpt lat="46.07306" lon="4.74465">
        <ele>175</ele>
        <time>2017-05-22T09:27:02Z</time>
      </trkpt>
      <trkpt lat="46.07309" lon="4.74474">
        <ele>175</ele>
        <time>2017-05-22T09:27:03Z</time>
      </trkpt>
      <trkpt lat="46.07312" lon="4.74483">
        <ele>175</ele>
        <time>2017-05-22T09:27:04Z</time>
      </trkpt>
      <trkpt lat="46.07315" lon="4.74492">
        <ele>175</ele>
        <time>2017-05-22T09:27:05Z</time>
      </trkpt>
      <trkpt lat="46.07319" lon="4.745">
        <ele>175</ele>
        <time>2017-05-22T09:27:06Z</time>
      </trkpt>
      <trkpt lat="46.07323" lon="4.74508">
        <ele>176</ele>
        <time>2017-05-22T09:27:07Z</time>
      </trkpt>
      <trkpt lat="46.07327" lon="4.74515">
        <ele>176</ele>
        <time>2017-05-22T09:27:08Z</time>
      </trkpt>
      <trkpt lat="46.07331" lon="4.74523">
        <ele>176</ele>
        <time>2017-05-22T09:27:09Z</time>
      </trkpt>
      <trkpt lat="46.07335" lon="4.74531">
        <ele>175</ele>
        <time>2017-05-22T09:27:10Z</time>
      </trkpt>
      <trkpt lat="46.0734" lon="4.74538">
        <ele>175</ele>
        <time>2017-05-22T09:27:11Z</time>
      </trkpt>
      <trkpt lat="46.07344" lon="4.74545">
        <ele>175</ele>
        <time>2017-05-22T09:27:12Z</time>
      </trkpt>
      <trkpt lat="46.07349" lon="4.74552">
        <ele>175</ele>
        <time>2017-05-22T09:27:13Z</time>
      </trkpt>
      <trkpt lat="46.07353" lon="4.74558">
        <ele>175</ele>
        <time>2017-05-22T09:27:14Z</time>
      </trkpt>
      <trkpt lat="46.07357" lon="4.74564">
        <ele>175</ele>
        <time>2017-05-22T09:27:15Z</time>
      </trkpt>
      <trkpt lat="46.07362" lon="4.7457">
        <ele>175</ele>
        <time>2017-05-22T09:27:16Z</time>
      </trkpt>
      <trkpt lat="46.07365" lon="4.74578">
        <ele>175</ele>
        <time>2017-05-22T09:27:17Z</time>
      </trkpt>
      <trkpt lat="46.07367" lon="4.74586">
        <ele>175</ele>
        <time>2017-05-22T09:27:18Z</time>
      </trkpt>
      <trkpt lat="46.0737" lon="4.74594">
        <ele>175</ele>
        <time>2017-05-22T09:27:19Z</time>
      </trkpt>
      <trkpt lat="46.07374" lon="4.74601">
        <ele>174</ele>
        <time>2017-05-22T09:27:20Z</time>
      </trkpt>
      <trkpt lat="46.07379" lon="4.74608">
        <ele>174</ele>
        <time>2017-05-22T09:27:21Z</time>
      </trkpt>
      <trkpt lat="46.07383" lon="4.74616">
        <ele>174</ele>
        <time>2017-05-22T09:27:22Z</time>
      </trkpt>
      <trkpt lat="46.07387" lon="4.74624">
        <ele>174</ele>
        <time>2017-05-22T09:27:23Z</time>
      </trkpt>
      <trkpt lat="46.0739" lon="4.74631">
        <ele>174</ele>
        <time>2017-05-22T09:27:24Z</time>
      </trkpt>
      <trkpt lat="46.07394" lon="4.74639">
        <ele>174</ele>
        <time>2017-05-22T09:27:25Z</time>
      </trkpt>
      <trkpt lat="46.07398" lon="4.74646">
        <ele>173</ele>
        <time>2017-05-22T09:27:26Z</time>
      </trkpt>
      <trkpt lat="46.07402" lon="4.74653">
        <ele>173</ele>
        <time>2017-05-22T09:27:27Z</time>
      </trkpt>
      <trkpt lat="46.07406" lon="4.74659">
        <ele>173</ele>
        <time>2017-05-22T09:27:28Z</time>
      </trkpt>
      <trkpt lat="46.07409" lon="4.74666">
        <ele>173</ele>
        <time>2017-05-22T09:27:29Z</time>
      </trkpt>
      <trkpt lat="46.07413" lon="4.74672">
        <ele>172</ele>
        <time>2017-05-22T09:27:30Z</time>
      </trkpt>
      <trkpt lat="46.07416" lon="4.74679">
        <ele>172</ele>
        <time>2017-05-22T09:27:31Z</time>
      </trkpt>
      <trkpt lat="46.0742" lon="4.74686">
        <ele>172</ele>
        <time>2017-05-22T09:27:32Z</time>
      </trkpt>
      <trkpt lat="46.07424" lon="4.74692">
        <ele>173</ele>
        <time>2017-05-22T09:27:33Z</time>
      </trkpt>
      <trkpt lat="46.07427" lon="4.74699">
        <ele>173</ele>
        <time>2017-05-22T09:27:34Z</time>
      </trkpt>
      <trkpt lat="46.07431" lon="4.74705">
        <ele>173</ele>
        <time>2017-05-22T09:27:35Z</time>
      </trkpt>
      <trkpt lat="46.07434" lon="4.74711">
        <ele>173</ele>
        <time>2017-05-22T09:27:36Z</time>
      </trkpt>
      <trkpt lat="46.07438" lon="4.74717">
        <ele>173</ele>
        <time>2017-05-22T09:27:37Z</time>
      </trkpt>
      <trkpt lat="46.07441" lon="4.74724">
        <ele>173</ele>
        <time>2017-05-22T09:27:38Z</time>
      </trkpt>
      <trkpt lat="46.07445" lon="4.74731">
        <ele>173</ele>
        <time>2017-05-22T09:27:39Z</time>
      </trkpt>
      <trkpt lat="46.07449" lon="4.74737">
        <ele>173</ele>
        <time>2017-05-22T09:27:40Z</time>
      </trkpt>
      <trkpt lat="46.07453" lon="4.74744">
        <ele>173</ele>
        <time>2017-05-22T09:27:41Z</time>
      </trkpt>
      <trkpt lat="46.07457" lon="4.7475">
        <ele>173</ele>
        <time>2017-05-22T09:27:42Z</time>
      </trkpt>
      <trkpt lat="46.07462" lon="4.74756">
        <ele>173</ele>
        <time>2017-05-22T09:27:43Z</time>
      </trkpt>
      <trkpt lat="46.07466" lon="4.74762">
        <ele>173</ele>
        <time>2017-05-22T09:27:44Z</time>
      </trkpt>
      <trkpt lat="46.07471" lon="4.74767">
        <ele>173</ele>
        <time>2017-05-22T09:27:45Z</time>
      </trkpt>
      <trkpt lat="46.07475" lon="4.74771">
        <ele>173</ele>
        <time>2017-05-22T09:27:46Z</time>
      </trkpt>
      <trkpt lat="46.0748" lon="4.74776">
        <ele>173</ele>
        <time>2017-05-22T09:27:47Z</time>
      </trkpt>
      <trkpt lat="46.07485" lon="4.7478">
        <ele>173</ele>
        <time>2017-05-22T09:27:48Z</time>
      </trkpt>
      <trkpt lat="46.0749" lon="4.74784">
        <ele>173</ele>
        <time>2017-05-22T09:27:49Z</time>
      </trkpt>
      <trkpt lat="46.07496" lon="4.7479">
        <ele>173</ele>
        <time>2017-05-22T09:27:50Z</time>
      </trkpt>
      <trkpt lat="46.07503" lon="4.74795">
        <ele>172</ele>
        <time>2017-05-22T09:27:51Z</time>
      </trkpt>
      <trkpt lat="46.07509" lon="4.74801">
        <ele>172</ele>
        <time>2017-05-22T09:27:52Z</time>
      </trkpt>
      <trkpt lat="46.07515" lon="4.74806">
        <ele>172</ele>
        <time>2017-05-22T09:27:53Z</time>
      </trkpt>
      <trkpt lat="46.07522" lon="4.74812">
        <ele>172</ele>
        <time>2017-05-22T09:27:54Z</time>
      </trkpt>
      <trkpt lat="46.07528" lon="4.74817">
        <ele>172</ele>
        <time>2017-05-22T09:27:55Z</time>
      </trkpt>
      <trkpt lat="46.07534" lon="4.74823">
        <ele>172</ele>
        <time>2017-05-22T09:27:56Z</time>
      </trkpt>
      <trkpt lat="46.0754" lon="4.74829">
        <ele>172</ele>
        <time>2017-05-22T09:27:57Z</time>
      </trkpt>
      <trkpt lat="46.07545" lon="4.74834">
        <ele>171</ele>
        <time>2017-05-22T09:27:58Z</time>
      </trkpt>
      <trkpt lat="46.07551" lon="4.74839">
        <ele>171</ele>
        <time>2017-05-22T09:27:59Z</time>
      </trkpt>
      <trkpt lat="46.07556" lon="4.74844">
        <ele>171</ele>
        <time>2017-05-22T09:28:00Z</time>
      </trkpt>
      <trkpt lat="46.07562" lon="4.74848">
        <ele>171</ele>
        <time>2017-05-22T09:28:01Z</time>
      </trkpt>
      <trkpt lat="46.07568" lon="4.74853">
        <ele>171</ele>
        <time>2017-05-22T09:28:02Z</time>
      </trkpt>
      <trkpt lat="46.07574" lon="4.74857">
        <ele>171</ele>
        <time>2017-05-22T09:28:03Z</time>
      </trkpt>
      <trkpt lat="46.07579" lon="4.74861">
        <ele>171</ele>
        <time>2017-05-22T09:28:04Z</time>
      </trkpt>
      <trkpt lat="46.07585" lon="4.74866">
        <ele>171</ele>
        <time>2017-05-22T09:28:05Z</time>
      </trkpt>
      <trkpt lat="46.0759" lon="4.7487">
        <ele>171</ele>
        <time>2017-05-22T09:28:06Z</time>
      </trkpt>
      <trkpt lat="46.07595" lon="4.74874">
        <ele>171</ele>
        <time>2017-05-22T09:28:07Z</time>
      </trkpt>
      <trkpt lat="46.07601" lon="4.74879">
        <ele>171</ele>
        <time>2017-05-22T09:28:08Z</time>
      </trkpt>
      <trkpt lat="46.07608" lon="4.74884">
        <ele>171</ele>
        <time>2017-05-22T09:28:09Z</time>
      </trkpt>
      <trkpt lat="46.07615" lon="4.74888">
        <ele>171</ele>
        <time>2017-05-22T09:28:10Z</time>
      </trkpt>
      <trkpt lat="46.07621" lon="4.74894">
        <ele>171</ele>
        <time>2017-05-22T09:28:11Z</time>
      </trkpt>
      <trkpt lat="46.07628" lon="4.74899">
        <ele>171</ele>
        <time>2017-05-22T09:28:12Z</time>
      </trkpt>
      <trkpt lat="46.07634" lon="4.74904">
        <ele>171</ele>
        <time>2017-05-22T09:28:13Z</time>
      </trkpt>
      <trkpt lat="46.07641" lon="4.74908">
        <ele>171</ele>
        <time>2017-05-22T09:28:14Z</time>
      </trkpt>
      <trkpt lat="46.07647" lon="4.74913">
        <ele>171</ele>
        <time>2017-05-22T09:28:15Z</time>
      </trkpt>
      <trkpt lat="46.07653" lon="4.74919">
        <ele>172</ele>
        <time>2017-05-22T09:28:16Z</time>
      </trkpt>
      <trkpt lat="46.0766" lon="4.74923">
        <ele>172</ele>
        <time>2017-05-22T09:28:17Z</time>
      </trkpt>
      <trkpt lat="46.07665" lon="4.74928">
        <ele>172</ele>
        <time>2017-05-22T09:28:18Z</time>
      </trkpt>
      <trkpt lat="46.0767" lon="4.74933">
        <ele>172</ele>
        <time>2017-05-22T09:28:19Z</time>
      </trkpt>
      <trkpt lat="46.07676" lon="4.74937">
        <ele>172</ele>
        <time>2017-05-22T09:28:20Z</time>
      </trkpt>
      <trkpt lat="46.07682" lon="4.74941">
        <ele>172</ele>
        <time>2017-05-22T09:28:21Z</time>
      </trkpt>
      <trkpt lat="46.07687" lon="4.74946">
        <ele>172</ele>
        <time>2017-05-22T09:28:22Z</time>
      </trkpt>
      <trkpt lat="46.07692" lon="4.7495">
        <ele>172</ele>
        <time>2017-05-22T09:28:23Z</time>
      </trkpt>
      <trkpt lat="46.07697" lon="4.74954">
        <ele>172</ele>
        <time>2017-05-22T09:28:24Z</time>
      </trkpt>
      <trkpt lat="46.07701" lon="4.74959">
        <ele>172</ele>
        <time>2017-05-22T09:28:25Z</time>
      </trkpt>
      <trkpt lat="46.07706" lon="4.74963">
        <ele>172</ele>
        <time>2017-05-22T09:28:26Z</time>
      </trkpt>
      <trkpt lat="46.0771" lon="4.74968">
        <ele>172</ele>
        <time>2017-05-22T09:28:27Z</time>
      </trkpt>
      <trkpt lat="46.07714" lon="4.74972">
        <ele>172</ele>
        <time>2017-05-22T09:28:28Z</time>
      </trkpt>
      <trkpt lat="46.07718" lon="4.74977">
        <ele>172</ele>
        <time>2017-05-22T09:28:29Z</time>
      </trkpt>
      <trkpt lat="46.07721" lon="4.74981">
        <ele>172</ele>
        <time>2017-05-22T09:28:30Z</time>
      </trkpt>
      <trkpt lat="46.07725" lon="4.74985">
        <ele>173</ele>
        <time>2017-05-22T09:28:31Z</time>
      </trkpt>
      <trkpt lat="46.07729" lon="4.74988">
        <ele>173</ele>
        <time>2017-05-22T09:28:32Z</time>
      </trkpt>
      <trkpt lat="46.07734" lon="4.74992">
        <ele>173</ele>
        <time>2017-05-22T09:28:33Z</time>
      </trkpt>
      <trkpt lat="46.0774" lon="4.74997">
        <ele>173</ele>
        <time>2017-05-22T09:28:34Z</time>
      </trkpt>
      <trkpt lat="46.07745" lon="4.75001">
        <ele>173</ele>
        <time>2017-05-22T09:28:35Z</time>
      </trkpt>
      <trkpt lat="46.07751" lon="4.75005">
        <ele>173</ele>
        <time>2017-05-22T09:28:36Z</time>
      </trkpt>
      <trkpt lat="46.07757" lon="4.7501">
        <ele>172</ele>
        <time>2017-05-22T09:28:37Z</time>
      </trkpt>
      <trkpt lat="46.07763" lon="4.75014">
        <ele>172</ele>
        <time>2017-05-22T09:28:38Z</time>
      </trkpt>
      <trkpt lat="46.07769" lon="4.75019">
        <ele>172</ele>
        <time>2017-05-22T09:28:39Z</time>
      </trkpt>
      <trkpt lat="46.07775" lon="4.75023">
        <ele>172</ele>
        <time>2017-05-22T09:28:40Z</time>
      </trkpt>
      <trkpt lat="46.07781" lon="4.75027">
        <ele>172</ele>
        <time>2017-05-22T09:28:41Z</time>
      </trkpt>
      <trkpt lat="46.07787" lon="4.75031">
        <ele>172</ele>
        <time>2017-05-22T09:28:42Z</time>
      </trkpt>
      <trkpt lat="46.07793" lon="4.75036">
        <ele>171</ele>
        <time>2017-05-22T09:28:43Z</time>
      </trkpt>
      <trkpt lat="46.07798" lon="4.7504">
        <ele>171</ele>
        <time>2017-05-22T09:28:44Z</time>
      </trkpt>
      <trkpt lat="46.07804" lon="4.75045">
        <ele>171</ele>
        <time>2017-05-22T09:28:45Z</time>
      </trkpt>
      <trkpt lat="46.07809" lon="4.7505">
        <ele>171</ele>
        <time>2017-05-22T09:28:46Z</time>
      </trkpt>
      <trkpt lat="46.07814" lon="4.75054">
        <ele>171</ele>
        <time>2017-05-22T09:28:47Z</time>
      </trkpt>
      <trkpt lat="46.07819" lon="4.75059">
        <ele>171</ele>
        <time>2017-05-22T09:28:48Z</time>
      </trkpt>
      <trkpt lat="46.07823" lon="4.75064">
        <ele>171</ele>
        <time>2017-05-22T09:28:49Z</time>
      </trkpt>
      <trkpt lat="46.07828" lon="4.75069">
        <ele>171</ele>
        <time>2017-05-22T09:28:50Z</time>
      </trkpt>
      <trkpt lat="46.07833" lon="4.75074">
        <ele>171</ele>
        <time>2017-05-22T09:28:51Z</time>
      </trkpt>
      <trkpt lat="46.07837" lon="4.7508">
        <ele>171</ele>
        <time>2017-05-22T09:28:52Z</time>
      </trkpt>
      <trkpt lat="46.07841" lon="4.75085">
        <ele>171</ele>
        <time>2017-05-22T09:28:53Z</time>
      </trkpt>
      <trkpt lat="46.07846" lon="4.75091">
        <ele>171</ele>
        <time>2017-05-22T09:28:54Z</time>
      </trkpt>
      <trkpt lat="46.07849" lon="4.75096">
        <ele>171</ele>
        <time>2017-05-22T09:28:55Z</time>
      </trkpt>
      <trkpt lat="46.07853" lon="4.75102">
        <ele>171</ele>
        <time>2017-05-22T09:28:56Z</time>
      </trkpt>
      <trkpt lat="46.07856" lon="4.75107">
        <ele>171</ele>
        <time>2017-05-22T09:28:57Z</time>
      </trkpt>
      <trkpt lat="46.0786" lon="4.75113">
        <ele>171</ele>
        <time>2017-05-22T09:28:58Z</time>
      </trkpt>
      <trkpt lat="46.07863" lon="4.75118">
        <ele>171</ele>
        <time>2017-05-22T09:28:59Z</time>
      </trkpt>
      <trkpt lat="46.07867" lon="4.75124">
        <ele>171</ele>
        <time>2017-05-22T09:29:00Z</time>
      </trkpt>
      <trkpt lat="46.0787" lon="4.75131">
        <ele>171</ele>
        <time>2017-05-22T09:29:01Z</time>
      </trkpt>
      <trkpt lat="46.07874" lon="4.75137">
        <ele>171</ele>
        <time>2017-05-22T09:29:02Z</time>
      </trkpt>
      <trkpt lat="46.07879" lon="4.75144">
        <ele>171</ele>
        <time>2017-05-22T09:29:03Z</time>
      </trkpt>
      <trkpt lat="46.07882" lon="4.75151">
        <ele>171</ele>
        <time>2017-05-22T09:29:04Z</time>
      </trkpt>
      <trkpt lat="46.07887" lon="4.75159">
        <ele>171</ele>
        <time>2017-05-22T09:29:05Z</time>
      </trkpt>
      <trkpt lat="46.07891" lon="4.75166">
        <ele>171</ele>
        <time>2017-05-22T09:29:06Z</time>
      </trkpt>
      <trkpt lat="46.07895" lon="4.75173">
        <ele>171</ele>
        <time>2017-05-22T09:29:07Z</time>
      </trkpt>
      <trkpt lat="46.07899" lon="4.7518">
        <ele>171</ele>
        <time>2017-05-22T09:29:08Z</time>
      </trkpt>
      <trkpt lat="46.07903" lon="4.75188">
        <ele>171</ele>
        <time>2017-05-22T09:29:09Z</time>
      </trkpt>
      <trkpt lat="46.07907" lon="4.75196">
        <ele>171</ele>
        <time>2017-05-22T09:29:10Z</time>
      </trkpt>
      <trkpt lat="46.0791" lon="4.75203">
        <ele>171</ele>
        <time>2017-05-22T09:29:11Z</time>
      </trkpt>
      <trkpt lat="46.07914" lon="4.75211">
        <ele>171</ele>
        <time>2017-05-22T09:29:12Z</time>
      </trkpt>
      <trkpt lat="46.07917" lon="4.75218">
        <ele>171</ele>
        <time>2017-05-22T09:29:13Z</time>
      </trkpt>
      <trkpt lat="46.0792" lon="4.75225">
        <ele>171</ele>
        <time>2017-05-22T09:29:14Z</time>
      </trkpt>
      <trkpt lat="46.07923" lon="4.75231">
        <ele>170</ele>
        <time>2017-05-22T09:29:15Z</time>
      </trkpt>
      <trkpt lat="46.07926" lon="4.75238">
        <ele>170</ele>
        <time>2017-05-22T09:29:16Z</time>
      </trkpt>
      <trkpt lat="46.07929" lon="4.75245">
        <ele>170</ele>
        <time>2017-05-22T09:29:17Z</time>
      </trkpt>
      <trkpt lat="46.07933" lon="4.75252">
        <ele>170</ele>
        <time>2017-05-22T09:29:18Z</time>
      </trkpt>
      <trkpt lat="46.07936" lon="4.7526">
        <ele>170</ele>
        <time>2017-05-22T09:29:19Z</time>
      </trkpt>
      <trkpt lat="46.0794" lon="4.75268">
        <ele>169</ele>
        <time>2017-05-22T09:29:20Z</time>
      </trkpt>
      <trkpt lat="46.07944" lon="4.75276">
        <ele>169</ele>
        <time>2017-05-22T09:29:21Z</time>
      </trkpt>
      <trkpt lat="46.07948" lon="4.75285">
        <ele>169</ele>
        <time>2017-05-22T09:29:22Z</time>
      </trkpt>
      <trkpt lat="46.07952" lon="4.75294">
        <ele>169</ele>
        <time>2017-05-22T09:29:23Z</time>
      </trkpt>
      <trkpt lat="46.07956" lon="4.75303">
        <ele>169</ele>
        <time>2017-05-22T09:29:24Z</time>
      </trkpt>
      <trkpt lat="46.07959" lon="4.75311">
        <ele>169</ele>
        <time>2017-05-22T09:29:25Z</time>
      </trkpt>
      <trkpt lat="46.07963" lon="4.75318">
        <ele>169</ele>
        <time>2017-05-22T09:29:26Z</time>
      </trkpt>
      <trkpt lat="46.07967" lon="4.75326">
        <ele>169</ele>
        <time>2017-05-22T09:29:27Z</time>
      </trkpt>
      <trkpt lat="46.0797" lon="4.75334">
        <ele>168</ele>
        <time>2017-05-22T09:29:28Z</time>
      </trkpt>
      <trkpt lat="46.07974" lon="4.75341">
        <ele>168</ele>
        <time>2017-05-22T09:29:29Z</time>
      </trkpt>
      <trkpt lat="46.07977" lon="4.75347">
        <ele>168</ele>
        <time>2017-05-22T09:29:30Z</time>
      </trkpt>
      <trkpt lat="46.07981" lon="4.75354">
        <ele>168</ele>
        <time>2017-05-22T09:29:31Z</time>
      </trkpt>
      <trkpt lat="46.07985" lon="4.75361">
        <ele>168</ele>
        <time>2017-05-22T09:29:32Z</time>
      </trkpt>
      <trkpt lat="46.07988" lon="4.75368">
        <ele>168</ele>
        <time>2017-05-22T09:29:33Z</time>
      </trkpt>
      <trkpt lat="46.07991" lon="4.75375">
        <ele>168</ele>
        <time>2017-05-22T09:29:34Z</time>
      </trkpt>
      <trkpt lat="46.07995" lon="4.75382">
        <ele>167</ele>
        <time>2017-05-22T09:29:35Z</time>
      </trkpt>
      <trkpt lat="46.07997" lon="4.75388">
        <ele>167</ele>
        <time>2017-05-22T09:29:36Z</time>
      </trkpt>
      <trkpt lat="46.08" lon="4.75393">
        <ele>167</ele>
        <time>2017-05-22T09:29:37Z</time>
      </trkpt>
      <trkpt lat="46.08004" lon="4.75404">
        <ele>166</ele>
        <time>2017-05-22T09:29:39Z</time>
      </trkpt>
      <trkpt lat="46.08007" lon="4.75409">
        <ele>166</ele>
        <time>2017-05-22T09:29:40Z</time>
      </trkpt>
      <trkpt lat="46.08009" lon="4.75415">
        <ele>166</ele>
        <time>2017-05-22T09:29:41Z</time>
      </trkpt>
      <trkpt lat="46.08013" lon="4.75421">
        <ele>166</ele>
        <time>2017-05-22T09:29:42Z</time>
      </trkpt>
      <trkpt lat="46.08016" lon="4.75427">
        <ele>166</ele>
        <time>2017-05-22T09:29:43Z</time>
      </trkpt>
      <trkpt lat="46.08019" lon="4.75433">
        <ele>166</ele>
        <time>2017-05-22T09:29:44Z</time>
      </trkpt>
      <trkpt lat="46.08022" lon="4.75439">
        <ele>166</ele>
        <time>2017-05-22T09:29:45Z</time>
      </trkpt>
      <trkpt lat="46.08025" lon="4.75446">
        <ele>166</ele>
        <time>2017-05-22T09:29:46Z</time>
      </trkpt>
      <trkpt lat="46.08029" lon="4.75452">
        <ele>166</ele>
        <time>2017-05-22T09:29:47Z</time>
      </trkpt>
      <trkpt lat="46.08033" lon="4.75459">
        <ele>166</ele>
        <time>2017-05-22T09:29:48Z</time>
      </trkpt>
      <trkpt lat="46.08036" lon="4.75465">
        <ele>166</ele>
        <time>2017-05-22T09:29:49Z</time>
      </trkpt>
      <trkpt lat="46.08039" lon="4.75471">
        <ele>166</ele>
        <time>2017-05-22T09:29:50Z</time>
      </trkpt>
      <trkpt lat="46.08042" lon="4.75477">
        <ele>166</ele>
        <time>2017-05-22T09:29:51Z</time>
      </trkpt>
      <trkpt lat="46.08045" lon="4.75483">
        <ele>166</ele>
        <time>2017-05-22T09:29:52Z</time>
      </trkpt>
      <trkpt lat="46.08048" lon="4.7549">
        <ele>166</ele>
        <time>2017-05-22T09:29:53Z</time>
      </trkpt>
      <trkpt lat="46.08051" lon="4.75497">
        <ele>166</ele>
        <time>2017-05-22T09:29:54Z</time>
      </trkpt>
      <trkpt lat="46.08054" lon="4.75504">
        <ele>167</ele>
        <time>2017-05-22T09:29:55Z</time>
      </trkpt>
      <trkpt lat="46.08057" lon="4.75511">
        <ele>167</ele>
        <time>2017-05-22T09:29:56Z</time>
      </trkpt>
      <trkpt lat="46.08061" lon="4.75518">
        <ele>168</ele>
        <time>2017-05-22T09:29:57Z</time>
      </trkpt>
      <trkpt lat="46.08064" lon="4.75525">
        <ele>168</ele>
        <time>2017-05-22T09:29:58Z</time>
      </trkpt>
      <trkpt lat="46.08068" lon="4.75533">
        <ele>168</ele>
        <time>2017-05-22T09:29:59Z</time>
      </trkpt>
      <trkpt lat="46.08072" lon="4.7554">
        <ele>169</ele>
        <time>2017-05-22T09:30:00Z</time>
      </trkpt>
      <trkpt lat="46.08075" lon="4.75547">
        <ele>169</ele>
        <time>2017-05-22T09:30:01Z</time>
      </trkpt>
      <trkpt lat="46.08078" lon="4.75555">
        <ele>170</ele>
        <time>2017-05-22T09:30:02Z</time>
      </trkpt>
      <trkpt lat="46.08081" lon="4.75561">
        <ele>170</ele>
        <time>2017-05-22T09:30:03Z</time>
      </trkpt>
      <trkpt lat="46.08083" lon="4.75567">
        <ele>171</ele>
        <time>2017-05-22T09:30:04Z</time>
      </trkpt>
      <trkpt lat="46.08088" lon="4.75576">
        <ele>173</ele>
        <time>2017-05-22T09:30:06Z</time>
      </trkpt>
      <trkpt lat="46.0809" lon="4.7558">
        <ele>174</ele>
        <time>2017-05-22T09:30:07Z</time>
      </trkpt>
      <trkpt lat="46.08089" lon="4.75592">
        <ele>174</ele>
        <time>2017-05-22T09:30:10Z</time>
      </trkpt>
      <trkpt lat="46.08086" lon="4.75595">
        <ele>174</ele>
        <time>2017-05-22T09:30:11Z</time>
      </trkpt>
      <trkpt lat="46.08081" lon="4.75598">
        <ele>174</ele>
        <time>2017-05-22T09:30:12Z</time>
      </trkpt>
      <trkpt lat="46.08077" lon="4.75602">
        <ele>173</ele>
        <time>2017-05-22T09:30:13Z</time>
      </trkpt>
      <trkpt lat="46.0807" lon="4.75609">
        <ele>173</ele>
        <time>2017-05-22T09:30:15Z</time>
      </trkpt>
      <trkpt lat="46.08067" lon="4.75611">
        <ele>173</ele>
        <time>2017-05-22T09:30:16Z</time>
      </trkpt>
      <trkpt lat="46.0806" lon="4.75612">
        <ele>173</ele>
        <time>2017-05-22T09:30:20Z</time>
      </trkpt>
      <trkpt lat="46.08058" lon="4.75613">
        <ele>173</ele>
        <time>2017-05-22T09:30:21Z</time>
      </trkpt>
      <trkpt lat="46.08058" lon="4.75613">
        <ele>173</ele>
        <time>2017-05-22T09:30:22Z</time>
      </trkpt>
      <trkpt lat="46.08051" lon="4.7561">
        <ele>173</ele>
        <time>2017-05-22T09:34:36Z</time>
      </trkpt>
      <trkpt lat="46.08045" lon="4.75617">
        <ele>173</ele>
        <time>2017-05-22T09:34:37Z</time>
      </trkpt>
      <trkpt lat="46.08044" lon="4.75628">
        <ele>173</ele>
        <time>2017-05-22T09:35:10Z</time>
      </trkpt>
      <trkpt lat="46.08042" lon="4.75631">
        <ele>173</ele>
        <time>2017-05-22T09:35:11Z</time>
      </trkpt>
      <trkpt lat="46.08034" lon="4.75636">
        <ele>173</ele>
        <time>2017-05-22T09:35:16Z</time>
      </trkpt>
      <trkpt lat="46.08033" lon="4.75638">
        <ele>173</ele>
        <time>2017-05-22T09:35:17Z</time>
      </trkpt>
      <trkpt lat="46.08026" lon="4.75643">
        <ele>174</ele>
        <time>2017-05-22T09:35:20Z</time>
      </trkpt>
      <trkpt lat="46.08024" lon="4.75645">
        <ele>174</ele>
        <time>2017-05-22T09:35:21Z</time>
      </trkpt>
      <trkpt lat="46.08018" lon="4.75648">
        <ele>174</ele>
        <time>2017-05-22T09:35:23Z</time>
      </trkpt>
      <trkpt lat="46.08015" lon="4.75648">
        <ele>174</ele>
        <time>2017-05-22T09:35:24Z</time>
      </trkpt>
      <trkpt lat="46.08008" lon="4.75651">
        <ele>174</ele>
        <time>2017-05-22T09:35:26Z</time>
      </trkpt>
      <trkpt lat="46.08005" lon="4.75653">
        <ele>174</ele>
        <time>2017-05-22T09:35:27Z</time>
      </trkpt>
      <trkpt lat="46.08" lon="4.75658">
        <ele>174</ele>
        <time>2017-05-22T09:35:29Z</time>
      </trkpt>
      <trkpt lat="46.07997" lon="4.7566">
        <ele>174</ele>
        <time>2017-05-22T09:35:30Z</time>
      </trkpt>
      <trkpt lat="46.07991" lon="4.75665">
        <ele>174</ele>
        <time>2017-05-22T09:35:32Z</time>
      </trkpt>
      <trkpt lat="46.07988" lon="4.75668">
        <ele>175</ele>
        <time>2017-05-22T09:35:33Z</time>
      </trkpt>
      <trkpt lat="46.07983" lon="4.75675">
        <ele>174</ele>
        <time>2017-05-22T09:35:35Z</time>
      </trkpt>
      <trkpt lat="46.07979" lon="4.75678">
        <ele>174</ele>
        <time>2017-05-22T09:35:36Z</time>
      </trkpt>
      <trkpt lat="46.07973" lon="4.75685">
        <ele>173</ele>
        <time>2017-05-22T09:35:38Z</time>
      </trkpt>
      <trkpt lat="46.0797" lon="4.75688">
        <ele>173</ele>
        <time>2017-05-22T09:35:39Z</time>
      </trkpt>
      <trkpt lat="46.07964" lon="4.75693">
        <ele>173</ele>
        <time>2017-05-22T09:35:41Z</time>
      </trkpt>
      <trkpt lat="46.07962" lon="4.75696">
        <ele>173</ele>
        <time>2017-05-22T09:35:42Z</time>
      </trkpt>
      <trkpt lat="46.07956" lon="4.75702">
        <ele>173</ele>
        <time>2017-05-22T09:35:44Z</time>
      </trkpt>
      <trkpt lat="46.07954" lon="4.75705">
        <ele>173</ele>
        <time>2017-05-22T09:35:45Z</time>
      </trkpt>
      <trkpt lat="46.07948" lon="4.75711">
        <ele>173</ele>
        <time>2017-05-22T09:35:47Z</time>
      </trkpt>
      <trkpt lat="46.07944" lon="4.75714">
        <ele>173</ele>
        <time>2017-05-22T09:35:48Z</time>
      </trkpt>
      <trkpt lat="46.07937" lon="4.7572">
        <ele>173</ele>
        <time>2017-05-22T09:35:50Z</time>
      </trkpt>
      <trkpt lat="46.07934" lon="4.75724">
        <ele>173</ele>
        <time>2017-05-22T09:35:51Z</time>
      </trkpt>
      <trkpt lat="46.07927" lon="4.7573">
        <ele>173</ele>
        <time>2017-05-22T09:35:53Z</time>
      </trkpt>
      <trkpt lat="46.07924" lon="4.75733">
        <ele>173</ele>
        <time>2017-05-22T09:35:54Z</time>
      </trkpt>
      <trkpt lat="46.07918" lon="4.75739">
        <ele>173</ele>
        <time>2017-05-22T09:35:56Z</time>
      </trkpt>
      <trkpt lat="46.07914" lon="4.75743">
        <ele>172</ele>
        <time>2017-05-22T09:35:57Z</time>
      </trkpt>
      <trkpt lat="46.07908" lon="4.7575">
        <ele>171</ele>
        <time>2017-05-22T09:35:59Z</time>
      </trkpt>
      <trkpt lat="46.07905" lon="4.75753">
        <ele>172</ele>
        <time>2017-05-22T09:36:00Z</time>
      </trkpt>
      <trkpt lat="46.079" lon="4.75759">
        <ele>172</ele>
        <time>2017-05-22T09:36:02Z</time>
      </trkpt>
      <trkpt lat="46.07897" lon="4.75762">
        <ele>172</ele>
        <time>2017-05-22T09:36:03Z</time>
      </trkpt>
      <trkpt lat="46.0789" lon="4.75768">
        <ele>172</ele>
        <time>2017-05-22T09:36:05Z</time>
      </trkpt>
      <trkpt lat="46.07887" lon="4.75772">
        <ele>171</ele>
        <time>2017-05-22T09:36:06Z</time>
      </trkpt>
      <trkpt lat="46.07879" lon="4.75778">
        <ele>171</ele>
        <time>2017-05-22T09:36:08Z</time>
      </trkpt>
      <trkpt lat="46.07875" lon="4.75781">
        <ele>171</ele>
        <time>2017-05-22T09:36:09Z</time>
      </trkpt>
      <trkpt lat="46.07871" lon="4.75784">
        <ele>171</ele>
        <time>2017-05-22T09:36:10Z</time>
      </trkpt>
      <trkpt lat="46.07867" lon="4.75788">
        <ele>171</ele>
        <time>2017-05-22T09:36:11Z</time>
      </trkpt>
      <trkpt lat="46.07863" lon="4.75792">
        <ele>171</ele>
        <time>2017-05-22T09:36:12Z</time>
      </trkpt>
      <trkpt lat="46.0786" lon="4.75795">
        <ele>171</ele>
        <time>2017-05-22T09:36:13Z</time>
      </trkpt>
      <trkpt lat="46.07853" lon="4.75803">
        <ele>171</ele>
        <time>2017-05-22T09:36:15Z</time>
      </trkpt>
      <trkpt lat="46.07849" lon="4.75806">
        <ele>172</ele>
        <time>2017-05-22T09:36:16Z</time>
      </trkpt>
      <trkpt lat="46.07843" lon="4.75812">
        <ele>172</ele>
        <time>2017-05-22T09:36:18Z</time>
      </trkpt>
      <trkpt lat="46.0784" lon="4.75816">
        <ele>172</ele>
        <time>2017-05-22T09:36:19Z</time>
      </trkpt>
      <trkpt lat="46.07834" lon="4.75823">
        <ele>172</ele>
        <time>2017-05-22T09:36:21Z</time>
      </trkpt>
      <trkpt lat="46.07831" lon="4.75826">
        <ele>171</ele>
        <time>2017-05-22T09:36:22Z</time>
      </trkpt>
      <trkpt lat="46.07824" lon="4.75832">
        <ele>171</ele>
        <time>2017-05-22T09:36:24Z</time>
      </trkpt>
      <trkpt lat="46.0782" lon="4.75837">
        <ele>173</ele>
        <time>2017-05-22T09:36:25Z</time>
      </trkpt>
      <trkpt lat="46.07817" lon="4.75842">
        <ele>172</ele>
        <time>2017-05-22T09:36:26Z</time>
      </trkpt>
      <trkpt lat="46.07814" lon="4.75847">
        <ele>172</ele>
        <time>2017-05-22T09:36:27Z</time>
      </trkpt>
      <trkpt lat="46.07807" lon="4.75854">
        <ele>172</ele>
        <time>2017-05-22T09:36:29Z</time>
      </trkpt>
      <trkpt lat="46.07804" lon="4.75858">
        <ele>172</ele>
        <time>2017-05-22T09:36:30Z</time>
      </trkpt>
      <trkpt lat="46.07797" lon="4.75865">
        <ele>172</ele>
        <time>2017-05-22T09:36:32Z</time>
      </trkpt>
      <trkpt lat="46.07792" lon="4.75868">
        <ele>172</ele>
        <time>2017-05-22T09:36:33Z</time>
      </trkpt>
      <trkpt lat="46.07788" lon="4.75872">
        <ele>172</ele>
        <time>2017-05-22T09:36:34Z</time>
      </trkpt>
      <trkpt lat="46.07784" lon="4.75876">
        <ele>172</ele>
        <time>2017-05-22T09:36:35Z</time>
      </trkpt>
      <trkpt lat="46.0778" lon="4.7588">
        <ele>172</ele>
        <time>2017-05-22T09:36:36Z</time>
      </trkpt>
      <trkpt lat="46.07776" lon="4.75885">
        <ele>172</ele>
        <time>2017-05-22T09:36:37Z</time>
      </trkpt>
      <trkpt lat="46.07772" lon="4.75889">
        <ele>172</ele>
        <time>2017-05-22T09:36:38Z</time>
      </trkpt>
      <trkpt lat="46.07769" lon="4.75892">
        <ele>172</ele>
        <time>2017-05-22T09:36:39Z</time>
      </trkpt>
      <trkpt lat="46.07761" lon="4.75898">
        <ele>173</ele>
        <time>2017-05-22T09:36:41Z</time>
      </trkpt>
      <trkpt lat="46.07757" lon="4.75901">
        <ele>173</ele>
        <time>2017-05-22T09:36:42Z</time>
      </trkpt>
      <trkpt lat="46.07749" lon="4.75905">
        <ele>172</ele>
        <time>2017-05-22T09:36:44Z</time>
      </trkpt>
      <trkpt lat="46.07745" lon="4.75908">
        <ele>172</ele>
        <time>2017-05-22T09:36:45Z</time>
      </trkpt>
      <trkpt lat="46.07737" lon="4.75913">
        <ele>171</ele>
        <time>2017-05-22T09:36:47Z</time>
      </trkpt>
      <trkpt lat="46.07734" lon="4.75915">
        <ele>171</ele>
        <time>2017-05-22T09:36:48Z</time>
      </trkpt>
      <trkpt lat="46.07726" lon="4.75921">
        <ele>173</ele>
        <time>2017-05-22T09:36:50Z</time>
      </trkpt>
      <trkpt lat="46.07722" lon="4.75924">
        <ele>172</ele>
        <time>2017-05-22T09:36:51Z</time>
      </trkpt>
      <trkpt lat="46.07715" lon="4.7593">
        <ele>172</ele>
        <time>2017-05-22T09:36:53Z</time>
      </trkpt>
      <trkpt lat="46.07711" lon="4.75934">
        <ele>172</ele>
        <time>2017-05-22T09:36:54Z</time>
      </trkpt>
      <trkpt lat="46.07707" lon="4.75937">
        <ele>172</ele>
        <time>2017-05-22T09:36:55Z</time>
      </trkpt>
      <trkpt lat="46.07702" lon="4.75941">
        <ele>172</ele>
        <time>2017-05-22T09:36:56Z</time>
      </trkpt>
      <trkpt lat="46.07698" lon="4.75944">
        <ele>172</ele>
        <time>2017-05-22T09:36:57Z</time>
      </trkpt>
      <trkpt lat="46.07694" lon="4.75946">
        <ele>171</ele>
        <time>2017-05-22T09:36:58Z</time>
      </trkpt>
      <trkpt lat="46.07686" lon="4.75952">
        <ele>171</ele>
        <time>2017-05-22T09:37:00Z</time>
      </trkpt>
      <trkpt lat="46.07683" lon="4.75955">
        <ele>171</ele>
        <time>2017-05-22T09:37:01Z</time>
      </trkpt>
      <trkpt lat="46.07676" lon="4.7596">
        <ele>172</ele>
        <time>2017-05-22T09:37:03Z</time>
      </trkpt>
      <trkpt lat="46.07672" lon="4.75963">
        <ele>172</ele>
        <time>2017-05-22T09:37:04Z</time>
      </trkpt>
      <trkpt lat="46.07665" lon="4.75969">
        <ele>169</ele>
        <time>2017-05-22T09:37:06Z</time>
      </trkpt>
      <trkpt lat="46.07662" lon="4.75971">
        <ele>170</ele>
        <time>2017-05-22T09:37:07Z</time>
      </trkpt>
      <trkpt lat="46.07655" lon="4.75976">
        <ele>170</ele>
        <time>2017-05-22T09:37:09Z</time>
      </trkpt>
      <trkpt lat="46.07652" lon="4.75979">
        <ele>170</ele>
        <time>2017-05-22T09:37:10Z</time>
      </trkpt>
      <trkpt lat="46.07644" lon="4.75984">
        <ele>170</ele>
        <time>2017-05-22T09:37:12Z</time>
      </trkpt>
      <trkpt lat="46.07641" lon="4.75989">
        <ele>170</ele>
        <time>2017-05-22T09:37:13Z</time>
      </trkpt>
      <trkpt lat="46.07639" lon="4.75998">
        <ele>170</ele>
        <time>2017-05-22T09:37:15Z</time>
      </trkpt>
      <trkpt lat="46.07639" lon="4.76003">
        <ele>172</ele>
        <time>2017-05-22T09:37:16Z</time>
      </trkpt>
      <trkpt lat="46.0764" lon="4.76013">
        <ele>172</ele>
        <time>2017-05-22T09:37:18Z</time>
      </trkpt>
      <trkpt lat="46.07642" lon="4.76018">
        <ele>172</ele>
        <time>2017-05-22T09:37:19Z</time>
      </trkpt>
      <trkpt lat="46.07646" lon="4.76027">
        <ele>172</ele>
        <time>2017-05-22T09:37:21Z</time>
      </trkpt>
      <trkpt lat="46.07649" lon="4.76032">
        <ele>172</ele>
        <time>2017-05-22T09:37:22Z</time>
      </trkpt>
      <trkpt lat="46.07653" lon="4.76039">
        <ele>172</ele>
        <time>2017-05-22T09:37:23Z</time>
      </trkpt>
      <trkpt lat="46.07656" lon="4.76045">
        <ele>172</ele>
        <time>2017-05-22T09:37:24Z</time>
      </trkpt>
      <trkpt lat="46.07659" lon="4.76051">
        <ele>172</ele>
        <time>2017-05-22T09:37:25Z</time>
      </trkpt>
      <trkpt lat="46.07661" lon="4.76057">
        <ele>172</ele>
        <time>2017-05-22T09:37:26Z</time>
      </trkpt>
      <trkpt lat="46.07666" lon="4.76067">
        <ele>172</ele>
        <time>2017-05-22T09:37:28Z</time>
      </trkpt>
      <trkpt lat="46.07668" lon="4.76072">
        <ele>174</ele>
        <time>2017-05-22T09:37:29Z</time>
      </trkpt>
      <trkpt lat="46.07671" lon="4.76081">
        <ele>173</ele>
        <time>2017-05-22T09:37:31Z</time>
      </trkpt>
      <trkpt lat="46.07673" lon="4.76086">
        <ele>173</ele>
        <time>2017-05-22T09:37:32Z</time>
      </trkpt>
      <trkpt lat="46.07676" lon="4.76098">
        <ele>173</ele>
        <time>2017-05-22T09:37:35Z</time>
      </trkpt>
      <trkpt lat="46.07676" lon="4.761">
        <ele>173</ele>
        <time>2017-05-22T09:37:36Z</time>
      </trkpt>
      <trkpt lat="46.0767" lon="4.76109">
        <ele>173</ele>
        <time>2017-05-22T09:37:41Z</time>
      </trkpt>
      <trkpt lat="46.07668" lon="4.76112">
        <ele>173</ele>
        <time>2017-05-22T09:37:42Z</time>
      </trkpt>
      <trkpt lat="46.07661" lon="4.7612">
        <ele>172</ele>
        <time>2017-05-22T09:37:44Z</time>
      </trkpt>
      <trkpt lat="46.07656" lon="4.76124">
        <ele>172</ele>
        <time>2017-05-22T09:37:45Z</time>
      </trkpt>
      <trkpt lat="46.07652" lon="4.76128">
        <ele>172</ele>
        <time>2017-05-22T09:37:46Z</time>
      </trkpt>
      <trkpt lat="46.07647" lon="4.76132">
        <ele>172</ele>
        <time>2017-05-22T09:37:47Z</time>
      </trkpt>
      <trkpt lat="46.07643" lon="4.76137">
        <ele>172</ele>
        <time>2017-05-22T09:37:48Z</time>
      </trkpt>
      <trkpt lat="46.07638" lon="4.76142">
        <ele>172</ele>
        <time>2017-05-22T09:37:49Z</time>
      </trkpt>
      <trkpt lat="46.07634" lon="4.76147">
        <ele>172</ele>
        <time>2017-05-22T09:37:50Z</time>
      </trkpt>
      <trkpt lat="46.0763" lon="4.76152">
        <ele>172</ele>
        <time>2017-05-22T09:37:51Z</time>
      </trkpt>
      <trkpt lat="46.07627" lon="4.76158">
        <ele>172</ele>
        <time>2017-05-22T09:37:52Z</time>
      </trkpt>
      <trkpt lat="46.07623" lon="4.76162">
        <ele>172</ele>
        <time>2017-05-22T09:37:53Z</time>
      </trkpt>
      <trkpt lat="46.07619" lon="4.76167">
        <ele>173</ele>
        <time>2017-05-22T09:37:54Z</time>
      </trkpt>
      <trkpt lat="46.07614" lon="4.76171">
        <ele>173</ele>
        <time>2017-05-22T09:37:55Z</time>
      </trkpt>
      <trkpt lat="46.0761" lon="4.76176">
        <ele>173</ele>
        <time>2017-05-22T09:37:56Z</time>
      </trkpt>
      <trkpt lat="46.07605" lon="4.76181">
        <ele>173</ele>
        <time>2017-05-22T09:37:57Z</time>
      </trkpt>
      <trkpt lat="46.076" lon="4.76186">
        <ele>173</ele>
        <time>2017-05-22T09:37:58Z</time>
      </trkpt>
      <trkpt lat="46.07596" lon="4.76191">
        <ele>173</ele>
        <time>2017-05-22T09:37:59Z</time>
      </trkpt>
      <trkpt lat="46.07591" lon="4.76196">
        <ele>173</ele>
        <time>2017-05-22T09:38:00Z</time>
      </trkpt>
      <trkpt lat="46.07587" lon="4.76201">
        <ele>173</ele>
        <time>2017-05-22T09:38:01Z</time>
      </trkpt>
      <trkpt lat="46.07582" lon="4.76205">
        <ele>173</ele>
        <time>2017-05-22T09:38:02Z</time>
      </trkpt>
      <trkpt lat="46.07578" lon="4.76209">
        <ele>173</ele>
        <time>2017-05-22T09:38:03Z</time>
      </trkpt>
      <trkpt lat="46.07574" lon="4.76213">
        <ele>173</ele>
        <time>2017-05-22T09:38:04Z</time>
      </trkpt>
      <trkpt lat="46.0757" lon="4.76217">
        <ele>173</ele>
        <time>2017-05-22T09:38:05Z</time>
      </trkpt>
      <trkpt lat="46.07566" lon="4.76221">
        <ele>173</ele>
        <time>2017-05-22T09:38:06Z</time>
      </trkpt>
      <trkpt lat="46.07562" lon="4.76225">
        <ele>173</ele>
        <time>2017-05-22T09:38:07Z</time>
      </trkpt>
      <trkpt lat="46.07558" lon="4.7623">
        <ele>173</ele>
        <time>2017-05-22T09:38:08Z</time>
      </trkpt>
      <trkpt lat="46.07553" lon="4.76235">
        <ele>173</ele>
        <time>2017-05-22T09:38:09Z</time>
      </trkpt>
      <trkpt lat="46.07549" lon="4.76239">
        <ele>173</ele>
        <time>2017-05-22T09:38:10Z</time>
      </trkpt>
      <trkpt lat="46.07544" lon="4.76244">
        <ele>173</ele>
        <time>2017-05-22T09:38:11Z</time>
      </trkpt>
      <trkpt lat="46.0754" lon="4.76249">
        <ele>173</ele>
        <time>2017-05-22T09:38:12Z</time>
      </trkpt>
      <trkpt lat="46.07536" lon="4.76253">
        <ele>174</ele>
        <time>2017-05-22T09:38:13Z</time>
      </trkpt>
      <trkpt lat="46.07532" lon="4.76258">
        <ele>174</ele>
        <time>2017-05-22T09:38:14Z</time>
      </trkpt>
      <trkpt lat="46.07527" lon="4.76262">
        <ele>174</ele>
        <time>2017-05-22T09:38:15Z</time>
      </trkpt>
      <trkpt lat="46.07523" lon="4.76267">
        <ele>174</ele>
        <time>2017-05-22T09:38:16Z</time>
      </trkpt>
      <trkpt lat="46.07518" lon="4.76271">
        <ele>174</ele>
        <time>2017-05-22T09:38:17Z</time>
      </trkpt>
      <trkpt lat="46.07514" lon="4.76276">
        <ele>174</ele>
        <time>2017-05-22T09:38:18Z</time>
      </trkpt>
      <trkpt lat="46.0751" lon="4.76281">
        <ele>174</ele>
        <time>2017-05-22T09:38:19Z</time>
      </trkpt>
      <trkpt lat="46.07506" lon="4.76286">
        <ele>174</ele>
        <time>2017-05-22T09:38:20Z</time>
      </trkpt>
      <trkpt lat="46.07502" lon="4.76291">
        <ele>174</ele>
        <time>2017-05-22T09:38:21Z</time>
      </trkpt>
      <trkpt lat="46.07498" lon="4.76295">
        <ele>173</ele>
        <time>2017-05-22T09:38:22Z</time>
      </trkpt>
      <trkpt lat="46.07495" lon="4.76301">
        <ele>173</ele>
        <time>2017-05-22T09:38:23Z</time>
      </trkpt>
      <trkpt lat="46.07491" lon="4.76305">
        <ele>173</ele>
        <time>2017-05-22T09:38:24Z</time>
      </trkpt>
      <trkpt lat="46.07487" lon="4.76308">
        <ele>173</ele>
        <time>2017-05-22T09:38:25Z</time>
      </trkpt>
      <trkpt lat="46.07483" lon="4.7631">
        <ele>173</ele>
        <time>2017-05-22T09:38:26Z</time>
      </trkpt>
      <trkpt lat="46.07478" lon="4.76312">
        <ele>172</ele>
        <time>2017-05-22T09:38:27Z</time>
      </trkpt>
      <trkpt lat="46.07473" lon="4.76313">
        <ele>172</ele>
        <time>2017-05-22T09:38:28Z</time>
      </trkpt>
      <trkpt lat="46.07468" lon="4.76316">
        <ele>172</ele>
        <time>2017-05-22T09:38:29Z</time>
      </trkpt>
      <trkpt lat="46.07465" lon="4.76322">
        <ele>172</ele>
        <time>2017-05-22T09:38:30Z</time>
      </trkpt>
      <trkpt lat="46.07462" lon="4.76328">
        <ele>172</ele>
        <time>2017-05-22T09:38:31Z</time>
      </trkpt>
      <trkpt lat="46.0746" lon="4.76334">
        <ele>172</ele>
        <time>2017-05-22T09:38:32Z</time>
      </trkpt>
      <trkpt lat="46.07456" lon="4.76339">
        <ele>172</ele>
        <time>2017-05-22T09:38:33Z</time>
      </trkpt>
      <trkpt lat="46.07453" lon="4.76345">
        <ele>172</ele>
        <time>2017-05-22T09:38:34Z</time>
      </trkpt>
      <trkpt lat="46.07449" lon="4.76349">
        <ele>172</ele>
        <time>2017-05-22T09:38:35Z</time>
      </trkpt>
      <trkpt lat="46.07446" lon="4.76354">
        <ele>172</ele>
        <time>2017-05-22T09:38:36Z</time>
      </trkpt>
      <trkpt lat="46.07442" lon="4.76359">
        <ele>171</ele>
        <time>2017-05-22T09:38:37Z</time>
      </trkpt>
      <trkpt lat="46.07436" lon="4.76367">
        <ele>171</ele>
        <time>2017-05-22T09:38:39Z</time>
      </trkpt>
      <trkpt lat="46.07433" lon="4.76371">
        <ele>171</ele>
        <time>2017-05-22T09:38:40Z</time>
      </trkpt>
      <trkpt lat="46.07426" lon="4.76377">
        <ele>171</ele>
        <time>2017-05-22T09:38:42Z</time>
      </trkpt>
      <trkpt lat="46.07422" lon="4.76381">
        <ele>171</ele>
        <time>2017-05-22T09:38:43Z</time>
      </trkpt>
      <trkpt lat="46.07418" lon="4.76385">
        <ele>171</ele>
        <time>2017-05-22T09:38:44Z</time>
      </trkpt>
      <trkpt lat="46.07413" lon="4.76389">
        <ele>170</ele>
        <time>2017-05-22T09:38:45Z</time>
      </trkpt>
      <trkpt lat="46.07409" lon="4.76393">
        <ele>170</ele>
        <time>2017-05-22T09:38:46Z</time>
      </trkpt>
      <trkpt lat="46.07404" lon="4.76399">
        <ele>170</ele>
        <time>2017-05-22T09:38:47Z</time>
      </trkpt>
      <trkpt lat="46.07399" lon="4.76405">
        <ele>170</ele>
        <time>2017-05-22T09:38:48Z</time>
      </trkpt>
      <trkpt lat="46.07394" lon="4.76411">
        <ele>170</ele>
        <time>2017-05-22T09:38:49Z</time>
      </trkpt>
      <trkpt lat="46.07389" lon="4.76416">
        <ele>170</ele>
        <time>2017-05-22T09:38:50Z</time>
      </trkpt>
      <trkpt lat="46.07383" lon="4.76422">
        <ele>171</ele>
        <time>2017-05-22T09:38:51Z</time>
      </trkpt>
      <trkpt lat="46.07378" lon="4.76427">
        <ele>171</ele>
        <time>2017-05-22T09:38:52Z</time>
      </trkpt>
      <trkpt lat="46.07373" lon="4.76433">
        <ele>171</ele>
        <time>2017-05-22T09:38:53Z</time>
      </trkpt>
      <trkpt lat="46.07368" lon="4.76438">
        <ele>171</ele>
        <time>2017-05-22T09:38:54Z</time>
      </trkpt>
      <trkpt lat="46.07362" lon="4.76444">
        <ele>171</ele>
        <time>2017-05-22T09:38:55Z</time>
      </trkpt>
      <trkpt lat="46.07357" lon="4.76449">
        <ele>171</ele>
        <time>2017-05-22T09:38:56Z</time>
      </trkpt>
      <trkpt lat="46.07353" lon="4.76454">
        <ele>171</ele>
        <time>2017-05-22T09:38:57Z</time>
      </trkpt>
      <trkpt lat="46.07348" lon="4.76459">
        <ele>171</ele>
        <time>2017-05-22T09:38:58Z</time>
      </trkpt>
      <trkpt lat="46.07343" lon="4.76464">
        <ele>171</ele>
        <time>2017-05-22T09:38:59Z</time>
      </trkpt>
      <trkpt lat="46.07339" lon="4.76469">
        <ele>171</ele>
        <time>2017-05-22T09:39:00Z</time>
      </trkpt>
      <trkpt lat="46.07334" lon="4.76473">
        <ele>171</ele>
        <time>2017-05-22T09:39:01Z</time>
      </trkpt>
      <trkpt lat="46.0733" lon="4.76478">
        <ele>170</ele>
        <time>2017-05-22T09:39:02Z</time>
      </trkpt>
      <trkpt lat="46.07326" lon="4.76482">
        <ele>170</ele>
        <time>2017-05-22T09:39:03Z</time>
      </trkpt>
      <trkpt lat="46.07323" lon="4.76486">
        <ele>170</ele>
        <time>2017-05-22T09:39:04Z</time>
      </trkpt>
      <trkpt lat="46.07318" lon="4.76491">
        <ele>170</ele>
        <time>2017-05-22T09:39:05Z</time>
      </trkpt>
      <trkpt lat="46.07314" lon="4.76494">
        <ele>170</ele>
        <time>2017-05-22T09:39:06Z</time>
      </trkpt>
      <trkpt lat="46.07309" lon="4.76499">
        <ele>170</ele>
        <time>2017-05-22T09:39:07Z</time>
      </trkpt>
      <trkpt lat="46.07304" lon="4.76505">
        <ele>170</ele>
        <time>2017-05-22T09:39:08Z</time>
      </trkpt>
      <trkpt lat="46.073" lon="4.7651">
        <ele>170</ele>
        <time>2017-05-22T09:39:09Z</time>
      </trkpt>
      <trkpt lat="46.07296" lon="4.76514">
        <ele>170</ele>
        <time>2017-05-22T09:39:10Z</time>
      </trkpt>
      <trkpt lat="46.07292" lon="4.76519">
        <ele>170</ele>
        <time>2017-05-22T09:39:11Z</time>
      </trkpt>
      <trkpt lat="46.07285" lon="4.76526">
        <ele>170</ele>
        <time>2017-05-22T09:39:13Z</time>
      </trkpt>
      <trkpt lat="46.07282" lon="4.7653">
        <ele>170</ele>
        <time>2017-05-22T09:39:14Z</time>
      </trkpt>
      <trkpt lat="46.07274" lon="4.76538">
        <ele>170</ele>
        <time>2017-05-22T09:39:16Z</time>
      </trkpt>
      <trkpt lat="46.0727" lon="4.76542">
        <ele>170</ele>
        <time>2017-05-22T09:39:17Z</time>
      </trkpt>
      <trkpt lat="46.07266" lon="4.76547">
        <ele>170</ele>
        <time>2017-05-22T09:39:18Z</time>
      </trkpt>
      <trkpt lat="46.07261" lon="4.76552">
        <ele>170</ele>
        <time>2017-05-22T09:39:19Z</time>
      </trkpt>
      <trkpt lat="46.07256" lon="4.76558">
        <ele>170</ele>
        <time>2017-05-22T09:39:20Z</time>
      </trkpt>
      <trkpt lat="46.07251" lon="4.76564">
        <ele>170</ele>
        <time>2017-05-22T09:39:21Z</time>
      </trkpt>
      <trkpt lat="46.07246" lon="4.7657">
        <ele>170</ele>
        <time>2017-05-22T09:39:22Z</time>
      </trkpt>
      <trkpt lat="46.07241" lon="4.76576">
        <ele>170</ele>
        <time>2017-05-22T09:39:23Z</time>
      </trkpt>
      <trkpt lat="46.07236" lon="4.76582">
        <ele>170</ele>
        <time>2017-05-22T09:39:24Z</time>
      </trkpt>
      <trkpt lat="46.07231" lon="4.76588">
        <ele>170</ele>
        <time>2017-05-22T09:39:25Z</time>
      </trkpt>
      <trkpt lat="46.07227" lon="4.76595">
        <ele>170</ele>
        <time>2017-05-22T09:39:26Z</time>
      </trkpt>
      <trkpt lat="46.07222" lon="4.76601">
        <ele>170</ele>
        <time>2017-05-22T09:39:27Z</time>
      </trkpt>
      <trkpt lat="46.07218" lon="4.76607">
        <ele>170</ele>
        <time>2017-05-22T09:39:28Z</time>
      </trkpt>
      <trkpt lat="46.07213" lon="4.76613">
        <ele>170</ele>
        <time>2017-05-22T09:39:29Z</time>
      </trkpt>
      <trkpt lat="46.07209" lon="4.76618">
        <ele>170</ele>
        <time>2017-05-22T09:39:30Z</time>
      </trkpt>
      <trkpt lat="46.07205" lon="4.76624">
        <ele>171</ele>
        <time>2017-05-22T09:39:31Z</time>
      </trkpt>
      <trkpt lat="46.07201" lon="4.76629">
        <ele>170</ele>
        <time>2017-05-22T09:39:32Z</time>
      </trkpt>
      <trkpt lat="46.07198" lon="4.76634">
        <ele>170</ele>
        <time>2017-05-22T09:39:33Z</time>
      </trkpt>
      <trkpt lat="46.07194" lon="4.76639">
        <ele>170</ele>
        <time>2017-05-22T09:39:34Z</time>
      </trkpt>
      <trkpt lat="46.0719" lon="4.76645">
        <ele>170</ele>
        <time>2017-05-22T09:39:35Z</time>
      </trkpt>
      <trkpt lat="46.07187" lon="4.76651">
        <ele>170</ele>
        <time>2017-05-22T09:39:36Z</time>
      </trkpt>
      <trkpt lat="46.07183" lon="4.76657">
        <ele>170</ele>
        <time>2017-05-22T09:39:37Z</time>
      </trkpt>
      <trkpt lat="46.0718" lon="4.76663">
        <ele>170</ele>
        <time>2017-05-22T09:39:38Z</time>
      </trkpt>
      <trkpt lat="46.07177" lon="4.76669">
        <ele>170</ele>
        <time>2017-05-22T09:39:39Z</time>
      </trkpt>
      <trkpt lat="46.07174" lon="4.76674">
        <ele>170</ele>
        <time>2017-05-22T09:39:40Z</time>
      </trkpt>
      <trkpt lat="46.0717" lon="4.7668">
        <ele>170</ele>
        <time>2017-05-22T09:39:41Z</time>
      </trkpt>
      <trkpt lat="46.07167" lon="4.76686">
        <ele>170</ele>
        <time>2017-05-22T09:39:42Z</time>
      </trkpt>
      <trkpt lat="46.07164" lon="4.76692">
        <ele>170</ele>
        <time>2017-05-22T09:39:43Z</time>
      </trkpt>
      <trkpt lat="46.0716" lon="4.76698">
        <ele>170</ele>
        <time>2017-05-22T09:39:44Z</time>
      </trkpt>
      <trkpt lat="46.07157" lon="4.76705">
        <ele>170</ele>
        <time>2017-05-22T09:39:45Z</time>
      </trkpt>
      <trkpt lat="46.07154" lon="4.76712">
        <ele>170</ele>
        <time>2017-05-22T09:39:46Z</time>
      </trkpt>
      <trkpt lat="46.07151" lon="4.76719">
        <ele>170</ele>
        <time>2017-05-22T09:39:47Z</time>
      </trkpt>
      <trkpt lat="46.07147" lon="4.76725">
        <ele>170</ele>
        <time>2017-05-22T09:39:48Z</time>
      </trkpt>
      <trkpt lat="46.07144" lon="4.76731">
        <ele>171</ele>
        <time>2017-05-22T09:39:49Z</time>
      </trkpt>
      <trkpt lat="46.0714" lon="4.76738">
        <ele>171</ele>
        <time>2017-05-22T09:39:50Z</time>
      </trkpt>
      <trkpt lat="46.07137" lon="4.76744">
        <ele>171</ele>
        <time>2017-05-22T09:39:51Z</time>
      </trkpt>
      <trkpt lat="46.07133" lon="4.76751">
        <ele>171</ele>
        <time>2017-05-22T09:39:52Z</time>
      </trkpt>
      <trkpt lat="46.07129" lon="4.76758">
        <ele>171</ele>
        <time>2017-05-22T09:39:53Z</time>
      </trkpt>
      <trkpt lat="46.07125" lon="4.76764">
        <ele>171</ele>
        <time>2017-05-22T09:39:54Z</time>
      </trkpt>
      <trkpt lat="46.07122" lon="4.7677">
        <ele>171</ele>
        <time>2017-05-22T09:39:55Z</time>
      </trkpt>
      <trkpt lat="46.07119" lon="4.76777">
        <ele>171</ele>
        <time>2017-05-22T09:39:56Z</time>
      </trkpt>
      <trkpt lat="46.07116" lon="4.76784">
        <ele>171</ele>
        <time>2017-05-22T09:39:57Z</time>
      </trkpt>
      <trkpt lat="46.07112" lon="4.7679">
        <ele>171</ele>
        <time>2017-05-22T09:39:58Z</time>
      </trkpt>
      <trkpt lat="46.07109" lon="4.76796">
        <ele>172</ele>
        <time>2017-05-22T09:39:59Z</time>
      </trkpt>
      <trkpt lat="46.07106" lon="4.76802">
        <ele>172</ele>
        <time>2017-05-22T09:40:00Z</time>
      </trkpt>
      <trkpt lat="46.07103" lon="4.76808">
        <ele>172</ele>
        <time>2017-05-22T09:40:01Z</time>
      </trkpt>
      <trkpt lat="46.07101" lon="4.76813">
        <ele>172</ele>
        <time>2017-05-22T09:40:02Z</time>
      </trkpt>
      <trkpt lat="46.07098" lon="4.76819">
        <ele>172</ele>
        <time>2017-05-22T09:40:03Z</time>
      </trkpt>
      <trkpt lat="46.07095" lon="4.76825">
        <ele>172</ele>
        <time>2017-05-22T09:40:04Z</time>
      </trkpt>
      <trkpt lat="46.07092" lon="4.76831">
        <ele>172</ele>
        <time>2017-05-22T09:40:05Z</time>
      </trkpt>
      <trkpt lat="46.07089" lon="4.76837">
        <ele>172</ele>
        <time>2017-05-22T09:40:06Z</time>
      </trkpt>
      <trkpt lat="46.07086" lon="4.76842">
        <ele>172</ele>
        <time>2017-05-22T09:40:07Z</time>
      </trkpt>
      <trkpt lat="46.07083" lon="4.76848">
        <ele>172</ele>
        <time>2017-05-22T09:40:08Z</time>
      </trkpt>
      <trkpt lat="46.07081" lon="4.76854">
        <ele>172</ele>
        <time>2017-05-22T09:40:09Z</time>
      </trkpt>
      <trkpt lat="46.07078" lon="4.7686">
        <ele>172</ele>
        <time>2017-05-22T09:40:10Z</time>
      </trkpt>
      <trkpt lat="46.07075" lon="4.76867">
        <ele>172</ele>
        <time>2017-05-22T09:40:11Z</time>
      </trkpt>
      <trkpt lat="46.07071" lon="4.76874">
        <ele>172</ele>
        <time>2017-05-22T09:40:12Z</time>
      </trkpt>
      <trkpt lat="46.07067" lon="4.76882">
        <ele>172</ele>
        <time>2017-05-22T09:40:13Z</time>
      </trkpt>
      <trkpt lat="46.07063" lon="4.76889">
        <ele>172</ele>
        <time>2017-05-22T09:40:14Z</time>
      </trkpt>
      <trkpt lat="46.07059" lon="4.76897">
        <ele>172</ele>
        <time>2017-05-22T09:40:15Z</time>
      </trkpt>
      <trkpt lat="46.07055" lon="4.76904">
        <ele>172</ele>
        <time>2017-05-22T09:40:16Z</time>
      </trkpt>
      <trkpt lat="46.07051" lon="4.76911">
        <ele>172</ele>
        <time>2017-05-22T09:40:17Z</time>
      </trkpt>
      <trkpt lat="46.07047" lon="4.76918">
        <ele>173</ele>
        <time>2017-05-22T09:40:18Z</time>
      </trkpt>
      <trkpt lat="46.07043" lon="4.76925">
        <ele>173</ele>
        <time>2017-05-22T09:40:19Z</time>
      </trkpt>
      <trkpt lat="46.0704" lon="4.76932">
        <ele>173</ele>
        <time>2017-05-22T09:40:20Z</time>
      </trkpt>
      <trkpt lat="46.07036" lon="4.76939">
        <ele>173</ele>
        <time>2017-05-22T09:40:21Z</time>
      </trkpt>
      <trkpt lat="46.07033" lon="4.76945">
        <ele>173</ele>
        <time>2017-05-22T09:40:22Z</time>
      </trkpt>
      <trkpt lat="46.0703" lon="4.76952">
        <ele>173</ele>
        <time>2017-05-22T09:40:23Z</time>
      </trkpt>
      <trkpt lat="46.07027" lon="4.76958">
        <ele>173</ele>
        <time>2017-05-22T09:40:24Z</time>
      </trkpt>
      <trkpt lat="46.07024" lon="4.76964">
        <ele>173</ele>
        <time>2017-05-22T09:40:25Z</time>
      </trkpt>
      <trkpt lat="46.07021" lon="4.76969">
        <ele>173</ele>
        <time>2017-05-22T09:40:26Z</time>
      </trkpt>
      <trkpt lat="46.07018" lon="4.76975">
        <ele>173</ele>
        <time>2017-05-22T09:40:27Z</time>
      </trkpt>
      <trkpt lat="46.07015" lon="4.76981">
        <ele>173</ele>
        <time>2017-05-22T09:40:28Z</time>
      </trkpt>
      <trkpt lat="46.07012" lon="4.76987">
        <ele>173</ele>
        <time>2017-05-22T09:40:29Z</time>
      </trkpt>
      <trkpt lat="46.07009" lon="4.76993">
        <ele>173</ele>
        <time>2017-05-22T09:40:30Z</time>
      </trkpt>
      <trkpt lat="46.07006" lon="4.77">
        <ele>173</ele>
        <time>2017-05-22T09:40:31Z</time>
      </trkpt>
      <trkpt lat="46.07002" lon="4.77007">
        <ele>173</ele>
        <time>2017-05-22T09:40:32Z</time>
      </trkpt>
      <trkpt lat="46.06999" lon="4.77013">
        <ele>173</ele>
        <time>2017-05-22T09:40:33Z</time>
      </trkpt>
      <trkpt lat="46.06995" lon="4.77019">
        <ele>173</ele>
        <time>2017-05-22T09:40:34Z</time>
      </trkpt>
      <trkpt lat="46.06992" lon="4.77025">
        <ele>173</ele>
        <time>2017-05-22T09:40:35Z</time>
      </trkpt>
      <trkpt lat="46.06986" lon="4.77034">
        <ele>173</ele>
        <time>2017-05-22T09:40:37Z</time>
      </trkpt>
      <trkpt lat="46.06983" lon="4.77038">
        <ele>173</ele>
        <time>2017-05-22T09:40:38Z</time>
      </trkpt>
      <trkpt lat="46.06979" lon="4.77045">
        <ele>173</ele>
        <time>2017-05-22T09:40:40Z</time>
      </trkpt>
      <trkpt lat="46.06976" lon="4.77048">
        <ele>173</ele>
        <time>2017-05-22T09:40:41Z</time>
      </trkpt>
      <trkpt lat="46.0697" lon="4.77055">
        <ele>173</ele>
        <time>2017-05-22T09:40:43Z</time>
      </trkpt>
      <trkpt lat="46.06967" lon="4.77059">
        <ele>173</ele>
        <time>2017-05-22T09:40:44Z</time>
      </trkpt>
      <trkpt lat="46.06963" lon="4.77062">
        <ele>173</ele>
        <time>2017-05-22T09:40:45Z</time>
      </trkpt>
      <trkpt lat="46.06958" lon="4.77064">
        <ele>173</ele>
        <time>2017-05-22T09:40:46Z</time>
      </trkpt>
      <trkpt lat="46.06953" lon="4.77066">
        <ele>173</ele>
        <time>2017-05-22T09:40:47Z</time>
      </trkpt>
      <trkpt lat="46.06947" lon="4.77067">
        <ele>173</ele>
        <time>2017-05-22T09:40:48Z</time>
      </trkpt>
      <trkpt lat="46.06941" lon="4.77068">
        <ele>173</ele>
        <time>2017-05-22T09:40:49Z</time>
      </trkpt>
      <trkpt lat="46.06934" lon="4.77069">
        <ele>173</ele>
        <time>2017-05-22T09:40:50Z</time>
      </trkpt>
      <trkpt lat="46.06927" lon="4.77069">
        <ele>173</ele>
        <time>2017-05-22T09:40:51Z</time>
      </trkpt>
      <trkpt lat="46.06921" lon="4.77069">
        <ele>173</ele>
        <time>2017-05-22T09:40:52Z</time>
      </trkpt>
      <trkpt lat="46.06914" lon="4.7707">
        <ele>173</ele>
        <time>2017-05-22T09:40:53Z</time>
      </trkpt>
      <trkpt lat="46.06907" lon="4.77069">
        <ele>173</ele>
        <time>2017-05-22T09:40:54Z</time>
      </trkpt>
      <trkpt lat="46.06901" lon="4.77069">
        <ele>173</ele>
        <time>2017-05-22T09:40:55Z</time>
      </trkpt>
      <trkpt lat="46.06895" lon="4.77069">
        <ele>173</ele>
        <time>2017-05-22T09:40:56Z</time>
      </trkpt>
      <trkpt lat="46.06888" lon="4.7707">
        <ele>173</ele>
        <time>2017-05-22T09:40:57Z</time>
      </trkpt>
      <trkpt lat="46.06882" lon="4.77072">
        <ele>173</ele>
        <time>2017-05-22T09:40:58Z</time>
      </trkpt>
      <trkpt lat="46.06877" lon="4.77073">
        <ele>173</ele>
        <time>2017-05-22T09:40:59Z</time>
      </trkpt>
      <trkpt lat="46.06872" lon="4.77074">
        <ele>173</ele>
        <time>2017-05-22T09:41:00Z</time>
      </trkpt>
      <trkpt lat="46.06866" lon="4.77075">
        <ele>173</ele>
        <time>2017-05-22T09:41:01Z</time>
      </trkpt>
      <trkpt lat="46.0686" lon="4.77076">
        <ele>173</ele>
        <time>2017-05-22T09:41:02Z</time>
      </trkpt>
      <trkpt lat="46.06854" lon="4.77077">
        <ele>173</ele>
        <time>2017-05-22T09:41:03Z</time>
      </trkpt>
      <trkpt lat="46.06849" lon="4.77079">
        <ele>173</ele>
        <time>2017-05-22T09:41:04Z</time>
      </trkpt>
      <trkpt lat="46.06844" lon="4.77082">
        <ele>173</ele>
        <time>2017-05-22T09:41:05Z</time>
      </trkpt>
      <trkpt lat="46.06839" lon="4.77084">
        <ele>173</ele>
        <time>2017-05-22T09:41:06Z</time>
      </trkpt>
      <trkpt lat="46.06834" lon="4.77087">
        <ele>173</ele>
        <time>2017-05-22T09:41:07Z</time>
      </trkpt>
      <trkpt lat="46.06829" lon="4.7709">
        <ele>173</ele>
        <time>2017-05-22T09:41:08Z</time>
      </trkpt>
      <trkpt lat="46.06824" lon="4.77094">
        <ele>173</ele>
        <time>2017-05-22T09:41:09Z</time>
      </trkpt>
      <trkpt lat="46.06819" lon="4.77098">
        <ele>173</ele>
        <time>2017-05-22T09:41:10Z</time>
      </trkpt>
      <trkpt lat="46.06814" lon="4.77102">
        <ele>172</ele>
        <time>2017-05-22T09:41:11Z</time>
      </trkpt>
      <trkpt lat="46.06809" lon="4.77106">
        <ele>172</ele>
        <time>2017-05-22T09:41:12Z</time>
      </trkpt>
      <trkpt lat="46.06804" lon="4.7711">
        <ele>172</ele>
        <time>2017-05-22T09:41:13Z</time>
      </trkpt>
      <trkpt lat="46.06799" lon="4.77114">
        <ele>172</ele>
        <time>2017-05-22T09:41:14Z</time>
      </trkpt>
      <trkpt lat="46.06795" lon="4.77119">
        <ele>172</ele>
        <time>2017-05-22T09:41:15Z</time>
      </trkpt>
      <trkpt lat="46.0679" lon="4.77124">
        <ele>172</ele>
        <time>2017-05-22T09:41:16Z</time>
      </trkpt>
      <trkpt lat="46.06785" lon="4.77129">
        <ele>172</ele>
        <time>2017-05-22T09:41:17Z</time>
      </trkpt>
      <trkpt lat="46.0678" lon="4.77134">
        <ele>172</ele>
        <time>2017-05-22T09:41:18Z</time>
      </trkpt>
      <trkpt lat="46.06775" lon="4.77139">
        <ele>172</ele>
        <time>2017-05-22T09:41:19Z</time>
      </trkpt>
      <trkpt lat="46.06771" lon="4.77144">
        <ele>172</ele>
        <time>2017-05-22T09:41:20Z</time>
      </trkpt>
      <trkpt lat="46.06766" lon="4.77148">
        <ele>172</ele>
        <time>2017-05-22T09:41:21Z</time>
      </trkpt>
      <trkpt lat="46.06762" lon="4.77153">
        <ele>172</ele>
        <time>2017-05-22T09:41:22Z</time>
      </trkpt>
      <trkpt lat="46.06758" lon="4.77158">
        <ele>172</ele>
        <time>2017-05-22T09:41:23Z</time>
      </trkpt>
      <trkpt lat="46.06754" lon="4.77163">
        <ele>172</ele>
        <time>2017-05-22T09:41:24Z</time>
      </trkpt>
      <trkpt lat="46.0675" lon="4.77168">
        <ele>172</ele>
        <time>2017-05-22T09:41:25Z</time>
      </trkpt>
      <trkpt lat="46.06745" lon="4.77173">
        <ele>172</ele>
        <time>2017-05-22T09:41:26Z</time>
      </trkpt>
      <trkpt lat="46.06739" lon="4.77177">
        <ele>172</ele>
        <time>2017-05-22T09:41:27Z</time>
      </trkpt>
      <trkpt lat="46.06734" lon="4.7718">
        <ele>172</ele>
        <time>2017-05-22T09:41:28Z</time>
      </trkpt>
      <trkpt lat="46.06728" lon="4.77183">
        <ele>172</ele>
        <time>2017-05-22T09:41:29Z</time>
      </trkpt>
      <trkpt lat="46.06723" lon="4.77187">
        <ele>172</ele>
        <time>2017-05-22T09:41:30Z</time>
      </trkpt>
      <trkpt lat="46.06718" lon="4.77189">
        <ele>172</ele>
        <time>2017-05-22T09:41:31Z</time>
      </trkpt>
      <trkpt lat="46.06713" lon="4.77191">
        <ele>172</ele>
        <time>2017-05-22T09:41:32Z</time>
      </trkpt>
      <trkpt lat="46.06709" lon="4.77193">
        <ele>172</ele>
        <time>2017-05-22T09:41:33Z</time>
      </trkpt>
      <trkpt lat="46.06705" lon="4.77195">
        <ele>172</ele>
        <time>2017-05-22T09:41:34Z</time>
      </trkpt>
      <trkpt lat="46.067" lon="4.77196">
        <ele>172</ele>
        <time>2017-05-22T09:41:35Z</time>
      </trkpt>
      <trkpt lat="46.06696" lon="4.77197">
        <ele>172</ele>
        <time>2017-05-22T09:41:36Z</time>
      </trkpt>
      <trkpt lat="46.06691" lon="4.77198">
        <ele>172</ele>
        <time>2017-05-22T09:41:37Z</time>
      </trkpt>
      <trkpt lat="46.06686" lon="4.772">
        <ele>172</ele>
        <time>2017-05-22T09:41:38Z</time>
      </trkpt>
      <trkpt lat="46.06678" lon="4.77207">
        <ele>172</ele>
        <time>2017-05-22T09:41:40Z</time>
      </trkpt>
      <trkpt lat="46.06677" lon="4.77212">
        <ele>172</ele>
        <time>2017-05-22T09:41:41Z</time>
      </trkpt>
      <trkpt lat="46.06676" lon="4.77218">
        <ele>172</ele>
        <time>2017-05-22T09:41:42Z</time>
      </trkpt>
      <trkpt lat="46.06676" lon="4.77225">
        <ele>172</ele>
        <time>2017-05-22T09:41:43Z</time>
      </trkpt>
      <trkpt lat="46.06676" lon="4.77233">
        <ele>172</ele>
        <time>2017-05-22T09:41:44Z</time>
      </trkpt>
      <trkpt lat="46.06674" lon="4.77241">
        <ele>173</ele>
        <time>2017-05-22T09:41:45Z</time>
      </trkpt>
      <trkpt lat="46.06672" lon="4.77248">
        <ele>173</ele>
        <time>2017-05-22T09:41:46Z</time>
      </trkpt>
      <trkpt lat="46.06669" lon="4.77255">
        <ele>173</ele>
        <time>2017-05-22T09:41:47Z</time>
      </trkpt>
      <trkpt lat="46.06666" lon="4.77262">
        <ele>173</ele>
        <time>2017-05-22T09:41:48Z</time>
      </trkpt>
      <trkpt lat="46.06663" lon="4.77269">
        <ele>173</ele>
        <time>2017-05-22T09:41:49Z</time>
      </trkpt>
      <trkpt lat="46.0666" lon="4.77276">
        <ele>174</ele>
        <time>2017-05-22T09:41:50Z</time>
      </trkpt>
      <trkpt lat="46.06657" lon="4.77282">
        <ele>174</ele>
        <time>2017-05-22T09:41:51Z</time>
      </trkpt>
      <trkpt lat="46.06655" lon="4.77289">
        <ele>174</ele>
        <time>2017-05-22T09:41:52Z</time>
      </trkpt>
      <trkpt lat="46.06652" lon="4.77295">
        <ele>174</ele>
        <time>2017-05-22T09:41:53Z</time>
      </trkpt>
      <trkpt lat="46.06649" lon="4.773">
        <ele>174</ele>
        <time>2017-05-22T09:41:54Z</time>
      </trkpt>
      <trkpt lat="46.06647" lon="4.77306">
        <ele>174</ele>
        <time>2017-05-22T09:41:55Z</time>
      </trkpt>
      <trkpt lat="46.06641" lon="4.77316">
        <ele>174</ele>
        <time>2017-05-22T09:41:57Z</time>
      </trkpt>
      <trkpt lat="46.06639" lon="4.77322">
        <ele>174</ele>
        <time>2017-05-22T09:41:58Z</time>
      </trkpt>
      <trkpt lat="46.06636" lon="4.77328">
        <ele>174</ele>
        <time>2017-05-22T09:41:59Z</time>
      </trkpt>
      <trkpt lat="46.06633" lon="4.77335">
        <ele>176</ele>
        <time>2017-05-22T09:42:00Z</time>
      </trkpt>
      <trkpt lat="46.0663" lon="4.77341">
        <ele>176</ele>
        <time>2017-05-22T09:42:01Z</time>
      </trkpt>
      <trkpt lat="46.06628" lon="4.77347">
        <ele>176</ele>
        <time>2017-05-22T09:42:02Z</time>
      </trkpt>
      <trkpt lat="46.06625" lon="4.77353">
        <ele>176</ele>
        <time>2017-05-22T09:42:03Z</time>
      </trkpt>
      <trkpt lat="46.06622" lon="4.7736">
        <ele>176</ele>
        <time>2017-05-22T09:42:04Z</time>
      </trkpt>
      <trkpt lat="46.0662" lon="4.77366">
        <ele>176</ele>
        <time>2017-05-22T09:42:05Z</time>
      </trkpt>
      <trkpt lat="46.06617" lon="4.77373">
        <ele>176</ele>
        <time>2017-05-22T09:42:06Z</time>
      </trkpt>
      <trkpt lat="46.06614" lon="4.77379">
        <ele>176</ele>
        <time>2017-05-22T09:42:07Z</time>
      </trkpt>
      <trkpt lat="46.0661" lon="4.77386">
        <ele>177</ele>
        <time>2017-05-22T09:42:08Z</time>
      </trkpt>
      <trkpt lat="46.06607" lon="4.77393">
        <ele>177</ele>
        <time>2017-05-22T09:42:09Z</time>
      </trkpt>
      <trkpt lat="46.06604" lon="4.774">
        <ele>177</ele>
        <time>2017-05-22T09:42:10Z</time>
      </trkpt>
      <trkpt lat="46.06601" lon="4.77408">
        <ele>177</ele>
        <time>2017-05-22T09:42:11Z</time>
      </trkpt>
      <trkpt lat="46.06598" lon="4.77415">
        <ele>178</ele>
        <time>2017-05-22T09:42:12Z</time>
      </trkpt>
      <trkpt lat="46.06593" lon="4.77425">
        <ele>179</ele>
        <time>2017-05-22T09:42:14Z</time>
      </trkpt>
      <trkpt lat="46.06591" lon="4.77431">
        <ele>179</ele>
        <time>2017-05-22T09:42:15Z</time>
      </trkpt>
      <trkpt lat="46.06589" lon="4.77441">
        <ele>180</ele>
        <time>2017-05-22T09:42:17Z</time>
      </trkpt>
      <trkpt lat="46.06589" lon="4.77447">
        <ele>180</ele>
        <time>2017-05-22T09:42:18Z</time>
      </trkpt>
      <trkpt lat="46.0659" lon="4.77454">
        <ele>180</ele>
        <time>2017-05-22T09:42:19Z</time>
      </trkpt>
      <trkpt lat="46.06592" lon="4.77461">
        <ele>180</ele>
        <time>2017-05-22T09:42:20Z</time>
      </trkpt>
      <trkpt lat="46.06595" lon="4.77467">
        <ele>181</ele>
        <time>2017-05-22T09:42:21Z</time>
      </trkpt>
      <trkpt lat="46.06598" lon="4.77474">
        <ele>181</ele>
        <time>2017-05-22T09:42:22Z</time>
      </trkpt>
      <trkpt lat="46.06601" lon="4.7748">
        <ele>181</ele>
        <time>2017-05-22T09:42:23Z</time>
      </trkpt>
      <trkpt lat="46.06605" lon="4.77487">
        <ele>181</ele>
        <time>2017-05-22T09:42:24Z</time>
      </trkpt>
      <trkpt lat="46.06608" lon="4.77492">
        <ele>181</ele>
        <time>2017-05-22T09:42:25Z</time>
      </trkpt>
      <trkpt lat="46.06612" lon="4.77498">
        <ele>181</ele>
        <time>2017-05-22T09:42:26Z</time>
      </trkpt>
      <trkpt lat="46.06614" lon="4.77504">
        <ele>183</ele>
        <time>2017-05-22T09:42:27Z</time>
      </trkpt>
      <trkpt lat="46.06616" lon="4.77511">
        <ele>183</ele>
        <time>2017-05-22T09:42:28Z</time>
      </trkpt>
      <trkpt lat="46.06618" lon="4.77518">
        <ele>183</ele>
        <time>2017-05-22T09:42:29Z</time>
      </trkpt>
      <trkpt lat="46.06621" lon="4.77524">
        <ele>183</ele>
        <time>2017-05-22T09:42:30Z</time>
      </trkpt>
      <trkpt lat="46.06623" lon="4.77532">
        <ele>183</ele>
        <time>2017-05-22T09:42:31Z</time>
      </trkpt>
      <trkpt lat="46.06625" lon="4.77539">
        <ele>183</ele>
        <time>2017-05-22T09:42:32Z</time>
      </trkpt>
      <trkpt lat="46.06626" lon="4.7755">
        <ele>183</ele>
        <time>2017-05-22T09:42:34Z</time>
      </trkpt>
      <trkpt lat="46.06627" lon="4.77555">
        <ele>183</ele>
        <time>2017-05-22T09:42:35Z</time>
      </trkpt>
      <trkpt lat="46.06628" lon="4.77565">
        <ele>183</ele>
        <time>2017-05-22T09:42:37Z</time>
      </trkpt>
      <trkpt lat="46.06628" lon="4.77572">
        <ele>183</ele>
        <time>2017-05-22T09:42:38Z</time>
      </trkpt>
      <trkpt lat="46.06629" lon="4.77582">
        <ele>183</ele>
        <time>2017-05-22T09:42:40Z</time>
      </trkpt>
      <trkpt lat="46.06629" lon="4.77588">
        <ele>185</ele>
        <time>2017-05-22T09:42:41Z</time>
      </trkpt>
      <trkpt lat="46.06628" lon="4.77599">
        <ele>185</ele>
        <time>2017-05-22T09:42:43Z</time>
      </trkpt>
      <trkpt lat="46.06627" lon="4.77604">
        <ele>185</ele>
        <time>2017-05-22T09:42:44Z</time>
      </trkpt>
      <trkpt lat="46.06627" lon="4.77613">
        <ele>185</ele>
        <time>2017-05-22T09:42:46Z</time>
      </trkpt>
      <trkpt lat="46.06626" lon="4.77617">
        <ele>185</ele>
        <time>2017-05-22T09:42:47Z</time>
      </trkpt>
      <trkpt lat="46.06625" lon="4.77627">
        <ele>185</ele>
        <time>2017-05-22T09:42:49Z</time>
      </trkpt>
      <trkpt lat="46.06624" lon="4.77633">
        <ele>185</ele>
        <time>2017-05-22T09:42:50Z</time>
      </trkpt>
      <trkpt lat="46.06621" lon="4.77642">
        <ele>185</ele>
        <time>2017-05-22T09:42:52Z</time>
      </trkpt>
      <trkpt lat="46.06619" lon="4.77646">
        <ele>185</ele>
        <time>2017-05-22T09:42:53Z</time>
      </trkpt>
      <trkpt lat="46.06616" lon="4.77655">
        <ele>185</ele>
        <time>2017-05-22T09:42:55Z</time>
      </trkpt>
      <trkpt lat="46.06614" lon="4.77659">
        <ele>185</ele>
        <time>2017-05-22T09:42:56Z</time>
      </trkpt>
      <trkpt lat="46.0661" lon="4.77666">
        <ele>185</ele>
        <time>2017-05-22T09:42:58Z</time>
      </trkpt>
      <trkpt lat="46.06607" lon="4.77669">
        <ele>187</ele>
        <time>2017-05-22T09:42:59Z</time>
      </trkpt>
      <trkpt lat="46.066" lon="4.77675">
        <ele>187</ele>
        <time>2017-05-22T09:43:02Z</time>
      </trkpt>
      <trkpt lat="46.06597" lon="4.77678">
        <ele>187</ele>
        <time>2017-05-22T09:43:03Z</time>
      </trkpt>
      <trkpt lat="46.06589" lon="4.77683">
        <ele>187</ele>
        <time>2017-05-22T09:43:07Z</time>
      </trkpt>
      <trkpt lat="46.06587" lon="4.77684">
        <ele>187</ele>
        <time>2017-05-22T09:43:08Z</time>
      </trkpt>
      <trkpt lat="46.06579" lon="4.77689">
        <ele>188</ele>
        <time>2017-05-22T09:43:12Z</time>
      </trkpt>
      <trkpt lat="46.06577" lon="4.7769">
        <ele>188</ele>
        <time>2017-05-22T09:43:13Z</time>
      </trkpt>
      <trkpt lat="46.06569" lon="4.77695">
        <ele>188</ele>
        <time>2017-05-22T09:43:16Z</time>
      </trkpt>
      <trkpt lat="46.06567" lon="4.77696">
        <ele>188</ele>
        <time>2017-05-22T09:43:17Z</time>
      </trkpt>
      <trkpt lat="46.0656" lon="4.77702">
        <ele>189</ele>
        <time>2017-05-22T09:43:20Z</time>
      </trkpt>
      <trkpt lat="46.06557" lon="4.77705">
        <ele>189</ele>
        <time>2017-05-22T09:43:21Z</time>
      </trkpt>
      <trkpt lat="46.06552" lon="4.77712">
        <ele>189</ele>
        <time>2017-05-22T09:43:24Z</time>
      </trkpt>
      <trkpt lat="46.06549" lon="4.77715">
        <ele>189</ele>
        <time>2017-05-22T09:43:25Z</time>
      </trkpt>
      <trkpt lat="46.06543" lon="4.77721">
        <ele>189</ele>
        <time>2017-05-22T09:43:28Z</time>
      </trkpt>
      <trkpt lat="46.06541" lon="4.77723">
        <ele>189</ele>
        <time>2017-05-22T09:43:29Z</time>
      </trkpt>
      <trkpt lat="46.06536" lon="4.7773">
        <ele>190</ele>
        <time>2017-05-22T09:43:31Z</time>
      </trkpt>
      <trkpt lat="46.06534" lon="4.77733">
        <ele>190</ele>
        <time>2017-05-22T09:43:32Z</time>
      </trkpt>
      <trkpt lat="46.06529" lon="4.77742">
        <ele>190</ele>
        <time>2017-05-22T09:43:34Z</time>
      </trkpt>
      <trkpt lat="46.06527" lon="4.77745">
        <ele>190</ele>
        <time>2017-05-22T09:43:35Z</time>
      </trkpt>
      <trkpt lat="46.06523" lon="4.77755">
        <ele>192</ele>
        <time>2017-05-22T09:43:37Z</time>
      </trkpt>
      <trkpt lat="46.06522" lon="4.7776">
        <ele>192</ele>
        <time>2017-05-22T09:43:38Z</time>
      </trkpt>
      <trkpt lat="46.06518" lon="4.77768">
        <ele>192</ele>
        <time>2017-05-22T09:43:40Z</time>
      </trkpt>
      <trkpt lat="46.06516" lon="4.77771">
        <ele>192</ele>
        <time>2017-05-22T09:43:41Z</time>
      </trkpt>
      <trkpt lat="46.06512" lon="4.77778">
        <ele>192</ele>
        <time>2017-05-22T09:43:43Z</time>
      </trkpt>
      <trkpt lat="46.06509" lon="4.77781">
        <ele>192</ele>
        <time>2017-05-22T09:43:44Z</time>
      </trkpt>
      <trkpt lat="46.06504" lon="4.77791">
        <ele>192</ele>
        <time>2017-05-22T09:43:46Z</time>
      </trkpt>
      <trkpt lat="46.06502" lon="4.77796">
        <ele>192</ele>
        <time>2017-05-22T09:43:47Z</time>
      </trkpt>
      <trkpt lat="46.06498" lon="4.77806">
        <ele>192</ele>
        <time>2017-05-22T09:43:49Z</time>
      </trkpt>
      <trkpt lat="46.06497" lon="4.77811">
        <ele>192</ele>
        <time>2017-05-22T09:43:50Z</time>
      </trkpt>
      <trkpt lat="46.06493" lon="4.7782">
        <ele>192</ele>
        <time>2017-05-22T09:43:52Z</time>
      </trkpt>
      <trkpt lat="46.06491" lon="4.77824">
        <ele>192</ele>
        <time>2017-05-22T09:43:53Z</time>
      </trkpt>
      <trkpt lat="46.06487" lon="4.77831">
        <ele>192</ele>
        <time>2017-05-22T09:43:55Z</time>
      </trkpt>
      <trkpt lat="46.06486" lon="4.77834">
        <ele>192</ele>
        <time>2017-05-22T09:43:56Z</time>
      </trkpt>
      <trkpt lat="46.06481" lon="4.77845">
        <ele>192</ele>
        <time>2017-05-22T09:43:59Z</time>
      </trkpt>
      <trkpt lat="46.06479" lon="4.77848">
        <ele>192</ele>
        <time>2017-05-22T09:44:00Z</time>
      </trkpt>
      <trkpt lat="46.06475" lon="4.77856">
        <ele>192</ele>
        <time>2017-05-22T09:44:02Z</time>
      </trkpt>
      <trkpt lat="46.06473" lon="4.7786">
        <ele>192</ele>
        <time>2017-05-22T09:44:03Z</time>
      </trkpt>
      <trkpt lat="46.06469" lon="4.7787">
        <ele>192</ele>
        <time>2017-05-22T09:44:05Z</time>
      </trkpt>
      <trkpt lat="46.06467" lon="4.77874">
        <ele>193</ele>
        <time>2017-05-22T09:44:06Z</time>
      </trkpt>
      <trkpt lat="46.06463" lon="4.77885">
        <ele>193</ele>
        <time>2017-05-22T09:44:08Z</time>
      </trkpt>
      <trkpt lat="46.06462" lon="4.7789">
        <ele>193</ele>
        <time>2017-05-22T09:44:09Z</time>
      </trkpt>
      <trkpt lat="46.06459" lon="4.77898">
        <ele>193</ele>
        <time>2017-05-22T09:44:11Z</time>
      </trkpt>
      <trkpt lat="46.06459" lon="4.77904">
        <ele>193</ele>
        <time>2017-05-22T09:44:12Z</time>
      </trkpt>
      <trkpt lat="46.06456" lon="4.77911">
        <ele>193</ele>
        <time>2017-05-22T09:44:14Z</time>
      </trkpt>
      <trkpt lat="46.06454" lon="4.77915">
        <ele>193</ele>
        <time>2017-05-22T09:44:15Z</time>
      </trkpt>
      <trkpt lat="46.06451" lon="4.77924">
        <ele>194</ele>
        <time>2017-05-22T09:44:17Z</time>
      </trkpt>
      <trkpt lat="46.0645" lon="4.77929">
        <ele>194</ele>
        <time>2017-05-22T09:44:18Z</time>
      </trkpt>
      <trkpt lat="46.06447" lon="4.7794">
        <ele>195</ele>
        <time>2017-05-22T09:44:20Z</time>
      </trkpt>
      <trkpt lat="46.06446" lon="4.77946">
        <ele>195</ele>
        <time>2017-05-22T09:44:21Z</time>
      </trkpt>
      <trkpt lat="46.06444" lon="4.77957">
        <ele>195</ele>
        <time>2017-05-22T09:44:23Z</time>
      </trkpt>
      <trkpt lat="46.06442" lon="4.77961">
        <ele>195</ele>
        <time>2017-05-22T09:44:24Z</time>
      </trkpt>
      <trkpt lat="46.0644" lon="4.77971">
        <ele>195</ele>
        <time>2017-05-22T09:44:27Z</time>
      </trkpt>
      <trkpt lat="46.0644" lon="4.77975">
        <ele>195</ele>
        <time>2017-05-22T09:44:28Z</time>
      </trkpt>
      <trkpt lat="46.06439" lon="4.77984">
        <ele>195</ele>
        <time>2017-05-22T09:44:30Z</time>
      </trkpt>
      <trkpt lat="46.06438" lon="4.77989">
        <ele>195</ele>
        <time>2017-05-22T09:44:31Z</time>
      </trkpt>
      <trkpt lat="46.06434" lon="4.77997">
        <ele>195</ele>
        <time>2017-05-22T09:44:33Z</time>
      </trkpt>
      <trkpt lat="46.06432" lon="4.78002">
        <ele>197</ele>
        <time>2017-05-22T09:44:34Z</time>
      </trkpt>
      <trkpt lat="46.06428" lon="4.78011">
        <ele>197</ele>
        <time>2017-05-22T09:44:36Z</time>
      </trkpt>
      <trkpt lat="46.06426" lon="4.78015">
        <ele>197</ele>
        <time>2017-05-22T09:44:37Z</time>
      </trkpt>
      <trkpt lat="46.06421" lon="4.78023">
        <ele>197</ele>
        <time>2017-05-22T09:44:39Z</time>
      </trkpt>
      <trkpt lat="46.06419" lon="4.78027">
        <ele>197</ele>
        <time>2017-05-22T09:44:40Z</time>
      </trkpt>
      <trkpt lat="46.06414" lon="4.78034">
        <ele>197</ele>
        <time>2017-05-22T09:44:43Z</time>
      </trkpt>
      <trkpt lat="46.06411" lon="4.78038">
        <ele>197</ele>
        <time>2017-05-22T09:44:44Z</time>
      </trkpt>
      <trkpt lat="46.06406" lon="4.78047">
        <ele>197</ele>
        <time>2017-05-22T09:44:47Z</time>
      </trkpt>
      <trkpt lat="46.06404" lon="4.78051">
        <ele>197</ele>
        <time>2017-05-22T09:44:48Z</time>
      </trkpt>
      <trkpt lat="46.064" lon="4.7806">
        <ele>198</ele>
        <time>2017-05-22T09:44:50Z</time>
      </trkpt>
      <trkpt lat="46.06398" lon="4.78064">
        <ele>198</ele>
        <time>2017-05-22T09:44:51Z</time>
      </trkpt>
      <trkpt lat="46.06394" lon="4.78071">
        <ele>198</ele>
        <time>2017-05-22T09:44:53Z</time>
      </trkpt>
      <trkpt lat="46.06393" lon="4.78075">
        <ele>198</ele>
        <time>2017-05-22T09:44:54Z</time>
      </trkpt>
      <trkpt lat="46.0639" lon="4.78084">
        <ele>200</ele>
        <time>2017-05-22T09:44:56Z</time>
      </trkpt>
      <trkpt lat="46.06389" lon="4.78088">
        <ele>200</ele>
        <time>2017-05-22T09:44:57Z</time>
      </trkpt>
      <trkpt lat="46.06385" lon="4.781">
        <ele>200</ele>
        <time>2017-05-22T09:45:00Z</time>
      </trkpt>
      <trkpt lat="46.06384" lon="4.78104">
        <ele>200</ele>
        <time>2017-05-22T09:45:01Z</time>
      </trkpt>
      <trkpt lat="46.06383" lon="4.78114">
        <ele>200</ele>
        <time>2017-05-22T09:45:03Z</time>
      </trkpt>
      <trkpt lat="46.06382" lon="4.78119">
        <ele>200</ele>
        <time>2017-05-22T09:45:04Z</time>
      </trkpt>
      <trkpt lat="46.06382" lon="4.78128">
        <ele>201</ele>
        <time>2017-05-22T09:45:06Z</time>
      </trkpt>
      <trkpt lat="46.06383" lon="4.78132">
        <ele>201</ele>
        <time>2017-05-22T09:45:07Z</time>
      </trkpt>
      <trkpt lat="46.06382" lon="4.78141">
        <ele>201</ele>
        <time>2017-05-22T09:45:09Z</time>
      </trkpt>
      <trkpt lat="46.06382" lon="4.78146">
        <ele>201</ele>
        <time>2017-05-22T09:45:10Z</time>
      </trkpt>
      <trkpt lat="46.06381" lon="4.78157">
        <ele>201</ele>
        <time>2017-05-22T09:45:13Z</time>
      </trkpt>
      <trkpt lat="46.06381" lon="4.78161">
        <ele>201</ele>
        <time>2017-05-22T09:45:14Z</time>
      </trkpt>
      <trkpt lat="46.0638" lon="4.7817">
        <ele>204</ele>
        <time>2017-05-22T09:45:16Z</time>
      </trkpt>
      <trkpt lat="46.06379" lon="4.78175">
        <ele>204</ele>
        <time>2017-05-22T09:45:17Z</time>
      </trkpt>
      <trkpt lat="46.06378" lon="4.78186">
        <ele>204</ele>
        <time>2017-05-22T09:45:19Z</time>
      </trkpt>
      <trkpt lat="46.06377" lon="4.78192">
        <ele>204</ele>
        <time>2017-05-22T09:45:20Z</time>
      </trkpt>
      <trkpt lat="46.06374" lon="4.78198">
        <ele>204</ele>
        <time>2017-05-22T09:45:21Z</time>
      </trkpt>
      <trkpt lat="46.06371" lon="4.78203">
        <ele>204</ele>
        <time>2017-05-22T09:45:22Z</time>
      </trkpt>
      <trkpt lat="46.06365" lon="4.78209">
        <ele>204</ele>
        <time>2017-05-22T09:45:24Z</time>
      </trkpt>
      <trkpt lat="46.06362" lon="4.78212">
        <ele>204</ele>
        <time>2017-05-22T09:45:25Z</time>
      </trkpt>
      <trkpt lat="46.06357" lon="4.78218">
        <ele>204</ele>
        <time>2017-05-22T09:45:27Z</time>
      </trkpt>
      <trkpt lat="46.06354" lon="4.78222">
        <ele>205</ele>
        <time>2017-05-22T09:45:28Z</time>
      </trkpt>
      <trkpt lat="46.06347" lon="4.78228">
        <ele>205</ele>
        <time>2017-05-22T09:45:30Z</time>
      </trkpt>
      <trkpt lat="46.06343" lon="4.78231">
        <ele>205</ele>
        <time>2017-05-22T09:45:31Z</time>
      </trkpt>
      <trkpt lat="46.06337" lon="4.78233">
        <ele>205</ele>
        <time>2017-05-22T09:45:33Z</time>
      </trkpt>
      <trkpt lat="46.06333" lon="4.78234">
        <ele>206</ele>
        <time>2017-05-22T09:45:34Z</time>
      </trkpt>
      <trkpt lat="46.06326" lon="4.78233">
        <ele>206</ele>
        <time>2017-05-22T09:45:36Z</time>
      </trkpt>
      <trkpt lat="46.06323" lon="4.78232">
        <ele>205</ele>
        <time>2017-05-22T09:45:37Z</time>
      </trkpt>
      <trkpt lat="46.06315" lon="4.78227">
        <ele>205</ele>
        <time>2017-05-22T09:45:39Z</time>
      </trkpt>
      <trkpt lat="46.06311" lon="4.78224">
        <ele>205</ele>
        <time>2017-05-22T09:45:40Z</time>
      </trkpt>
      <trkpt lat="46.06304" lon="4.78222">
        <ele>205</ele>
        <time>2017-05-22T09:45:42Z</time>
      </trkpt>
      <trkpt lat="46.06301" lon="4.7822">
        <ele>205</ele>
        <time>2017-05-22T09:45:43Z</time>
      </trkpt>
      <trkpt lat="46.06294" lon="4.78217">
        <ele>205</ele>
        <time>2017-05-22T09:45:45Z</time>
      </trkpt>
      <trkpt lat="46.06291" lon="4.78215">
        <ele>205</ele>
        <time>2017-05-22T09:45:46Z</time>
      </trkpt>
      <trkpt lat="46.06284" lon="4.78209">
        <ele>205</ele>
        <time>2017-05-22T09:45:48Z</time>
      </trkpt>
      <trkpt lat="46.06281" lon="4.78206">
        <ele>205</ele>
        <time>2017-05-22T09:45:49Z</time>
      </trkpt>
      <trkpt lat="46.06276" lon="4.78202">
        <ele>205</ele>
        <time>2017-05-22T09:45:51Z</time>
      </trkpt>
      <trkpt lat="46.06272" lon="4.78201">
        <ele>205</ele>
        <time>2017-05-22T09:45:52Z</time>
      </trkpt>
      <trkpt lat="46.06265" lon="4.78194">
        <ele>205</ele>
        <time>2017-05-22T09:45:54Z</time>
      </trkpt>
      <trkpt lat="46.06262" lon="4.78191">
        <ele>205</ele>
        <time>2017-05-22T09:45:55Z</time>
      </trkpt>
      <trkpt lat="46.06255" lon="4.78184">
        <ele>205</ele>
        <time>2017-05-22T09:45:57Z</time>
      </trkpt>
      <trkpt lat="46.06252" lon="4.78181">
        <ele>205</ele>
        <time>2017-05-22T09:45:58Z</time>
      </trkpt>
      <trkpt lat="46.06244" lon="4.78179">
        <ele>206</ele>
        <time>2017-05-22T09:46:00Z</time>
      </trkpt>
      <trkpt lat="46.0624" lon="4.78177">
        <ele>206</ele>
        <time>2017-05-22T09:46:01Z</time>
      </trkpt>
      <trkpt lat="46.06233" lon="4.78172">
        <ele>206</ele>
        <time>2017-05-22T09:46:03Z</time>
      </trkpt>
      <trkpt lat="46.0623" lon="4.7817">
        <ele>206</ele>
        <time>2017-05-22T09:46:04Z</time>
      </trkpt>
      <trkpt lat="46.06223" lon="4.78164">
        <ele>205</ele>
        <time>2017-05-22T09:46:06Z</time>
      </trkpt>
      <trkpt lat="46.0622" lon="4.78161">
        <ele>205</ele>
        <time>2017-05-22T09:46:07Z</time>
      </trkpt>
      <trkpt lat="46.06213" lon="4.78158">
        <ele>205</ele>
        <time>2017-05-22T09:46:09Z</time>
      </trkpt>
      <trkpt lat="46.0621" lon="4.78156">
        <ele>205</ele>
        <time>2017-05-22T09:46:10Z</time>
      </trkpt>
      <trkpt lat="46.06204" lon="4.78154">
        <ele>205</ele>
        <time>2017-05-22T09:46:12Z</time>
      </trkpt>
      <trkpt lat="46.06201" lon="4.78152">
        <ele>205</ele>
        <time>2017-05-22T09:46:13Z</time>
      </trkpt>
      <trkpt lat="46.06194" lon="4.78148">
        <ele>205</ele>
        <time>2017-05-22T09:46:15Z</time>
      </trkpt>
      <trkpt lat="46.0619" lon="4.78145">
        <ele>206</ele>
        <time>2017-05-22T09:46:16Z</time>
      </trkpt>
      <trkpt lat="46.06183" lon="4.7814">
        <ele>206</ele>
        <time>2017-05-22T09:46:18Z</time>
      </trkpt>
      <trkpt lat="46.06179" lon="4.78138">
        <ele>206</ele>
        <time>2017-05-22T09:46:19Z</time>
      </trkpt>
      <trkpt lat="46.06174" lon="4.78137">
        <ele>206</ele>
        <time>2017-05-22T09:46:20Z</time>
      </trkpt>
      <trkpt lat="46.06169" lon="4.78135">
        <ele>206</ele>
        <time>2017-05-22T09:46:21Z</time>
      </trkpt>
      <trkpt lat="46.06162" lon="4.78129">
        <ele>208</ele>
        <time>2017-05-22T09:46:23Z</time>
      </trkpt>
      <trkpt lat="46.06158" lon="4.78126">
        <ele>208</ele>
        <time>2017-05-22T09:46:24Z</time>
      </trkpt>
      <trkpt lat="46.06153" lon="4.78123">
        <ele>208</ele>
        <time>2017-05-22T09:46:25Z</time>
      </trkpt>
      <trkpt lat="46.0615" lon="4.78119">
        <ele>208</ele>
        <time>2017-05-22T09:46:26Z</time>
      </trkpt>
      <trkpt lat="46.06146" lon="4.78115">
        <ele>208</ele>
        <time>2017-05-22T09:46:27Z</time>
      </trkpt>
      <trkpt lat="46.06142" lon="4.78112">
        <ele>208</ele>
        <time>2017-05-22T09:46:28Z</time>
      </trkpt>
      <trkpt lat="46.06135" lon="4.78105">
        <ele>208</ele>
        <time>2017-05-22T09:46:30Z</time>
      </trkpt>
      <trkpt lat="46.06132" lon="4.78101">
        <ele>209</ele>
        <time>2017-05-22T09:46:31Z</time>
      </trkpt>
      <trkpt lat="46.06126" lon="4.78093">
        <ele>209</ele>
        <time>2017-05-22T09:46:33Z</time>
      </trkpt>
      <trkpt lat="46.06123" lon="4.78088">
        <ele>209</ele>
        <time>2017-05-22T09:46:34Z</time>
      </trkpt>
      <trkpt lat="46.06118" lon="4.7808">
        <ele>210</ele>
        <time>2017-05-22T09:46:36Z</time>
      </trkpt>
      <trkpt lat="46.06115" lon="4.78075">
        <ele>210</ele>
        <time>2017-05-22T09:46:37Z</time>
      </trkpt>
      <trkpt lat="46.06111" lon="4.78066">
        <ele>210</ele>
        <time>2017-05-22T09:46:39Z</time>
      </trkpt>
      <trkpt lat="46.06107" lon="4.78063">
        <ele>210</ele>
        <time>2017-05-22T09:46:40Z</time>
      </trkpt>
      <trkpt lat="46.06099" lon="4.78056">
        <ele>210</ele>
        <time>2017-05-22T09:46:42Z</time>
      </trkpt>
      <trkpt lat="46.06096" lon="4.78053">
        <ele>210</ele>
        <time>2017-05-22T09:46:43Z</time>
      </trkpt>
      <trkpt lat="46.0609" lon="4.78048">
        <ele>210</ele>
        <time>2017-05-22T09:46:45Z</time>
      </trkpt>
      <trkpt lat="46.06087" lon="4.78046">
        <ele>210</ele>
        <time>2017-05-22T09:46:46Z</time>
      </trkpt>
      <trkpt lat="46.06079" lon="4.78043">
        <ele>211</ele>
        <time>2017-05-22T09:46:48Z</time>
      </trkpt>
      <trkpt lat="46.06077" lon="4.78041">
        <ele>211</ele>
        <time>2017-05-22T09:46:49Z</time>
      </trkpt>
      <trkpt lat="46.0607" lon="4.78035">
        <ele>211</ele>
        <time>2017-05-22T09:46:51Z</time>
      </trkpt>
      <trkpt lat="46.06068" lon="4.78033">
        <ele>211</ele>
        <time>2017-05-22T09:46:52Z</time>
      </trkpt>
      <trkpt lat="46.06062" lon="4.78029">
        <ele>211</ele>
        <time>2017-05-22T09:46:54Z</time>
      </trkpt>
      <trkpt lat="46.06059" lon="4.78027">
        <ele>211</ele>
        <time>2017-05-22T09:46:55Z</time>
      </trkpt>
      <trkpt lat="46.06053" lon="4.7802">
        <ele>211</ele>
        <time>2017-05-22T09:46:57Z</time>
      </trkpt>
      <trkpt lat="46.0605" lon="4.78015">
        <ele>211</ele>
        <time>2017-05-22T09:46:58Z</time>
      </trkpt>
      <trkpt lat="46.06047" lon="4.78009">
        <ele>211</ele>
        <time>2017-05-22T09:46:59Z</time>
      </trkpt>
      <trkpt lat="46.06043" lon="4.78003">
        <ele>211</ele>
        <time>2017-05-22T09:47:00Z</time>
      </trkpt>
      <trkpt lat="46.06039" lon="4.77999">
        <ele>211</ele>
        <time>2017-05-22T09:47:01Z</time>
      </trkpt>
      <trkpt lat="46.06034" lon="4.77994">
        <ele>211</ele>
        <time>2017-05-22T09:47:02Z</time>
      </trkpt>
      <trkpt lat="46.0603" lon="4.77988">
        <ele>211</ele>
        <time>2017-05-22T09:47:03Z</time>
      </trkpt>
      <trkpt lat="46.06027" lon="4.77984">
        <ele>211</ele>
        <time>2017-05-22T09:47:04Z</time>
      </trkpt>
      <trkpt lat="46.0602" lon="4.77975">
        <ele>211</ele>
        <time>2017-05-22T09:47:06Z</time>
      </trkpt>
      <trkpt lat="46.06017" lon="4.77971">
        <ele>211</ele>
        <time>2017-05-22T09:47:07Z</time>
      </trkpt>
      <trkpt lat="46.0601" lon="4.77965">
        <ele>211</ele>
        <time>2017-05-22T09:47:09Z</time>
      </trkpt>
      <trkpt lat="46.06007" lon="4.77962">
        <ele>211</ele>
        <time>2017-05-22T09:47:10Z</time>
      </trkpt>
      <trkpt lat="46.06003" lon="4.77959">
        <ele>211</ele>
        <time>2017-05-22T09:47:11Z</time>
      </trkpt>
      <trkpt lat="46.06" lon="4.77954">
        <ele>212</ele>
        <time>2017-05-22T09:47:12Z</time>
      </trkpt>
      <trkpt lat="46.05997" lon="4.77948">
        <ele>212</ele>
        <time>2017-05-22T09:47:13Z</time>
      </trkpt>
      <trkpt lat="46.05995" lon="4.77942">
        <ele>212</ele>
        <time>2017-05-22T09:47:14Z</time>
      </trkpt>
      <trkpt lat="46.05992" lon="4.77932">
        <ele>212</ele>
        <time>2017-05-22T09:47:16Z</time>
      </trkpt>
      <trkpt lat="46.0599" lon="4.77927">
        <ele>212</ele>
        <time>2017-05-22T09:47:17Z</time>
      </trkpt>
      <trkpt lat="46.05987" lon="4.77918">
        <ele>212</ele>
        <time>2017-05-22T09:47:19Z</time>
      </trkpt>
      <trkpt lat="46.05985" lon="4.77913">
        <ele>211</ele>
        <time>2017-05-22T09:47:20Z</time>
      </trkpt>
      <trkpt lat="46.05981" lon="4.77904">
        <ele>211</ele>
        <time>2017-05-22T09:47:22Z</time>
      </trkpt>
      <trkpt lat="46.05979" lon="4.779">
        <ele>211</ele>
        <time>2017-05-22T09:47:23Z</time>
      </trkpt>
      <trkpt lat="46.05973" lon="4.77892">
        <ele>211</ele>
        <time>2017-05-22T09:47:25Z</time>
      </trkpt>
      <trkpt lat="46.0597" lon="4.77887">
        <ele>211</ele>
        <time>2017-05-22T09:47:26Z</time>
      </trkpt>
      <trkpt lat="46.05965" lon="4.77878">
        <ele>211</ele>
        <time>2017-05-22T09:47:28Z</time>
      </trkpt>
      <trkpt lat="46.05962" lon="4.77874">
        <ele>211</ele>
        <time>2017-05-22T09:47:29Z</time>
      </trkpt>
      <trkpt lat="46.05958" lon="4.77866">
        <ele>211</ele>
        <time>2017-05-22T09:47:31Z</time>
      </trkpt>
      <trkpt lat="46.05956" lon="4.77861">
        <ele>211</ele>
        <time>2017-05-22T09:47:32Z</time>
      </trkpt>
      <trkpt lat="46.05951" lon="4.77854">
        <ele>211</ele>
        <time>2017-05-22T09:47:34Z</time>
      </trkpt>
      <trkpt lat="46.0595" lon="4.7785">
        <ele>211</ele>
        <time>2017-05-22T09:47:35Z</time>
      </trkpt>
      <trkpt lat="46.05946" lon="4.77842">
        <ele>211</ele>
        <time>2017-05-22T09:47:37Z</time>
      </trkpt>
      <trkpt lat="46.05945" lon="4.77838">
        <ele>211</ele>
        <time>2017-05-22T09:47:38Z</time>
      </trkpt>
      <trkpt lat="46.0594" lon="4.7783">
        <ele>210</ele>
        <time>2017-05-22T09:47:40Z</time>
      </trkpt>
      <trkpt lat="46.05937" lon="4.77825">
        <ele>210</ele>
        <time>2017-05-22T09:47:41Z</time>
      </trkpt>
      <trkpt lat="46.05934" lon="4.77818">
        <ele>210</ele>
        <time>2017-05-22T09:47:42Z</time>
      </trkpt>
      <trkpt lat="46.0593" lon="4.77813">
        <ele>210</ele>
        <time>2017-05-22T09:47:43Z</time>
      </trkpt>
      <trkpt lat="46.05927" lon="4.77808">
        <ele>210</ele>
        <time>2017-05-22T09:47:44Z</time>
      </trkpt>
      <trkpt lat="46.05923" lon="4.77803">
        <ele>210</ele>
        <time>2017-05-22T09:47:45Z</time>
      </trkpt>
      <trkpt lat="46.0592" lon="4.77798">
        <ele>210</ele>
        <time>2017-05-22T09:47:46Z</time>
      </trkpt>
      <trkpt lat="46.05917" lon="4.77793">
        <ele>210</ele>
        <time>2017-05-22T09:47:47Z</time>
      </trkpt>
      <trkpt lat="46.05913" lon="4.77788">
        <ele>210</ele>
        <time>2017-05-22T09:47:48Z</time>
      </trkpt>
      <trkpt lat="46.05911" lon="4.77783">
        <ele>210</ele>
        <time>2017-05-22T09:47:49Z</time>
      </trkpt>
      <trkpt lat="46.05908" lon="4.77777">
        <ele>210</ele>
        <time>2017-05-22T09:47:50Z</time>
      </trkpt>
      <trkpt lat="46.05905" lon="4.77771">
        <ele>210</ele>
        <time>2017-05-22T09:47:51Z</time>
      </trkpt>
      <trkpt lat="46.05902" lon="4.77765">
        <ele>209</ele>
        <time>2017-05-22T09:47:52Z</time>
      </trkpt>
      <trkpt lat="46.05901" lon="4.77758">
        <ele>209</ele>
        <time>2017-05-22T09:47:53Z</time>
      </trkpt>
      <trkpt lat="46.05899" lon="4.77751">
        <ele>209</ele>
        <time>2017-05-22T09:47:54Z</time>
      </trkpt>
      <trkpt lat="46.05897" lon="4.77744">
        <ele>209</ele>
        <time>2017-05-22T09:47:55Z</time>
      </trkpt>
      <trkpt lat="46.05896" lon="4.77736">
        <ele>209</ele>
        <time>2017-05-22T09:47:56Z</time>
      </trkpt>
      <trkpt lat="46.05894" lon="4.77729">
        <ele>209</ele>
        <time>2017-05-22T09:47:57Z</time>
      </trkpt>
      <trkpt lat="46.05894" lon="4.77721">
        <ele>209</ele>
        <time>2017-05-22T09:47:58Z</time>
      </trkpt>
      <trkpt lat="46.05892" lon="4.77713">
        <ele>208</ele>
        <time>2017-05-22T09:47:59Z</time>
      </trkpt>
      <trkpt lat="46.05891" lon="4.77706">
        <ele>208</ele>
        <time>2017-05-22T09:48:00Z</time>
      </trkpt>
      <trkpt lat="46.0589" lon="4.77698">
        <ele>208</ele>
        <time>2017-05-22T09:48:01Z</time>
      </trkpt>
      <trkpt lat="46.05888" lon="4.77691">
        <ele>208</ele>
        <time>2017-05-22T09:48:02Z</time>
      </trkpt>
      <trkpt lat="46.05886" lon="4.77684">
        <ele>208</ele>
        <time>2017-05-22T09:48:03Z</time>
      </trkpt>
      <trkpt lat="46.05884" lon="4.77677">
        <ele>208</ele>
        <time>2017-05-22T09:48:04Z</time>
      </trkpt>
      <trkpt lat="46.05882" lon="4.77671">
        <ele>208</ele>
        <time>2017-05-22T09:48:05Z</time>
      </trkpt>
      <trkpt lat="46.05879" lon="4.77665">
        <ele>208</ele>
        <time>2017-05-22T09:48:06Z</time>
      </trkpt>
      <trkpt lat="46.05875" lon="4.77661">
        <ele>208</ele>
        <time>2017-05-22T09:48:07Z</time>
      </trkpt>
      <trkpt lat="46.05872" lon="4.77656">
        <ele>208</ele>
        <time>2017-05-22T09:48:08Z</time>
      </trkpt>
      <trkpt lat="46.05868" lon="4.77652">
        <ele>208</ele>
        <time>2017-05-22T09:48:09Z</time>
      </trkpt>
      <trkpt lat="46.05862" lon="4.77644">
        <ele>208</ele>
        <time>2017-05-22T09:48:11Z</time>
      </trkpt>
      <trkpt lat="46.05859" lon="4.77641">
        <ele>208</ele>
        <time>2017-05-22T09:48:12Z</time>
      </trkpt>
      <trkpt lat="46.05852" lon="4.77633">
        <ele>208</ele>
        <time>2017-05-22T09:48:14Z</time>
      </trkpt>
      <trkpt lat="46.05849" lon="4.77629">
        <ele>208</ele>
        <time>2017-05-22T09:48:15Z</time>
      </trkpt>
      <trkpt lat="46.05842" lon="4.77622">
        <ele>208</ele>
        <time>2017-05-22T09:48:17Z</time>
      </trkpt>
      <trkpt lat="46.05838" lon="4.77618">
        <ele>208</ele>
        <time>2017-05-22T09:48:18Z</time>
      </trkpt>
      <trkpt lat="46.05831" lon="4.77611">
        <ele>209</ele>
        <time>2017-05-22T09:48:20Z</time>
      </trkpt>
      <trkpt lat="46.05828" lon="4.77607">
        <ele>208</ele>
        <time>2017-05-22T09:48:21Z</time>
      </trkpt>
      <trkpt lat="46.05822" lon="4.776">
        <ele>208</ele>
        <time>2017-05-22T09:48:23Z</time>
      </trkpt>
      <trkpt lat="46.05819" lon="4.77597">
        <ele>208</ele>
        <time>2017-05-22T09:48:24Z</time>
      </trkpt>
      <trkpt lat="46.05812" lon="4.77589">
        <ele>208</ele>
        <time>2017-05-22T09:48:26Z</time>
      </trkpt>
      <trkpt lat="46.05808" lon="4.77585">
        <ele>209</ele>
        <time>2017-05-22T09:48:27Z</time>
      </trkpt>
      <trkpt lat="46.05803" lon="4.77582">
        <ele>208</ele>
        <time>2017-05-22T09:48:28Z</time>
      </trkpt>
      <trkpt lat="46.05799" lon="4.77578">
        <ele>208</ele>
        <time>2017-05-22T09:48:29Z</time>
      </trkpt>
      <trkpt lat="46.05795" lon="4.77573">
        <ele>208</ele>
        <time>2017-05-22T09:48:30Z</time>
      </trkpt>
      <trkpt lat="46.05791" lon="4.77568">
        <ele>208</ele>
        <time>2017-05-22T09:48:31Z</time>
      </trkpt>
      <trkpt lat="46.05787" lon="4.77563">
        <ele>208</ele>
        <time>2017-05-22T09:48:32Z</time>
      </trkpt>
      <trkpt lat="46.05783" lon="4.77558">
        <ele>208</ele>
        <time>2017-05-22T09:48:33Z</time>
      </trkpt>
      <trkpt lat="46.0578" lon="4.77553">
        <ele>208</ele>
        <time>2017-05-22T09:48:34Z</time>
      </trkpt>
      <trkpt lat="46.05777" lon="4.77548">
        <ele>208</ele>
        <time>2017-05-22T09:48:35Z</time>
      </trkpt>
      <trkpt lat="46.05774" lon="4.77543">
        <ele>208</ele>
        <time>2017-05-22T09:48:36Z</time>
      </trkpt>
      <trkpt lat="46.05771" lon="4.77539">
        <ele>208</ele>
        <time>2017-05-22T09:48:37Z</time>
      </trkpt>
      <trkpt lat="46.05766" lon="4.7753">
        <ele>208</ele>
        <time>2017-05-22T09:48:39Z</time>
      </trkpt>
      <trkpt lat="46.05763" lon="4.77526">
        <ele>208</ele>
        <time>2017-05-22T09:48:40Z</time>
      </trkpt>
      <trkpt lat="46.05758" lon="4.77516">
        <ele>208</ele>
        <time>2017-05-22T09:48:42Z</time>
      </trkpt>
      <trkpt lat="46.05755" lon="4.77512">
        <ele>208</ele>
        <time>2017-05-22T09:48:43Z</time>
      </trkpt>
      <trkpt lat="46.05751" lon="4.77507">
        <ele>208</ele>
        <time>2017-05-22T09:48:44Z</time>
      </trkpt>
      <trkpt lat="46.05748" lon="4.77502">
        <ele>208</ele>
        <time>2017-05-22T09:48:45Z</time>
      </trkpt>
      <trkpt lat="46.05744" lon="4.77497">
        <ele>208</ele>
        <time>2017-05-22T09:48:46Z</time>
      </trkpt>
      <trkpt lat="46.05741" lon="4.77492">
        <ele>208</ele>
        <time>2017-05-22T09:48:47Z</time>
      </trkpt>
      <trkpt lat="46.05738" lon="4.77487">
        <ele>207</ele>
        <time>2017-05-22T09:48:48Z</time>
      </trkpt>
      <trkpt lat="46.05734" lon="4.77482">
        <ele>207</ele>
        <time>2017-05-22T09:48:49Z</time>
      </trkpt>
      <trkpt lat="46.0573" lon="4.77477">
        <ele>207</ele>
        <time>2017-05-22T09:48:50Z</time>
      </trkpt>
      <trkpt lat="46.05726" lon="4.77473">
        <ele>207</ele>
        <time>2017-05-22T09:48:51Z</time>
      </trkpt>
      <trkpt lat="46.05722" lon="4.77469">
        <ele>207</ele>
        <time>2017-05-22T09:48:52Z</time>
      </trkpt>
      <trkpt lat="46.05717" lon="4.77465">
        <ele>207</ele>
        <time>2017-05-22T09:48:53Z</time>
      </trkpt>
      <trkpt lat="46.05713" lon="4.77462">
        <ele>207</ele>
        <time>2017-05-22T09:48:54Z</time>
      </trkpt>
      <trkpt lat="46.05708" lon="4.77459">
        <ele>207</ele>
        <time>2017-05-22T09:48:55Z</time>
      </trkpt>
      <trkpt lat="46.05704" lon="4.77456">
        <ele>207</ele>
        <time>2017-05-22T09:48:56Z</time>
      </trkpt>
      <trkpt lat="46.057" lon="4.77452">
        <ele>207</ele>
        <time>2017-05-22T09:48:57Z</time>
      </trkpt>
      <trkpt lat="46.05695" lon="4.77449">
        <ele>207</ele>
        <time>2017-05-22T09:48:58Z</time>
      </trkpt>
      <trkpt lat="46.05691" lon="4.77445">
        <ele>206</ele>
        <time>2017-05-22T09:48:59Z</time>
      </trkpt>
      <trkpt lat="46.05686" lon="4.77442">
        <ele>206</ele>
        <time>2017-05-22T09:49:00Z</time>
      </trkpt>
      <trkpt lat="46.05681" lon="4.77438">
        <ele>206</ele>
        <time>2017-05-22T09:49:01Z</time>
      </trkpt>
      <trkpt lat="46.05677" lon="4.77434">
        <ele>206</ele>
        <time>2017-05-22T09:49:02Z</time>
      </trkpt>
      <trkpt lat="46.05672" lon="4.77429">
        <ele>206</ele>
        <time>2017-05-22T09:49:03Z</time>
      </trkpt>
      <trkpt lat="46.05667" lon="4.77424">
        <ele>205</ele>
        <time>2017-05-22T09:49:04Z</time>
      </trkpt>
      <trkpt lat="46.05663" lon="4.77419">
        <ele>205</ele>
        <time>2017-05-22T09:49:05Z</time>
      </trkpt>
      <trkpt lat="46.05658" lon="4.77414">
        <ele>204</ele>
        <time>2017-05-22T09:49:06Z</time>
      </trkpt>
      <trkpt lat="46.05653" lon="4.77408">
        <ele>204</ele>
        <time>2017-05-22T09:49:07Z</time>
      </trkpt>
      <trkpt lat="46.05648" lon="4.77403">
        <ele>204</ele>
        <time>2017-05-22T09:49:08Z</time>
      </trkpt>
      <trkpt lat="46.05642" lon="4.77398">
        <ele>203</ele>
        <time>2017-05-22T09:49:09Z</time>
      </trkpt>
      <trkpt lat="46.05637" lon="4.77393">
        <ele>203</ele>
        <time>2017-05-22T09:49:10Z</time>
      </trkpt>
      <trkpt lat="46.05631" lon="4.77388">
        <ele>203</ele>
        <time>2017-05-22T09:49:11Z</time>
      </trkpt>
      <trkpt lat="46.05625" lon="4.77383">
        <ele>203</ele>
        <time>2017-05-22T09:49:12Z</time>
      </trkpt>
      <trkpt lat="46.05619" lon="4.77378">
        <ele>203</ele>
        <time>2017-05-22T09:49:13Z</time>
      </trkpt>
      <trkpt lat="46.05613" lon="4.77374">
        <ele>203</ele>
        <time>2017-05-22T09:49:14Z</time>
      </trkpt>
      <trkpt lat="46.05606" lon="4.77369">
        <ele>202</ele>
        <time>2017-05-22T09:49:15Z</time>
      </trkpt>
      <trkpt lat="46.056" lon="4.77365">
        <ele>202</ele>
        <time>2017-05-22T09:49:16Z</time>
      </trkpt>
      <trkpt lat="46.05594" lon="4.7736">
        <ele>202</ele>
        <time>2017-05-22T09:49:17Z</time>
      </trkpt>
      <trkpt lat="46.05587" lon="4.77356">
        <ele>202</ele>
        <time>2017-05-22T09:49:18Z</time>
      </trkpt>
      <trkpt lat="46.05581" lon="4.77352">
        <ele>201</ele>
        <time>2017-05-22T09:49:19Z</time>
      </trkpt>
      <trkpt lat="46.05574" lon="4.77348">
        <ele>201</ele>
        <time>2017-05-22T09:49:20Z</time>
      </trkpt>
      <trkpt lat="46.05568" lon="4.77344">
        <ele>201</ele>
        <time>2017-05-22T09:49:21Z</time>
      </trkpt>
      <trkpt lat="46.05561" lon="4.7734">
        <ele>201</ele>
        <time>2017-05-22T09:49:22Z</time>
      </trkpt>
      <trkpt lat="46.05555" lon="4.77336">
        <ele>201</ele>
        <time>2017-05-22T09:49:23Z</time>
      </trkpt>
      <trkpt lat="46.05548" lon="4.77332">
        <ele>200</ele>
        <time>2017-05-22T09:49:24Z</time>
      </trkpt>
      <trkpt lat="46.05542" lon="4.77328">
        <ele>200</ele>
        <time>2017-05-22T09:49:25Z</time>
      </trkpt>
      <trkpt lat="46.05536" lon="4.77324">
        <ele>200</ele>
        <time>2017-05-22T09:49:26Z</time>
      </trkpt>
      <trkpt lat="46.0553" lon="4.77321">
        <ele>200</ele>
        <time>2017-05-22T09:49:27Z</time>
      </trkpt>
      <trkpt lat="46.05524" lon="4.77317">
        <ele>200</ele>
        <time>2017-05-22T09:49:28Z</time>
      </trkpt>
      <trkpt lat="46.05519" lon="4.77314">
        <ele>200</ele>
        <time>2017-05-22T09:49:29Z</time>
      </trkpt>
      <trkpt lat="46.05513" lon="4.77312">
        <ele>200</ele>
        <time>2017-05-22T09:49:30Z</time>
      </trkpt>
      <trkpt lat="46.05507" lon="4.77308">
        <ele>200</ele>
        <time>2017-05-22T09:49:31Z</time>
      </trkpt>
      <trkpt lat="46.05502" lon="4.77305">
        <ele>200</ele>
        <time>2017-05-22T09:49:32Z</time>
      </trkpt>
      <trkpt lat="46.05497" lon="4.77302">
        <ele>201</ele>
        <time>2017-05-22T09:49:33Z</time>
      </trkpt>
      <trkpt lat="46.05492" lon="4.77299">
        <ele>201</ele>
        <time>2017-05-22T09:49:34Z</time>
      </trkpt>
      <trkpt lat="46.05487" lon="4.77296">
        <ele>201</ele>
        <time>2017-05-22T09:49:35Z</time>
      </trkpt>
      <trkpt lat="46.05483" lon="4.77293">
        <ele>201</ele>
        <time>2017-05-22T09:49:36Z</time>
      </trkpt>
      <trkpt lat="46.05478" lon="4.77291">
        <ele>201</ele>
        <time>2017-05-22T09:49:37Z</time>
      </trkpt>
      <trkpt lat="46.0547" lon="4.77287">
        <ele>201</ele>
        <time>2017-05-22T09:49:39Z</time>
      </trkpt>
      <trkpt lat="46.05464" lon="4.77285">
        <ele>201</ele>
        <time>2017-05-22T09:49:40Z</time>
      </trkpt>
      <trkpt lat="46.05459" lon="4.77283">
        <ele>201</ele>
        <time>2017-05-22T09:49:41Z</time>
      </trkpt>
      <trkpt lat="46.05454" lon="4.77281">
        <ele>201</ele>
        <time>2017-05-22T09:49:42Z</time>
      </trkpt>
      <trkpt lat="46.05449" lon="4.77279">
        <ele>201</ele>
        <time>2017-05-22T09:49:43Z</time>
      </trkpt>
      <trkpt lat="46.05445" lon="4.77277">
        <ele>201</ele>
        <time>2017-05-22T09:49:44Z</time>
      </trkpt>
      <trkpt lat="46.05441" lon="4.77275">
        <ele>201</ele>
        <time>2017-05-22T09:49:45Z</time>
      </trkpt>
      <trkpt lat="46.05437" lon="4.77271">
        <ele>201</ele>
        <time>2017-05-22T09:49:46Z</time>
      </trkpt>
      <trkpt lat="46.05429" lon="4.77266">
        <ele>201</ele>
        <time>2017-05-22T09:49:48Z</time>
      </trkpt>
      <trkpt lat="46.05425" lon="4.77264">
        <ele>201</ele>
        <time>2017-05-22T09:49:49Z</time>
      </trkpt>
      <trkpt lat="46.05417" lon="4.7726">
        <ele>202</ele>
        <time>2017-05-22T09:49:51Z</time>
      </trkpt>
      <trkpt lat="46.05412" lon="4.77257">
        <ele>202</ele>
        <time>2017-05-22T09:49:52Z</time>
      </trkpt>
      <trkpt lat="46.05404" lon="4.77253">
        <ele>202</ele>
        <time>2017-05-22T09:49:54Z</time>
      </trkpt>
      <trkpt lat="46.054" lon="4.77251">
        <ele>203</ele>
        <time>2017-05-22T09:49:55Z</time>
      </trkpt>
      <trkpt lat="46.05391" lon="4.77247">
        <ele>202</ele>
        <time>2017-05-22T09:49:57Z</time>
      </trkpt>
      <trkpt lat="46.05387" lon="4.77245">
        <ele>202</ele>
        <time>2017-05-22T09:49:58Z</time>
      </trkpt>
      <trkpt lat="46.05382" lon="4.77243">
        <ele>203</ele>
        <time>2017-05-22T09:49:59Z</time>
      </trkpt>
      <trkpt lat="46.05378" lon="4.77241">
        <ele>203</ele>
        <time>2017-05-22T09:50:00Z</time>
      </trkpt>
      <trkpt lat="46.0537" lon="4.77237">
        <ele>203</ele>
        <time>2017-05-22T09:50:02Z</time>
      </trkpt>
      <trkpt lat="46.05366" lon="4.77235">
        <ele>203</ele>
        <time>2017-05-22T09:50:03Z</time>
      </trkpt>
      <trkpt lat="46.05359" lon="4.77231">
        <ele>203</ele>
        <time>2017-05-22T09:50:05Z</time>
      </trkpt>
      <trkpt lat="46.05355" lon="4.77227">
        <ele>203</ele>
        <time>2017-05-22T09:50:06Z</time>
      </trkpt>
      <trkpt lat="46.05351" lon="4.77224">
        <ele>203</ele>
        <time>2017-05-22T09:50:07Z</time>
      </trkpt>
      <trkpt lat="46.05347" lon="4.7722">
        <ele>204</ele>
        <time>2017-05-22T09:50:08Z</time>
      </trkpt>
      <trkpt lat="46.05343" lon="4.77217">
        <ele>204</ele>
        <time>2017-05-22T09:50:09Z</time>
      </trkpt>
      <trkpt lat="46.05338" lon="4.77214">
        <ele>204</ele>
        <time>2017-05-22T09:50:10Z</time>
      </trkpt>
      <trkpt lat="46.05334" lon="4.7721">
        <ele>203</ele>
        <time>2017-05-22T09:50:11Z</time>
      </trkpt>
      <trkpt lat="46.0533" lon="4.77207">
        <ele>205</ele>
        <time>2017-05-22T09:50:12Z</time>
      </trkpt>
      <trkpt lat="46.05325" lon="4.77204">
        <ele>205</ele>
        <time>2017-05-22T09:50:13Z</time>
      </trkpt>
      <trkpt lat="46.05321" lon="4.77199">
        <ele>205</ele>
        <time>2017-05-22T09:50:14Z</time>
      </trkpt>
      <trkpt lat="46.05316" lon="4.77196">
        <ele>205</ele>
        <time>2017-05-22T09:50:15Z</time>
      </trkpt>
      <trkpt lat="46.05312" lon="4.77192">
        <ele>205</ele>
        <time>2017-05-22T09:50:16Z</time>
      </trkpt>
      <trkpt lat="46.05308" lon="4.77186">
        <ele>205</ele>
        <time>2017-05-22T09:50:17Z</time>
      </trkpt>
      <trkpt lat="46.05303" lon="4.77182">
        <ele>205</ele>
        <time>2017-05-22T09:50:18Z</time>
      </trkpt>
      <trkpt lat="46.05299" lon="4.77178">
        <ele>205</ele>
        <time>2017-05-22T09:50:19Z</time>
      </trkpt>
      <trkpt lat="46.05294" lon="4.77173">
        <ele>205</ele>
        <time>2017-05-22T09:50:20Z</time>
      </trkpt>
      <trkpt lat="46.0529" lon="4.77169">
        <ele>206</ele>
        <time>2017-05-22T09:50:21Z</time>
      </trkpt>
      <trkpt lat="46.05285" lon="4.77164">
        <ele>204</ele>
        <time>2017-05-22T09:50:22Z</time>
      </trkpt>
      <trkpt lat="46.05281" lon="4.77159">
        <ele>204</ele>
        <time>2017-05-22T09:50:23Z</time>
      </trkpt>
      <trkpt lat="46.05277" lon="4.77154">
        <ele>204</ele>
        <time>2017-05-22T09:50:24Z</time>
      </trkpt>
      <trkpt lat="46.05272" lon="4.77149">
        <ele>204</ele>
        <time>2017-05-22T09:50:25Z</time>
      </trkpt>
      <trkpt lat="46.05268" lon="4.77143">
        <ele>204</ele>
        <time>2017-05-22T09:50:26Z</time>
      </trkpt>
      <trkpt lat="46.05264" lon="4.77137">
        <ele>204</ele>
        <time>2017-05-22T09:50:27Z</time>
      </trkpt>
      <trkpt lat="46.0526" lon="4.7713">
        <ele>204</ele>
        <time>2017-05-22T09:50:28Z</time>
      </trkpt>
      <trkpt lat="46.05255" lon="4.77126">
        <ele>204</ele>
        <time>2017-05-22T09:50:29Z</time>
      </trkpt>
      <trkpt lat="46.05251" lon="4.7712">
        <ele>204</ele>
        <time>2017-05-22T09:50:30Z</time>
      </trkpt>
      <trkpt lat="46.05246" lon="4.77115">
        <ele>203</ele>
        <time>2017-05-22T09:50:31Z</time>
      </trkpt>
      <trkpt lat="46.05243" lon="4.7711">
        <ele>203</ele>
        <time>2017-05-22T09:50:32Z</time>
      </trkpt>
      <trkpt lat="46.05237" lon="4.77102">
        <ele>203</ele>
        <time>2017-05-22T09:50:34Z</time>
      </trkpt>
      <trkpt lat="46.05234" lon="4.77097">
        <ele>203</ele>
        <time>2017-05-22T09:50:35Z</time>
      </trkpt>
      <trkpt lat="46.05231" lon="4.77091">
        <ele>203</ele>
        <time>2017-05-22T09:50:36Z</time>
      </trkpt>
      <trkpt lat="46.05228" lon="4.77084">
        <ele>203</ele>
        <time>2017-05-22T09:50:37Z</time>
      </trkpt>
      <trkpt lat="46.05226" lon="4.77077">
        <ele>201</ele>
        <time>2017-05-22T09:50:38Z</time>
      </trkpt>
      <trkpt lat="46.05224" lon="4.77069">
        <ele>201</ele>
        <time>2017-05-22T09:50:39Z</time>
      </trkpt>
      <trkpt lat="46.05222" lon="4.77061">
        <ele>201</ele>
        <time>2017-05-22T09:50:40Z</time>
      </trkpt>
      <trkpt lat="46.05218" lon="4.77055">
        <ele>201</ele>
        <time>2017-05-22T09:50:41Z</time>
      </trkpt>
      <trkpt lat="46.05215" lon="4.77047">
        <ele>201</ele>
        <time>2017-05-22T09:50:42Z</time>
      </trkpt>
      <trkpt lat="46.05212" lon="4.77039">
        <ele>200</ele>
        <time>2017-05-22T09:50:43Z</time>
      </trkpt>
      <trkpt lat="46.0521" lon="4.77031">
        <ele>200</ele>
        <time>2017-05-22T09:50:44Z</time>
      </trkpt>
      <trkpt lat="46.05207" lon="4.77023">
        <ele>200</ele>
        <time>2017-05-22T09:50:45Z</time>
      </trkpt>
      <trkpt lat="46.05204" lon="4.77014">
        <ele>200</ele>
        <time>2017-05-22T09:50:46Z</time>
      </trkpt>
      <trkpt lat="46.05201" lon="4.77006">
        <ele>200</ele>
        <time>2017-05-22T09:50:47Z</time>
      </trkpt>
      <trkpt lat="46.05195" lon="4.76997">
        <ele>198</ele>
        <time>2017-05-22T09:50:48Z</time>
      </trkpt>
      <trkpt lat="46.05191" lon="4.76989">
        <ele>198</ele>
        <time>2017-05-22T09:50:49Z</time>
      </trkpt>
      <trkpt lat="46.05188" lon="4.76979">
        <ele>198</ele>
        <time>2017-05-22T09:50:50Z</time>
      </trkpt>
      <trkpt lat="46.05185" lon="4.7697">
        <ele>198</ele>
        <time>2017-05-22T09:50:51Z</time>
      </trkpt>
      <trkpt lat="46.05181" lon="4.76962">
        <ele>198</ele>
        <time>2017-05-22T09:50:52Z</time>
      </trkpt>
      <trkpt lat="46.05176" lon="4.76954">
        <ele>197</ele>
        <time>2017-05-22T09:50:53Z</time>
      </trkpt>
      <trkpt lat="46.05172" lon="4.76946">
        <ele>197</ele>
        <time>2017-05-22T09:50:54Z</time>
      </trkpt>
      <trkpt lat="46.05167" lon="4.76938">
        <ele>197</ele>
        <time>2017-05-22T09:50:55Z</time>
      </trkpt>
      <trkpt lat="46.05163" lon="4.76929">
        <ele>196</ele>
        <time>2017-05-22T09:50:56Z</time>
      </trkpt>
      <trkpt lat="46.05158" lon="4.76921">
        <ele>196</ele>
        <time>2017-05-22T09:50:57Z</time>
      </trkpt>
      <trkpt lat="46.05154" lon="4.76912">
        <ele>195</ele>
        <time>2017-05-22T09:50:58Z</time>
      </trkpt>
      <trkpt lat="46.05149" lon="4.76904">
        <ele>195</ele>
        <time>2017-05-22T09:50:59Z</time>
      </trkpt>
      <trkpt lat="46.05145" lon="4.76896">
        <ele>195</ele>
        <time>2017-05-22T09:51:00Z</time>
      </trkpt>
      <trkpt lat="46.05141" lon="4.76887">
        <ele>195</ele>
        <time>2017-05-22T09:51:01Z</time>
      </trkpt>
      <trkpt lat="46.05137" lon="4.76878">
        <ele>195</ele>
        <time>2017-05-22T09:51:02Z</time>
      </trkpt>
      <trkpt lat="46.05133" lon="4.7687">
        <ele>195</ele>
        <time>2017-05-22T09:51:03Z</time>
      </trkpt>
      <trkpt lat="46.0513" lon="4.76861">
        <ele>195</ele>
        <time>2017-05-22T09:51:04Z</time>
      </trkpt>
      <trkpt lat="46.05126" lon="4.76853">
        <ele>195</ele>
        <time>2017-05-22T09:51:05Z</time>
      </trkpt>
      <trkpt lat="46.05123" lon="4.76844">
        <ele>195</ele>
        <time>2017-05-22T09:51:06Z</time>
      </trkpt>
      <trkpt lat="46.0512" lon="4.76835">
        <ele>195</ele>
        <time>2017-05-22T09:51:07Z</time>
      </trkpt>
      <trkpt lat="46.05117" lon="4.76827">
        <ele>194</ele>
        <time>2017-05-22T09:51:08Z</time>
      </trkpt>
      <trkpt lat="46.05114" lon="4.76819">
        <ele>194</ele>
        <time>2017-05-22T09:51:09Z</time>
      </trkpt>
      <trkpt lat="46.05111" lon="4.7681">
        <ele>194</ele>
        <time>2017-05-22T09:51:10Z</time>
      </trkpt>
      <trkpt lat="46.05108" lon="4.76802">
        <ele>194</ele>
        <time>2017-05-22T09:51:11Z</time>
      </trkpt>
      <trkpt lat="46.05106" lon="4.76793">
        <ele>194</ele>
        <time>2017-05-22T09:51:12Z</time>
      </trkpt>
      <trkpt lat="46.05104" lon="4.76784">
        <ele>194</ele>
        <time>2017-05-22T09:51:13Z</time>
      </trkpt>
      <trkpt lat="46.05102" lon="4.76776">
        <ele>194</ele>
        <time>2017-05-22T09:51:14Z</time>
      </trkpt>
      <trkpt lat="46.051" lon="4.76766">
        <ele>194</ele>
        <time>2017-05-22T09:51:15Z</time>
      </trkpt>
      <trkpt lat="46.05098" lon="4.76757">
        <ele>194</ele>
        <time>2017-05-22T09:51:16Z</time>
      </trkpt>
      <trkpt lat="46.05096" lon="4.76749">
        <ele>193</ele>
        <time>2017-05-22T09:51:17Z</time>
      </trkpt>
      <trkpt lat="46.05095" lon="4.7674">
        <ele>193</ele>
        <time>2017-05-22T09:51:18Z</time>
      </trkpt>
      <trkpt lat="46.05096" lon="4.76729">
        <ele>193</ele>
        <time>2017-05-22T09:51:19Z</time>
      </trkpt>
      <trkpt lat="46.05094" lon="4.7672">
        <ele>193</ele>
        <time>2017-05-22T09:51:20Z</time>
      </trkpt>
      <trkpt lat="46.05094" lon="4.76709">
        <ele>193</ele>
        <time>2017-05-22T09:51:21Z</time>
      </trkpt>
      <trkpt lat="46.05095" lon="4.76699">
        <ele>193</ele>
        <time>2017-05-22T09:51:22Z</time>
      </trkpt>
      <trkpt lat="46.05093" lon="4.7669">
        <ele>193</ele>
        <time>2017-05-22T09:51:23Z</time>
      </trkpt>
      <trkpt lat="46.05092" lon="4.76682">
        <ele>193</ele>
        <time>2017-05-22T09:51:24Z</time>
      </trkpt>
      <trkpt lat="46.0509" lon="4.76674">
        <ele>193</ele>
        <time>2017-05-22T09:51:25Z</time>
      </trkpt>
      <trkpt lat="46.05089" lon="4.76667">
        <ele>192</ele>
        <time>2017-05-22T09:51:26Z</time>
      </trkpt>
      <trkpt lat="46.05088" lon="4.76659">
        <ele>192</ele>
        <time>2017-05-22T09:51:27Z</time>
      </trkpt>
      <trkpt lat="46.05086" lon="4.76653">
        <ele>192</ele>
        <time>2017-05-22T09:51:28Z</time>
      </trkpt>
      <trkpt lat="46.05085" lon="4.76646">
        <ele>191</ele>
        <time>2017-05-22T09:51:29Z</time>
      </trkpt>
      <trkpt lat="46.05082" lon="4.76635">
        <ele>192</ele>
        <time>2017-05-22T09:51:31Z</time>
      </trkpt>
      <trkpt lat="46.05082" lon="4.76631">
        <ele>192</ele>
        <time>2017-05-22T09:51:32Z</time>
      </trkpt>
      <trkpt lat="46.05082" lon="4.76626">
        <ele>192</ele>
        <time>2017-05-22T09:51:34Z</time>
      </trkpt>
      <trkpt lat="46.05082" lon="4.76625">
        <ele>192</ele>
        <time>2017-05-22T09:51:35Z</time>
      </trkpt>
      <trkpt lat="46.05077" lon="4.76615">
        <ele>191</ele>
        <time>2017-05-22T09:51:44Z</time>
      </trkpt>
      <trkpt lat="46.05075" lon="4.76612">
        <ele>191</ele>
        <time>2017-05-22T09:51:45Z</time>
      </trkpt>
      <trkpt lat="46.0507" lon="4.76606">
        <ele>191</ele>
        <time>2017-05-22T09:51:47Z</time>
      </trkpt>
      <trkpt lat="46.05066" lon="4.76603">
        <ele>191</ele>
        <time>2017-05-22T09:51:48Z</time>
      </trkpt>
      <trkpt lat="46.05062" lon="4.766">
        <ele>191</ele>
        <time>2017-05-22T09:51:49Z</time>
      </trkpt>
      <trkpt lat="46.05057" lon="4.76596">
        <ele>191</ele>
        <time>2017-05-22T09:51:50Z</time>
      </trkpt>
      <trkpt lat="46.05053" lon="4.76593">
        <ele>191</ele>
        <time>2017-05-22T09:51:51Z</time>
      </trkpt>
      <trkpt lat="46.05048" lon="4.76589">
        <ele>191</ele>
        <time>2017-05-22T09:51:52Z</time>
      </trkpt>
      <trkpt lat="46.05041" lon="4.76582">
        <ele>190</ele>
        <time>2017-05-22T09:51:54Z</time>
      </trkpt>
      <trkpt lat="46.05037" lon="4.76579">
        <ele>190</ele>
        <time>2017-05-22T09:51:55Z</time>
      </trkpt>
      <trkpt lat="46.0503" lon="4.76573">
        <ele>190</ele>
        <time>2017-05-22T09:51:57Z</time>
      </trkpt>
      <trkpt lat="46.05027" lon="4.76571">
        <ele>190</ele>
        <time>2017-05-22T09:51:58Z</time>
      </trkpt>
      <trkpt lat="46.05019" lon="4.76567">
        <ele>190</ele>
        <time>2017-05-22T09:52:00Z</time>
      </trkpt>
      <trkpt lat="46.05016" lon="4.76564">
        <ele>190</ele>
        <time>2017-05-22T09:52:01Z</time>
      </trkpt>
      <trkpt lat="46.05011" lon="4.76555">
        <ele>190</ele>
        <time>2017-05-22T09:52:03Z</time>
      </trkpt>
      <trkpt lat="46.05009" lon="4.76549">
        <ele>190</ele>
        <time>2017-05-22T09:52:04Z</time>
      </trkpt>
      <trkpt lat="46.05006" lon="4.76544">
        <ele>190</ele>
        <time>2017-05-22T09:52:05Z</time>
      </trkpt>
      <trkpt lat="46.05003" lon="4.76539">
        <ele>190</ele>
        <time>2017-05-22T09:52:06Z</time>
      </trkpt>
      <trkpt lat="46.04998" lon="4.76529">
        <ele>191</ele>
        <time>2017-05-22T09:52:08Z</time>
      </trkpt>
      <trkpt lat="46.04996" lon="4.76524">
        <ele>191</ele>
        <time>2017-05-22T09:52:09Z</time>
      </trkpt>
      <trkpt lat="46.04994" lon="4.76513">
        <ele>191</ele>
        <time>2017-05-22T09:52:11Z</time>
      </trkpt>
      <trkpt lat="46.04992" lon="4.76507">
        <ele>191</ele>
        <time>2017-05-22T09:52:12Z</time>
      </trkpt>
      <trkpt lat="46.04988" lon="4.76496">
        <ele>190</ele>
        <time>2017-05-22T09:52:14Z</time>
      </trkpt>
      <trkpt lat="46.04985" lon="4.76491">
        <ele>190</ele>
        <time>2017-05-22T09:52:15Z</time>
      </trkpt>
      <trkpt lat="46.04979" lon="4.76481">
        <ele>191</ele>
        <time>2017-05-22T09:52:17Z</time>
      </trkpt>
      <trkpt lat="46.04977" lon="4.76476">
        <ele>191</ele>
        <time>2017-05-22T09:52:18Z</time>
      </trkpt>
      <trkpt lat="46.04973" lon="4.76465">
        <ele>191</ele>
        <time>2017-05-22T09:52:20Z</time>
      </trkpt>
      <trkpt lat="46.04971" lon="4.7646">
        <ele>190</ele>
        <time>2017-05-22T09:52:21Z</time>
      </trkpt>
      <trkpt lat="46.04969" lon="4.76454">
        <ele>190</ele>
        <time>2017-05-22T09:52:22Z</time>
      </trkpt>
      <trkpt lat="46.04967" lon="4.76448">
        <ele>190</ele>
        <time>2017-05-22T09:52:23Z</time>
      </trkpt>
      <trkpt lat="46.04961" lon="4.76439">
        <ele>191</ele>
        <time>2017-05-22T09:52:25Z</time>
      </trkpt>
      <trkpt lat="46.04957" lon="4.76436">
        <ele>191</ele>
        <time>2017-05-22T09:52:26Z</time>
      </trkpt>
      <trkpt lat="46.0495" lon="4.76431">
        <ele>191</ele>
        <time>2017-05-22T09:52:28Z</time>
      </trkpt>
      <trkpt lat="46.04947" lon="4.76429">
        <ele>191</ele>
        <time>2017-05-22T09:52:29Z</time>
      </trkpt>
      <trkpt lat="46.04943" lon="4.76429">
        <ele>191</ele>
        <time>2017-05-22T09:52:30Z</time>
      </trkpt>
      <trkpt lat="46.04938" lon="4.7643">
        <ele>191</ele>
        <time>2017-05-22T09:52:31Z</time>
      </trkpt>
      <trkpt lat="46.04929" lon="4.76432">
        <ele>191</ele>
        <time>2017-05-22T09:52:33Z</time>
      </trkpt>
      <trkpt lat="46.04925" lon="4.76434">
        <ele>191</ele>
        <time>2017-05-22T09:52:34Z</time>
      </trkpt>
      <trkpt lat="46.04917" lon="4.76438">
        <ele>193</ele>
        <time>2017-05-22T09:52:36Z</time>
      </trkpt>
      <trkpt lat="46.04912" lon="4.7644">
        <ele>193</ele>
        <time>2017-05-22T09:52:37Z</time>
      </trkpt>
      <trkpt lat="46.04908" lon="4.76442">
        <ele>193</ele>
        <time>2017-05-22T09:52:38Z</time>
      </trkpt>
      <trkpt lat="46.04902" lon="4.76443">
        <ele>193</ele>
        <time>2017-05-22T09:52:39Z</time>
      </trkpt>
      <trkpt lat="46.04897" lon="4.76445">
        <ele>193</ele>
        <time>2017-05-22T09:52:40Z</time>
      </trkpt>
      <trkpt lat="46.04891" lon="4.76446">
        <ele>193</ele>
        <time>2017-05-22T09:52:41Z</time>
      </trkpt>
      <trkpt lat="46.04886" lon="4.76448">
        <ele>193</ele>
        <time>2017-05-22T09:52:42Z</time>
      </trkpt>
      <trkpt lat="46.04881" lon="4.76447">
        <ele>193</ele>
        <time>2017-05-22T09:52:43Z</time>
      </trkpt>
      <trkpt lat="46.04876" lon="4.76447">
        <ele>193</ele>
        <time>2017-05-22T09:52:44Z</time>
      </trkpt>
      <trkpt lat="46.04871" lon="4.76447">
        <ele>193</ele>
        <time>2017-05-22T09:52:45Z</time>
      </trkpt>
      <trkpt lat="46.04866" lon="4.76448">
        <ele>193</ele>
        <time>2017-05-22T09:52:46Z</time>
      </trkpt>
      <trkpt lat="46.04861" lon="4.76447">
        <ele>193</ele>
        <time>2017-05-22T09:52:47Z</time>
      </trkpt>
      <trkpt lat="46.04856" lon="4.76447">
        <ele>193</ele>
        <time>2017-05-22T09:52:48Z</time>
      </trkpt>
      <trkpt lat="46.04852" lon="4.76447">
        <ele>193</ele>
        <time>2017-05-22T09:52:49Z</time>
      </trkpt>
      <trkpt lat="46.04846" lon="4.76447">
        <ele>193</ele>
        <time>2017-05-22T09:52:50Z</time>
      </trkpt>
      <trkpt lat="46.04842" lon="4.76446">
        <ele>194</ele>
        <time>2017-05-22T09:52:51Z</time>
      </trkpt>
      <trkpt lat="46.04836" lon="4.76445">
        <ele>194</ele>
        <time>2017-05-22T09:52:52Z</time>
      </trkpt>
      <trkpt lat="46.0483" lon="4.76444">
        <ele>193</ele>
        <time>2017-05-22T09:52:53Z</time>
      </trkpt>
      <trkpt lat="46.04822" lon="4.76444">
        <ele>193</ele>
        <time>2017-05-22T09:52:55Z</time>
      </trkpt>
      <trkpt lat="46.04817" lon="4.76443">
        <ele>193</ele>
        <time>2017-05-22T09:52:56Z</time>
      </trkpt>
      <trkpt lat="46.04812" lon="4.76442">
        <ele>193</ele>
        <time>2017-05-22T09:52:57Z</time>
      </trkpt>
      <trkpt lat="46.04808" lon="4.76442">
        <ele>193</ele>
        <time>2017-05-22T09:52:58Z</time>
      </trkpt>
      <trkpt lat="46.04803" lon="4.7644">
        <ele>193</ele>
        <time>2017-05-22T09:52:59Z</time>
      </trkpt>
      <trkpt lat="46.04798" lon="4.76439">
        <ele>193</ele>
        <time>2017-05-22T09:53:00Z</time>
      </trkpt>
      <trkpt lat="46.04792" lon="4.76439">
        <ele>193</ele>
        <time>2017-05-22T09:53:01Z</time>
      </trkpt>
      <trkpt lat="46.04787" lon="4.76441">
        <ele>192</ele>
        <time>2017-05-22T09:53:02Z</time>
      </trkpt>
      <trkpt lat="46.04782" lon="4.76444">
        <ele>192</ele>
        <time>2017-05-22T09:53:03Z</time>
      </trkpt>
      <trkpt lat="46.04777" lon="4.76446">
        <ele>192</ele>
        <time>2017-05-22T09:53:04Z</time>
      </trkpt>
      <trkpt lat="46.04773" lon="4.76449">
        <ele>192</ele>
        <time>2017-05-22T09:53:05Z</time>
      </trkpt>
      <trkpt lat="46.04768" lon="4.76452">
        <ele>192</ele>
        <time>2017-05-22T09:53:06Z</time>
      </trkpt>
      <trkpt lat="46.04763" lon="4.76457">
        <ele>192</ele>
        <time>2017-05-22T09:53:07Z</time>
      </trkpt>
      <trkpt lat="46.04758" lon="4.76459">
        <ele>192</ele>
        <time>2017-05-22T09:53:08Z</time>
      </trkpt>
      <trkpt lat="46.04754" lon="4.76462">
        <ele>192</ele>
        <time>2017-05-22T09:53:09Z</time>
      </trkpt>
      <trkpt lat="46.04748" lon="4.76464">
        <ele>190</ele>
        <time>2017-05-22T09:53:10Z</time>
      </trkpt>
      <trkpt lat="46.04743" lon="4.76467">
        <ele>190</ele>
        <time>2017-05-22T09:53:11Z</time>
      </trkpt>
      <trkpt lat="46.04737" lon="4.7647">
        <ele>189</ele>
        <time>2017-05-22T09:53:12Z</time>
      </trkpt>
      <trkpt lat="46.04731" lon="4.76473">
        <ele>189</ele>
        <time>2017-05-22T09:53:13Z</time>
      </trkpt>
      <trkpt lat="46.04725" lon="4.76475">
        <ele>189</ele>
        <time>2017-05-22T09:53:14Z</time>
      </trkpt>
      <trkpt lat="46.0472" lon="4.76477">
        <ele>189</ele>
        <time>2017-05-22T09:53:15Z</time>
      </trkpt>
      <trkpt lat="46.04714" lon="4.76479">
        <ele>189</ele>
        <time>2017-05-22T09:53:16Z</time>
      </trkpt>
      <trkpt lat="46.04708" lon="4.76481">
        <ele>189</ele>
        <time>2017-05-22T09:53:17Z</time>
      </trkpt>
      <trkpt lat="46.04703" lon="4.76482">
        <ele>188</ele>
        <time>2017-05-22T09:53:18Z</time>
      </trkpt>
      <trkpt lat="46.04699" lon="4.76485">
        <ele>188</ele>
        <time>2017-05-22T09:53:19Z</time>
      </trkpt>
      <trkpt lat="46.04694" lon="4.76488">
        <ele>188</ele>
        <time>2017-05-22T09:53:20Z</time>
      </trkpt>
      <trkpt lat="46.04686" lon="4.7649">
        <ele>188</ele>
        <time>2017-05-22T09:53:22Z</time>
      </trkpt>
      <trkpt lat="46.04681" lon="4.7649">
        <ele>187</ele>
        <time>2017-05-22T09:53:23Z</time>
      </trkpt>
      <trkpt lat="46.04675" lon="4.76495">
        <ele>187</ele>
        <time>2017-05-22T09:53:25Z</time>
      </trkpt>
      <trkpt lat="46.04673" lon="4.76499">
        <ele>187</ele>
        <time>2017-05-22T09:53:26Z</time>
      </trkpt>
      <trkpt lat="46.04667" lon="4.76506">
        <ele>186</ele>
        <time>2017-05-22T09:53:28Z</time>
      </trkpt>
      <trkpt lat="46.04662" lon="4.76507">
        <ele>186</ele>
        <time>2017-05-22T09:53:29Z</time>
      </trkpt>
      <trkpt lat="46.04657" lon="4.76506">
        <ele>186</ele>
        <time>2017-05-22T09:53:30Z</time>
      </trkpt>
      <trkpt lat="46.04652" lon="4.76507">
        <ele>186</ele>
        <time>2017-05-22T09:53:31Z</time>
      </trkpt>
      <trkpt lat="46.04647" lon="4.76508">
        <ele>186</ele>
        <time>2017-05-22T09:53:32Z</time>
      </trkpt>
      <trkpt lat="46.04642" lon="4.76509">
        <ele>186</ele>
        <time>2017-05-22T09:53:33Z</time>
      </trkpt>
      <trkpt lat="46.04636" lon="4.76511">
        <ele>186</ele>
        <time>2017-05-22T09:53:34Z</time>
      </trkpt>
      <trkpt lat="46.04632" lon="4.76513">
        <ele>186</ele>
        <time>2017-05-22T09:53:35Z</time>
      </trkpt>
      <trkpt lat="46.04627" lon="4.76514">
        <ele>186</ele>
        <time>2017-05-22T09:53:36Z</time>
      </trkpt>
      <trkpt lat="46.04623" lon="4.76516">
        <ele>186</ele>
        <time>2017-05-22T09:53:37Z</time>
      </trkpt>
      <trkpt lat="46.04618" lon="4.76518">
        <ele>186</ele>
        <time>2017-05-22T09:53:38Z</time>
      </trkpt>
      <trkpt lat="46.04614" lon="4.7652">
        <ele>186</ele>
        <time>2017-05-22T09:53:39Z</time>
      </trkpt>
      <trkpt lat="46.04605" lon="4.76524">
        <ele>186</ele>
        <time>2017-05-22T09:53:41Z</time>
      </trkpt>
      <trkpt lat="46.04601" lon="4.76524">
        <ele>186</ele>
        <time>2017-05-22T09:53:42Z</time>
      </trkpt>
      <trkpt lat="46.04597" lon="4.76526">
        <ele>186</ele>
        <time>2017-05-22T09:53:43Z</time>
      </trkpt>
      <trkpt lat="46.04592" lon="4.76528">
        <ele>186</ele>
        <time>2017-05-22T09:53:44Z</time>
      </trkpt>
      <trkpt lat="46.04586" lon="4.7653">
        <ele>186</ele>
        <time>2017-05-22T09:53:45Z</time>
      </trkpt>
      <trkpt lat="46.04582" lon="4.76532">
        <ele>187</ele>
        <time>2017-05-22T09:53:46Z</time>
      </trkpt>
      <trkpt lat="46.04577" lon="4.76535">
        <ele>187</ele>
        <time>2017-05-22T09:53:47Z</time>
      </trkpt>
      <trkpt lat="46.04572" lon="4.76537">
        <ele>187</ele>
        <time>2017-05-22T09:53:48Z</time>
      </trkpt>
      <trkpt lat="46.04568" lon="4.7654">
        <ele>187</ele>
        <time>2017-05-22T09:53:49Z</time>
      </trkpt>
      <trkpt lat="46.04563" lon="4.76543">
        <ele>187</ele>
        <time>2017-05-22T09:53:50Z</time>
      </trkpt>
      <trkpt lat="46.04559" lon="4.76545">
        <ele>188</ele>
        <time>2017-05-22T09:53:51Z</time>
      </trkpt>
      <trkpt lat="46.04554" lon="4.76548">
        <ele>188</ele>
        <time>2017-05-22T09:53:52Z</time>
      </trkpt>
      <trkpt lat="46.04549" lon="4.76549">
        <ele>188</ele>
        <time>2017-05-22T09:53:53Z</time>
      </trkpt>
      <trkpt lat="46.04544" lon="4.7655">
        <ele>188</ele>
        <time>2017-05-22T09:53:54Z</time>
      </trkpt>
      <trkpt lat="46.04536" lon="4.76551">
        <ele>188</ele>
        <time>2017-05-22T09:53:56Z</time>
      </trkpt>
      <trkpt lat="46.04533" lon="4.76553">
        <ele>188</ele>
        <time>2017-05-22T09:53:57Z</time>
      </trkpt>
      <trkpt lat="46.04526" lon="4.76556">
        <ele>189</ele>
        <time>2017-05-22T09:53:59Z</time>
      </trkpt>
      <trkpt lat="46.04521" lon="4.76558">
        <ele>189</ele>
        <time>2017-05-22T09:54:00Z</time>
      </trkpt>
      <trkpt lat="46.04513" lon="4.76561">
        <ele>189</ele>
        <time>2017-05-22T09:54:02Z</time>
      </trkpt>
      <trkpt lat="46.04509" lon="4.76562">
        <ele>189</ele>
        <time>2017-05-22T09:54:03Z</time>
      </trkpt>
      <trkpt lat="46.04501" lon="4.76562">
        <ele>189</ele>
        <time>2017-05-22T09:54:05Z</time>
      </trkpt>
      <trkpt lat="46.04497" lon="4.76563">
        <ele>192</ele>
        <time>2017-05-22T09:54:06Z</time>
      </trkpt>
      <trkpt lat="46.0449" lon="4.76565">
        <ele>192</ele>
        <time>2017-05-22T09:54:08Z</time>
      </trkpt>
      <trkpt lat="46.04487" lon="4.76565">
        <ele>193</ele>
        <time>2017-05-22T09:54:09Z</time>
      </trkpt>
      <trkpt lat="46.04479" lon="4.76565">
        <ele>193</ele>
        <time>2017-05-22T09:54:11Z</time>
      </trkpt>
      <trkpt lat="46.04474" lon="4.76565">
        <ele>193</ele>
        <time>2017-05-22T09:54:12Z</time>
      </trkpt>
      <trkpt lat="46.04466" lon="4.76565">
        <ele>193</ele>
        <time>2017-05-22T09:54:14Z</time>
      </trkpt>
      <trkpt lat="46.04461" lon="4.76565">
        <ele>194</ele>
        <time>2017-05-22T09:54:15Z</time>
      </trkpt>
      <trkpt lat="46.04456" lon="4.76566">
        <ele>194</ele>
        <time>2017-05-22T09:54:16Z</time>
      </trkpt>
      <trkpt lat="46.04451" lon="4.76566">
        <ele>194</ele>
        <time>2017-05-22T09:54:17Z</time>
      </trkpt>
      <trkpt lat="46.04447" lon="4.76567">
        <ele>195</ele>
        <time>2017-05-22T09:54:18Z</time>
      </trkpt>
      <trkpt lat="46.04442" lon="4.76567">
        <ele>195</ele>
        <time>2017-05-22T09:54:19Z</time>
      </trkpt>
      <trkpt lat="46.04434" lon="4.76568">
        <ele>196</ele>
        <time>2017-05-22T09:54:21Z</time>
      </trkpt>
      <trkpt lat="46.0443" lon="4.76568">
        <ele>196</ele>
        <time>2017-05-22T09:54:22Z</time>
      </trkpt>
      <trkpt lat="46.04423" lon="4.7657">
        <ele>196</ele>
        <time>2017-05-22T09:54:24Z</time>
      </trkpt>
      <trkpt lat="46.04418" lon="4.76571">
        <ele>197</ele>
        <time>2017-05-22T09:54:25Z</time>
      </trkpt>
      <trkpt lat="46.04414" lon="4.76572">
        <ele>198</ele>
        <time>2017-05-22T09:54:26Z</time>
      </trkpt>
      <trkpt lat="46.04409" lon="4.76573">
        <ele>198</ele>
        <time>2017-05-22T09:54:27Z</time>
      </trkpt>
      <trkpt lat="46.04401" lon="4.76574">
        <ele>198</ele>
        <time>2017-05-22T09:54:29Z</time>
      </trkpt>
      <trkpt lat="46.04397" lon="4.76575">
        <ele>198</ele>
        <time>2017-05-22T09:54:30Z</time>
      </trkpt>
      <trkpt lat="46.04389" lon="4.76577">
        <ele>197</ele>
        <time>2017-05-22T09:54:32Z</time>
      </trkpt>
      <trkpt lat="46.04384" lon="4.76577">
        <ele>197</ele>
        <time>2017-05-22T09:54:33Z</time>
      </trkpt>
      <trkpt lat="46.04379" lon="4.76576">
        <ele>197</ele>
        <time>2017-05-22T09:54:34Z</time>
      </trkpt>
      <trkpt lat="46.04374" lon="4.76576">
        <ele>197</ele>
        <time>2017-05-22T09:54:35Z</time>
      </trkpt>
      <trkpt lat="46.04365" lon="4.76575">
        <ele>197</ele>
        <time>2017-05-22T09:54:37Z</time>
      </trkpt>
      <trkpt lat="46.04361" lon="4.76575">
        <ele>197</ele>
        <time>2017-05-22T09:54:38Z</time>
      </trkpt>
      <trkpt lat="46.04353" lon="4.76577">
        <ele>198</ele>
        <time>2017-05-22T09:54:40Z</time>
      </trkpt>
      <trkpt lat="46.04349" lon="4.76577">
        <ele>198</ele>
        <time>2017-05-22T09:54:41Z</time>
      </trkpt>
      <trkpt lat="46.04344" lon="4.76576">
        <ele>198</ele>
        <time>2017-05-22T09:54:42Z</time>
      </trkpt>
      <trkpt lat="46.04338" lon="4.76576">
        <ele>198</ele>
        <time>2017-05-22T09:54:43Z</time>
      </trkpt>
      <trkpt lat="46.04333" lon="4.76577">
        <ele>198</ele>
        <time>2017-05-22T09:54:44Z</time>
      </trkpt>
      <trkpt lat="46.04328" lon="4.76578">
        <ele>198</ele>
        <time>2017-05-22T09:54:45Z</time>
      </trkpt>
      <trkpt lat="46.04323" lon="4.76579">
        <ele>198</ele>
        <time>2017-05-22T09:54:46Z</time>
      </trkpt>
      <trkpt lat="46.04318" lon="4.76581">
        <ele>198</ele>
        <time>2017-05-22T09:54:47Z</time>
      </trkpt>
      <trkpt lat="46.04312" lon="4.76581">
        <ele>197</ele>
        <time>2017-05-22T09:54:48Z</time>
      </trkpt>
      <trkpt lat="46.04307" lon="4.76581">
        <ele>197</ele>
        <time>2017-05-22T09:54:49Z</time>
      </trkpt>
      <trkpt lat="46.04298" lon="4.76582">
        <ele>197</ele>
        <time>2017-05-22T09:54:51Z</time>
      </trkpt>
      <trkpt lat="46.04294" lon="4.76582">
        <ele>197</ele>
        <time>2017-05-22T09:54:52Z</time>
      </trkpt>
      <trkpt lat="46.04288" lon="4.76582">
        <ele>197</ele>
        <time>2017-05-22T09:54:54Z</time>
      </trkpt>
      <trkpt lat="46.04285" lon="4.76582">
        <ele>197</ele>
        <time>2017-05-22T09:54:55Z</time>
      </trkpt>
      <trkpt lat="46.04278" lon="4.76583">
        <ele>197</ele>
        <time>2017-05-22T09:54:57Z</time>
      </trkpt>
      <trkpt lat="46.04274" lon="4.76583">
        <ele>197</ele>
        <time>2017-05-22T09:54:58Z</time>
      </trkpt>
      <trkpt lat="46.04265" lon="4.76583">
        <ele>197</ele>
        <time>2017-05-22T09:55:00Z</time>
      </trkpt>
      <trkpt lat="46.04259" lon="4.76583">
        <ele>197</ele>
        <time>2017-05-22T09:55:01Z</time>
      </trkpt>
      <trkpt lat="46.04254" lon="4.76583">
        <ele>197</ele>
        <time>2017-05-22T09:55:02Z</time>
      </trkpt>
      <trkpt lat="46.04248" lon="4.76584">
        <ele>197</ele>
        <time>2017-05-22T09:55:03Z</time>
      </trkpt>
      <trkpt lat="46.04243" lon="4.76584">
        <ele>197</ele>
        <time>2017-05-22T09:55:04Z</time>
      </trkpt>
      <trkpt lat="46.04237" lon="4.76584">
        <ele>197</ele>
        <time>2017-05-22T09:55:05Z</time>
      </trkpt>
      <trkpt lat="46.04231" lon="4.76584">
        <ele>198</ele>
        <time>2017-05-22T09:55:06Z</time>
      </trkpt>
      <trkpt lat="46.04225" lon="4.76585">
        <ele>198</ele>
        <time>2017-05-22T09:55:07Z</time>
      </trkpt>
      <trkpt lat="46.0422" lon="4.76586">
        <ele>198</ele>
        <time>2017-05-22T09:55:08Z</time>
      </trkpt>
      <trkpt lat="46.04215" lon="4.76587">
        <ele>198</ele>
        <time>2017-05-22T09:55:09Z</time>
      </trkpt>
      <trkpt lat="46.04206" lon="4.7659">
        <ele>198</ele>
        <time>2017-05-22T09:55:11Z</time>
      </trkpt>
      <trkpt lat="46.04203" lon="4.76592">
        <ele>198</ele>
        <time>2017-05-22T09:55:12Z</time>
      </trkpt>
      <trkpt lat="46.04197" lon="4.76595">
        <ele>198</ele>
        <time>2017-05-22T09:55:13Z</time>
      </trkpt>
      <trkpt lat="46.04193" lon="4.76598">
        <ele>198</ele>
        <time>2017-05-22T09:55:14Z</time>
      </trkpt>
      <trkpt lat="46.04188" lon="4.76601">
        <ele>198</ele>
        <time>2017-05-22T09:55:15Z</time>
      </trkpt>
      <trkpt lat="46.04184" lon="4.76605">
        <ele>198</ele>
        <time>2017-05-22T09:55:16Z</time>
      </trkpt>
      <trkpt lat="46.0418" lon="4.76609">
        <ele>198</ele>
        <time>2017-05-22T09:55:17Z</time>
      </trkpt>
      <trkpt lat="46.04175" lon="4.76613">
        <ele>198</ele>
        <time>2017-05-22T09:55:18Z</time>
      </trkpt>
      <trkpt lat="46.04171" lon="4.76617">
        <ele>198</ele>
        <time>2017-05-22T09:55:19Z</time>
      </trkpt>
      <trkpt lat="46.04167" lon="4.76621">
        <ele>198</ele>
        <time>2017-05-22T09:55:20Z</time>
      </trkpt>
      <trkpt lat="46.04163" lon="4.76625">
        <ele>199</ele>
        <time>2017-05-22T09:55:21Z</time>
      </trkpt>
      <trkpt lat="46.04159" lon="4.76628">
        <ele>200</ele>
        <time>2017-05-22T09:55:22Z</time>
      </trkpt>
      <trkpt lat="46.04151" lon="4.76634">
        <ele>200</ele>
        <time>2017-05-22T09:55:24Z</time>
      </trkpt>
      <trkpt lat="46.04148" lon="4.76636">
        <ele>200</ele>
        <time>2017-05-22T09:55:25Z</time>
      </trkpt>
      <trkpt lat="46.04141" lon="4.7664">
        <ele>200</ele>
        <time>2017-05-22T09:55:27Z</time>
      </trkpt>
      <trkpt lat="46.04137" lon="4.76643">
        <ele>200</ele>
        <time>2017-05-22T09:55:28Z</time>
      </trkpt>
      <trkpt lat="46.04132" lon="4.76645">
        <ele>200</ele>
        <time>2017-05-22T09:55:29Z</time>
      </trkpt>
      <trkpt lat="46.04128" lon="4.76647">
        <ele>200</ele>
        <time>2017-05-22T09:55:30Z</time>
      </trkpt>
      <trkpt lat="46.04123" lon="4.76649">
        <ele>200</ele>
        <time>2017-05-22T09:55:31Z</time>
      </trkpt>
      <trkpt lat="46.04118" lon="4.76652">
        <ele>200</ele>
        <time>2017-05-22T09:55:32Z</time>
      </trkpt>
      <trkpt lat="46.04114" lon="4.76653">
        <ele>200</ele>
        <time>2017-05-22T09:55:33Z</time>
      </trkpt>
      <trkpt lat="46.04108" lon="4.76654">
        <ele>200</ele>
        <time>2017-05-22T09:55:34Z</time>
      </trkpt>
      <trkpt lat="46.04103" lon="4.76655">
        <ele>201</ele>
        <time>2017-05-22T09:55:35Z</time>
      </trkpt>
      <trkpt lat="46.04099" lon="4.76656">
        <ele>201</ele>
        <time>2017-05-22T09:55:36Z</time>
      </trkpt>
      <trkpt lat="46.04091" lon="4.76658">
        <ele>201</ele>
        <time>2017-05-22T09:55:38Z</time>
      </trkpt>
      <trkpt lat="46.04087" lon="4.76659">
        <ele>201</ele>
        <time>2017-05-22T09:55:39Z</time>
      </trkpt>
      <trkpt lat="46.0408" lon="4.7666">
        <ele>202</ele>
        <time>2017-05-22T09:55:41Z</time>
      </trkpt>
      <trkpt lat="46.04077" lon="4.7666">
        <ele>202</ele>
        <time>2017-05-22T09:55:42Z</time>
      </trkpt>
      <trkpt lat="46.04069" lon="4.76664">
        <ele>201</ele>
        <time>2017-05-22T09:55:45Z</time>
      </trkpt>
      <trkpt lat="46.04065" lon="4.76665">
        <ele>201</ele>
        <time>2017-05-22T09:55:46Z</time>
      </trkpt>
      <trkpt lat="46.04057" lon="4.76667">
        <ele>201</ele>
        <time>2017-05-22T09:55:48Z</time>
      </trkpt>
      <trkpt lat="46.04052" lon="4.76667">
        <ele>202</ele>
        <time>2017-05-22T09:55:49Z</time>
      </trkpt>
      <trkpt lat="46.04048" lon="4.76668">
        <ele>202</ele>
        <time>2017-05-22T09:55:50Z</time>
      </trkpt>
      <trkpt lat="46.04043" lon="4.76668">
        <ele>202</ele>
        <time>2017-05-22T09:55:51Z</time>
      </trkpt>
      <trkpt lat="46.04037" lon="4.76669">
        <ele>202</ele>
        <time>2017-05-22T09:55:52Z</time>
      </trkpt>
      <trkpt lat="46.04032" lon="4.76671">
        <ele>202</ele>
        <time>2017-05-22T09:55:53Z</time>
      </trkpt>
      <trkpt lat="46.04027" lon="4.76671">
        <ele>202</ele>
        <time>2017-05-22T09:55:54Z</time>
      </trkpt>
      <trkpt lat="46.04021" lon="4.76671">
        <ele>202</ele>
        <time>2017-05-22T09:55:55Z</time>
      </trkpt>
      <trkpt lat="46.04016" lon="4.76672">
        <ele>202</ele>
        <time>2017-05-22T09:55:56Z</time>
      </trkpt>
      <trkpt lat="46.04011" lon="4.76673">
        <ele>202</ele>
        <time>2017-05-22T09:55:57Z</time>
      </trkpt>
      <trkpt lat="46.04007" lon="4.76673">
        <ele>202</ele>
        <time>2017-05-22T09:55:58Z</time>
      </trkpt>
      <trkpt lat="46.04002" lon="4.76674">
        <ele>202</ele>
        <time>2017-05-22T09:55:59Z</time>
      </trkpt>
      <trkpt lat="46.03993" lon="4.76676">
        <ele>203</ele>
        <time>2017-05-22T09:56:01Z</time>
      </trkpt>
      <trkpt lat="46.0399" lon="4.76677">
        <ele>203</ele>
        <time>2017-05-22T09:56:02Z</time>
      </trkpt>
      <trkpt lat="46.03981" lon="4.76678">
        <ele>203</ele>
        <time>2017-05-22T09:56:04Z</time>
      </trkpt>
      <trkpt lat="46.03977" lon="4.76679">
        <ele>203</ele>
        <time>2017-05-22T09:56:05Z</time>
      </trkpt>
      <trkpt lat="46.0397" lon="4.76681">
        <ele>203</ele>
        <time>2017-05-22T09:56:07Z</time>
      </trkpt>
      <trkpt lat="46.03965" lon="4.76682">
        <ele>203</ele>
        <time>2017-05-22T09:56:08Z</time>
      </trkpt>
      <trkpt lat="46.0396" lon="4.76683">
        <ele>204</ele>
        <time>2017-05-22T09:56:09Z</time>
      </trkpt>
      <trkpt lat="46.03955" lon="4.76683">
        <ele>204</ele>
        <time>2017-05-22T09:56:10Z</time>
      </trkpt>
      <trkpt lat="46.03949" lon="4.76684">
        <ele>204</ele>
        <time>2017-05-22T09:56:11Z</time>
      </trkpt>
      <trkpt lat="46.03943" lon="4.76686">
        <ele>204</ele>
        <time>2017-05-22T09:56:12Z</time>
      </trkpt>
      <trkpt lat="46.03937" lon="4.76687">
        <ele>204</ele>
        <time>2017-05-22T09:56:13Z</time>
      </trkpt>
      <trkpt lat="46.03931" lon="4.76688">
        <ele>204</ele>
        <time>2017-05-22T09:56:14Z</time>
      </trkpt>
      <trkpt lat="46.03926" lon="4.76689">
        <ele>204</ele>
        <time>2017-05-22T09:56:15Z</time>
      </trkpt>
      <trkpt lat="46.0392" lon="4.76691">
        <ele>204</ele>
        <time>2017-05-22T09:56:16Z</time>
      </trkpt>
      <trkpt lat="46.03915" lon="4.76692">
        <ele>205</ele>
        <time>2017-05-22T09:56:17Z</time>
      </trkpt>
      <trkpt lat="46.0391" lon="4.76693">
        <ele>205</ele>
        <time>2017-05-22T09:56:18Z</time>
      </trkpt>
      <trkpt lat="46.03901" lon="4.76696">
        <ele>205</ele>
        <time>2017-05-22T09:56:20Z</time>
      </trkpt>
      <trkpt lat="46.03898" lon="4.76697">
        <ele>205</ele>
        <time>2017-05-22T09:56:21Z</time>
      </trkpt>
      <trkpt lat="46.0389" lon="4.767">
        <ele>205</ele>
        <time>2017-05-22T09:56:23Z</time>
      </trkpt>
      <trkpt lat="46.03886" lon="4.76701">
        <ele>205</ele>
        <time>2017-05-22T09:56:24Z</time>
      </trkpt>
      <trkpt lat="46.03881" lon="4.76702">
        <ele>205</ele>
        <time>2017-05-22T09:56:25Z</time>
      </trkpt>
      <trkpt lat="46.03876" lon="4.76704">
        <ele>205</ele>
        <time>2017-05-22T09:56:26Z</time>
      </trkpt>
      <trkpt lat="46.03871" lon="4.76705">
        <ele>205</ele>
        <time>2017-05-22T09:56:27Z</time>
      </trkpt>
      <trkpt lat="46.03866" lon="4.76706">
        <ele>205</ele>
        <time>2017-05-22T09:56:28Z</time>
      </trkpt>
      <trkpt lat="46.03861" lon="4.76708">
        <ele>205</ele>
        <time>2017-05-22T09:56:29Z</time>
      </trkpt>
      <trkpt lat="46.03855" lon="4.76708">
        <ele>205</ele>
        <time>2017-05-22T09:56:30Z</time>
      </trkpt>
      <trkpt lat="46.0385" lon="4.7671">
        <ele>205</ele>
        <time>2017-05-22T09:56:31Z</time>
      </trkpt>
      <trkpt lat="46.03844" lon="4.76712">
        <ele>205</ele>
        <time>2017-05-22T09:56:32Z</time>
      </trkpt>
      <trkpt lat="46.03838" lon="4.76712">
        <ele>205</ele>
        <time>2017-05-22T09:56:33Z</time>
      </trkpt>
      <trkpt lat="46.03832" lon="4.76712">
        <ele>205</ele>
        <time>2017-05-22T09:56:34Z</time>
      </trkpt>
      <trkpt lat="46.03826" lon="4.76712">
        <ele>205</ele>
        <time>2017-05-22T09:56:35Z</time>
      </trkpt>
      <trkpt lat="46.03821" lon="4.76713">
        <ele>205</ele>
        <time>2017-05-22T09:56:36Z</time>
      </trkpt>
      <trkpt lat="46.03816" lon="4.76713">
        <ele>205</ele>
        <time>2017-05-22T09:56:37Z</time>
      </trkpt>
      <trkpt lat="46.03811" lon="4.76714">
        <ele>205</ele>
        <time>2017-05-22T09:56:38Z</time>
      </trkpt>
      <trkpt lat="46.03806" lon="4.76713">
        <ele>205</ele>
        <time>2017-05-22T09:56:39Z</time>
      </trkpt>
      <trkpt lat="46.03801" lon="4.76714">
        <ele>205</ele>
        <time>2017-05-22T09:56:40Z</time>
      </trkpt>
      <trkpt lat="46.03796" lon="4.76714">
        <ele>205</ele>
        <time>2017-05-22T09:56:41Z</time>
      </trkpt>
      <trkpt lat="46.03791" lon="4.76715">
        <ele>205</ele>
        <time>2017-05-22T09:56:42Z</time>
      </trkpt>
      <trkpt lat="46.03787" lon="4.76715">
        <ele>205</ele>
        <time>2017-05-22T09:56:43Z</time>
      </trkpt>
      <trkpt lat="46.03782" lon="4.76715">
        <ele>205</ele>
        <time>2017-05-22T09:56:44Z</time>
      </trkpt>
      <trkpt lat="46.03773" lon="4.76715">
        <ele>205</ele>
        <time>2017-05-22T09:56:46Z</time>
      </trkpt>
      <trkpt lat="46.03768" lon="4.76715">
        <ele>205</ele>
        <time>2017-05-22T09:56:47Z</time>
      </trkpt>
      <trkpt lat="46.03764" lon="4.76712">
        <ele>205</ele>
        <time>2017-05-22T09:56:48Z</time>
      </trkpt>
      <trkpt lat="46.0376" lon="4.76708">
        <ele>205</ele>
        <time>2017-05-22T09:56:49Z</time>
      </trkpt>
      <trkpt lat="46.03755" lon="4.76706">
        <ele>205</ele>
        <time>2017-05-22T09:56:50Z</time>
      </trkpt>
      <trkpt lat="46.03751" lon="4.76704">
        <ele>205</ele>
        <time>2017-05-22T09:56:51Z</time>
      </trkpt>
      <trkpt lat="46.03746" lon="4.76703">
        <ele>205</ele>
        <time>2017-05-22T09:56:52Z</time>
      </trkpt>
      <trkpt lat="46.0374" lon="4.76702">
        <ele>205</ele>
        <time>2017-05-22T09:56:53Z</time>
      </trkpt>
      <trkpt lat="46.03736" lon="4.767">
        <ele>205</ele>
        <time>2017-05-22T09:56:54Z</time>
      </trkpt>
      <trkpt lat="46.03731" lon="4.76698">
        <ele>205</ele>
        <time>2017-05-22T09:56:55Z</time>
      </trkpt>
      <trkpt lat="46.03727" lon="4.76695">
        <ele>205</ele>
        <time>2017-05-22T09:56:56Z</time>
      </trkpt>
      <trkpt lat="46.03722" lon="4.76691">
        <ele>205</ele>
        <time>2017-05-22T09:56:57Z</time>
      </trkpt>
      <trkpt lat="46.03716" lon="4.76689">
        <ele>205</ele>
        <time>2017-05-22T09:56:58Z</time>
      </trkpt>
      <trkpt lat="46.03711" lon="4.76686">
        <ele>205</ele>
        <time>2017-05-22T09:56:59Z</time>
      </trkpt>
      <trkpt lat="46.03706" lon="4.76682">
        <ele>205</ele>
        <time>2017-05-22T09:57:00Z</time>
      </trkpt>
      <trkpt lat="46.03701" lon="4.76677">
        <ele>205</ele>
        <time>2017-05-22T09:57:01Z</time>
      </trkpt>
      <trkpt lat="46.03697" lon="4.76672">
        <ele>205</ele>
        <time>2017-05-22T09:57:02Z</time>
      </trkpt>
      <trkpt lat="46.03693" lon="4.76667">
        <ele>205</ele>
        <time>2017-05-22T09:57:03Z</time>
      </trkpt>
      <trkpt lat="46.03691" lon="4.76661">
        <ele>204</ele>
        <time>2017-05-22T09:57:04Z</time>
      </trkpt>
      <trkpt lat="46.03687" lon="4.76651">
        <ele>204</ele>
        <time>2017-05-22T09:57:05Z</time>
      </trkpt>
      <trkpt lat="46.03687" lon="4.76643">
        <ele>204</ele>
        <time>2017-05-22T09:57:06Z</time>
      </trkpt>
      <trkpt lat="46.03686" lon="4.76635">
        <ele>204</ele>
        <time>2017-05-22T09:57:07Z</time>
      </trkpt>
      <trkpt lat="46.03686" lon="4.76627">
        <ele>203</ele>
        <time>2017-05-22T09:57:08Z</time>
      </trkpt>
      <trkpt lat="46.03684" lon="4.76618">
        <ele>203</ele>
        <time>2017-05-22T09:57:09Z</time>
      </trkpt>
      <trkpt lat="46.03683" lon="4.76609">
        <ele>203</ele>
        <time>2017-05-22T09:57:10Z</time>
      </trkpt>
      <trkpt lat="46.03681" lon="4.76601">
        <ele>203</ele>
        <time>2017-05-22T09:57:11Z</time>
      </trkpt>
      <trkpt lat="46.03679" lon="4.76593">
        <ele>203</ele>
        <time>2017-05-22T09:57:12Z</time>
      </trkpt>
      <trkpt lat="46.03675" lon="4.76586">
        <ele>202</ele>
        <time>2017-05-22T09:57:13Z</time>
      </trkpt>
      <trkpt lat="46.03671" lon="4.7658">
        <ele>202</ele>
        <time>2017-05-22T09:57:14Z</time>
      </trkpt>
      <trkpt lat="46.03666" lon="4.76574">
        <ele>201</ele>
        <time>2017-05-22T09:57:15Z</time>
      </trkpt>
      <trkpt lat="46.03661" lon="4.76567">
        <ele>201</ele>
        <time>2017-05-22T09:57:16Z</time>
      </trkpt>
      <trkpt lat="46.03657" lon="4.76561">
        <ele>201</ele>
        <time>2017-05-22T09:57:17Z</time>
      </trkpt>
      <trkpt lat="46.03653" lon="4.76554">
        <ele>201</ele>
        <time>2017-05-22T09:57:18Z</time>
      </trkpt>
      <trkpt lat="46.03649" lon="4.76546">
        <ele>200</ele>
        <time>2017-05-22T09:57:19Z</time>
      </trkpt>
      <trkpt lat="46.03646" lon="4.76538">
        <ele>200</ele>
        <time>2017-05-22T09:57:20Z</time>
      </trkpt>
      <trkpt lat="46.03643" lon="4.76529">
        <ele>200</ele>
        <time>2017-05-22T09:57:21Z</time>
      </trkpt>
      <trkpt lat="46.0364" lon="4.7652">
        <ele>200</ele>
        <time>2017-05-22T09:57:22Z</time>
      </trkpt>
      <trkpt lat="46.03637" lon="4.76511">
        <ele>200</ele>
        <time>2017-05-22T09:57:23Z</time>
      </trkpt>
      <trkpt lat="46.03633" lon="4.76502">
        <ele>200</ele>
        <time>2017-05-22T09:57:24Z</time>
      </trkpt>
      <trkpt lat="46.0363" lon="4.76494">
        <ele>199</ele>
        <time>2017-05-22T09:57:25Z</time>
      </trkpt>
      <trkpt lat="46.03626" lon="4.76487">
        <ele>199</ele>
        <time>2017-05-22T09:57:26Z</time>
      </trkpt>
      <trkpt lat="46.03622" lon="4.76481">
        <ele>199</ele>
        <time>2017-05-22T09:57:27Z</time>
      </trkpt>
      <trkpt lat="46.03618" lon="4.76473">
        <ele>199</ele>
        <time>2017-05-22T09:57:28Z</time>
      </trkpt>
      <trkpt lat="46.03614" lon="4.76465">
        <ele>199</ele>
        <time>2017-05-22T09:57:29Z</time>
      </trkpt>
      <trkpt lat="46.03612" lon="4.76455">
        <ele>199</ele>
        <time>2017-05-22T09:57:30Z</time>
      </trkpt>
      <trkpt lat="46.0361" lon="4.76446">
        <ele>199</ele>
        <time>2017-05-22T09:57:31Z</time>
      </trkpt>
      <trkpt lat="46.0361" lon="4.76438">
        <ele>199</ele>
        <time>2017-05-22T09:57:32Z</time>
      </trkpt>
      <trkpt lat="46.0361" lon="4.76431">
        <ele>199</ele>
        <time>2017-05-22T09:57:33Z</time>
      </trkpt>
      <trkpt lat="46.03611" lon="4.76423">
        <ele>199</ele>
        <time>2017-05-22T09:57:34Z</time>
      </trkpt>
      <trkpt lat="46.03611" lon="4.76415">
        <ele>198</ele>
        <time>2017-05-22T09:57:35Z</time>
      </trkpt>
      <trkpt lat="46.03612" lon="4.76404">
        <ele>197</ele>
        <time>2017-05-22T09:57:36Z</time>
      </trkpt>
      <trkpt lat="46.03612" lon="4.76394">
        <ele>197</ele>
        <time>2017-05-22T09:57:37Z</time>
      </trkpt>
      <trkpt lat="46.03612" lon="4.76384">
        <ele>197</ele>
        <time>2017-05-22T09:57:38Z</time>
      </trkpt>
      <trkpt lat="46.03612" lon="4.76374">
        <ele>197</ele>
        <time>2017-05-22T09:57:39Z</time>
      </trkpt>
      <trkpt lat="46.03613" lon="4.76365">
        <ele>197</ele>
        <time>2017-05-22T09:57:40Z</time>
      </trkpt>
      <trkpt lat="46.03614" lon="4.76355">
        <ele>196</ele>
        <time>2017-05-22T09:57:41Z</time>
      </trkpt>
      <trkpt lat="46.03614" lon="4.76346">
        <ele>196</ele>
        <time>2017-05-22T09:57:42Z</time>
      </trkpt>
      <trkpt lat="46.03614" lon="4.76337">
        <ele>196</ele>
        <time>2017-05-22T09:57:43Z</time>
      </trkpt>
      <trkpt lat="46.03615" lon="4.76327">
        <ele>195</ele>
        <time>2017-05-22T09:57:44Z</time>
      </trkpt>
      <trkpt lat="46.03616" lon="4.76318">
        <ele>195</ele>
        <time>2017-05-22T09:57:45Z</time>
      </trkpt>
      <trkpt lat="46.03617" lon="4.76309">
        <ele>195</ele>
        <time>2017-05-22T09:57:46Z</time>
      </trkpt>
      <trkpt lat="46.03617" lon="4.76301">
        <ele>195</ele>
        <time>2017-05-22T09:57:47Z</time>
      </trkpt>
      <trkpt lat="46.03619" lon="4.76293">
        <ele>195</ele>
        <time>2017-05-22T09:57:48Z</time>
      </trkpt>
      <trkpt lat="46.0362" lon="4.76284">
        <ele>194</ele>
        <time>2017-05-22T09:57:49Z</time>
      </trkpt>
      <trkpt lat="46.0362" lon="4.76275">
        <ele>194</ele>
        <time>2017-05-22T09:57:50Z</time>
      </trkpt>
      <trkpt lat="46.03622" lon="4.76267">
        <ele>194</ele>
        <time>2017-05-22T09:57:51Z</time>
      </trkpt>
      <trkpt lat="46.03622" lon="4.76259">
        <ele>194</ele>
        <time>2017-05-22T09:57:52Z</time>
      </trkpt>
      <trkpt lat="46.03623" lon="4.76251">
        <ele>194</ele>
        <time>2017-05-22T09:57:53Z</time>
      </trkpt>
      <trkpt lat="46.03624" lon="4.76243">
        <ele>193</ele>
        <time>2017-05-22T09:57:54Z</time>
      </trkpt>
      <trkpt lat="46.03625" lon="4.76235">
        <ele>193</ele>
        <time>2017-05-22T09:57:55Z</time>
      </trkpt>
      <trkpt lat="46.03626" lon="4.76227">
        <ele>193</ele>
        <time>2017-05-22T09:57:56Z</time>
      </trkpt>
      <trkpt lat="46.03627" lon="4.76219">
        <ele>193</ele>
        <time>2017-05-22T09:57:57Z</time>
      </trkpt>
      <trkpt lat="46.03628" lon="4.76211">
        <ele>193</ele>
        <time>2017-05-22T09:57:58Z</time>
      </trkpt>
      <trkpt lat="46.03629" lon="4.76204">
        <ele>193</ele>
        <time>2017-05-22T09:57:59Z</time>
      </trkpt>
      <trkpt lat="46.0363" lon="4.76192">
        <ele>193</ele>
        <time>2017-05-22T09:58:01Z</time>
      </trkpt>
      <trkpt lat="46.03631" lon="4.76187">
        <ele>193</ele>
        <time>2017-05-22T09:58:02Z</time>
      </trkpt>
      <trkpt lat="46.03634" lon="4.76176">
        <ele>192</ele>
        <time>2017-05-22T09:58:04Z</time>
      </trkpt>
      <trkpt lat="46.03635" lon="4.7617">
        <ele>192</ele>
        <time>2017-05-22T09:58:05Z</time>
      </trkpt>
      <trkpt lat="46.03635" lon="4.76164">
        <ele>192</ele>
        <time>2017-05-22T09:58:06Z</time>
      </trkpt>
      <trkpt lat="46.03635" lon="4.76156">
        <ele>192</ele>
        <time>2017-05-22T09:58:07Z</time>
      </trkpt>
      <trkpt lat="46.03636" lon="4.76149">
        <ele>192</ele>
        <time>2017-05-22T09:58:08Z</time>
      </trkpt>
      <trkpt lat="46.03636" lon="4.76141">
        <ele>192</ele>
        <time>2017-05-22T09:58:09Z</time>
      </trkpt>
      <trkpt lat="46.03636" lon="4.76133">
        <ele>192</ele>
        <time>2017-05-22T09:58:10Z</time>
      </trkpt>
      <trkpt lat="46.03636" lon="4.76126">
        <ele>192</ele>
        <time>2017-05-22T09:58:11Z</time>
      </trkpt>
      <trkpt lat="46.03636" lon="4.76118">
        <ele>192</ele>
        <time>2017-05-22T09:58:12Z</time>
      </trkpt>
      <trkpt lat="46.03635" lon="4.76111">
        <ele>192</ele>
        <time>2017-05-22T09:58:13Z</time>
      </trkpt>
      <trkpt lat="46.03633" lon="4.76104">
        <ele>192</ele>
        <time>2017-05-22T09:58:14Z</time>
      </trkpt>
      <trkpt lat="46.03632" lon="4.76097">
        <ele>192</ele>
        <time>2017-05-22T09:58:15Z</time>
      </trkpt>
      <trkpt lat="46.0363" lon="4.7609">
        <ele>192</ele>
        <time>2017-05-22T09:58:16Z</time>
      </trkpt>
      <trkpt lat="46.03629" lon="4.76083">
        <ele>191</ele>
        <time>2017-05-22T09:58:17Z</time>
      </trkpt>
      <trkpt lat="46.03627" lon="4.76076">
        <ele>191</ele>
        <time>2017-05-22T09:58:18Z</time>
      </trkpt>
      <trkpt lat="46.03625" lon="4.7607">
        <ele>191</ele>
        <time>2017-05-22T09:58:19Z</time>
      </trkpt>
      <trkpt lat="46.03624" lon="4.76064">
        <ele>191</ele>
        <time>2017-05-22T09:58:20Z</time>
      </trkpt>
      <trkpt lat="46.03622" lon="4.76058">
        <ele>191</ele>
        <time>2017-05-22T09:58:21Z</time>
      </trkpt>
      <trkpt lat="46.03619" lon="4.76052">
        <ele>191</ele>
        <time>2017-05-22T09:58:22Z</time>
      </trkpt>
      <trkpt lat="46.03617" lon="4.76046">
        <ele>191</ele>
        <time>2017-05-22T09:58:23Z</time>
      </trkpt>
      <trkpt lat="46.03615" lon="4.7604">
        <ele>191</ele>
        <time>2017-05-22T09:58:24Z</time>
      </trkpt>
      <trkpt lat="46.03613" lon="4.76034">
        <ele>191</ele>
        <time>2017-05-22T09:58:25Z</time>
      </trkpt>
      <trkpt lat="46.03611" lon="4.76027">
        <ele>191</ele>
        <time>2017-05-22T09:58:26Z</time>
      </trkpt>
      <trkpt lat="46.0361" lon="4.76021">
        <ele>191</ele>
        <time>2017-05-22T09:58:27Z</time>
      </trkpt>
      <trkpt lat="46.03608" lon="4.76015">
        <ele>191</ele>
        <time>2017-05-22T09:58:28Z</time>
      </trkpt>
      <trkpt lat="46.03605" lon="4.76008">
        <ele>191</ele>
        <time>2017-05-22T09:58:29Z</time>
      </trkpt>
      <trkpt lat="46.03603" lon="4.76003">
        <ele>191</ele>
        <time>2017-05-22T09:58:30Z</time>
      </trkpt>
      <trkpt lat="46.03601" lon="4.75997">
        <ele>190</ele>
        <time>2017-05-22T09:58:31Z</time>
      </trkpt>
      <trkpt lat="46.03598" lon="4.75991">
        <ele>190</ele>
        <time>2017-05-22T09:58:32Z</time>
      </trkpt>
      <trkpt lat="46.03595" lon="4.75985">
        <ele>190</ele>
        <time>2017-05-22T09:58:33Z</time>
      </trkpt>
      <trkpt lat="46.03593" lon="4.75979">
        <ele>190</ele>
        <time>2017-05-22T09:58:34Z</time>
      </trkpt>
      <trkpt lat="46.0359" lon="4.75973">
        <ele>190</ele>
        <time>2017-05-22T09:58:35Z</time>
      </trkpt>
      <trkpt lat="46.03587" lon="4.75968">
        <ele>190</ele>
        <time>2017-05-22T09:58:36Z</time>
      </trkpt>
      <trkpt lat="46.03584" lon="4.75963">
        <ele>190</ele>
        <time>2017-05-22T09:58:37Z</time>
      </trkpt>
      <trkpt lat="46.03581" lon="4.75957">
        <ele>190</ele>
        <time>2017-05-22T09:58:38Z</time>
      </trkpt>
      <trkpt lat="46.03579" lon="4.75951">
        <ele>190</ele>
        <time>2017-05-22T09:58:39Z</time>
      </trkpt>
      <trkpt lat="46.03576" lon="4.75946">
        <ele>190</ele>
        <time>2017-05-22T09:58:40Z</time>
      </trkpt>
      <trkpt lat="46.03573" lon="4.75941">
        <ele>190</ele>
        <time>2017-05-22T09:58:41Z</time>
      </trkpt>
      <trkpt lat="46.0357" lon="4.75935">
        <ele>190</ele>
        <time>2017-05-22T09:58:42Z</time>
      </trkpt>
      <trkpt lat="46.03568" lon="4.75929">
        <ele>190</ele>
        <time>2017-05-22T09:58:43Z</time>
      </trkpt>
      <trkpt lat="46.03564" lon="4.75919">
        <ele>190</ele>
        <time>2017-05-22T09:58:45Z</time>
      </trkpt>
      <trkpt lat="46.03562" lon="4.75915">
        <ele>189</ele>
        <time>2017-05-22T09:58:46Z</time>
      </trkpt>
      <trkpt lat="46.03556" lon="4.75908">
        <ele>189</ele>
        <time>2017-05-22T09:58:48Z</time>
      </trkpt>
      <trkpt lat="46.03554" lon="4.75905">
        <ele>189</ele>
        <time>2017-05-22T09:58:49Z</time>
      </trkpt>
      <trkpt lat="46.0355" lon="4.75896">
        <ele>189</ele>
        <time>2017-05-22T09:58:51Z</time>
      </trkpt>
      <trkpt lat="46.03548" lon="4.75891">
        <ele>189</ele>
        <time>2017-05-22T09:58:52Z</time>
      </trkpt>
      <trkpt lat="46.03543" lon="4.75881">
        <ele>189</ele>
        <time>2017-05-22T09:58:54Z</time>
      </trkpt>
      <trkpt lat="46.03541" lon="4.75875">
        <ele>190</ele>
        <time>2017-05-22T09:58:55Z</time>
      </trkpt>
      <trkpt lat="46.03538" lon="4.75869">
        <ele>190</ele>
        <time>2017-05-22T09:58:56Z</time>
      </trkpt>
      <trkpt lat="46.03535" lon="4.75863">
        <ele>190</ele>
        <time>2017-05-22T09:58:57Z</time>
      </trkpt>
      <trkpt lat="46.03532" lon="4.75857">
        <ele>190</ele>
        <time>2017-05-22T09:58:58Z</time>
      </trkpt>
      <trkpt lat="46.03529" lon="4.7585">
        <ele>190</ele>
        <time>2017-05-22T09:58:59Z</time>
      </trkpt>
      <trkpt lat="46.03526" lon="4.75843">
        <ele>190</ele>
        <time>2017-05-22T09:59:00Z</time>
      </trkpt>
      <trkpt lat="46.03523" lon="4.75835">
        <ele>190</ele>
        <time>2017-05-22T09:59:01Z</time>
      </trkpt>
      <trkpt lat="46.03522" lon="4.75828">
        <ele>190</ele>
        <time>2017-05-22T09:59:02Z</time>
      </trkpt>
      <trkpt lat="46.03519" lon="4.75821">
        <ele>190</ele>
        <time>2017-05-22T09:59:03Z</time>
      </trkpt>
      <trkpt lat="46.03515" lon="4.75814">
        <ele>190</ele>
        <time>2017-05-22T09:59:04Z</time>
      </trkpt>
      <trkpt lat="46.03511" lon="4.75808">
        <ele>189</ele>
        <time>2017-05-22T09:59:05Z</time>
      </trkpt>
      <trkpt lat="46.03508" lon="4.75801">
        <ele>189</ele>
        <time>2017-05-22T09:59:06Z</time>
      </trkpt>
      <trkpt lat="46.03504" lon="4.75796">
        <ele>189</ele>
        <time>2017-05-22T09:59:07Z</time>
      </trkpt>
      <trkpt lat="46.03501" lon="4.75789">
        <ele>189</ele>
        <time>2017-05-22T09:59:08Z</time>
      </trkpt>
      <trkpt lat="46.03499" lon="4.75782">
        <ele>190</ele>
        <time>2017-05-22T09:59:09Z</time>
      </trkpt>
      <trkpt lat="46.03497" lon="4.75776">
        <ele>190</ele>
        <time>2017-05-22T09:59:10Z</time>
      </trkpt>
      <trkpt lat="46.03494" lon="4.7577">
        <ele>189</ele>
        <time>2017-05-22T09:59:11Z</time>
      </trkpt>
      <trkpt lat="46.03492" lon="4.75763">
        <ele>189</ele>
        <time>2017-05-22T09:59:12Z</time>
      </trkpt>
      <trkpt lat="46.0349" lon="4.75756">
        <ele>189</ele>
        <time>2017-05-22T09:59:13Z</time>
      </trkpt>
      <trkpt lat="46.03488" lon="4.75749">
        <ele>189</ele>
        <time>2017-05-22T09:59:14Z</time>
      </trkpt>
      <trkpt lat="46.03486" lon="4.75743">
        <ele>189</ele>
        <time>2017-05-22T09:59:15Z</time>
      </trkpt>
      <trkpt lat="46.03484" lon="4.75737">
        <ele>189</ele>
        <time>2017-05-22T09:59:16Z</time>
      </trkpt>
      <trkpt lat="46.03481" lon="4.75731">
        <ele>189</ele>
        <time>2017-05-22T09:59:17Z</time>
      </trkpt>
      <trkpt lat="46.0348" lon="4.75724">
        <ele>189</ele>
        <time>2017-05-22T09:59:18Z</time>
      </trkpt>
      <trkpt lat="46.03477" lon="4.75718">
        <ele>189</ele>
        <time>2017-05-22T09:59:19Z</time>
      </trkpt>
      <trkpt lat="46.03475" lon="4.75711">
        <ele>189</ele>
        <time>2017-05-22T09:59:20Z</time>
      </trkpt>
      <trkpt lat="46.03473" lon="4.75705">
        <ele>189</ele>
        <time>2017-05-22T09:59:21Z</time>
      </trkpt>
      <trkpt lat="46.03471" lon="4.75699">
        <ele>189</ele>
        <time>2017-05-22T09:59:22Z</time>
      </trkpt>
      <trkpt lat="46.03468" lon="4.75693">
        <ele>189</ele>
        <time>2017-05-22T09:59:23Z</time>
      </trkpt>
      <trkpt lat="46.03466" lon="4.75687">
        <ele>189</ele>
        <time>2017-05-22T09:59:24Z</time>
      </trkpt>
      <trkpt lat="46.03464" lon="4.75681">
        <ele>189</ele>
        <time>2017-05-22T09:59:25Z</time>
      </trkpt>
      <trkpt lat="46.03461" lon="4.75676">
        <ele>189</ele>
        <time>2017-05-22T09:59:26Z</time>
      </trkpt>
      <trkpt lat="46.03459" lon="4.7567">
        <ele>189</ele>
        <time>2017-05-22T09:59:27Z</time>
      </trkpt>
      <trkpt lat="46.03454" lon="4.7566">
        <ele>188</ele>
        <time>2017-05-22T09:59:29Z</time>
      </trkpt>
      <trkpt lat="46.03452" lon="4.75654">
        <ele>188</ele>
        <time>2017-05-22T09:59:30Z</time>
      </trkpt>
      <trkpt lat="46.03448" lon="4.75644">
        <ele>188</ele>
        <time>2017-05-22T09:59:32Z</time>
      </trkpt>
      <trkpt lat="46.03446" lon="4.7564">
        <ele>188</ele>
        <time>2017-05-22T09:59:33Z</time>
      </trkpt>
      <trkpt lat="46.03442" lon="4.75629">
        <ele>188</ele>
        <time>2017-05-22T09:59:37Z</time>
      </trkpt>
      <trkpt lat="46.03441" lon="4.75629">
        <ele>188</ele>
        <time>2017-05-22T09:59:38Z</time>
      </trkpt>
      <trkpt lat="46.03441" lon="4.75629">
        <ele>188</ele>
        <time>2017-05-22T09:59:45Z</time>
      </trkpt>
      <trkpt lat="46.0344" lon="4.75627">
        <ele>188</ele>
        <time>2017-05-22T09:59:46Z</time>
      </trkpt>
      <trkpt lat="46.03438" lon="4.75625">
        <ele>188</ele>
        <time>2017-05-22T09:59:47Z</time>
      </trkpt>
      <trkpt lat="46.03435" lon="4.75623">
        <ele>188</ele>
        <time>2017-05-22T09:59:48Z</time>
      </trkpt>
      <trkpt lat="46.03428" lon="4.7562">
        <ele>188</ele>
        <time>2017-05-22T09:59:50Z</time>
      </trkpt>
      <trkpt lat="46.03424" lon="4.75619">
        <ele>188</ele>
        <time>2017-05-22T09:59:51Z</time>
      </trkpt>
      <trkpt lat="46.03416" lon="4.7562">
        <ele>188</ele>
        <time>2017-05-22T09:59:53Z</time>
      </trkpt>
      <trkpt lat="46.03412" lon="4.75621">
        <ele>188</ele>
        <time>2017-05-22T09:59:54Z</time>
      </trkpt>
      <trkpt lat="46.03407" lon="4.75622">
        <ele>188</ele>
        <time>2017-05-22T09:59:55Z</time>
      </trkpt>
      <trkpt lat="46.03402" lon="4.75623">
        <ele>188</ele>
        <time>2017-05-22T09:59:56Z</time>
      </trkpt>
      <trkpt lat="46.03396" lon="4.75624">
        <ele>188</ele>
        <time>2017-05-22T09:59:57Z</time>
      </trkpt>
      <trkpt lat="46.0339" lon="4.75625">
        <ele>188</ele>
        <time>2017-05-22T09:59:58Z</time>
      </trkpt>
      <trkpt lat="46.03385" lon="4.75626">
        <ele>188</ele>
        <time>2017-05-22T09:59:59Z</time>
      </trkpt>
      <trkpt lat="46.03379" lon="4.75627">
        <ele>188</ele>
        <time>2017-05-22T10:00:00Z</time>
      </trkpt>
      <trkpt lat="46.03372" lon="4.75628">
        <ele>188</ele>
        <time>2017-05-22T10:00:01Z</time>
      </trkpt>
      <trkpt lat="46.03366" lon="4.75629">
        <ele>188</ele>
        <time>2017-05-22T10:00:02Z</time>
      </trkpt>
      <trkpt lat="46.0336" lon="4.75629">
        <ele>188</ele>
        <time>2017-05-22T10:00:03Z</time>
      </trkpt>
      <trkpt lat="46.03354" lon="4.7563">
        <ele>188</ele>
        <time>2017-05-22T10:00:04Z</time>
      </trkpt>
      <trkpt lat="46.03349" lon="4.7563">
        <ele>188</ele>
        <time>2017-05-22T10:00:05Z</time>
      </trkpt>
      <trkpt lat="46.03342" lon="4.75631">
        <ele>188</ele>
        <time>2017-05-22T10:00:06Z</time>
      </trkpt>
      <trkpt lat="46.03336" lon="4.75631">
        <ele>188</ele>
        <time>2017-05-22T10:00:07Z</time>
      </trkpt>
      <trkpt lat="46.0333" lon="4.75632">
        <ele>189</ele>
        <time>2017-05-22T10:00:08Z</time>
      </trkpt>
      <trkpt lat="46.03325" lon="4.75632">
        <ele>189</ele>
        <time>2017-05-22T10:00:09Z</time>
      </trkpt>
      <trkpt lat="46.03319" lon="4.75631">
        <ele>189</ele>
        <time>2017-05-22T10:00:10Z</time>
      </trkpt>
      <trkpt lat="46.03314" lon="4.7563">
        <ele>189</ele>
        <time>2017-05-22T10:00:11Z</time>
      </trkpt>
      <trkpt lat="46.03308" lon="4.75629">
        <ele>189</ele>
        <time>2017-05-22T10:00:12Z</time>
      </trkpt>
      <trkpt lat="46.03303" lon="4.75629">
        <ele>189</ele>
        <time>2017-05-22T10:00:13Z</time>
      </trkpt>
      <trkpt lat="46.03298" lon="4.7563">
        <ele>189</ele>
        <time>2017-05-22T10:00:14Z</time>
      </trkpt>
      <trkpt lat="46.03293" lon="4.75633">
        <ele>189</ele>
        <time>2017-05-22T10:00:15Z</time>
      </trkpt>
      <trkpt lat="46.03289" lon="4.75637">
        <ele>190</ele>
        <time>2017-05-22T10:00:16Z</time>
      </trkpt>
      <trkpt lat="46.03285" lon="4.75641">
        <ele>190</ele>
        <time>2017-05-22T10:00:17Z</time>
      </trkpt>
      <trkpt lat="46.0328" lon="4.75646">
        <ele>190</ele>
        <time>2017-05-22T10:00:18Z</time>
      </trkpt>
      <trkpt lat="46.03276" lon="4.7565">
        <ele>191</ele>
        <time>2017-05-22T10:00:19Z</time>
      </trkpt>
      <trkpt lat="46.03271" lon="4.75653">
        <ele>191</ele>
        <time>2017-05-22T10:00:20Z</time>
      </trkpt>
      <trkpt lat="46.03266" lon="4.75656">
        <ele>192</ele>
        <time>2017-05-22T10:00:21Z</time>
      </trkpt>
      <trkpt lat="46.03261" lon="4.75658">
        <ele>192</ele>
        <time>2017-05-22T10:00:22Z</time>
      </trkpt>
      <trkpt lat="46.03256" lon="4.7566">
        <ele>193</ele>
        <time>2017-05-22T10:00:23Z</time>
      </trkpt>
      <trkpt lat="46.03251" lon="4.75662">
        <ele>194</ele>
        <time>2017-05-22T10:00:24Z</time>
      </trkpt>
      <trkpt lat="46.03245" lon="4.75664">
        <ele>194</ele>
        <time>2017-05-22T10:00:25Z</time>
      </trkpt>
      <trkpt lat="46.0324" lon="4.75665">
        <ele>193</ele>
        <time>2017-05-22T10:00:26Z</time>
      </trkpt>
      <trkpt lat="46.03235" lon="4.75666">
        <ele>192</ele>
        <time>2017-05-22T10:00:27Z</time>
      </trkpt>
      <trkpt lat="46.0323" lon="4.75667">
        <ele>194</ele>
        <time>2017-05-22T10:00:28Z</time>
      </trkpt>
      <trkpt lat="46.03224" lon="4.75668">
        <ele>194</ele>
        <time>2017-05-22T10:00:29Z</time>
      </trkpt>
      <trkpt lat="46.03218" lon="4.75669">
        <ele>193</ele>
        <time>2017-05-22T10:00:30Z</time>
      </trkpt>
      <trkpt lat="46.03212" lon="4.7567">
        <ele>193</ele>
        <time>2017-05-22T10:00:31Z</time>
      </trkpt>
      <trkpt lat="46.03207" lon="4.7567">
        <ele>193</ele>
        <time>2017-05-22T10:00:32Z</time>
      </trkpt>
      <trkpt lat="46.03201" lon="4.75669">
        <ele>192</ele>
        <time>2017-05-22T10:00:33Z</time>
      </trkpt>
      <trkpt lat="46.03195" lon="4.7567">
        <ele>192</ele>
        <time>2017-05-22T10:00:34Z</time>
      </trkpt>
      <trkpt lat="46.03189" lon="4.75669">
        <ele>191</ele>
        <time>2017-05-22T10:00:35Z</time>
      </trkpt>
      <trkpt lat="46.03184" lon="4.7567">
        <ele>191</ele>
        <time>2017-05-22T10:00:36Z</time>
      </trkpt>
      <trkpt lat="46.03178" lon="4.7567">
        <ele>190</ele>
        <time>2017-05-22T10:00:37Z</time>
      </trkpt>
      <trkpt lat="46.03173" lon="4.7567">
        <ele>189</ele>
        <time>2017-05-22T10:00:38Z</time>
      </trkpt>
      <trkpt lat="46.03167" lon="4.75671">
        <ele>189</ele>
        <time>2017-05-22T10:00:39Z</time>
      </trkpt>
      <trkpt lat="46.03161" lon="4.75671">
        <ele>188</ele>
        <time>2017-05-22T10:00:40Z</time>
      </trkpt>
      <trkpt lat="46.03155" lon="4.75672">
        <ele>188</ele>
        <time>2017-05-22T10:00:41Z</time>
      </trkpt>
      <trkpt lat="46.03149" lon="4.75673">
        <ele>187</ele>
        <time>2017-05-22T10:00:42Z</time>
      </trkpt>
      <trkpt lat="46.03143" lon="4.75674">
        <ele>187</ele>
        <time>2017-05-22T10:00:43Z</time>
      </trkpt>
      <trkpt lat="46.03137" lon="4.75674">
        <ele>187</ele>
        <time>2017-05-22T10:00:44Z</time>
      </trkpt>
      <trkpt lat="46.03131" lon="4.75675">
        <ele>187</ele>
        <time>2017-05-22T10:00:45Z</time>
      </trkpt>
      <trkpt lat="46.03125" lon="4.75676">
        <ele>187</ele>
        <time>2017-05-22T10:00:46Z</time>
      </trkpt>
      <trkpt lat="46.03119" lon="4.75677">
        <ele>186</ele>
        <time>2017-05-22T10:00:47Z</time>
      </trkpt>
      <trkpt lat="46.03114" lon="4.75678">
        <ele>186</ele>
        <time>2017-05-22T10:00:48Z</time>
      </trkpt>
      <trkpt lat="46.03108" lon="4.75679">
        <ele>186</ele>
        <time>2017-05-22T10:00:49Z</time>
      </trkpt>
      <trkpt lat="46.03101" lon="4.75677">
        <ele>186</ele>
        <time>2017-05-22T10:00:50Z</time>
      </trkpt>
      <trkpt lat="46.03094" lon="4.75677">
        <ele>185</ele>
        <time>2017-05-22T10:00:51Z</time>
      </trkpt>
      <trkpt lat="46.03088" lon="4.75678">
        <ele>185</ele>
        <time>2017-05-22T10:00:52Z</time>
      </trkpt>
      <trkpt lat="46.03082" lon="4.75679">
        <ele>184</ele>
        <time>2017-05-22T10:00:53Z</time>
      </trkpt>
      <trkpt lat="46.03076" lon="4.7568">
        <ele>184</ele>
        <time>2017-05-22T10:00:54Z</time>
      </trkpt>
      <trkpt lat="46.0307" lon="4.75681">
        <ele>184</ele>
        <time>2017-05-22T10:00:55Z</time>
      </trkpt>
      <trkpt lat="46.03064" lon="4.75683">
        <ele>184</ele>
        <time>2017-05-22T10:00:56Z</time>
      </trkpt>
      <trkpt lat="46.03058" lon="4.75685">
        <ele>184</ele>
        <time>2017-05-22T10:00:57Z</time>
      </trkpt>
      <trkpt lat="46.03053" lon="4.75687">
        <ele>184</ele>
        <time>2017-05-22T10:00:58Z</time>
      </trkpt>
      <trkpt lat="46.03047" lon="4.75689">
        <ele>184</ele>
        <time>2017-05-22T10:00:59Z</time>
      </trkpt>
      <trkpt lat="46.03041" lon="4.75691">
        <ele>184</ele>
        <time>2017-05-22T10:01:00Z</time>
      </trkpt>
      <trkpt lat="46.03035" lon="4.75693">
        <ele>184</ele>
        <time>2017-05-22T10:01:01Z</time>
      </trkpt>
      <trkpt lat="46.0303" lon="4.75696">
        <ele>184</ele>
        <time>2017-05-22T10:01:02Z</time>
      </trkpt>
      <trkpt lat="46.03024" lon="4.75698">
        <ele>184</ele>
        <time>2017-05-22T10:01:03Z</time>
      </trkpt>
      <trkpt lat="46.03018" lon="4.757">
        <ele>184</ele>
        <time>2017-05-22T10:01:04Z</time>
      </trkpt>
      <trkpt lat="46.03013" lon="4.75702">
        <ele>184</ele>
        <time>2017-05-22T10:01:05Z</time>
      </trkpt>
      <trkpt lat="46.03008" lon="4.75703">
        <ele>184</ele>
        <time>2017-05-22T10:01:06Z</time>
      </trkpt>
      <trkpt lat="46.03003" lon="4.75705">
        <ele>184</ele>
        <time>2017-05-22T10:01:07Z</time>
      </trkpt>
      <trkpt lat="46.02998" lon="4.75706">
        <ele>183</ele>
        <time>2017-05-22T10:01:08Z</time>
      </trkpt>
      <trkpt lat="46.02993" lon="4.75708">
        <ele>183</ele>
        <time>2017-05-22T10:01:09Z</time>
      </trkpt>
      <trkpt lat="46.02987" lon="4.7571">
        <ele>183</ele>
        <time>2017-05-22T10:01:10Z</time>
      </trkpt>
      <trkpt lat="46.02981" lon="4.75712">
        <ele>183</ele>
        <time>2017-05-22T10:01:11Z</time>
      </trkpt>
      <trkpt lat="46.02975" lon="4.75714">
        <ele>183</ele>
        <time>2017-05-22T10:01:12Z</time>
      </trkpt>
      <trkpt lat="46.02969" lon="4.75716">
        <ele>183</ele>
        <time>2017-05-22T10:01:13Z</time>
      </trkpt>
      <trkpt lat="46.02963" lon="4.75718">
        <ele>183</ele>
        <time>2017-05-22T10:01:14Z</time>
      </trkpt>
      <trkpt lat="46.02957" lon="4.7572">
        <ele>183</ele>
        <time>2017-05-22T10:01:15Z</time>
      </trkpt>
      <trkpt lat="46.02951" lon="4.75721">
        <ele>183</ele>
        <time>2017-05-22T10:01:16Z</time>
      </trkpt>
      <trkpt lat="46.02944" lon="4.75723">
        <ele>183</ele>
        <time>2017-05-22T10:01:17Z</time>
      </trkpt>
      <trkpt lat="46.02938" lon="4.75724">
        <ele>183</ele>
        <time>2017-05-22T10:01:18Z</time>
      </trkpt>
      <trkpt lat="46.02932" lon="4.75726">
        <ele>183</ele>
        <time>2017-05-22T10:01:19Z</time>
      </trkpt>
      <trkpt lat="46.02927" lon="4.75728">
        <ele>183</ele>
        <time>2017-05-22T10:01:20Z</time>
      </trkpt>
      <trkpt lat="46.02922" lon="4.7573">
        <ele>183</ele>
        <time>2017-05-22T10:01:21Z</time>
      </trkpt>
      <trkpt lat="46.02916" lon="4.75732">
        <ele>183</ele>
        <time>2017-05-22T10:01:22Z</time>
      </trkpt>
      <trkpt lat="46.0291" lon="4.75733">
        <ele>183</ele>
        <time>2017-05-22T10:01:23Z</time>
      </trkpt>
      <trkpt lat="46.02905" lon="4.75733">
        <ele>183</ele>
        <time>2017-05-22T10:01:24Z</time>
      </trkpt>
      <trkpt lat="46.02899" lon="4.75733">
        <ele>183</ele>
        <time>2017-05-22T10:01:25Z</time>
      </trkpt>
      <trkpt lat="46.02893" lon="4.75732">
        <ele>183</ele>
        <time>2017-05-22T10:01:26Z</time>
      </trkpt>
      <trkpt lat="46.02887" lon="4.75732">
        <ele>183</ele>
        <time>2017-05-22T10:01:27Z</time>
      </trkpt>
      <trkpt lat="46.0288" lon="4.75732">
        <ele>183</ele>
        <time>2017-05-22T10:01:28Z</time>
      </trkpt>
      <trkpt lat="46.02874" lon="4.75731">
        <ele>183</ele>
        <time>2017-05-22T10:01:29Z</time>
      </trkpt>
      <trkpt lat="46.02867" lon="4.7573">
        <ele>184</ele>
        <time>2017-05-22T10:01:30Z</time>
      </trkpt>
      <trkpt lat="46.02861" lon="4.75729">
        <ele>184</ele>
        <time>2017-05-22T10:01:31Z</time>
      </trkpt>
      <trkpt lat="46.02855" lon="4.75727">
        <ele>184</ele>
        <time>2017-05-22T10:01:32Z</time>
      </trkpt>
      <trkpt lat="46.02849" lon="4.75726">
        <ele>184</ele>
        <time>2017-05-22T10:01:33Z</time>
      </trkpt>
      <trkpt lat="46.02842" lon="4.75725">
        <ele>184</ele>
        <time>2017-05-22T10:01:34Z</time>
      </trkpt>
      <trkpt lat="46.02836" lon="4.75725">
        <ele>184</ele>
        <time>2017-05-22T10:01:35Z</time>
      </trkpt>
      <trkpt lat="46.0283" lon="4.75724">
        <ele>184</ele>
        <time>2017-05-22T10:01:36Z</time>
      </trkpt>
      <trkpt lat="46.02824" lon="4.75723">
        <ele>184</ele>
        <time>2017-05-22T10:01:37Z</time>
      </trkpt>
      <trkpt lat="46.02817" lon="4.75722">
        <ele>184</ele>
        <time>2017-05-22T10:01:38Z</time>
      </trkpt>
      <trkpt lat="46.02811" lon="4.75721">
        <ele>183</ele>
        <time>2017-05-22T10:01:39Z</time>
      </trkpt>
      <trkpt lat="46.02804" lon="4.7572">
        <ele>183</ele>
        <time>2017-05-22T10:01:40Z</time>
      </trkpt>
      <trkpt lat="46.02798" lon="4.7572">
        <ele>183</ele>
        <time>2017-05-22T10:01:41Z</time>
      </trkpt>
      <trkpt lat="46.02791" lon="4.75719">
        <ele>183</ele>
        <time>2017-05-22T10:01:42Z</time>
      </trkpt>
      <trkpt lat="46.02785" lon="4.75718">
        <ele>183</ele>
        <time>2017-05-22T10:01:43Z</time>
      </trkpt>
      <trkpt lat="46.02778" lon="4.75717">
        <ele>183</ele>
        <time>2017-05-22T10:01:44Z</time>
      </trkpt>
      <trkpt lat="46.02772" lon="4.75716">
        <ele>183</ele>
        <time>2017-05-22T10:01:45Z</time>
      </trkpt>
      <trkpt lat="46.02766" lon="4.75717">
        <ele>183</ele>
        <time>2017-05-22T10:01:46Z</time>
      </trkpt>
      <trkpt lat="46.0276" lon="4.75716">
        <ele>183</ele>
        <time>2017-05-22T10:01:47Z</time>
      </trkpt>
      <trkpt lat="46.02755" lon="4.75716">
        <ele>183</ele>
        <time>2017-05-22T10:01:48Z</time>
      </trkpt>
      <trkpt lat="46.0275" lon="4.75716">
        <ele>182</ele>
        <time>2017-05-22T10:01:49Z</time>
      </trkpt>
      <trkpt lat="46.02744" lon="4.75716">
        <ele>182</ele>
        <time>2017-05-22T10:01:50Z</time>
      </trkpt>
      <trkpt lat="46.0274" lon="4.75717">
        <ele>182</ele>
        <time>2017-05-22T10:01:51Z</time>
      </trkpt>
      <trkpt lat="46.02735" lon="4.75717">
        <ele>182</ele>
        <time>2017-05-22T10:01:52Z</time>
      </trkpt>
      <trkpt lat="46.0273" lon="4.75718">
        <ele>182</ele>
        <time>2017-05-22T10:01:53Z</time>
      </trkpt>
      <trkpt lat="46.02726" lon="4.75719">
        <ele>182</ele>
        <time>2017-05-22T10:01:54Z</time>
      </trkpt>
      <trkpt lat="46.02721" lon="4.75723">
        <ele>182</ele>
        <time>2017-05-22T10:01:55Z</time>
      </trkpt>
      <trkpt lat="46.02716" lon="4.75726">
        <ele>182</ele>
        <time>2017-05-22T10:01:56Z</time>
      </trkpt>
      <trkpt lat="46.0271" lon="4.75729">
        <ele>182</ele>
        <time>2017-05-22T10:01:57Z</time>
      </trkpt>
      <trkpt lat="46.02705" lon="4.75732">
        <ele>182</ele>
        <time>2017-05-22T10:01:58Z</time>
      </trkpt>
      <trkpt lat="46.027" lon="4.75735">
        <ele>182</ele>
        <time>2017-05-22T10:01:59Z</time>
      </trkpt>
      <trkpt lat="46.02694" lon="4.75738">
        <ele>182</ele>
        <time>2017-05-22T10:02:00Z</time>
      </trkpt>
      <trkpt lat="46.02688" lon="4.75741">
        <ele>182</ele>
        <time>2017-05-22T10:02:01Z</time>
      </trkpt>
      <trkpt lat="46.02683" lon="4.75743">
        <ele>181</ele>
        <time>2017-05-22T10:02:02Z</time>
      </trkpt>
      <trkpt lat="46.02678" lon="4.75745">
        <ele>181</ele>
        <time>2017-05-22T10:02:03Z</time>
      </trkpt>
      <trkpt lat="46.02673" lon="4.75746">
        <ele>181</ele>
        <time>2017-05-22T10:02:04Z</time>
      </trkpt>
      <trkpt lat="46.02668" lon="4.75747">
        <ele>181</ele>
        <time>2017-05-22T10:02:05Z</time>
      </trkpt>
      <trkpt lat="46.02663" lon="4.75748">
        <ele>181</ele>
        <time>2017-05-22T10:02:06Z</time>
      </trkpt>
      <trkpt lat="46.02658" lon="4.75749">
        <ele>181</ele>
        <time>2017-05-22T10:02:07Z</time>
      </trkpt>
      <trkpt lat="46.02652" lon="4.75749">
        <ele>182</ele>
        <time>2017-05-22T10:02:08Z</time>
      </trkpt>
      <trkpt lat="46.02647" lon="4.75749">
        <ele>182</ele>
        <time>2017-05-22T10:02:09Z</time>
      </trkpt>
      <trkpt lat="46.02642" lon="4.75749">
        <ele>182</ele>
        <time>2017-05-22T10:02:10Z</time>
      </trkpt>
      <trkpt lat="46.02637" lon="4.75748">
        <ele>182</ele>
        <time>2017-05-22T10:02:11Z</time>
      </trkpt>
      <trkpt lat="46.02631" lon="4.75748">
        <ele>182</ele>
        <time>2017-05-22T10:02:12Z</time>
      </trkpt>
      <trkpt lat="46.02627" lon="4.75747">
        <ele>182</ele>
        <time>2017-05-22T10:02:13Z</time>
      </trkpt>
      <trkpt lat="46.02622" lon="4.75746">
        <ele>182</ele>
        <time>2017-05-22T10:02:14Z</time>
      </trkpt>
      <trkpt lat="46.02618" lon="4.75745">
        <ele>182</ele>
        <time>2017-05-22T10:02:15Z</time>
      </trkpt>
      <trkpt lat="46.02613" lon="4.75744">
        <ele>182</ele>
        <time>2017-05-22T10:02:16Z</time>
      </trkpt>
      <trkpt lat="46.02608" lon="4.75743">
        <ele>182</ele>
        <time>2017-05-22T10:02:17Z</time>
      </trkpt>
      <trkpt lat="46.02604" lon="4.75742">
        <ele>183</ele>
        <time>2017-05-22T10:02:18Z</time>
      </trkpt>
      <trkpt lat="46.02595" lon="4.7574">
        <ele>183</ele>
        <time>2017-05-22T10:02:20Z</time>
      </trkpt>
      <trkpt lat="46.02591" lon="4.7574">
        <ele>183</ele>
        <time>2017-05-22T10:02:21Z</time>
      </trkpt>
      <trkpt lat="46.02582" lon="4.7574">
        <ele>184</ele>
        <time>2017-05-22T10:02:23Z</time>
      </trkpt>
      <trkpt lat="46.02578" lon="4.7574">
        <ele>184</ele>
        <time>2017-05-22T10:02:24Z</time>
      </trkpt>
      <trkpt lat="46.02569" lon="4.7574">
        <ele>185</ele>
        <time>2017-05-22T10:02:26Z</time>
      </trkpt>
      <trkpt lat="46.02565" lon="4.7574">
        <ele>185</ele>
        <time>2017-05-22T10:02:27Z</time>
      </trkpt>
      <trkpt lat="46.02557" lon="4.75739">
        <ele>186</ele>
        <time>2017-05-22T10:02:29Z</time>
      </trkpt>
      <trkpt lat="46.02553" lon="4.75739">
        <ele>186</ele>
        <time>2017-05-22T10:02:30Z</time>
      </trkpt>
      <trkpt lat="46.02548" lon="4.7574">
        <ele>186</ele>
        <time>2017-05-22T10:02:31Z</time>
      </trkpt>
      <trkpt lat="46.02544" lon="4.75741">
        <ele>186</ele>
        <time>2017-05-22T10:02:32Z</time>
      </trkpt>
      <trkpt lat="46.02539" lon="4.75742">
        <ele>186</ele>
        <time>2017-05-22T10:02:33Z</time>
      </trkpt>
      <trkpt lat="46.02534" lon="4.75742">
        <ele>187</ele>
        <time>2017-05-22T10:02:34Z</time>
      </trkpt>
      <trkpt lat="46.0253" lon="4.75744">
        <ele>187</ele>
        <time>2017-05-22T10:02:35Z</time>
      </trkpt>
      <trkpt lat="46.02525" lon="4.75746">
        <ele>187</ele>
        <time>2017-05-22T10:02:36Z</time>
      </trkpt>
      <trkpt lat="46.02521" lon="4.75748">
        <ele>188</ele>
        <time>2017-05-22T10:02:37Z</time>
      </trkpt>
      <trkpt lat="46.02516" lon="4.7575">
        <ele>188</ele>
        <time>2017-05-22T10:02:38Z</time>
      </trkpt>
      <trkpt lat="46.02509" lon="4.75752">
        <ele>189</ele>
        <time>2017-05-22T10:02:40Z</time>
      </trkpt>
      <trkpt lat="46.02505" lon="4.75753">
        <ele>189</ele>
        <time>2017-05-22T10:02:41Z</time>
      </trkpt>
      <trkpt lat="46.02498" lon="4.75757">
        <ele>190</ele>
        <time>2017-05-22T10:02:43Z</time>
      </trkpt>
      <trkpt lat="46.02495" lon="4.75759">
        <ele>190</ele>
        <time>2017-05-22T10:02:44Z</time>
      </trkpt>
      <trkpt lat="46.02488" lon="4.75762">
        <ele>190</ele>
        <time>2017-05-22T10:02:46Z</time>
      </trkpt>
      <trkpt lat="46.02484" lon="4.75763">
        <ele>191</ele>
        <time>2017-05-22T10:02:47Z</time>
      </trkpt>
      <trkpt lat="46.02476" lon="4.75765">
        <ele>191</ele>
        <time>2017-05-22T10:02:50Z</time>
      </trkpt>
      <trkpt lat="46.02474" lon="4.75766">
        <ele>191</ele>
        <time>2017-05-22T10:02:51Z</time>
      </trkpt>
      <trkpt lat="46.02467" lon="4.75768">
        <ele>191</ele>
        <time>2017-05-22T10:02:55Z</time>
      </trkpt>
      <trkpt lat="46.02465" lon="4.75769">
        <ele>191</ele>
        <time>2017-05-22T10:02:56Z</time>
      </trkpt>
      <trkpt lat="46.02456" lon="4.75774">
        <ele>191</ele>
        <time>2017-05-22T10:02:59Z</time>
      </trkpt>
      <trkpt lat="46.02454" lon="4.75775">
        <ele>191</ele>
        <time>2017-05-22T10:03:00Z</time>
      </trkpt>
      <trkpt lat="46.02446" lon="4.75779">
        <ele>191</ele>
        <time>2017-05-22T10:03:03Z</time>
      </trkpt>
      <trkpt lat="46.02444" lon="4.7578">
        <ele>191</ele>
        <time>2017-05-22T10:03:04Z</time>
      </trkpt>
      <trkpt lat="46.02437" lon="4.75785">
        <ele>191</ele>
        <time>2017-05-22T10:03:07Z</time>
      </trkpt>
      <trkpt lat="46.02435" lon="4.75787">
        <ele>191</ele>
        <time>2017-05-22T10:03:08Z</time>
      </trkpt>
      <trkpt lat="46.02429" lon="4.7579">
        <ele>191</ele>
        <time>2017-05-22T10:03:10Z</time>
      </trkpt>
      <trkpt lat="46.02426" lon="4.75792">
        <ele>192</ele>
        <time>2017-05-22T10:03:11Z</time>
      </trkpt>
      <trkpt lat="46.02418" lon="4.75796">
        <ele>192</ele>
        <time>2017-05-22T10:03:14Z</time>
      </trkpt>
      <trkpt lat="46.02415" lon="4.75797">
        <ele>192</ele>
        <time>2017-05-22T10:03:15Z</time>
      </trkpt>
      <trkpt lat="46.02408" lon="4.75802">
        <ele>192</ele>
        <time>2017-05-22T10:03:18Z</time>
      </trkpt>
      <trkpt lat="46.02405" lon="4.75805">
        <ele>192</ele>
        <time>2017-05-22T10:03:19Z</time>
      </trkpt>
      <trkpt lat="46.02399" lon="4.7581">
        <ele>192</ele>
        <time>2017-05-22T10:03:22Z</time>
      </trkpt>
      <trkpt lat="46.02397" lon="4.75811">
        <ele>192</ele>
        <time>2017-05-22T10:03:23Z</time>
      </trkpt>
      <trkpt lat="46.02389" lon="4.75816">
        <ele>192</ele>
        <time>2017-05-22T10:03:26Z</time>
      </trkpt>
      <trkpt lat="46.02386" lon="4.75819">
        <ele>192</ele>
        <time>2017-05-22T10:03:27Z</time>
      </trkpt>
      <trkpt lat="46.02381" lon="4.75825">
        <ele>192</ele>
        <time>2017-05-22T10:03:29Z</time>
      </trkpt>
      <trkpt lat="46.02378" lon="4.75826">
        <ele>192</ele>
        <time>2017-05-22T10:03:30Z</time>
      </trkpt>
      <trkpt lat="46.02372" lon="4.7583">
        <ele>192</ele>
        <time>2017-05-22T10:03:32Z</time>
      </trkpt>
      <trkpt lat="46.02368" lon="4.75832">
        <ele>192</ele>
        <time>2017-05-22T10:03:33Z</time>
      </trkpt>
      <trkpt lat="46.02362" lon="4.75837">
        <ele>193</ele>
        <time>2017-05-22T10:03:35Z</time>
      </trkpt>
      <trkpt lat="46.02359" lon="4.7584">
        <ele>193</ele>
        <time>2017-05-22T10:03:36Z</time>
      </trkpt>
      <trkpt lat="46.02354" lon="4.75845">
        <ele>193</ele>
        <time>2017-05-22T10:03:38Z</time>
      </trkpt>
      <trkpt lat="46.02351" lon="4.75847">
        <ele>193</ele>
        <time>2017-05-22T10:03:39Z</time>
      </trkpt>
      <trkpt lat="46.02346" lon="4.75851">
        <ele>193</ele>
        <time>2017-05-22T10:03:41Z</time>
      </trkpt>
      <trkpt lat="46.02343" lon="4.75854">
        <ele>193</ele>
        <time>2017-05-22T10:03:42Z</time>
      </trkpt>
      <trkpt lat="46.02337" lon="4.75859">
        <ele>193</ele>
        <time>2017-05-22T10:03:44Z</time>
      </trkpt>
      <trkpt lat="46.02334" lon="4.75861">
        <ele>193</ele>
        <time>2017-05-22T10:03:45Z</time>
      </trkpt>
      <trkpt lat="46.02327" lon="4.75867">
        <ele>193</ele>
        <time>2017-05-22T10:03:47Z</time>
      </trkpt>
      <trkpt lat="46.02323" lon="4.7587">
        <ele>193</ele>
        <time>2017-05-22T10:03:48Z</time>
      </trkpt>
      <trkpt lat="46.02316" lon="4.75876">
        <ele>193</ele>
        <time>2017-05-22T10:03:50Z</time>
      </trkpt>
      <trkpt lat="46.02313" lon="4.7588">
        <ele>193</ele>
        <time>2017-05-22T10:03:51Z</time>
      </trkpt>
      <trkpt lat="46.02309" lon="4.75883">
        <ele>193</ele>
        <time>2017-05-22T10:03:52Z</time>
      </trkpt>
      <trkpt lat="46.02305" lon="4.75888">
        <ele>193</ele>
        <time>2017-05-22T10:03:53Z</time>
      </trkpt>
      <trkpt lat="46.02301" lon="4.75891">
        <ele>193</ele>
        <time>2017-05-22T10:03:54Z</time>
      </trkpt>
      <trkpt lat="46.02296" lon="4.75895">
        <ele>193</ele>
        <time>2017-05-22T10:03:55Z</time>
      </trkpt>
      <trkpt lat="46.02292" lon="4.75899">
        <ele>193</ele>
        <time>2017-05-22T10:03:56Z</time>
      </trkpt>
      <trkpt lat="46.02288" lon="4.75904">
        <ele>193</ele>
        <time>2017-05-22T10:03:57Z</time>
      </trkpt>
      <trkpt lat="46.02283" lon="4.75907">
        <ele>193</ele>
        <time>2017-05-22T10:03:58Z</time>
      </trkpt>
      <trkpt lat="46.02279" lon="4.75911">
        <ele>193</ele>
        <time>2017-05-22T10:03:59Z</time>
      </trkpt>
      <trkpt lat="46.02274" lon="4.75915">
        <ele>193</ele>
        <time>2017-05-22T10:04:00Z</time>
      </trkpt>
      <trkpt lat="46.02269" lon="4.75918">
        <ele>193</ele>
        <time>2017-05-22T10:04:01Z</time>
      </trkpt>
      <trkpt lat="46.02264" lon="4.75922">
        <ele>193</ele>
        <time>2017-05-22T10:04:02Z</time>
      </trkpt>
      <trkpt lat="46.0226" lon="4.75927">
        <ele>193</ele>
        <time>2017-05-22T10:04:03Z</time>
      </trkpt>
      <trkpt lat="46.02255" lon="4.75931">
        <ele>193</ele>
        <time>2017-05-22T10:04:04Z</time>
      </trkpt>
      <trkpt lat="46.02251" lon="4.75935">
        <ele>193</ele>
        <time>2017-05-22T10:04:05Z</time>
      </trkpt>
      <trkpt lat="46.02246" lon="4.75939">
        <ele>193</ele>
        <time>2017-05-22T10:04:06Z</time>
      </trkpt>
      <trkpt lat="46.02242" lon="4.75943">
        <ele>193</ele>
        <time>2017-05-22T10:04:07Z</time>
      </trkpt>
      <trkpt lat="46.02237" lon="4.75947">
        <ele>193</ele>
        <time>2017-05-22T10:04:08Z</time>
      </trkpt>
      <trkpt lat="46.02232" lon="4.75951">
        <ele>193</ele>
        <time>2017-05-22T10:04:09Z</time>
      </trkpt>
      <trkpt lat="46.02227" lon="4.75954">
        <ele>193</ele>
        <time>2017-05-22T10:04:10Z</time>
      </trkpt>
      <trkpt lat="46.02222" lon="4.75957">
        <ele>193</ele>
        <time>2017-05-22T10:04:11Z</time>
      </trkpt>
      <trkpt lat="46.02217" lon="4.75961">
        <ele>192</ele>
        <time>2017-05-22T10:04:12Z</time>
      </trkpt>
      <trkpt lat="46.02212" lon="4.75965">
        <ele>192</ele>
        <time>2017-05-22T10:04:13Z</time>
      </trkpt>
      <trkpt lat="46.02206" lon="4.75969">
        <ele>192</ele>
        <time>2017-05-22T10:04:14Z</time>
      </trkpt>
      <trkpt lat="46.02202" lon="4.75973">
        <ele>192</ele>
        <time>2017-05-22T10:04:15Z</time>
      </trkpt>
      <trkpt lat="46.02197" lon="4.75978">
        <ele>192</ele>
        <time>2017-05-22T10:04:16Z</time>
      </trkpt>
      <trkpt lat="46.02192" lon="4.75982">
        <ele>192</ele>
        <time>2017-05-22T10:04:17Z</time>
      </trkpt>
      <trkpt lat="46.02188" lon="4.75986">
        <ele>192</ele>
        <time>2017-05-22T10:04:18Z</time>
      </trkpt>
      <trkpt lat="46.02183" lon="4.75989">
        <ele>192</ele>
        <time>2017-05-22T10:04:19Z</time>
      </trkpt>
      <trkpt lat="46.02179" lon="4.75993">
        <ele>192</ele>
        <time>2017-05-22T10:04:20Z</time>
      </trkpt>
      <trkpt lat="46.02174" lon="4.75996">
        <ele>192</ele>
        <time>2017-05-22T10:04:21Z</time>
      </trkpt>
      <trkpt lat="46.02169" lon="4.76">
        <ele>192</ele>
        <time>2017-05-22T10:04:22Z</time>
      </trkpt>
      <trkpt lat="46.02165" lon="4.76004">
        <ele>192</ele>
        <time>2017-05-22T10:04:23Z</time>
      </trkpt>
      <trkpt lat="46.02161" lon="4.76008">
        <ele>192</ele>
        <time>2017-05-22T10:04:24Z</time>
      </trkpt>
      <trkpt lat="46.02157" lon="4.76012">
        <ele>193</ele>
        <time>2017-05-22T10:04:25Z</time>
      </trkpt>
      <trkpt lat="46.02153" lon="4.76016">
        <ele>193</ele>
        <time>2017-05-22T10:04:26Z</time>
      </trkpt>
      <trkpt lat="46.02149" lon="4.76021">
        <ele>193</ele>
        <time>2017-05-22T10:04:27Z</time>
      </trkpt>
      <trkpt lat="46.02146" lon="4.76025">
        <ele>193</ele>
        <time>2017-05-22T10:04:28Z</time>
      </trkpt>
      <trkpt lat="46.02142" lon="4.76029">
        <ele>193</ele>
        <time>2017-05-22T10:04:29Z</time>
      </trkpt>
      <trkpt lat="46.02136" lon="4.76036">
        <ele>193</ele>
        <time>2017-05-22T10:04:31Z</time>
      </trkpt>
      <trkpt lat="46.02132" lon="4.76039">
        <ele>193</ele>
        <time>2017-05-22T10:04:32Z</time>
      </trkpt>
      <trkpt lat="46.02125" lon="4.76046">
        <ele>194</ele>
        <time>2017-05-22T10:04:34Z</time>
      </trkpt>
      <trkpt lat="46.02122" lon="4.76049">
        <ele>194</ele>
        <time>2017-05-22T10:04:35Z</time>
      </trkpt>
      <trkpt lat="46.02114" lon="4.76056">
        <ele>194</ele>
        <time>2017-05-22T10:04:37Z</time>
      </trkpt>
      <trkpt lat="46.02109" lon="4.76058">
        <ele>194</ele>
        <time>2017-05-22T10:04:38Z</time>
      </trkpt>
      <trkpt lat="46.02105" lon="4.76061">
        <ele>194</ele>
        <time>2017-05-22T10:04:39Z</time>
      </trkpt>
      <trkpt lat="46.021" lon="4.76064">
        <ele>194</ele>
        <time>2017-05-22T10:04:40Z</time>
      </trkpt>
      <trkpt lat="46.02096" lon="4.76066">
        <ele>195</ele>
        <time>2017-05-22T10:04:41Z</time>
      </trkpt>
      <trkpt lat="46.02091" lon="4.76069">
        <ele>195</ele>
        <time>2017-05-22T10:04:42Z</time>
      </trkpt>
      <trkpt lat="46.02083" lon="4.76075">
        <ele>196</ele>
        <time>2017-05-22T10:04:44Z</time>
      </trkpt>
      <trkpt lat="46.0208" lon="4.76077">
        <ele>196</ele>
        <time>2017-05-22T10:04:45Z</time>
      </trkpt>
      <trkpt lat="46.02073" lon="4.76082">
        <ele>196</ele>
        <time>2017-05-22T10:04:47Z</time>
      </trkpt>
      <trkpt lat="46.02068" lon="4.76084">
        <ele>197</ele>
        <time>2017-05-22T10:04:48Z</time>
      </trkpt>
      <trkpt lat="46.0206" lon="4.76086">
        <ele>197</ele>
        <time>2017-05-22T10:04:50Z</time>
      </trkpt>
      <trkpt lat="46.02055" lon="4.76087">
        <ele>197</ele>
        <time>2017-05-22T10:04:51Z</time>
      </trkpt>
      <trkpt lat="46.0205" lon="4.76089">
        <ele>197</ele>
        <time>2017-05-22T10:04:52Z</time>
      </trkpt>
      <trkpt lat="46.02045" lon="4.76089">
        <ele>197</ele>
        <time>2017-05-22T10:04:53Z</time>
      </trkpt>
      <trkpt lat="46.02037" lon="4.76093">
        <ele>197</ele>
        <time>2017-05-22T10:04:55Z</time>
      </trkpt>
      <trkpt lat="46.02034" lon="4.76094">
        <ele>197</ele>
        <time>2017-05-22T10:04:56Z</time>
      </trkpt>
      <trkpt lat="46.02026" lon="4.76095">
        <ele>197</ele>
        <time>2017-05-22T10:04:58Z</time>
      </trkpt>
      <trkpt lat="46.02022" lon="4.76095">
        <ele>197</ele>
        <time>2017-05-22T10:04:59Z</time>
      </trkpt>
      <trkpt lat="46.02015" lon="4.76096">
        <ele>197</ele>
        <time>2017-05-22T10:05:01Z</time>
      </trkpt>
      <trkpt lat="46.02012" lon="4.76097">
        <ele>197</ele>
        <time>2017-05-22T10:05:02Z</time>
      </trkpt>
      <trkpt lat="46.02006" lon="4.76098">
        <ele>197</ele>
        <time>2017-05-22T10:05:04Z</time>
      </trkpt>
      <trkpt lat="46.02002" lon="4.76098">
        <ele>197</ele>
        <time>2017-05-22T10:05:05Z</time>
      </trkpt>
      <trkpt lat="46.01998" lon="4.76101">
        <ele>198</ele>
        <time>2017-05-22T10:05:06Z</time>
      </trkpt>
      <trkpt lat="46.01994" lon="4.76106">
        <ele>198</ele>
        <time>2017-05-22T10:05:07Z</time>
      </trkpt>
      <trkpt lat="46.01986" lon="4.76108">
        <ele>198</ele>
        <time>2017-05-22T10:05:09Z</time>
      </trkpt>
      <trkpt lat="46.01982" lon="4.7611">
        <ele>198</ele>
        <time>2017-05-22T10:05:10Z</time>
      </trkpt>
      <trkpt lat="46.01974" lon="4.76112">
        <ele>198</ele>
        <time>2017-05-22T10:05:12Z</time>
      </trkpt>
      <trkpt lat="46.0197" lon="4.76114">
        <ele>198</ele>
        <time>2017-05-22T10:05:13Z</time>
      </trkpt>
      <trkpt lat="46.01963" lon="4.76115">
        <ele>198</ele>
        <time>2017-05-22T10:05:15Z</time>
      </trkpt>
      <trkpt lat="46.01959" lon="4.76115">
        <ele>198</ele>
        <time>2017-05-22T10:05:16Z</time>
      </trkpt>
      <trkpt lat="46.01951" lon="4.76117">
        <ele>198</ele>
        <time>2017-05-22T10:05:18Z</time>
      </trkpt>
      <trkpt lat="46.01946" lon="4.76118">
        <ele>198</ele>
        <time>2017-05-22T10:05:19Z</time>
      </trkpt>
      <trkpt lat="46.01937" lon="4.7612">
        <ele>198</ele>
        <time>2017-05-22T10:05:21Z</time>
      </trkpt>
      <trkpt lat="46.01934" lon="4.76122">
        <ele>198</ele>
        <time>2017-05-22T10:05:22Z</time>
      </trkpt>
      <trkpt lat="46.01927" lon="4.76125">
        <ele>199</ele>
        <time>2017-05-22T10:05:24Z</time>
      </trkpt>
      <trkpt lat="46.01923" lon="4.76126">
        <ele>199</ele>
        <time>2017-05-22T10:05:25Z</time>
      </trkpt>
      <trkpt lat="46.01915" lon="4.76127">
        <ele>199</ele>
        <time>2017-05-22T10:05:27Z</time>
      </trkpt>
      <trkpt lat="46.0191" lon="4.76128">
        <ele>199</ele>
        <time>2017-05-22T10:05:28Z</time>
      </trkpt>
      <trkpt lat="46.01905" lon="4.76131">
        <ele>199</ele>
        <time>2017-05-22T10:05:29Z</time>
      </trkpt>
      <trkpt lat="46.01899" lon="4.76133">
        <ele>199</ele>
        <time>2017-05-22T10:05:30Z</time>
      </trkpt>
      <trkpt lat="46.01891" lon="4.76135">
        <ele>199</ele>
        <time>2017-05-22T10:05:32Z</time>
      </trkpt>
      <trkpt lat="46.01887" lon="4.76137">
        <ele>199</ele>
        <time>2017-05-22T10:05:33Z</time>
      </trkpt>
      <trkpt lat="46.01879" lon="4.76138">
        <ele>199</ele>
        <time>2017-05-22T10:05:35Z</time>
      </trkpt>
      <trkpt lat="46.01876" lon="4.7614">
        <ele>199</ele>
        <time>2017-05-22T10:05:36Z</time>
      </trkpt>
      <trkpt lat="46.01868" lon="4.7614">
        <ele>199</ele>
        <time>2017-05-22T10:05:38Z</time>
      </trkpt>
      <trkpt lat="46.01864" lon="4.76139">
        <ele>199</ele>
        <time>2017-05-22T10:05:39Z</time>
      </trkpt>
      <trkpt lat="46.01856" lon="4.76136">
        <ele>199</ele>
        <time>2017-05-22T10:05:41Z</time>
      </trkpt>
      <trkpt lat="46.01852" lon="4.76135">
        <ele>199</ele>
        <time>2017-05-22T10:05:42Z</time>
      </trkpt>
      <trkpt lat="46.01844" lon="4.76135">
        <ele>199</ele>
        <time>2017-05-22T10:05:44Z</time>
      </trkpt>
      <trkpt lat="46.0184" lon="4.76135">
        <ele>199</ele>
        <time>2017-05-22T10:05:45Z</time>
      </trkpt>
      <trkpt lat="46.01832" lon="4.76133">
        <ele>198</ele>
        <time>2017-05-22T10:05:47Z</time>
      </trkpt>
      <trkpt lat="46.01827" lon="4.76134">
        <ele>198</ele>
        <time>2017-05-22T10:05:48Z</time>
      </trkpt>
      <trkpt lat="46.01821" lon="4.76134">
        <ele>198</ele>
        <time>2017-05-22T10:05:49Z</time>
      </trkpt>
      <trkpt lat="46.01816" lon="4.76134">
        <ele>198</ele>
        <time>2017-05-22T10:05:50Z</time>
      </trkpt>
      <trkpt lat="46.01811" lon="4.76134">
        <ele>198</ele>
        <time>2017-05-22T10:05:51Z</time>
      </trkpt>
      <trkpt lat="46.01806" lon="4.76133">
        <ele>198</ele>
        <time>2017-05-22T10:05:52Z</time>
      </trkpt>
      <trkpt lat="46.01801" lon="4.76132">
        <ele>198</ele>
        <time>2017-05-22T10:05:53Z</time>
      </trkpt>
      <trkpt lat="46.01796" lon="4.76132">
        <ele>198</ele>
        <time>2017-05-22T10:05:54Z</time>
      </trkpt>
      <trkpt lat="46.01791" lon="4.76131">
        <ele>198</ele>
        <time>2017-05-22T10:05:55Z</time>
      </trkpt>
      <trkpt lat="46.01787" lon="4.76131">
        <ele>198</ele>
        <time>2017-05-22T10:05:56Z</time>
      </trkpt>
      <trkpt lat="46.01782" lon="4.7613">
        <ele>198</ele>
        <time>2017-05-22T10:05:57Z</time>
      </trkpt>
      <trkpt lat="46.01777" lon="4.7613">
        <ele>198</ele>
        <time>2017-05-22T10:05:58Z</time>
      </trkpt>
      <trkpt lat="46.01772" lon="4.7613">
        <ele>198</ele>
        <time>2017-05-22T10:05:59Z</time>
      </trkpt>
      <trkpt lat="46.01767" lon="4.76131">
        <ele>198</ele>
        <time>2017-05-22T10:06:00Z</time>
      </trkpt>
      <trkpt lat="46.01758" lon="4.76131">
        <ele>198</ele>
        <time>2017-05-22T10:06:02Z</time>
      </trkpt>
      <trkpt lat="46.01753" lon="4.76131">
        <ele>198</ele>
        <time>2017-05-22T10:06:03Z</time>
      </trkpt>
      <trkpt lat="46.01746" lon="4.76129">
        <ele>197</ele>
        <time>2017-05-22T10:06:05Z</time>
      </trkpt>
      <trkpt lat="46.01741" lon="4.76128">
        <ele>197</ele>
        <time>2017-05-22T10:06:06Z</time>
      </trkpt>
      <trkpt lat="46.01733" lon="4.76129">
        <ele>197</ele>
        <time>2017-05-22T10:06:08Z</time>
      </trkpt>
      <trkpt lat="46.01729" lon="4.76129">
        <ele>197</ele>
        <time>2017-05-22T10:06:09Z</time>
      </trkpt>
      <trkpt lat="46.01722" lon="4.76128">
        <ele>197</ele>
        <time>2017-05-22T10:06:11Z</time>
      </trkpt>
      <trkpt lat="46.01718" lon="4.76128">
        <ele>197</ele>
        <time>2017-05-22T10:06:12Z</time>
      </trkpt>
      <trkpt lat="46.0171" lon="4.76126">
        <ele>197</ele>
        <time>2017-05-22T10:06:14Z</time>
      </trkpt>
      <trkpt lat="46.01706" lon="4.76124">
        <ele>198</ele>
        <time>2017-05-22T10:06:15Z</time>
      </trkpt>
      <trkpt lat="46.01698" lon="4.76123">
        <ele>198</ele>
        <time>2017-05-22T10:06:17Z</time>
      </trkpt>
      <trkpt lat="46.01694" lon="4.76122">
        <ele>198</ele>
        <time>2017-05-22T10:06:18Z</time>
      </trkpt>
      <trkpt lat="46.01687" lon="4.76121">
        <ele>198</ele>
        <time>2017-05-22T10:06:20Z</time>
      </trkpt>
      <trkpt lat="46.01682" lon="4.7612">
        <ele>198</ele>
        <time>2017-05-22T10:06:21Z</time>
      </trkpt>
      <trkpt lat="46.01674" lon="4.76118">
        <ele>198</ele>
        <time>2017-05-22T10:06:23Z</time>
      </trkpt>
      <trkpt lat="46.01669" lon="4.76118">
        <ele>198</ele>
        <time>2017-05-22T10:06:24Z</time>
      </trkpt>
      <trkpt lat="46.01661" lon="4.76118">
        <ele>199</ele>
        <time>2017-05-22T10:06:26Z</time>
      </trkpt>
      <trkpt lat="46.01657" lon="4.76117">
        <ele>199</ele>
        <time>2017-05-22T10:06:27Z</time>
      </trkpt>
      <trkpt lat="46.01648" lon="4.76116">
        <ele>199</ele>
        <time>2017-05-22T10:06:29Z</time>
      </trkpt>
      <trkpt lat="46.01644" lon="4.76116">
        <ele>199</ele>
        <time>2017-05-22T10:06:30Z</time>
      </trkpt>
      <trkpt lat="46.01636" lon="4.76116">
        <ele>199</ele>
        <time>2017-05-22T10:06:32Z</time>
      </trkpt>
      <trkpt lat="46.01632" lon="4.76115">
        <ele>199</ele>
        <time>2017-05-22T10:06:33Z</time>
      </trkpt>
      <trkpt lat="46.01623" lon="4.76113">
        <ele>200</ele>
        <time>2017-05-22T10:06:35Z</time>
      </trkpt>
      <trkpt lat="46.01619" lon="4.76112">
        <ele>200</ele>
        <time>2017-05-22T10:06:36Z</time>
      </trkpt>
      <trkpt lat="46.01613" lon="4.76112">
        <ele>200</ele>
        <time>2017-05-22T10:06:37Z</time>
      </trkpt>
      <trkpt lat="46.01608" lon="4.76111">
        <ele>200</ele>
        <time>2017-05-22T10:06:38Z</time>
      </trkpt>
      <trkpt lat="46.01602" lon="4.7611">
        <ele>200</ele>
        <time>2017-05-22T10:06:39Z</time>
      </trkpt>
      <trkpt lat="46.01596" lon="4.7611">
        <ele>200</ele>
        <time>2017-05-22T10:06:40Z</time>
      </trkpt>
      <trkpt lat="46.01591" lon="4.76109">
        <ele>200</ele>
        <time>2017-05-22T10:06:41Z</time>
      </trkpt>
      <trkpt lat="46.01585" lon="4.76108">
        <ele>200</ele>
        <time>2017-05-22T10:06:42Z</time>
      </trkpt>
      <trkpt lat="46.01579" lon="4.76108">
        <ele>202</ele>
        <time>2017-05-22T10:06:43Z</time>
      </trkpt>
      <trkpt lat="46.01574" lon="4.76107">
        <ele>202</ele>
        <time>2017-05-22T10:06:44Z</time>
      </trkpt>
      <trkpt lat="46.01566" lon="4.76105">
        <ele>202</ele>
        <time>2017-05-22T10:06:46Z</time>
      </trkpt>
      <trkpt lat="46.01561" lon="4.76105">
        <ele>202</ele>
        <time>2017-05-22T10:06:47Z</time>
      </trkpt>
      <trkpt lat="46.01554" lon="4.76101">
        <ele>202</ele>
        <time>2017-05-22T10:06:49Z</time>
      </trkpt>
      <trkpt lat="46.01551" lon="4.76099">
        <ele>202</ele>
        <time>2017-05-22T10:06:50Z</time>
      </trkpt>
      <trkpt lat="46.01543" lon="4.76095">
        <ele>202</ele>
        <time>2017-05-22T10:06:52Z</time>
      </trkpt>
      <trkpt lat="46.01539" lon="4.76093">
        <ele>202</ele>
        <time>2017-05-22T10:06:53Z</time>
      </trkpt>
      <trkpt lat="46.01532" lon="4.7609">
        <ele>202</ele>
        <time>2017-05-22T10:06:55Z</time>
      </trkpt>
      <trkpt lat="46.01527" lon="4.76089">
        <ele>202</ele>
        <time>2017-05-22T10:06:56Z</time>
      </trkpt>
      <trkpt lat="46.01523" lon="4.76088">
        <ele>202</ele>
        <time>2017-05-22T10:06:57Z</time>
      </trkpt>
      <trkpt lat="46.01518" lon="4.76087">
        <ele>203</ele>
        <time>2017-05-22T10:06:58Z</time>
      </trkpt>
      <trkpt lat="46.01513" lon="4.76087">
        <ele>203</ele>
        <time>2017-05-22T10:06:59Z</time>
      </trkpt>
      <trkpt lat="46.01507" lon="4.76086">
        <ele>203</ele>
        <time>2017-05-22T10:07:00Z</time>
      </trkpt>
      <trkpt lat="46.01501" lon="4.76085">
        <ele>203</ele>
        <time>2017-05-22T10:07:01Z</time>
      </trkpt>
      <trkpt lat="46.01495" lon="4.76083">
        <ele>203</ele>
        <time>2017-05-22T10:07:02Z</time>
      </trkpt>
      <trkpt lat="46.0149" lon="4.76081">
        <ele>203</ele>
        <time>2017-05-22T10:07:03Z</time>
      </trkpt>
      <trkpt lat="46.01485" lon="4.76079">
        <ele>203</ele>
        <time>2017-05-22T10:07:04Z</time>
      </trkpt>
      <trkpt lat="46.0148" lon="4.76076">
        <ele>203</ele>
        <time>2017-05-22T10:07:05Z</time>
      </trkpt>
      <trkpt lat="46.01475" lon="4.76075">
        <ele>203</ele>
        <time>2017-05-22T10:07:06Z</time>
      </trkpt>
      <trkpt lat="46.0147" lon="4.76074">
        <ele>203</ele>
        <time>2017-05-22T10:07:07Z</time>
      </trkpt>
      <trkpt lat="46.01466" lon="4.76073">
        <ele>203</ele>
        <time>2017-05-22T10:07:08Z</time>
      </trkpt>
      <trkpt lat="46.01461" lon="4.76072">
        <ele>203</ele>
        <time>2017-05-22T10:07:09Z</time>
      </trkpt>
      <trkpt lat="46.01457" lon="4.76071">
        <ele>203</ele>
        <time>2017-05-22T10:07:10Z</time>
      </trkpt>
      <trkpt lat="46.01449" lon="4.76068">
        <ele>203</ele>
        <time>2017-05-22T10:07:12Z</time>
      </trkpt>
      <trkpt lat="46.01446" lon="4.76066">
        <ele>203</ele>
        <time>2017-05-22T10:07:13Z</time>
      </trkpt>
      <trkpt lat="46.0144" lon="4.76061">
        <ele>203</ele>
        <time>2017-05-22T10:07:15Z</time>
      </trkpt>
      <trkpt lat="46.01437" lon="4.76058">
        <ele>203</ele>
        <time>2017-05-22T10:07:16Z</time>
      </trkpt>
      <trkpt lat="46.0143" lon="4.76052">
        <ele>204</ele>
        <time>2017-05-22T10:07:18Z</time>
      </trkpt>
      <trkpt lat="46.01426" lon="4.7605">
        <ele>204</ele>
        <time>2017-05-22T10:07:19Z</time>
      </trkpt>
      <trkpt lat="46.01422" lon="4.76047">
        <ele>204</ele>
        <time>2017-05-22T10:07:20Z</time>
      </trkpt>
      <trkpt lat="46.01417" lon="4.76044">
        <ele>204</ele>
        <time>2017-05-22T10:07:21Z</time>
      </trkpt>
      <trkpt lat="46.01411" lon="4.76041">
        <ele>204</ele>
        <time>2017-05-22T10:07:22Z</time>
      </trkpt>
      <trkpt lat="46.01404" lon="4.7604">
        <ele>204</ele>
        <time>2017-05-22T10:07:23Z</time>
      </trkpt>
      <trkpt lat="46.01398" lon="4.76039">
        <ele>203</ele>
        <time>2017-05-22T10:07:24Z</time>
      </trkpt>
      <trkpt lat="46.01392" lon="4.7604">
        <ele>203</ele>
        <time>2017-05-22T10:07:25Z</time>
      </trkpt>
      <trkpt lat="46.01385" lon="4.76041">
        <ele>203</ele>
        <time>2017-05-22T10:07:26Z</time>
      </trkpt>
      <trkpt lat="46.01379" lon="4.76042">
        <ele>203</ele>
        <time>2017-05-22T10:07:27Z</time>
      </trkpt>
      <trkpt lat="46.01374" lon="4.76044">
        <ele>203</ele>
        <time>2017-05-22T10:07:28Z</time>
      </trkpt>
      <trkpt lat="46.01368" lon="4.76045">
        <ele>203</ele>
        <time>2017-05-22T10:07:29Z</time>
      </trkpt>
      <trkpt lat="46.01363" lon="4.76047">
        <ele>203</ele>
        <time>2017-05-22T10:07:30Z</time>
      </trkpt>
      <trkpt lat="46.01359" lon="4.76049">
        <ele>203</ele>
        <time>2017-05-22T10:07:31Z</time>
      </trkpt>
      <trkpt lat="46.01354" lon="4.7605">
        <ele>203</ele>
        <time>2017-05-22T10:07:32Z</time>
      </trkpt>
      <trkpt lat="46.01348" lon="4.7605">
        <ele>203</ele>
        <time>2017-05-22T10:07:33Z</time>
      </trkpt>
      <trkpt lat="46.01343" lon="4.7605">
        <ele>203</ele>
        <time>2017-05-22T10:07:34Z</time>
      </trkpt>
      <trkpt lat="46.01338" lon="4.76051">
        <ele>203</ele>
        <time>2017-05-22T10:07:35Z</time>
      </trkpt>
      <trkpt lat="46.01334" lon="4.76052">
        <ele>203</ele>
        <time>2017-05-22T10:07:36Z</time>
      </trkpt>
      <trkpt lat="46.01329" lon="4.76054">
        <ele>203</ele>
        <time>2017-05-22T10:07:37Z</time>
      </trkpt>
      <trkpt lat="46.0132" lon="4.76057">
        <ele>203</ele>
        <time>2017-05-22T10:07:39Z</time>
      </trkpt>
      <trkpt lat="46.01316" lon="4.76058">
        <ele>203</ele>
        <time>2017-05-22T10:07:40Z</time>
      </trkpt>
      <trkpt lat="46.01309" lon="4.7606">
        <ele>203</ele>
        <time>2017-05-22T10:07:42Z</time>
      </trkpt>
      <trkpt lat="46.01304" lon="4.7606">
        <ele>203</ele>
        <time>2017-05-22T10:07:43Z</time>
      </trkpt>
      <trkpt lat="46.013" lon="4.76062">
        <ele>203</ele>
        <time>2017-05-22T10:07:44Z</time>
      </trkpt>
      <trkpt lat="46.01295" lon="4.76064">
        <ele>204</ele>
        <time>2017-05-22T10:07:45Z</time>
      </trkpt>
      <trkpt lat="46.0129" lon="4.76066">
        <ele>204</ele>
        <time>2017-05-22T10:07:46Z</time>
      </trkpt>
      <trkpt lat="46.01284" lon="4.76067">
        <ele>204</ele>
        <time>2017-05-22T10:07:47Z</time>
      </trkpt>
      <trkpt lat="46.01279" lon="4.76069">
        <ele>204</ele>
        <time>2017-05-22T10:07:48Z</time>
      </trkpt>
      <trkpt lat="46.01273" lon="4.76069">
        <ele>204</ele>
        <time>2017-05-22T10:07:49Z</time>
      </trkpt>
      <trkpt lat="46.01267" lon="4.76071">
        <ele>204</ele>
        <time>2017-05-22T10:07:50Z</time>
      </trkpt>
      <trkpt lat="46.01261" lon="4.76071">
        <ele>204</ele>
        <time>2017-05-22T10:07:51Z</time>
      </trkpt>
      <trkpt lat="46.01256" lon="4.76071">
        <ele>204</ele>
        <time>2017-05-22T10:07:52Z</time>
      </trkpt>
      <trkpt lat="46.01251" lon="4.76071">
        <ele>204</ele>
        <time>2017-05-22T10:07:53Z</time>
      </trkpt>
      <trkpt lat="46.01246" lon="4.76072">
        <ele>205</ele>
        <time>2017-05-22T10:07:54Z</time>
      </trkpt>
      <trkpt lat="46.01242" lon="4.76072">
        <ele>205</ele>
        <time>2017-05-22T10:07:55Z</time>
      </trkpt>
      <trkpt lat="46.01237" lon="4.76071">
        <ele>205</ele>
        <time>2017-05-22T10:07:56Z</time>
      </trkpt>
      <trkpt lat="46.01233" lon="4.76069">
        <ele>205</ele>
        <time>2017-05-22T10:07:57Z</time>
      </trkpt>
      <trkpt lat="46.01228" lon="4.76068">
        <ele>206</ele>
        <time>2017-05-22T10:07:58Z</time>
      </trkpt>
      <trkpt lat="46.01222" lon="4.76067">
        <ele>206</ele>
        <time>2017-05-22T10:07:59Z</time>
      </trkpt>
      <trkpt lat="46.01217" lon="4.76065">
        <ele>206</ele>
        <time>2017-05-22T10:08:00Z</time>
      </trkpt>
      <trkpt lat="46.01211" lon="4.76063">
        <ele>206</ele>
        <time>2017-05-22T10:08:01Z</time>
      </trkpt>
      <trkpt lat="46.01205" lon="4.76061">
        <ele>206</ele>
        <time>2017-05-22T10:08:02Z</time>
      </trkpt>
      <trkpt lat="46.012" lon="4.76059">
        <ele>206</ele>
        <time>2017-05-22T10:08:03Z</time>
      </trkpt>
      <trkpt lat="46.01196" lon="4.76058">
        <ele>206</ele>
        <time>2017-05-22T10:08:04Z</time>
      </trkpt>
      <trkpt lat="46.01192" lon="4.76055">
        <ele>206</ele>
        <time>2017-05-22T10:08:05Z</time>
      </trkpt>
      <trkpt lat="46.01184" lon="4.76052">
        <ele>207</ele>
        <time>2017-05-22T10:08:07Z</time>
      </trkpt>
      <trkpt lat="46.01181" lon="4.7605">
        <ele>207</ele>
        <time>2017-05-22T10:08:08Z</time>
      </trkpt>
      <trkpt lat="46.01173" lon="4.76047">
        <ele>207</ele>
        <time>2017-05-22T10:08:10Z</time>
      </trkpt>
      <trkpt lat="46.01169" lon="4.76047">
        <ele>207</ele>
        <time>2017-05-22T10:08:11Z</time>
      </trkpt>
      <trkpt lat="46.01161" lon="4.76044">
        <ele>208</ele>
        <time>2017-05-22T10:08:15Z</time>
      </trkpt>
      <trkpt lat="46.0116" lon="4.76043">
        <ele>208</ele>
        <time>2017-05-22T10:08:16Z</time>
      </trkpt>
      <trkpt lat="46.01152" lon="4.76042">
        <ele>208</ele>
        <time>2017-05-22T10:08:19Z</time>
      </trkpt>
      <trkpt lat="46.01149" lon="4.76044">
        <ele>208</ele>
        <time>2017-05-22T10:08:20Z</time>
      </trkpt>
      <trkpt lat="46.01141" lon="4.76047">
        <ele>208</ele>
        <time>2017-05-22T10:08:22Z</time>
      </trkpt>
      <trkpt lat="46.01137" lon="4.76047">
        <ele>208</ele>
        <time>2017-05-22T10:08:23Z</time>
      </trkpt>
      <trkpt lat="46.01131" lon="4.76049">
        <ele>208</ele>
        <time>2017-05-22T10:08:25Z</time>
      </trkpt>
      <trkpt lat="46.01128" lon="4.7605">
        <ele>208</ele>
        <time>2017-05-22T10:08:26Z</time>
      </trkpt>
      <trkpt lat="46.0112" lon="4.76052">
        <ele>208</ele>
        <time>2017-05-22T10:08:28Z</time>
      </trkpt>
      <trkpt lat="46.01116" lon="4.76052">
        <ele>208</ele>
        <time>2017-05-22T10:08:29Z</time>
      </trkpt>
      <trkpt lat="46.01107" lon="4.76054">
        <ele>208</ele>
        <time>2017-05-22T10:08:32Z</time>
      </trkpt>
      <trkpt lat="46.01104" lon="4.76054">
        <ele>208</ele>
        <time>2017-05-22T10:08:33Z</time>
      </trkpt>
      <trkpt lat="46.01097" lon="4.76055">
        <ele>208</ele>
        <time>2017-05-22T10:08:35Z</time>
      </trkpt>
      <trkpt lat="46.01094" lon="4.76055">
        <ele>208</ele>
        <time>2017-05-22T10:08:36Z</time>
      </trkpt>
      <trkpt lat="46.01085" lon="4.76055">
        <ele>208</ele>
        <time>2017-05-22T10:08:39Z</time>
      </trkpt>
      <trkpt lat="46.01082" lon="4.76056">
        <ele>209</ele>
        <time>2017-05-22T10:08:40Z</time>
      </trkpt>
      <trkpt lat="46.01075" lon="4.76058">
        <ele>209</ele>
        <time>2017-05-22T10:08:42Z</time>
      </trkpt>
      <trkpt lat="46.01072" lon="4.76059">
        <ele>209</ele>
        <time>2017-05-22T10:08:43Z</time>
      </trkpt>
      <trkpt lat="46.01065" lon="4.76061">
        <ele>209</ele>
        <time>2017-05-22T10:08:46Z</time>
      </trkpt>
      <trkpt lat="46.01062" lon="4.76062">
        <ele>209</ele>
        <time>2017-05-22T10:08:47Z</time>
      </trkpt>
      <trkpt lat="46.01054" lon="4.76063">
        <ele>210</ele>
        <time>2017-05-22T10:08:49Z</time>
      </trkpt>
      <trkpt lat="46.0105" lon="4.76064">
        <ele>210</ele>
        <time>2017-05-22T10:08:50Z</time>
      </trkpt>
      <trkpt lat="46.01042" lon="4.76065">
        <ele>210</ele>
        <time>2017-05-22T10:08:52Z</time>
      </trkpt>
      <trkpt lat="46.01039" lon="4.76065">
        <ele>210</ele>
        <time>2017-05-22T10:08:53Z</time>
      </trkpt>
      <trkpt lat="46.01032" lon="4.76066">
        <ele>210</ele>
        <time>2017-05-22T10:08:56Z</time>
      </trkpt>
      <trkpt lat="46.0103" lon="4.76066">
        <ele>210</ele>
        <time>2017-05-22T10:08:57Z</time>
      </trkpt>
      <trkpt lat="46.01022" lon="4.76068">
        <ele>210</ele>
        <time>2017-05-22T10:09:00Z</time>
      </trkpt>
      <trkpt lat="46.01019" lon="4.76068">
        <ele>210</ele>
        <time>2017-05-22T10:09:01Z</time>
      </trkpt>
      <trkpt lat="46.01013" lon="4.76067">
        <ele>211</ele>
        <time>2017-05-22T10:09:03Z</time>
      </trkpt>
      <trkpt lat="46.01009" lon="4.76068">
        <ele>211</ele>
        <time>2017-05-22T10:09:04Z</time>
      </trkpt>
      <trkpt lat="46.01002" lon="4.76069">
        <ele>211</ele>
        <time>2017-05-22T10:09:06Z</time>
      </trkpt>
      <trkpt lat="46.00999" lon="4.7607">
        <ele>212</ele>
        <time>2017-05-22T10:09:07Z</time>
      </trkpt>
      <trkpt lat="46.00991" lon="4.76071">
        <ele>212</ele>
        <time>2017-05-22T10:09:10Z</time>
      </trkpt>
      <trkpt lat="46.00989" lon="4.76072">
        <ele>212</ele>
        <time>2017-05-22T10:09:11Z</time>
      </trkpt>
      <trkpt lat="46.00982" lon="4.76074">
        <ele>212</ele>
        <time>2017-05-22T10:13:51Z</time>
      </trkpt>
      <trkpt lat="46.0098" lon="4.76069">
        <ele>212</ele>
        <time>2017-05-22T10:13:52Z</time>
      </trkpt>
      <trkpt lat="46.00973" lon="4.76075">
        <ele>212</ele>
        <time>2017-05-22T10:15:57Z</time>
      </trkpt>
      <trkpt lat="46.00971" lon="4.76076">
        <ele>212</ele>
        <time>2017-05-22T10:15:58Z</time>
      </trkpt>
      <trkpt lat="46.00965" lon="4.76077">
        <ele>212</ele>
        <time>2017-05-22T10:16:01Z</time>
      </trkpt>
      <trkpt lat="46.00962" lon="4.76077">
        <ele>212</ele>
        <time>2017-05-22T10:16:02Z</time>
      </trkpt>
      <trkpt lat="46.00955" lon="4.76078">
        <ele>212</ele>
        <time>2017-05-22T10:16:04Z</time>
      </trkpt>
      <trkpt lat="46.00952" lon="4.76079">
        <ele>212</ele>
        <time>2017-05-22T10:16:05Z</time>
      </trkpt>
      <trkpt lat="46.00944" lon="4.76079">
        <ele>212</ele>
        <time>2017-05-22T10:16:08Z</time>
      </trkpt>
      <trkpt lat="46.00941" lon="4.7608">
        <ele>212</ele>
        <time>2017-05-22T10:16:09Z</time>
      </trkpt>
      <trkpt lat="46.00935" lon="4.76082">
        <ele>212</ele>
        <time>2017-05-22T10:16:11Z</time>
      </trkpt>
      <trkpt lat="46.00932" lon="4.76083">
        <ele>212</ele>
        <time>2017-05-22T10:16:12Z</time>
      </trkpt>
      <trkpt lat="46.00925" lon="4.76085">
        <ele>213</ele>
        <time>2017-05-22T10:16:14Z</time>
      </trkpt>
      <trkpt lat="46.00922" lon="4.76086">
        <ele>213</ele>
        <time>2017-05-22T10:16:15Z</time>
      </trkpt>
      <trkpt lat="46.00915" lon="4.76088">
        <ele>213</ele>
        <time>2017-05-22T10:16:17Z</time>
      </trkpt>
      <trkpt lat="46.00912" lon="4.76088">
        <ele>214</ele>
        <time>2017-05-22T10:16:18Z</time>
      </trkpt>
      <trkpt lat="46.00905" lon="4.7609">
        <ele>214</ele>
        <time>2017-05-22T10:16:20Z</time>
      </trkpt>
      <trkpt lat="46.00901" lon="4.76091">
        <ele>214</ele>
        <time>2017-05-22T10:16:21Z</time>
      </trkpt>
      <trkpt lat="46.00895" lon="4.76092">
        <ele>214</ele>
        <time>2017-05-22T10:16:23Z</time>
      </trkpt>
      <trkpt lat="46.00891" lon="4.76093">
        <ele>215</ele>
        <time>2017-05-22T10:16:24Z</time>
      </trkpt>
      <trkpt lat="46.00884" lon="4.76094">
        <ele>215</ele>
        <time>2017-05-22T10:16:26Z</time>
      </trkpt>
      <trkpt lat="46.00881" lon="4.76095">
        <ele>215</ele>
        <time>2017-05-22T10:16:27Z</time>
      </trkpt>
      <trkpt lat="46.00874" lon="4.76096">
        <ele>215</ele>
        <time>2017-05-22T10:16:29Z</time>
      </trkpt>
      <trkpt lat="46.0087" lon="4.76097">
        <ele>215</ele>
        <time>2017-05-22T10:16:30Z</time>
      </trkpt>
      <trkpt lat="46.00863" lon="4.76098">
        <ele>215</ele>
        <time>2017-05-22T10:16:32Z</time>
      </trkpt>
      <trkpt lat="46.0086" lon="4.76099">
        <ele>215</ele>
        <time>2017-05-22T10:16:33Z</time>
      </trkpt>
      <trkpt lat="46.00853" lon="4.76102">
        <ele>215</ele>
        <time>2017-05-22T10:16:35Z</time>
      </trkpt>
      <trkpt lat="46.00849" lon="4.76103">
        <ele>216</ele>
        <time>2017-05-22T10:16:36Z</time>
      </trkpt>
      <trkpt lat="46.00842" lon="4.76103">
        <ele>216</ele>
        <time>2017-05-22T10:16:38Z</time>
      </trkpt>
      <trkpt lat="46.00839" lon="4.76103">
        <ele>216</ele>
        <time>2017-05-22T10:16:39Z</time>
      </trkpt>
      <trkpt lat="46.00833" lon="4.76105">
        <ele>217</ele>
        <time>2017-05-22T10:16:41Z</time>
      </trkpt>
      <trkpt lat="46.0083" lon="4.76106">
        <ele>218</ele>
        <time>2017-05-22T10:16:42Z</time>
      </trkpt>
      <trkpt lat="46.00823" lon="4.76107">
        <ele>218</ele>
        <time>2017-05-22T10:16:45Z</time>
      </trkpt>
      <trkpt lat="46.0082" lon="4.76107">
        <ele>218</ele>
        <time>2017-05-22T10:16:46Z</time>
      </trkpt>
      <trkpt lat="46.00812" lon="4.76107">
        <ele>218</ele>
        <time>2017-05-22T10:16:49Z</time>
      </trkpt>
      <trkpt lat="46.00809" lon="4.76107">
        <ele>218</ele>
        <time>2017-05-22T10:16:50Z</time>
      </trkpt>
      <trkpt lat="46.00801" lon="4.76107">
        <ele>218</ele>
        <time>2017-05-22T10:16:53Z</time>
      </trkpt>
      <trkpt lat="46.00798" lon="4.76107">
        <ele>218</ele>
        <time>2017-05-22T10:16:54Z</time>
      </trkpt>
      <trkpt lat="46.00791" lon="4.76108">
        <ele>219</ele>
        <time>2017-05-22T10:16:57Z</time>
      </trkpt>
      <trkpt lat="46.00788" lon="4.76108">
        <ele>219</ele>
        <time>2017-05-22T10:16:58Z</time>
      </trkpt>
      <trkpt lat="46.00781" lon="4.76109">
        <ele>219</ele>
        <time>2017-05-22T10:17:00Z</time>
      </trkpt>
      <trkpt lat="46.00778" lon="4.7611">
        <ele>219</ele>
        <time>2017-05-22T10:17:01Z</time>
      </trkpt>
      <trkpt lat="46.0077" lon="4.76108">
        <ele>219</ele>
        <time>2017-05-22T10:17:04Z</time>
      </trkpt>
      <trkpt lat="46.00768" lon="4.76109">
        <ele>219</ele>
        <time>2017-05-22T10:17:05Z</time>
      </trkpt>
      <trkpt lat="46.00761" lon="4.76111">
        <ele>219</ele>
        <time>2017-05-22T10:17:07Z</time>
      </trkpt>
      <trkpt lat="46.00758" lon="4.76111">
        <ele>219</ele>
        <time>2017-05-22T10:17:08Z</time>
      </trkpt>
      <trkpt lat="46.00751" lon="4.76113">
        <ele>219</ele>
        <time>2017-05-22T10:17:10Z</time>
      </trkpt>
      <trkpt lat="46.00749" lon="4.76113">
        <ele>223</ele>
        <time>2017-05-22T10:17:11Z</time>
      </trkpt>
      <trkpt lat="46.00742" lon="4.76113">
        <ele>223</ele>
        <time>2017-05-22T10:17:14Z</time>
      </trkpt>
      <trkpt lat="46.0074" lon="4.76113">
        <ele>223</ele>
        <time>2017-05-22T10:17:15Z</time>
      </trkpt>
      <trkpt lat="46.00732" lon="4.76114">
        <ele>223</ele>
        <time>2017-05-22T10:17:18Z</time>
      </trkpt>
      <trkpt lat="46.00729" lon="4.76114">
        <ele>223</ele>
        <time>2017-05-22T10:17:19Z</time>
      </trkpt>
      <trkpt lat="46.00722" lon="4.76115">
        <ele>224</ele>
        <time>2017-05-22T10:17:21Z</time>
      </trkpt>
      <trkpt lat="46.00719" lon="4.76116">
        <ele>224</ele>
        <time>2017-05-22T10:17:22Z</time>
      </trkpt>
      <trkpt lat="46.00712" lon="4.76117">
        <ele>224</ele>
        <time>2017-05-22T10:17:25Z</time>
      </trkpt>
      <trkpt lat="46.0071" lon="4.76118">
        <ele>224</ele>
        <time>2017-05-22T10:17:26Z</time>
      </trkpt>
      <trkpt lat="46.00701" lon="4.76119">
        <ele>225</ele>
        <time>2017-05-22T10:17:29Z</time>
      </trkpt>
      <trkpt lat="46.00698" lon="4.76118">
        <ele>225</ele>
        <time>2017-05-22T10:17:30Z</time>
      </trkpt>
      <trkpt lat="46.0069" lon="4.76118">
        <ele>225</ele>
        <time>2017-05-22T10:17:33Z</time>
      </trkpt>
      <trkpt lat="46.00687" lon="4.76118">
        <ele>225</ele>
        <time>2017-05-22T10:17:34Z</time>
      </trkpt>
      <trkpt lat="46.00678" lon="4.76122">
        <ele>226</ele>
        <time>2017-05-22T10:17:38Z</time>
      </trkpt>
      <trkpt lat="46.00676" lon="4.76122">
        <ele>226</ele>
        <time>2017-05-22T10:17:39Z</time>
      </trkpt>
      <trkpt lat="46.00668" lon="4.7612">
        <ele>226</ele>
        <time>2017-05-22T10:17:42Z</time>
      </trkpt>
      <trkpt lat="46.00666" lon="4.76121">
        <ele>228</ele>
        <time>2017-05-22T10:17:43Z</time>
      </trkpt>
      <trkpt lat="46.00662" lon="4.76121">
        <ele>228</ele>
        <time>2017-05-22T10:17:53Z</time>
      </trkpt>
      <trkpt lat="46.00662" lon="4.7612">
        <ele>228</ele>
        <time>2017-05-22T10:17:54Z</time>
      </trkpt>
      <trkpt lat="46.00661" lon="4.76119">
        <ele>228</ele>
        <time>2017-05-22T10:17:55Z</time>
      </trkpt>
      <trkpt lat="46.00661" lon="4.76119">
        <ele>228</ele>
        <time>2017-05-22T10:17:56Z</time>
      </trkpt>
      <trkpt lat="46.0066" lon="4.76118">
        <ele>228</ele>
        <time>2017-05-22T10:18:00Z</time>
      </trkpt>
      <trkpt lat="46.00659" lon="4.76118">
        <ele>228</ele>
        <time>2017-05-22T10:18:01Z</time>
      </trkpt>
      <trkpt lat="46.00654" lon="4.76118">
        <ele>228</ele>
        <time>2017-05-22T10:18:06Z</time>
      </trkpt>
      <trkpt lat="46.0065" lon="4.76118">
        <ele>228</ele>
        <time>2017-05-22T10:18:07Z</time>
      </trkpt>
      <trkpt lat="46.00642" lon="4.76115">
        <ele>228</ele>
        <time>2017-05-22T10:18:15Z</time>
      </trkpt>
      <trkpt lat="46.00641" lon="4.76114">
        <ele>228</ele>
        <time>2017-05-22T10:18:16Z</time>
      </trkpt>
      <trkpt lat="46.00633" lon="4.7611">
        <ele>227</ele>
        <time>2017-05-22T10:18:39Z</time>
      </trkpt>
      <trkpt lat="46.00631" lon="4.76109">
        <ele>227</ele>
        <time>2017-05-22T10:18:40Z</time>
      </trkpt>
      <trkpt lat="46.00623" lon="4.76114">
        <ele>227</ele>
        <time>2017-05-22T10:18:46Z</time>
      </trkpt>
      <trkpt lat="46.00623" lon="4.76117">
        <ele>228</ele>
        <time>2017-05-22T10:18:47Z</time>
      </trkpt>
      <trkpt lat="46.00623" lon="4.76126">
        <ele>228</ele>
        <time>2017-05-22T10:18:49Z</time>
      </trkpt>
      <trkpt lat="46.00623" lon="4.76131">
        <ele>228</ele>
        <time>2017-05-22T10:18:50Z</time>
      </trkpt>
      <trkpt lat="46.00624" lon="4.76141">
        <ele>228</ele>
        <time>2017-05-22T10:18:52Z</time>
      </trkpt>
      <trkpt lat="46.00624" lon="4.76146">
        <ele>228</ele>
        <time>2017-05-22T10:18:53Z</time>
      </trkpt>
      <trkpt lat="46.00623" lon="4.76158">
        <ele>228</ele>
        <time>2017-05-22T10:18:56Z</time>
      </trkpt>
      <trkpt lat="46.00623" lon="4.76161">
        <ele>228</ele>
        <time>2017-05-22T10:18:57Z</time>
      </trkpt>
      <trkpt lat="46.00623" lon="4.76171">
        <ele>230</ele>
        <time>2017-05-22T10:18:59Z</time>
      </trkpt>
      <trkpt lat="46.00622" lon="4.76177">
        <ele>230</ele>
        <time>2017-05-22T10:19:00Z</time>
      </trkpt>
      <trkpt lat="46.00621" lon="4.76189">
        <ele>230</ele>
        <time>2017-05-22T10:19:02Z</time>
      </trkpt>
      <trkpt lat="46.00619" lon="4.76193">
        <ele>230</ele>
        <time>2017-05-22T10:19:03Z</time>
      </trkpt>
      <trkpt lat="46.00613" lon="4.76197">
        <ele>230</ele>
        <time>2017-05-22T10:19:05Z</time>
      </trkpt>
      <trkpt lat="46.0061" lon="4.76197">
        <ele>230</ele>
        <time>2017-05-22T10:19:06Z</time>
      </trkpt>
      <trkpt lat="46.00602" lon="4.76194">
        <ele>230</ele>
        <time>2017-05-22T10:19:08Z</time>
      </trkpt>
      <trkpt lat="46.00598" lon="4.76192">
        <ele>230</ele>
        <time>2017-05-22T10:19:09Z</time>
      </trkpt>
      <trkpt lat="46.00592" lon="4.76191">
        <ele>230</ele>
        <time>2017-05-22T10:19:10Z</time>
      </trkpt>
      <trkpt lat="46.00587" lon="4.76189">
        <ele>230</ele>
        <time>2017-05-22T10:19:11Z</time>
      </trkpt>
      <trkpt lat="46.00581" lon="4.76188">
        <ele>230</ele>
        <time>2017-05-22T10:19:12Z</time>
      </trkpt>
      <trkpt lat="46.00575" lon="4.76186">
        <ele>230</ele>
        <time>2017-05-22T10:19:13Z</time>
      </trkpt>
      <trkpt lat="46.00569" lon="4.76185">
        <ele>230</ele>
        <time>2017-05-22T10:19:14Z</time>
      </trkpt>
      <trkpt lat="46.00563" lon="4.76183">
        <ele>230</ele>
        <time>2017-05-22T10:19:15Z</time>
      </trkpt>
      <trkpt lat="46.00557" lon="4.76182">
        <ele>230</ele>
        <time>2017-05-22T10:19:16Z</time>
      </trkpt>
      <trkpt lat="46.00551" lon="4.76179">
        <ele>230</ele>
        <time>2017-05-22T10:19:17Z</time>
      </trkpt>
      <trkpt lat="46.00544" lon="4.76177">
        <ele>230</ele>
        <time>2017-05-22T10:19:18Z</time>
      </trkpt>
      <trkpt lat="46.00537" lon="4.76173">
        <ele>230</ele>
        <time>2017-05-22T10:19:19Z</time>
      </trkpt>
      <trkpt lat="46.0053" lon="4.76168">
        <ele>230</ele>
        <time>2017-05-22T10:19:20Z</time>
      </trkpt>
      <trkpt lat="46.00524" lon="4.76162">
        <ele>228</ele>
        <time>2017-05-22T10:19:21Z</time>
      </trkpt>
      <trkpt lat="46.00517" lon="4.76156">
        <ele>228</ele>
        <time>2017-05-22T10:19:22Z</time>
      </trkpt>
      <trkpt lat="46.00511" lon="4.76149">
        <ele>228</ele>
        <time>2017-05-22T10:19:23Z</time>
      </trkpt>
      <trkpt lat="46.00505" lon="4.76142">
        <ele>228</ele>
        <time>2017-05-22T10:19:24Z</time>
      </trkpt>
      <trkpt lat="46.00498" lon="4.76134">
        <ele>228</ele>
        <time>2017-05-22T10:19:25Z</time>
      </trkpt>
      <trkpt lat="46.00492" lon="4.76126">
        <ele>227</ele>
        <time>2017-05-22T10:19:26Z</time>
      </trkpt>
      <trkpt lat="46.00485" lon="4.76118">
        <ele>227</ele>
        <time>2017-05-22T10:19:27Z</time>
      </trkpt>
      <trkpt lat="46.00478" lon="4.76111">
        <ele>227</ele>
        <time>2017-05-22T10:19:28Z</time>
      </trkpt>
      <trkpt lat="46.0047" lon="4.76104">
        <ele>227</ele>
        <time>2017-05-22T10:19:29Z</time>
      </trkpt>
      <trkpt lat="46.00463" lon="4.76097">
        <ele>227</ele>
        <time>2017-05-22T10:19:30Z</time>
      </trkpt>
      <trkpt lat="46.00455" lon="4.7609">
        <ele>227</ele>
        <time>2017-05-22T10:19:31Z</time>
      </trkpt>
      <trkpt lat="46.00447" lon="4.76085">
        <ele>227</ele>
        <time>2017-05-22T10:19:32Z</time>
      </trkpt>
      <trkpt lat="46.00439" lon="4.76082">
        <ele>224</ele>
        <time>2017-05-22T10:19:33Z</time>
      </trkpt>
      <trkpt lat="46.00431" lon="4.76079">
        <ele>225</ele>
        <time>2017-05-22T10:19:34Z</time>
      </trkpt>
      <trkpt lat="46.00423" lon="4.76076">
        <ele>225</ele>
        <time>2017-05-22T10:19:35Z</time>
      </trkpt>
      <trkpt lat="46.00413" lon="4.76074">
        <ele>226</ele>
        <time>2017-05-22T10:19:36Z</time>
      </trkpt>
      <trkpt lat="46.00404" lon="4.76074">
        <ele>226</ele>
        <time>2017-05-22T10:19:37Z</time>
      </trkpt>
      <trkpt lat="46.00395" lon="4.76074">
        <ele>226</ele>
        <time>2017-05-22T10:19:38Z</time>
      </trkpt>
      <trkpt lat="46.00388" lon="4.76075">
        <ele>226</ele>
        <time>2017-05-22T10:19:39Z</time>
      </trkpt>
      <trkpt lat="46.00381" lon="4.76075">
        <ele>226</ele>
        <time>2017-05-22T10:19:40Z</time>
      </trkpt>
      <trkpt lat="46.00376" lon="4.76075">
        <ele>226</ele>
        <time>2017-05-22T10:19:41Z</time>
      </trkpt>
      <trkpt lat="46.0037" lon="4.76071">
        <ele>226</ele>
        <time>2017-05-22T10:19:42Z</time>
      </trkpt>
      <trkpt lat="46.00367" lon="4.76068">
        <ele>226</ele>
        <time>2017-05-22T10:19:43Z</time>
      </trkpt>
      <trkpt lat="46.00366" lon="4.76057">
        <ele>226</ele>
        <time>2017-05-22T10:19:45Z</time>
      </trkpt>
      <trkpt lat="46.0037" lon="4.76055">
        <ele>226</ele>
        <time>2017-05-22T10:19:46Z</time>
      </trkpt>
      <trkpt lat="46.00376" lon="4.76049">
        <ele>225</ele>
        <time>2017-05-22T10:19:47Z</time>
      </trkpt>
      <trkpt lat="46.00382" lon="4.76042">
        <ele>225</ele>
        <time>2017-05-22T10:19:48Z</time>
      </trkpt>
      <trkpt lat="46.00389" lon="4.76036">
        <ele>225</ele>
        <time>2017-05-22T10:19:49Z</time>
      </trkpt>
      <trkpt lat="46.00396" lon="4.76029">
        <ele>224</ele>
        <time>2017-05-22T10:19:50Z</time>
      </trkpt>
      <trkpt lat="46.00404" lon="4.76021">
        <ele>224</ele>
        <time>2017-05-22T10:19:51Z</time>
      </trkpt>
      <trkpt lat="46.00411" lon="4.76015">
        <ele>223</ele>
        <time>2017-05-22T10:19:52Z</time>
      </trkpt>
      <trkpt lat="46.00419" lon="4.76008">
        <ele>222</ele>
        <time>2017-05-22T10:19:53Z</time>
      </trkpt>
      <trkpt lat="46.00427" lon="4.76001">
        <ele>222</ele>
        <time>2017-05-22T10:19:54Z</time>
      </trkpt>
      <trkpt lat="46.00433" lon="4.75992">
        <ele>220</ele>
        <time>2017-05-22T10:19:55Z</time>
      </trkpt>
      <trkpt lat="46.00439" lon="4.75983">
        <ele>220</ele>
        <time>2017-05-22T10:19:56Z</time>
      </trkpt>
      <trkpt lat="46.00444" lon="4.75972">
        <ele>219</ele>
        <time>2017-05-22T10:19:57Z</time>
      </trkpt>
      <trkpt lat="46.00447" lon="4.7596">
        <ele>219</ele>
        <time>2017-05-22T10:19:58Z</time>
      </trkpt>
      <trkpt lat="46.00448" lon="4.75948">
        <ele>219</ele>
        <time>2017-05-22T10:19:59Z</time>
      </trkpt>
      <trkpt lat="46.00447" lon="4.75937">
        <ele>218</ele>
        <time>2017-05-22T10:20:00Z</time>
      </trkpt>
      <trkpt lat="46.00445" lon="4.75925">
        <ele>218</ele>
        <time>2017-05-22T10:20:01Z</time>
      </trkpt>
      <trkpt lat="46.00441" lon="4.75915">
        <ele>217</ele>
        <time>2017-05-22T10:20:02Z</time>
      </trkpt>
      <trkpt lat="46.00438" lon="4.75905">
        <ele>217</ele>
        <time>2017-05-22T10:20:03Z</time>
      </trkpt>
      <trkpt lat="46.00433" lon="4.75894">
        <ele>217</ele>
        <time>2017-05-22T10:20:04Z</time>
      </trkpt>
      <trkpt lat="46.00428" lon="4.75883">
        <ele>217</ele>
        <time>2017-05-22T10:20:05Z</time>
      </trkpt>
      <trkpt lat="46.00423" lon="4.75872">
        <ele>217</ele>
        <time>2017-05-22T10:20:06Z</time>
      </trkpt>
      <trkpt lat="46.00417" lon="4.75861">
        <ele>216</ele>
        <time>2017-05-22T10:20:07Z</time>
      </trkpt>
      <trkpt lat="46.00411" lon="4.75849">
        <ele>214</ele>
        <time>2017-05-22T10:20:08Z</time>
      </trkpt>
      <trkpt lat="46.00406" lon="4.75838">
        <ele>214</ele>
        <time>2017-05-22T10:20:09Z</time>
      </trkpt>
      <trkpt lat="46.00399" lon="4.75828">
        <ele>213</ele>
        <time>2017-05-22T10:20:10Z</time>
      </trkpt>
      <trkpt lat="46.00392" lon="4.75818">
        <ele>213</ele>
        <time>2017-05-22T10:20:11Z</time>
      </trkpt>
      <trkpt lat="46.00386" lon="4.75808">
        <ele>213</ele>
        <time>2017-05-22T10:20:12Z</time>
      </trkpt>
      <trkpt lat="46.00379" lon="4.75799">
        <ele>213</ele>
        <time>2017-05-22T10:20:13Z</time>
      </trkpt>
      <trkpt lat="46.00372" lon="4.7579">
        <ele>213</ele>
        <time>2017-05-22T10:20:14Z</time>
      </trkpt>
      <trkpt lat="46.00366" lon="4.75778">
        <ele>213</ele>
        <time>2017-05-22T10:20:15Z</time>
      </trkpt>
      <trkpt lat="46.0036" lon="4.75767">
        <ele>212</ele>
        <time>2017-05-22T10:20:16Z</time>
      </trkpt>
      <trkpt lat="46.00355" lon="4.75755">
        <ele>211</ele>
        <time>2017-05-22T10:20:17Z</time>
      </trkpt>
      <trkpt lat="46.0035" lon="4.75744">
        <ele>210</ele>
        <time>2017-05-22T10:20:18Z</time>
      </trkpt>
      <trkpt lat="46.00344" lon="4.75734">
        <ele>210</ele>
        <time>2017-05-22T10:20:19Z</time>
      </trkpt>
      <trkpt lat="46.00338" lon="4.75723">
        <ele>210</ele>
        <time>2017-05-22T10:20:20Z</time>
      </trkpt>
      <trkpt lat="46.0033" lon="4.75709">
        <ele>208</ele>
        <time>2017-05-22T10:20:21Z</time>
      </trkpt>
      <trkpt lat="46.00323" lon="4.75699">
        <ele>208</ele>
        <time>2017-05-22T10:20:22Z</time>
      </trkpt>
      <trkpt lat="46.00316" lon="4.75688">
        <ele>207</ele>
        <time>2017-05-22T10:20:23Z</time>
      </trkpt>
      <trkpt lat="46.00308" lon="4.75677">
        <ele>207</ele>
        <time>2017-05-22T10:20:24Z</time>
      </trkpt>
      <trkpt lat="46.00301" lon="4.75666">
        <ele>206</ele>
        <time>2017-05-22T10:20:25Z</time>
      </trkpt>
      <trkpt lat="46.00292" lon="4.75655">
        <ele>206</ele>
        <time>2017-05-22T10:20:26Z</time>
      </trkpt>
      <trkpt lat="46.00285" lon="4.75643">
        <ele>206</ele>
        <time>2017-05-22T10:20:27Z</time>
      </trkpt>
      <trkpt lat="46.00278" lon="4.75632">
        <ele>206</ele>
        <time>2017-05-22T10:20:28Z</time>
      </trkpt>
      <trkpt lat="46.00271" lon="4.7562">
        <ele>206</ele>
        <time>2017-05-22T10:20:29Z</time>
      </trkpt>
      <trkpt lat="46.00263" lon="4.75608">
        <ele>206</ele>
        <time>2017-05-22T10:20:30Z</time>
      </trkpt>
      <trkpt lat="46.00256" lon="4.75597">
        <ele>205</ele>
        <time>2017-05-22T10:20:31Z</time>
      </trkpt>
      <trkpt lat="46.00248" lon="4.75585">
        <ele>205</ele>
        <time>2017-05-22T10:20:32Z</time>
      </trkpt>
      <trkpt lat="46.0024" lon="4.75572">
        <ele>205</ele>
        <time>2017-05-22T10:20:33Z</time>
      </trkpt>
      <trkpt lat="46.00233" lon="4.75559">
        <ele>205</ele>
        <time>2017-05-22T10:20:34Z</time>
      </trkpt>
      <trkpt lat="46.00227" lon="4.75546">
        <ele>205</ele>
        <time>2017-05-22T10:20:35Z</time>
      </trkpt>
      <trkpt lat="46.00223" lon="4.7553">
        <ele>204</ele>
        <time>2017-05-22T10:20:36Z</time>
      </trkpt>
      <trkpt lat="46.00221" lon="4.75514">
        <ele>204</ele>
        <time>2017-05-22T10:20:37Z</time>
      </trkpt>
      <trkpt lat="46.00219" lon="4.75498">
        <ele>198</ele>
        <time>2017-05-22T10:20:38Z</time>
      </trkpt>
      <trkpt lat="46.00219" lon="4.75481">
        <ele>198</ele>
        <time>2017-05-22T10:20:39Z</time>
      </trkpt>
      <trkpt lat="46.00221" lon="4.75463">
        <ele>197</ele>
        <time>2017-05-22T10:20:40Z</time>
      </trkpt>
      <trkpt lat="46.00221" lon="4.75447">
        <ele>197</ele>
        <time>2017-05-22T10:20:41Z</time>
      </trkpt>
      <trkpt lat="46.00221" lon="4.75431">
        <ele>196</ele>
        <time>2017-05-22T10:20:42Z</time>
      </trkpt>
      <trkpt lat="46.0022" lon="4.75415">
        <ele>192</ele>
        <time>2017-05-22T10:20:43Z</time>
      </trkpt>
      <trkpt lat="46.0022" lon="4.75398">
        <ele>192</ele>
        <time>2017-05-22T10:20:44Z</time>
      </trkpt>
      <trkpt lat="46.00221" lon="4.75381">
        <ele>192</ele>
        <time>2017-05-22T10:20:45Z</time>
      </trkpt>
      <trkpt lat="46.00221" lon="4.75366">
        <ele>191</ele>
        <time>2017-05-22T10:20:46Z</time>
      </trkpt>
      <trkpt lat="46.0022" lon="4.75349">
        <ele>190</ele>
        <time>2017-05-22T10:20:47Z</time>
      </trkpt>
      <trkpt lat="46.0022" lon="4.75333">
        <ele>186</ele>
        <time>2017-05-22T10:20:48Z</time>
      </trkpt>
      <trkpt lat="46.00219" lon="4.75317">
        <ele>186</ele>
        <time>2017-05-22T10:20:49Z</time>
      </trkpt>
      <trkpt lat="46.00219" lon="4.75301">
        <ele>185</ele>
        <time>2017-05-22T10:20:50Z</time>
      </trkpt>
      <trkpt lat="46.00218" lon="4.75285">
        <ele>185</ele>
        <time>2017-05-22T10:20:51Z</time>
      </trkpt>
      <trkpt lat="46.00217" lon="4.75268">
        <ele>184</ele>
        <time>2017-05-22T10:20:52Z</time>
      </trkpt>
      <trkpt lat="46.00217" lon="4.75252">
        <ele>184</ele>
        <time>2017-05-22T10:20:53Z</time>
      </trkpt>
      <trkpt lat="46.00216" lon="4.75236">
        <ele>180</ele>
        <time>2017-05-22T10:20:54Z</time>
      </trkpt>
      <trkpt lat="46.00215" lon="4.75222">
        <ele>180</ele>
        <time>2017-05-22T10:20:55Z</time>
      </trkpt>
      <trkpt lat="46.00215" lon="4.75207">
        <ele>180</ele>
        <time>2017-05-22T10:20:56Z</time>
      </trkpt>
      <trkpt lat="46.00215" lon="4.75194">
        <ele>179</ele>
        <time>2017-05-22T10:20:57Z</time>
      </trkpt>
      <trkpt lat="46.00215" lon="4.75183">
        <ele>179</ele>
        <time>2017-05-22T10:20:58Z</time>
      </trkpt>
      <trkpt lat="46.00215" lon="4.75172">
        <ele>179</ele>
        <time>2017-05-22T10:20:59Z</time>
      </trkpt>
      <trkpt lat="46.00214" lon="4.75163">
        <ele>177</ele>
        <time>2017-05-22T10:21:00Z</time>
      </trkpt>
      <trkpt lat="46.00215" lon="4.75154">
        <ele>177</ele>
        <time>2017-05-22T10:21:01Z</time>
      </trkpt>
      <trkpt lat="46.00215" lon="4.75147">
        <ele>177</ele>
        <time>2017-05-22T10:21:02Z</time>
      </trkpt>
      <trkpt lat="46.00216" lon="4.75141">
        <ele>177</ele>
        <time>2017-05-22T10:21:03Z</time>
      </trkpt>
      <trkpt lat="46.00218" lon="4.75131">
        <ele>176</ele>
        <time>2017-05-22T10:21:05Z</time>
      </trkpt>
      <trkpt lat="46.00219" lon="4.75127">
        <ele>176</ele>
        <time>2017-05-22T10:21:06Z</time>
      </trkpt>
      <trkpt lat="46.0022" lon="4.75115">
        <ele>176</ele>
        <time>2017-05-22T10:21:11Z</time>
      </trkpt>
      <trkpt lat="46.00218" lon="4.75114">
        <ele>176</ele>
        <time>2017-05-22T10:21:12Z</time>
      </trkpt>
      <trkpt lat="46.00213" lon="4.75103">
        <ele>176</ele>
        <time>2017-05-22T10:21:23Z</time>
      </trkpt>
      <trkpt lat="46.00213" lon="4.751">
        <ele>176</ele>
        <time>2017-05-22T10:21:24Z</time>
      </trkpt>
      <trkpt lat="46.00213" lon="4.75087">
        <ele>176</ele>
        <time>2017-05-22T10:21:27Z</time>
      </trkpt>
      <trkpt lat="46.00214" lon="4.75082">
        <ele>174</ele>
        <time>2017-05-22T10:21:28Z</time>
      </trkpt>
      <trkpt lat="46.00214" lon="4.75073">
        <ele>174</ele>
        <time>2017-05-22T10:21:30Z</time>
      </trkpt>
      <trkpt lat="46.00214" lon="4.75068">
        <ele>174</ele>
        <time>2017-05-22T10:21:31Z</time>
      </trkpt>
      <trkpt lat="46.00213" lon="4.75058">
        <ele>174</ele>
        <time>2017-05-22T10:21:33Z</time>
      </trkpt>
      <trkpt lat="46.00213" lon="4.75054">
        <ele>174</ele>
        <time>2017-05-22T10:21:34Z</time>
      </trkpt>
      <trkpt lat="46.00216" lon="4.75045">
        <ele>173</ele>
        <time>2017-05-22T10:21:36Z</time>
      </trkpt>
      <trkpt lat="46.00215" lon="4.75041">
        <ele>173</ele>
        <time>2017-05-22T10:21:37Z</time>
      </trkpt>
      <trkpt lat="46.00213" lon="4.7503">
        <ele>173</ele>
        <time>2017-05-22T10:21:40Z</time>
      </trkpt>
      <trkpt lat="46.00213" lon="4.75027">
        <ele>173</ele>
        <time>2017-05-22T10:21:41Z</time>
      </trkpt>
      <trkpt lat="46.0021" lon="4.75015">
        <ele>173</ele>
        <time>2017-05-22T10:21:46Z</time>
      </trkpt>
      <trkpt lat="46.0021" lon="4.75013">
        <ele>173</ele>
        <time>2017-05-22T10:21:47Z</time>
      </trkpt>
      <trkpt lat="46.00209" lon="4.75003">
        <ele>173</ele>
        <time>2017-05-22T10:21:52Z</time>
      </trkpt>
      <trkpt lat="46.00209" lon="4.74999">
        <ele>170</ele>
        <time>2017-05-22T10:21:53Z</time>
      </trkpt>
      <trkpt lat="46.00209" lon="4.74986">
        <ele>170</ele>
        <time>2017-05-22T10:21:56Z</time>
      </trkpt>
      <trkpt lat="46.00209" lon="4.74984">
        <ele>170</ele>
        <time>2017-05-22T10:21:57Z</time>
      </trkpt>
      <trkpt lat="46.00206" lon="4.74973">
        <ele>169</ele>
        <time>2017-05-22T10:22:01Z</time>
      </trkpt>
      <trkpt lat="46.00206" lon="4.74969">
        <ele>169</ele>
        <time>2017-05-22T10:22:02Z</time>
      </trkpt>
      <trkpt lat="46.00203" lon="4.74959">
        <ele>169</ele>
        <time>2017-05-22T10:22:05Z</time>
      </trkpt>
      <trkpt lat="46.00203" lon="4.74956">
        <ele>169</ele>
        <time>2017-05-22T10:22:06Z</time>
      </trkpt>
      <trkpt lat="46.00201" lon="4.74945">
        <ele>168</ele>
        <time>2017-05-22T10:22:09Z</time>
      </trkpt>
      <trkpt lat="46.00201" lon="4.74941">
        <ele>168</ele>
        <time>2017-05-22T10:22:10Z</time>
      </trkpt>
      <trkpt lat="46.002" lon="4.7493">
        <ele>168</ele>
        <time>2017-05-22T10:22:13Z</time>
      </trkpt>
      <trkpt lat="46.00199" lon="4.74925">
        <ele>168</ele>
        <time>2017-05-22T10:22:14Z</time>
      </trkpt>
      <trkpt lat="46.00198" lon="4.74915">
        <ele>166</ele>
        <time>2017-05-22T10:22:16Z</time>
      </trkpt>
      <trkpt lat="46.00198" lon="4.74911">
        <ele>166</ele>
        <time>2017-05-22T10:22:17Z</time>
      </trkpt>
      <trkpt lat="46.00196" lon="4.749">
        <ele>166</ele>
        <time>2017-05-22T10:22:20Z</time>
      </trkpt>
      <trkpt lat="46.00195" lon="4.74897">
        <ele>166</ele>
        <time>2017-05-22T10:22:21Z</time>
      </trkpt>
      <trkpt lat="46.00194" lon="4.74886">
        <ele>166</ele>
        <time>2017-05-22T10:22:25Z</time>
      </trkpt>
      <trkpt lat="46.00193" lon="4.74882">
        <ele>166</ele>
        <time>2017-05-22T10:22:26Z</time>
      </trkpt>
      <trkpt lat="46.00191" lon="4.74872">
        <ele>166</ele>
        <time>2017-05-22T10:22:30Z</time>
      </trkpt>
      <trkpt lat="46.0019" lon="4.7487">
        <ele>166</ele>
        <time>2017-05-22T10:22:31Z</time>
      </trkpt>
      <trkpt lat="46.00187" lon="4.74871">
        <ele>166</ele>
        <time>2017-05-22T10:22:36Z</time>
      </trkpt>
      <trkpt lat="46.00187" lon="4.74872">
        <ele>166</ele>
        <time>2017-05-22T10:22:37Z</time>
      </trkpt>
      <trkpt lat="46.00186" lon="4.74875">
        <ele>166</ele>
        <time>2017-05-22T10:22:41Z</time>
      </trkpt>
      <trkpt lat="46.00186" lon="4.74876">
        <ele>166</ele>
        <time>2017-05-22T10:22:42Z</time>
      </trkpt>
      <trkpt lat="46.00186" lon="4.74888">
        <ele>166</ele>
        <time>2017-05-22T10:22:48Z</time>
      </trkpt>
      <trkpt lat="46.00186" lon="4.74891">
        <ele>166</ele>
        <time>2017-05-22T10:22:49Z</time>
      </trkpt>
      <trkpt lat="46.00186" lon="4.74903">
        <ele>166</ele>
        <time>2017-05-22T10:22:52Z</time>
      </trkpt>
      <trkpt lat="46.00186" lon="4.74906">
        <ele>166</ele>
        <time>2017-05-22T10:22:53Z</time>
      </trkpt>
      <trkpt lat="46.00187" lon="4.74916">
        <ele>166</ele>
        <time>2017-05-22T10:22:55Z</time>
      </trkpt>
      <trkpt lat="46.00187" lon="4.74921">
        <ele>167</ele>
        <time>2017-05-22T10:22:56Z</time>
      </trkpt>
      <trkpt lat="46.00188" lon="4.74931">
        <ele>168</ele>
        <time>2017-05-22T10:22:58Z</time>
      </trkpt>
      <trkpt lat="46.00189" lon="4.74936">
        <ele>168</ele>
        <time>2017-05-22T10:22:59Z</time>
      </trkpt>
      <trkpt lat="46.00191" lon="4.74948">
        <ele>168</ele>
        <time>2017-05-22T10:23:01Z</time>
      </trkpt>
      <trkpt lat="46.00191" lon="4.74953">
        <ele>169</ele>
        <time>2017-05-22T10:23:02Z</time>
      </trkpt>
      <trkpt lat="46.00192" lon="4.74959">
        <ele>169</ele>
        <time>2017-05-22T10:23:03Z</time>
      </trkpt>
      <trkpt lat="46.00193" lon="4.74966">
        <ele>169</ele>
        <time>2017-05-22T10:23:04Z</time>
      </trkpt>
      <trkpt lat="46.00194" lon="4.74973">
        <ele>169</ele>
        <time>2017-05-22T10:23:05Z</time>
      </trkpt>
      <trkpt lat="46.00195" lon="4.74979">
        <ele>169</ele>
        <time>2017-05-22T10:23:06Z</time>
      </trkpt>
      <trkpt lat="46.00196" lon="4.74992">
        <ele>170</ele>
        <time>2017-05-22T10:23:08Z</time>
      </trkpt>
      <trkpt lat="46.00196" lon="4.74996">
        <ele>170</ele>
        <time>2017-05-22T10:23:09Z</time>
      </trkpt>
      <trkpt lat="46.002" lon="4.75007">
        <ele>173</ele>
        <time>2017-05-22T10:23:13Z</time>
      </trkpt>
      <trkpt lat="46.00201" lon="4.7501">
        <ele>173</ele>
        <time>2017-05-22T10:23:14Z</time>
      </trkpt>
      <trkpt lat="46.00201" lon="4.75021">
        <ele>173</ele>
        <time>2017-05-22T10:23:17Z</time>
      </trkpt>
      <trkpt lat="46.00201" lon="4.75025">
        <ele>173</ele>
        <time>2017-05-22T10:23:18Z</time>
      </trkpt>
      <trkpt lat="46.00202" lon="4.75035">
        <ele>173</ele>
        <time>2017-05-22T10:23:20Z</time>
      </trkpt>
      <trkpt lat="46.00202" lon="4.75041">
        <ele>173</ele>
        <time>2017-05-22T10:23:21Z</time>
      </trkpt>
      <trkpt lat="46.00204" lon="4.75052">
        <ele>173</ele>
        <time>2017-05-22T10:23:23Z</time>
      </trkpt>
      <trkpt lat="46.00205" lon="4.75057">
        <ele>174</ele>
        <time>2017-05-22T10:23:24Z</time>
      </trkpt>
      <trkpt lat="46.00206" lon="4.75066">
        <ele>174</ele>
        <time>2017-05-22T10:23:26Z</time>
      </trkpt>
      <trkpt lat="46.00208" lon="4.75071">
        <ele>174</ele>
        <time>2017-05-22T10:23:27Z</time>
      </trkpt>
      <trkpt lat="46.00209" lon="4.75081">
        <ele>174</ele>
        <time>2017-05-22T10:23:29Z</time>
      </trkpt>
      <trkpt lat="46.00209" lon="4.75086">
        <ele>176</ele>
        <time>2017-05-22T10:23:30Z</time>
      </trkpt>
      <trkpt lat="46.00208" lon="4.75097">
        <ele>176</ele>
        <time>2017-05-22T10:23:33Z</time>
      </trkpt>
      <trkpt lat="46.00205" lon="4.751">
        <ele>176</ele>
        <time>2017-05-22T10:23:34Z</time>
      </trkpt>
      <trkpt lat="46.00197" lon="4.75103">
        <ele>176</ele>
        <time>2017-05-22T10:23:36Z</time>
      </trkpt>
      <trkpt lat="46.00191" lon="4.75104">
        <ele>176</ele>
        <time>2017-05-22T10:23:37Z</time>
      </trkpt>
      <trkpt lat="46.00185" lon="4.75104">
        <ele>176</ele>
        <time>2017-05-22T10:23:38Z</time>
      </trkpt>
      <trkpt lat="46.00179" lon="4.75105">
        <ele>176</ele>
        <time>2017-05-22T10:23:39Z</time>
      </trkpt>
      <trkpt lat="46.00175" lon="4.75106">
        <ele>176</ele>
        <time>2017-05-22T10:23:40Z</time>
      </trkpt>
      <trkpt lat="46.0017" lon="4.75106">
        <ele>176</ele>
        <time>2017-05-22T10:23:41Z</time>
      </trkpt>
      <trkpt lat="46.00166" lon="4.75107">
        <ele>175</ele>
        <time>2017-05-22T10:23:42Z</time>
      </trkpt>
      <trkpt lat="46.00161" lon="4.75107">
        <ele>175</ele>
        <time>2017-05-22T10:23:43Z</time>
      </trkpt>
      <trkpt lat="46.00152" lon="4.75108">
        <ele>175</ele>
        <time>2017-05-22T10:23:45Z</time>
      </trkpt>
      <trkpt lat="46.00148" lon="4.75109">
        <ele>175</ele>
        <time>2017-05-22T10:23:46Z</time>
      </trkpt>
      <trkpt lat="46.0014" lon="4.7511">
        <ele>175</ele>
        <time>2017-05-22T10:23:49Z</time>
      </trkpt>
      <trkpt lat="46.00138" lon="4.7511">
        <ele>175</ele>
        <time>2017-05-22T10:23:50Z</time>
      </trkpt>
      <trkpt lat="46.00137" lon="4.7511">
        <ele>175</ele>
        <time>2017-05-22T10:23:51Z</time>
      </trkpt>
      <trkpt lat="46.00137" lon="4.7511">
        <ele>175</ele>
        <time>2017-05-22T10:23:52Z</time>
      </trkpt>
      <trkpt lat="46.00136" lon="4.75109">
        <ele>175</ele>
        <time>2017-05-22T10:24:19Z</time>
      </trkpt>
      <trkpt lat="46.00134" lon="4.7511">
        <ele>175</ele>
        <time>2017-05-22T10:24:20Z</time>
      </trkpt>
      <trkpt lat="46.00126" lon="4.7511">
        <ele>175</ele>
        <time>2017-05-22T10:24:24Z</time>
      </trkpt>
      <trkpt lat="46.00124" lon="4.75109">
        <ele>175</ele>
        <time>2017-05-22T10:24:25Z</time>
      </trkpt>
      <trkpt lat="46.00117" lon="4.75109">
        <ele>175</ele>
        <time>2017-05-22T10:24:28Z</time>
      </trkpt>
      <trkpt lat="46.00115" lon="4.75108">
        <ele>175</ele>
        <time>2017-05-22T10:24:29Z</time>
      </trkpt>
      <trkpt lat="46.00108" lon="4.75108">
        <ele>175</ele>
        <time>2017-05-22T10:24:31Z</time>
      </trkpt>
      <trkpt lat="46.00105" lon="4.75108">
        <ele>175</ele>
        <time>2017-05-22T10:24:32Z</time>
      </trkpt>
      <trkpt lat="46.00098" lon="4.75108">
        <ele>175</ele>
        <time>2017-05-22T10:24:34Z</time>
      </trkpt>
      <trkpt lat="46.00094" lon="4.75108">
        <ele>175</ele>
        <time>2017-05-22T10:24:35Z</time>
      </trkpt>
      <trkpt lat="46.00087" lon="4.75108">
        <ele>174</ele>
        <time>2017-05-22T10:24:37Z</time>
      </trkpt>
      <trkpt lat="46.00083" lon="4.75107">
        <ele>174</ele>
        <time>2017-05-22T10:24:38Z</time>
      </trkpt>
      <trkpt lat="46.00074" lon="4.75107">
        <ele>174</ele>
        <time>2017-05-22T10:24:40Z</time>
      </trkpt>
      <trkpt lat="46.00069" lon="4.75107">
        <ele>174</ele>
        <time>2017-05-22T10:24:41Z</time>
      </trkpt>
      <trkpt lat="46.0006" lon="4.75107">
        <ele>174</ele>
        <time>2017-05-22T10:24:43Z</time>
      </trkpt>
      <trkpt lat="46.00056" lon="4.75108">
        <ele>174</ele>
        <time>2017-05-22T10:24:44Z</time>
      </trkpt>
      <trkpt lat="46.00048" lon="4.75107">
        <ele>174</ele>
        <time>2017-05-22T10:24:46Z</time>
      </trkpt>
      <trkpt lat="46.00044" lon="4.75107">
        <ele>174</ele>
        <time>2017-05-22T10:24:47Z</time>
      </trkpt>
      <trkpt lat="46.00039" lon="4.75108">
        <ele>174</ele>
        <time>2017-05-22T10:24:48Z</time>
      </trkpt>
      <trkpt lat="46.00034" lon="4.75109">
        <ele>174</ele>
        <time>2017-05-22T10:24:49Z</time>
      </trkpt>
      <trkpt lat="46.00029" lon="4.75108">
        <ele>174</ele>
        <time>2017-05-22T10:24:50Z</time>
      </trkpt>
      <trkpt lat="46.00024" lon="4.75108">
        <ele>174</ele>
        <time>2017-05-22T10:24:51Z</time>
      </trkpt>
      <trkpt lat="46.00017" lon="4.75108">
        <ele>174</ele>
        <time>2017-05-22T10:24:52Z</time>
      </trkpt>
      <trkpt lat="46.00012" lon="4.75109">
        <ele>174</ele>
        <time>2017-05-22T10:24:53Z</time>
      </trkpt>
      <trkpt lat="46.00006" lon="4.75111">
        <ele>174</ele>
        <time>2017-05-22T10:24:54Z</time>
      </trkpt>
      <trkpt lat="46.00001" lon="4.75114">
        <ele>174</ele>
        <time>2017-05-22T10:24:55Z</time>
      </trkpt>
      <trkpt lat="45.99996" lon="4.75116">
        <ele>173</ele>
        <time>2017-05-22T10:24:56Z</time>
      </trkpt>
      <trkpt lat="45.99991" lon="4.75119">
        <ele>173</ele>
        <time>2017-05-22T10:24:57Z</time>
      </trkpt>
      <trkpt lat="45.99986" lon="4.75121">
        <ele>173</ele>
        <time>2017-05-22T10:24:58Z</time>
      </trkpt>
      <trkpt lat="45.99981" lon="4.75124">
        <ele>173</ele>
        <time>2017-05-22T10:24:59Z</time>
      </trkpt>
      <trkpt lat="45.99975" lon="4.75126">
        <ele>173</ele>
        <time>2017-05-22T10:25:00Z</time>
      </trkpt>
      <trkpt lat="45.9997" lon="4.75128">
        <ele>173</ele>
        <time>2017-05-22T10:25:01Z</time>
      </trkpt>
      <trkpt lat="45.99966" lon="4.75131">
        <ele>173</ele>
        <time>2017-05-22T10:25:02Z</time>
      </trkpt>
      <trkpt lat="45.99961" lon="4.75134">
        <ele>173</ele>
        <time>2017-05-22T10:25:03Z</time>
      </trkpt>
      <trkpt lat="45.99956" lon="4.75136">
        <ele>173</ele>
        <time>2017-05-22T10:25:04Z</time>
      </trkpt>
      <trkpt lat="45.99951" lon="4.75139">
        <ele>173</ele>
        <time>2017-05-22T10:25:05Z</time>
      </trkpt>
      <trkpt lat="45.99945" lon="4.75141">
        <ele>173</ele>
        <time>2017-05-22T10:25:06Z</time>
      </trkpt>
      <trkpt lat="45.9994" lon="4.75143">
        <ele>173</ele>
        <time>2017-05-22T10:25:07Z</time>
      </trkpt>
      <trkpt lat="45.99934" lon="4.75145">
        <ele>173</ele>
        <time>2017-05-22T10:25:08Z</time>
      </trkpt>
      <trkpt lat="45.99929" lon="4.75147">
        <ele>173</ele>
        <time>2017-05-22T10:25:09Z</time>
      </trkpt>
      <trkpt lat="45.99924" lon="4.75149">
        <ele>173</ele>
        <time>2017-05-22T10:25:10Z</time>
      </trkpt>
      <trkpt lat="45.99919" lon="4.75152">
        <ele>173</ele>
        <time>2017-05-22T10:25:11Z</time>
      </trkpt>
      <trkpt lat="45.99914" lon="4.75154">
        <ele>173</ele>
        <time>2017-05-22T10:25:12Z</time>
      </trkpt>
      <trkpt lat="45.9991" lon="4.75156">
        <ele>173</ele>
        <time>2017-05-22T10:25:13Z</time>
      </trkpt>
      <trkpt lat="45.99905" lon="4.75158">
        <ele>172</ele>
        <time>2017-05-22T10:25:14Z</time>
      </trkpt>
      <trkpt lat="45.99901" lon="4.75161">
        <ele>172</ele>
        <time>2017-05-22T10:25:15Z</time>
      </trkpt>
      <trkpt lat="45.99896" lon="4.75164">
        <ele>172</ele>
        <time>2017-05-22T10:25:16Z</time>
      </trkpt>
      <trkpt lat="45.99891" lon="4.75166">
        <ele>172</ele>
        <time>2017-05-22T10:25:17Z</time>
      </trkpt>
      <trkpt lat="45.99887" lon="4.75168">
        <ele>174</ele>
        <time>2017-05-22T10:25:18Z</time>
      </trkpt>
      <trkpt lat="45.99882" lon="4.75171">
        <ele>174</ele>
        <time>2017-05-22T10:25:19Z</time>
      </trkpt>
      <trkpt lat="45.99878" lon="4.75172">
        <ele>174</ele>
        <time>2017-05-22T10:25:20Z</time>
      </trkpt>
      <trkpt lat="45.99873" lon="4.75174">
        <ele>174</ele>
        <time>2017-05-22T10:25:21Z</time>
      </trkpt>
      <trkpt lat="45.99865" lon="4.75178">
        <ele>174</ele>
        <time>2017-05-22T10:25:23Z</time>
      </trkpt>
      <trkpt lat="45.99861" lon="4.7518">
        <ele>174</ele>
        <time>2017-05-22T10:25:24Z</time>
      </trkpt>
      <trkpt lat="45.99853" lon="4.75183">
        <ele>174</ele>
        <time>2017-05-22T10:25:26Z</time>
      </trkpt>
      <trkpt lat="45.99847" lon="4.75186">
        <ele>174</ele>
        <time>2017-05-22T10:25:27Z</time>
      </trkpt>
      <trkpt lat="45.99842" lon="4.75189">
        <ele>174</ele>
        <time>2017-05-22T10:25:28Z</time>
      </trkpt>
      <trkpt lat="45.99837" lon="4.75191">
        <ele>174</ele>
        <time>2017-05-22T10:25:29Z</time>
      </trkpt>
      <trkpt lat="45.99831" lon="4.75194">
        <ele>174</ele>
        <time>2017-05-22T10:25:30Z</time>
      </trkpt>
      <trkpt lat="45.99825" lon="4.75197">
        <ele>174</ele>
        <time>2017-05-22T10:25:31Z</time>
      </trkpt>
      <trkpt lat="45.9982" lon="4.752">
        <ele>174</ele>
        <time>2017-05-22T10:25:32Z</time>
      </trkpt>
      <trkpt lat="45.99814" lon="4.75203">
        <ele>174</ele>
        <time>2017-05-22T10:25:33Z</time>
      </trkpt>
      <trkpt lat="45.99809" lon="4.75205">
        <ele>174</ele>
        <time>2017-05-22T10:25:34Z</time>
      </trkpt>
      <trkpt lat="45.99804" lon="4.75207">
        <ele>174</ele>
        <time>2017-05-22T10:25:35Z</time>
      </trkpt>
      <trkpt lat="45.99799" lon="4.75209">
        <ele>174</ele>
        <time>2017-05-22T10:25:36Z</time>
      </trkpt>
      <trkpt lat="45.99794" lon="4.75211">
        <ele>174</ele>
        <time>2017-05-22T10:25:37Z</time>
      </trkpt>
      <trkpt lat="45.99789" lon="4.75214">
        <ele>174</ele>
        <time>2017-05-22T10:25:38Z</time>
      </trkpt>
      <trkpt lat="45.99784" lon="4.75216">
        <ele>174</ele>
        <time>2017-05-22T10:25:39Z</time>
      </trkpt>
      <trkpt lat="45.99779" lon="4.75218">
        <ele>174</ele>
        <time>2017-05-22T10:25:40Z</time>
      </trkpt>
      <trkpt lat="45.99774" lon="4.7522">
        <ele>175</ele>
        <time>2017-05-22T10:25:41Z</time>
      </trkpt>
      <trkpt lat="45.9977" lon="4.75222">
        <ele>175</ele>
        <time>2017-05-22T10:25:42Z</time>
      </trkpt>
      <trkpt lat="45.99765" lon="4.75224">
        <ele>175</ele>
        <time>2017-05-22T10:25:43Z</time>
      </trkpt>
      <trkpt lat="45.9976" lon="4.75226">
        <ele>175</ele>
        <time>2017-05-22T10:25:44Z</time>
      </trkpt>
      <trkpt lat="45.99755" lon="4.75229">
        <ele>175</ele>
        <time>2017-05-22T10:25:45Z</time>
      </trkpt>
      <trkpt lat="45.99751" lon="4.75231">
        <ele>175</ele>
        <time>2017-05-22T10:25:46Z</time>
      </trkpt>
      <trkpt lat="45.99746" lon="4.75232">
        <ele>175</ele>
        <time>2017-05-22T10:25:47Z</time>
      </trkpt>
      <trkpt lat="45.99741" lon="4.75235">
        <ele>175</ele>
        <time>2017-05-22T10:25:48Z</time>
      </trkpt>
      <trkpt lat="45.99736" lon="4.75237">
        <ele>175</ele>
        <time>2017-05-22T10:25:49Z</time>
      </trkpt>
      <trkpt lat="45.99728" lon="4.75241">
        <ele>175</ele>
        <time>2017-05-22T10:25:51Z</time>
      </trkpt>
      <trkpt lat="45.99724" lon="4.75242">
        <ele>175</ele>
        <time>2017-05-22T10:25:52Z</time>
      </trkpt>
      <trkpt lat="45.9972" lon="4.75245">
        <ele>174</ele>
        <time>2017-05-22T10:25:53Z</time>
      </trkpt>
      <trkpt lat="45.99715" lon="4.75247">
        <ele>174</ele>
        <time>2017-05-22T10:25:54Z</time>
      </trkpt>
      <trkpt lat="45.9971" lon="4.75249">
        <ele>174</ele>
        <time>2017-05-22T10:25:55Z</time>
      </trkpt>
      <trkpt lat="45.99704" lon="4.75252">
        <ele>176</ele>
        <time>2017-05-22T10:25:56Z</time>
      </trkpt>
      <trkpt lat="45.99699" lon="4.75254">
        <ele>176</ele>
        <time>2017-05-22T10:25:57Z</time>
      </trkpt>
      <trkpt lat="45.99693" lon="4.75257">
        <ele>176</ele>
        <time>2017-05-22T10:25:58Z</time>
      </trkpt>
      <trkpt lat="45.99687" lon="4.7526">
        <ele>175</ele>
        <time>2017-05-22T10:25:59Z</time>
      </trkpt>
      <trkpt lat="45.99681" lon="4.75264">
        <ele>175</ele>
        <time>2017-05-22T10:26:00Z</time>
      </trkpt>
      <trkpt lat="45.99675" lon="4.75266">
        <ele>175</ele>
        <time>2017-05-22T10:26:01Z</time>
      </trkpt>
      <trkpt lat="45.99669" lon="4.75268">
        <ele>175</ele>
        <time>2017-05-22T10:26:02Z</time>
      </trkpt>
      <trkpt lat="45.99663" lon="4.7527">
        <ele>174</ele>
        <time>2017-05-22T10:26:03Z</time>
      </trkpt>
      <trkpt lat="45.99657" lon="4.75272">
        <ele>174</ele>
        <time>2017-05-22T10:26:04Z</time>
      </trkpt>
      <trkpt lat="45.99651" lon="4.75274">
        <ele>174</ele>
        <time>2017-05-22T10:26:05Z</time>
      </trkpt>
      <trkpt lat="45.99646" lon="4.75274">
        <ele>174</ele>
        <time>2017-05-22T10:26:06Z</time>
      </trkpt>
      <trkpt lat="45.99642" lon="4.75274">
        <ele>174</ele>
        <time>2017-05-22T10:26:07Z</time>
      </trkpt>
      <trkpt lat="45.99637" lon="4.75273">
        <ele>174</ele>
        <time>2017-05-22T10:26:08Z</time>
      </trkpt>
      <trkpt lat="45.99632" lon="4.75272">
        <ele>174</ele>
        <time>2017-05-22T10:26:09Z</time>
      </trkpt>
      <trkpt lat="45.99628" lon="4.75272">
        <ele>174</ele>
        <time>2017-05-22T10:26:10Z</time>
      </trkpt>
      <trkpt lat="45.99623" lon="4.75271">
        <ele>174</ele>
        <time>2017-05-22T10:26:11Z</time>
      </trkpt>
      <trkpt lat="45.99617" lon="4.75271">
        <ele>174</ele>
        <time>2017-05-22T10:26:12Z</time>
      </trkpt>
      <trkpt lat="45.99613" lon="4.75272">
        <ele>174</ele>
        <time>2017-05-22T10:26:13Z</time>
      </trkpt>
      <trkpt lat="45.99608" lon="4.75274">
        <ele>173</ele>
        <time>2017-05-22T10:26:14Z</time>
      </trkpt>
      <trkpt lat="45.99603" lon="4.75274">
        <ele>173</ele>
        <time>2017-05-22T10:26:15Z</time>
      </trkpt>
      <trkpt lat="45.99597" lon="4.75274">
        <ele>173</ele>
        <time>2017-05-22T10:26:16Z</time>
      </trkpt>
      <trkpt lat="45.99592" lon="4.75272">
        <ele>173</ele>
        <time>2017-05-22T10:26:17Z</time>
      </trkpt>
      <trkpt lat="45.99587" lon="4.7527">
        <ele>173</ele>
        <time>2017-05-22T10:26:18Z</time>
      </trkpt>
      <trkpt lat="45.99581" lon="4.75267">
        <ele>172</ele>
        <time>2017-05-22T10:26:19Z</time>
      </trkpt>
      <trkpt lat="45.99575" lon="4.75266">
        <ele>172</ele>
        <time>2017-05-22T10:26:20Z</time>
      </trkpt>
      <trkpt lat="45.99569" lon="4.75265">
        <ele>172</ele>
        <time>2017-05-22T10:26:21Z</time>
      </trkpt>
      <trkpt lat="45.99564" lon="4.75266">
        <ele>172</ele>
        <time>2017-05-22T10:26:22Z</time>
      </trkpt>
      <trkpt lat="45.99558" lon="4.7527">
        <ele>172</ele>
        <time>2017-05-22T10:26:23Z</time>
      </trkpt>
      <trkpt lat="45.99553" lon="4.75276">
        <ele>172</ele>
        <time>2017-05-22T10:26:24Z</time>
      </trkpt>
      <trkpt lat="45.9955" lon="4.75282">
        <ele>172</ele>
        <time>2017-05-22T10:26:25Z</time>
      </trkpt>
      <trkpt lat="45.99546" lon="4.75287">
        <ele>172</ele>
        <time>2017-05-22T10:26:26Z</time>
      </trkpt>
      <trkpt lat="45.99542" lon="4.75291">
        <ele>172</ele>
        <time>2017-05-22T10:26:27Z</time>
      </trkpt>
      <trkpt lat="45.99538" lon="4.75294">
        <ele>172</ele>
        <time>2017-05-22T10:26:28Z</time>
      </trkpt>
      <trkpt lat="45.99534" lon="4.75296">
        <ele>172</ele>
        <time>2017-05-22T10:26:29Z</time>
      </trkpt>
      <trkpt lat="45.99529" lon="4.75297">
        <ele>172</ele>
        <time>2017-05-22T10:26:30Z</time>
      </trkpt>
      <trkpt lat="45.99524" lon="4.75298">
        <ele>172</ele>
        <time>2017-05-22T10:26:31Z</time>
      </trkpt>
      <trkpt lat="45.99519" lon="4.75298">
        <ele>172</ele>
        <time>2017-05-22T10:26:32Z</time>
      </trkpt>
      <trkpt lat="45.99514" lon="4.75299">
        <ele>172</ele>
        <time>2017-05-22T10:26:33Z</time>
      </trkpt>
      <trkpt lat="45.99509" lon="4.753">
        <ele>172</ele>
        <time>2017-05-22T10:26:34Z</time>
      </trkpt>
      <trkpt lat="45.99504" lon="4.75301">
        <ele>172</ele>
        <time>2017-05-22T10:26:35Z</time>
      </trkpt>
      <trkpt lat="45.99499" lon="4.75302">
        <ele>171</ele>
        <time>2017-05-22T10:26:36Z</time>
      </trkpt>
      <trkpt lat="45.99494" lon="4.75303">
        <ele>171</ele>
        <time>2017-05-22T10:26:37Z</time>
      </trkpt>
      <trkpt lat="45.9949" lon="4.75304">
        <ele>171</ele>
        <time>2017-05-22T10:26:38Z</time>
      </trkpt>
      <trkpt lat="45.99485" lon="4.75305">
        <ele>171</ele>
        <time>2017-05-22T10:26:39Z</time>
      </trkpt>
      <trkpt lat="45.99479" lon="4.75306">
        <ele>171</ele>
        <time>2017-05-22T10:26:40Z</time>
      </trkpt>
      <trkpt lat="45.99474" lon="4.75306">
        <ele>171</ele>
        <time>2017-05-22T10:26:41Z</time>
      </trkpt>
      <trkpt lat="45.99468" lon="4.75307">
        <ele>171</ele>
        <time>2017-05-22T10:26:42Z</time>
      </trkpt>
      <trkpt lat="45.99462" lon="4.75308">
        <ele>171</ele>
        <time>2017-05-22T10:26:43Z</time>
      </trkpt>
      <trkpt lat="45.99456" lon="4.75309">
        <ele>171</ele>
        <time>2017-05-22T10:26:44Z</time>
      </trkpt>
      <trkpt lat="45.99451" lon="4.7531">
        <ele>171</ele>
        <time>2017-05-22T10:26:45Z</time>
      </trkpt>
      <trkpt lat="45.99445" lon="4.7531">
        <ele>171</ele>
        <time>2017-05-22T10:26:46Z</time>
      </trkpt>
      <trkpt lat="45.99439" lon="4.75311">
        <ele>171</ele>
        <time>2017-05-22T10:26:47Z</time>
      </trkpt>
      <trkpt lat="45.99434" lon="4.75311">
        <ele>171</ele>
        <time>2017-05-22T10:26:48Z</time>
      </trkpt>
      <trkpt lat="45.99428" lon="4.75312">
        <ele>171</ele>
        <time>2017-05-22T10:26:49Z</time>
      </trkpt>
      <trkpt lat="45.99422" lon="4.75313">
        <ele>171</ele>
        <time>2017-05-22T10:26:50Z</time>
      </trkpt>
      <trkpt lat="45.99417" lon="4.75314">
        <ele>170</ele>
        <time>2017-05-22T10:26:51Z</time>
      </trkpt>
      <trkpt lat="45.99411" lon="4.75317">
        <ele>170</ele>
        <time>2017-05-22T10:26:52Z</time>
      </trkpt>
      <trkpt lat="45.99405" lon="4.7532">
        <ele>170</ele>
        <time>2017-05-22T10:26:53Z</time>
      </trkpt>
      <trkpt lat="45.994" lon="4.75323">
        <ele>170</ele>
        <time>2017-05-22T10:26:54Z</time>
      </trkpt>
      <trkpt lat="45.99395" lon="4.75327">
        <ele>170</ele>
        <time>2017-05-22T10:26:55Z</time>
      </trkpt>
      <trkpt lat="45.9939" lon="4.75332">
        <ele>170</ele>
        <time>2017-05-22T10:26:56Z</time>
      </trkpt>
      <trkpt lat="45.99385" lon="4.75337">
        <ele>171</ele>
        <time>2017-05-22T10:26:57Z</time>
      </trkpt>
      <trkpt lat="45.9938" lon="4.75342">
        <ele>171</ele>
        <time>2017-05-22T10:26:58Z</time>
      </trkpt>
      <trkpt lat="45.99376" lon="4.75348">
        <ele>172</ele>
        <time>2017-05-22T10:26:59Z</time>
      </trkpt>
      <trkpt lat="45.99372" lon="4.75354">
        <ele>172</ele>
        <time>2017-05-22T10:27:00Z</time>
      </trkpt>
      <trkpt lat="45.99368" lon="4.7536">
        <ele>172</ele>
        <time>2017-05-22T10:27:01Z</time>
      </trkpt>
      <trkpt lat="45.99364" lon="4.75366">
        <ele>172</ele>
        <time>2017-05-22T10:27:02Z</time>
      </trkpt>
      <trkpt lat="45.9936" lon="4.75373">
        <ele>172</ele>
        <time>2017-05-22T10:27:03Z</time>
      </trkpt>
      <trkpt lat="45.99357" lon="4.75379">
        <ele>172</ele>
        <time>2017-05-22T10:27:04Z</time>
      </trkpt>
      <trkpt lat="45.99354" lon="4.75386">
        <ele>172</ele>
        <time>2017-05-22T10:27:05Z</time>
      </trkpt>
      <trkpt lat="45.9935" lon="4.75392">
        <ele>172</ele>
        <time>2017-05-22T10:27:06Z</time>
      </trkpt>
      <trkpt lat="45.99347" lon="4.75397">
        <ele>173</ele>
        <time>2017-05-22T10:27:07Z</time>
      </trkpt>
      <trkpt lat="45.99344" lon="4.75403">
        <ele>173</ele>
        <time>2017-05-22T10:27:08Z</time>
      </trkpt>
      <trkpt lat="45.99342" lon="4.75408">
        <ele>173</ele>
        <time>2017-05-22T10:27:09Z</time>
      </trkpt>
      <trkpt lat="45.99339" lon="4.75415">
        <ele>173</ele>
        <time>2017-05-22T10:27:10Z</time>
      </trkpt>
      <trkpt lat="45.99338" lon="4.75423">
        <ele>174</ele>
        <time>2017-05-22T10:27:11Z</time>
      </trkpt>
      <trkpt lat="45.99337" lon="4.75431">
        <ele>175</ele>
        <time>2017-05-22T10:27:12Z</time>
      </trkpt>
      <trkpt lat="45.99335" lon="4.75439">
        <ele>176</ele>
        <time>2017-05-22T10:27:13Z</time>
      </trkpt>
      <trkpt lat="45.99333" lon="4.75448">
        <ele>173</ele>
        <time>2017-05-22T10:27:14Z</time>
      </trkpt>
      <trkpt lat="45.99331" lon="4.75456">
        <ele>174</ele>
        <time>2017-05-22T10:27:15Z</time>
      </trkpt>
      <trkpt lat="45.99328" lon="4.75464">
        <ele>174</ele>
        <time>2017-05-22T10:27:16Z</time>
      </trkpt>
      <trkpt lat="45.99325" lon="4.75471">
        <ele>174</ele>
        <time>2017-05-22T10:27:17Z</time>
      </trkpt>
      <trkpt lat="45.99321" lon="4.75478">
        <ele>174</ele>
        <time>2017-05-22T10:27:18Z</time>
      </trkpt>
      <trkpt lat="45.99318" lon="4.75484">
        <ele>175</ele>
        <time>2017-05-22T10:27:19Z</time>
      </trkpt>
      <trkpt lat="45.99314" lon="4.75489">
        <ele>175</ele>
        <time>2017-05-22T10:27:20Z</time>
      </trkpt>
      <trkpt lat="45.99311" lon="4.75494">
        <ele>175</ele>
        <time>2017-05-22T10:27:21Z</time>
      </trkpt>
      <trkpt lat="45.99307" lon="4.75499">
        <ele>174</ele>
        <time>2017-05-22T10:27:22Z</time>
      </trkpt>
      <trkpt lat="45.99304" lon="4.75503">
        <ele>177</ele>
        <time>2017-05-22T10:27:23Z</time>
      </trkpt>
      <trkpt lat="45.993" lon="4.75508">
        <ele>177</ele>
        <time>2017-05-22T10:27:24Z</time>
      </trkpt>
      <trkpt lat="45.99297" lon="4.75512">
        <ele>177</ele>
        <time>2017-05-22T10:27:25Z</time>
      </trkpt>
      <trkpt lat="45.99293" lon="4.75516">
        <ele>176</ele>
        <time>2017-05-22T10:27:26Z</time>
      </trkpt>
      <trkpt lat="45.99286" lon="4.75524">
        <ele>176</ele>
        <time>2017-05-22T10:27:28Z</time>
      </trkpt>
      <trkpt lat="45.99282" lon="4.75528">
        <ele>176</ele>
        <time>2017-05-22T10:27:29Z</time>
      </trkpt>
      <trkpt lat="45.99278" lon="4.75532">
        <ele>176</ele>
        <time>2017-05-22T10:27:30Z</time>
      </trkpt>
      <trkpt lat="45.99274" lon="4.75536">
        <ele>176</ele>
        <time>2017-05-22T10:27:31Z</time>
      </trkpt>
      <trkpt lat="45.9927" lon="4.75539">
        <ele>176</ele>
        <time>2017-05-22T10:27:32Z</time>
      </trkpt>
      <trkpt lat="45.99266" lon="4.75542">
        <ele>176</ele>
        <time>2017-05-22T10:27:33Z</time>
      </trkpt>
      <trkpt lat="45.99258" lon="4.75548">
        <ele>177</ele>
        <time>2017-05-22T10:27:35Z</time>
      </trkpt>
      <trkpt lat="45.99254" lon="4.7555">
        <ele>177</ele>
        <time>2017-05-22T10:27:36Z</time>
      </trkpt>
      <trkpt lat="45.99246" lon="4.75555">
        <ele>175</ele>
        <time>2017-05-22T10:27:38Z</time>
      </trkpt>
      <trkpt lat="45.99241" lon="4.75558">
        <ele>175</ele>
        <time>2017-05-22T10:27:39Z</time>
      </trkpt>
      <trkpt lat="45.99237" lon="4.75562">
        <ele>175</ele>
        <time>2017-05-22T10:27:40Z</time>
      </trkpt>
      <trkpt lat="45.99232" lon="4.75565">
        <ele>175</ele>
        <time>2017-05-22T10:27:41Z</time>
      </trkpt>
      <trkpt lat="45.99227" lon="4.75568">
        <ele>175</ele>
        <time>2017-05-22T10:27:42Z</time>
      </trkpt>
      <trkpt lat="45.99222" lon="4.75572">
        <ele>175</ele>
        <time>2017-05-22T10:27:43Z</time>
      </trkpt>
      <trkpt lat="45.99217" lon="4.75577">
        <ele>175</ele>
        <time>2017-05-22T10:27:44Z</time>
      </trkpt>
      <trkpt lat="45.99212" lon="4.75581">
        <ele>175</ele>
        <time>2017-05-22T10:27:45Z</time>
      </trkpt>
      <trkpt lat="45.99206" lon="4.75584">
        <ele>178</ele>
        <time>2017-05-22T10:27:46Z</time>
      </trkpt>
      <trkpt lat="45.992" lon="4.75588">
        <ele>178</ele>
        <time>2017-05-22T10:27:47Z</time>
      </trkpt>
      <trkpt lat="45.99195" lon="4.75592">
        <ele>178</ele>
        <time>2017-05-22T10:27:48Z</time>
      </trkpt>
      <trkpt lat="45.99189" lon="4.75596">
        <ele>178</ele>
        <time>2017-05-22T10:27:49Z</time>
      </trkpt>
      <trkpt lat="45.99184" lon="4.75599">
        <ele>178</ele>
        <time>2017-05-22T10:27:50Z</time>
      </trkpt>
      <trkpt lat="45.99179" lon="4.75602">
        <ele>177</ele>
        <time>2017-05-22T10:27:51Z</time>
      </trkpt>
      <trkpt lat="45.99173" lon="4.75605">
        <ele>177</ele>
        <time>2017-05-22T10:27:52Z</time>
      </trkpt>
      <trkpt lat="45.99168" lon="4.75606">
        <ele>177</ele>
        <time>2017-05-22T10:27:53Z</time>
      </trkpt>
      <trkpt lat="45.99164" lon="4.75607">
        <ele>176</ele>
        <time>2017-05-22T10:27:54Z</time>
      </trkpt>
      <trkpt lat="45.99159" lon="4.75608">
        <ele>176</ele>
        <time>2017-05-22T10:27:55Z</time>
      </trkpt>
      <trkpt lat="45.99155" lon="4.7561">
        <ele>177</ele>
        <time>2017-05-22T10:27:56Z</time>
      </trkpt>
      <trkpt lat="45.9915" lon="4.75611">
        <ele>177</ele>
        <time>2017-05-22T10:27:57Z</time>
      </trkpt>
      <trkpt lat="45.99145" lon="4.75611">
        <ele>177</ele>
        <time>2017-05-22T10:27:58Z</time>
      </trkpt>
      <trkpt lat="45.9914" lon="4.7561">
        <ele>177</ele>
        <time>2017-05-22T10:27:59Z</time>
      </trkpt>
      <trkpt lat="45.99136" lon="4.7561">
        <ele>177</ele>
        <time>2017-05-22T10:28:00Z</time>
      </trkpt>
      <trkpt lat="45.99131" lon="4.75611">
        <ele>177</ele>
        <time>2017-05-22T10:28:01Z</time>
      </trkpt>
      <trkpt lat="45.99125" lon="4.75614">
        <ele>177</ele>
        <time>2017-05-22T10:28:02Z</time>
      </trkpt>
      <trkpt lat="45.99121" lon="4.75618">
        <ele>177</ele>
        <time>2017-05-22T10:28:03Z</time>
      </trkpt>
      <trkpt lat="45.99117" lon="4.75625">
        <ele>177</ele>
        <time>2017-05-22T10:28:04Z</time>
      </trkpt>
      <trkpt lat="45.99115" lon="4.75633">
        <ele>177</ele>
        <time>2017-05-22T10:28:05Z</time>
      </trkpt>
      <trkpt lat="45.99111" lon="4.7564">
        <ele>178</ele>
        <time>2017-05-22T10:28:06Z</time>
      </trkpt>
      <trkpt lat="45.99106" lon="4.75645">
        <ele>178</ele>
        <time>2017-05-22T10:28:07Z</time>
      </trkpt>
      <trkpt lat="45.99101" lon="4.75651">
        <ele>178</ele>
        <time>2017-05-22T10:28:08Z</time>
      </trkpt>
      <trkpt lat="45.99095" lon="4.75656">
        <ele>179</ele>
        <time>2017-05-22T10:28:09Z</time>
      </trkpt>
      <trkpt lat="45.99089" lon="4.75658">
        <ele>179</ele>
        <time>2017-05-22T10:28:10Z</time>
      </trkpt>
      <trkpt lat="45.99083" lon="4.7566">
        <ele>179</ele>
        <time>2017-05-22T10:28:11Z</time>
      </trkpt>
      <trkpt lat="45.99077" lon="4.75662">
        <ele>179</ele>
        <time>2017-05-22T10:28:12Z</time>
      </trkpt>
      <trkpt lat="45.9907" lon="4.75661">
        <ele>179</ele>
        <time>2017-05-22T10:28:13Z</time>
      </trkpt>
      <trkpt lat="45.99064" lon="4.75661">
        <ele>178</ele>
        <time>2017-05-22T10:28:14Z</time>
      </trkpt>
      <trkpt lat="45.99057" lon="4.75661">
        <ele>178</ele>
        <time>2017-05-22T10:28:15Z</time>
      </trkpt>
      <trkpt lat="45.99051" lon="4.7566">
        <ele>178</ele>
        <time>2017-05-22T10:28:16Z</time>
      </trkpt>
      <trkpt lat="45.99045" lon="4.75659">
        <ele>178</ele>
        <time>2017-05-22T10:28:17Z</time>
      </trkpt>
      <trkpt lat="45.99039" lon="4.75659">
        <ele>178</ele>
        <time>2017-05-22T10:28:18Z</time>
      </trkpt>
      <trkpt lat="45.99033" lon="4.7566">
        <ele>178</ele>
        <time>2017-05-22T10:28:19Z</time>
      </trkpt>
      <trkpt lat="45.99027" lon="4.75659">
        <ele>178</ele>
        <time>2017-05-22T10:28:20Z</time>
      </trkpt>
      <trkpt lat="45.99021" lon="4.75659">
        <ele>178</ele>
        <time>2017-05-22T10:28:21Z</time>
      </trkpt>
      <trkpt lat="45.99016" lon="4.7566">
        <ele>178</ele>
        <time>2017-05-22T10:28:22Z</time>
      </trkpt>
      <trkpt lat="45.99011" lon="4.75661">
        <ele>179</ele>
        <time>2017-05-22T10:28:23Z</time>
      </trkpt>
      <trkpt lat="45.99005" lon="4.75661">
        <ele>179</ele>
        <time>2017-05-22T10:28:24Z</time>
      </trkpt>
      <trkpt lat="45.99001" lon="4.75662">
        <ele>179</ele>
        <time>2017-05-22T10:28:25Z</time>
      </trkpt>
      <trkpt lat="45.98996" lon="4.75662">
        <ele>179</ele>
        <time>2017-05-22T10:28:26Z</time>
      </trkpt>
      <trkpt lat="45.98991" lon="4.75663">
        <ele>179</ele>
        <time>2017-05-22T10:28:27Z</time>
      </trkpt>
      <trkpt lat="45.98985" lon="4.75663">
        <ele>178</ele>
        <time>2017-05-22T10:28:28Z</time>
      </trkpt>
      <trkpt lat="45.9898" lon="4.75663">
        <ele>178</ele>
        <time>2017-05-22T10:28:29Z</time>
      </trkpt>
      <trkpt lat="45.98975" lon="4.75664">
        <ele>177</ele>
        <time>2017-05-22T10:28:30Z</time>
      </trkpt>
      <trkpt lat="45.98969" lon="4.75665">
        <ele>177</ele>
        <time>2017-05-22T10:28:31Z</time>
      </trkpt>
      <trkpt lat="45.98964" lon="4.75667">
        <ele>177</ele>
        <time>2017-05-22T10:28:32Z</time>
      </trkpt>
      <trkpt lat="45.98959" lon="4.75669">
        <ele>181</ele>
        <time>2017-05-22T10:28:33Z</time>
      </trkpt>
      <trkpt lat="45.98954" lon="4.75671">
        <ele>181</ele>
        <time>2017-05-22T10:28:34Z</time>
      </trkpt>
      <trkpt lat="45.98949" lon="4.75673">
        <ele>181</ele>
        <time>2017-05-22T10:28:35Z</time>
      </trkpt>
      <trkpt lat="45.98944" lon="4.75675">
        <ele>181</ele>
        <time>2017-05-22T10:28:36Z</time>
      </trkpt>
      <trkpt lat="45.9894" lon="4.75677">
        <ele>180</ele>
        <time>2017-05-22T10:28:37Z</time>
      </trkpt>
      <trkpt lat="45.98935" lon="4.75679">
        <ele>180</ele>
        <time>2017-05-22T10:28:38Z</time>
      </trkpt>
      <trkpt lat="45.9893" lon="4.75681">
        <ele>180</ele>
        <time>2017-05-22T10:28:39Z</time>
      </trkpt>
      <trkpt lat="45.98925" lon="4.75684">
        <ele>180</ele>
        <time>2017-05-22T10:28:40Z</time>
      </trkpt>
      <trkpt lat="45.9892" lon="4.75687">
        <ele>180</ele>
        <time>2017-05-22T10:28:41Z</time>
      </trkpt>
      <trkpt lat="45.98915" lon="4.7569">
        <ele>179</ele>
        <time>2017-05-22T10:28:42Z</time>
      </trkpt>
      <trkpt lat="45.9891" lon="4.75692">
        <ele>179</ele>
        <time>2017-05-22T10:28:43Z</time>
      </trkpt>
      <trkpt lat="45.98905" lon="4.75695">
        <ele>179</ele>
        <time>2017-05-22T10:28:44Z</time>
      </trkpt>
      <trkpt lat="45.989" lon="4.75698">
        <ele>180</ele>
        <time>2017-05-22T10:28:45Z</time>
      </trkpt>
      <trkpt lat="45.98895" lon="4.757">
        <ele>180</ele>
        <time>2017-05-22T10:28:46Z</time>
      </trkpt>
      <trkpt lat="45.98891" lon="4.75702">
        <ele>180</ele>
        <time>2017-05-22T10:28:47Z</time>
      </trkpt>
      <trkpt lat="45.98886" lon="4.75704">
        <ele>180</ele>
        <time>2017-05-22T10:28:48Z</time>
      </trkpt>
      <trkpt lat="45.98881" lon="4.75707">
        <ele>180</ele>
        <time>2017-05-22T10:28:49Z</time>
      </trkpt>
      <trkpt lat="45.98876" lon="4.75708">
        <ele>180</ele>
        <time>2017-05-22T10:28:50Z</time>
      </trkpt>
      <trkpt lat="45.98871" lon="4.7571">
        <ele>180</ele>
        <time>2017-05-22T10:28:51Z</time>
      </trkpt>
      <trkpt lat="45.98866" lon="4.75711">
        <ele>180</ele>
        <time>2017-05-22T10:28:52Z</time>
      </trkpt>
      <trkpt lat="45.98861" lon="4.75712">
        <ele>180</ele>
        <time>2017-05-22T10:28:53Z</time>
      </trkpt>
      <trkpt lat="45.98857" lon="4.75713">
        <ele>180</ele>
        <time>2017-05-22T10:28:54Z</time>
      </trkpt>
      <trkpt lat="45.98852" lon="4.75714">
        <ele>180</ele>
        <time>2017-05-22T10:28:55Z</time>
      </trkpt>
      <trkpt lat="45.98847" lon="4.75714">
        <ele>180</ele>
        <time>2017-05-22T10:28:56Z</time>
      </trkpt>
      <trkpt lat="45.98842" lon="4.75715">
        <ele>180</ele>
        <time>2017-05-22T10:28:57Z</time>
      </trkpt>
      <trkpt lat="45.98838" lon="4.75716">
        <ele>180</ele>
        <time>2017-05-22T10:28:58Z</time>
      </trkpt>
      <trkpt lat="45.98833" lon="4.75716">
        <ele>179</ele>
        <time>2017-05-22T10:28:59Z</time>
      </trkpt>
      <trkpt lat="45.98828" lon="4.75717">
        <ele>179</ele>
        <time>2017-05-22T10:29:00Z</time>
      </trkpt>
      <trkpt lat="45.98824" lon="4.75718">
        <ele>179</ele>
        <time>2017-05-22T10:29:01Z</time>
      </trkpt>
      <trkpt lat="45.98819" lon="4.7572">
        <ele>179</ele>
        <time>2017-05-22T10:29:02Z</time>
      </trkpt>
      <trkpt lat="45.98815" lon="4.75721">
        <ele>179</ele>
        <time>2017-05-22T10:29:03Z</time>
      </trkpt>
      <trkpt lat="45.98806" lon="4.75722">
        <ele>179</ele>
        <time>2017-05-22T10:29:05Z</time>
      </trkpt>
      <trkpt lat="45.98802" lon="4.75722">
        <ele>179</ele>
        <time>2017-05-22T10:29:06Z</time>
      </trkpt>
      <trkpt lat="45.98796" lon="4.75723">
        <ele>179</ele>
        <time>2017-05-22T10:29:07Z</time>
      </trkpt>
      <trkpt lat="45.98791" lon="4.75724">
        <ele>178</ele>
        <time>2017-05-22T10:29:08Z</time>
      </trkpt>
      <trkpt lat="45.98786" lon="4.75724">
        <ele>178</ele>
        <time>2017-05-22T10:29:09Z</time>
      </trkpt>
      <trkpt lat="45.98781" lon="4.75723">
        <ele>178</ele>
        <time>2017-05-22T10:29:10Z</time>
      </trkpt>
      <trkpt lat="45.98775" lon="4.75722">
        <ele>178</ele>
        <time>2017-05-22T10:29:11Z</time>
      </trkpt>
      <trkpt lat="45.98769" lon="4.75722">
        <ele>178</ele>
        <time>2017-05-22T10:29:12Z</time>
      </trkpt>
      <trkpt lat="45.98764" lon="4.75724">
        <ele>178</ele>
        <time>2017-05-22T10:29:13Z</time>
      </trkpt>
      <trkpt lat="45.98758" lon="4.75727">
        <ele>178</ele>
        <time>2017-05-22T10:29:14Z</time>
      </trkpt>
      <trkpt lat="45.98754" lon="4.75729">
        <ele>178</ele>
        <time>2017-05-22T10:29:15Z</time>
      </trkpt>
      <trkpt lat="45.98749" lon="4.7573">
        <ele>177</ele>
        <time>2017-05-22T10:29:16Z</time>
      </trkpt>
      <trkpt lat="45.98744" lon="4.7573">
        <ele>177</ele>
        <time>2017-05-22T10:29:17Z</time>
      </trkpt>
      <trkpt lat="45.98738" lon="4.75731">
        <ele>177</ele>
        <time>2017-05-22T10:29:18Z</time>
      </trkpt>
      <trkpt lat="45.98733" lon="4.75731">
        <ele>177</ele>
        <time>2017-05-22T10:29:19Z</time>
      </trkpt>
      <trkpt lat="45.98728" lon="4.75731">
        <ele>177</ele>
        <time>2017-05-22T10:29:20Z</time>
      </trkpt>
      <trkpt lat="45.98722" lon="4.75731">
        <ele>177</ele>
        <time>2017-05-22T10:29:21Z</time>
      </trkpt>
      <trkpt lat="45.98717" lon="4.75731">
        <ele>177</ele>
        <time>2017-05-22T10:29:22Z</time>
      </trkpt>
      <trkpt lat="45.98712" lon="4.75732">
        <ele>177</ele>
        <time>2017-05-22T10:29:23Z</time>
      </trkpt>
      <trkpt lat="45.98706" lon="4.75732">
        <ele>177</ele>
        <time>2017-05-22T10:29:24Z</time>
      </trkpt>
      <trkpt lat="45.98701" lon="4.75732">
        <ele>177</ele>
        <time>2017-05-22T10:29:25Z</time>
      </trkpt>
      <trkpt lat="45.98696" lon="4.75732">
        <ele>177</ele>
        <time>2017-05-22T10:29:26Z</time>
      </trkpt>
      <trkpt lat="45.9869" lon="4.75732">
        <ele>177</ele>
        <time>2017-05-22T10:29:27Z</time>
      </trkpt>
      <trkpt lat="45.98685" lon="4.75733">
        <ele>177</ele>
        <time>2017-05-22T10:29:28Z</time>
      </trkpt>
      <trkpt lat="45.98679" lon="4.75732">
        <ele>177</ele>
        <time>2017-05-22T10:29:29Z</time>
      </trkpt>
      <trkpt lat="45.98674" lon="4.75732">
        <ele>177</ele>
        <time>2017-05-22T10:29:30Z</time>
      </trkpt>
      <trkpt lat="45.98668" lon="4.75732">
        <ele>177</ele>
        <time>2017-05-22T10:29:31Z</time>
      </trkpt>
      <trkpt lat="45.98663" lon="4.75731">
        <ele>176</ele>
        <time>2017-05-22T10:29:32Z</time>
      </trkpt>
      <trkpt lat="45.98657" lon="4.75729">
        <ele>176</ele>
        <time>2017-05-22T10:29:33Z</time>
      </trkpt>
      <trkpt lat="45.98652" lon="4.75729">
        <ele>176</ele>
        <time>2017-05-22T10:29:34Z</time>
      </trkpt>
      <trkpt lat="45.98647" lon="4.75729">
        <ele>176</ele>
        <time>2017-05-22T10:29:35Z</time>
      </trkpt>
      <trkpt lat="45.98641" lon="4.75729">
        <ele>175</ele>
        <time>2017-05-22T10:29:36Z</time>
      </trkpt>
      <trkpt lat="45.98636" lon="4.7573">
        <ele>175</ele>
        <time>2017-05-22T10:29:37Z</time>
      </trkpt>
      <trkpt lat="45.9863" lon="4.7573">
        <ele>175</ele>
        <time>2017-05-22T10:29:38Z</time>
      </trkpt>
      <trkpt lat="45.98624" lon="4.7573">
        <ele>175</ele>
        <time>2017-05-22T10:29:39Z</time>
      </trkpt>
      <trkpt lat="45.98619" lon="4.75731">
        <ele>175</ele>
        <time>2017-05-22T10:29:40Z</time>
      </trkpt>
      <trkpt lat="45.98614" lon="4.75731">
        <ele>175</ele>
        <time>2017-05-22T10:29:41Z</time>
      </trkpt>
      <trkpt lat="45.9861" lon="4.75732">
        <ele>175</ele>
        <time>2017-05-22T10:29:42Z</time>
      </trkpt>
      <trkpt lat="45.98602" lon="4.75731">
        <ele>174</ele>
        <time>2017-05-22T10:29:45Z</time>
      </trkpt>
      <trkpt lat="45.98601" lon="4.75732">
        <ele>174</ele>
        <time>2017-05-22T10:29:46Z</time>
      </trkpt>
      <trkpt lat="45.986" lon="4.75732">
        <ele>174</ele>
        <time>2017-05-22T10:29:47Z</time>
      </trkpt>
      <trkpt lat="45.98595" lon="4.7573">
        <ele>174</ele>
        <time>2017-05-22T10:29:51Z</time>
      </trkpt>
      <trkpt lat="45.98592" lon="4.7573">
        <ele>174</ele>
        <time>2017-05-22T10:29:52Z</time>
      </trkpt>
      <trkpt lat="45.98586" lon="4.75727">
        <ele>174</ele>
        <time>2017-05-22T10:29:54Z</time>
      </trkpt>
      <trkpt lat="45.98582" lon="4.75726">
        <ele>174</ele>
        <time>2017-05-22T10:29:55Z</time>
      </trkpt>
      <trkpt lat="45.98577" lon="4.75726">
        <ele>174</ele>
        <time>2017-05-22T10:29:56Z</time>
      </trkpt>
      <trkpt lat="45.98572" lon="4.75726">
        <ele>174</ele>
        <time>2017-05-22T10:29:57Z</time>
      </trkpt>
      <trkpt lat="45.98567" lon="4.75725">
        <ele>174</ele>
        <time>2017-05-22T10:29:58Z</time>
      </trkpt>
      <trkpt lat="45.98561" lon="4.75724">
        <ele>174</ele>
        <time>2017-05-22T10:29:59Z</time>
      </trkpt>
      <trkpt lat="45.98556" lon="4.75723">
        <ele>174</ele>
        <time>2017-05-22T10:30:00Z</time>
      </trkpt>
      <trkpt lat="45.9855" lon="4.75722">
        <ele>174</ele>
        <time>2017-05-22T10:30:01Z</time>
      </trkpt>
      <trkpt lat="45.98544" lon="4.75721">
        <ele>174</ele>
        <time>2017-05-22T10:30:02Z</time>
      </trkpt>
      <trkpt lat="45.9854" lon="4.75721">
        <ele>174</ele>
        <time>2017-05-22T10:30:03Z</time>
      </trkpt>
      <trkpt lat="45.98535" lon="4.7572">
        <ele>174</ele>
        <time>2017-05-22T10:30:04Z</time>
      </trkpt>
      <trkpt lat="45.98531" lon="4.75719">
        <ele>174</ele>
        <time>2017-05-22T10:30:05Z</time>
      </trkpt>
      <trkpt lat="45.98523" lon="4.75717">
        <ele>174</ele>
        <time>2017-05-22T10:30:07Z</time>
      </trkpt>
      <trkpt lat="45.98519" lon="4.75716">
        <ele>174</ele>
        <time>2017-05-22T10:30:08Z</time>
      </trkpt>
      <trkpt lat="45.98512" lon="4.75712">
        <ele>174</ele>
        <time>2017-05-22T10:30:10Z</time>
      </trkpt>
      <trkpt lat="45.98509" lon="4.7571">
        <ele>174</ele>
        <time>2017-05-22T10:30:11Z</time>
      </trkpt>
      <trkpt lat="45.98504" lon="4.75709">
        <ele>174</ele>
        <time>2017-05-22T10:30:12Z</time>
      </trkpt>
      <trkpt lat="45.98499" lon="4.75708">
        <ele>174</ele>
        <time>2017-05-22T10:30:13Z</time>
      </trkpt>
      <trkpt lat="45.98494" lon="4.75707">
        <ele>174</ele>
        <time>2017-05-22T10:30:14Z</time>
      </trkpt>
      <trkpt lat="45.98488" lon="4.75707">
        <ele>174</ele>
        <time>2017-05-22T10:30:15Z</time>
      </trkpt>
      <trkpt lat="45.98482" lon="4.75706">
        <ele>174</ele>
        <time>2017-05-22T10:30:16Z</time>
      </trkpt>
      <trkpt lat="45.98477" lon="4.75704">
        <ele>174</ele>
        <time>2017-05-22T10:30:17Z</time>
      </trkpt>
      <trkpt lat="45.98471" lon="4.75704">
        <ele>174</ele>
        <time>2017-05-22T10:30:18Z</time>
      </trkpt>
      <trkpt lat="45.98465" lon="4.75702">
        <ele>174</ele>
        <time>2017-05-22T10:30:19Z</time>
      </trkpt>
      <trkpt lat="45.98459" lon="4.75701">
        <ele>174</ele>
        <time>2017-05-22T10:30:20Z</time>
      </trkpt>
      <trkpt lat="45.98454" lon="4.75701">
        <ele>175</ele>
        <time>2017-05-22T10:30:21Z</time>
      </trkpt>
      <trkpt lat="45.98449" lon="4.757">
        <ele>175</ele>
        <time>2017-05-22T10:30:22Z</time>
      </trkpt>
      <trkpt lat="45.98445" lon="4.75699">
        <ele>175</ele>
        <time>2017-05-22T10:30:23Z</time>
      </trkpt>
      <trkpt lat="45.98437" lon="4.75696">
        <ele>175</ele>
        <time>2017-05-22T10:30:25Z</time>
      </trkpt>
      <trkpt lat="45.98433" lon="4.75696">
        <ele>175</ele>
        <time>2017-05-22T10:30:26Z</time>
      </trkpt>
      <trkpt lat="45.98425" lon="4.75695">
        <ele>175</ele>
        <time>2017-05-22T10:30:28Z</time>
      </trkpt>
      <trkpt lat="45.9842" lon="4.75695">
        <ele>175</ele>
        <time>2017-05-22T10:30:29Z</time>
      </trkpt>
      <trkpt lat="45.98415" lon="4.75694">
        <ele>174</ele>
        <time>2017-05-22T10:30:30Z</time>
      </trkpt>
      <trkpt lat="45.98411" lon="4.75689">
        <ele>175</ele>
        <time>2017-05-22T10:30:31Z</time>
      </trkpt>
      <trkpt lat="45.98407" lon="4.75686">
        <ele>175</ele>
        <time>2017-05-22T10:30:32Z</time>
      </trkpt>
      <trkpt lat="45.98403" lon="4.75681">
        <ele>175</ele>
        <time>2017-05-22T10:30:33Z</time>
      </trkpt>
      <trkpt lat="45.984" lon="4.75677">
        <ele>175</ele>
        <time>2017-05-22T10:30:34Z</time>
      </trkpt>
      <trkpt lat="45.98393" lon="4.7568">
        <ele>174</ele>
        <time>2017-05-22T10:30:35Z</time>
      </trkpt>
      <trkpt lat="45.98387" lon="4.75681">
        <ele>174</ele>
        <time>2017-05-22T10:30:36Z</time>
      </trkpt>
      <trkpt lat="45.98382" lon="4.75684">
        <ele>174</ele>
        <time>2017-05-22T10:30:37Z</time>
      </trkpt>
      <trkpt lat="45.98378" lon="4.75686">
        <ele>174</ele>
        <time>2017-05-22T10:30:38Z</time>
      </trkpt>
      <trkpt lat="45.98373" lon="4.75686">
        <ele>174</ele>
        <time>2017-05-22T10:30:39Z</time>
      </trkpt>
      <trkpt lat="45.98369" lon="4.75686">
        <ele>174</ele>
        <time>2017-05-22T10:30:40Z</time>
      </trkpt>
      <trkpt lat="45.98363" lon="4.75685">
        <ele>174</ele>
        <time>2017-05-22T10:30:41Z</time>
      </trkpt>
      <trkpt lat="45.98357" lon="4.75684">
        <ele>174</ele>
        <time>2017-05-22T10:30:42Z</time>
      </trkpt>
      <trkpt lat="45.98352" lon="4.75684">
        <ele>174</ele>
        <time>2017-05-22T10:30:43Z</time>
      </trkpt>
      <trkpt lat="45.98346" lon="4.75683">
        <ele>174</ele>
        <time>2017-05-22T10:30:44Z</time>
      </trkpt>
      <trkpt lat="45.98339" lon="4.75682">
        <ele>174</ele>
        <time>2017-05-22T10:30:45Z</time>
      </trkpt>
      <trkpt lat="45.98333" lon="4.75682">
        <ele>174</ele>
        <time>2017-05-22T10:30:46Z</time>
      </trkpt>
      <trkpt lat="45.98327" lon="4.75681">
        <ele>174</ele>
        <time>2017-05-22T10:30:47Z</time>
      </trkpt>
      <trkpt lat="45.98321" lon="4.75679">
        <ele>174</ele>
        <time>2017-05-22T10:30:48Z</time>
      </trkpt>
      <trkpt lat="45.98314" lon="4.75678">
        <ele>174</ele>
        <time>2017-05-22T10:30:49Z</time>
      </trkpt>
      <trkpt lat="45.98308" lon="4.75677">
        <ele>174</ele>
        <time>2017-05-22T10:30:50Z</time>
      </trkpt>
      <trkpt lat="45.98302" lon="4.75677">
        <ele>174</ele>
        <time>2017-05-22T10:30:51Z</time>
      </trkpt>
      <trkpt lat="45.98297" lon="4.75676">
        <ele>174</ele>
        <time>2017-05-22T10:30:52Z</time>
      </trkpt>
      <trkpt lat="45.98291" lon="4.75676">
        <ele>174</ele>
        <time>2017-05-22T10:30:53Z</time>
      </trkpt>
      <trkpt lat="45.98286" lon="4.75676">
        <ele>174</ele>
        <time>2017-05-22T10:30:54Z</time>
      </trkpt>
      <trkpt lat="45.9828" lon="4.75677">
        <ele>174</ele>
        <time>2017-05-22T10:30:55Z</time>
      </trkpt>
      <trkpt lat="45.98275" lon="4.75678">
        <ele>174</ele>
        <time>2017-05-22T10:30:56Z</time>
      </trkpt>
      <trkpt lat="45.98268" lon="4.75679">
        <ele>173</ele>
        <time>2017-05-22T10:30:57Z</time>
      </trkpt>
      <trkpt lat="45.98259" lon="4.75678">
        <ele>173</ele>
        <time>2017-05-22T10:30:59Z</time>
      </trkpt>
      <trkpt lat="45.98255" lon="4.75678">
        <ele>173</ele>
        <time>2017-05-22T10:31:00Z</time>
      </trkpt>
      <trkpt lat="45.98249" lon="4.75678">
        <ele>173</ele>
        <time>2017-05-22T10:31:01Z</time>
      </trkpt>
      <trkpt lat="45.98244" lon="4.75679">
        <ele>173</ele>
        <time>2017-05-22T10:31:02Z</time>
      </trkpt>
      <trkpt lat="45.98235" lon="4.75681">
        <ele>174</ele>
        <time>2017-05-22T10:31:04Z</time>
      </trkpt>
      <trkpt lat="45.98231" lon="4.75684">
        <ele>174</ele>
        <time>2017-05-22T10:31:05Z</time>
      </trkpt>
      <trkpt lat="45.98226" lon="4.75686">
        <ele>174</ele>
        <time>2017-05-22T10:31:06Z</time>
      </trkpt>
      <trkpt lat="45.98219" lon="4.75687">
        <ele>174</ele>
        <time>2017-05-22T10:31:07Z</time>
      </trkpt>
      <trkpt lat="45.98212" lon="4.75687">
        <ele>174</ele>
        <time>2017-05-22T10:31:08Z</time>
      </trkpt>
      <trkpt lat="45.98206" lon="4.75688">
        <ele>174</ele>
        <time>2017-05-22T10:31:09Z</time>
      </trkpt>
      <trkpt lat="45.98199" lon="4.75688">
        <ele>174</ele>
        <time>2017-05-22T10:31:10Z</time>
      </trkpt>
      <trkpt lat="45.98193" lon="4.75689">
        <ele>174</ele>
        <time>2017-05-22T10:31:11Z</time>
      </trkpt>
      <trkpt lat="45.98187" lon="4.75689">
        <ele>174</ele>
        <time>2017-05-22T10:31:12Z</time>
      </trkpt>
      <trkpt lat="45.98182" lon="4.75688">
        <ele>174</ele>
        <time>2017-05-22T10:31:13Z</time>
      </trkpt>
      <trkpt lat="45.98177" lon="4.75687">
        <ele>174</ele>
        <time>2017-05-22T10:31:14Z</time>
      </trkpt>
      <trkpt lat="45.98172" lon="4.75687">
        <ele>174</ele>
        <time>2017-05-22T10:31:15Z</time>
      </trkpt>
      <trkpt lat="45.98168" lon="4.75688">
        <ele>174</ele>
        <time>2017-05-22T10:31:16Z</time>
      </trkpt>
      <trkpt lat="45.98163" lon="4.75688">
        <ele>174</ele>
        <time>2017-05-22T10:31:17Z</time>
      </trkpt>
      <trkpt lat="45.98158" lon="4.75689">
        <ele>174</ele>
        <time>2017-05-22T10:31:18Z</time>
      </trkpt>
      <trkpt lat="45.98153" lon="4.7569">
        <ele>174</ele>
        <time>2017-05-22T10:31:19Z</time>
      </trkpt>
      <trkpt lat="45.98148" lon="4.75691">
        <ele>174</ele>
        <time>2017-05-22T10:31:20Z</time>
      </trkpt>
      <trkpt lat="45.98143" lon="4.75692">
        <ele>174</ele>
        <time>2017-05-22T10:31:21Z</time>
      </trkpt>
      <trkpt lat="45.98138" lon="4.75693">
        <ele>174</ele>
        <time>2017-05-22T10:31:22Z</time>
      </trkpt>
      <trkpt lat="45.98134" lon="4.75694">
        <ele>174</ele>
        <time>2017-05-22T10:31:23Z</time>
      </trkpt>
      <trkpt lat="45.98129" lon="4.75694">
        <ele>174</ele>
        <time>2017-05-22T10:31:24Z</time>
      </trkpt>
      <trkpt lat="45.98124" lon="4.75694">
        <ele>174</ele>
        <time>2017-05-22T10:31:25Z</time>
      </trkpt>
      <trkpt lat="45.98119" lon="4.75694">
        <ele>174</ele>
        <time>2017-05-22T10:31:26Z</time>
      </trkpt>
      <trkpt lat="45.98114" lon="4.75694">
        <ele>174</ele>
        <time>2017-05-22T10:31:27Z</time>
      </trkpt>
      <trkpt lat="45.98109" lon="4.75695">
        <ele>174</ele>
        <time>2017-05-22T10:31:28Z</time>
      </trkpt>
      <trkpt lat="45.98105" lon="4.75695">
        <ele>174</ele>
        <time>2017-05-22T10:31:29Z</time>
      </trkpt>
      <trkpt lat="45.98096" lon="4.75695">
        <ele>174</ele>
        <time>2017-05-22T10:31:31Z</time>
      </trkpt>
      <trkpt lat="45.98091" lon="4.75695">
        <ele>174</ele>
        <time>2017-05-22T10:31:32Z</time>
      </trkpt>
      <trkpt lat="45.98086" lon="4.75695">
        <ele>174</ele>
        <time>2017-05-22T10:31:33Z</time>
      </trkpt>
      <trkpt lat="45.98081" lon="4.75696">
        <ele>174</ele>
        <time>2017-05-22T10:31:34Z</time>
      </trkpt>
      <trkpt lat="45.98076" lon="4.75697">
        <ele>174</ele>
        <time>2017-05-22T10:31:35Z</time>
      </trkpt>
      <trkpt lat="45.98071" lon="4.75698">
        <ele>174</ele>
        <time>2017-05-22T10:31:36Z</time>
      </trkpt>
      <trkpt lat="45.98063" lon="4.757">
        <ele>174</ele>
        <time>2017-05-22T10:31:38Z</time>
      </trkpt>
      <trkpt lat="45.98059" lon="4.75701">
        <ele>174</ele>
        <time>2017-05-22T10:31:39Z</time>
      </trkpt>
      <trkpt lat="45.98054" lon="4.75702">
        <ele>174</ele>
        <time>2017-05-22T10:31:40Z</time>
      </trkpt>
      <trkpt lat="45.98048" lon="4.75703">
        <ele>174</ele>
        <time>2017-05-22T10:31:41Z</time>
      </trkpt>
      <trkpt lat="45.98043" lon="4.75704">
        <ele>174</ele>
        <time>2017-05-22T10:31:42Z</time>
      </trkpt>
      <trkpt lat="45.98037" lon="4.75705">
        <ele>174</ele>
        <time>2017-05-22T10:31:43Z</time>
      </trkpt>
      <trkpt lat="45.98031" lon="4.75706">
        <ele>174</ele>
        <time>2017-05-22T10:31:44Z</time>
      </trkpt>
      <trkpt lat="45.98025" lon="4.75709">
        <ele>174</ele>
        <time>2017-05-22T10:31:45Z</time>
      </trkpt>
      <trkpt lat="45.98019" lon="4.75711">
        <ele>174</ele>
        <time>2017-05-22T10:31:46Z</time>
      </trkpt>
      <trkpt lat="45.98013" lon="4.75714">
        <ele>174</ele>
        <time>2017-05-22T10:31:47Z</time>
      </trkpt>
      <trkpt lat="45.98008" lon="4.75716">
        <ele>174</ele>
        <time>2017-05-22T10:31:48Z</time>
      </trkpt>
      <trkpt lat="45.98002" lon="4.75719">
        <ele>174</ele>
        <time>2017-05-22T10:31:49Z</time>
      </trkpt>
      <trkpt lat="45.97997" lon="4.7572">
        <ele>174</ele>
        <time>2017-05-22T10:31:50Z</time>
      </trkpt>
      <trkpt lat="45.97992" lon="4.75722">
        <ele>174</ele>
        <time>2017-05-22T10:31:51Z</time>
      </trkpt>
      <trkpt lat="45.97988" lon="4.75724">
        <ele>174</ele>
        <time>2017-05-22T10:31:52Z</time>
      </trkpt>
      <trkpt lat="45.97984" lon="4.75725">
        <ele>174</ele>
        <time>2017-05-22T10:31:53Z</time>
      </trkpt>
      <trkpt lat="45.97975" lon="4.75729">
        <ele>174</ele>
        <time>2017-05-22T10:31:55Z</time>
      </trkpt>
      <trkpt lat="45.97971" lon="4.75731">
        <ele>174</ele>
        <time>2017-05-22T10:31:56Z</time>
      </trkpt>
      <trkpt lat="45.97963" lon="4.75733">
        <ele>174</ele>
        <time>2017-05-22T10:31:58Z</time>
      </trkpt>
      <trkpt lat="45.97959" lon="4.75735">
        <ele>174</ele>
        <time>2017-05-22T10:31:59Z</time>
      </trkpt>
      <trkpt lat="45.97954" lon="4.75737">
        <ele>174</ele>
        <time>2017-05-22T10:32:00Z</time>
      </trkpt>
      <trkpt lat="45.9795" lon="4.75741">
        <ele>174</ele>
        <time>2017-05-22T10:32:01Z</time>
      </trkpt>
      <trkpt lat="45.97947" lon="4.75747">
        <ele>174</ele>
        <time>2017-05-22T10:32:02Z</time>
      </trkpt>
      <trkpt lat="45.97944" lon="4.75753">
        <ele>176</ele>
        <time>2017-05-22T10:32:03Z</time>
      </trkpt>
      <trkpt lat="45.97941" lon="4.75757">
        <ele>176</ele>
        <time>2017-05-22T10:32:04Z</time>
      </trkpt>
      <trkpt lat="45.97938" lon="4.75762">
        <ele>176</ele>
        <time>2017-05-22T10:32:05Z</time>
      </trkpt>
      <trkpt lat="45.97932" lon="4.75768">
        <ele>177</ele>
        <time>2017-05-22T10:32:07Z</time>
      </trkpt>
      <trkpt lat="45.97929" lon="4.75772">
        <ele>177</ele>
        <time>2017-05-22T10:32:08Z</time>
      </trkpt>
      <trkpt lat="45.97924" lon="4.75778">
        <ele>177</ele>
        <time>2017-05-22T10:32:10Z</time>
      </trkpt>
      <trkpt lat="45.97922" lon="4.75781">
        <ele>177</ele>
        <time>2017-05-22T10:32:11Z</time>
      </trkpt>
      <trkpt lat="45.97915" lon="4.75789">
        <ele>177</ele>
        <time>2017-05-22T10:32:14Z</time>
      </trkpt>
      <trkpt lat="45.97913" lon="4.75792">
        <ele>177</ele>
        <time>2017-05-22T10:32:15Z</time>
      </trkpt>
      <trkpt lat="45.97908" lon="4.758">
        <ele>178</ele>
        <time>2017-05-22T10:32:17Z</time>
      </trkpt>
      <trkpt lat="45.97905" lon="4.75804">
        <ele>178</ele>
        <time>2017-05-22T10:32:18Z</time>
      </trkpt>
      <trkpt lat="45.97898" lon="4.75812">
        <ele>178</ele>
        <time>2017-05-22T10:32:20Z</time>
      </trkpt>
      <trkpt lat="45.97894" lon="4.75817">
        <ele>178</ele>
        <time>2017-05-22T10:32:21Z</time>
      </trkpt>
      <trkpt lat="45.97891" lon="4.75822">
        <ele>178</ele>
        <time>2017-05-22T10:32:22Z</time>
      </trkpt>
      <trkpt lat="45.97888" lon="4.75827">
        <ele>178</ele>
        <time>2017-05-22T10:32:23Z</time>
      </trkpt>
      <trkpt lat="45.97883" lon="4.75835">
        <ele>181</ele>
        <time>2017-05-22T10:32:25Z</time>
      </trkpt>
      <trkpt lat="45.97881" lon="4.75838">
        <ele>182</ele>
        <time>2017-05-22T10:32:26Z</time>
      </trkpt>
      <trkpt lat="45.97875" lon="4.75846">
        <ele>182</ele>
        <time>2017-05-22T10:32:29Z</time>
      </trkpt>
      <trkpt lat="45.97872" lon="4.75849">
        <ele>182</ele>
        <time>2017-05-22T10:32:30Z</time>
      </trkpt>
      <trkpt lat="45.97866" lon="4.75857">
        <ele>182</ele>
        <time>2017-05-22T10:32:32Z</time>
      </trkpt>
      <trkpt lat="45.97863" lon="4.75861">
        <ele>182</ele>
        <time>2017-05-22T10:32:33Z</time>
      </trkpt>
      <trkpt lat="45.97857" lon="4.75868">
        <ele>183</ele>
        <time>2017-05-22T10:32:35Z</time>
      </trkpt>
      <trkpt lat="45.97854" lon="4.75872">
        <ele>183</ele>
        <time>2017-05-22T10:32:36Z</time>
      </trkpt>
      <trkpt lat="45.97848" lon="4.7588">
        <ele>183</ele>
        <time>2017-05-22T10:32:38Z</time>
      </trkpt>
      <trkpt lat="45.97846" lon="4.75881">
        <ele>183</ele>
        <time>2017-05-22T10:32:39Z</time>
      </trkpt>
      <trkpt lat="45.97841" lon="4.75886">
        <ele>184</ele>
        <time>2017-05-22T10:32:41Z</time>
      </trkpt>
      <trkpt lat="45.97837" lon="4.75888">
        <ele>184</ele>
        <time>2017-05-22T10:32:42Z</time>
      </trkpt>
      <trkpt lat="45.97831" lon="4.75891">
        <ele>183</ele>
        <time>2017-05-22T10:32:44Z</time>
      </trkpt>
      <trkpt lat="45.97828" lon="4.75893">
        <ele>183</ele>
        <time>2017-05-22T10:32:45Z</time>
      </trkpt>
      <trkpt lat="45.97821" lon="4.75895">
        <ele>183</ele>
        <time>2017-05-22T10:32:47Z</time>
      </trkpt>
      <trkpt lat="45.97817" lon="4.75896">
        <ele>183</ele>
        <time>2017-05-22T10:32:48Z</time>
      </trkpt>
      <trkpt lat="45.9781" lon="4.75899">
        <ele>183</ele>
        <time>2017-05-22T10:32:50Z</time>
      </trkpt>
      <trkpt lat="45.97806" lon="4.75901">
        <ele>183</ele>
        <time>2017-05-22T10:32:51Z</time>
      </trkpt>
      <trkpt lat="45.97799" lon="4.75904">
        <ele>183</ele>
        <time>2017-05-22T10:32:54Z</time>
      </trkpt>
      <trkpt lat="45.97797" lon="4.75905">
        <ele>183</ele>
        <time>2017-05-22T10:32:55Z</time>
      </trkpt>
      <trkpt lat="45.97789" lon="4.75904">
        <ele>183</ele>
        <time>2017-05-22T10:32:58Z</time>
      </trkpt>
      <trkpt lat="45.97787" lon="4.75904">
        <ele>183</ele>
        <time>2017-05-22T10:32:59Z</time>
      </trkpt>
      <trkpt lat="45.97779" lon="4.759">
        <ele>183</ele>
        <time>2017-05-22T10:33:04Z</time>
      </trkpt>
      <trkpt lat="45.97777" lon="4.75898">
        <ele>183</ele>
        <time>2017-05-22T10:33:05Z</time>
      </trkpt>
      <trkpt lat="45.9777" lon="4.75895">
        <ele>183</ele>
        <time>2017-05-22T10:33:08Z</time>
      </trkpt>
      <trkpt lat="45.97768" lon="4.75895">
        <ele>183</ele>
        <time>2017-05-22T10:33:09Z</time>
      </trkpt>
      <trkpt lat="45.97767" lon="4.75898">
        <ele>183</ele>
        <time>2017-05-22T10:33:10Z</time>
      </trkpt>
      <trkpt lat="45.97766" lon="4.759">
        <ele>184</ele>
        <time>2017-05-22T10:34:29Z</time>
      </trkpt>
      <trkpt lat="45.97765" lon="4.75901">
        <ele>184</ele>
        <time>2017-05-22T10:34:30Z</time>
      </trkpt>
      <trkpt lat="45.97757" lon="4.75905">
        <ele>184</ele>
        <time>2017-05-22T10:35:35Z</time>
      </trkpt>
      <trkpt lat="45.97753" lon="4.75904">
        <ele>184</ele>
        <time>2017-05-22T10:35:36Z</time>
      </trkpt>
      <trkpt lat="45.97746" lon="4.75908">
        <ele>184</ele>
        <time>2017-05-22T10:35:39Z</time>
      </trkpt>
      <trkpt lat="45.97744" lon="4.75908">
        <ele>184</ele>
        <time>2017-05-22T10:35:40Z</time>
      </trkpt>
      <trkpt lat="45.97737" lon="4.75908">
        <ele>184</ele>
        <time>2017-05-22T10:35:43Z</time>
      </trkpt>
      <trkpt lat="45.97735" lon="4.75908">
        <ele>184</ele>
        <time>2017-05-22T10:35:44Z</time>
      </trkpt>
      <trkpt lat="45.97728" lon="4.75908">
        <ele>183</ele>
        <time>2017-05-22T10:35:46Z</time>
      </trkpt>
      <trkpt lat="45.97724" lon="4.75908">
        <ele>183</ele>
        <time>2017-05-22T10:35:47Z</time>
      </trkpt>
      <trkpt lat="45.97717" lon="4.7591">
        <ele>183</ele>
        <time>2017-05-22T10:35:49Z</time>
      </trkpt>
      <trkpt lat="45.97714" lon="4.7591">
        <ele>183</ele>
        <time>2017-05-22T10:35:50Z</time>
      </trkpt>
      <trkpt lat="45.97708" lon="4.75911">
        <ele>183</ele>
        <time>2017-05-22T10:35:52Z</time>
      </trkpt>
      <trkpt lat="45.97704" lon="4.75911">
        <ele>183</ele>
        <time>2017-05-22T10:35:53Z</time>
      </trkpt>
      <trkpt lat="45.97697" lon="4.75912">
        <ele>183</ele>
        <time>2017-05-22T10:35:55Z</time>
      </trkpt>
      <trkpt lat="45.97694" lon="4.75913">
        <ele>183</ele>
        <time>2017-05-22T10:35:56Z</time>
      </trkpt>
      <trkpt lat="45.97686" lon="4.75914">
        <ele>184</ele>
        <time>2017-05-22T10:35:58Z</time>
      </trkpt>
      <trkpt lat="45.97682" lon="4.75914">
        <ele>184</ele>
        <time>2017-05-22T10:35:59Z</time>
      </trkpt>
      <trkpt lat="45.97674" lon="4.75915">
        <ele>185</ele>
        <time>2017-05-22T10:36:01Z</time>
      </trkpt>
      <trkpt lat="45.9767" lon="4.75916">
        <ele>185</ele>
        <time>2017-05-22T10:36:02Z</time>
      </trkpt>
      <trkpt lat="45.97662" lon="4.75918">
        <ele>187</ele>
        <time>2017-05-22T10:36:04Z</time>
      </trkpt>
      <trkpt lat="45.97658" lon="4.75918">
        <ele>187</ele>
        <time>2017-05-22T10:36:05Z</time>
      </trkpt>
      <trkpt lat="45.97654" lon="4.75919">
        <ele>188</ele>
        <time>2017-05-22T10:36:06Z</time>
      </trkpt>
      <trkpt lat="45.97648" lon="4.75922">
        <ele>188</ele>
        <time>2017-05-22T10:36:07Z</time>
      </trkpt>
      <trkpt lat="45.97639" lon="4.75923">
        <ele>189</ele>
        <time>2017-05-22T10:36:09Z</time>
      </trkpt>
      <trkpt lat="45.97636" lon="4.75925">
        <ele>189</ele>
        <time>2017-05-22T10:36:10Z</time>
      </trkpt>
      <trkpt lat="45.97628" lon="4.75927">
        <ele>189</ele>
        <time>2017-05-22T10:36:12Z</time>
      </trkpt>
      <trkpt lat="45.97624" lon="4.75929">
        <ele>189</ele>
        <time>2017-05-22T10:36:13Z</time>
      </trkpt>
      <trkpt lat="45.97616" lon="4.75932">
        <ele>189</ele>
        <time>2017-05-22T10:36:15Z</time>
      </trkpt>
      <trkpt lat="45.97612" lon="4.75933">
        <ele>189</ele>
        <time>2017-05-22T10:36:16Z</time>
      </trkpt>
      <trkpt lat="45.97605" lon="4.75936">
        <ele>189</ele>
        <time>2017-05-22T10:36:18Z</time>
      </trkpt>
      <trkpt lat="45.97601" lon="4.75937">
        <ele>189</ele>
        <time>2017-05-22T10:36:19Z</time>
      </trkpt>
      <trkpt lat="45.97594" lon="4.7594">
        <ele>189</ele>
        <time>2017-05-22T10:36:22Z</time>
      </trkpt>
      <trkpt lat="45.97592" lon="4.75941">
        <ele>189</ele>
        <time>2017-05-22T10:36:23Z</time>
      </trkpt>
      <trkpt lat="45.97586" lon="4.75943">
        <ele>189</ele>
        <time>2017-05-22T10:36:25Z</time>
      </trkpt>
      <trkpt lat="45.97582" lon="4.75945">
        <ele>191</ele>
        <time>2017-05-22T10:36:26Z</time>
      </trkpt>
      <trkpt lat="45.97575" lon="4.75949">
        <ele>191</ele>
        <time>2017-05-22T10:36:28Z</time>
      </trkpt>
      <trkpt lat="45.97571" lon="4.75951">
        <ele>192</ele>
        <time>2017-05-22T10:36:29Z</time>
      </trkpt>
      <trkpt lat="45.97563" lon="4.75954">
        <ele>192</ele>
        <time>2017-05-22T10:36:31Z</time>
      </trkpt>
      <trkpt lat="45.9756" lon="4.75956">
        <ele>192</ele>
        <time>2017-05-22T10:36:32Z</time>
      </trkpt>
      <trkpt lat="45.97554" lon="4.7596">
        <ele>193</ele>
        <time>2017-05-22T10:36:34Z</time>
      </trkpt>
      <trkpt lat="45.97551" lon="4.75962">
        <ele>193</ele>
        <time>2017-05-22T10:36:35Z</time>
      </trkpt>
      <trkpt lat="45.97546" lon="4.75965">
        <ele>193</ele>
        <time>2017-05-22T10:36:37Z</time>
      </trkpt>
      <trkpt lat="45.97542" lon="4.75967">
        <ele>194</ele>
        <time>2017-05-22T10:36:38Z</time>
      </trkpt>
      <trkpt lat="45.97536" lon="4.75973">
        <ele>194</ele>
        <time>2017-05-22T10:36:40Z</time>
      </trkpt>
      <trkpt lat="45.97533" lon="4.75975">
        <ele>194</ele>
        <time>2017-05-22T10:36:41Z</time>
      </trkpt>
      <trkpt lat="45.97525" lon="4.75981">
        <ele>195</ele>
        <time>2017-05-22T10:36:43Z</time>
      </trkpt>
      <trkpt lat="45.97522" lon="4.75983">
        <ele>195</ele>
        <time>2017-05-22T10:36:44Z</time>
      </trkpt>
      <trkpt lat="45.97516" lon="4.75986">
        <ele>196</ele>
        <time>2017-05-22T10:36:46Z</time>
      </trkpt>
      <trkpt lat="45.97513" lon="4.75987">
        <ele>196</ele>
        <time>2017-05-22T10:36:47Z</time>
      </trkpt>
      <trkpt lat="45.97507" lon="4.75991">
        <ele>197</ele>
        <time>2017-05-22T10:36:49Z</time>
      </trkpt>
      <trkpt lat="45.97504" lon="4.75992">
        <ele>198</ele>
        <time>2017-05-22T10:36:50Z</time>
      </trkpt>
      <trkpt lat="45.97496" lon="4.7599">
        <ele>200</ele>
        <time>2017-05-22T10:36:52Z</time>
      </trkpt>
      <trkpt lat="45.97492" lon="4.75988">
        <ele>200</ele>
        <time>2017-05-22T10:36:53Z</time>
      </trkpt>
      <trkpt lat="45.97484" lon="4.75985">
        <ele>201</ele>
        <time>2017-05-22T10:36:55Z</time>
      </trkpt>
      <trkpt lat="45.9748" lon="4.75983">
        <ele>201</ele>
        <time>2017-05-22T10:36:56Z</time>
      </trkpt>
      <trkpt lat="45.97474" lon="4.75976">
        <ele>201</ele>
        <time>2017-05-22T10:36:59Z</time>
      </trkpt>
      <trkpt lat="45.97473" lon="4.75975">
        <ele>201</ele>
        <time>2017-05-22T10:37:00Z</time>
      </trkpt>
      <trkpt lat="45.97467" lon="4.75969">
        <ele>201</ele>
        <time>2017-05-22T10:37:03Z</time>
      </trkpt>
      <trkpt lat="45.97465" lon="4.75966">
        <ele>201</ele>
        <time>2017-05-22T10:37:04Z</time>
      </trkpt>
      <trkpt lat="45.97461" lon="4.75961">
        <ele>201</ele>
        <time>2017-05-22T10:37:06Z</time>
      </trkpt>
      <trkpt lat="45.97459" lon="4.75957">
        <ele>201</ele>
        <time>2017-05-22T10:37:07Z</time>
      </trkpt>
      <trkpt lat="45.97454" lon="4.75951">
        <ele>201</ele>
        <time>2017-05-22T10:37:09Z</time>
      </trkpt>
      <trkpt lat="45.97452" lon="4.75948">
        <ele>201</ele>
        <time>2017-05-22T10:37:10Z</time>
      </trkpt>
      <trkpt lat="45.97446" lon="4.75942">
        <ele>201</ele>
        <time>2017-05-22T10:37:13Z</time>
      </trkpt>
      <trkpt lat="45.97444" lon="4.7594">
        <ele>201</ele>
        <time>2017-05-22T10:37:14Z</time>
      </trkpt>
      <trkpt lat="45.97438" lon="4.75933">
        <ele>201</ele>
        <time>2017-05-22T10:37:18Z</time>
      </trkpt>
      <trkpt lat="45.97436" lon="4.75931">
        <ele>201</ele>
        <time>2017-05-22T10:37:19Z</time>
      </trkpt>
      <trkpt lat="45.9743" lon="4.75923">
        <ele>201</ele>
        <time>2017-05-22T10:37:22Z</time>
      </trkpt>
      <trkpt lat="45.97428" lon="4.7592">
        <ele>201</ele>
        <time>2017-05-22T10:37:23Z</time>
      </trkpt>
      <trkpt lat="45.97422" lon="4.75914">
        <ele>198</ele>
        <time>2017-05-22T10:37:25Z</time>
      </trkpt>
      <trkpt lat="45.97419" lon="4.75911">
        <ele>198</ele>
        <time>2017-05-22T10:37:26Z</time>
      </trkpt>
      <trkpt lat="45.97413" lon="4.75906">
        <ele>199</ele>
        <time>2017-05-22T10:37:28Z</time>
      </trkpt>
      <trkpt lat="45.97411" lon="4.75905">
        <ele>199</ele>
        <time>2017-05-22T10:37:29Z</time>
      </trkpt>
      <trkpt lat="45.97403" lon="4.75901">
        <ele>198</ele>
        <time>2017-05-22T10:37:33Z</time>
      </trkpt>
      <trkpt lat="45.97401" lon="4.759">
        <ele>198</ele>
        <time>2017-05-22T10:37:34Z</time>
      </trkpt>
      <trkpt lat="45.97393" lon="4.75897">
        <ele>198</ele>
        <time>2017-05-22T10:37:38Z</time>
      </trkpt>
      <trkpt lat="45.97391" lon="4.75897">
        <ele>197</ele>
        <time>2017-05-22T10:37:39Z</time>
      </trkpt>
      <trkpt lat="45.97382" lon="4.75895">
        <ele>198</ele>
        <time>2017-05-22T10:37:42Z</time>
      </trkpt>
      <trkpt lat="45.9738" lon="4.75893">
        <ele>198</ele>
        <time>2017-05-22T10:37:43Z</time>
      </trkpt>
      <trkpt lat="45.97371" lon="4.75891">
        <ele>198</ele>
        <time>2017-05-22T10:37:47Z</time>
      </trkpt>
      <trkpt lat="45.97368" lon="4.75891">
        <ele>198</ele>
        <time>2017-05-22T10:37:48Z</time>
      </trkpt>
      <trkpt lat="45.97361" lon="4.75888">
        <ele>199</ele>
        <time>2017-05-22T10:37:52Z</time>
      </trkpt>
      <trkpt lat="45.97359" lon="4.75888">
        <ele>199</ele>
        <time>2017-05-22T10:37:53Z</time>
      </trkpt>
      <trkpt lat="45.97351" lon="4.75887">
        <ele>199</ele>
        <time>2017-05-22T10:37:57Z</time>
      </trkpt>
      <trkpt lat="45.97349" lon="4.75887">
        <ele>200</ele>
        <time>2017-05-22T10:37:58Z</time>
      </trkpt>
      <trkpt lat="45.9734" lon="4.75886">
        <ele>200</ele>
        <time>2017-05-22T10:38:01Z</time>
      </trkpt>
      <trkpt lat="45.97338" lon="4.75886">
        <ele>200</ele>
        <time>2017-05-22T10:38:02Z</time>
      </trkpt>
      <trkpt lat="45.9733" lon="4.75885">
        <ele>206</ele>
        <time>2017-05-22T10:38:05Z</time>
      </trkpt>
      <trkpt lat="45.97328" lon="4.75885">
        <ele>206</ele>
        <time>2017-05-22T10:38:06Z</time>
      </trkpt>
      <trkpt lat="45.9732" lon="4.75884">
        <ele>206</ele>
        <time>2017-05-22T10:38:09Z</time>
      </trkpt>
      <trkpt lat="45.97317" lon="4.75884">
        <ele>206</ele>
        <time>2017-05-22T10:38:10Z</time>
      </trkpt>
      <trkpt lat="45.97311" lon="4.75883">
        <ele>206</ele>
        <time>2017-05-22T10:38:12Z</time>
      </trkpt>
      <trkpt lat="45.97308" lon="4.75883">
        <ele>206</ele>
        <time>2017-05-22T10:38:13Z</time>
      </trkpt>
      <trkpt lat="45.973" lon="4.75886">
        <ele>207</ele>
        <time>2017-05-22T10:38:16Z</time>
      </trkpt>
      <trkpt lat="45.97298" lon="4.75887">
        <ele>207</ele>
        <time>2017-05-22T10:38:17Z</time>
      </trkpt>
      <trkpt lat="45.9729" lon="4.75893">
        <ele>208</ele>
        <time>2017-05-22T10:38:21Z</time>
      </trkpt>
      <trkpt lat="45.97288" lon="4.75894">
        <ele>209</ele>
        <time>2017-05-22T10:38:22Z</time>
      </trkpt>
      <trkpt lat="45.9728" lon="4.75899">
        <ele>210</ele>
        <time>2017-05-22T10:38:26Z</time>
      </trkpt>
      <trkpt lat="45.97277" lon="4.759">
        <ele>210</ele>
        <time>2017-05-22T10:38:27Z</time>
      </trkpt>
      <trkpt lat="45.97271" lon="4.75905">
        <ele>211</ele>
        <time>2017-05-22T10:38:30Z</time>
      </trkpt>
      <trkpt lat="45.97269" lon="4.75907">
        <ele>212</ele>
        <time>2017-05-22T10:38:31Z</time>
      </trkpt>
      <trkpt lat="45.97262" lon="4.75912">
        <ele>214</ele>
        <time>2017-05-22T10:38:34Z</time>
      </trkpt>
      <trkpt lat="45.9726" lon="4.75913">
        <ele>215</ele>
        <time>2017-05-22T10:38:35Z</time>
      </trkpt>
      <trkpt lat="45.97253" lon="4.75918">
        <ele>219</ele>
        <time>2017-05-22T10:38:38Z</time>
      </trkpt>
      <trkpt lat="45.9725" lon="4.75919">
        <ele>219</ele>
        <time>2017-05-22T10:38:39Z</time>
      </trkpt>
      <trkpt lat="45.97242" lon="4.75917">
        <ele>221</ele>
        <time>2017-05-22T10:38:43Z</time>
      </trkpt>
      <trkpt lat="45.97239" lon="4.75917">
        <ele>218</ele>
        <time>2017-05-22T10:38:44Z</time>
      </trkpt>
      <trkpt lat="45.97232" lon="4.75912">
        <ele>218</ele>
        <time>2017-05-22T10:38:47Z</time>
      </trkpt>
      <trkpt lat="45.9723" lon="4.7591">
        <ele>218</ele>
        <time>2017-05-22T10:38:48Z</time>
      </trkpt>
      <trkpt lat="45.97225" lon="4.75905">
        <ele>218</ele>
        <time>2017-05-22T10:38:50Z</time>
      </trkpt>
      <trkpt lat="45.97222" lon="4.75902">
        <ele>218</ele>
        <time>2017-05-22T10:38:51Z</time>
      </trkpt>
      <trkpt lat="45.97215" lon="4.75893">
        <ele>217</ele>
        <time>2017-05-22T10:38:54Z</time>
      </trkpt>
      <trkpt lat="45.97213" lon="4.75892">
        <ele>217</ele>
        <time>2017-05-22T10:38:55Z</time>
      </trkpt>
      <trkpt lat="45.97208" lon="4.75887">
        <ele>217</ele>
        <time>2017-05-22T10:38:57Z</time>
      </trkpt>
      <trkpt lat="45.97204" lon="4.75885">
        <ele>217</ele>
        <time>2017-05-22T10:38:58Z</time>
      </trkpt>
      <trkpt lat="45.97196" lon="4.75881">
        <ele>217</ele>
        <time>2017-05-22T10:39:00Z</time>
      </trkpt>
      <trkpt lat="45.97193" lon="4.75879">
        <ele>217</ele>
        <time>2017-05-22T10:39:01Z</time>
      </trkpt>
      <trkpt lat="45.97188" lon="4.75876">
        <ele>217</ele>
        <time>2017-05-22T10:39:02Z</time>
      </trkpt>
      <trkpt lat="45.97183" lon="4.75874">
        <ele>217</ele>
        <time>2017-05-22T10:39:03Z</time>
      </trkpt>
      <trkpt lat="45.97177" lon="4.75871">
        <ele>217</ele>
        <time>2017-05-22T10:39:05Z</time>
      </trkpt>
      <trkpt lat="45.97173" lon="4.75869">
        <ele>217</ele>
        <time>2017-05-22T10:39:06Z</time>
      </trkpt>
      <trkpt lat="45.97167" lon="4.75867">
        <ele>217</ele>
        <time>2017-05-22T10:39:08Z</time>
      </trkpt>
      <trkpt lat="45.97164" lon="4.75866">
        <ele>220</ele>
        <time>2017-05-22T10:39:09Z</time>
      </trkpt>
      <trkpt lat="45.97157" lon="4.75864">
        <ele>219</ele>
        <time>2017-05-22T10:39:11Z</time>
      </trkpt>
      <trkpt lat="45.97153" lon="4.75863">
        <ele>219</ele>
        <time>2017-05-22T10:39:12Z</time>
      </trkpt>
      <trkpt lat="45.97148" lon="4.7586">
        <ele>219</ele>
        <time>2017-05-22T10:39:13Z</time>
      </trkpt>
      <trkpt lat="45.97143" lon="4.75859">
        <ele>219</ele>
        <time>2017-05-22T10:39:14Z</time>
      </trkpt>
      <trkpt lat="45.97135" lon="4.75856">
        <ele>219</ele>
        <time>2017-05-22T10:39:17Z</time>
      </trkpt>
      <trkpt lat="45.97134" lon="4.75855">
        <ele>219</ele>
        <time>2017-05-22T10:39:18Z</time>
      </trkpt>
      <trkpt lat="45.97126" lon="4.75854">
        <ele>219</ele>
        <time>2017-05-22T10:39:21Z</time>
      </trkpt>
      <trkpt lat="45.97123" lon="4.75854">
        <ele>219</ele>
        <time>2017-05-22T10:39:22Z</time>
      </trkpt>
      <trkpt lat="45.97116" lon="4.75854">
        <ele>219</ele>
        <time>2017-05-22T10:39:24Z</time>
      </trkpt>
      <trkpt lat="45.97112" lon="4.75854">
        <ele>219</ele>
        <time>2017-05-22T10:39:25Z</time>
      </trkpt>
      <trkpt lat="45.97106" lon="4.75857">
        <ele>219</ele>
        <time>2017-05-22T10:39:27Z</time>
      </trkpt>
      <trkpt lat="45.97103" lon="4.75858">
        <ele>219</ele>
        <time>2017-05-22T10:39:28Z</time>
      </trkpt>
      <trkpt lat="45.97096" lon="4.75864">
        <ele>220</ele>
        <time>2017-05-22T10:39:34Z</time>
      </trkpt>
      <trkpt lat="45.97095" lon="4.75865">
        <ele>220</ele>
        <time>2017-05-22T10:39:35Z</time>
      </trkpt>
      <trkpt lat="45.97091" lon="4.75871">
        <ele>221</ele>
        <time>2017-05-22T10:41:16Z</time>
      </trkpt>
      <trkpt lat="45.97086" lon="4.75875">
        <ele>221</ele>
        <time>2017-05-22T10:41:17Z</time>
      </trkpt>
      <trkpt lat="45.97085" lon="4.75876">
        <ele>222</ele>
        <time>2017-05-22T10:41:19Z</time>
      </trkpt>
      <trkpt lat="45.97085" lon="4.75877">
        <ele>222</ele>
        <time>2017-05-22T10:41:20Z</time>
      </trkpt>
      <trkpt lat="45.97084" lon="4.75879">
        <ele>222</ele>
        <time>2017-05-22T10:41:22Z</time>
      </trkpt>
      <trkpt lat="45.97076" lon="4.75889">
        <ele>224</ele>
        <time>2017-05-22T10:41:23Z</time>
      </trkpt>
      <trkpt lat="45.97066" lon="4.75895">
        <ele>224</ele>
        <time>2017-05-22T10:41:24Z</time>
      </trkpt>
      <trkpt lat="45.97058" lon="4.75902">
        <ele>224</ele>
        <time>2017-05-22T10:41:25Z</time>
      </trkpt>
      <trkpt lat="45.97053" lon="4.75907">
        <ele>224</ele>
        <time>2017-05-22T10:41:26Z</time>
      </trkpt>
      <trkpt lat="45.97046" lon="4.75912">
        <ele>224</ele>
        <time>2017-05-22T10:41:27Z</time>
      </trkpt>
      <trkpt lat="45.97029" lon="4.75917">
        <ele>229</ele>
        <time>2017-05-22T10:41:28Z</time>
      </trkpt>
      <trkpt lat="45.97016" lon="4.75925">
        <ele>227</ele>
        <time>2017-05-22T10:41:29Z</time>
      </trkpt>
      <trkpt lat="45.97011" lon="4.75928">
        <ele>227</ele>
        <time>2017-05-22T10:41:30Z</time>
      </trkpt>
      <trkpt lat="45.97007" lon="4.75931">
        <ele>227</ele>
        <time>2017-05-22T10:41:31Z</time>
      </trkpt>
      <trkpt lat="45.96992" lon="4.75937">
        <ele>226</ele>
        <time>2017-05-22T10:41:32Z</time>
      </trkpt>
      <trkpt lat="45.96983" lon="4.75941">
        <ele>227</ele>
        <time>2017-05-22T10:41:33Z</time>
      </trkpt>
      <trkpt lat="45.96975" lon="4.75945">
        <ele>227</ele>
        <time>2017-05-22T10:41:34Z</time>
      </trkpt>
      <trkpt lat="45.96971" lon="4.75948">
        <ele>227</ele>
        <time>2017-05-22T10:41:35Z</time>
      </trkpt>
      <trkpt lat="45.96965" lon="4.7595">
        <ele>227</ele>
        <time>2017-05-22T10:41:36Z</time>
      </trkpt>
      <trkpt lat="45.9696" lon="4.75953">
        <ele>227</ele>
        <time>2017-05-22T10:41:37Z</time>
      </trkpt>
      <trkpt lat="45.96954" lon="4.75956">
        <ele>227</ele>
        <time>2017-05-22T10:41:38Z</time>
      </trkpt>
      <trkpt lat="45.9695" lon="4.75957">
        <ele>227</ele>
        <time>2017-05-22T10:41:39Z</time>
      </trkpt>
      <trkpt lat="45.96942" lon="4.7596">
        <ele>228</ele>
        <time>2017-05-22T10:41:41Z</time>
      </trkpt>
      <trkpt lat="45.96939" lon="4.75962">
        <ele>228</ele>
        <time>2017-05-22T10:41:42Z</time>
      </trkpt>
      <trkpt lat="45.96933" lon="4.75963">
        <ele>228</ele>
        <time>2017-05-22T10:41:44Z</time>
      </trkpt>
      <trkpt lat="45.96929" lon="4.75964">
        <ele>228</ele>
        <time>2017-05-22T10:41:45Z</time>
      </trkpt>
      <trkpt lat="45.96921" lon="4.75967">
        <ele>228</ele>
        <time>2017-05-22T10:41:48Z</time>
      </trkpt>
      <trkpt lat="45.96919" lon="4.75967">
        <ele>228</ele>
        <time>2017-05-22T10:41:49Z</time>
      </trkpt>
      <trkpt lat="45.96911" lon="4.75967">
        <ele>226</ele>
        <time>2017-05-22T10:41:53Z</time>
      </trkpt>
      <trkpt lat="45.96909" lon="4.75965">
        <ele>226</ele>
        <time>2017-05-22T10:41:54Z</time>
      </trkpt>
      <trkpt lat="45.96903" lon="4.75962">
        <ele>226</ele>
        <time>2017-05-22T10:41:57Z</time>
      </trkpt>
      <trkpt lat="45.96901" lon="4.75961">
        <ele>226</ele>
        <time>2017-05-22T10:41:58Z</time>
      </trkpt>
      <trkpt lat="45.96892" lon="4.75957">
        <ele>226</ele>
        <time>2017-05-22T10:42:02Z</time>
      </trkpt>
      <trkpt lat="45.9689" lon="4.75956">
        <ele>226</ele>
        <time>2017-05-22T10:42:03Z</time>
      </trkpt>
      <trkpt lat="45.96882" lon="4.75952">
        <ele>226</ele>
        <time>2017-05-22T10:42:06Z</time>
      </trkpt>
      <trkpt lat="45.96879" lon="4.7595">
        <ele>226</ele>
        <time>2017-05-22T10:42:07Z</time>
      </trkpt>
      <trkpt lat="45.96873" lon="4.75948">
        <ele>225</ele>
        <time>2017-05-22T10:42:09Z</time>
      </trkpt>
      <trkpt lat="45.96869" lon="4.75947">
        <ele>225</ele>
        <time>2017-05-22T10:42:10Z</time>
      </trkpt>
      <trkpt lat="45.96861" lon="4.75944">
        <ele>225</ele>
        <time>2017-05-22T10:42:12Z</time>
      </trkpt>
      <trkpt lat="45.96857" lon="4.75941">
        <ele>225</ele>
        <time>2017-05-22T10:42:13Z</time>
      </trkpt>
      <trkpt lat="45.96852" lon="4.75939">
        <ele>225</ele>
        <time>2017-05-22T10:42:14Z</time>
      </trkpt>
      <trkpt lat="45.96848" lon="4.75937">
        <ele>225</ele>
        <time>2017-05-22T10:42:15Z</time>
      </trkpt>
      <trkpt lat="45.96843" lon="4.75934">
        <ele>225</ele>
        <time>2017-05-22T10:42:16Z</time>
      </trkpt>
      <trkpt lat="45.96839" lon="4.75932">
        <ele>225</ele>
        <time>2017-05-22T10:42:17Z</time>
      </trkpt>
      <trkpt lat="45.96834" lon="4.75931">
        <ele>225</ele>
        <time>2017-05-22T10:42:18Z</time>
      </trkpt>
      <trkpt lat="45.9683" lon="4.75929">
        <ele>223</ele>
        <time>2017-05-22T10:42:19Z</time>
      </trkpt>
      <trkpt lat="45.96825" lon="4.75927">
        <ele>223</ele>
        <time>2017-05-22T10:42:20Z</time>
      </trkpt>
      <trkpt lat="45.9682" lon="4.75924">
        <ele>222</ele>
        <time>2017-05-22T10:42:21Z</time>
      </trkpt>
      <trkpt lat="45.96815" lon="4.75921">
        <ele>222</ele>
        <time>2017-05-22T10:42:22Z</time>
      </trkpt>
      <trkpt lat="45.96809" lon="4.75918">
        <ele>222</ele>
        <time>2017-05-22T10:42:23Z</time>
      </trkpt>
      <trkpt lat="45.96804" lon="4.75916">
        <ele>222</ele>
        <time>2017-05-22T10:42:24Z</time>
      </trkpt>
      <trkpt lat="45.96799" lon="4.75913">
        <ele>222</ele>
        <time>2017-05-22T10:42:25Z</time>
      </trkpt>
      <trkpt lat="45.96794" lon="4.75911">
        <ele>222</ele>
        <time>2017-05-22T10:42:26Z</time>
      </trkpt>
      <trkpt lat="45.96789" lon="4.75908">
        <ele>221</ele>
        <time>2017-05-22T10:42:27Z</time>
      </trkpt>
      <trkpt lat="45.96784" lon="4.75906">
        <ele>221</ele>
        <time>2017-05-22T10:42:28Z</time>
      </trkpt>
      <trkpt lat="45.96779" lon="4.75904">
        <ele>221</ele>
        <time>2017-05-22T10:42:29Z</time>
      </trkpt>
      <trkpt lat="45.96774" lon="4.75902">
        <ele>221</ele>
        <time>2017-05-22T10:42:30Z</time>
      </trkpt>
      <trkpt lat="45.96768" lon="4.759">
        <ele>220</ele>
        <time>2017-05-22T10:42:31Z</time>
      </trkpt>
      <trkpt lat="45.96763" lon="4.75898">
        <ele>220</ele>
        <time>2017-05-22T10:42:32Z</time>
      </trkpt>
      <trkpt lat="45.96758" lon="4.75896">
        <ele>220</ele>
        <time>2017-05-22T10:42:33Z</time>
      </trkpt>
      <trkpt lat="45.96754" lon="4.75893">
        <ele>220</ele>
        <time>2017-05-22T10:42:34Z</time>
      </trkpt>
      <trkpt lat="45.96748" lon="4.75891">
        <ele>218</ele>
        <time>2017-05-22T10:42:35Z</time>
      </trkpt>
      <trkpt lat="45.96743" lon="4.75888">
        <ele>218</ele>
        <time>2017-05-22T10:42:36Z</time>
      </trkpt>
      <trkpt lat="45.96738" lon="4.75886">
        <ele>219</ele>
        <time>2017-05-22T10:42:37Z</time>
      </trkpt>
      <trkpt lat="45.96733" lon="4.75884">
        <ele>219</ele>
        <time>2017-05-22T10:42:38Z</time>
      </trkpt>
      <trkpt lat="45.96728" lon="4.75882">
        <ele>219</ele>
        <time>2017-05-22T10:42:39Z</time>
      </trkpt>
      <trkpt lat="45.96722" lon="4.75879">
        <ele>219</ele>
        <time>2017-05-22T10:42:40Z</time>
      </trkpt>
      <trkpt lat="45.96717" lon="4.75877">
        <ele>219</ele>
        <time>2017-05-22T10:42:41Z</time>
      </trkpt>
      <trkpt lat="45.96712" lon="4.75874">
        <ele>219</ele>
        <time>2017-05-22T10:42:42Z</time>
      </trkpt>
      <trkpt lat="45.96706" lon="4.75872">
        <ele>219</ele>
        <time>2017-05-22T10:42:43Z</time>
      </trkpt>
      <trkpt lat="45.96701" lon="4.75869">
        <ele>218</ele>
        <time>2017-05-22T10:42:44Z</time>
      </trkpt>
      <trkpt lat="45.96695" lon="4.75866">
        <ele>218</ele>
        <time>2017-05-22T10:42:45Z</time>
      </trkpt>
      <trkpt lat="45.9669" lon="4.75864">
        <ele>218</ele>
        <time>2017-05-22T10:42:46Z</time>
      </trkpt>
      <trkpt lat="45.96684" lon="4.75861">
        <ele>218</ele>
        <time>2017-05-22T10:42:47Z</time>
      </trkpt>
      <trkpt lat="45.96678" lon="4.75858">
        <ele>218</ele>
        <time>2017-05-22T10:42:48Z</time>
      </trkpt>
      <trkpt lat="45.96672" lon="4.75855">
        <ele>218</ele>
        <time>2017-05-22T10:42:49Z</time>
      </trkpt>
      <trkpt lat="45.96666" lon="4.75852">
        <ele>218</ele>
        <time>2017-05-22T10:42:50Z</time>
      </trkpt>
      <trkpt lat="45.96661" lon="4.75849">
        <ele>218</ele>
        <time>2017-05-22T10:42:51Z</time>
      </trkpt>
      <trkpt lat="45.96655" lon="4.75846">
        <ele>218</ele>
        <time>2017-05-22T10:42:52Z</time>
      </trkpt>
      <trkpt lat="45.9665" lon="4.75843">
        <ele>218</ele>
        <time>2017-05-22T10:42:53Z</time>
      </trkpt>
      <trkpt lat="45.96644" lon="4.75841">
        <ele>218</ele>
        <time>2017-05-22T10:42:54Z</time>
      </trkpt>
      <trkpt lat="45.96638" lon="4.75838">
        <ele>218</ele>
        <time>2017-05-22T10:42:55Z</time>
      </trkpt>
      <trkpt lat="45.96633" lon="4.75836">
        <ele>217</ele>
        <time>2017-05-22T10:42:56Z</time>
      </trkpt>
      <trkpt lat="45.96627" lon="4.75834">
        <ele>217</ele>
        <time>2017-05-22T10:42:57Z</time>
      </trkpt>
      <trkpt lat="45.96622" lon="4.75832">
        <ele>217</ele>
        <time>2017-05-22T10:42:58Z</time>
      </trkpt>
      <trkpt lat="45.96616" lon="4.75829">
        <ele>217</ele>
        <time>2017-05-22T10:42:59Z</time>
      </trkpt>
      <trkpt lat="45.96611" lon="4.75826">
        <ele>217</ele>
        <time>2017-05-22T10:43:00Z</time>
      </trkpt>
      <trkpt lat="45.96606" lon="4.75823">
        <ele>217</ele>
        <time>2017-05-22T10:43:01Z</time>
      </trkpt>
      <trkpt lat="45.96601" lon="4.75821">
        <ele>217</ele>
        <time>2017-05-22T10:43:02Z</time>
      </trkpt>
      <trkpt lat="45.96596" lon="4.75819">
        <ele>217</ele>
        <time>2017-05-22T10:43:03Z</time>
      </trkpt>
      <trkpt lat="45.96592" lon="4.75816">
        <ele>217</ele>
        <time>2017-05-22T10:43:04Z</time>
      </trkpt>
      <trkpt lat="45.96587" lon="4.75814">
        <ele>217</ele>
        <time>2017-05-22T10:43:05Z</time>
      </trkpt>
      <trkpt lat="45.96582" lon="4.75812">
        <ele>216</ele>
        <time>2017-05-22T10:43:06Z</time>
      </trkpt>
      <trkpt lat="45.96577" lon="4.75809">
        <ele>216</ele>
        <time>2017-05-22T10:43:07Z</time>
      </trkpt>
      <trkpt lat="45.96572" lon="4.75807">
        <ele>216</ele>
        <time>2017-05-22T10:43:08Z</time>
      </trkpt>
      <trkpt lat="45.96566" lon="4.75804">
        <ele>216</ele>
        <time>2017-05-22T10:43:09Z</time>
      </trkpt>
      <trkpt lat="45.96561" lon="4.75801">
        <ele>216</ele>
        <time>2017-05-22T10:43:10Z</time>
      </trkpt>
      <trkpt lat="45.96555" lon="4.75798">
        <ele>216</ele>
        <time>2017-05-22T10:43:11Z</time>
      </trkpt>
      <trkpt lat="45.96549" lon="4.75795">
        <ele>216</ele>
        <time>2017-05-22T10:43:12Z</time>
      </trkpt>
      <trkpt lat="45.96543" lon="4.75792">
        <ele>216</ele>
        <time>2017-05-22T10:43:13Z</time>
      </trkpt>
      <trkpt lat="45.96536" lon="4.75789">
        <ele>217</ele>
        <time>2017-05-22T10:43:14Z</time>
      </trkpt>
      <trkpt lat="45.9653" lon="4.75786">
        <ele>217</ele>
        <time>2017-05-22T10:43:15Z</time>
      </trkpt>
      <trkpt lat="45.96523" lon="4.75783">
        <ele>217</ele>
        <time>2017-05-22T10:43:16Z</time>
      </trkpt>
      <trkpt lat="45.96517" lon="4.75781">
        <ele>217</ele>
        <time>2017-05-22T10:43:17Z</time>
      </trkpt>
      <trkpt lat="45.96511" lon="4.75778">
        <ele>217</ele>
        <time>2017-05-22T10:43:18Z</time>
      </trkpt>
      <trkpt lat="45.96505" lon="4.75775">
        <ele>217</ele>
        <time>2017-05-22T10:43:19Z</time>
      </trkpt>
      <trkpt lat="45.96499" lon="4.75772">
        <ele>216</ele>
        <time>2017-05-22T10:43:20Z</time>
      </trkpt>
      <trkpt lat="45.96494" lon="4.75769">
        <ele>216</ele>
        <time>2017-05-22T10:43:21Z</time>
      </trkpt>
      <trkpt lat="45.96489" lon="4.75766">
        <ele>216</ele>
        <time>2017-05-22T10:43:22Z</time>
      </trkpt>
      <trkpt lat="45.96484" lon="4.75763">
        <ele>216</ele>
        <time>2017-05-22T10:43:23Z</time>
      </trkpt>
      <trkpt lat="45.96479" lon="4.75761">
        <ele>216</ele>
        <time>2017-05-22T10:43:24Z</time>
      </trkpt>
      <trkpt lat="45.96473" lon="4.75758">
        <ele>216</ele>
        <time>2017-05-22T10:43:25Z</time>
      </trkpt>
      <trkpt lat="45.96468" lon="4.75756">
        <ele>216</ele>
        <time>2017-05-22T10:43:26Z</time>
      </trkpt>
      <trkpt lat="45.96462" lon="4.75753">
        <ele>216</ele>
        <time>2017-05-22T10:43:27Z</time>
      </trkpt>
      <trkpt lat="45.96457" lon="4.75751">
        <ele>216</ele>
        <time>2017-05-22T10:43:28Z</time>
      </trkpt>
      <trkpt lat="45.96453" lon="4.75748">
        <ele>218</ele>
        <time>2017-05-22T10:43:29Z</time>
      </trkpt>
      <trkpt lat="45.96449" lon="4.75746">
        <ele>218</ele>
        <time>2017-05-22T10:43:30Z</time>
      </trkpt>
      <trkpt lat="45.96444" lon="4.75744">
        <ele>218</ele>
        <time>2017-05-22T10:43:31Z</time>
      </trkpt>
      <trkpt lat="45.96439" lon="4.75742">
        <ele>218</ele>
        <time>2017-05-22T10:43:32Z</time>
      </trkpt>
      <trkpt lat="45.96434" lon="4.75739">
        <ele>218</ele>
        <time>2017-05-22T10:43:33Z</time>
      </trkpt>
      <trkpt lat="45.96429" lon="4.75737">
        <ele>218</ele>
        <time>2017-05-22T10:43:34Z</time>
      </trkpt>
      <trkpt lat="45.96424" lon="4.75734">
        <ele>218</ele>
        <time>2017-05-22T10:43:35Z</time>
      </trkpt>
      <trkpt lat="45.96418" lon="4.75731">
        <ele>218</ele>
        <time>2017-05-22T10:43:36Z</time>
      </trkpt>
      <trkpt lat="45.96412" lon="4.75728">
        <ele>216</ele>
        <time>2017-05-22T10:43:37Z</time>
      </trkpt>
      <trkpt lat="45.96406" lon="4.75726">
        <ele>216</ele>
        <time>2017-05-22T10:43:38Z</time>
      </trkpt>
      <trkpt lat="45.964" lon="4.75723">
        <ele>216</ele>
        <time>2017-05-22T10:43:39Z</time>
      </trkpt>
      <trkpt lat="45.96394" lon="4.7572">
        <ele>216</ele>
        <time>2017-05-22T10:43:40Z</time>
      </trkpt>
      <trkpt lat="45.96389" lon="4.75717">
        <ele>216</ele>
        <time>2017-05-22T10:43:41Z</time>
      </trkpt>
      <trkpt lat="45.96383" lon="4.75714">
        <ele>215</ele>
        <time>2017-05-22T10:43:42Z</time>
      </trkpt>
      <trkpt lat="45.96378" lon="4.75712">
        <ele>215</ele>
        <time>2017-05-22T10:43:43Z</time>
      </trkpt>
      <trkpt lat="45.96372" lon="4.75709">
        <ele>215</ele>
        <time>2017-05-22T10:43:44Z</time>
      </trkpt>
      <trkpt lat="45.96366" lon="4.75707">
        <ele>215</ele>
        <time>2017-05-22T10:43:45Z</time>
      </trkpt>
      <trkpt lat="45.96361" lon="4.75704">
        <ele>215</ele>
        <time>2017-05-22T10:43:46Z</time>
      </trkpt>
      <trkpt lat="45.96355" lon="4.75702">
        <ele>215</ele>
        <time>2017-05-22T10:43:47Z</time>
      </trkpt>
      <trkpt lat="45.96349" lon="4.75701">
        <ele>215</ele>
        <time>2017-05-22T10:43:48Z</time>
      </trkpt>
      <trkpt lat="45.96342" lon="4.75699">
        <ele>214</ele>
        <time>2017-05-22T10:43:49Z</time>
      </trkpt>
      <trkpt lat="45.96335" lon="4.75698">
        <ele>214</ele>
        <time>2017-05-22T10:43:50Z</time>
      </trkpt>
      <trkpt lat="45.96329" lon="4.75697">
        <ele>211</ele>
        <time>2017-05-22T10:43:51Z</time>
      </trkpt>
      <trkpt lat="45.96322" lon="4.75698">
        <ele>211</ele>
        <time>2017-05-22T10:43:52Z</time>
      </trkpt>
      <trkpt lat="45.96315" lon="4.75698">
        <ele>211</ele>
        <time>2017-05-22T10:43:53Z</time>
      </trkpt>
      <trkpt lat="45.96307" lon="4.75699">
        <ele>211</ele>
        <time>2017-05-22T10:43:54Z</time>
      </trkpt>
      <trkpt lat="45.963" lon="4.75699">
        <ele>211</ele>
        <time>2017-05-22T10:43:55Z</time>
      </trkpt>
      <trkpt lat="45.96293" lon="4.757">
        <ele>210</ele>
        <time>2017-05-22T10:43:56Z</time>
      </trkpt>
      <trkpt lat="45.96286" lon="4.757">
        <ele>210</ele>
        <time>2017-05-22T10:43:57Z</time>
      </trkpt>
      <trkpt lat="45.96279" lon="4.75701">
        <ele>210</ele>
        <time>2017-05-22T10:43:58Z</time>
      </trkpt>
      <trkpt lat="45.96271" lon="4.757">
        <ele>210</ele>
        <time>2017-05-22T10:43:59Z</time>
      </trkpt>
      <trkpt lat="45.96263" lon="4.75701">
        <ele>210</ele>
        <time>2017-05-22T10:44:00Z</time>
      </trkpt>
      <trkpt lat="45.96255" lon="4.75702">
        <ele>210</ele>
        <time>2017-05-22T10:44:01Z</time>
      </trkpt>
      <trkpt lat="45.96248" lon="4.75702">
        <ele>207</ele>
        <time>2017-05-22T10:44:02Z</time>
      </trkpt>
      <trkpt lat="45.96241" lon="4.75703">
        <ele>207</ele>
        <time>2017-05-22T10:44:03Z</time>
      </trkpt>
      <trkpt lat="45.96234" lon="4.75704">
        <ele>207</ele>
        <time>2017-05-22T10:44:04Z</time>
      </trkpt>
      <trkpt lat="45.96227" lon="4.75705">
        <ele>207</ele>
        <time>2017-05-22T10:44:05Z</time>
      </trkpt>
      <trkpt lat="45.96219" lon="4.75707">
        <ele>207</ele>
        <time>2017-05-22T10:44:06Z</time>
      </trkpt>
      <trkpt lat="45.96212" lon="4.75708">
        <ele>207</ele>
        <time>2017-05-22T10:44:07Z</time>
      </trkpt>
      <trkpt lat="45.96204" lon="4.75708">
        <ele>206</ele>
        <time>2017-05-22T10:44:08Z</time>
      </trkpt>
      <trkpt lat="45.96197" lon="4.75709">
        <ele>206</ele>
        <time>2017-05-22T10:44:09Z</time>
      </trkpt>
      <trkpt lat="45.96189" lon="4.75709">
        <ele>206</ele>
        <time>2017-05-22T10:44:10Z</time>
      </trkpt>
      <trkpt lat="45.96181" lon="4.7571">
        <ele>206</ele>
        <time>2017-05-22T10:44:11Z</time>
      </trkpt>
      <trkpt lat="45.96173" lon="4.75712">
        <ele>206</ele>
        <time>2017-05-22T10:44:12Z</time>
      </trkpt>
      <trkpt lat="45.96165" lon="4.75712">
        <ele>204</ele>
        <time>2017-05-22T10:44:13Z</time>
      </trkpt>
      <trkpt lat="45.96157" lon="4.75713">
        <ele>204</ele>
        <time>2017-05-22T10:44:14Z</time>
      </trkpt>
      <trkpt lat="45.96149" lon="4.75714">
        <ele>204</ele>
        <time>2017-05-22T10:44:15Z</time>
      </trkpt>
      <trkpt lat="45.96141" lon="4.75715">
        <ele>204</ele>
        <time>2017-05-22T10:44:16Z</time>
      </trkpt>
      <trkpt lat="45.96133" lon="4.75715">
        <ele>203</ele>
        <time>2017-05-22T10:44:17Z</time>
      </trkpt>
      <trkpt lat="45.96125" lon="4.75717">
        <ele>203</ele>
        <time>2017-05-22T10:44:18Z</time>
      </trkpt>
      <trkpt lat="45.96117" lon="4.75717">
        <ele>203</ele>
        <time>2017-05-22T10:44:19Z</time>
      </trkpt>
      <trkpt lat="45.9611" lon="4.75718">
        <ele>203</ele>
        <time>2017-05-22T10:44:20Z</time>
      </trkpt>
      <trkpt lat="45.96102" lon="4.75719">
        <ele>203</ele>
        <time>2017-05-22T10:44:21Z</time>
      </trkpt>
      <trkpt lat="45.96095" lon="4.7572">
        <ele>203</ele>
        <time>2017-05-22T10:44:22Z</time>
      </trkpt>
      <trkpt lat="45.96087" lon="4.7572">
        <ele>203</ele>
        <time>2017-05-22T10:44:23Z</time>
      </trkpt>
      <trkpt lat="45.96079" lon="4.75721">
        <ele>201</ele>
        <time>2017-05-22T10:44:24Z</time>
      </trkpt>
      <trkpt lat="45.96072" lon="4.75722">
        <ele>201</ele>
        <time>2017-05-22T10:44:25Z</time>
      </trkpt>
      <trkpt lat="45.96064" lon="4.75723">
        <ele>201</ele>
        <time>2017-05-22T10:44:26Z</time>
      </trkpt>
      <trkpt lat="45.96056" lon="4.75723">
        <ele>201</ele>
        <time>2017-05-22T10:44:27Z</time>
      </trkpt>
      <trkpt lat="45.96049" lon="4.75724">
        <ele>201</ele>
        <time>2017-05-22T10:44:28Z</time>
      </trkpt>
      <trkpt lat="45.96041" lon="4.75725">
        <ele>200</ele>
        <time>2017-05-22T10:44:29Z</time>
      </trkpt>
      <trkpt lat="45.96033" lon="4.75726">
        <ele>200</ele>
        <time>2017-05-22T10:44:30Z</time>
      </trkpt>
      <trkpt lat="45.96026" lon="4.75727">
        <ele>200</ele>
        <time>2017-05-22T10:44:31Z</time>
      </trkpt>
      <trkpt lat="45.96019" lon="4.75728">
        <ele>200</ele>
        <time>2017-05-22T10:44:32Z</time>
      </trkpt>
      <trkpt lat="45.96011" lon="4.75729">
        <ele>200</ele>
        <time>2017-05-22T10:44:33Z</time>
      </trkpt>
      <trkpt lat="45.96004" lon="4.7573">
        <ele>200</ele>
        <time>2017-05-22T10:44:34Z</time>
      </trkpt>
      <trkpt lat="45.95997" lon="4.75731">
        <ele>199</ele>
        <time>2017-05-22T10:44:35Z</time>
      </trkpt>
      <trkpt lat="45.95989" lon="4.75732">
        <ele>199</ele>
        <time>2017-05-22T10:44:36Z</time>
      </trkpt>
      <trkpt lat="45.95982" lon="4.75733">
        <ele>199</ele>
        <time>2017-05-22T10:44:37Z</time>
      </trkpt>
      <trkpt lat="45.95975" lon="4.75734">
        <ele>199</ele>
        <time>2017-05-22T10:44:38Z</time>
      </trkpt>
      <trkpt lat="45.95968" lon="4.75734">
        <ele>199</ele>
        <time>2017-05-22T10:44:39Z</time>
      </trkpt>
      <trkpt lat="45.95961" lon="4.75735">
        <ele>199</ele>
        <time>2017-05-22T10:44:40Z</time>
      </trkpt>
      <trkpt lat="45.95954" lon="4.75736">
        <ele>198</ele>
        <time>2017-05-22T10:44:41Z</time>
      </trkpt>
      <trkpt lat="45.95946" lon="4.75737">
        <ele>198</ele>
        <time>2017-05-22T10:44:42Z</time>
      </trkpt>
      <trkpt lat="45.95939" lon="4.75738">
        <ele>198</ele>
        <time>2017-05-22T10:44:43Z</time>
      </trkpt>
      <trkpt lat="45.95932" lon="4.75739">
        <ele>198</ele>
        <time>2017-05-22T10:44:44Z</time>
      </trkpt>
      <trkpt lat="45.95926" lon="4.7574">
        <ele>198</ele>
        <time>2017-05-22T10:44:45Z</time>
      </trkpt>
      <trkpt lat="45.95919" lon="4.75741">
        <ele>198</ele>
        <time>2017-05-22T10:44:46Z</time>
      </trkpt>
      <trkpt lat="45.95912" lon="4.75741">
        <ele>198</ele>
        <time>2017-05-22T10:44:47Z</time>
      </trkpt>
      <trkpt lat="45.95905" lon="4.75742">
        <ele>198</ele>
        <time>2017-05-22T10:44:48Z</time>
      </trkpt>
      <trkpt lat="45.95898" lon="4.75744">
        <ele>198</ele>
        <time>2017-05-22T10:44:49Z</time>
      </trkpt>
      <trkpt lat="45.95891" lon="4.75744">
        <ele>198</ele>
        <time>2017-05-22T10:44:50Z</time>
      </trkpt>
      <trkpt lat="45.95884" lon="4.75745">
        <ele>198</ele>
        <time>2017-05-22T10:44:51Z</time>
      </trkpt>
      <trkpt lat="45.95878" lon="4.75745">
        <ele>198</ele>
        <time>2017-05-22T10:44:52Z</time>
      </trkpt>
      <trkpt lat="45.95872" lon="4.75746">
        <ele>197</ele>
        <time>2017-05-22T10:44:53Z</time>
      </trkpt>
      <trkpt lat="45.95866" lon="4.75747">
        <ele>197</ele>
        <time>2017-05-22T10:44:54Z</time>
      </trkpt>
      <trkpt lat="45.9586" lon="4.75748">
        <ele>197</ele>
        <time>2017-05-22T10:44:55Z</time>
      </trkpt>
      <trkpt lat="45.95853" lon="4.75749">
        <ele>197</ele>
        <time>2017-05-22T10:44:56Z</time>
      </trkpt>
      <trkpt lat="45.95847" lon="4.7575">
        <ele>197</ele>
        <time>2017-05-22T10:44:57Z</time>
      </trkpt>
      <trkpt lat="45.9584" lon="4.75751">
        <ele>197</ele>
        <time>2017-05-22T10:44:58Z</time>
      </trkpt>
      <trkpt lat="45.95833" lon="4.75753">
        <ele>197</ele>
        <time>2017-05-22T10:44:59Z</time>
      </trkpt>
      <trkpt lat="45.95826" lon="4.75754">
        <ele>196</ele>
        <time>2017-05-22T10:45:00Z</time>
      </trkpt>
      <trkpt lat="45.9582" lon="4.75754">
        <ele>195</ele>
        <time>2017-05-22T10:45:01Z</time>
      </trkpt>
      <trkpt lat="45.95813" lon="4.75754">
        <ele>195</ele>
        <time>2017-05-22T10:45:02Z</time>
      </trkpt>
      <trkpt lat="45.95806" lon="4.75754">
        <ele>194</ele>
        <time>2017-05-22T10:45:03Z</time>
      </trkpt>
      <trkpt lat="45.958" lon="4.75755">
        <ele>194</ele>
        <time>2017-05-22T10:45:04Z</time>
      </trkpt>
      <trkpt lat="45.95793" lon="4.75756">
        <ele>193</ele>
        <time>2017-05-22T10:45:05Z</time>
      </trkpt>
      <trkpt lat="45.95786" lon="4.75757">
        <ele>193</ele>
        <time>2017-05-22T10:45:06Z</time>
      </trkpt>
      <trkpt lat="45.95779" lon="4.75758">
        <ele>193</ele>
        <time>2017-05-22T10:45:07Z</time>
      </trkpt>
      <trkpt lat="45.95773" lon="4.75759">
        <ele>192</ele>
        <time>2017-05-22T10:45:08Z</time>
      </trkpt>
      <trkpt lat="45.95766" lon="4.7576">
        <ele>192</ele>
        <time>2017-05-22T10:45:09Z</time>
      </trkpt>
      <trkpt lat="45.95758" lon="4.75761">
        <ele>192</ele>
        <time>2017-05-22T10:45:10Z</time>
      </trkpt>
      <trkpt lat="45.95751" lon="4.75761">
        <ele>192</ele>
        <time>2017-05-22T10:45:11Z</time>
      </trkpt>
      <trkpt lat="45.95745" lon="4.75763">
        <ele>190</ele>
        <time>2017-05-22T10:45:12Z</time>
      </trkpt>
      <trkpt lat="45.95738" lon="4.75764">
        <ele>190</ele>
        <time>2017-05-22T10:45:13Z</time>
      </trkpt>
      <trkpt lat="45.95731" lon="4.75765">
        <ele>189</ele>
        <time>2017-05-22T10:45:14Z</time>
      </trkpt>
      <trkpt lat="45.95724" lon="4.75765">
        <ele>189</ele>
        <time>2017-05-22T10:45:15Z</time>
      </trkpt>
      <trkpt lat="45.95716" lon="4.75766">
        <ele>189</ele>
        <time>2017-05-22T10:45:16Z</time>
      </trkpt>
      <trkpt lat="45.95709" lon="4.75767">
        <ele>189</ele>
        <time>2017-05-22T10:45:17Z</time>
      </trkpt>
      <trkpt lat="45.95702" lon="4.75768">
        <ele>189</ele>
        <time>2017-05-22T10:45:18Z</time>
      </trkpt>
      <trkpt lat="45.95695" lon="4.75768">
        <ele>188</ele>
        <time>2017-05-22T10:45:19Z</time>
      </trkpt>
      <trkpt lat="45.95687" lon="4.75769">
        <ele>188</ele>
        <time>2017-05-22T10:45:20Z</time>
      </trkpt>
      <trkpt lat="45.9568" lon="4.7577">
        <ele>188</ele>
        <time>2017-05-22T10:45:21Z</time>
      </trkpt>
      <trkpt lat="45.95674" lon="4.7577">
        <ele>188</ele>
        <time>2017-05-22T10:45:22Z</time>
      </trkpt>
      <trkpt lat="45.95667" lon="4.75769">
        <ele>188</ele>
        <time>2017-05-22T10:45:23Z</time>
      </trkpt>
      <trkpt lat="45.95662" lon="4.75767">
        <ele>187</ele>
        <time>2017-05-22T10:45:24Z</time>
      </trkpt>
      <trkpt lat="45.95657" lon="4.75765">
        <ele>186</ele>
        <time>2017-05-22T10:45:25Z</time>
      </trkpt>
      <trkpt lat="45.95652" lon="4.75763">
        <ele>186</ele>
        <time>2017-05-22T10:45:26Z</time>
      </trkpt>
      <trkpt lat="45.95646" lon="4.7576">
        <ele>186</ele>
        <time>2017-05-22T10:45:27Z</time>
      </trkpt>
      <trkpt lat="45.95642" lon="4.75749">
        <ele>187</ele>
        <time>2017-05-22T10:45:29Z</time>
      </trkpt>
      <trkpt lat="45.95641" lon="4.75741">
        <ele>187</ele>
        <time>2017-05-22T10:45:30Z</time>
      </trkpt>
      <trkpt lat="45.9564" lon="4.75734">
        <ele>187</ele>
        <time>2017-05-22T10:45:31Z</time>
      </trkpt>
      <trkpt lat="45.95638" lon="4.75726">
        <ele>187</ele>
        <time>2017-05-22T10:45:32Z</time>
      </trkpt>
      <trkpt lat="45.95637" lon="4.75719">
        <ele>187</ele>
        <time>2017-05-22T10:45:33Z</time>
      </trkpt>
      <trkpt lat="45.95636" lon="4.75711">
        <ele>187</ele>
        <time>2017-05-22T10:45:34Z</time>
      </trkpt>
      <trkpt lat="45.95636" lon="4.75704">
        <ele>187</ele>
        <time>2017-05-22T10:45:35Z</time>
      </trkpt>
      <trkpt lat="45.95635" lon="4.75697">
        <ele>187</ele>
        <time>2017-05-22T10:45:36Z</time>
      </trkpt>
      <trkpt lat="45.95634" lon="4.75689">
        <ele>187</ele>
        <time>2017-05-22T10:45:37Z</time>
      </trkpt>
      <trkpt lat="45.95633" lon="4.75681">
        <ele>188</ele>
        <time>2017-05-22T10:45:38Z</time>
      </trkpt>
      <trkpt lat="45.95632" lon="4.75672">
        <ele>188</ele>
        <time>2017-05-22T10:45:39Z</time>
      </trkpt>
      <trkpt lat="45.9563" lon="4.75664">
        <ele>188</ele>
        <time>2017-05-22T10:45:40Z</time>
      </trkpt>
      <trkpt lat="45.95628" lon="4.75655">
        <ele>188</ele>
        <time>2017-05-22T10:45:41Z</time>
      </trkpt>
      <trkpt lat="45.95626" lon="4.75646">
        <ele>188</ele>
        <time>2017-05-22T10:45:42Z</time>
      </trkpt>
      <trkpt lat="45.95623" lon="4.75637">
        <ele>188</ele>
        <time>2017-05-22T10:45:43Z</time>
      </trkpt>
      <trkpt lat="45.9562" lon="4.75628">
        <ele>188</ele>
        <time>2017-05-22T10:45:44Z</time>
      </trkpt>
      <trkpt lat="45.95618" lon="4.7562">
        <ele>188</ele>
        <time>2017-05-22T10:45:45Z</time>
      </trkpt>
      <trkpt lat="45.95615" lon="4.75612">
        <ele>188</ele>
        <time>2017-05-22T10:45:46Z</time>
      </trkpt>
      <trkpt lat="45.95613" lon="4.75604">
        <ele>188</ele>
        <time>2017-05-22T10:45:47Z</time>
      </trkpt>
      <trkpt lat="45.9561" lon="4.75597">
        <ele>188</ele>
        <time>2017-05-22T10:45:48Z</time>
      </trkpt>
      <trkpt lat="45.95607" lon="4.7559">
        <ele>187</ele>
        <time>2017-05-22T10:45:49Z</time>
      </trkpt>
      <trkpt lat="45.95604" lon="4.75583">
        <ele>188</ele>
        <time>2017-05-22T10:45:50Z</time>
      </trkpt>
      <trkpt lat="45.95601" lon="4.75577">
        <ele>188</ele>
        <time>2017-05-22T10:45:51Z</time>
      </trkpt>
      <trkpt lat="45.95598" lon="4.75571">
        <ele>188</ele>
        <time>2017-05-22T10:45:52Z</time>
      </trkpt>
      <trkpt lat="45.95595" lon="4.75565">
        <ele>188</ele>
        <time>2017-05-22T10:45:53Z</time>
      </trkpt>
      <trkpt lat="45.95592" lon="4.7556">
        <ele>188</ele>
        <time>2017-05-22T10:45:54Z</time>
      </trkpt>
      <trkpt lat="45.95588" lon="4.75554">
        <ele>188</ele>
        <time>2017-05-22T10:45:55Z</time>
      </trkpt>
      <trkpt lat="45.95585" lon="4.7555">
        <ele>189</ele>
        <time>2017-05-22T10:45:56Z</time>
      </trkpt>
      <trkpt lat="45.95581" lon="4.75545">
        <ele>186</ele>
        <time>2017-05-22T10:45:57Z</time>
      </trkpt>
      <trkpt lat="45.95577" lon="4.7554">
        <ele>186</ele>
        <time>2017-05-22T10:45:58Z</time>
      </trkpt>
      <trkpt lat="45.95573" lon="4.75535">
        <ele>186</ele>
        <time>2017-05-22T10:45:59Z</time>
      </trkpt>
      <trkpt lat="45.9557" lon="4.75531">
        <ele>186</ele>
        <time>2017-05-22T10:46:00Z</time>
      </trkpt>
      <trkpt lat="45.95566" lon="4.75527">
        <ele>186</ele>
        <time>2017-05-22T10:46:01Z</time>
      </trkpt>
      <trkpt lat="45.95562" lon="4.75523">
        <ele>186</ele>
        <time>2017-05-22T10:46:02Z</time>
      </trkpt>
      <trkpt lat="45.95557" lon="4.75517">
        <ele>186</ele>
        <time>2017-05-22T10:46:03Z</time>
      </trkpt>
      <trkpt lat="45.95553" lon="4.75511">
        <ele>186</ele>
        <time>2017-05-22T10:46:04Z</time>
      </trkpt>
      <trkpt lat="45.9555" lon="4.75504">
        <ele>186</ele>
        <time>2017-05-22T10:46:05Z</time>
      </trkpt>
      <trkpt lat="45.95548" lon="4.75496">
        <ele>187</ele>
        <time>2017-05-22T10:46:06Z</time>
      </trkpt>
      <trkpt lat="45.95547" lon="4.75487">
        <ele>187</ele>
        <time>2017-05-22T10:46:07Z</time>
      </trkpt>
      <trkpt lat="45.95546" lon="4.75479">
        <ele>187</ele>
        <time>2017-05-22T10:46:08Z</time>
      </trkpt>
      <trkpt lat="45.95545" lon="4.75471">
        <ele>187</ele>
        <time>2017-05-22T10:46:09Z</time>
      </trkpt>
      <trkpt lat="45.95544" lon="4.75463">
        <ele>188</ele>
        <time>2017-05-22T10:46:10Z</time>
      </trkpt>
      <trkpt lat="45.95541" lon="4.75456">
        <ele>187</ele>
        <time>2017-05-22T10:46:11Z</time>
      </trkpt>
      <trkpt lat="45.95537" lon="4.75451">
        <ele>187</ele>
        <time>2017-05-22T10:46:12Z</time>
      </trkpt>
      <trkpt lat="45.95533" lon="4.75445">
        <ele>187</ele>
        <time>2017-05-22T10:46:13Z</time>
      </trkpt>
      <trkpt lat="45.95529" lon="4.7544">
        <ele>187</ele>
        <time>2017-05-22T10:46:14Z</time>
      </trkpt>
      <trkpt lat="45.95525" lon="4.75434">
        <ele>187</ele>
        <time>2017-05-22T10:46:15Z</time>
      </trkpt>
      <trkpt lat="45.95522" lon="4.75428">
        <ele>187</ele>
        <time>2017-05-22T10:46:16Z</time>
      </trkpt>
      <trkpt lat="45.9552" lon="4.75422">
        <ele>187</ele>
        <time>2017-05-22T10:46:17Z</time>
      </trkpt>
      <trkpt lat="45.95518" lon="4.75415">
        <ele>187</ele>
        <time>2017-05-22T10:46:18Z</time>
      </trkpt>
      <trkpt lat="45.95515" lon="4.75409">
        <ele>187</ele>
        <time>2017-05-22T10:46:19Z</time>
      </trkpt>
      <trkpt lat="45.95513" lon="4.75404">
        <ele>187</ele>
        <time>2017-05-22T10:46:20Z</time>
      </trkpt>
      <trkpt lat="45.95511" lon="4.75397">
        <ele>188</ele>
        <time>2017-05-22T10:46:21Z</time>
      </trkpt>
      <trkpt lat="45.95508" lon="4.75391">
        <ele>188</ele>
        <time>2017-05-22T10:46:22Z</time>
      </trkpt>
      <trkpt lat="45.95506" lon="4.75384">
        <ele>188</ele>
        <time>2017-05-22T10:46:23Z</time>
      </trkpt>
      <trkpt lat="45.95503" lon="4.75378">
        <ele>188</ele>
        <time>2017-05-22T10:46:24Z</time>
      </trkpt>
      <trkpt lat="45.955" lon="4.75372">
        <ele>186</ele>
        <time>2017-05-22T10:46:25Z</time>
      </trkpt>
      <trkpt lat="45.95496" lon="4.75366">
        <ele>186</ele>
        <time>2017-05-22T10:46:26Z</time>
      </trkpt>
      <trkpt lat="45.95492" lon="4.75359">
        <ele>186</ele>
        <time>2017-05-22T10:46:27Z</time>
      </trkpt>
      <trkpt lat="45.95489" lon="4.75353">
        <ele>186</ele>
        <time>2017-05-22T10:46:28Z</time>
      </trkpt>
      <trkpt lat="45.95487" lon="4.75347">
        <ele>187</ele>
        <time>2017-05-22T10:46:29Z</time>
      </trkpt>
      <trkpt lat="45.95484" lon="4.75342">
        <ele>187</ele>
        <time>2017-05-22T10:46:30Z</time>
      </trkpt>
      <trkpt lat="45.95481" lon="4.75336">
        <ele>187</ele>
        <time>2017-05-22T10:46:31Z</time>
      </trkpt>
      <trkpt lat="45.95478" lon="4.7533">
        <ele>188</ele>
        <time>2017-05-22T10:46:32Z</time>
      </trkpt>
      <trkpt lat="45.95475" lon="4.75325">
        <ele>188</ele>
        <time>2017-05-22T10:46:33Z</time>
      </trkpt>
      <trkpt lat="45.95472" lon="4.75318">
        <ele>188</ele>
        <time>2017-05-22T10:46:34Z</time>
      </trkpt>
      <trkpt lat="45.95469" lon="4.75312">
        <ele>188</ele>
        <time>2017-05-22T10:46:35Z</time>
      </trkpt>
      <trkpt lat="45.95466" lon="4.75306">
        <ele>188</ele>
        <time>2017-05-22T10:46:36Z</time>
      </trkpt>
      <trkpt lat="45.95462" lon="4.753">
        <ele>188</ele>
        <time>2017-05-22T10:46:37Z</time>
      </trkpt>
      <trkpt lat="45.95458" lon="4.75294">
        <ele>188</ele>
        <time>2017-05-22T10:46:38Z</time>
      </trkpt>
      <trkpt lat="45.95455" lon="4.75288">
        <ele>189</ele>
        <time>2017-05-22T10:46:39Z</time>
      </trkpt>
      <trkpt lat="45.95452" lon="4.75281">
        <ele>189</ele>
        <time>2017-05-22T10:46:40Z</time>
      </trkpt>
      <trkpt lat="45.95448" lon="4.75274">
        <ele>189</ele>
        <time>2017-05-22T10:46:41Z</time>
      </trkpt>
      <trkpt lat="45.95445" lon="4.75268">
        <ele>189</ele>
        <time>2017-05-22T10:46:42Z</time>
      </trkpt>
      <trkpt lat="45.95442" lon="4.75261">
        <ele>189</ele>
        <time>2017-05-22T10:46:43Z</time>
      </trkpt>
      <trkpt lat="45.9544" lon="4.75254">
        <ele>189</ele>
        <time>2017-05-22T10:46:44Z</time>
      </trkpt>
      <trkpt lat="45.95436" lon="4.75247">
        <ele>191</ele>
        <time>2017-05-22T10:46:45Z</time>
      </trkpt>
      <trkpt lat="45.95432" lon="4.7524">
        <ele>190</ele>
        <time>2017-05-22T10:46:46Z</time>
      </trkpt>
      <trkpt lat="45.95429" lon="4.75234">
        <ele>191</ele>
        <time>2017-05-22T10:46:47Z</time>
      </trkpt>
      <trkpt lat="45.95427" lon="4.75228">
        <ele>191</ele>
        <time>2017-05-22T10:46:48Z</time>
      </trkpt>
      <trkpt lat="45.95425" lon="4.75222">
        <ele>191</ele>
        <time>2017-05-22T10:46:49Z</time>
      </trkpt>
      <trkpt lat="45.95422" lon="4.75217">
        <ele>191</ele>
        <time>2017-05-22T10:46:50Z</time>
      </trkpt>
      <trkpt lat="45.95419" lon="4.75211">
        <ele>191</ele>
        <time>2017-05-22T10:46:51Z</time>
      </trkpt>
      <trkpt lat="45.95416" lon="4.75206">
        <ele>189</ele>
        <time>2017-05-22T10:46:52Z</time>
      </trkpt>
      <trkpt lat="45.95413" lon="4.75201">
        <ele>189</ele>
        <time>2017-05-22T10:46:53Z</time>
      </trkpt>
      <trkpt lat="45.9541" lon="4.75196">
        <ele>189</ele>
        <time>2017-05-22T10:46:54Z</time>
      </trkpt>
      <trkpt lat="45.95406" lon="4.7519">
        <ele>189</ele>
        <time>2017-05-22T10:46:55Z</time>
      </trkpt>
      <trkpt lat="45.95403" lon="4.75185">
        <ele>189</ele>
        <time>2017-05-22T10:46:56Z</time>
      </trkpt>
      <trkpt lat="45.954" lon="4.75178">
        <ele>189</ele>
        <time>2017-05-22T10:46:57Z</time>
      </trkpt>
      <trkpt lat="45.95397" lon="4.75172">
        <ele>189</ele>
        <time>2017-05-22T10:46:58Z</time>
      </trkpt>
      <trkpt lat="45.95393" lon="4.75166">
        <ele>191</ele>
        <time>2017-05-22T10:46:59Z</time>
      </trkpt>
      <trkpt lat="45.9539" lon="4.7516">
        <ele>191</ele>
        <time>2017-05-22T10:47:00Z</time>
      </trkpt>
      <trkpt lat="45.95387" lon="4.75154">
        <ele>191</ele>
        <time>2017-05-22T10:47:01Z</time>
      </trkpt>
      <trkpt lat="45.95383" lon="4.75149">
        <ele>191</ele>
        <time>2017-05-22T10:47:02Z</time>
      </trkpt>
      <trkpt lat="45.95379" lon="4.7514">
        <ele>191</ele>
        <time>2017-05-22T10:47:04Z</time>
      </trkpt>
      <trkpt lat="45.95376" lon="4.75136">
        <ele>191</ele>
        <time>2017-05-22T10:47:05Z</time>
      </trkpt>
      <trkpt lat="45.9537" lon="4.75126">
        <ele>191</ele>
        <time>2017-05-22T10:47:07Z</time>
      </trkpt>
      <trkpt lat="45.95367" lon="4.75121">
        <ele>192</ele>
        <time>2017-05-22T10:47:08Z</time>
      </trkpt>
      <trkpt lat="45.95364" lon="4.75116">
        <ele>192</ele>
        <time>2017-05-22T10:47:09Z</time>
      </trkpt>
      <trkpt lat="45.95361" lon="4.75111">
        <ele>192</ele>
        <time>2017-05-22T10:47:10Z</time>
      </trkpt>
      <trkpt lat="45.95357" lon="4.75105">
        <ele>192</ele>
        <time>2017-05-22T10:47:11Z</time>
      </trkpt>
      <trkpt lat="45.95353" lon="4.751">
        <ele>192</ele>
        <time>2017-05-22T10:47:12Z</time>
      </trkpt>
      <trkpt lat="45.9535" lon="4.75094">
        <ele>192</ele>
        <time>2017-05-22T10:47:13Z</time>
      </trkpt>
      <trkpt lat="45.95346" lon="4.75089">
        <ele>192</ele>
        <time>2017-05-22T10:47:14Z</time>
      </trkpt>
      <trkpt lat="45.95343" lon="4.75084">
        <ele>193</ele>
        <time>2017-05-22T10:47:15Z</time>
      </trkpt>
      <trkpt lat="45.9534" lon="4.75078">
        <ele>193</ele>
        <time>2017-05-22T10:47:16Z</time>
      </trkpt>
      <trkpt lat="45.95334" lon="4.75069">
        <ele>193</ele>
        <time>2017-05-22T10:47:18Z</time>
      </trkpt>
      <trkpt lat="45.95331" lon="4.75065">
        <ele>192</ele>
        <time>2017-05-22T10:47:19Z</time>
      </trkpt>
      <trkpt lat="45.95325" lon="4.75055">
        <ele>192</ele>
        <time>2017-05-22T10:47:21Z</time>
      </trkpt>
      <trkpt lat="45.95322" lon="4.75051">
        <ele>192</ele>
        <time>2017-05-22T10:47:22Z</time>
      </trkpt>
      <trkpt lat="45.95316" lon="4.75042">
        <ele>192</ele>
        <time>2017-05-22T10:47:24Z</time>
      </trkpt>
      <trkpt lat="45.95313" lon="4.75037">
        <ele>192</ele>
        <time>2017-05-22T10:47:25Z</time>
      </trkpt>
      <trkpt lat="45.95307" lon="4.75028">
        <ele>192</ele>
        <time>2017-05-22T10:47:27Z</time>
      </trkpt>
      <trkpt lat="45.95304" lon="4.75024">
        <ele>192</ele>
        <time>2017-05-22T10:47:28Z</time>
      </trkpt>
      <trkpt lat="45.95298" lon="4.75015">
        <ele>192</ele>
        <time>2017-05-22T10:47:30Z</time>
      </trkpt>
      <trkpt lat="45.95295" lon="4.75011">
        <ele>192</ele>
        <time>2017-05-22T10:47:31Z</time>
      </trkpt>
      <trkpt lat="45.9529" lon="4.75002">
        <ele>191</ele>
        <time>2017-05-22T10:47:33Z</time>
      </trkpt>
      <trkpt lat="45.95287" lon="4.74998">
        <ele>192</ele>
        <time>2017-05-22T10:47:34Z</time>
      </trkpt>
      <trkpt lat="45.9528" lon="4.7499">
        <ele>192</ele>
        <time>2017-05-22T10:47:36Z</time>
      </trkpt>
      <trkpt lat="45.95277" lon="4.74984">
        <ele>192</ele>
        <time>2017-05-22T10:47:37Z</time>
      </trkpt>
      <trkpt lat="45.95274" lon="4.74979">
        <ele>192</ele>
        <time>2017-05-22T10:47:38Z</time>
      </trkpt>
      <trkpt lat="45.9527" lon="4.74973">
        <ele>192</ele>
        <time>2017-05-22T10:47:39Z</time>
      </trkpt>
      <trkpt lat="45.95266" lon="4.74967">
        <ele>192</ele>
        <time>2017-05-22T10:47:40Z</time>
      </trkpt>
      <trkpt lat="45.95262" lon="4.7496">
        <ele>192</ele>
        <time>2017-05-22T10:47:41Z</time>
      </trkpt>
      <trkpt lat="45.95258" lon="4.74953">
        <ele>192</ele>
        <time>2017-05-22T10:47:42Z</time>
      </trkpt>
      <trkpt lat="45.95254" lon="4.74947">
        <ele>192</ele>
        <time>2017-05-22T10:47:43Z</time>
      </trkpt>
      <trkpt lat="45.9525" lon="4.74941">
        <ele>193</ele>
        <time>2017-05-22T10:47:44Z</time>
      </trkpt>
      <trkpt lat="45.95246" lon="4.74935">
        <ele>192</ele>
        <time>2017-05-22T10:47:45Z</time>
      </trkpt>
      <trkpt lat="45.95243" lon="4.74929">
        <ele>192</ele>
        <time>2017-05-22T10:47:46Z</time>
      </trkpt>
      <trkpt lat="45.9524" lon="4.74924">
        <ele>192</ele>
        <time>2017-05-22T10:47:47Z</time>
      </trkpt>
      <trkpt lat="45.95236" lon="4.74918">
        <ele>192</ele>
        <time>2017-05-22T10:47:48Z</time>
      </trkpt>
      <trkpt lat="45.95232" lon="4.74913">
        <ele>193</ele>
        <time>2017-05-22T10:47:49Z</time>
      </trkpt>
      <trkpt lat="45.95229" lon="4.74909">
        <ele>193</ele>
        <time>2017-05-22T10:47:50Z</time>
      </trkpt>
      <trkpt lat="45.95225" lon="4.74905">
        <ele>193</ele>
        <time>2017-05-22T10:47:51Z</time>
      </trkpt>
      <trkpt lat="45.9522" lon="4.74895">
        <ele>193</ele>
        <time>2017-05-22T10:47:53Z</time>
      </trkpt>
      <trkpt lat="45.95217" lon="4.74891">
        <ele>193</ele>
        <time>2017-05-22T10:47:54Z</time>
      </trkpt>
      <trkpt lat="45.95212" lon="4.74881">
        <ele>193</ele>
        <time>2017-05-22T10:47:56Z</time>
      </trkpt>
      <trkpt lat="45.95209" lon="4.74876">
        <ele>193</ele>
        <time>2017-05-22T10:47:57Z</time>
      </trkpt>
      <trkpt lat="45.95205" lon="4.7487">
        <ele>194</ele>
        <time>2017-05-22T10:47:58Z</time>
      </trkpt>
      <trkpt lat="45.95202" lon="4.74864">
        <ele>194</ele>
        <time>2017-05-22T10:47:59Z</time>
      </trkpt>
      <trkpt lat="45.95199" lon="4.74858">
        <ele>194</ele>
        <time>2017-05-22T10:48:00Z</time>
      </trkpt>
      <trkpt lat="45.95195" lon="4.74851">
        <ele>194</ele>
        <time>2017-05-22T10:48:01Z</time>
      </trkpt>
      <trkpt lat="45.9519" lon="4.74842">
        <ele>194</ele>
        <time>2017-05-22T10:48:02Z</time>
      </trkpt>
      <trkpt lat="45.95185" lon="4.74835">
        <ele>194</ele>
        <time>2017-05-22T10:48:03Z</time>
      </trkpt>
      <trkpt lat="45.95181" lon="4.74828">
        <ele>194</ele>
        <time>2017-05-22T10:48:04Z</time>
      </trkpt>
      <trkpt lat="45.95177" lon="4.74821">
        <ele>194</ele>
        <time>2017-05-22T10:48:05Z</time>
      </trkpt>
      <trkpt lat="45.95173" lon="4.74814">
        <ele>194</ele>
        <time>2017-05-22T10:48:06Z</time>
      </trkpt>
      <trkpt lat="45.95169" lon="4.74807">
        <ele>194</ele>
        <time>2017-05-22T10:48:07Z</time>
      </trkpt>
      <trkpt lat="45.95165" lon="4.74801">
        <ele>194</ele>
        <time>2017-05-22T10:48:08Z</time>
      </trkpt>
      <trkpt lat="45.95162" lon="4.74795">
        <ele>194</ele>
        <time>2017-05-22T10:48:09Z</time>
      </trkpt>
      <trkpt lat="45.95158" lon="4.74789">
        <ele>194</ele>
        <time>2017-05-22T10:48:10Z</time>
      </trkpt>
      <trkpt lat="45.95155" lon="4.74784">
        <ele>194</ele>
        <time>2017-05-22T10:48:11Z</time>
      </trkpt>
      <trkpt lat="45.95152" lon="4.74778">
        <ele>194</ele>
        <time>2017-05-22T10:48:12Z</time>
      </trkpt>
      <trkpt lat="45.95149" lon="4.74773">
        <ele>194</ele>
        <time>2017-05-22T10:48:13Z</time>
      </trkpt>
      <trkpt lat="45.95143" lon="4.74764">
        <ele>194</ele>
        <time>2017-05-22T10:48:15Z</time>
      </trkpt>
      <trkpt lat="45.9514" lon="4.74759">
        <ele>194</ele>
        <time>2017-05-22T10:48:16Z</time>
      </trkpt>
      <trkpt lat="45.95136" lon="4.74754">
        <ele>194</ele>
        <time>2017-05-22T10:48:17Z</time>
      </trkpt>
      <trkpt lat="45.95132" lon="4.74748">
        <ele>194</ele>
        <time>2017-05-22T10:48:18Z</time>
      </trkpt>
      <trkpt lat="45.95129" lon="4.74741">
        <ele>194</ele>
        <time>2017-05-22T10:48:19Z</time>
      </trkpt>
      <trkpt lat="45.95125" lon="4.74735">
        <ele>194</ele>
        <time>2017-05-22T10:48:20Z</time>
      </trkpt>
      <trkpt lat="45.95121" lon="4.74728">
        <ele>194</ele>
        <time>2017-05-22T10:48:21Z</time>
      </trkpt>
      <trkpt lat="45.95118" lon="4.74721">
        <ele>194</ele>
        <time>2017-05-22T10:48:22Z</time>
      </trkpt>
      <trkpt lat="45.95114" lon="4.74714">
        <ele>194</ele>
        <time>2017-05-22T10:48:23Z</time>
      </trkpt>
      <trkpt lat="45.95111" lon="4.74708">
        <ele>194</ele>
        <time>2017-05-22T10:48:24Z</time>
      </trkpt>
      <trkpt lat="45.95107" lon="4.74701">
        <ele>194</ele>
        <time>2017-05-22T10:48:25Z</time>
      </trkpt>
      <trkpt lat="45.95104" lon="4.74696">
        <ele>194</ele>
        <time>2017-05-22T10:48:26Z</time>
      </trkpt>
      <trkpt lat="45.95101" lon="4.7469">
        <ele>194</ele>
        <time>2017-05-22T10:48:27Z</time>
      </trkpt>
      <trkpt lat="45.95098" lon="4.74685">
        <ele>195</ele>
        <time>2017-05-22T10:48:28Z</time>
      </trkpt>
      <trkpt lat="45.95095" lon="4.7468">
        <ele>195</ele>
        <time>2017-05-22T10:48:29Z</time>
      </trkpt>
      <trkpt lat="45.95092" lon="4.74674">
        <ele>195</ele>
        <time>2017-05-22T10:48:30Z</time>
      </trkpt>
      <trkpt lat="45.95088" lon="4.74669">
        <ele>195</ele>
        <time>2017-05-22T10:48:31Z</time>
      </trkpt>
      <trkpt lat="45.95085" lon="4.74663">
        <ele>195</ele>
        <time>2017-05-22T10:48:32Z</time>
      </trkpt>
      <trkpt lat="45.95082" lon="4.74657">
        <ele>195</ele>
        <time>2017-05-22T10:48:33Z</time>
      </trkpt>
      <trkpt lat="45.95078" lon="4.74651">
        <ele>195</ele>
        <time>2017-05-22T10:48:34Z</time>
      </trkpt>
      <trkpt lat="45.95074" lon="4.74644">
        <ele>195</ele>
        <time>2017-05-22T10:48:35Z</time>
      </trkpt>
      <trkpt lat="45.9507" lon="4.74637">
        <ele>195</ele>
        <time>2017-05-22T10:48:36Z</time>
      </trkpt>
      <trkpt lat="45.95066" lon="4.7463">
        <ele>195</ele>
        <time>2017-05-22T10:48:37Z</time>
      </trkpt>
      <trkpt lat="45.95062" lon="4.74623">
        <ele>195</ele>
        <time>2017-05-22T10:48:38Z</time>
      </trkpt>
      <trkpt lat="45.95058" lon="4.74616">
        <ele>195</ele>
        <time>2017-05-22T10:48:39Z</time>
      </trkpt>
      <trkpt lat="45.95054" lon="4.74609">
        <ele>195</ele>
        <time>2017-05-22T10:48:40Z</time>
      </trkpt>
      <trkpt lat="45.95051" lon="4.74603">
        <ele>195</ele>
        <time>2017-05-22T10:48:41Z</time>
      </trkpt>
      <trkpt lat="45.95047" lon="4.74597">
        <ele>194</ele>
        <time>2017-05-22T10:48:42Z</time>
      </trkpt>
      <trkpt lat="45.95044" lon="4.74591">
        <ele>194</ele>
        <time>2017-05-22T10:48:43Z</time>
      </trkpt>
      <trkpt lat="45.95041" lon="4.74585">
        <ele>194</ele>
        <time>2017-05-22T10:48:44Z</time>
      </trkpt>
      <trkpt lat="45.95037" lon="4.74579">
        <ele>195</ele>
        <time>2017-05-22T10:48:45Z</time>
      </trkpt>
      <trkpt lat="45.95034" lon="4.74574">
        <ele>194</ele>
        <time>2017-05-22T10:48:46Z</time>
      </trkpt>
      <trkpt lat="45.95031" lon="4.74569">
        <ele>194</ele>
        <time>2017-05-22T10:48:47Z</time>
      </trkpt>
      <trkpt lat="45.95028" lon="4.74563">
        <ele>194</ele>
        <time>2017-05-22T10:48:48Z</time>
      </trkpt>
      <trkpt lat="45.95025" lon="4.74558">
        <ele>194</ele>
        <time>2017-05-22T10:48:49Z</time>
      </trkpt>
      <trkpt lat="45.95022" lon="4.74552">
        <ele>194</ele>
        <time>2017-05-22T10:48:50Z</time>
      </trkpt>
      <trkpt lat="45.9502" lon="4.74547">
        <ele>194</ele>
        <time>2017-05-22T10:48:51Z</time>
      </trkpt>
      <trkpt lat="45.95016" lon="4.74541">
        <ele>194</ele>
        <time>2017-05-22T10:48:52Z</time>
      </trkpt>
      <trkpt lat="45.95012" lon="4.74535">
        <ele>194</ele>
        <time>2017-05-22T10:48:53Z</time>
      </trkpt>
      <trkpt lat="45.95009" lon="4.74528">
        <ele>194</ele>
        <time>2017-05-22T10:48:54Z</time>
      </trkpt>
      <trkpt lat="45.95005" lon="4.74521">
        <ele>194</ele>
        <time>2017-05-22T10:48:55Z</time>
      </trkpt>
      <trkpt lat="45.95001" lon="4.74514">
        <ele>194</ele>
        <time>2017-05-22T10:48:56Z</time>
      </trkpt>
      <trkpt lat="45.94997" lon="4.74507">
        <ele>193</ele>
        <time>2017-05-22T10:48:57Z</time>
      </trkpt>
      <trkpt lat="45.94993" lon="4.74499">
        <ele>193</ele>
        <time>2017-05-22T10:48:58Z</time>
      </trkpt>
      <trkpt lat="45.94989" lon="4.74491">
        <ele>193</ele>
        <time>2017-05-22T10:48:59Z</time>
      </trkpt>
      <trkpt lat="45.94986" lon="4.74484">
        <ele>193</ele>
        <time>2017-05-22T10:49:00Z</time>
      </trkpt>
      <trkpt lat="45.94982" lon="4.74477">
        <ele>193</ele>
        <time>2017-05-22T10:49:01Z</time>
      </trkpt>
      <trkpt lat="45.94978" lon="4.7447">
        <ele>193</ele>
        <time>2017-05-22T10:49:02Z</time>
      </trkpt>
      <trkpt lat="45.94974" lon="4.74463">
        <ele>193</ele>
        <time>2017-05-22T10:49:03Z</time>
      </trkpt>
      <trkpt lat="45.94971" lon="4.74456">
        <ele>192</ele>
        <time>2017-05-22T10:49:04Z</time>
      </trkpt>
      <trkpt lat="45.94968" lon="4.74449">
        <ele>192</ele>
        <time>2017-05-22T10:49:05Z</time>
      </trkpt>
      <trkpt lat="45.94964" lon="4.74442">
        <ele>192</ele>
        <time>2017-05-22T10:49:06Z</time>
      </trkpt>
      <trkpt lat="45.94961" lon="4.74435">
        <ele>192</ele>
        <time>2017-05-22T10:49:07Z</time>
      </trkpt>
      <trkpt lat="45.94957" lon="4.74429">
        <ele>192</ele>
        <time>2017-05-22T10:49:08Z</time>
      </trkpt>
      <trkpt lat="45.94953" lon="4.74422">
        <ele>192</ele>
        <time>2017-05-22T10:49:09Z</time>
      </trkpt>
      <trkpt lat="45.9495" lon="4.74416">
        <ele>192</ele>
        <time>2017-05-22T10:49:10Z</time>
      </trkpt>
      <trkpt lat="45.94947" lon="4.74409">
        <ele>192</ele>
        <time>2017-05-22T10:49:11Z</time>
      </trkpt>
      <trkpt lat="45.94943" lon="4.74403">
        <ele>192</ele>
        <time>2017-05-22T10:49:12Z</time>
      </trkpt>
      <trkpt lat="45.9494" lon="4.74398">
        <ele>192</ele>
        <time>2017-05-22T10:49:13Z</time>
      </trkpt>
      <trkpt lat="45.94936" lon="4.74391">
        <ele>192</ele>
        <time>2017-05-22T10:49:14Z</time>
      </trkpt>
      <trkpt lat="45.94933" lon="4.74385">
        <ele>192</ele>
        <time>2017-05-22T10:49:15Z</time>
      </trkpt>
      <trkpt lat="45.94929" lon="4.74378">
        <ele>191</ele>
        <time>2017-05-22T10:49:16Z</time>
      </trkpt>
      <trkpt lat="45.94925" lon="4.7437">
        <ele>191</ele>
        <time>2017-05-22T10:49:17Z</time>
      </trkpt>
      <trkpt lat="45.94921" lon="4.74362">
        <ele>192</ele>
        <time>2017-05-22T10:49:18Z</time>
      </trkpt>
      <trkpt lat="45.94916" lon="4.74354">
        <ele>191</ele>
        <time>2017-05-22T10:49:19Z</time>
      </trkpt>
      <trkpt lat="45.94912" lon="4.74346">
        <ele>191</ele>
        <time>2017-05-22T10:49:20Z</time>
      </trkpt>
      <trkpt lat="45.94908" lon="4.74338">
        <ele>191</ele>
        <time>2017-05-22T10:49:21Z</time>
      </trkpt>
      <trkpt lat="45.94903" lon="4.7433">
        <ele>191</ele>
        <time>2017-05-22T10:49:22Z</time>
      </trkpt>
      <trkpt lat="45.94899" lon="4.74323">
        <ele>191</ele>
        <time>2017-05-22T10:49:23Z</time>
      </trkpt>
      <trkpt lat="45.94895" lon="4.74316">
        <ele>191</ele>
        <time>2017-05-22T10:49:24Z</time>
      </trkpt>
      <trkpt lat="45.94891" lon="4.74308">
        <ele>191</ele>
        <time>2017-05-22T10:49:25Z</time>
      </trkpt>
      <trkpt lat="45.94887" lon="4.74301">
        <ele>191</ele>
        <time>2017-05-22T10:49:26Z</time>
      </trkpt>
      <trkpt lat="45.94883" lon="4.74294">
        <ele>191</ele>
        <time>2017-05-22T10:49:27Z</time>
      </trkpt>
      <trkpt lat="45.94879" lon="4.74287">
        <ele>191</ele>
        <time>2017-05-22T10:49:28Z</time>
      </trkpt>
      <trkpt lat="45.94875" lon="4.74279">
        <ele>191</ele>
        <time>2017-05-22T10:49:29Z</time>
      </trkpt>
      <trkpt lat="45.9487" lon="4.74272">
        <ele>191</ele>
        <time>2017-05-22T10:49:30Z</time>
      </trkpt>
      <trkpt lat="45.94866" lon="4.74265">
        <ele>190</ele>
        <time>2017-05-22T10:49:31Z</time>
      </trkpt>
      <trkpt lat="45.94863" lon="4.74258">
        <ele>190</ele>
        <time>2017-05-22T10:49:32Z</time>
      </trkpt>
      <trkpt lat="45.94859" lon="4.7425">
        <ele>190</ele>
        <time>2017-05-22T10:49:33Z</time>
      </trkpt>
      <trkpt lat="45.94857" lon="4.74243">
        <ele>190</ele>
        <time>2017-05-22T10:49:34Z</time>
      </trkpt>
      <trkpt lat="45.94853" lon="4.74237">
        <ele>190</ele>
        <time>2017-05-22T10:49:35Z</time>
      </trkpt>
      <trkpt lat="45.9485" lon="4.7423">
        <ele>190</ele>
        <time>2017-05-22T10:49:36Z</time>
      </trkpt>
      <trkpt lat="45.94845" lon="4.74223">
        <ele>190</ele>
        <time>2017-05-22T10:49:37Z</time>
      </trkpt>
      <trkpt lat="45.94841" lon="4.74217">
        <ele>190</ele>
        <time>2017-05-22T10:49:38Z</time>
      </trkpt>
      <trkpt lat="45.94838" lon="4.74211">
        <ele>190</ele>
        <time>2017-05-22T10:49:39Z</time>
      </trkpt>
      <trkpt lat="45.94834" lon="4.74204">
        <ele>190</ele>
        <time>2017-05-22T10:49:40Z</time>
      </trkpt>
      <trkpt lat="45.94831" lon="4.74198">
        <ele>189</ele>
        <time>2017-05-22T10:49:41Z</time>
      </trkpt>
      <trkpt lat="45.94826" lon="4.74192">
        <ele>189</ele>
        <time>2017-05-22T10:49:42Z</time>
      </trkpt>
      <trkpt lat="45.94823" lon="4.74186">
        <ele>189</ele>
        <time>2017-05-22T10:49:43Z</time>
      </trkpt>
      <trkpt lat="45.94819" lon="4.7418">
        <ele>189</ele>
        <time>2017-05-22T10:49:44Z</time>
      </trkpt>
      <trkpt lat="45.94816" lon="4.74174">
        <ele>189</ele>
        <time>2017-05-22T10:49:45Z</time>
      </trkpt>
      <trkpt lat="45.94813" lon="4.74168">
        <ele>189</ele>
        <time>2017-05-22T10:49:46Z</time>
      </trkpt>
      <trkpt lat="45.94809" lon="4.74162">
        <ele>189</ele>
        <time>2017-05-22T10:49:47Z</time>
      </trkpt>
      <trkpt lat="45.94806" lon="4.74156">
        <ele>189</ele>
        <time>2017-05-22T10:49:48Z</time>
      </trkpt>
      <trkpt lat="45.94802" lon="4.7415">
        <ele>189</ele>
        <time>2017-05-22T10:49:49Z</time>
      </trkpt>
      <trkpt lat="45.94799" lon="4.74144">
        <ele>189</ele>
        <time>2017-05-22T10:49:50Z</time>
      </trkpt>
      <trkpt lat="45.94795" lon="4.74138">
        <ele>189</ele>
        <time>2017-05-22T10:49:51Z</time>
      </trkpt>
      <trkpt lat="45.94792" lon="4.74133">
        <ele>189</ele>
        <time>2017-05-22T10:49:52Z</time>
      </trkpt>
      <trkpt lat="45.94788" lon="4.74127">
        <ele>189</ele>
        <time>2017-05-22T10:49:53Z</time>
      </trkpt>
      <trkpt lat="45.94784" lon="4.7412">
        <ele>189</ele>
        <time>2017-05-22T10:49:54Z</time>
      </trkpt>
      <trkpt lat="45.9478" lon="4.74114">
        <ele>189</ele>
        <time>2017-05-22T10:49:55Z</time>
      </trkpt>
      <trkpt lat="45.94775" lon="4.74107">
        <ele>189</ele>
        <time>2017-05-22T10:49:56Z</time>
      </trkpt>
      <trkpt lat="45.9477" lon="4.74099">
        <ele>189</ele>
        <time>2017-05-22T10:49:57Z</time>
      </trkpt>
      <trkpt lat="45.94765" lon="4.74092">
        <ele>189</ele>
        <time>2017-05-22T10:49:58Z</time>
      </trkpt>
      <trkpt lat="45.9476" lon="4.74085">
        <ele>189</ele>
        <time>2017-05-22T10:49:59Z</time>
      </trkpt>
      <trkpt lat="45.94755" lon="4.74079">
        <ele>189</ele>
        <time>2017-05-22T10:50:00Z</time>
      </trkpt>
      <trkpt lat="45.9475" lon="4.74072">
        <ele>188</ele>
        <time>2017-05-22T10:50:01Z</time>
      </trkpt>
      <trkpt lat="45.94745" lon="4.74065">
        <ele>188</ele>
        <time>2017-05-22T10:50:02Z</time>
      </trkpt>
      <trkpt lat="45.9474" lon="4.74058">
        <ele>188</ele>
        <time>2017-05-22T10:50:03Z</time>
      </trkpt>
      <trkpt lat="45.94735" lon="4.74051">
        <ele>188</ele>
        <time>2017-05-22T10:50:04Z</time>
      </trkpt>
      <trkpt lat="45.94731" lon="4.74045">
        <ele>188</ele>
        <time>2017-05-22T10:50:05Z</time>
      </trkpt>
      <trkpt lat="45.94726" lon="4.74039">
        <ele>187</ele>
        <time>2017-05-22T10:50:06Z</time>
      </trkpt>
      <trkpt lat="45.94721" lon="4.74033">
        <ele>187</ele>
        <time>2017-05-22T10:50:07Z</time>
      </trkpt>
      <trkpt lat="45.94717" lon="4.74027">
        <ele>187</ele>
        <time>2017-05-22T10:50:08Z</time>
      </trkpt>
      <trkpt lat="45.94713" lon="4.74022">
        <ele>187</ele>
        <time>2017-05-22T10:50:09Z</time>
      </trkpt>
      <trkpt lat="45.94709" lon="4.74017">
        <ele>187</ele>
        <time>2017-05-22T10:50:10Z</time>
      </trkpt>
      <trkpt lat="45.94705" lon="4.7401">
        <ele>187</ele>
        <time>2017-05-22T10:50:11Z</time>
      </trkpt>
      <trkpt lat="45.94701" lon="4.74005">
        <ele>187</ele>
        <time>2017-05-22T10:50:12Z</time>
      </trkpt>
      <trkpt lat="45.94697" lon="4.73999">
        <ele>187</ele>
        <time>2017-05-22T10:50:13Z</time>
      </trkpt>
      <trkpt lat="45.94692" lon="4.73993">
        <ele>187</ele>
        <time>2017-05-22T10:50:14Z</time>
      </trkpt>
      <trkpt lat="45.94687" lon="4.73987">
        <ele>187</ele>
        <time>2017-05-22T10:50:15Z</time>
      </trkpt>
      <trkpt lat="45.94683" lon="4.7398">
        <ele>187</ele>
        <time>2017-05-22T10:50:16Z</time>
      </trkpt>
      <trkpt lat="45.94678" lon="4.73973">
        <ele>187</ele>
        <time>2017-05-22T10:50:17Z</time>
      </trkpt>
      <trkpt lat="45.94673" lon="4.73966">
        <ele>187</ele>
        <time>2017-05-22T10:50:18Z</time>
      </trkpt>
      <trkpt lat="45.94667" lon="4.73959">
        <ele>187</ele>
        <time>2017-05-22T10:50:19Z</time>
      </trkpt>
      <trkpt lat="45.94662" lon="4.73952">
        <ele>187</ele>
        <time>2017-05-22T10:50:20Z</time>
      </trkpt>
      <trkpt lat="45.94657" lon="4.73945">
        <ele>187</ele>
        <time>2017-05-22T10:50:21Z</time>
      </trkpt>
      <trkpt lat="45.94651" lon="4.73939">
        <ele>187</ele>
        <time>2017-05-22T10:50:22Z</time>
      </trkpt>
      <trkpt lat="45.94646" lon="4.73933">
        <ele>187</ele>
        <time>2017-05-22T10:50:23Z</time>
      </trkpt>
      <trkpt lat="45.94641" lon="4.73927">
        <ele>187</ele>
        <time>2017-05-22T10:50:24Z</time>
      </trkpt>
      <trkpt lat="45.94637" lon="4.7392">
        <ele>187</ele>
        <time>2017-05-22T10:50:25Z</time>
      </trkpt>
      <trkpt lat="45.94632" lon="4.73914">
        <ele>187</ele>
        <time>2017-05-22T10:50:26Z</time>
      </trkpt>
      <trkpt lat="45.94628" lon="4.73908">
        <ele>187</ele>
        <time>2017-05-22T10:50:27Z</time>
      </trkpt>
      <trkpt lat="45.94623" lon="4.73902">
        <ele>187</ele>
        <time>2017-05-22T10:50:28Z</time>
      </trkpt>
      <trkpt lat="45.94618" lon="4.73896">
        <ele>187</ele>
        <time>2017-05-22T10:50:29Z</time>
      </trkpt>
      <trkpt lat="45.94614" lon="4.7389">
        <ele>187</ele>
        <time>2017-05-22T10:50:30Z</time>
      </trkpt>
      <trkpt lat="45.94609" lon="4.73885">
        <ele>187</ele>
        <time>2017-05-22T10:50:31Z</time>
      </trkpt>
      <trkpt lat="45.94604" lon="4.73879">
        <ele>187</ele>
        <time>2017-05-22T10:50:32Z</time>
      </trkpt>
      <trkpt lat="45.94599" lon="4.73874">
        <ele>187</ele>
        <time>2017-05-22T10:50:33Z</time>
      </trkpt>
      <trkpt lat="45.94595" lon="4.73869">
        <ele>187</ele>
        <time>2017-05-22T10:50:34Z</time>
      </trkpt>
      <trkpt lat="45.9459" lon="4.73863">
        <ele>187</ele>
        <time>2017-05-22T10:50:35Z</time>
      </trkpt>
      <trkpt lat="45.94587" lon="4.73858">
        <ele>187</ele>
        <time>2017-05-22T10:50:36Z</time>
      </trkpt>
      <trkpt lat="45.94582" lon="4.73853">
        <ele>186</ele>
        <time>2017-05-22T10:50:37Z</time>
      </trkpt>
      <trkpt lat="45.94577" lon="4.73848">
        <ele>186</ele>
        <time>2017-05-22T10:50:38Z</time>
      </trkpt>
      <trkpt lat="45.94573" lon="4.73843">
        <ele>186</ele>
        <time>2017-05-22T10:50:39Z</time>
      </trkpt>
      <trkpt lat="45.94568" lon="4.73838">
        <ele>186</ele>
        <time>2017-05-22T10:50:40Z</time>
      </trkpt>
      <trkpt lat="45.94564" lon="4.73834">
        <ele>186</ele>
        <time>2017-05-22T10:50:41Z</time>
      </trkpt>
      <trkpt lat="45.94559" lon="4.73829">
        <ele>186</ele>
        <time>2017-05-22T10:50:42Z</time>
      </trkpt>
      <trkpt lat="45.94554" lon="4.73825">
        <ele>186</ele>
        <time>2017-05-22T10:50:43Z</time>
      </trkpt>
      <trkpt lat="45.9455" lon="4.73821">
        <ele>186</ele>
        <time>2017-05-22T10:50:44Z</time>
      </trkpt>
      <trkpt lat="45.94545" lon="4.73815">
        <ele>186</ele>
        <time>2017-05-22T10:50:45Z</time>
      </trkpt>
      <trkpt lat="45.94539" lon="4.7381">
        <ele>186</ele>
        <time>2017-05-22T10:50:46Z</time>
      </trkpt>
      <trkpt lat="45.94534" lon="4.73804">
        <ele>186</ele>
        <time>2017-05-22T10:50:47Z</time>
      </trkpt>
      <trkpt lat="45.9453" lon="4.73798">
        <ele>186</ele>
        <time>2017-05-22T10:50:48Z</time>
      </trkpt>
      <trkpt lat="45.94525" lon="4.73793">
        <ele>186</ele>
        <time>2017-05-22T10:50:49Z</time>
      </trkpt>
      <trkpt lat="45.9452" lon="4.73788">
        <ele>186</ele>
        <time>2017-05-22T10:50:50Z</time>
      </trkpt>
      <trkpt lat="45.94516" lon="4.73782">
        <ele>186</ele>
        <time>2017-05-22T10:50:51Z</time>
      </trkpt>
      <trkpt lat="45.94512" lon="4.73777">
        <ele>186</ele>
        <time>2017-05-22T10:50:52Z</time>
      </trkpt>
      <trkpt lat="45.94508" lon="4.73772">
        <ele>186</ele>
        <time>2017-05-22T10:50:53Z</time>
      </trkpt>
      <trkpt lat="45.94504" lon="4.73766">
        <ele>186</ele>
        <time>2017-05-22T10:50:54Z</time>
      </trkpt>
      <trkpt lat="45.94501" lon="4.7376">
        <ele>186</ele>
        <time>2017-05-22T10:50:55Z</time>
      </trkpt>
      <trkpt lat="45.94499" lon="4.73754">
        <ele>186</ele>
        <time>2017-05-22T10:50:56Z</time>
      </trkpt>
      <trkpt lat="45.94498" lon="4.73747">
        <ele>186</ele>
        <time>2017-05-22T10:50:57Z</time>
      </trkpt>
      <trkpt lat="45.94498" lon="4.73739">
        <ele>186</ele>
        <time>2017-05-22T10:50:58Z</time>
      </trkpt>
      <trkpt lat="45.94499" lon="4.73731">
        <ele>186</ele>
        <time>2017-05-22T10:50:59Z</time>
      </trkpt>
      <trkpt lat="45.945" lon="4.73723">
        <ele>186</ele>
        <time>2017-05-22T10:51:00Z</time>
      </trkpt>
      <trkpt lat="45.94501" lon="4.73714">
        <ele>185</ele>
        <time>2017-05-22T10:51:01Z</time>
      </trkpt>
      <trkpt lat="45.94502" lon="4.73706">
        <ele>185</ele>
        <time>2017-05-22T10:51:02Z</time>
      </trkpt>
      <trkpt lat="45.94504" lon="4.73698">
        <ele>185</ele>
        <time>2017-05-22T10:51:03Z</time>
      </trkpt>
      <trkpt lat="45.94505" lon="4.7369">
        <ele>185</ele>
        <time>2017-05-22T10:51:04Z</time>
      </trkpt>
      <trkpt lat="45.94506" lon="4.73682">
        <ele>185</ele>
        <time>2017-05-22T10:51:05Z</time>
      </trkpt>
      <trkpt lat="45.94507" lon="4.73674">
        <ele>185</ele>
        <time>2017-05-22T10:51:06Z</time>
      </trkpt>
      <trkpt lat="45.94508" lon="4.73666">
        <ele>185</ele>
        <time>2017-05-22T10:51:07Z</time>
      </trkpt>
      <trkpt lat="45.94508" lon="4.73658">
        <ele>184</ele>
        <time>2017-05-22T10:51:08Z</time>
      </trkpt>
      <trkpt lat="45.94508" lon="4.7365">
        <ele>184</ele>
        <time>2017-05-22T10:51:09Z</time>
      </trkpt>
      <trkpt lat="45.94509" lon="4.73643">
        <ele>184</ele>
        <time>2017-05-22T10:51:10Z</time>
      </trkpt>
      <trkpt lat="45.9451" lon="4.73635">
        <ele>184</ele>
        <time>2017-05-22T10:51:11Z</time>
      </trkpt>
      <trkpt lat="45.94511" lon="4.73628">
        <ele>184</ele>
        <time>2017-05-22T10:51:12Z</time>
      </trkpt>
      <trkpt lat="45.94511" lon="4.7362">
        <ele>184</ele>
        <time>2017-05-22T10:51:13Z</time>
      </trkpt>
      <trkpt lat="45.9451" lon="4.73612">
        <ele>184</ele>
        <time>2017-05-22T10:51:14Z</time>
      </trkpt>
      <trkpt lat="45.9451" lon="4.73603">
        <ele>184</ele>
        <time>2017-05-22T10:51:15Z</time>
      </trkpt>
      <trkpt lat="45.94511" lon="4.73595">
        <ele>184</ele>
        <time>2017-05-22T10:51:16Z</time>
      </trkpt>
      <trkpt lat="45.94512" lon="4.73587">
        <ele>184</ele>
        <time>2017-05-22T10:51:17Z</time>
      </trkpt>
      <trkpt lat="45.94513" lon="4.73579">
        <ele>184</ele>
        <time>2017-05-22T10:51:18Z</time>
      </trkpt>
      <trkpt lat="45.94513" lon="4.73571">
        <ele>184</ele>
        <time>2017-05-22T10:51:19Z</time>
      </trkpt>
      <trkpt lat="45.94513" lon="4.73563">
        <ele>184</ele>
        <time>2017-05-22T10:51:20Z</time>
      </trkpt>
      <trkpt lat="45.94513" lon="4.73555">
        <ele>183</ele>
        <time>2017-05-22T10:51:21Z</time>
      </trkpt>
      <trkpt lat="45.94514" lon="4.73546">
        <ele>183</ele>
        <time>2017-05-22T10:51:22Z</time>
      </trkpt>
      <trkpt lat="45.94514" lon="4.73537">
        <ele>183</ele>
        <time>2017-05-22T10:51:23Z</time>
      </trkpt>
      <trkpt lat="45.94514" lon="4.73528">
        <ele>183</ele>
        <time>2017-05-22T10:51:24Z</time>
      </trkpt>
      <trkpt lat="45.94514" lon="4.73519">
        <ele>183</ele>
        <time>2017-05-22T10:51:25Z</time>
      </trkpt>
      <trkpt lat="45.94514" lon="4.7351">
        <ele>183</ele>
        <time>2017-05-22T10:51:26Z</time>
      </trkpt>
      <trkpt lat="45.94515" lon="4.735">
        <ele>183</ele>
        <time>2017-05-22T10:51:27Z</time>
      </trkpt>
      <trkpt lat="45.94514" lon="4.73491">
        <ele>182</ele>
        <time>2017-05-22T10:51:28Z</time>
      </trkpt>
      <trkpt lat="45.94514" lon="4.73481">
        <ele>182</ele>
        <time>2017-05-22T10:51:29Z</time>
      </trkpt>
      <trkpt lat="45.94515" lon="4.73472">
        <ele>182</ele>
        <time>2017-05-22T10:51:30Z</time>
      </trkpt>
      <trkpt lat="45.94515" lon="4.73463">
        <ele>181</ele>
        <time>2017-05-22T10:51:31Z</time>
      </trkpt>
      <trkpt lat="45.94514" lon="4.73453">
        <ele>181</ele>
        <time>2017-05-22T10:51:32Z</time>
      </trkpt>
      <trkpt lat="45.94514" lon="4.73443">
        <ele>181</ele>
        <time>2017-05-22T10:51:33Z</time>
      </trkpt>
      <trkpt lat="45.94512" lon="4.73433">
        <ele>181</ele>
        <time>2017-05-22T10:51:34Z</time>
      </trkpt>
      <trkpt lat="45.94511" lon="4.73423">
        <ele>180</ele>
        <time>2017-05-22T10:51:35Z</time>
      </trkpt>
      <trkpt lat="45.94511" lon="4.73414">
        <ele>179</ele>
        <time>2017-05-22T10:51:36Z</time>
      </trkpt>
      <trkpt lat="45.94511" lon="4.73404">
        <ele>179</ele>
        <time>2017-05-22T10:51:37Z</time>
      </trkpt>
      <trkpt lat="45.94511" lon="4.73394">
        <ele>179</ele>
        <time>2017-05-22T10:51:38Z</time>
      </trkpt>
      <trkpt lat="45.9451" lon="4.73384">
        <ele>179</ele>
        <time>2017-05-22T10:51:39Z</time>
      </trkpt>
      <trkpt lat="45.9451" lon="4.73373">
        <ele>178</ele>
        <time>2017-05-22T10:51:40Z</time>
      </trkpt>
      <trkpt lat="45.9451" lon="4.73364">
        <ele>178</ele>
        <time>2017-05-22T10:51:41Z</time>
      </trkpt>
      <trkpt lat="45.94509" lon="4.73354">
        <ele>178</ele>
        <time>2017-05-22T10:51:42Z</time>
      </trkpt>
      <trkpt lat="45.94508" lon="4.73344">
        <ele>178</ele>
        <time>2017-05-22T10:51:43Z</time>
      </trkpt>
      <trkpt lat="45.94507" lon="4.73334">
        <ele>177</ele>
        <time>2017-05-22T10:51:44Z</time>
      </trkpt>
      <trkpt lat="45.94506" lon="4.73323">
        <ele>177</ele>
        <time>2017-05-22T10:51:45Z</time>
      </trkpt>
      <trkpt lat="45.94505" lon="4.73313">
        <ele>177</ele>
        <time>2017-05-22T10:51:46Z</time>
      </trkpt>
      <trkpt lat="45.94503" lon="4.73302">
        <ele>176</ele>
        <time>2017-05-22T10:51:47Z</time>
      </trkpt>
      <trkpt lat="45.94502" lon="4.73291">
        <ele>176</ele>
        <time>2017-05-22T10:51:48Z</time>
      </trkpt>
      <trkpt lat="45.945" lon="4.7328">
        <ele>176</ele>
        <time>2017-05-22T10:51:49Z</time>
      </trkpt>
      <trkpt lat="45.94498" lon="4.73269">
        <ele>177</ele>
        <time>2017-05-22T10:51:50Z</time>
      </trkpt>
      <trkpt lat="45.94497" lon="4.73259">
        <ele>176</ele>
        <time>2017-05-22T10:51:51Z</time>
      </trkpt>
      <trkpt lat="45.94495" lon="4.73248">
        <ele>176</ele>
        <time>2017-05-22T10:51:52Z</time>
      </trkpt>
      <trkpt lat="45.94493" lon="4.73237">
        <ele>175</ele>
        <time>2017-05-22T10:51:53Z</time>
      </trkpt>
      <trkpt lat="45.94494" lon="4.73226">
        <ele>175</ele>
        <time>2017-05-22T10:51:54Z</time>
      </trkpt>
      <trkpt lat="45.94493" lon="4.73216">
        <ele>175</ele>
        <time>2017-05-22T10:51:55Z</time>
      </trkpt>
      <trkpt lat="45.94491" lon="4.73206">
        <ele>175</ele>
        <time>2017-05-22T10:51:56Z</time>
      </trkpt>
      <trkpt lat="45.9449" lon="4.73196">
        <ele>174</ele>
        <time>2017-05-22T10:51:57Z</time>
      </trkpt>
      <trkpt lat="45.94489" lon="4.73185">
        <ele>174</ele>
        <time>2017-05-22T10:51:58Z</time>
      </trkpt>
      <trkpt lat="45.94487" lon="4.73175">
        <ele>174</ele>
        <time>2017-05-22T10:51:59Z</time>
      </trkpt>
      <trkpt lat="45.94486" lon="4.73165">
        <ele>173</ele>
        <time>2017-05-22T10:52:00Z</time>
      </trkpt>
      <trkpt lat="45.94485" lon="4.73155">
        <ele>173</ele>
        <time>2017-05-22T10:52:01Z</time>
      </trkpt>
      <trkpt lat="45.94484" lon="4.73146">
        <ele>173</ele>
        <time>2017-05-22T10:52:02Z</time>
      </trkpt>
      <trkpt lat="45.94482" lon="4.73136">
        <ele>172</ele>
        <time>2017-05-22T10:52:03Z</time>
      </trkpt>
      <trkpt lat="45.94481" lon="4.73127">
        <ele>172</ele>
        <time>2017-05-22T10:52:04Z</time>
      </trkpt>
      <trkpt lat="45.94481" lon="4.73118">
        <ele>172</ele>
        <time>2017-05-22T10:52:05Z</time>
      </trkpt>
      <trkpt lat="45.9448" lon="4.7311">
        <ele>172</ele>
        <time>2017-05-22T10:52:06Z</time>
      </trkpt>
      <trkpt lat="45.94479" lon="4.73101">
        <ele>172</ele>
        <time>2017-05-22T10:52:07Z</time>
      </trkpt>
      <trkpt lat="45.94478" lon="4.73093">
        <ele>172</ele>
        <time>2017-05-22T10:52:08Z</time>
      </trkpt>
      <trkpt lat="45.94476" lon="4.73084">
        <ele>172</ele>
        <time>2017-05-22T10:52:09Z</time>
      </trkpt>
      <trkpt lat="45.94475" lon="4.73076">
        <ele>170</ele>
        <time>2017-05-22T10:52:10Z</time>
      </trkpt>
      <trkpt lat="45.94474" lon="4.73068">
        <ele>170</ele>
        <time>2017-05-22T10:52:11Z</time>
      </trkpt>
      <trkpt lat="45.94473" lon="4.73061">
        <ele>170</ele>
        <time>2017-05-22T10:52:12Z</time>
      </trkpt>
      <trkpt lat="45.94472" lon="4.73053">
        <ele>170</ele>
        <time>2017-05-22T10:52:13Z</time>
      </trkpt>
      <trkpt lat="45.94471" lon="4.73046">
        <ele>170</ele>
        <time>2017-05-22T10:52:14Z</time>
      </trkpt>
      <trkpt lat="45.94469" lon="4.73039">
        <ele>170</ele>
        <time>2017-05-22T10:52:15Z</time>
      </trkpt>
      <trkpt lat="45.94469" lon="4.73031">
        <ele>170</ele>
        <time>2017-05-22T10:52:16Z</time>
      </trkpt>
      <trkpt lat="45.94468" lon="4.73024">
        <ele>170</ele>
        <time>2017-05-22T10:52:17Z</time>
      </trkpt>
      <trkpt lat="45.94466" lon="4.73016">
        <ele>169</ele>
        <time>2017-05-22T10:52:18Z</time>
      </trkpt>
      <trkpt lat="45.94465" lon="4.73009">
        <ele>169</ele>
        <time>2017-05-22T10:52:19Z</time>
      </trkpt>
      <trkpt lat="45.94464" lon="4.73001">
        <ele>169</ele>
        <time>2017-05-22T10:52:20Z</time>
      </trkpt>
      <trkpt lat="45.94463" lon="4.72993">
        <ele>168</ele>
        <time>2017-05-22T10:52:21Z</time>
      </trkpt>
      <trkpt lat="45.94462" lon="4.72985">
        <ele>168</ele>
        <time>2017-05-22T10:52:22Z</time>
      </trkpt>
      <trkpt lat="45.94461" lon="4.72978">
        <ele>168</ele>
        <time>2017-05-22T10:52:23Z</time>
      </trkpt>
      <trkpt lat="45.94459" lon="4.7297">
        <ele>167</ele>
        <time>2017-05-22T10:52:24Z</time>
      </trkpt>
      <trkpt lat="45.94458" lon="4.72962">
        <ele>167</ele>
        <time>2017-05-22T10:52:25Z</time>
      </trkpt>
      <trkpt lat="45.94457" lon="4.72954">
        <ele>167</ele>
        <time>2017-05-22T10:52:26Z</time>
      </trkpt>
      <trkpt lat="45.94456" lon="4.72946">
        <ele>167</ele>
        <time>2017-05-22T10:52:27Z</time>
      </trkpt>
      <trkpt lat="45.94455" lon="4.72938">
        <ele>167</ele>
        <time>2017-05-22T10:52:28Z</time>
      </trkpt>
      <trkpt lat="45.94454" lon="4.7293">
        <ele>167</ele>
        <time>2017-05-22T10:52:29Z</time>
      </trkpt>
      <trkpt lat="45.94453" lon="4.72923">
        <ele>167</ele>
        <time>2017-05-22T10:52:30Z</time>
      </trkpt>
      <trkpt lat="45.94452" lon="4.72916">
        <ele>166</ele>
        <time>2017-05-22T10:52:31Z</time>
      </trkpt>
      <trkpt lat="45.94451" lon="4.72909">
        <ele>166</ele>
        <time>2017-05-22T10:52:32Z</time>
      </trkpt>
      <trkpt lat="45.94449" lon="4.72897">
        <ele>166</ele>
        <time>2017-05-22T10:52:34Z</time>
      </trkpt>
      <trkpt lat="45.94449" lon="4.72891">
        <ele>166</ele>
        <time>2017-05-22T10:52:35Z</time>
      </trkpt>
      <trkpt lat="45.94447" lon="4.72878">
        <ele>166</ele>
        <time>2017-05-22T10:52:37Z</time>
      </trkpt>
      <trkpt lat="45.94446" lon="4.72872">
        <ele>166</ele>
        <time>2017-05-22T10:52:38Z</time>
      </trkpt>
      <trkpt lat="45.94445" lon="4.72865">
        <ele>166</ele>
        <time>2017-05-22T10:52:39Z</time>
      </trkpt>
      <trkpt lat="45.94444" lon="4.72858">
        <ele>166</ele>
        <time>2017-05-22T10:52:40Z</time>
      </trkpt>
      <trkpt lat="45.94443" lon="4.7285">
        <ele>166</ele>
        <time>2017-05-22T10:52:41Z</time>
      </trkpt>
      <trkpt lat="45.94442" lon="4.72842">
        <ele>166</ele>
        <time>2017-05-22T10:52:42Z</time>
      </trkpt>
      <trkpt lat="45.94441" lon="4.72834">
        <ele>166</ele>
        <time>2017-05-22T10:52:43Z</time>
      </trkpt>
      <trkpt lat="45.9444" lon="4.72825">
        <ele>167</ele>
        <time>2017-05-22T10:52:44Z</time>
      </trkpt>
      <trkpt lat="45.94439" lon="4.72816">
        <ele>167</ele>
        <time>2017-05-22T10:52:45Z</time>
      </trkpt>
      <trkpt lat="45.94438" lon="4.72807">
        <ele>167</ele>
        <time>2017-05-22T10:52:46Z</time>
      </trkpt>
      <trkpt lat="45.94437" lon="4.72798">
        <ele>167</ele>
        <time>2017-05-22T10:52:47Z</time>
      </trkpt>
      <trkpt lat="45.94435" lon="4.72788">
        <ele>168</ele>
        <time>2017-05-22T10:52:48Z</time>
      </trkpt>
      <trkpt lat="45.94434" lon="4.72778">
        <ele>168</ele>
        <time>2017-05-22T10:52:49Z</time>
      </trkpt>
      <trkpt lat="45.94433" lon="4.72768">
        <ele>169</ele>
        <time>2017-05-22T10:52:50Z</time>
      </trkpt>
      <trkpt lat="45.94432" lon="4.72758">
        <ele>169</ele>
        <time>2017-05-22T10:52:51Z</time>
      </trkpt>
      <trkpt lat="45.9443" lon="4.72748">
        <ele>171</ele>
        <time>2017-05-22T10:52:52Z</time>
      </trkpt>
      <trkpt lat="45.94429" lon="4.72738">
        <ele>171</ele>
        <time>2017-05-22T10:52:53Z</time>
      </trkpt>
      <trkpt lat="45.94428" lon="4.72729">
        <ele>171</ele>
        <time>2017-05-22T10:52:54Z</time>
      </trkpt>
      <trkpt lat="45.94427" lon="4.72719">
        <ele>171</ele>
        <time>2017-05-22T10:52:55Z</time>
      </trkpt>
      <trkpt lat="45.94426" lon="4.72709">
        <ele>172</ele>
        <time>2017-05-22T10:52:56Z</time>
      </trkpt>
      <trkpt lat="45.94425" lon="4.72699">
        <ele>172</ele>
        <time>2017-05-22T10:52:57Z</time>
      </trkpt>
      <trkpt lat="45.94423" lon="4.7269">
        <ele>172</ele>
        <time>2017-05-22T10:52:58Z</time>
      </trkpt>
      <trkpt lat="45.94422" lon="4.7268">
        <ele>173</ele>
        <time>2017-05-22T10:52:59Z</time>
      </trkpt>
      <trkpt lat="45.94421" lon="4.72671">
        <ele>173</ele>
        <time>2017-05-22T10:53:00Z</time>
      </trkpt>
      <trkpt lat="45.9442" lon="4.72662">
        <ele>174</ele>
        <time>2017-05-22T10:53:01Z</time>
      </trkpt>
      <trkpt lat="45.94419" lon="4.72653">
        <ele>174</ele>
        <time>2017-05-22T10:53:02Z</time>
      </trkpt>
      <trkpt lat="45.94418" lon="4.72643">
        <ele>174</ele>
        <time>2017-05-22T10:53:03Z</time>
      </trkpt>
      <trkpt lat="45.94417" lon="4.72634">
        <ele>174</ele>
        <time>2017-05-22T10:53:04Z</time>
      </trkpt>
      <trkpt lat="45.94415" lon="4.72625">
        <ele>174</ele>
        <time>2017-05-22T10:53:05Z</time>
      </trkpt>
      <trkpt lat="45.94413" lon="4.72617">
        <ele>173</ele>
        <time>2017-05-22T10:53:06Z</time>
      </trkpt>
      <trkpt lat="45.94411" lon="4.72608">
        <ele>173</ele>
        <time>2017-05-22T10:53:07Z</time>
      </trkpt>
      <trkpt lat="45.9441" lon="4.72599">
        <ele>173</ele>
        <time>2017-05-22T10:53:08Z</time>
      </trkpt>
      <trkpt lat="45.94409" lon="4.72591">
        <ele>173</ele>
        <time>2017-05-22T10:53:09Z</time>
      </trkpt>
      <trkpt lat="45.94408" lon="4.72583">
        <ele>173</ele>
        <time>2017-05-22T10:53:10Z</time>
      </trkpt>
      <trkpt lat="45.94407" lon="4.72575">
        <ele>173</ele>
        <time>2017-05-22T10:53:11Z</time>
      </trkpt>
      <trkpt lat="45.94405" lon="4.72567">
        <ele>173</ele>
        <time>2017-05-22T10:53:12Z</time>
      </trkpt>
      <trkpt lat="45.94403" lon="4.72559">
        <ele>173</ele>
        <time>2017-05-22T10:53:13Z</time>
      </trkpt>
      <trkpt lat="45.94402" lon="4.72551">
        <ele>173</ele>
        <time>2017-05-22T10:53:14Z</time>
      </trkpt>
      <trkpt lat="45.944" lon="4.72544">
        <ele>173</ele>
        <time>2017-05-22T10:53:15Z</time>
      </trkpt>
      <trkpt lat="45.94398" lon="4.72538">
        <ele>174</ele>
        <time>2017-05-22T10:53:16Z</time>
      </trkpt>
      <trkpt lat="45.94396" lon="4.7253">
        <ele>174</ele>
        <time>2017-05-22T10:53:17Z</time>
      </trkpt>
      <trkpt lat="45.94393" lon="4.72522">
        <ele>174</ele>
        <time>2017-05-22T10:53:18Z</time>
      </trkpt>
      <trkpt lat="45.94391" lon="4.72513">
        <ele>174</ele>
        <time>2017-05-22T10:53:19Z</time>
      </trkpt>
      <trkpt lat="45.94388" lon="4.72505">
        <ele>174</ele>
        <time>2017-05-22T10:53:20Z</time>
      </trkpt>
      <trkpt lat="45.94385" lon="4.72497">
        <ele>173</ele>
        <time>2017-05-22T10:53:21Z</time>
      </trkpt>
      <trkpt lat="45.94381" lon="4.72488">
        <ele>173</ele>
        <time>2017-05-22T10:53:22Z</time>
      </trkpt>
      <trkpt lat="45.94378" lon="4.72479">
        <ele>173</ele>
        <time>2017-05-22T10:53:23Z</time>
      </trkpt>
      <trkpt lat="45.94375" lon="4.7247">
        <ele>173</ele>
        <time>2017-05-22T10:53:24Z</time>
      </trkpt>
      <trkpt lat="45.94372" lon="4.72462">
        <ele>173</ele>
        <time>2017-05-22T10:53:25Z</time>
      </trkpt>
      <trkpt lat="45.94369" lon="4.72454">
        <ele>173</ele>
        <time>2017-05-22T10:53:26Z</time>
      </trkpt>
      <trkpt lat="45.94366" lon="4.72446">
        <ele>173</ele>
        <time>2017-05-22T10:53:27Z</time>
      </trkpt>
      <trkpt lat="45.94363" lon="4.72439">
        <ele>173</ele>
        <time>2017-05-22T10:53:28Z</time>
      </trkpt>
      <trkpt lat="45.9436" lon="4.72432">
        <ele>173</ele>
        <time>2017-05-22T10:53:29Z</time>
      </trkpt>
      <trkpt lat="45.94357" lon="4.72426">
        <ele>173</ele>
        <time>2017-05-22T10:53:30Z</time>
      </trkpt>
      <trkpt lat="45.94354" lon="4.72419">
        <ele>173</ele>
        <time>2017-05-22T10:53:31Z</time>
      </trkpt>
      <trkpt lat="45.94352" lon="4.72413">
        <ele>172</ele>
        <time>2017-05-22T10:53:32Z</time>
      </trkpt>
      <trkpt lat="45.94349" lon="4.72406">
        <ele>172</ele>
        <time>2017-05-22T10:53:33Z</time>
      </trkpt>
      <trkpt lat="45.94346" lon="4.724">
        <ele>172</ele>
        <time>2017-05-22T10:53:34Z</time>
      </trkpt>
      <trkpt lat="45.94343" lon="4.72395">
        <ele>172</ele>
        <time>2017-05-22T10:53:35Z</time>
      </trkpt>
      <trkpt lat="45.9434" lon="4.72388">
        <ele>172</ele>
        <time>2017-05-22T10:53:36Z</time>
      </trkpt>
      <trkpt lat="45.94336" lon="4.72382">
        <ele>172</ele>
        <time>2017-05-22T10:53:37Z</time>
      </trkpt>
      <trkpt lat="45.94332" lon="4.72376">
        <ele>172</ele>
        <time>2017-05-22T10:53:38Z</time>
      </trkpt>
      <trkpt lat="45.94328" lon="4.72369">
        <ele>172</ele>
        <time>2017-05-22T10:53:39Z</time>
      </trkpt>
      <trkpt lat="45.94324" lon="4.72361">
        <ele>172</ele>
        <time>2017-05-22T10:53:40Z</time>
      </trkpt>
      <trkpt lat="45.9432" lon="4.72354">
        <ele>172</ele>
        <time>2017-05-22T10:53:41Z</time>
      </trkpt>
      <trkpt lat="45.94317" lon="4.72346">
        <ele>172</ele>
        <time>2017-05-22T10:53:42Z</time>
      </trkpt>
      <trkpt lat="45.94312" lon="4.72338">
        <ele>172</ele>
        <time>2017-05-22T10:53:43Z</time>
      </trkpt>
      <trkpt lat="45.94309" lon="4.7233">
        <ele>172</ele>
        <time>2017-05-22T10:53:44Z</time>
      </trkpt>
      <trkpt lat="45.94305" lon="4.72323">
        <ele>171</ele>
        <time>2017-05-22T10:53:45Z</time>
      </trkpt>
      <trkpt lat="45.94303" lon="4.72316">
        <ele>171</ele>
        <time>2017-05-22T10:53:46Z</time>
      </trkpt>
      <trkpt lat="45.943" lon="4.72308">
        <ele>171</ele>
        <time>2017-05-22T10:53:47Z</time>
      </trkpt>
      <trkpt lat="45.94297" lon="4.72301">
        <ele>171</ele>
        <time>2017-05-22T10:53:48Z</time>
      </trkpt>
      <trkpt lat="45.94295" lon="4.72294">
        <ele>171</ele>
        <time>2017-05-22T10:53:49Z</time>
      </trkpt>
      <trkpt lat="45.94292" lon="4.72287">
        <ele>171</ele>
        <time>2017-05-22T10:53:50Z</time>
      </trkpt>
      <trkpt lat="45.94289" lon="4.7228">
        <ele>171</ele>
        <time>2017-05-22T10:53:51Z</time>
      </trkpt>
      <trkpt lat="45.94286" lon="4.72274">
        <ele>171</ele>
        <time>2017-05-22T10:53:52Z</time>
      </trkpt>
      <trkpt lat="45.94278" lon="4.72268">
        <ele>171</ele>
        <time>2017-05-22T10:53:54Z</time>
      </trkpt>
      <trkpt lat="45.94274" lon="4.72269">
        <ele>171</ele>
        <time>2017-05-22T10:53:55Z</time>
      </trkpt>
      <trkpt lat="45.94269" lon="4.7227">
        <ele>171</ele>
        <time>2017-05-22T10:53:56Z</time>
      </trkpt>
      <trkpt lat="45.94264" lon="4.72273">
        <ele>171</ele>
        <time>2017-05-22T10:53:57Z</time>
      </trkpt>
      <trkpt lat="45.9426" lon="4.72275">
        <ele>171</ele>
        <time>2017-05-22T10:53:58Z</time>
      </trkpt>
      <trkpt lat="45.94255" lon="4.72277">
        <ele>171</ele>
        <time>2017-05-22T10:53:59Z</time>
      </trkpt>
      <trkpt lat="45.9425" lon="4.72279">
        <ele>171</ele>
        <time>2017-05-22T10:54:00Z</time>
      </trkpt>
      <trkpt lat="45.94244" lon="4.72281">
        <ele>171</ele>
        <time>2017-05-22T10:54:01Z</time>
      </trkpt>
      <trkpt lat="45.94238" lon="4.72282">
        <ele>171</ele>
        <time>2017-05-22T10:54:02Z</time>
      </trkpt>
      <trkpt lat="45.94232" lon="4.72283">
        <ele>171</ele>
        <time>2017-05-22T10:54:03Z</time>
      </trkpt>
      <trkpt lat="45.94225" lon="4.72284">
        <ele>171</ele>
        <time>2017-05-22T10:54:04Z</time>
      </trkpt>
      <trkpt lat="45.94218" lon="4.72285">
        <ele>171</ele>
        <time>2017-05-22T10:54:05Z</time>
      </trkpt>
      <trkpt lat="45.94212" lon="4.72286">
        <ele>171</ele>
        <time>2017-05-22T10:54:06Z</time>
      </trkpt>
      <trkpt lat="45.94204" lon="4.72287">
        <ele>171</ele>
        <time>2017-05-22T10:54:07Z</time>
      </trkpt>
      <trkpt lat="45.94197" lon="4.72287">
        <ele>171</ele>
        <time>2017-05-22T10:54:08Z</time>
      </trkpt>
      <trkpt lat="45.94191" lon="4.72287">
        <ele>171</ele>
        <time>2017-05-22T10:54:09Z</time>
      </trkpt>
      <trkpt lat="45.94184" lon="4.72287">
        <ele>171</ele>
        <time>2017-05-22T10:54:10Z</time>
      </trkpt>
      <trkpt lat="45.94178" lon="4.72287">
        <ele>171</ele>
        <time>2017-05-22T10:54:11Z</time>
      </trkpt>
      <trkpt lat="45.94172" lon="4.72286">
        <ele>171</ele>
        <time>2017-05-22T10:54:12Z</time>
      </trkpt>
      <trkpt lat="45.94167" lon="4.72286">
        <ele>171</ele>
        <time>2017-05-22T10:54:13Z</time>
      </trkpt>
      <trkpt lat="45.94161" lon="4.72285">
        <ele>171</ele>
        <time>2017-05-22T10:54:14Z</time>
      </trkpt>
      <trkpt lat="45.94155" lon="4.72283">
        <ele>171</ele>
        <time>2017-05-22T10:54:15Z</time>
      </trkpt>
      <trkpt lat="45.94149" lon="4.7228">
        <ele>171</ele>
        <time>2017-05-22T10:54:16Z</time>
      </trkpt>
      <trkpt lat="45.94143" lon="4.72278">
        <ele>171</ele>
        <time>2017-05-22T10:54:17Z</time>
      </trkpt>
      <trkpt lat="45.94137" lon="4.72274">
        <ele>171</ele>
        <time>2017-05-22T10:54:18Z</time>
      </trkpt>
      <trkpt lat="45.9413" lon="4.72271">
        <ele>171</ele>
        <time>2017-05-22T10:54:19Z</time>
      </trkpt>
      <trkpt lat="45.94124" lon="4.72267">
        <ele>171</ele>
        <time>2017-05-22T10:54:20Z</time>
      </trkpt>
      <trkpt lat="45.94117" lon="4.72264">
        <ele>171</ele>
        <time>2017-05-22T10:54:21Z</time>
      </trkpt>
      <trkpt lat="45.9411" lon="4.72262">
        <ele>171</ele>
        <time>2017-05-22T10:54:22Z</time>
      </trkpt>
      <trkpt lat="45.94103" lon="4.72261">
        <ele>171</ele>
        <time>2017-05-22T10:54:23Z</time>
      </trkpt>
      <trkpt lat="45.94097" lon="4.72261">
        <ele>171</ele>
        <time>2017-05-22T10:54:24Z</time>
      </trkpt>
      <trkpt lat="45.9409" lon="4.72263">
        <ele>171</ele>
        <time>2017-05-22T10:54:25Z</time>
      </trkpt>
      <trkpt lat="45.94084" lon="4.72265">
        <ele>171</ele>
        <time>2017-05-22T10:54:26Z</time>
      </trkpt>
      <trkpt lat="45.94078" lon="4.72268">
        <ele>171</ele>
        <time>2017-05-22T10:54:27Z</time>
      </trkpt>
      <trkpt lat="45.94072" lon="4.72272">
        <ele>171</ele>
        <time>2017-05-22T10:54:28Z</time>
      </trkpt>
      <trkpt lat="45.94067" lon="4.72277">
        <ele>171</ele>
        <time>2017-05-22T10:54:29Z</time>
      </trkpt>
      <trkpt lat="45.94063" lon="4.72283">
        <ele>171</ele>
        <time>2017-05-22T10:54:30Z</time>
      </trkpt>
      <trkpt lat="45.94058" lon="4.72289">
        <ele>171</ele>
        <time>2017-05-22T10:54:31Z</time>
      </trkpt>
      <trkpt lat="45.94054" lon="4.72295">
        <ele>171</ele>
        <time>2017-05-22T10:54:32Z</time>
      </trkpt>
      <trkpt lat="45.9405" lon="4.723">
        <ele>171</ele>
        <time>2017-05-22T10:54:33Z</time>
      </trkpt>
      <trkpt lat="45.94046" lon="4.72306">
        <ele>171</ele>
        <time>2017-05-22T10:54:34Z</time>
      </trkpt>
      <trkpt lat="45.94041" lon="4.72312">
        <ele>171</ele>
        <time>2017-05-22T10:54:35Z</time>
      </trkpt>
      <trkpt lat="45.94037" lon="4.72318">
        <ele>171</ele>
        <time>2017-05-22T10:54:36Z</time>
      </trkpt>
      <trkpt lat="45.94032" lon="4.72325">
        <ele>171</ele>
        <time>2017-05-22T10:54:37Z</time>
      </trkpt>
      <trkpt lat="45.94027" lon="4.72331">
        <ele>171</ele>
        <time>2017-05-22T10:54:38Z</time>
      </trkpt>
      <trkpt lat="45.94022" lon="4.72337">
        <ele>171</ele>
        <time>2017-05-22T10:54:39Z</time>
      </trkpt>
      <trkpt lat="45.94016" lon="4.72344">
        <ele>171</ele>
        <time>2017-05-22T10:54:40Z</time>
      </trkpt>
      <trkpt lat="45.94011" lon="4.72351">
        <ele>171</ele>
        <time>2017-05-22T10:54:41Z</time>
      </trkpt>
      <trkpt lat="45.94006" lon="4.72357">
        <ele>171</ele>
        <time>2017-05-22T10:54:42Z</time>
      </trkpt>
      <trkpt lat="45.94002" lon="4.72364">
        <ele>171</ele>
        <time>2017-05-22T10:54:43Z</time>
      </trkpt>
      <trkpt lat="45.93997" lon="4.7237">
        <ele>171</ele>
        <time>2017-05-22T10:54:44Z</time>
      </trkpt>
      <trkpt lat="45.93992" lon="4.72376">
        <ele>171</ele>
        <time>2017-05-22T10:54:45Z</time>
      </trkpt>
      <trkpt lat="45.93988" lon="4.72382">
        <ele>171</ele>
        <time>2017-05-22T10:54:46Z</time>
      </trkpt>
      <trkpt lat="45.93984" lon="4.72388">
        <ele>171</ele>
        <time>2017-05-22T10:54:47Z</time>
      </trkpt>
      <trkpt lat="45.93979" lon="4.72394">
        <ele>171</ele>
        <time>2017-05-22T10:54:48Z</time>
      </trkpt>
      <trkpt lat="45.93975" lon="4.72399">
        <ele>171</ele>
        <time>2017-05-22T10:54:49Z</time>
      </trkpt>
      <trkpt lat="45.93971" lon="4.72403">
        <ele>171</ele>
        <time>2017-05-22T10:54:50Z</time>
      </trkpt>
      <trkpt lat="45.93966" lon="4.72409">
        <ele>171</ele>
        <time>2017-05-22T10:54:51Z</time>
      </trkpt>
      <trkpt lat="45.93961" lon="4.72414">
        <ele>171</ele>
        <time>2017-05-22T10:54:52Z</time>
      </trkpt>
      <trkpt lat="45.93957" lon="4.72419">
        <ele>171</ele>
        <time>2017-05-22T10:54:53Z</time>
      </trkpt>
      <trkpt lat="45.93953" lon="4.72426">
        <ele>171</ele>
        <time>2017-05-22T10:54:54Z</time>
      </trkpt>
      <trkpt lat="45.93948" lon="4.72432">
        <ele>171</ele>
        <time>2017-05-22T10:54:55Z</time>
      </trkpt>
      <trkpt lat="45.93943" lon="4.72437">
        <ele>171</ele>
        <time>2017-05-22T10:54:56Z</time>
      </trkpt>
      <trkpt lat="45.93938" lon="4.72442">
        <ele>171</ele>
        <time>2017-05-22T10:54:57Z</time>
      </trkpt>
      <trkpt lat="45.93933" lon="4.72449">
        <ele>171</ele>
        <time>2017-05-22T10:54:58Z</time>
      </trkpt>
      <trkpt lat="45.93928" lon="4.72455">
        <ele>171</ele>
        <time>2017-05-22T10:54:59Z</time>
      </trkpt>
      <trkpt lat="45.93923" lon="4.72461">
        <ele>171</ele>
        <time>2017-05-22T10:55:00Z</time>
      </trkpt>
      <trkpt lat="45.93919" lon="4.72466">
        <ele>171</ele>
        <time>2017-05-22T10:55:01Z</time>
      </trkpt>
      <trkpt lat="45.93915" lon="4.72471">
        <ele>172</ele>
        <time>2017-05-22T10:55:02Z</time>
      </trkpt>
      <trkpt lat="45.93911" lon="4.72476">
        <ele>172</ele>
        <time>2017-05-22T10:55:03Z</time>
      </trkpt>
      <trkpt lat="45.93907" lon="4.72481">
        <ele>172</ele>
        <time>2017-05-22T10:55:04Z</time>
      </trkpt>
      <trkpt lat="45.93904" lon="4.72486">
        <ele>172</ele>
        <time>2017-05-22T10:55:05Z</time>
      </trkpt>
      <trkpt lat="45.93898" lon="4.72493">
        <ele>172</ele>
        <time>2017-05-22T10:55:07Z</time>
      </trkpt>
      <trkpt lat="45.93895" lon="4.72497">
        <ele>172</ele>
        <time>2017-05-22T10:55:08Z</time>
      </trkpt>
      <trkpt lat="45.93888" lon="4.72502">
        <ele>173</ele>
        <time>2017-05-22T10:55:10Z</time>
      </trkpt>
      <trkpt lat="45.93884" lon="4.72507">
        <ele>173</ele>
        <time>2017-05-22T10:55:11Z</time>
      </trkpt>
      <trkpt lat="45.9388" lon="4.7251">
        <ele>173</ele>
        <time>2017-05-22T10:55:12Z</time>
      </trkpt>
      <trkpt lat="45.93876" lon="4.72514">
        <ele>173</ele>
        <time>2017-05-22T10:55:13Z</time>
      </trkpt>
      <trkpt lat="45.93872" lon="4.72516">
        <ele>173</ele>
        <time>2017-05-22T10:55:14Z</time>
      </trkpt>
      <trkpt lat="45.93866" lon="4.72516">
        <ele>173</ele>
        <time>2017-05-22T10:55:15Z</time>
      </trkpt>
      <trkpt lat="45.9386" lon="4.72513">
        <ele>173</ele>
        <time>2017-05-22T10:55:16Z</time>
      </trkpt>
      <trkpt lat="45.93856" lon="4.72508">
        <ele>173</ele>
        <time>2017-05-22T10:55:17Z</time>
      </trkpt>
      <trkpt lat="45.93849" lon="4.72501">
        <ele>174</ele>
        <time>2017-05-22T10:55:19Z</time>
      </trkpt>
      <trkpt lat="45.93846" lon="4.72498">
        <ele>173</ele>
        <time>2017-05-22T10:55:20Z</time>
      </trkpt>
      <trkpt lat="45.93841" lon="4.72492">
        <ele>173</ele>
        <time>2017-05-22T10:55:22Z</time>
      </trkpt>
      <trkpt lat="45.93839" lon="4.72488">
        <ele>173</ele>
        <time>2017-05-22T10:55:23Z</time>
      </trkpt>
      <trkpt lat="45.93833" lon="4.72481">
        <ele>173</ele>
        <time>2017-05-22T10:55:25Z</time>
      </trkpt>
      <trkpt lat="45.9383" lon="4.72477">
        <ele>173</ele>
        <time>2017-05-22T10:55:26Z</time>
      </trkpt>
      <trkpt lat="45.93825" lon="4.72473">
        <ele>172</ele>
        <time>2017-05-22T10:55:27Z</time>
      </trkpt>
      <trkpt lat="45.93821" lon="4.72469">
        <ele>172</ele>
        <time>2017-05-22T10:55:28Z</time>
      </trkpt>
      <trkpt lat="45.93817" lon="4.72464">
        <ele>172</ele>
        <time>2017-05-22T10:55:29Z</time>
      </trkpt>
      <trkpt lat="45.93814" lon="4.7246">
        <ele>172</ele>
        <time>2017-05-22T10:55:30Z</time>
      </trkpt>
      <trkpt lat="45.93808" lon="4.72452">
        <ele>172</ele>
        <time>2017-05-22T10:55:32Z</time>
      </trkpt>
      <trkpt lat="45.93804" lon="4.72449">
        <ele>172</ele>
        <time>2017-05-22T10:55:33Z</time>
      </trkpt>
      <trkpt lat="45.93798" lon="4.72442">
        <ele>172</ele>
        <time>2017-05-22T10:55:35Z</time>
      </trkpt>
      <trkpt lat="45.93796" lon="4.72439">
        <ele>172</ele>
        <time>2017-05-22T10:55:36Z</time>
      </trkpt>
      <trkpt lat="45.9379" lon="4.72432">
        <ele>172</ele>
        <time>2017-05-22T10:55:38Z</time>
      </trkpt>
      <trkpt lat="45.93787" lon="4.72428">
        <ele>172</ele>
        <time>2017-05-22T10:55:39Z</time>
      </trkpt>
      <trkpt lat="45.9378" lon="4.72422">
        <ele>172</ele>
        <time>2017-05-22T10:55:41Z</time>
      </trkpt>
      <trkpt lat="45.93777" lon="4.7242">
        <ele>171</ele>
        <time>2017-05-22T10:55:42Z</time>
      </trkpt>
      <trkpt lat="45.9377" lon="4.72413">
        <ele>171</ele>
        <time>2017-05-22T10:55:44Z</time>
      </trkpt>
      <trkpt lat="45.93767" lon="4.72409">
        <ele>171</ele>
        <time>2017-05-22T10:55:45Z</time>
      </trkpt>
      <trkpt lat="45.93763" lon="4.72404">
        <ele>171</ele>
        <time>2017-05-22T10:55:46Z</time>
      </trkpt>
      <trkpt lat="45.93759" lon="4.724">
        <ele>171</ele>
        <time>2017-05-22T10:55:47Z</time>
      </trkpt>
      <trkpt lat="45.93756" lon="4.72396">
        <ele>171</ele>
        <time>2017-05-22T10:55:48Z</time>
      </trkpt>
      <trkpt lat="45.93752" lon="4.72392">
        <ele>171</ele>
        <time>2017-05-22T10:55:49Z</time>
      </trkpt>
      <trkpt lat="45.93748" lon="4.72389">
        <ele>171</ele>
        <time>2017-05-22T10:55:50Z</time>
      </trkpt>
      <trkpt lat="45.93744" lon="4.72386">
        <ele>171</ele>
        <time>2017-05-22T10:55:51Z</time>
      </trkpt>
      <trkpt lat="45.93736" lon="4.7238">
        <ele>171</ele>
        <time>2017-05-22T10:55:53Z</time>
      </trkpt>
      <trkpt lat="45.93733" lon="4.72377">
        <ele>171</ele>
        <time>2017-05-22T10:55:54Z</time>
      </trkpt>
      <trkpt lat="45.93725" lon="4.72371">
        <ele>172</ele>
        <time>2017-05-22T10:55:56Z</time>
      </trkpt>
      <trkpt lat="45.93722" lon="4.72368">
        <ele>172</ele>
        <time>2017-05-22T10:55:57Z</time>
      </trkpt>
      <trkpt lat="45.93715" lon="4.72361">
        <ele>172</ele>
        <time>2017-05-22T10:55:59Z</time>
      </trkpt>
      <trkpt lat="45.93712" lon="4.72358">
        <ele>172</ele>
        <time>2017-05-22T10:56:00Z</time>
      </trkpt>
      <trkpt lat="45.93706" lon="4.72353">
        <ele>171</ele>
        <time>2017-05-22T10:56:02Z</time>
      </trkpt>
      <trkpt lat="45.93703" lon="4.7235">
        <ele>171</ele>
        <time>2017-05-22T10:56:03Z</time>
      </trkpt>
      <trkpt lat="45.93698" lon="4.72341">
        <ele>171</ele>
        <time>2017-05-22T10:56:05Z</time>
      </trkpt>
      <trkpt lat="45.93694" lon="4.72337">
        <ele>171</ele>
        <time>2017-05-22T10:56:06Z</time>
      </trkpt>
      <trkpt lat="45.9369" lon="4.72333">
        <ele>172</ele>
        <time>2017-05-22T10:56:07Z</time>
      </trkpt>
      <trkpt lat="45.93686" lon="4.72329">
        <ele>172</ele>
        <time>2017-05-22T10:56:08Z</time>
      </trkpt>
      <trkpt lat="45.93682" lon="4.72325">
        <ele>172</ele>
        <time>2017-05-22T10:56:09Z</time>
      </trkpt>
      <trkpt lat="45.93678" lon="4.72321">
        <ele>171</ele>
        <time>2017-05-22T10:56:10Z</time>
      </trkpt>
      <trkpt lat="45.93674" lon="4.72317">
        <ele>172</ele>
        <time>2017-05-22T10:56:11Z</time>
      </trkpt>
      <trkpt lat="45.9367" lon="4.72313">
        <ele>172</ele>
        <time>2017-05-22T10:56:12Z</time>
      </trkpt>
      <trkpt lat="45.93667" lon="4.72309">
        <ele>172</ele>
        <time>2017-05-22T10:56:13Z</time>
      </trkpt>
      <trkpt lat="45.93663" lon="4.72305">
        <ele>172</ele>
        <time>2017-05-22T10:56:14Z</time>
      </trkpt>
      <trkpt lat="45.93656" lon="4.72298">
        <ele>172</ele>
        <time>2017-05-22T10:56:16Z</time>
      </trkpt>
      <trkpt lat="45.93653" lon="4.72294">
        <ele>172</ele>
        <time>2017-05-22T10:56:17Z</time>
      </trkpt>
      <trkpt lat="45.93646" lon="4.72288">
        <ele>172</ele>
        <time>2017-05-22T10:56:19Z</time>
      </trkpt>
      <trkpt lat="45.93642" lon="4.72284">
        <ele>172</ele>
        <time>2017-05-22T10:56:20Z</time>
      </trkpt>
      <trkpt lat="45.93639" lon="4.72279">
        <ele>172</ele>
        <time>2017-05-22T10:56:21Z</time>
      </trkpt>
      <trkpt lat="45.93635" lon="4.72275">
        <ele>172</ele>
        <time>2017-05-22T10:56:22Z</time>
      </trkpt>
      <trkpt lat="45.93627" lon="4.7227">
        <ele>172</ele>
        <time>2017-05-22T10:56:24Z</time>
      </trkpt>
      <trkpt lat="45.93623" lon="4.72268">
        <ele>172</ele>
        <time>2017-05-22T10:56:25Z</time>
      </trkpt>
      <trkpt lat="45.93617" lon="4.72262">
        <ele>172</ele>
        <time>2017-05-22T10:56:27Z</time>
      </trkpt>
      <trkpt lat="45.93614" lon="4.72258">
        <ele>172</ele>
        <time>2017-05-22T10:56:28Z</time>
      </trkpt>
      <trkpt lat="45.93608" lon="4.72253">
        <ele>173</ele>
        <time>2017-05-22T10:56:30Z</time>
      </trkpt>
      <trkpt lat="45.93605" lon="4.72249">
        <ele>173</ele>
        <time>2017-05-22T10:56:31Z</time>
      </trkpt>
      <trkpt lat="45.93602" lon="4.72244">
        <ele>173</ele>
        <time>2017-05-22T10:56:32Z</time>
      </trkpt>
      <trkpt lat="45.93599" lon="4.72239">
        <ele>173</ele>
        <time>2017-05-22T10:56:33Z</time>
      </trkpt>
      <trkpt lat="45.93593" lon="4.72232">
        <ele>173</ele>
        <time>2017-05-22T10:56:35Z</time>
      </trkpt>
      <trkpt lat="45.9359" lon="4.72229">
        <ele>173</ele>
        <time>2017-05-22T10:56:36Z</time>
      </trkpt>
      <trkpt lat="45.93583" lon="4.72223">
        <ele>173</ele>
        <time>2017-05-22T10:56:39Z</time>
      </trkpt>
      <trkpt lat="45.93581" lon="4.72222">
        <ele>173</ele>
        <time>2017-05-22T10:56:40Z</time>
      </trkpt>
      <trkpt lat="45.9358" lon="4.72222">
        <ele>173</ele>
        <time>2017-05-22T10:56:41Z</time>
      </trkpt>
      <trkpt lat="45.93579" lon="4.72221">
        <ele>173</ele>
        <time>2017-05-22T10:56:50Z</time>
      </trkpt>
      <trkpt lat="45.93578" lon="4.7222">
        <ele>173</ele>
        <time>2017-05-22T10:56:51Z</time>
      </trkpt>
      <trkpt lat="45.93574" lon="4.72217">
        <ele>173</ele>
        <time>2017-05-22T10:56:56Z</time>
      </trkpt>
      <trkpt lat="45.93569" lon="4.72217">
        <ele>173</ele>
        <time>2017-05-22T10:56:57Z</time>
      </trkpt>
      <trkpt lat="45.93561" lon="4.72217">
        <ele>173</ele>
        <time>2017-05-22T10:56:59Z</time>
      </trkpt>
      <trkpt lat="45.93556" lon="4.72219">
        <ele>173</ele>
        <time>2017-05-22T10:57:00Z</time>
      </trkpt>
      <trkpt lat="45.93551" lon="4.72225">
        <ele>172</ele>
        <time>2017-05-22T10:57:02Z</time>
      </trkpt>
      <trkpt lat="45.93549" lon="4.72228">
        <ele>172</ele>
        <time>2017-05-22T10:57:03Z</time>
      </trkpt>
      <trkpt lat="45.93543" lon="4.72236">
        <ele>172</ele>
        <time>2017-05-22T10:57:06Z</time>
      </trkpt>
      <trkpt lat="45.93541" lon="4.7224">
        <ele>172</ele>
        <time>2017-05-22T10:57:07Z</time>
      </trkpt>
      <trkpt lat="45.93537" lon="4.72248">
        <ele>172</ele>
        <time>2017-05-22T10:57:09Z</time>
      </trkpt>
      <trkpt lat="45.93534" lon="4.72253">
        <ele>172</ele>
        <time>2017-05-22T10:57:10Z</time>
      </trkpt>
      <trkpt lat="45.93532" lon="4.72259">
        <ele>172</ele>
        <time>2017-05-22T10:57:11Z</time>
      </trkpt>
      <trkpt lat="45.93529" lon="4.72265">
        <ele>172</ele>
        <time>2017-05-22T10:57:12Z</time>
      </trkpt>
      <trkpt lat="45.93526" lon="4.72271">
        <ele>172</ele>
        <time>2017-05-22T10:57:13Z</time>
      </trkpt>
      <trkpt lat="45.93523" lon="4.72277">
        <ele>172</ele>
        <time>2017-05-22T10:57:14Z</time>
      </trkpt>
      <trkpt lat="45.9352" lon="4.72283">
        <ele>172</ele>
        <time>2017-05-22T10:57:15Z</time>
      </trkpt>
      <trkpt lat="45.93517" lon="4.72289">
        <ele>172</ele>
        <time>2017-05-22T10:57:16Z</time>
      </trkpt>
      <trkpt lat="45.93514" lon="4.72294">
        <ele>172</ele>
        <time>2017-05-22T10:57:17Z</time>
      </trkpt>
      <trkpt lat="45.9351" lon="4.723">
        <ele>172</ele>
        <time>2017-05-22T10:57:18Z</time>
      </trkpt>
      <trkpt lat="45.93506" lon="4.72306">
        <ele>173</ele>
        <time>2017-05-22T10:57:19Z</time>
      </trkpt>
      <trkpt lat="45.93502" lon="4.72312">
        <ele>173</ele>
        <time>2017-05-22T10:57:20Z</time>
      </trkpt>
      <trkpt lat="45.93498" lon="4.72318">
        <ele>173</ele>
        <time>2017-05-22T10:57:21Z</time>
      </trkpt>
      <trkpt lat="45.93495" lon="4.72324">
        <ele>173</ele>
        <time>2017-05-22T10:57:22Z</time>
      </trkpt>
      <trkpt lat="45.93492" lon="4.7233">
        <ele>173</ele>
        <time>2017-05-22T10:57:23Z</time>
      </trkpt>
      <trkpt lat="45.93488" lon="4.72335">
        <ele>173</ele>
        <time>2017-05-22T10:57:24Z</time>
      </trkpt>
      <trkpt lat="45.93484" lon="4.72341">
        <ele>173</ele>
        <time>2017-05-22T10:57:25Z</time>
      </trkpt>
      <trkpt lat="45.93481" lon="4.72346">
        <ele>173</ele>
        <time>2017-05-22T10:57:26Z</time>
      </trkpt>
      <trkpt lat="45.93475" lon="4.72351">
        <ele>173</ele>
        <time>2017-05-22T10:57:27Z</time>
      </trkpt>
      <trkpt lat="45.93471" lon="4.72355">
        <ele>173</ele>
        <time>2017-05-22T10:57:28Z</time>
      </trkpt>
      <trkpt lat="45.93467" lon="4.7236">
        <ele>173</ele>
        <time>2017-05-22T10:57:29Z</time>
      </trkpt>
      <trkpt lat="45.93465" lon="4.72365">
        <ele>173</ele>
        <time>2017-05-22T10:57:30Z</time>
      </trkpt>
      <trkpt lat="45.93461" lon="4.72371">
        <ele>173</ele>
        <time>2017-05-22T10:57:31Z</time>
      </trkpt>
      <trkpt lat="45.93458" lon="4.72376">
        <ele>173</ele>
        <time>2017-05-22T10:57:32Z</time>
      </trkpt>
      <trkpt lat="45.93454" lon="4.72379">
        <ele>173</ele>
        <time>2017-05-22T10:57:33Z</time>
      </trkpt>
      <trkpt lat="45.93449" lon="4.72383">
        <ele>173</ele>
        <time>2017-05-22T10:57:34Z</time>
      </trkpt>
      <trkpt lat="45.93445" lon="4.72387">
        <ele>173</ele>
        <time>2017-05-22T10:57:35Z</time>
      </trkpt>
      <trkpt lat="45.93441" lon="4.7239">
        <ele>173</ele>
        <time>2017-05-22T10:57:36Z</time>
      </trkpt>
      <trkpt lat="45.93437" lon="4.72393">
        <ele>173</ele>
        <time>2017-05-22T10:57:37Z</time>
      </trkpt>
      <trkpt lat="45.93433" lon="4.72396">
        <ele>173</ele>
        <time>2017-05-22T10:57:38Z</time>
      </trkpt>
      <trkpt lat="45.93429" lon="4.72399">
        <ele>174</ele>
        <time>2017-05-22T10:57:39Z</time>
      </trkpt>
      <trkpt lat="45.93425" lon="4.72402">
        <ele>174</ele>
        <time>2017-05-22T10:57:40Z</time>
      </trkpt>
      <trkpt lat="45.9342" lon="4.72404">
        <ele>174</ele>
        <time>2017-05-22T10:57:41Z</time>
      </trkpt>
      <trkpt lat="45.93415" lon="4.72406">
        <ele>174</ele>
        <time>2017-05-22T10:57:42Z</time>
      </trkpt>
      <trkpt lat="45.9341" lon="4.72407">
        <ele>174</ele>
        <time>2017-05-22T10:57:43Z</time>
      </trkpt>
      <trkpt lat="45.93405" lon="4.72408">
        <ele>174</ele>
        <time>2017-05-22T10:57:44Z</time>
      </trkpt>
      <trkpt lat="45.93396" lon="4.72407">
        <ele>174</ele>
        <time>2017-05-22T10:57:46Z</time>
      </trkpt>
      <trkpt lat="45.93392" lon="4.72407">
        <ele>174</ele>
        <time>2017-05-22T10:57:47Z</time>
      </trkpt>
      <trkpt lat="45.93386" lon="4.72415">
        <ele>174</ele>
        <time>2017-05-22T10:57:49Z</time>
      </trkpt>
      <trkpt lat="45.93384" lon="4.72421">
        <ele>173</ele>
        <time>2017-05-22T10:57:50Z</time>
      </trkpt>
      <trkpt lat="45.93385" lon="4.72433">
        <ele>173</ele>
        <time>2017-05-22T10:57:52Z</time>
      </trkpt>
      <trkpt lat="45.93387" lon="4.7244">
        <ele>173</ele>
        <time>2017-05-22T10:57:53Z</time>
      </trkpt>
      <trkpt lat="45.93389" lon="4.72447">
        <ele>173</ele>
        <time>2017-05-22T10:57:54Z</time>
      </trkpt>
      <trkpt lat="45.93389" lon="4.72454">
        <ele>173</ele>
        <time>2017-05-22T10:57:55Z</time>
      </trkpt>
      <trkpt lat="45.93388" lon="4.72461">
        <ele>173</ele>
        <time>2017-05-22T10:57:56Z</time>
      </trkpt>
      <trkpt lat="45.93386" lon="4.72467">
        <ele>173</ele>
        <time>2017-05-22T10:57:57Z</time>
      </trkpt>
      <trkpt lat="45.93383" lon="4.72473">
        <ele>173</ele>
        <time>2017-05-22T10:57:58Z</time>
      </trkpt>
      <trkpt lat="45.93379" lon="4.72479">
        <ele>173</ele>
        <time>2017-05-22T10:57:59Z</time>
      </trkpt>
      <trkpt lat="45.93375" lon="4.72483">
        <ele>173</ele>
        <time>2017-05-22T10:58:00Z</time>
      </trkpt>
      <trkpt lat="45.9337" lon="4.72487">
        <ele>173</ele>
        <time>2017-05-22T10:58:01Z</time>
      </trkpt>
      <trkpt lat="45.93363" lon="4.72493">
        <ele>173</ele>
        <time>2017-05-22T10:58:03Z</time>
      </trkpt>
      <trkpt lat="45.93359" lon="4.72497">
        <ele>173</ele>
        <time>2017-05-22T10:58:04Z</time>
      </trkpt>
      <trkpt lat="45.93352" lon="4.72505">
        <ele>172</ele>
        <time>2017-05-22T10:58:06Z</time>
      </trkpt>
      <trkpt lat="45.93348" lon="4.72509">
        <ele>172</ele>
        <time>2017-05-22T10:58:07Z</time>
      </trkpt>
      <trkpt lat="45.93344" lon="4.72514">
        <ele>172</ele>
        <time>2017-05-22T10:58:08Z</time>
      </trkpt>
      <trkpt lat="45.93341" lon="4.72519">
        <ele>172</ele>
        <time>2017-05-22T10:58:09Z</time>
      </trkpt>
      <trkpt lat="45.93337" lon="4.72524">
        <ele>172</ele>
        <time>2017-05-22T10:58:10Z</time>
      </trkpt>
      <trkpt lat="45.93333" lon="4.72529">
        <ele>172</ele>
        <time>2017-05-22T10:58:11Z</time>
      </trkpt>
      <trkpt lat="45.93329" lon="4.72534">
        <ele>172</ele>
        <time>2017-05-22T10:58:12Z</time>
      </trkpt>
      <trkpt lat="45.93325" lon="4.72539">
        <ele>172</ele>
        <time>2017-05-22T10:58:13Z</time>
      </trkpt>
      <trkpt lat="45.93321" lon="4.72543">
        <ele>172</ele>
        <time>2017-05-22T10:58:14Z</time>
      </trkpt>
      <trkpt lat="45.93317" lon="4.72547">
        <ele>172</ele>
        <time>2017-05-22T10:58:15Z</time>
      </trkpt>
      <trkpt lat="45.93311" lon="4.72555">
        <ele>172</ele>
        <time>2017-05-22T10:58:17Z</time>
      </trkpt>
      <trkpt lat="45.93308" lon="4.72559">
        <ele>172</ele>
        <time>2017-05-22T10:58:18Z</time>
      </trkpt>
      <trkpt lat="45.93304" lon="4.72564">
        <ele>172</ele>
        <time>2017-05-22T10:58:19Z</time>
      </trkpt>
      <trkpt lat="45.933" lon="4.72568">
        <ele>171</ele>
        <time>2017-05-22T10:58:20Z</time>
      </trkpt>
      <trkpt lat="45.93295" lon="4.72573">
        <ele>171</ele>
        <time>2017-05-22T10:58:21Z</time>
      </trkpt>
      <trkpt lat="45.9329" lon="4.72579">
        <ele>171</ele>
        <time>2017-05-22T10:58:22Z</time>
      </trkpt>
      <trkpt lat="45.93285" lon="4.72586">
        <ele>170</ele>
        <time>2017-05-22T10:58:23Z</time>
      </trkpt>
      <trkpt lat="45.9328" lon="4.72591">
        <ele>170</ele>
        <time>2017-05-22T10:58:24Z</time>
      </trkpt>
      <trkpt lat="45.93275" lon="4.72597">
        <ele>170</ele>
        <time>2017-05-22T10:58:25Z</time>
      </trkpt>
      <trkpt lat="45.9327" lon="4.72603">
        <ele>170</ele>
        <time>2017-05-22T10:58:26Z</time>
      </trkpt>
      <trkpt lat="45.93265" lon="4.72608">
        <ele>170</ele>
        <time>2017-05-22T10:58:27Z</time>
      </trkpt>
      <trkpt lat="45.93261" lon="4.72614">
        <ele>170</ele>
        <time>2017-05-22T10:58:28Z</time>
      </trkpt>
      <trkpt lat="45.93256" lon="4.72619">
        <ele>170</ele>
        <time>2017-05-22T10:58:29Z</time>
      </trkpt>
      <trkpt lat="45.9325" lon="4.72623">
        <ele>170</ele>
        <time>2017-05-22T10:58:30Z</time>
      </trkpt>
      <trkpt lat="45.93246" lon="4.72629">
        <ele>170</ele>
        <time>2017-05-22T10:58:31Z</time>
      </trkpt>
      <trkpt lat="45.93243" lon="4.72635">
        <ele>170</ele>
        <time>2017-05-22T10:58:32Z</time>
      </trkpt>
      <trkpt lat="45.93239" lon="4.7264">
        <ele>170</ele>
        <time>2017-05-22T10:58:33Z</time>
      </trkpt>
      <trkpt lat="45.93235" lon="4.72645">
        <ele>170</ele>
        <time>2017-05-22T10:58:34Z</time>
      </trkpt>
      <trkpt lat="45.93232" lon="4.7265">
        <ele>170</ele>
        <time>2017-05-22T10:58:35Z</time>
      </trkpt>
      <trkpt lat="45.93228" lon="4.72654">
        <ele>170</ele>
        <time>2017-05-22T10:58:36Z</time>
      </trkpt>
      <trkpt lat="45.93224" lon="4.72658">
        <ele>170</ele>
        <time>2017-05-22T10:58:37Z</time>
      </trkpt>
      <trkpt lat="45.9322" lon="4.72662">
        <ele>170</ele>
        <time>2017-05-22T10:58:38Z</time>
      </trkpt>
      <trkpt lat="45.93216" lon="4.72667">
        <ele>169</ele>
        <time>2017-05-22T10:58:39Z</time>
      </trkpt>
      <trkpt lat="45.93211" lon="4.72673">
        <ele>169</ele>
        <time>2017-05-22T10:58:40Z</time>
      </trkpt>
      <trkpt lat="45.93206" lon="4.72678">
        <ele>169</ele>
        <time>2017-05-22T10:58:41Z</time>
      </trkpt>
      <trkpt lat="45.93202" lon="4.72684">
        <ele>169</ele>
        <time>2017-05-22T10:58:42Z</time>
      </trkpt>
      <trkpt lat="45.93196" lon="4.7269">
        <ele>169</ele>
        <time>2017-05-22T10:58:43Z</time>
      </trkpt>
      <trkpt lat="45.9319" lon="4.72696">
        <ele>169</ele>
        <time>2017-05-22T10:58:44Z</time>
      </trkpt>
      <trkpt lat="45.93184" lon="4.72702">
        <ele>169</ele>
        <time>2017-05-22T10:58:45Z</time>
      </trkpt>
      <trkpt lat="45.93179" lon="4.72709">
        <ele>169</ele>
        <time>2017-05-22T10:58:46Z</time>
      </trkpt>
      <trkpt lat="45.93173" lon="4.72715">
        <ele>170</ele>
        <time>2017-05-22T10:58:47Z</time>
      </trkpt>
      <trkpt lat="45.93168" lon="4.7272">
        <ele>170</ele>
        <time>2017-05-22T10:58:48Z</time>
      </trkpt>
      <trkpt lat="45.93164" lon="4.72726">
        <ele>170</ele>
        <time>2017-05-22T10:58:49Z</time>
      </trkpt>
      <trkpt lat="45.93159" lon="4.72732">
        <ele>170</ele>
        <time>2017-05-22T10:58:50Z</time>
      </trkpt>
      <trkpt lat="45.93154" lon="4.72737">
        <ele>170</ele>
        <time>2017-05-22T10:58:51Z</time>
      </trkpt>
      <trkpt lat="45.93149" lon="4.72742">
        <ele>170</ele>
        <time>2017-05-22T10:58:52Z</time>
      </trkpt>
      <trkpt lat="45.93145" lon="4.72747">
        <ele>170</ele>
        <time>2017-05-22T10:58:53Z</time>
      </trkpt>
      <trkpt lat="45.9314" lon="4.72752">
        <ele>171</ele>
        <time>2017-05-22T10:58:54Z</time>
      </trkpt>
      <trkpt lat="45.93136" lon="4.72757">
        <ele>171</ele>
        <time>2017-05-22T10:58:55Z</time>
      </trkpt>
      <trkpt lat="45.93132" lon="4.72762">
        <ele>171</ele>
        <time>2017-05-22T10:58:56Z</time>
      </trkpt>
      <trkpt lat="45.93128" lon="4.72766">
        <ele>171</ele>
        <time>2017-05-22T10:58:57Z</time>
      </trkpt>
      <trkpt lat="45.93124" lon="4.72771">
        <ele>171</ele>
        <time>2017-05-22T10:58:58Z</time>
      </trkpt>
      <trkpt lat="45.9312" lon="4.72775">
        <ele>171</ele>
        <time>2017-05-22T10:58:59Z</time>
      </trkpt>
      <trkpt lat="45.93116" lon="4.72781">
        <ele>171</ele>
        <time>2017-05-22T10:59:00Z</time>
      </trkpt>
      <trkpt lat="45.93111" lon="4.72786">
        <ele>171</ele>
        <time>2017-05-22T10:59:01Z</time>
      </trkpt>
      <trkpt lat="45.93107" lon="4.72793">
        <ele>171</ele>
        <time>2017-05-22T10:59:02Z</time>
      </trkpt>
      <trkpt lat="45.93102" lon="4.72798">
        <ele>171</ele>
        <time>2017-05-22T10:59:03Z</time>
      </trkpt>
      <trkpt lat="45.93097" lon="4.72804">
        <ele>171</ele>
        <time>2017-05-22T10:59:04Z</time>
      </trkpt>
      <trkpt lat="45.93092" lon="4.7281">
        <ele>172</ele>
        <time>2017-05-22T10:59:05Z</time>
      </trkpt>
      <trkpt lat="45.93087" lon="4.72814">
        <ele>172</ele>
        <time>2017-05-22T10:59:06Z</time>
      </trkpt>
      <trkpt lat="45.93081" lon="4.72817">
        <ele>172</ele>
        <time>2017-05-22T10:59:07Z</time>
      </trkpt>
      <trkpt lat="45.93076" lon="4.72821">
        <ele>173</ele>
        <time>2017-05-22T10:59:08Z</time>
      </trkpt>
      <trkpt lat="45.93071" lon="4.72824">
        <ele>173</ele>
        <time>2017-05-22T10:59:09Z</time>
      </trkpt>
      <trkpt lat="45.93067" lon="4.72827">
        <ele>173</ele>
        <time>2017-05-22T10:59:10Z</time>
      </trkpt>
      <trkpt lat="45.93059" lon="4.72834">
        <ele>173</ele>
        <time>2017-05-22T10:59:12Z</time>
      </trkpt>
      <trkpt lat="45.93056" lon="4.72838">
        <ele>172</ele>
        <time>2017-05-22T10:59:13Z</time>
      </trkpt>
      <trkpt lat="45.93051" lon="4.72845">
        <ele>172</ele>
        <time>2017-05-22T10:59:15Z</time>
      </trkpt>
      <trkpt lat="45.93048" lon="4.72851">
        <ele>172</ele>
        <time>2017-05-22T10:59:16Z</time>
      </trkpt>
      <trkpt lat="45.93043" lon="4.72858">
        <ele>172</ele>
        <time>2017-05-22T10:59:17Z</time>
      </trkpt>
      <trkpt lat="45.93038" lon="4.72861">
        <ele>172</ele>
        <time>2017-05-22T10:59:18Z</time>
      </trkpt>
      <trkpt lat="45.93033" lon="4.72867">
        <ele>172</ele>
        <time>2017-05-22T10:59:19Z</time>
      </trkpt>
      <trkpt lat="45.93029" lon="4.72874">
        <ele>172</ele>
        <time>2017-05-22T10:59:20Z</time>
      </trkpt>
      <trkpt lat="45.93025" lon="4.72882">
        <ele>172</ele>
        <time>2017-05-22T10:59:21Z</time>
      </trkpt>
      <trkpt lat="45.9302" lon="4.72889">
        <ele>172</ele>
        <time>2017-05-22T10:59:22Z</time>
      </trkpt>
      <trkpt lat="45.93016" lon="4.72894">
        <ele>172</ele>
        <time>2017-05-22T10:59:23Z</time>
      </trkpt>
      <trkpt lat="45.93011" lon="4.729">
        <ele>172</ele>
        <time>2017-05-22T10:59:24Z</time>
      </trkpt>
      <trkpt lat="45.93006" lon="4.72905">
        <ele>171</ele>
        <time>2017-05-22T10:59:25Z</time>
      </trkpt>
      <trkpt lat="45.93002" lon="4.72911">
        <ele>171</ele>
        <time>2017-05-22T10:59:26Z</time>
      </trkpt>
      <trkpt lat="45.92998" lon="4.72916">
        <ele>171</ele>
        <time>2017-05-22T10:59:27Z</time>
      </trkpt>
      <trkpt lat="45.92994" lon="4.72922">
        <ele>171</ele>
        <time>2017-05-22T10:59:28Z</time>
      </trkpt>
      <trkpt lat="45.9299" lon="4.72928">
        <ele>171</ele>
        <time>2017-05-22T10:59:29Z</time>
      </trkpt>
      <trkpt lat="45.92986" lon="4.72933">
        <ele>171</ele>
        <time>2017-05-22T10:59:30Z</time>
      </trkpt>
      <trkpt lat="45.92982" lon="4.72937">
        <ele>171</ele>
        <time>2017-05-22T10:59:31Z</time>
      </trkpt>
      <trkpt lat="45.92979" lon="4.72942">
        <ele>171</ele>
        <time>2017-05-22T10:59:32Z</time>
      </trkpt>
      <trkpt lat="45.92973" lon="4.7295">
        <ele>171</ele>
        <time>2017-05-22T10:59:34Z</time>
      </trkpt>
      <trkpt lat="45.92969" lon="4.72954">
        <ele>171</ele>
        <time>2017-05-22T10:59:35Z</time>
      </trkpt>
      <trkpt lat="45.92964" lon="4.72962">
        <ele>171</ele>
        <time>2017-05-22T10:59:37Z</time>
      </trkpt>
      <trkpt lat="45.9296" lon="4.72965">
        <ele>171</ele>
        <time>2017-05-22T10:59:38Z</time>
      </trkpt>
      <trkpt lat="45.92956" lon="4.7297">
        <ele>171</ele>
        <time>2017-05-22T10:59:39Z</time>
      </trkpt>
      <trkpt lat="45.92953" lon="4.72974">
        <ele>171</ele>
        <time>2017-05-22T10:59:40Z</time>
      </trkpt>
      <trkpt lat="45.92948" lon="4.72979">
        <ele>171</ele>
        <time>2017-05-22T10:59:41Z</time>
      </trkpt>
      <trkpt lat="45.92944" lon="4.72984">
        <ele>171</ele>
        <time>2017-05-22T10:59:42Z</time>
      </trkpt>
      <trkpt lat="45.9294" lon="4.72989">
        <ele>171</ele>
        <time>2017-05-22T10:59:43Z</time>
      </trkpt>
      <trkpt lat="45.92936" lon="4.72993">
        <ele>171</ele>
        <time>2017-05-22T10:59:44Z</time>
      </trkpt>
      <trkpt lat="45.92933" lon="4.72997">
        <ele>172</ele>
        <time>2017-05-22T10:59:45Z</time>
      </trkpt>
      <trkpt lat="45.92929" lon="4.73001">
        <ele>172</ele>
        <time>2017-05-22T10:59:46Z</time>
      </trkpt>
      <trkpt lat="45.92923" lon="4.73008">
        <ele>172</ele>
        <time>2017-05-22T10:59:48Z</time>
      </trkpt>
      <trkpt lat="45.9292" lon="4.73013">
        <ele>172</ele>
        <time>2017-05-22T10:59:49Z</time>
      </trkpt>
      <trkpt lat="45.92917" lon="4.73018">
        <ele>172</ele>
        <time>2017-05-22T10:59:50Z</time>
      </trkpt>
      <trkpt lat="45.92913" lon="4.73023">
        <ele>172</ele>
        <time>2017-05-22T10:59:51Z</time>
      </trkpt>
      <trkpt lat="45.9291" lon="4.73028">
        <ele>172</ele>
        <time>2017-05-22T10:59:52Z</time>
      </trkpt>
      <trkpt lat="45.92906" lon="4.73034">
        <ele>172</ele>
        <time>2017-05-22T10:59:53Z</time>
      </trkpt>
      <trkpt lat="45.92903" lon="4.73039">
        <ele>172</ele>
        <time>2017-05-22T10:59:54Z</time>
      </trkpt>
      <trkpt lat="45.92899" lon="4.73044">
        <ele>172</ele>
        <time>2017-05-22T10:59:55Z</time>
      </trkpt>
      <trkpt lat="45.92896" lon="4.73049">
        <ele>172</ele>
        <time>2017-05-22T10:59:56Z</time>
      </trkpt>
      <trkpt lat="45.92893" lon="4.73055">
        <ele>172</ele>
        <time>2017-05-22T10:59:57Z</time>
      </trkpt>
      <trkpt lat="45.9289" lon="4.7306">
        <ele>172</ele>
        <time>2017-05-22T10:59:58Z</time>
      </trkpt>
      <trkpt lat="45.92887" lon="4.73065">
        <ele>172</ele>
        <time>2017-05-22T10:59:59Z</time>
      </trkpt>
      <trkpt lat="45.92884" lon="4.73069">
        <ele>172</ele>
        <time>2017-05-22T11:00:00Z</time>
      </trkpt>
      <trkpt lat="45.92881" lon="4.73076">
        <ele>172</ele>
        <time>2017-05-22T11:00:01Z</time>
      </trkpt>
      <trkpt lat="45.92879" lon="4.73082">
        <ele>172</ele>
        <time>2017-05-22T11:00:02Z</time>
      </trkpt>
      <trkpt lat="45.92877" lon="4.73088">
        <ele>172</ele>
        <time>2017-05-22T11:00:03Z</time>
      </trkpt>
      <trkpt lat="45.92873" lon="4.731">
        <ele>172</ele>
        <time>2017-05-22T11:00:05Z</time>
      </trkpt>
      <trkpt lat="45.92871" lon="4.73105">
        <ele>172</ele>
        <time>2017-05-22T11:00:06Z</time>
      </trkpt>
      <trkpt lat="45.92868" lon="4.73116">
        <ele>171</ele>
        <time>2017-05-22T11:00:08Z</time>
      </trkpt>
      <trkpt lat="45.92867" lon="4.73122">
        <ele>171</ele>
        <time>2017-05-22T11:00:09Z</time>
      </trkpt>
      <trkpt lat="45.92866" lon="4.73129">
        <ele>171</ele>
        <time>2017-05-22T11:00:10Z</time>
      </trkpt>
      <trkpt lat="45.92865" lon="4.73135">
        <ele>171</ele>
        <time>2017-05-22T11:00:11Z</time>
      </trkpt>
      <trkpt lat="45.92863" lon="4.73142">
        <ele>171</ele>
        <time>2017-05-22T11:00:12Z</time>
      </trkpt>
      <trkpt lat="45.92862" lon="4.73149">
        <ele>171</ele>
        <time>2017-05-22T11:00:13Z</time>
      </trkpt>
      <trkpt lat="45.92861" lon="4.73156">
        <ele>171</ele>
        <time>2017-05-22T11:00:14Z</time>
      </trkpt>
      <trkpt lat="45.9286" lon="4.73162">
        <ele>171</ele>
        <time>2017-05-22T11:00:15Z</time>
      </trkpt>
      <trkpt lat="45.92858" lon="4.73174">
        <ele>171</ele>
        <time>2017-05-22T11:00:17Z</time>
      </trkpt>
      <trkpt lat="45.92858" lon="4.73181">
        <ele>171</ele>
        <time>2017-05-22T11:00:18Z</time>
      </trkpt>
      <trkpt lat="45.92857" lon="4.73188">
        <ele>171</ele>
        <time>2017-05-22T11:00:19Z</time>
      </trkpt>
      <trkpt lat="45.92856" lon="4.73196">
        <ele>171</ele>
        <time>2017-05-22T11:00:20Z</time>
      </trkpt>
      <trkpt lat="45.92855" lon="4.73203">
        <ele>171</ele>
        <time>2017-05-22T11:00:21Z</time>
      </trkpt>
      <trkpt lat="45.92855" lon="4.73212">
        <ele>171</ele>
        <time>2017-05-22T11:00:22Z</time>
      </trkpt>
      <trkpt lat="45.92854" lon="4.7322">
        <ele>171</ele>
        <time>2017-05-22T11:00:23Z</time>
      </trkpt>
      <trkpt lat="45.92853" lon="4.73228">
        <ele>171</ele>
        <time>2017-05-22T11:00:24Z</time>
      </trkpt>
      <trkpt lat="45.92852" lon="4.73237">
        <ele>171</ele>
        <time>2017-05-22T11:00:25Z</time>
      </trkpt>
      <trkpt lat="45.9285" lon="4.73245">
        <ele>171</ele>
        <time>2017-05-22T11:00:26Z</time>
      </trkpt>
      <trkpt lat="45.92849" lon="4.73253">
        <ele>171</ele>
        <time>2017-05-22T11:00:27Z</time>
      </trkpt>
      <trkpt lat="45.92849" lon="4.73261">
        <ele>171</ele>
        <time>2017-05-22T11:00:28Z</time>
      </trkpt>
      <trkpt lat="45.92848" lon="4.73269">
        <ele>171</ele>
        <time>2017-05-22T11:00:29Z</time>
      </trkpt>
      <trkpt lat="45.92847" lon="4.73277">
        <ele>171</ele>
        <time>2017-05-22T11:00:30Z</time>
      </trkpt>
      <trkpt lat="45.92847" lon="4.73285">
        <ele>171</ele>
        <time>2017-05-22T11:00:31Z</time>
      </trkpt>
      <trkpt lat="45.92845" lon="4.73292">
        <ele>171</ele>
        <time>2017-05-22T11:00:32Z</time>
      </trkpt>
      <trkpt lat="45.92844" lon="4.733">
        <ele>171</ele>
        <time>2017-05-22T11:00:33Z</time>
      </trkpt>
      <trkpt lat="45.92844" lon="4.73307">
        <ele>171</ele>
        <time>2017-05-22T11:00:34Z</time>
      </trkpt>
      <trkpt lat="45.92843" lon="4.73314">
        <ele>171</ele>
        <time>2017-05-22T11:00:35Z</time>
      </trkpt>
      <trkpt lat="45.92842" lon="4.73321">
        <ele>171</ele>
        <time>2017-05-22T11:00:36Z</time>
      </trkpt>
      <trkpt lat="45.9284" lon="4.73333">
        <ele>171</ele>
        <time>2017-05-22T11:00:38Z</time>
      </trkpt>
      <trkpt lat="45.9284" lon="4.7334">
        <ele>171</ele>
        <time>2017-05-22T11:00:39Z</time>
      </trkpt>
      <trkpt lat="45.92838" lon="4.73347">
        <ele>171</ele>
        <time>2017-05-22T11:00:40Z</time>
      </trkpt>
      <trkpt lat="45.92837" lon="4.73355">
        <ele>171</ele>
        <time>2017-05-22T11:00:41Z</time>
      </trkpt>
      <trkpt lat="45.92837" lon="4.73364">
        <ele>171</ele>
        <time>2017-05-22T11:00:42Z</time>
      </trkpt>
      <trkpt lat="45.92836" lon="4.73373">
        <ele>171</ele>
        <time>2017-05-22T11:00:43Z</time>
      </trkpt>
      <trkpt lat="45.92836" lon="4.73381">
        <ele>172</ele>
        <time>2017-05-22T11:00:44Z</time>
      </trkpt>
      <trkpt lat="45.92835" lon="4.73389">
        <ele>172</ele>
        <time>2017-05-22T11:00:45Z</time>
      </trkpt>
      <trkpt lat="45.92834" lon="4.73397">
        <ele>172</ele>
        <time>2017-05-22T11:00:46Z</time>
      </trkpt>
      <trkpt lat="45.92833" lon="4.73404">
        <ele>172</ele>
        <time>2017-05-22T11:00:47Z</time>
      </trkpt>
      <trkpt lat="45.92832" lon="4.73411">
        <ele>172</ele>
        <time>2017-05-22T11:00:48Z</time>
      </trkpt>
      <trkpt lat="45.92832" lon="4.73418">
        <ele>172</ele>
        <time>2017-05-22T11:00:49Z</time>
      </trkpt>
      <trkpt lat="45.92831" lon="4.7343">
        <ele>172</ele>
        <time>2017-05-22T11:00:51Z</time>
      </trkpt>
      <trkpt lat="45.92831" lon="4.73435">
        <ele>172</ele>
        <time>2017-05-22T11:00:52Z</time>
      </trkpt>
      <trkpt lat="45.92829" lon="4.73441">
        <ele>172</ele>
        <time>2017-05-22T11:00:53Z</time>
      </trkpt>
      <trkpt lat="45.92826" lon="4.73447">
        <ele>172</ele>
        <time>2017-05-22T11:00:54Z</time>
      </trkpt>
      <trkpt lat="45.92824" lon="4.73455">
        <ele>172</ele>
        <time>2017-05-22T11:00:55Z</time>
      </trkpt>
      <trkpt lat="45.92823" lon="4.73464">
        <ele>171</ele>
        <time>2017-05-22T11:00:56Z</time>
      </trkpt>
      <trkpt lat="45.92822" lon="4.73474">
        <ele>172</ele>
        <time>2017-05-22T11:00:57Z</time>
      </trkpt>
      <trkpt lat="45.92821" lon="4.73483">
        <ele>172</ele>
        <time>2017-05-22T11:00:58Z</time>
      </trkpt>
      <trkpt lat="45.9282" lon="4.73492">
        <ele>172</ele>
        <time>2017-05-22T11:00:59Z</time>
      </trkpt>
      <trkpt lat="45.92819" lon="4.735">
        <ele>172</ele>
        <time>2017-05-22T11:01:00Z</time>
      </trkpt>
      <trkpt lat="45.92818" lon="4.73508">
        <ele>172</ele>
        <time>2017-05-22T11:01:01Z</time>
      </trkpt>
      <trkpt lat="45.92818" lon="4.73517">
        <ele>172</ele>
        <time>2017-05-22T11:01:02Z</time>
      </trkpt>
      <trkpt lat="45.92816" lon="4.73525">
        <ele>172</ele>
        <time>2017-05-22T11:01:03Z</time>
      </trkpt>
      <trkpt lat="45.92815" lon="4.73532">
        <ele>172</ele>
        <time>2017-05-22T11:01:04Z</time>
      </trkpt>
      <trkpt lat="45.92814" lon="4.73544">
        <ele>171</ele>
        <time>2017-05-22T11:01:06Z</time>
      </trkpt>
      <trkpt lat="45.92813" lon="4.7355">
        <ele>171</ele>
        <time>2017-05-22T11:01:07Z</time>
      </trkpt>
      <trkpt lat="45.92812" lon="4.73557">
        <ele>171</ele>
        <time>2017-05-22T11:01:08Z</time>
      </trkpt>
      <trkpt lat="45.92811" lon="4.73565">
        <ele>171</ele>
        <time>2017-05-22T11:01:09Z</time>
      </trkpt>
      <trkpt lat="45.9281" lon="4.73572">
        <ele>171</ele>
        <time>2017-05-22T11:01:10Z</time>
      </trkpt>
      <trkpt lat="45.9281" lon="4.7358">
        <ele>171</ele>
        <time>2017-05-22T11:01:11Z</time>
      </trkpt>
      <trkpt lat="45.92809" lon="4.73589">
        <ele>172</ele>
        <time>2017-05-22T11:01:12Z</time>
      </trkpt>
      <trkpt lat="45.92809" lon="4.73596">
        <ele>172</ele>
        <time>2017-05-22T11:01:13Z</time>
      </trkpt>
      <trkpt lat="45.92809" lon="4.73604">
        <ele>172</ele>
        <time>2017-05-22T11:01:14Z</time>
      </trkpt>
      <trkpt lat="45.92809" lon="4.73612">
        <ele>172</ele>
        <time>2017-05-22T11:01:15Z</time>
      </trkpt>
      <trkpt lat="45.92807" lon="4.73619">
        <ele>172</ele>
        <time>2017-05-22T11:01:16Z</time>
      </trkpt>
      <trkpt lat="45.92804" lon="4.73625">
        <ele>172</ele>
        <time>2017-05-22T11:01:17Z</time>
      </trkpt>
      <trkpt lat="45.92801" lon="4.73631">
        <ele>172</ele>
        <time>2017-05-22T11:01:18Z</time>
      </trkpt>
      <trkpt lat="45.92799" lon="4.73638">
        <ele>172</ele>
        <time>2017-05-22T11:01:19Z</time>
      </trkpt>
      <trkpt lat="45.92796" lon="4.73644">
        <ele>172</ele>
        <time>2017-05-22T11:01:20Z</time>
      </trkpt>
      <trkpt lat="45.92794" lon="4.73651">
        <ele>172</ele>
        <time>2017-05-22T11:01:21Z</time>
      </trkpt>
      <trkpt lat="45.92793" lon="4.73658">
        <ele>172</ele>
        <time>2017-05-22T11:01:22Z</time>
      </trkpt>
      <trkpt lat="45.92792" lon="4.73664">
        <ele>172</ele>
        <time>2017-05-22T11:01:23Z</time>
      </trkpt>
      <trkpt lat="45.9279" lon="4.73675">
        <ele>172</ele>
        <time>2017-05-22T11:01:25Z</time>
      </trkpt>
      <trkpt lat="45.92788" lon="4.73681">
        <ele>172</ele>
        <time>2017-05-22T11:01:26Z</time>
      </trkpt>
      <trkpt lat="45.92786" lon="4.73687">
        <ele>172</ele>
        <time>2017-05-22T11:01:27Z</time>
      </trkpt>
      <trkpt lat="45.92784" lon="4.73693">
        <ele>172</ele>
        <time>2017-05-22T11:01:28Z</time>
      </trkpt>
      <trkpt lat="45.92783" lon="4.737">
        <ele>172</ele>
        <time>2017-05-22T11:01:29Z</time>
      </trkpt>
      <trkpt lat="45.92782" lon="4.73707">
        <ele>172</ele>
        <time>2017-05-22T11:01:30Z</time>
      </trkpt>
      <trkpt lat="45.9278" lon="4.73719">
        <ele>172</ele>
        <time>2017-05-22T11:01:32Z</time>
      </trkpt>
      <trkpt lat="45.92777" lon="4.73725">
        <ele>172</ele>
        <time>2017-05-22T11:01:33Z</time>
      </trkpt>
      <trkpt lat="45.92769" lon="4.73725">
        <ele>172</ele>
        <time>2017-05-22T11:01:36Z</time>
      </trkpt>
      <trkpt lat="45.92767" lon="4.73724">
        <ele>172</ele>
        <time>2017-05-22T11:01:37Z</time>
      </trkpt>
      <trkpt lat="45.92758" lon="4.73721">
        <ele>172</ele>
        <time>2017-05-22T11:01:39Z</time>
      </trkpt>
      <trkpt lat="45.92755" lon="4.73721">
        <ele>172</ele>
        <time>2017-05-22T11:01:40Z</time>
      </trkpt>
      <trkpt lat="45.92748" lon="4.73721">
        <ele>173</ele>
        <time>2017-05-22T11:01:42Z</time>
      </trkpt>
      <trkpt lat="45.92745" lon="4.73721">
        <ele>173</ele>
        <time>2017-05-22T11:01:43Z</time>
      </trkpt>
      <trkpt lat="45.92736" lon="4.73721">
        <ele>173</ele>
        <time>2017-05-22T11:01:45Z</time>
      </trkpt>
      <trkpt lat="45.92731" lon="4.7372">
        <ele>173</ele>
        <time>2017-05-22T11:01:46Z</time>
      </trkpt>
      <trkpt lat="45.92727" lon="4.73719">
        <ele>173</ele>
        <time>2017-05-22T11:01:47Z</time>
      </trkpt>
      <trkpt lat="45.92722" lon="4.73717">
        <ele>173</ele>
        <time>2017-05-22T11:01:48Z</time>
      </trkpt>
      <trkpt lat="45.92714" lon="4.73715">
        <ele>173</ele>
        <time>2017-05-22T11:01:50Z</time>
      </trkpt>
      <trkpt lat="45.9271" lon="4.73713">
        <ele>173</ele>
        <time>2017-05-22T11:01:51Z</time>
      </trkpt>
      <trkpt lat="45.92705" lon="4.73712">
        <ele>173</ele>
        <time>2017-05-22T11:01:52Z</time>
      </trkpt>
      <trkpt lat="45.92701" lon="4.73711">
        <ele>173</ele>
        <time>2017-05-22T11:01:53Z</time>
      </trkpt>
      <trkpt lat="45.92696" lon="4.7371">
        <ele>173</ele>
        <time>2017-05-22T11:01:54Z</time>
      </trkpt>
      <trkpt lat="45.92691" lon="4.73709">
        <ele>173</ele>
        <time>2017-05-22T11:01:55Z</time>
      </trkpt>
      <trkpt lat="45.92686" lon="4.73708">
        <ele>173</ele>
        <time>2017-05-22T11:01:56Z</time>
      </trkpt>
      <trkpt lat="45.92681" lon="4.73707">
        <ele>173</ele>
        <time>2017-05-22T11:01:57Z</time>
      </trkpt>
      <trkpt lat="45.92677" lon="4.73705">
        <ele>173</ele>
        <time>2017-05-22T11:01:58Z</time>
      </trkpt>
      <trkpt lat="45.92672" lon="4.73703">
        <ele>174</ele>
        <time>2017-05-22T11:01:59Z</time>
      </trkpt>
      <trkpt lat="45.92665" lon="4.73699">
        <ele>173</ele>
        <time>2017-05-22T11:02:01Z</time>
      </trkpt>
      <trkpt lat="45.92661" lon="4.73696">
        <ele>173</ele>
        <time>2017-05-22T11:02:02Z</time>
      </trkpt>
      <trkpt lat="45.92657" lon="4.73691">
        <ele>173</ele>
        <time>2017-05-22T11:02:03Z</time>
      </trkpt>
      <trkpt lat="45.92653" lon="4.73687">
        <ele>173</ele>
        <time>2017-05-22T11:02:04Z</time>
      </trkpt>
      <trkpt lat="45.9265" lon="4.73683">
        <ele>173</ele>
        <time>2017-05-22T11:02:05Z</time>
      </trkpt>
      <trkpt lat="45.92647" lon="4.73677">
        <ele>173</ele>
        <time>2017-05-22T11:02:06Z</time>
      </trkpt>
      <trkpt lat="45.92643" lon="4.7367">
        <ele>173</ele>
        <time>2017-05-22T11:02:07Z</time>
      </trkpt>
      <trkpt lat="45.92641" lon="4.73663">
        <ele>173</ele>
        <time>2017-05-22T11:02:08Z</time>
      </trkpt>
      <trkpt lat="45.92638" lon="4.73656">
        <ele>173</ele>
        <time>2017-05-22T11:02:09Z</time>
      </trkpt>
      <trkpt lat="45.92636" lon="4.73648">
        <ele>173</ele>
        <time>2017-05-22T11:02:10Z</time>
      </trkpt>
      <trkpt lat="45.92632" lon="4.73641">
        <ele>173</ele>
        <time>2017-05-22T11:02:11Z</time>
      </trkpt>
      <trkpt lat="45.92627" lon="4.73634">
        <ele>173</ele>
        <time>2017-05-22T11:02:12Z</time>
      </trkpt>
      <trkpt lat="45.92622" lon="4.73629">
        <ele>173</ele>
        <time>2017-05-22T11:02:13Z</time>
      </trkpt>
      <trkpt lat="45.92616" lon="4.73626">
        <ele>173</ele>
        <time>2017-05-22T11:02:14Z</time>
      </trkpt>
      <trkpt lat="45.92611" lon="4.73624">
        <ele>173</ele>
        <time>2017-05-22T11:02:15Z</time>
      </trkpt>
      <trkpt lat="45.92606" lon="4.73624">
        <ele>173</ele>
        <time>2017-05-22T11:02:16Z</time>
      </trkpt>
      <trkpt lat="45.92601" lon="4.73623">
        <ele>173</ele>
        <time>2017-05-22T11:02:17Z</time>
      </trkpt>
      <trkpt lat="45.92596" lon="4.73623">
        <ele>173</ele>
        <time>2017-05-22T11:02:18Z</time>
      </trkpt>
      <trkpt lat="45.92587" lon="4.73625">
        <ele>172</ele>
        <time>2017-05-22T11:02:20Z</time>
      </trkpt>
      <trkpt lat="45.92583" lon="4.73626">
        <ele>173</ele>
        <time>2017-05-22T11:02:21Z</time>
      </trkpt>
      <trkpt lat="45.92575" lon="4.73628">
        <ele>173</ele>
        <time>2017-05-22T11:02:23Z</time>
      </trkpt>
      <trkpt lat="45.9257" lon="4.7363">
        <ele>173</ele>
        <time>2017-05-22T11:02:24Z</time>
      </trkpt>
      <trkpt lat="45.92564" lon="4.73631">
        <ele>173</ele>
        <time>2017-05-22T11:02:25Z</time>
      </trkpt>
      <trkpt lat="45.92557" lon="4.7363">
        <ele>173</ele>
        <time>2017-05-22T11:02:26Z</time>
      </trkpt>
      <trkpt lat="45.9255" lon="4.73632">
        <ele>173</ele>
        <time>2017-05-22T11:02:27Z</time>
      </trkpt>
      <trkpt lat="45.92544" lon="4.73633">
        <ele>173</ele>
        <time>2017-05-22T11:02:28Z</time>
      </trkpt>
      <trkpt lat="45.92538" lon="4.73635">
        <ele>173</ele>
        <time>2017-05-22T11:02:29Z</time>
      </trkpt>
      <trkpt lat="45.92533" lon="4.73636">
        <ele>173</ele>
        <time>2017-05-22T11:02:30Z</time>
      </trkpt>
      <trkpt lat="45.92527" lon="4.73637">
        <ele>173</ele>
        <time>2017-05-22T11:02:31Z</time>
      </trkpt>
      <trkpt lat="45.92523" lon="4.73638">
        <ele>173</ele>
        <time>2017-05-22T11:02:32Z</time>
      </trkpt>
      <trkpt lat="45.92518" lon="4.73639">
        <ele>173</ele>
        <time>2017-05-22T11:02:33Z</time>
      </trkpt>
      <trkpt lat="45.92513" lon="4.73639">
        <ele>174</ele>
        <time>2017-05-22T11:02:34Z</time>
      </trkpt>
      <trkpt lat="45.92506" lon="4.73641">
        <ele>174</ele>
        <time>2017-05-22T11:02:36Z</time>
      </trkpt>
      <trkpt lat="45.92502" lon="4.73641">
        <ele>174</ele>
        <time>2017-05-22T11:02:37Z</time>
      </trkpt>
      <trkpt lat="45.92494" lon="4.7364">
        <ele>174</ele>
        <time>2017-05-22T11:02:39Z</time>
      </trkpt>
      <trkpt lat="45.9249" lon="4.7364">
        <ele>174</ele>
        <time>2017-05-22T11:02:40Z</time>
      </trkpt>
      <trkpt lat="45.92482" lon="4.7364">
        <ele>174</ele>
        <time>2017-05-22T11:02:42Z</time>
      </trkpt>
      <trkpt lat="45.92478" lon="4.73642">
        <ele>174</ele>
        <time>2017-05-22T11:02:43Z</time>
      </trkpt>
      <trkpt lat="45.92471" lon="4.73648">
        <ele>174</ele>
        <time>2017-05-22T11:02:45Z</time>
      </trkpt>
      <trkpt lat="45.92469" lon="4.73653">
        <ele>174</ele>
        <time>2017-05-22T11:02:46Z</time>
      </trkpt>
      <trkpt lat="45.92468" lon="4.73663">
        <ele>174</ele>
        <time>2017-05-22T11:02:48Z</time>
      </trkpt>
      <trkpt lat="45.92467" lon="4.73667">
        <ele>174</ele>
        <time>2017-05-22T11:02:49Z</time>
      </trkpt>
      <trkpt lat="45.92466" lon="4.73679">
        <ele>174</ele>
        <time>2017-05-22T11:02:52Z</time>
      </trkpt>
      <trkpt lat="45.92465" lon="4.73683">
        <ele>174</ele>
        <time>2017-05-22T11:02:53Z</time>
      </trkpt>
      <trkpt lat="45.92464" lon="4.73694">
        <ele>174</ele>
        <time>2017-05-22T11:02:56Z</time>
      </trkpt>
      <trkpt lat="45.92464" lon="4.73696">
        <ele>174</ele>
        <time>2017-05-22T11:02:57Z</time>
      </trkpt>
      <trkpt lat="45.92463" lon="4.73705">
        <ele>174</ele>
        <time>2017-05-22T11:03:31.018Z</time>
      </trkpt>
    </trkseg>
  </trk>
</gpx>